<?xml version="1.0" encoding="UTF-8" standalone="no" ?>
<gpx xmlns="http://www.topografix.com/GPX/1/1" xmlns:xsi="http://www.w3.org/2001/XMLSchema-instance" xsi:schemaLocation="http://www.topografix.com/GPX/1/1 http://www.topografix.com/GPX/1/1/gpx.xsd" version="1.1" creator="VisuGPX - https://www.visugpx.com">
  <metadata>
    <name>Les Angles - JMP / Pascal / Flo</name>
    <desc><![CDATA[Les Angles - JMP / Pascal / Flo]]></desc>
  </metadata>
  <trk>
    <name><![CDATA[Nouveau parcours]]></name>
    <trkseg>
      <trkpt lat="42.5747" lon="2.06914">
        <ele>1639.359497</ele>
        <time>2011-09-24T08:00:32Z</time>
      </trkpt>
      <trkpt lat="42.57468" lon="2.06928">
        <ele>1641.852173</ele>
        <time>2011-09-24T08:00:33Z</time>
      </trkpt>
      <trkpt lat="42.57468" lon="2.06928">
        <ele>1641.852173</ele>
        <time>2011-09-24T08:00:35Z</time>
      </trkpt>
      <trkpt lat="42.57467" lon="2.06941">
        <ele>1649.173096</ele>
        <time>2011-09-24T08:00:36Z</time>
      </trkpt>
      <trkpt lat="42.57469" lon="2.06949">
        <ele>1659.087158</ele>
        <time>2011-09-24T08:00:58Z</time>
      </trkpt>
      <trkpt lat="42.57469" lon="2.06949">
        <ele>1659.347534</ele>
        <time>2011-09-24T08:01:02Z</time>
      </trkpt>
      <trkpt lat="42.57469" lon="2.06961">
        <ele>1659.635132</ele>
        <time>2011-09-24T08:01:51Z</time>
      </trkpt>
      <trkpt lat="42.57464" lon="2.06958">
        <ele>1660.093506</ele>
        <time>2011-09-24T08:02:09Z</time>
      </trkpt>
      <trkpt lat="42.57461" lon="2.06954">
        <ele>1660.105469</ele>
        <time>2011-09-24T08:02:14Z</time>
      </trkpt>
      <trkpt lat="42.57466" lon="2.06951">
        <ele>1660.100098</ele>
        <time>2011-09-24T08:02:28Z</time>
      </trkpt>
      <trkpt lat="42.5747" lon="2.06954">
        <ele>1660.081665</ele>
        <time>2011-09-24T08:02:39Z</time>
      </trkpt>
      <trkpt lat="42.57465" lon="2.06956">
        <ele>1660.091675</ele>
        <time>2011-09-24T08:02:54Z</time>
      </trkpt>
      <trkpt lat="42.57463" lon="2.0695">
        <ele>1660.763428</ele>
        <time>2011-09-24T08:04:26Z</time>
      </trkpt>
      <trkpt lat="42.57468" lon="2.06953">
        <ele>1661.63269</ele>
        <time>2011-09-24T08:05:03Z</time>
      </trkpt>
      <trkpt lat="42.57468" lon="2.06954">
        <ele>1661.659912</ele>
        <time>2011-09-24T08:05:04Z</time>
      </trkpt>
      <trkpt lat="42.57463" lon="2.06954">
        <ele>1661.654175</ele>
        <time>2011-09-24T08:05:25Z</time>
      </trkpt>
      <trkpt lat="42.57468" lon="2.06949">
        <ele>1660.7323</ele>
        <time>2011-09-24T08:06:08Z</time>
      </trkpt>
      <trkpt lat="42.57464" lon="2.06945">
        <ele>1660.718384</ele>
        <time>2011-09-24T08:06:39Z</time>
      </trkpt>
      <trkpt lat="42.57456" lon="2.06948">
        <ele>1660.971069</ele>
        <time>2011-09-24T08:06:47Z</time>
      </trkpt>
      <trkpt lat="42.57453" lon="2.06943">
        <ele>1661.076172</ele>
        <time>2011-09-24T08:06:55Z</time>
      </trkpt>
      <trkpt lat="42.57458" lon="2.06944">
        <ele>1662.924316</ele>
        <time>2011-09-24T08:07:14Z</time>
      </trkpt>
      <trkpt lat="42.57463" lon="2.06946">
        <ele>1663.487671</ele>
        <time>2011-09-24T08:07:20Z</time>
      </trkpt>
      <trkpt lat="42.57466" lon="2.06954">
        <ele>1663.511353</ele>
        <time>2011-09-24T08:08:17Z</time>
      </trkpt>
      <trkpt lat="42.57459" lon="2.06951">
        <ele>1660.306519</ele>
        <time>2011-09-24T08:09:33Z</time>
      </trkpt>
      <trkpt lat="42.57464" lon="2.06945">
        <ele>1660.131714</ele>
        <time>2011-09-24T08:09:57Z</time>
      </trkpt>
      <trkpt lat="42.57469" lon="2.06941">
        <ele>1660.11731</ele>
        <time>2011-09-24T08:09:59Z</time>
      </trkpt>
      <trkpt lat="42.57473" lon="2.06936">
        <ele>1660.079224</ele>
        <time>2011-09-24T08:10:01Z</time>
      </trkpt>
      <trkpt lat="42.57479" lon="2.06932">
        <ele>1660.061279</ele>
        <time>2011-09-24T08:10:03Z</time>
      </trkpt>
      <trkpt lat="42.57484" lon="2.06929">
        <ele>1660.041748</ele>
        <time>2011-09-24T08:10:05Z</time>
      </trkpt>
      <trkpt lat="42.57486" lon="2.06923">
        <ele>1659.876343</ele>
        <time>2011-09-24T08:10:14Z</time>
      </trkpt>
      <trkpt lat="42.57482" lon="2.06933">
        <ele>1659.688232</ele>
        <time>2011-09-24T08:11:02Z</time>
      </trkpt>
      <trkpt lat="42.5748" lon="2.06938">
        <ele>1659.616577</ele>
        <time>2011-09-24T08:11:30Z</time>
      </trkpt>
      <trkpt lat="42.57475" lon="2.06939">
        <ele>1659.753296</ele>
        <time>2011-09-24T08:14:08Z</time>
      </trkpt>
      <trkpt lat="42.57479" lon="2.06934">
        <ele>1659.550659</ele>
        <time>2011-09-24T08:16:57Z</time>
      </trkpt>
      <trkpt lat="42.57484" lon="2.06929">
        <ele>1659.956299</ele>
        <time>2011-09-24T08:17:16Z</time>
      </trkpt>
      <trkpt lat="42.57481" lon="2.06935">
        <ele>1661.416016</ele>
        <time>2011-09-24T08:17:52Z</time>
      </trkpt>
      <trkpt lat="42.57478" lon="2.0694">
        <ele>1661.782227</ele>
        <time>2011-09-24T08:17:56Z</time>
      </trkpt>
      <trkpt lat="42.57473" lon="2.06945">
        <ele>1662.134399</ele>
        <time>2011-09-24T08:18:00Z</time>
      </trkpt>
      <trkpt lat="42.57469" lon="2.06949">
        <ele>1662.438965</ele>
        <time>2011-09-24T08:18:04Z</time>
      </trkpt>
      <trkpt lat="42.57471" lon="2.06943">
        <ele>1662.90625</ele>
        <time>2011-09-24T08:19:07Z</time>
      </trkpt>
      <trkpt lat="42.57476" lon="2.06937">
        <ele>1662.900757</ele>
        <time>2011-09-24T08:19:10Z</time>
      </trkpt>
      <trkpt lat="42.57481" lon="2.06931">
        <ele>1662.907227</ele>
        <time>2011-09-24T08:19:13Z</time>
      </trkpt>
      <trkpt lat="42.57485" lon="2.06926">
        <ele>1662.921875</ele>
        <time>2011-09-24T08:19:16Z</time>
      </trkpt>
      <trkpt lat="42.57491" lon="2.06923">
        <ele>1662.939453</ele>
        <time>2011-09-24T08:19:19Z</time>
      </trkpt>
      <trkpt lat="42.57495" lon="2.0692">
        <ele>1662.968018</ele>
        <time>2011-09-24T08:19:23Z</time>
      </trkpt>
      <trkpt lat="42.5749" lon="2.06919">
        <ele>1662.937622</ele>
        <time>2011-09-24T08:19:31Z</time>
      </trkpt>
      <trkpt lat="42.57485" lon="2.06919">
        <ele>1662.890015</ele>
        <time>2011-09-24T08:19:34Z</time>
      </trkpt>
      <trkpt lat="42.57483" lon="2.06909">
        <ele>1655.358887</ele>
        <time>2011-09-24T08:21:01Z</time>
      </trkpt>
      <trkpt lat="42.57483" lon="2.06902">
        <ele>1653.777466</ele>
        <time>2011-09-24T08:21:06Z</time>
      </trkpt>
      <trkpt lat="42.57484" lon="2.06899">
        <ele>1653.458496</ele>
        <time>2011-09-24T08:21:07Z</time>
      </trkpt>
      <trkpt lat="42.57484" lon="2.06892">
        <ele>1653.015503</ele>
        <time>2011-09-24T08:21:09Z</time>
      </trkpt>
      <trkpt lat="42.57484" lon="2.06885">
        <ele>1652.675415</ele>
        <time>2011-09-24T08:21:11Z</time>
      </trkpt>
      <trkpt lat="42.57483" lon="2.06878">
        <ele>1652.327515</ele>
        <time>2011-09-24T08:21:13Z</time>
      </trkpt>
      <trkpt lat="42.57482" lon="2.06871">
        <ele>1651.923706</ele>
        <time>2011-09-24T08:21:15Z</time>
      </trkpt>
      <trkpt lat="42.57481" lon="2.06863">
        <ele>1651.546387</ele>
        <time>2011-09-24T08:21:17Z</time>
      </trkpt>
      <trkpt lat="42.5748" lon="2.06853">
        <ele>1651.492065</ele>
        <time>2011-09-24T08:21:19Z</time>
      </trkpt>
      <trkpt lat="42.57478" lon="2.06843">
        <ele>1651.640625</ele>
        <time>2011-09-24T08:21:21Z</time>
      </trkpt>
      <trkpt lat="42.57475" lon="2.06832">
        <ele>1651.988159</ele>
        <time>2011-09-24T08:21:23Z</time>
      </trkpt>
      <trkpt lat="42.57472" lon="2.06821">
        <ele>1652.431885</ele>
        <time>2011-09-24T08:21:25Z</time>
      </trkpt>
      <trkpt lat="42.57469" lon="2.06812">
        <ele>1652.940552</ele>
        <time>2011-09-24T08:21:27Z</time>
      </trkpt>
      <trkpt lat="42.57466" lon="2.06803">
        <ele>1653.550293</ele>
        <time>2011-09-24T08:21:29Z</time>
      </trkpt>
      <trkpt lat="42.57463" lon="2.06793">
        <ele>1654.213989</ele>
        <time>2011-09-24T08:21:31Z</time>
      </trkpt>
      <trkpt lat="42.57462" lon="2.06789">
        <ele>1654.559937</ele>
        <time>2011-09-24T08:21:32Z</time>
      </trkpt>
      <trkpt lat="42.5746" lon="2.0678">
        <ele>1655.265747</ele>
        <time>2011-09-24T08:21:34Z</time>
      </trkpt>
      <trkpt lat="42.57458" lon="2.06771">
        <ele>1656.014893</ele>
        <time>2011-09-24T08:21:36Z</time>
      </trkpt>
      <trkpt lat="42.57456" lon="2.06763">
        <ele>1656.914917</ele>
        <time>2011-09-24T08:21:38Z</time>
      </trkpt>
      <trkpt lat="42.57455" lon="2.06753">
        <ele>1658.325806</ele>
        <time>2011-09-24T08:21:40Z</time>
      </trkpt>
      <trkpt lat="42.57454" lon="2.06742">
        <ele>1659.822998</ele>
        <time>2011-09-24T08:21:42Z</time>
      </trkpt>
      <trkpt lat="42.57452" lon="2.06732">
        <ele>1661.30249</ele>
        <time>2011-09-24T08:21:44Z</time>
      </trkpt>
      <trkpt lat="42.57452" lon="2.06727">
        <ele>1662.045288</ele>
        <time>2011-09-24T08:21:45Z</time>
      </trkpt>
      <trkpt lat="42.57451" lon="2.06718">
        <ele>1663.586792</ele>
        <time>2011-09-24T08:21:47Z</time>
      </trkpt>
      <trkpt lat="42.57451" lon="2.06714">
        <ele>1664.423218</ele>
        <time>2011-09-24T08:21:48Z</time>
      </trkpt>
      <trkpt lat="42.57451" lon="2.06706">
        <ele>1666.10144</ele>
        <time>2011-09-24T08:21:50Z</time>
      </trkpt>
      <trkpt lat="42.57451" lon="2.06698">
        <ele>1667.759155</ele>
        <time>2011-09-24T08:21:52Z</time>
      </trkpt>
      <trkpt lat="42.57451" lon="2.06688">
        <ele>1669.523315</ele>
        <time>2011-09-24T08:21:54Z</time>
      </trkpt>
      <trkpt lat="42.5745" lon="2.06679">
        <ele>1671.361938</ele>
        <time>2011-09-24T08:21:56Z</time>
      </trkpt>
      <trkpt lat="42.57448" lon="2.0667">
        <ele>1673.30896</ele>
        <time>2011-09-24T08:21:58Z</time>
      </trkpt>
      <trkpt lat="42.57446" lon="2.0666">
        <ele>1675.349976</ele>
        <time>2011-09-24T08:22:00Z</time>
      </trkpt>
      <trkpt lat="42.57445" lon="2.06651">
        <ele>1677.288696</ele>
        <time>2011-09-24T08:22:02Z</time>
      </trkpt>
      <trkpt lat="42.57445" lon="2.06641">
        <ele>1679.239136</ele>
        <time>2011-09-24T08:22:04Z</time>
      </trkpt>
      <trkpt lat="42.57445" lon="2.06631">
        <ele>1681.178711</ele>
        <time>2011-09-24T08:22:06Z</time>
      </trkpt>
      <trkpt lat="42.57445" lon="2.06626">
        <ele>1682.13501</ele>
        <time>2011-09-24T08:22:07Z</time>
      </trkpt>
      <trkpt lat="42.57445" lon="2.06616">
        <ele>1684.024292</ele>
        <time>2011-09-24T08:22:09Z</time>
      </trkpt>
      <trkpt lat="42.57445" lon="2.06606">
        <ele>1685.862915</ele>
        <time>2011-09-24T08:22:11Z</time>
      </trkpt>
      <trkpt lat="42.57444" lon="2.06597">
        <ele>1687.67749</ele>
        <time>2011-09-24T08:22:13Z</time>
      </trkpt>
      <trkpt lat="42.57443" lon="2.06588">
        <ele>1689.486328</ele>
        <time>2011-09-24T08:22:15Z</time>
      </trkpt>
      <trkpt lat="42.57442" lon="2.06579">
        <ele>1691.294189</ele>
        <time>2011-09-24T08:22:17Z</time>
      </trkpt>
      <trkpt lat="42.57441" lon="2.06572">
        <ele>1693.100586</ele>
        <time>2011-09-24T08:22:19Z</time>
      </trkpt>
      <trkpt lat="42.5744" lon="2.06565">
        <ele>1694.896973</ele>
        <time>2011-09-24T08:22:21Z</time>
      </trkpt>
      <trkpt lat="42.57439" lon="2.06558">
        <ele>1696.694702</ele>
        <time>2011-09-24T08:22:23Z</time>
      </trkpt>
      <trkpt lat="42.57438" lon="2.0655">
        <ele>1698.48938</ele>
        <time>2011-09-24T08:22:25Z</time>
      </trkpt>
      <trkpt lat="42.57437" lon="2.06541">
        <ele>1700.275513</ele>
        <time>2011-09-24T08:22:27Z</time>
      </trkpt>
      <trkpt lat="42.57437" lon="2.06532">
        <ele>1702.047119</ele>
        <time>2011-09-24T08:22:29Z</time>
      </trkpt>
      <trkpt lat="42.57436" lon="2.06524">
        <ele>1703.803467</ele>
        <time>2011-09-24T08:22:31Z</time>
      </trkpt>
      <trkpt lat="42.57436" lon="2.06515">
        <ele>1705.541748</ele>
        <time>2011-09-24T08:22:33Z</time>
      </trkpt>
      <trkpt lat="42.57435" lon="2.06506">
        <ele>1707.260986</ele>
        <time>2011-09-24T08:22:35Z</time>
      </trkpt>
      <trkpt lat="42.57434" lon="2.06498">
        <ele>1708.963745</ele>
        <time>2011-09-24T08:22:37Z</time>
      </trkpt>
      <trkpt lat="42.57433" lon="2.0649">
        <ele>1710.678711</ele>
        <time>2011-09-24T08:22:39Z</time>
      </trkpt>
      <trkpt lat="42.5743" lon="2.06482">
        <ele>1712.44519</ele>
        <time>2011-09-24T08:22:41Z</time>
      </trkpt>
      <trkpt lat="42.57427" lon="2.06473">
        <ele>1714.332153</ele>
        <time>2011-09-24T08:22:43Z</time>
      </trkpt>
      <trkpt lat="42.57425" lon="2.06463">
        <ele>1716.284058</ele>
        <time>2011-09-24T08:22:45Z</time>
      </trkpt>
      <trkpt lat="42.57424" lon="2.06453">
        <ele>1718.251831</ele>
        <time>2011-09-24T08:22:47Z</time>
      </trkpt>
      <trkpt lat="42.57423" lon="2.06444">
        <ele>1720.237183</ele>
        <time>2011-09-24T08:22:49Z</time>
      </trkpt>
      <trkpt lat="42.57422" lon="2.06435">
        <ele>1722.197021</ele>
        <time>2011-09-24T08:22:51Z</time>
      </trkpt>
      <trkpt lat="42.5742" lon="2.06426">
        <ele>1724.175659</ele>
        <time>2011-09-24T08:22:53Z</time>
      </trkpt>
      <trkpt lat="42.57418" lon="2.06417">
        <ele>1726.220947</ele>
        <time>2011-09-24T08:22:55Z</time>
      </trkpt>
      <trkpt lat="42.57416" lon="2.06408">
        <ele>1728.249512</ele>
        <time>2011-09-24T08:22:57Z</time>
      </trkpt>
      <trkpt lat="42.57414" lon="2.06399">
        <ele>1730.249023</ele>
        <time>2011-09-24T08:22:59Z</time>
      </trkpt>
      <trkpt lat="42.57411" lon="2.0639">
        <ele>1732.280884</ele>
        <time>2011-09-24T08:23:01Z</time>
      </trkpt>
      <trkpt lat="42.57409" lon="2.06379">
        <ele>1734.489746</ele>
        <time>2011-09-24T08:23:03Z</time>
      </trkpt>
      <trkpt lat="42.57407" lon="2.06369">
        <ele>1736.738159</ele>
        <time>2011-09-24T08:23:05Z</time>
      </trkpt>
      <trkpt lat="42.57406" lon="2.06359">
        <ele>1739.023193</ele>
        <time>2011-09-24T08:23:07Z</time>
      </trkpt>
      <trkpt lat="42.57405" lon="2.06354">
        <ele>1740.153809</ele>
        <time>2011-09-24T08:23:08Z</time>
      </trkpt>
      <trkpt lat="42.57404" lon="2.06343">
        <ele>1742.570435</ele>
        <time>2011-09-24T08:23:10Z</time>
      </trkpt>
      <trkpt lat="42.57403" lon="2.06331">
        <ele>1745.001099</ele>
        <time>2011-09-24T08:23:12Z</time>
      </trkpt>
      <trkpt lat="42.57402" lon="2.06322">
        <ele>1747.445068</ele>
        <time>2011-09-24T08:23:14Z</time>
      </trkpt>
      <trkpt lat="42.57401" lon="2.06313">
        <ele>1749.878296</ele>
        <time>2011-09-24T08:23:16Z</time>
      </trkpt>
      <trkpt lat="42.574" lon="2.06304">
        <ele>1752.294922</ele>
        <time>2011-09-24T08:23:18Z</time>
      </trkpt>
      <trkpt lat="42.57399" lon="2.06296">
        <ele>1754.674316</ele>
        <time>2011-09-24T08:23:20Z</time>
      </trkpt>
      <trkpt lat="42.57398" lon="2.06287">
        <ele>1757.061035</ele>
        <time>2011-09-24T08:23:22Z</time>
      </trkpt>
      <trkpt lat="42.57397" lon="2.06278">
        <ele>1759.421265</ele>
        <time>2011-09-24T08:23:24Z</time>
      </trkpt>
      <trkpt lat="42.57397" lon="2.0627">
        <ele>1761.734253</ele>
        <time>2011-09-24T08:23:26Z</time>
      </trkpt>
      <trkpt lat="42.57396" lon="2.06262">
        <ele>1764.00293</ele>
        <time>2011-09-24T08:23:28Z</time>
      </trkpt>
      <trkpt lat="42.57394" lon="2.06254">
        <ele>1766.285522</ele>
        <time>2011-09-24T08:23:30Z</time>
      </trkpt>
      <trkpt lat="42.57393" lon="2.06246">
        <ele>1768.492798</ele>
        <time>2011-09-24T08:23:32Z</time>
      </trkpt>
      <trkpt lat="42.57392" lon="2.06238">
        <ele>1770.631836</ele>
        <time>2011-09-24T08:23:34Z</time>
      </trkpt>
      <trkpt lat="42.57391" lon="2.06229">
        <ele>1772.746826</ele>
        <time>2011-09-24T08:23:36Z</time>
      </trkpt>
      <trkpt lat="42.57388" lon="2.06221">
        <ele>1774.780151</ele>
        <time>2011-09-24T08:23:38Z</time>
      </trkpt>
      <trkpt lat="42.57386" lon="2.06212">
        <ele>1776.941162</ele>
        <time>2011-09-24T08:23:40Z</time>
      </trkpt>
      <trkpt lat="42.57383" lon="2.06203">
        <ele>1778.965576</ele>
        <time>2011-09-24T08:23:42Z</time>
      </trkpt>
      <trkpt lat="42.57381" lon="2.06198">
        <ele>1779.965088</ele>
        <time>2011-09-24T08:23:43Z</time>
      </trkpt>
      <trkpt lat="42.57379" lon="2.06189">
        <ele>1782.13269</ele>
        <time>2011-09-24T08:23:45Z</time>
      </trkpt>
      <trkpt lat="42.57377" lon="2.0618">
        <ele>1784.279541</ele>
        <time>2011-09-24T08:23:47Z</time>
      </trkpt>
      <trkpt lat="42.57375" lon="2.06172">
        <ele>1786.367432</ele>
        <time>2011-09-24T08:23:49Z</time>
      </trkpt>
      <trkpt lat="42.57374" lon="2.06164">
        <ele>1788.523071</ele>
        <time>2011-09-24T08:23:51Z</time>
      </trkpt>
      <trkpt lat="42.57372" lon="2.06157">
        <ele>1790.757446</ele>
        <time>2011-09-24T08:23:53Z</time>
      </trkpt>
      <trkpt lat="42.57371" lon="2.06152">
        <ele>1791.897705</ele>
        <time>2011-09-24T08:23:54Z</time>
      </trkpt>
      <trkpt lat="42.5737" lon="2.06142">
        <ele>1794.340332</ele>
        <time>2011-09-24T08:23:56Z</time>
      </trkpt>
      <trkpt lat="42.5737" lon="2.06131">
        <ele>1796.88916</ele>
        <time>2011-09-24T08:23:58Z</time>
      </trkpt>
      <trkpt lat="42.57369" lon="2.06121">
        <ele>1799.256592</ele>
        <time>2011-09-24T08:24:00Z</time>
      </trkpt>
      <trkpt lat="42.57368" lon="2.06113">
        <ele>1801.437378</ele>
        <time>2011-09-24T08:24:02Z</time>
      </trkpt>
      <trkpt lat="42.57365" lon="2.06105">
        <ele>1803.590698</ele>
        <time>2011-09-24T08:24:04Z</time>
      </trkpt>
      <trkpt lat="42.57364" lon="2.06097">
        <ele>1805.687988</ele>
        <time>2011-09-24T08:24:06Z</time>
      </trkpt>
      <trkpt lat="42.57361" lon="2.0609">
        <ele>1807.469727</ele>
        <time>2011-09-24T08:24:08Z</time>
      </trkpt>
      <trkpt lat="42.5736" lon="2.06084">
        <ele>1809.499512</ele>
        <time>2011-09-24T08:24:10Z</time>
      </trkpt>
      <trkpt lat="42.57358" lon="2.06076">
        <ele>1811.464478</ele>
        <time>2011-09-24T08:24:12Z</time>
      </trkpt>
      <trkpt lat="42.57356" lon="2.06069">
        <ele>1813.711182</ele>
        <time>2011-09-24T08:24:14Z</time>
      </trkpt>
      <trkpt lat="42.57355" lon="2.0606">
        <ele>1816.15918</ele>
        <time>2011-09-24T08:24:16Z</time>
      </trkpt>
      <trkpt lat="42.57355" lon="2.06051">
        <ele>1818.765015</ele>
        <time>2011-09-24T08:24:18Z</time>
      </trkpt>
      <trkpt lat="42.57355" lon="2.06046">
        <ele>1820.151611</ele>
        <time>2011-09-24T08:24:19Z</time>
      </trkpt>
      <trkpt lat="42.57356" lon="2.06035">
        <ele>1823.078735</ele>
        <time>2011-09-24T08:24:21Z</time>
      </trkpt>
      <trkpt lat="42.57357" lon="2.06029">
        <ele>1824.539917</ele>
        <time>2011-09-24T08:24:22Z</time>
      </trkpt>
      <trkpt lat="42.57358" lon="2.06017">
        <ele>1827.495972</ele>
        <time>2011-09-24T08:24:24Z</time>
      </trkpt>
      <trkpt lat="42.57358" lon="2.06007">
        <ele>1830.287354</ele>
        <time>2011-09-24T08:24:26Z</time>
      </trkpt>
      <trkpt lat="42.57357" lon="2.06002">
        <ele>1831.710327</ele>
        <time>2011-09-24T08:24:27Z</time>
      </trkpt>
      <trkpt lat="42.57356" lon="2.05993">
        <ele>1834.445435</ele>
        <time>2011-09-24T08:24:29Z</time>
      </trkpt>
      <trkpt lat="42.57354" lon="2.05985">
        <ele>1837.163574</ele>
        <time>2011-09-24T08:24:31Z</time>
      </trkpt>
      <trkpt lat="42.57353" lon="2.05977">
        <ele>1839.674561</ele>
        <time>2011-09-24T08:24:33Z</time>
      </trkpt>
      <trkpt lat="42.57351" lon="2.05968">
        <ele>1842.19812</ele>
        <time>2011-09-24T08:24:35Z</time>
      </trkpt>
      <trkpt lat="42.5735" lon="2.0596">
        <ele>1844.843506</ele>
        <time>2011-09-24T08:24:37Z</time>
      </trkpt>
      <trkpt lat="42.57348" lon="2.05952">
        <ele>1847.553589</ele>
        <time>2011-09-24T08:24:39Z</time>
      </trkpt>
      <trkpt lat="42.57346" lon="2.05944">
        <ele>1850.291382</ele>
        <time>2011-09-24T08:24:41Z</time>
      </trkpt>
      <trkpt lat="42.57344" lon="2.05936">
        <ele>1853.033569</ele>
        <time>2011-09-24T08:24:43Z</time>
      </trkpt>
      <trkpt lat="42.57342" lon="2.05928">
        <ele>1855.796631</ele>
        <time>2011-09-24T08:24:45Z</time>
      </trkpt>
      <trkpt lat="42.5734" lon="2.0592">
        <ele>1858.446533</ele>
        <time>2011-09-24T08:24:47Z</time>
      </trkpt>
      <trkpt lat="42.57338" lon="2.05913">
        <ele>1861.123291</ele>
        <time>2011-09-24T08:24:49Z</time>
      </trkpt>
      <trkpt lat="42.57337" lon="2.05909">
        <ele>1862.471436</ele>
        <time>2011-09-24T08:24:50Z</time>
      </trkpt>
      <trkpt lat="42.57335" lon="2.059">
        <ele>1865.020996</ele>
        <time>2011-09-24T08:24:52Z</time>
      </trkpt>
      <trkpt lat="42.57333" lon="2.05892">
        <ele>1867.481689</ele>
        <time>2011-09-24T08:24:54Z</time>
      </trkpt>
      <trkpt lat="42.57332" lon="2.05884">
        <ele>1870.051758</ele>
        <time>2011-09-24T08:24:56Z</time>
      </trkpt>
      <trkpt lat="42.5733" lon="2.05876">
        <ele>1872.669556</ele>
        <time>2011-09-24T08:24:58Z</time>
      </trkpt>
      <trkpt lat="42.5733" lon="2.05868">
        <ele>1875.299316</ele>
        <time>2011-09-24T08:25:00Z</time>
      </trkpt>
      <trkpt lat="42.57329" lon="2.05865">
        <ele>1876.707886</ele>
        <time>2011-09-24T08:25:01Z</time>
      </trkpt>
      <trkpt lat="42.57329" lon="2.05855">
        <ele>1879.708374</ele>
        <time>2011-09-24T08:25:03Z</time>
      </trkpt>
      <trkpt lat="42.57331" lon="2.05843">
        <ele>1882.926392</ele>
        <time>2011-09-24T08:25:05Z</time>
      </trkpt>
      <trkpt lat="42.57331" lon="2.05832">
        <ele>1885.986206</ele>
        <time>2011-09-24T08:25:07Z</time>
      </trkpt>
      <trkpt lat="42.57331" lon="2.05823">
        <ele>1888.938477</ele>
        <time>2011-09-24T08:25:09Z</time>
      </trkpt>
      <trkpt lat="42.5733" lon="2.05814">
        <ele>1891.946899</ele>
        <time>2011-09-24T08:25:11Z</time>
      </trkpt>
      <trkpt lat="42.57329" lon="2.05806">
        <ele>1894.957153</ele>
        <time>2011-09-24T08:25:13Z</time>
      </trkpt>
      <trkpt lat="42.57328" lon="2.05802">
        <ele>1896.456177</ele>
        <time>2011-09-24T08:25:14Z</time>
      </trkpt>
      <trkpt lat="42.57327" lon="2.05794">
        <ele>1899.420288</ele>
        <time>2011-09-24T08:25:16Z</time>
      </trkpt>
      <trkpt lat="42.57326" lon="2.05786">
        <ele>1902.453369</ele>
        <time>2011-09-24T08:25:18Z</time>
      </trkpt>
      <trkpt lat="42.57324" lon="2.05779">
        <ele>1905.445068</ele>
        <time>2011-09-24T08:25:20Z</time>
      </trkpt>
      <trkpt lat="42.57324" lon="2.05772">
        <ele>1908.380981</ele>
        <time>2011-09-24T08:25:22Z</time>
      </trkpt>
      <trkpt lat="42.57324" lon="2.05768">
        <ele>1909.874878</ele>
        <time>2011-09-24T08:25:23Z</time>
      </trkpt>
      <trkpt lat="42.57324" lon="2.0576">
        <ele>1912.527344</ele>
        <time>2011-09-24T08:25:25Z</time>
      </trkpt>
      <trkpt lat="42.57323" lon="2.0575">
        <ele>1915.367676</ele>
        <time>2011-09-24T08:25:27Z</time>
      </trkpt>
      <trkpt lat="42.57322" lon="2.05739">
        <ele>1918.439697</ele>
        <time>2011-09-24T08:25:29Z</time>
      </trkpt>
      <trkpt lat="42.5732" lon="2.05729">
        <ele>1921.455322</ele>
        <time>2011-09-24T08:25:31Z</time>
      </trkpt>
      <trkpt lat="42.57318" lon="2.05721">
        <ele>1924.39502</ele>
        <time>2011-09-24T08:25:33Z</time>
      </trkpt>
      <trkpt lat="42.57315" lon="2.05713">
        <ele>1927.289185</ele>
        <time>2011-09-24T08:25:35Z</time>
      </trkpt>
      <trkpt lat="42.57313" lon="2.05705">
        <ele>1930.054688</ele>
        <time>2011-09-24T08:25:37Z</time>
      </trkpt>
      <trkpt lat="42.5731" lon="2.05698">
        <ele>1932.658569</ele>
        <time>2011-09-24T08:25:39Z</time>
      </trkpt>
      <trkpt lat="42.57308" lon="2.05691">
        <ele>1935.251953</ele>
        <time>2011-09-24T08:25:41Z</time>
      </trkpt>
      <trkpt lat="42.57306" lon="2.05683">
        <ele>1937.92334</ele>
        <time>2011-09-24T08:25:43Z</time>
      </trkpt>
      <trkpt lat="42.57304" lon="2.05675">
        <ele>1940.709717</ele>
        <time>2011-09-24T08:25:45Z</time>
      </trkpt>
      <trkpt lat="42.57303" lon="2.0567">
        <ele>1942.189087</ele>
        <time>2011-09-24T08:25:46Z</time>
      </trkpt>
      <trkpt lat="42.57301" lon="2.05661">
        <ele>1945.194824</ele>
        <time>2011-09-24T08:25:48Z</time>
      </trkpt>
      <trkpt lat="42.57299" lon="2.05652">
        <ele>1948.223389</ele>
        <time>2011-09-24T08:25:50Z</time>
      </trkpt>
      <trkpt lat="42.57297" lon="2.05644">
        <ele>1951.075806</ele>
        <time>2011-09-24T08:25:52Z</time>
      </trkpt>
      <trkpt lat="42.57295" lon="2.05636">
        <ele>1953.963013</ele>
        <time>2011-09-24T08:25:54Z</time>
      </trkpt>
      <trkpt lat="42.57293" lon="2.05628">
        <ele>1956.837036</ele>
        <time>2011-09-24T08:25:56Z</time>
      </trkpt>
      <trkpt lat="42.57291" lon="2.05621">
        <ele>1959.468384</ele>
        <time>2011-09-24T08:25:58Z</time>
      </trkpt>
      <trkpt lat="42.57291" lon="2.05616">
        <ele>1961.036011</ele>
        <time>2011-09-24T08:25:59Z</time>
      </trkpt>
      <trkpt lat="42.57291" lon="2.05605">
        <ele>1964.210205</ele>
        <time>2011-09-24T08:26:01Z</time>
      </trkpt>
      <trkpt lat="42.57291" lon="2.05596">
        <ele>1967.398438</ele>
        <time>2011-09-24T08:26:03Z</time>
      </trkpt>
      <trkpt lat="42.5729" lon="2.05587">
        <ele>1970.540527</ele>
        <time>2011-09-24T08:26:05Z</time>
      </trkpt>
      <trkpt lat="42.57289" lon="2.05578">
        <ele>1973.697388</ele>
        <time>2011-09-24T08:26:07Z</time>
      </trkpt>
      <trkpt lat="42.57288" lon="2.05568">
        <ele>1976.871216</ele>
        <time>2011-09-24T08:26:09Z</time>
      </trkpt>
      <trkpt lat="42.57287" lon="2.05559">
        <ele>1980.067871</ele>
        <time>2011-09-24T08:26:11Z</time>
      </trkpt>
      <trkpt lat="42.57286" lon="2.0555">
        <ele>1983.256836</ele>
        <time>2011-09-24T08:26:13Z</time>
      </trkpt>
      <trkpt lat="42.57285" lon="2.05541">
        <ele>1986.458008</ele>
        <time>2011-09-24T08:26:15Z</time>
      </trkpt>
      <trkpt lat="42.57284" lon="2.05536">
        <ele>1988.045166</ele>
        <time>2011-09-24T08:26:16Z</time>
      </trkpt>
      <trkpt lat="42.57283" lon="2.05529">
        <ele>1991.164673</ele>
        <time>2011-09-24T08:26:18Z</time>
      </trkpt>
      <trkpt lat="42.57282" lon="2.05526">
        <ele>1992.733887</ele>
        <time>2011-09-24T08:26:19Z</time>
      </trkpt>
      <trkpt lat="42.57283" lon="2.05518">
        <ele>1995.845703</ele>
        <time>2011-09-24T08:26:21Z</time>
      </trkpt>
      <trkpt lat="42.57283" lon="2.05508">
        <ele>1999.011353</ele>
        <time>2011-09-24T08:26:23Z</time>
      </trkpt>
      <trkpt lat="42.57282" lon="2.05499">
        <ele>2002.218872</ele>
        <time>2011-09-24T08:26:25Z</time>
      </trkpt>
      <trkpt lat="42.57282" lon="2.05491">
        <ele>2005.322876</ele>
        <time>2011-09-24T08:26:27Z</time>
      </trkpt>
      <trkpt lat="42.57281" lon="2.05482">
        <ele>2008.345581</ele>
        <time>2011-09-24T08:26:29Z</time>
      </trkpt>
      <trkpt lat="42.57281" lon="2.05477">
        <ele>2009.862183</ele>
        <time>2011-09-24T08:26:30Z</time>
      </trkpt>
      <trkpt lat="42.57281" lon="2.05466">
        <ele>2012.851196</ele>
        <time>2011-09-24T08:26:32Z</time>
      </trkpt>
      <trkpt lat="42.5728" lon="2.05457">
        <ele>2015.789429</ele>
        <time>2011-09-24T08:26:34Z</time>
      </trkpt>
      <trkpt lat="42.57279" lon="2.05448">
        <ele>2018.628052</ele>
        <time>2011-09-24T08:26:36Z</time>
      </trkpt>
      <trkpt lat="42.57278" lon="2.05439">
        <ele>2021.460815</ele>
        <time>2011-09-24T08:26:38Z</time>
      </trkpt>
      <trkpt lat="42.57277" lon="2.0543">
        <ele>2024.288452</ele>
        <time>2011-09-24T08:26:40Z</time>
      </trkpt>
      <trkpt lat="42.57276" lon="2.0542">
        <ele>2027.128784</ele>
        <time>2011-09-24T08:26:42Z</time>
      </trkpt>
      <trkpt lat="42.57275" lon="2.0541">
        <ele>2029.934204</ele>
        <time>2011-09-24T08:26:44Z</time>
      </trkpt>
      <trkpt lat="42.57273" lon="2.05402">
        <ele>2032.693237</ele>
        <time>2011-09-24T08:26:46Z</time>
      </trkpt>
      <trkpt lat="42.57271" lon="2.05394">
        <ele>2035.410034</ele>
        <time>2011-09-24T08:26:48Z</time>
      </trkpt>
      <trkpt lat="42.5727" lon="2.05386">
        <ele>2038.051636</ele>
        <time>2011-09-24T08:26:50Z</time>
      </trkpt>
      <trkpt lat="42.57269" lon="2.05377">
        <ele>2040.587769</ele>
        <time>2011-09-24T08:26:52Z</time>
      </trkpt>
      <trkpt lat="42.57267" lon="2.0537">
        <ele>2043.042114</ele>
        <time>2011-09-24T08:26:54Z</time>
      </trkpt>
      <trkpt lat="42.57266" lon="2.05363">
        <ele>2045.42981</ele>
        <time>2011-09-24T08:26:56Z</time>
      </trkpt>
      <trkpt lat="42.57265" lon="2.05357">
        <ele>2047.773071</ele>
        <time>2011-09-24T08:26:58Z</time>
      </trkpt>
      <trkpt lat="42.57264" lon="2.0535">
        <ele>2051.05542</ele>
        <time>2011-09-24T08:27:01Z</time>
      </trkpt>
      <trkpt lat="42.57264" lon="2.05347">
        <ele>2056.004639</ele>
        <time>2011-09-24T08:27:06Z</time>
      </trkpt>
      <trkpt lat="42.57265" lon="2.0534">
        <ele>2061.161865</ele>
        <time>2011-09-24T08:27:19Z</time>
      </trkpt>
      <trkpt lat="42.57265" lon="2.05333">
        <ele>2064.16748</ele>
        <time>2011-09-24T08:27:24Z</time>
      </trkpt>
      <trkpt lat="42.57265" lon="2.05326">
        <ele>2065.478516</ele>
        <time>2011-09-24T08:27:27Z</time>
      </trkpt>
      <trkpt lat="42.57263" lon="2.05313">
        <ele>2068.2771</ele>
        <time>2011-09-24T08:27:32Z</time>
      </trkpt>
      <trkpt lat="42.5726" lon="2.05307">
        <ele>2068.522949</ele>
        <time>2011-09-24T08:27:35Z</time>
      </trkpt>
      <trkpt lat="42.57263" lon="2.05301">
        <ele>2074.721924</ele>
        <time>2011-09-24T08:28:05Z</time>
      </trkpt>
      <trkpt lat="42.5727" lon="2.05295">
        <ele>2081.787842</ele>
        <time>2011-09-24T08:28:07Z</time>
      </trkpt>
      <trkpt lat="42.57274" lon="2.05291">
        <ele>2086.85376</ele>
        <time>2011-09-24T08:28:08Z</time>
      </trkpt>
      <trkpt lat="42.57278" lon="2.05286">
        <ele>2090.78833</ele>
        <time>2011-09-24T08:28:09Z</time>
      </trkpt>
      <trkpt lat="42.57281" lon="2.05281">
        <ele>2093.87793</ele>
        <time>2011-09-24T08:28:10Z</time>
      </trkpt>
      <trkpt lat="42.57284" lon="2.05277">
        <ele>2096.407227</ele>
        <time>2011-09-24T08:28:11Z</time>
      </trkpt>
      <trkpt lat="42.5729" lon="2.05276">
        <ele>2096.790771</ele>
        <time>2011-09-24T08:28:13Z</time>
      </trkpt>
      <trkpt lat="42.57297" lon="2.05276">
        <ele>2099.872803</ele>
        <time>2011-09-24T08:28:15Z</time>
      </trkpt>
      <trkpt lat="42.57305" lon="2.05281">
        <ele>2101.734131</ele>
        <time>2011-09-24T08:28:17Z</time>
      </trkpt>
      <trkpt lat="42.57309" lon="2.05284">
        <ele>2102.513184</ele>
        <time>2011-09-24T08:28:18Z</time>
      </trkpt>
      <trkpt lat="42.57312" lon="2.0529">
        <ele>2103.143311</ele>
        <time>2011-09-24T08:28:19Z</time>
      </trkpt>
      <trkpt lat="42.57315" lon="2.05296">
        <ele>2103.807373</ele>
        <time>2011-09-24T08:28:20Z</time>
      </trkpt>
      <trkpt lat="42.57318" lon="2.05301">
        <ele>2104.36377</ele>
        <time>2011-09-24T08:28:21Z</time>
      </trkpt>
      <trkpt lat="42.57325" lon="2.05305">
        <ele>2105.242432</ele>
        <time>2011-09-24T08:28:23Z</time>
      </trkpt>
      <trkpt lat="42.57333" lon="2.05308">
        <ele>2105.853271</ele>
        <time>2011-09-24T08:28:25Z</time>
      </trkpt>
      <trkpt lat="42.57339" lon="2.05309">
        <ele>2105.820312</ele>
        <time>2011-09-24T08:28:26Z</time>
      </trkpt>
      <trkpt lat="42.57352" lon="2.0531">
        <ele>2105.642822</ele>
        <time>2011-09-24T08:28:27Z</time>
      </trkpt>
      <trkpt lat="42.5736" lon="2.05307">
        <ele>2105.259277</ele>
        <time>2011-09-24T08:28:28Z</time>
      </trkpt>
      <trkpt lat="42.57368" lon="2.05305">
        <ele>2104.873779</ele>
        <time>2011-09-24T08:28:29Z</time>
      </trkpt>
      <trkpt lat="42.57376" lon="2.05302">
        <ele>2104.385254</ele>
        <time>2011-09-24T08:28:30Z</time>
      </trkpt>
      <trkpt lat="42.57383" lon="2.053">
        <ele>2103.854492</ele>
        <time>2011-09-24T08:28:31Z</time>
      </trkpt>
      <trkpt lat="42.5739" lon="2.05296">
        <ele>2103.419678</ele>
        <time>2011-09-24T08:28:32Z</time>
      </trkpt>
      <trkpt lat="42.57397" lon="2.05296">
        <ele>2103.02832</ele>
        <time>2011-09-24T08:28:33Z</time>
      </trkpt>
      <trkpt lat="42.57402" lon="2.05297">
        <ele>2102.683594</ele>
        <time>2011-09-24T08:28:34Z</time>
      </trkpt>
      <trkpt lat="42.57411" lon="2.05298">
        <ele>2102.322998</ele>
        <time>2011-09-24T08:28:36Z</time>
      </trkpt>
      <trkpt lat="42.57419" lon="2.05297">
        <ele>2102.085938</ele>
        <time>2011-09-24T08:28:38Z</time>
      </trkpt>
      <trkpt lat="42.57426" lon="2.053">
        <ele>2101.864502</ele>
        <time>2011-09-24T08:28:40Z</time>
      </trkpt>
      <trkpt lat="42.57435" lon="2.05302">
        <ele>2101.34668</ele>
        <time>2011-09-24T08:28:42Z</time>
      </trkpt>
      <trkpt lat="42.57443" lon="2.05304">
        <ele>2101.103516</ele>
        <time>2011-09-24T08:28:44Z</time>
      </trkpt>
      <trkpt lat="42.57451" lon="2.05307">
        <ele>2100.661621</ele>
        <time>2011-09-24T08:28:46Z</time>
      </trkpt>
      <trkpt lat="42.57454" lon="2.05317">
        <ele>2099.988037</ele>
        <time>2011-09-24T08:28:48Z</time>
      </trkpt>
      <trkpt lat="42.57459" lon="2.05326">
        <ele>2098.772949</ele>
        <time>2011-09-24T08:28:50Z</time>
      </trkpt>
      <trkpt lat="42.57467" lon="2.0533">
        <ele>2096.808838</ele>
        <time>2011-09-24T08:28:52Z</time>
      </trkpt>
      <trkpt lat="42.57472" lon="2.05332">
        <ele>2095.983398</ele>
        <time>2011-09-24T08:28:53Z</time>
      </trkpt>
      <trkpt lat="42.57477" lon="2.05334">
        <ele>2094.676025</ele>
        <time>2011-09-24T08:28:54Z</time>
      </trkpt>
      <trkpt lat="42.57482" lon="2.05338">
        <ele>2093.452148</ele>
        <time>2011-09-24T08:28:55Z</time>
      </trkpt>
      <trkpt lat="42.57488" lon="2.05342">
        <ele>2091.598633</ele>
        <time>2011-09-24T08:28:56Z</time>
      </trkpt>
      <trkpt lat="42.57494" lon="2.0535">
        <ele>2089.694092</ele>
        <time>2011-09-24T08:28:57Z</time>
      </trkpt>
      <trkpt lat="42.575" lon="2.05356">
        <ele>2087.939941</ele>
        <time>2011-09-24T08:28:58Z</time>
      </trkpt>
      <trkpt lat="42.57507" lon="2.05361">
        <ele>2086.313477</ele>
        <time>2011-09-24T08:28:59Z</time>
      </trkpt>
      <trkpt lat="42.57512" lon="2.05364">
        <ele>2086.171631</ele>
        <time>2011-09-24T08:29:00Z</time>
      </trkpt>
      <trkpt lat="42.57514" lon="2.0537">
        <ele>2086.023438</ele>
        <time>2011-09-24T08:29:01Z</time>
      </trkpt>
      <trkpt lat="42.57517" lon="2.05375">
        <ele>2084.501709</ele>
        <time>2011-09-24T08:29:02Z</time>
      </trkpt>
      <trkpt lat="42.57523" lon="2.05383">
        <ele>2082.123535</ele>
        <time>2011-09-24T08:29:04Z</time>
      </trkpt>
      <trkpt lat="42.57527" lon="2.05385">
        <ele>2081.129883</ele>
        <time>2011-09-24T08:29:05Z</time>
      </trkpt>
      <trkpt lat="42.57532" lon="2.05386">
        <ele>2080.356201</ele>
        <time>2011-09-24T08:29:06Z</time>
      </trkpt>
      <trkpt lat="42.57536" lon="2.05391">
        <ele>2079.678223</ele>
        <time>2011-09-24T08:29:07Z</time>
      </trkpt>
      <trkpt lat="42.57541" lon="2.05397">
        <ele>2078.946777</ele>
        <time>2011-09-24T08:29:08Z</time>
      </trkpt>
      <trkpt lat="42.57545" lon="2.05403">
        <ele>2078.198242</ele>
        <time>2011-09-24T08:29:09Z</time>
      </trkpt>
      <trkpt lat="42.57552" lon="2.05406">
        <ele>2077.483398</ele>
        <time>2011-09-24T08:29:10Z</time>
      </trkpt>
      <trkpt lat="42.57558" lon="2.05407">
        <ele>2076.850098</ele>
        <time>2011-09-24T08:29:11Z</time>
      </trkpt>
      <trkpt lat="42.57565" lon="2.05407">
        <ele>2076.155762</ele>
        <time>2011-09-24T08:29:12Z</time>
      </trkpt>
      <trkpt lat="42.57572" lon="2.05408">
        <ele>2075.366699</ele>
        <time>2011-09-24T08:29:13Z</time>
      </trkpt>
      <trkpt lat="42.5758" lon="2.05408">
        <ele>2074.491211</ele>
        <time>2011-09-24T08:29:14Z</time>
      </trkpt>
      <trkpt lat="42.57588" lon="2.05409">
        <ele>2073.338623</ele>
        <time>2011-09-24T08:29:15Z</time>
      </trkpt>
      <trkpt lat="42.57597" lon="2.05409">
        <ele>2072.034424</ele>
        <time>2011-09-24T08:29:16Z</time>
      </trkpt>
      <trkpt lat="42.57605" lon="2.05408">
        <ele>2070.755127</ele>
        <time>2011-09-24T08:29:17Z</time>
      </trkpt>
      <trkpt lat="42.57614" lon="2.05406">
        <ele>2069.511475</ele>
        <time>2011-09-24T08:29:18Z</time>
      </trkpt>
      <trkpt lat="42.57622" lon="2.05404">
        <ele>2068.325928</ele>
        <time>2011-09-24T08:29:19Z</time>
      </trkpt>
      <trkpt lat="42.5763" lon="2.05403">
        <ele>2067.149902</ele>
        <time>2011-09-24T08:29:20Z</time>
      </trkpt>
      <trkpt lat="42.57636" lon="2.054">
        <ele>2065.835938</ele>
        <time>2011-09-24T08:29:21Z</time>
      </trkpt>
      <trkpt lat="42.57641" lon="2.05401">
        <ele>2064.541992</ele>
        <time>2011-09-24T08:29:22Z</time>
      </trkpt>
      <trkpt lat="42.57647" lon="2.05406">
        <ele>2063.035156</ele>
        <time>2011-09-24T08:29:24Z</time>
      </trkpt>
      <trkpt lat="42.57653" lon="2.05414">
        <ele>2061.750732</ele>
        <time>2011-09-24T08:29:26Z</time>
      </trkpt>
      <trkpt lat="42.57659" lon="2.05422">
        <ele>2060.616943</ele>
        <time>2011-09-24T08:29:28Z</time>
      </trkpt>
      <trkpt lat="42.57663" lon="2.05426">
        <ele>2059.042725</ele>
        <time>2011-09-24T08:29:29Z</time>
      </trkpt>
      <trkpt lat="42.57665" lon="2.05433">
        <ele>2056.390625</ele>
        <time>2011-09-24T08:29:30Z</time>
      </trkpt>
      <trkpt lat="42.57668" lon="2.05439">
        <ele>2053.565918</ele>
        <time>2011-09-24T08:29:31Z</time>
      </trkpt>
      <trkpt lat="42.57671" lon="2.05444">
        <ele>2051.254395</ele>
        <time>2011-09-24T08:29:32Z</time>
      </trkpt>
      <trkpt lat="42.57676" lon="2.05446">
        <ele>2049.335205</ele>
        <time>2011-09-24T08:29:33Z</time>
      </trkpt>
      <trkpt lat="42.5768" lon="2.05448">
        <ele>2047.512573</ele>
        <time>2011-09-24T08:29:34Z</time>
      </trkpt>
      <trkpt lat="42.57685" lon="2.05448">
        <ele>2045.536987</ele>
        <time>2011-09-24T08:29:35Z</time>
      </trkpt>
      <trkpt lat="42.5769" lon="2.05447">
        <ele>2043.605103</ele>
        <time>2011-09-24T08:29:36Z</time>
      </trkpt>
      <trkpt lat="42.57695" lon="2.05445">
        <ele>2041.88147</ele>
        <time>2011-09-24T08:29:37Z</time>
      </trkpt>
      <trkpt lat="42.577" lon="2.05444">
        <ele>2040.410767</ele>
        <time>2011-09-24T08:29:38Z</time>
      </trkpt>
      <trkpt lat="42.57704" lon="2.05442">
        <ele>2039.131714</ele>
        <time>2011-09-24T08:29:39Z</time>
      </trkpt>
      <trkpt lat="42.57708" lon="2.0544">
        <ele>2038.050659</ele>
        <time>2011-09-24T08:29:40Z</time>
      </trkpt>
      <trkpt lat="42.57717" lon="2.05437">
        <ele>2036.398315</ele>
        <time>2011-09-24T08:29:42Z</time>
      </trkpt>
      <trkpt lat="42.57722" lon="2.05436">
        <ele>2035.762573</ele>
        <time>2011-09-24T08:29:43Z</time>
      </trkpt>
      <trkpt lat="42.57726" lon="2.05435">
        <ele>2035.281128</ele>
        <time>2011-09-24T08:29:44Z</time>
      </trkpt>
      <trkpt lat="42.57731" lon="2.05433">
        <ele>2035.016235</ele>
        <time>2011-09-24T08:29:45Z</time>
      </trkpt>
      <trkpt lat="42.57735" lon="2.05432">
        <ele>2034.86438</ele>
        <time>2011-09-24T08:29:46Z</time>
      </trkpt>
      <trkpt lat="42.5774" lon="2.0543">
        <ele>2034.828247</ele>
        <time>2011-09-24T08:29:47Z</time>
      </trkpt>
      <trkpt lat="42.57744" lon="2.05428">
        <ele>2034.937866</ele>
        <time>2011-09-24T08:29:48Z</time>
      </trkpt>
      <trkpt lat="42.5775" lon="2.05421">
        <ele>2035.159302</ele>
        <time>2011-09-24T08:29:50Z</time>
      </trkpt>
      <trkpt lat="42.57753" lon="2.0541">
        <ele>2035.219116</ele>
        <time>2011-09-24T08:29:52Z</time>
      </trkpt>
      <trkpt lat="42.57754" lon="2.05399">
        <ele>2035.345581</ele>
        <time>2011-09-24T08:29:54Z</time>
      </trkpt>
      <trkpt lat="42.57754" lon="2.05388">
        <ele>2035.306519</ele>
        <time>2011-09-24T08:29:56Z</time>
      </trkpt>
      <trkpt lat="42.57752" lon="2.05379">
        <ele>2035.255981</ele>
        <time>2011-09-24T08:29:58Z</time>
      </trkpt>
      <trkpt lat="42.57751" lon="2.0537">
        <ele>2035.192749</ele>
        <time>2011-09-24T08:30:00Z</time>
      </trkpt>
      <trkpt lat="42.57755" lon="2.05361">
        <ele>2034.837769</ele>
        <time>2011-09-24T08:30:02Z</time>
      </trkpt>
      <trkpt lat="42.57759" lon="2.05359">
        <ele>2034.467407</ele>
        <time>2011-09-24T08:30:03Z</time>
      </trkpt>
      <trkpt lat="42.57765" lon="2.05358">
        <ele>2033.832153</ele>
        <time>2011-09-24T08:30:04Z</time>
      </trkpt>
      <trkpt lat="42.57772" lon="2.05359">
        <ele>2032.995483</ele>
        <time>2011-09-24T08:30:05Z</time>
      </trkpt>
      <trkpt lat="42.57778" lon="2.0536">
        <ele>2032.192993</ele>
        <time>2011-09-24T08:30:06Z</time>
      </trkpt>
      <trkpt lat="42.57784" lon="2.05361">
        <ele>2031.436646</ele>
        <time>2011-09-24T08:30:07Z</time>
      </trkpt>
      <trkpt lat="42.5779" lon="2.05362">
        <ele>2030.63855</ele>
        <time>2011-09-24T08:30:08Z</time>
      </trkpt>
      <trkpt lat="42.57796" lon="2.05364">
        <ele>2029.776733</ele>
        <time>2011-09-24T08:30:09Z</time>
      </trkpt>
      <trkpt lat="42.57799" lon="2.05368">
        <ele>2028.873413</ele>
        <time>2011-09-24T08:30:10Z</time>
      </trkpt>
      <trkpt lat="42.57802" lon="2.05374">
        <ele>2028.064819</ele>
        <time>2011-09-24T08:30:11Z</time>
      </trkpt>
      <trkpt lat="42.57804" lon="2.0538">
        <ele>2027.394653</ele>
        <time>2011-09-24T08:30:12Z</time>
      </trkpt>
      <trkpt lat="42.57808" lon="2.05386">
        <ele>2026.774048</ele>
        <time>2011-09-24T08:30:13Z</time>
      </trkpt>
      <trkpt lat="42.57813" lon="2.05389">
        <ele>2026.116089</ele>
        <time>2011-09-24T08:30:14Z</time>
      </trkpt>
      <trkpt lat="42.57818" lon="2.05393">
        <ele>2025.550659</ele>
        <time>2011-09-24T08:30:15Z</time>
      </trkpt>
      <trkpt lat="42.57822" lon="2.05397">
        <ele>2025.098267</ele>
        <time>2011-09-24T08:30:16Z</time>
      </trkpt>
      <trkpt lat="42.57825" lon="2.05402">
        <ele>2024.786011</ele>
        <time>2011-09-24T08:30:17Z</time>
      </trkpt>
      <trkpt lat="42.57831" lon="2.05408">
        <ele>2024.536987</ele>
        <time>2011-09-24T08:30:19Z</time>
      </trkpt>
      <trkpt lat="42.57835" lon="2.05406">
        <ele>2024.505981</ele>
        <time>2011-09-24T08:30:20Z</time>
      </trkpt>
      <trkpt lat="42.57844" lon="2.05408">
        <ele>2025.159546</ele>
        <time>2011-09-24T08:30:22Z</time>
      </trkpt>
      <trkpt lat="42.57851" lon="2.05412">
        <ele>2025.728394</ele>
        <time>2011-09-24T08:30:23Z</time>
      </trkpt>
      <trkpt lat="42.57858" lon="2.05418">
        <ele>2026.239624</ele>
        <time>2011-09-24T08:30:24Z</time>
      </trkpt>
      <trkpt lat="42.57866" lon="2.05425">
        <ele>2026.244263</ele>
        <time>2011-09-24T08:30:25Z</time>
      </trkpt>
      <trkpt lat="42.57874" lon="2.05431">
        <ele>2025.715454</ele>
        <time>2011-09-24T08:30:26Z</time>
      </trkpt>
      <trkpt lat="42.57882" lon="2.05437">
        <ele>2024.762573</ele>
        <time>2011-09-24T08:30:27Z</time>
      </trkpt>
      <trkpt lat="42.5789" lon="2.05442">
        <ele>2023.618774</ele>
        <time>2011-09-24T08:30:28Z</time>
      </trkpt>
      <trkpt lat="42.57899" lon="2.05447">
        <ele>2022.324097</ele>
        <time>2011-09-24T08:30:29Z</time>
      </trkpt>
      <trkpt lat="42.57908" lon="2.05451">
        <ele>2020.90979</ele>
        <time>2011-09-24T08:30:30Z</time>
      </trkpt>
      <trkpt lat="42.57915" lon="2.05458">
        <ele>2019.607544</ele>
        <time>2011-09-24T08:30:31Z</time>
      </trkpt>
      <trkpt lat="42.57922" lon="2.05465">
        <ele>2018.353394</ele>
        <time>2011-09-24T08:30:32Z</time>
      </trkpt>
      <trkpt lat="42.5793" lon="2.05473">
        <ele>2017.670532</ele>
        <time>2011-09-24T08:30:33Z</time>
      </trkpt>
      <trkpt lat="42.57937" lon="2.05477">
        <ele>2016.981812</ele>
        <time>2011-09-24T08:30:34Z</time>
      </trkpt>
      <trkpt lat="42.57943" lon="2.0548">
        <ele>2016.321167</ele>
        <time>2011-09-24T08:30:35Z</time>
      </trkpt>
      <trkpt lat="42.57948" lon="2.05482">
        <ele>2015.891479</ele>
        <time>2011-09-24T08:30:36Z</time>
      </trkpt>
      <trkpt lat="42.57954" lon="2.0548">
        <ele>2015.522339</ele>
        <time>2011-09-24T08:30:37Z</time>
      </trkpt>
      <trkpt lat="42.57959" lon="2.05478">
        <ele>2015.064575</ele>
        <time>2011-09-24T08:30:38Z</time>
      </trkpt>
      <trkpt lat="42.57961" lon="2.05492">
        <ele>2014.505005</ele>
        <time>2011-09-24T08:30:40Z</time>
      </trkpt>
      <trkpt lat="42.57959" lon="2.055">
        <ele>2014.158813</ele>
        <time>2011-09-24T08:30:41Z</time>
      </trkpt>
      <trkpt lat="42.5796" lon="2.05506">
        <ele>2013.490112</ele>
        <time>2011-09-24T08:30:42Z</time>
      </trkpt>
      <trkpt lat="42.57964" lon="2.05512">
        <ele>2013.234253</ele>
        <time>2011-09-24T08:30:44Z</time>
      </trkpt>
      <trkpt lat="42.57967" lon="2.05521">
        <ele>2011.010376</ele>
        <time>2011-09-24T08:30:46Z</time>
      </trkpt>
      <trkpt lat="42.5797" lon="2.05532">
        <ele>2007.307739</ele>
        <time>2011-09-24T08:30:48Z</time>
      </trkpt>
      <trkpt lat="42.57973" lon="2.05536">
        <ele>2005.667603</ele>
        <time>2011-09-24T08:30:49Z</time>
      </trkpt>
      <trkpt lat="42.57976" lon="2.05544">
        <ele>2003.930054</ele>
        <time>2011-09-24T08:30:50Z</time>
      </trkpt>
      <trkpt lat="42.57979" lon="2.05553">
        <ele>2002.442993</ele>
        <time>2011-09-24T08:30:51Z</time>
      </trkpt>
      <trkpt lat="42.57981" lon="2.05561">
        <ele>2001.159546</ele>
        <time>2011-09-24T08:30:52Z</time>
      </trkpt>
      <trkpt lat="42.57983" lon="2.0557">
        <ele>1999.930542</ele>
        <time>2011-09-24T08:30:53Z</time>
      </trkpt>
      <trkpt lat="42.57984" lon="2.05577">
        <ele>1998.750854</ele>
        <time>2011-09-24T08:30:54Z</time>
      </trkpt>
      <trkpt lat="42.57987" lon="2.05582">
        <ele>1997.687012</ele>
        <time>2011-09-24T08:30:55Z</time>
      </trkpt>
      <trkpt lat="42.57991" lon="2.05592">
        <ele>1995.557861</ele>
        <time>2011-09-24T08:30:57Z</time>
      </trkpt>
      <trkpt lat="42.57991" lon="2.05603">
        <ele>1993.449219</ele>
        <time>2011-09-24T08:30:59Z</time>
      </trkpt>
      <trkpt lat="42.57993" lon="2.05609">
        <ele>1992.471802</ele>
        <time>2011-09-24T08:31:00Z</time>
      </trkpt>
      <trkpt lat="42.57998" lon="2.05611">
        <ele>1991.839966</ele>
        <time>2011-09-24T08:31:01Z</time>
      </trkpt>
      <trkpt lat="42.58004" lon="2.05613">
        <ele>1991.414429</ele>
        <time>2011-09-24T08:31:02Z</time>
      </trkpt>
      <trkpt lat="42.5801" lon="2.05618">
        <ele>1991.143921</ele>
        <time>2011-09-24T08:31:03Z</time>
      </trkpt>
      <trkpt lat="42.58013" lon="2.05626">
        <ele>1990.506714</ele>
        <time>2011-09-24T08:31:04Z</time>
      </trkpt>
      <trkpt lat="42.58015" lon="2.05633">
        <ele>1989.775757</ele>
        <time>2011-09-24T08:31:05Z</time>
      </trkpt>
      <trkpt lat="42.58019" lon="2.05639">
        <ele>1988.954102</ele>
        <time>2011-09-24T08:31:06Z</time>
      </trkpt>
      <trkpt lat="42.58025" lon="2.05642">
        <ele>1988.154297</ele>
        <time>2011-09-24T08:31:07Z</time>
      </trkpt>
      <trkpt lat="42.58029" lon="2.05648">
        <ele>1987.349609</ele>
        <time>2011-09-24T08:31:08Z</time>
      </trkpt>
      <trkpt lat="42.58032" lon="2.05655">
        <ele>1986.514038</ele>
        <time>2011-09-24T08:31:09Z</time>
      </trkpt>
      <trkpt lat="42.58035" lon="2.05662">
        <ele>1985.424072</ele>
        <time>2011-09-24T08:31:10Z</time>
      </trkpt>
      <trkpt lat="42.58038" lon="2.05669">
        <ele>1984.231323</ele>
        <time>2011-09-24T08:31:11Z</time>
      </trkpt>
      <trkpt lat="42.58043" lon="2.05677">
        <ele>1983.098755</ele>
        <time>2011-09-24T08:31:12Z</time>
      </trkpt>
      <trkpt lat="42.58048" lon="2.05686">
        <ele>1982.216309</ele>
        <time>2011-09-24T08:31:13Z</time>
      </trkpt>
      <trkpt lat="42.58053" lon="2.05696">
        <ele>1981.371704</ele>
        <time>2011-09-24T08:31:14Z</time>
      </trkpt>
      <trkpt lat="42.58058" lon="2.05707">
        <ele>1980.341553</ele>
        <time>2011-09-24T08:31:15Z</time>
      </trkpt>
      <trkpt lat="42.58064" lon="2.05719">
        <ele>1979.076782</ele>
        <time>2011-09-24T08:31:16Z</time>
      </trkpt>
      <trkpt lat="42.58068" lon="2.05727">
        <ele>1977.730225</ele>
        <time>2011-09-24T08:31:17Z</time>
      </trkpt>
      <trkpt lat="42.58073" lon="2.05734">
        <ele>1976.359375</ele>
        <time>2011-09-24T08:31:18Z</time>
      </trkpt>
      <trkpt lat="42.58077" lon="2.05741">
        <ele>1975.04834</ele>
        <time>2011-09-24T08:31:19Z</time>
      </trkpt>
      <trkpt lat="42.5808" lon="2.05749">
        <ele>1973.719238</ele>
        <time>2011-09-24T08:31:20Z</time>
      </trkpt>
      <trkpt lat="42.58083" lon="2.05757">
        <ele>1972.401611</ele>
        <time>2011-09-24T08:31:21Z</time>
      </trkpt>
      <trkpt lat="42.58086" lon="2.05764">
        <ele>1971.094727</ele>
        <time>2011-09-24T08:31:22Z</time>
      </trkpt>
      <trkpt lat="42.58089" lon="2.05771">
        <ele>1969.832031</ele>
        <time>2011-09-24T08:31:23Z</time>
      </trkpt>
      <trkpt lat="42.58092" lon="2.05778">
        <ele>1968.542847</ele>
        <time>2011-09-24T08:31:24Z</time>
      </trkpt>
      <trkpt lat="42.58093" lon="2.05787">
        <ele>1967.170288</ele>
        <time>2011-09-24T08:31:25Z</time>
      </trkpt>
      <trkpt lat="42.58093" lon="2.05796">
        <ele>1966.058228</ele>
        <time>2011-09-24T08:31:26Z</time>
      </trkpt>
      <trkpt lat="42.58096" lon="2.05806">
        <ele>1965.060791</ele>
        <time>2011-09-24T08:31:27Z</time>
      </trkpt>
      <trkpt lat="42.58098" lon="2.05816">
        <ele>1963.748413</ele>
        <time>2011-09-24T08:31:28Z</time>
      </trkpt>
      <trkpt lat="42.58101" lon="2.05827">
        <ele>1962.40918</ele>
        <time>2011-09-24T08:31:29Z</time>
      </trkpt>
      <trkpt lat="42.58105" lon="2.05838">
        <ele>1961.189331</ele>
        <time>2011-09-24T08:31:30Z</time>
      </trkpt>
      <trkpt lat="42.58104" lon="2.05851">
        <ele>1959.796387</ele>
        <time>2011-09-24T08:31:31Z</time>
      </trkpt>
      <trkpt lat="42.58105" lon="2.05864">
        <ele>1958.702026</ele>
        <time>2011-09-24T08:31:32Z</time>
      </trkpt>
      <trkpt lat="42.58105" lon="2.05877">
        <ele>1957.603394</ele>
        <time>2011-09-24T08:31:33Z</time>
      </trkpt>
      <trkpt lat="42.58104" lon="2.0589">
        <ele>1956.310425</ele>
        <time>2011-09-24T08:31:34Z</time>
      </trkpt>
      <trkpt lat="42.58101" lon="2.05901">
        <ele>1954.830444</ele>
        <time>2011-09-24T08:31:35Z</time>
      </trkpt>
      <trkpt lat="42.58098" lon="2.05909">
        <ele>1953.223877</ele>
        <time>2011-09-24T08:31:36Z</time>
      </trkpt>
      <trkpt lat="42.58095" lon="2.05917">
        <ele>1951.469727</ele>
        <time>2011-09-24T08:31:37Z</time>
      </trkpt>
      <trkpt lat="42.58093" lon="2.05922">
        <ele>1949.761108</ele>
        <time>2011-09-24T08:31:38Z</time>
      </trkpt>
      <trkpt lat="42.5809" lon="2.05928">
        <ele>1948.210938</ele>
        <time>2011-09-24T08:31:39Z</time>
      </trkpt>
      <trkpt lat="42.58086" lon="2.05935">
        <ele>1946.88916</ele>
        <time>2011-09-24T08:31:40Z</time>
      </trkpt>
      <trkpt lat="42.58083" lon="2.05943">
        <ele>1946.049072</ele>
        <time>2011-09-24T08:31:41Z</time>
      </trkpt>
      <trkpt lat="42.58081" lon="2.05953">
        <ele>1944.935791</ele>
        <time>2011-09-24T08:31:42Z</time>
      </trkpt>
      <trkpt lat="42.58081" lon="2.0596">
        <ele>1944.118042</ele>
        <time>2011-09-24T08:31:43Z</time>
      </trkpt>
      <trkpt lat="42.58083" lon="2.05968">
        <ele>1943.497437</ele>
        <time>2011-09-24T08:31:44Z</time>
      </trkpt>
      <trkpt lat="42.58085" lon="2.05979">
        <ele>1943.164429</ele>
        <time>2011-09-24T08:31:45Z</time>
      </trkpt>
      <trkpt lat="42.58087" lon="2.0599">
        <ele>1942.699463</ele>
        <time>2011-09-24T08:31:46Z</time>
      </trkpt>
      <trkpt lat="42.58089" lon="2.06001">
        <ele>1942.392578</ele>
        <time>2011-09-24T08:31:47Z</time>
      </trkpt>
      <trkpt lat="42.58087" lon="2.06013">
        <ele>1941.664917</ele>
        <time>2011-09-24T08:31:48Z</time>
      </trkpt>
      <trkpt lat="42.58086" lon="2.06024">
        <ele>1940.807495</ele>
        <time>2011-09-24T08:31:49Z</time>
      </trkpt>
      <trkpt lat="42.58087" lon="2.06036">
        <ele>1939.943359</ele>
        <time>2011-09-24T08:31:50Z</time>
      </trkpt>
      <trkpt lat="42.58089" lon="2.06047">
        <ele>1938.838013</ele>
        <time>2011-09-24T08:31:51Z</time>
      </trkpt>
      <trkpt lat="42.58089" lon="2.06058">
        <ele>1937.703979</ele>
        <time>2011-09-24T08:31:52Z</time>
      </trkpt>
      <trkpt lat="42.58089" lon="2.06069">
        <ele>1936.593994</ele>
        <time>2011-09-24T08:31:53Z</time>
      </trkpt>
      <trkpt lat="42.5809" lon="2.06081">
        <ele>1935.476196</ele>
        <time>2011-09-24T08:31:54Z</time>
      </trkpt>
      <trkpt lat="42.58091" lon="2.06094">
        <ele>1934.372192</ele>
        <time>2011-09-24T08:31:55Z</time>
      </trkpt>
      <trkpt lat="42.58093" lon="2.06106">
        <ele>1932.954224</ele>
        <time>2011-09-24T08:31:56Z</time>
      </trkpt>
      <trkpt lat="42.58095" lon="2.06118">
        <ele>1931.357666</ele>
        <time>2011-09-24T08:31:57Z</time>
      </trkpt>
      <trkpt lat="42.58097" lon="2.06126">
        <ele>1929.533569</ele>
        <time>2011-09-24T08:31:58Z</time>
      </trkpt>
      <trkpt lat="42.58098" lon="2.06135">
        <ele>1927.505371</ele>
        <time>2011-09-24T08:31:59Z</time>
      </trkpt>
      <trkpt lat="42.58099" lon="2.06145">
        <ele>1925.403931</ele>
        <time>2011-09-24T08:32:00Z</time>
      </trkpt>
      <trkpt lat="42.58102" lon="2.06154">
        <ele>1923.36853</ele>
        <time>2011-09-24T08:32:01Z</time>
      </trkpt>
      <trkpt lat="42.58105" lon="2.06163">
        <ele>1921.621338</ele>
        <time>2011-09-24T08:32:02Z</time>
      </trkpt>
      <trkpt lat="42.58107" lon="2.06174">
        <ele>1919.808594</ele>
        <time>2011-09-24T08:32:03Z</time>
      </trkpt>
      <trkpt lat="42.5811" lon="2.06184">
        <ele>1918.209595</ele>
        <time>2011-09-24T08:32:04Z</time>
      </trkpt>
      <trkpt lat="42.58112" lon="2.06194">
        <ele>1916.741943</ele>
        <time>2011-09-24T08:32:05Z</time>
      </trkpt>
      <trkpt lat="42.58113" lon="2.06205">
        <ele>1915.377563</ele>
        <time>2011-09-24T08:32:06Z</time>
      </trkpt>
      <trkpt lat="42.58113" lon="2.06215">
        <ele>1913.868042</ele>
        <time>2011-09-24T08:32:07Z</time>
      </trkpt>
      <trkpt lat="42.58115" lon="2.06227">
        <ele>1912.486572</ele>
        <time>2011-09-24T08:32:08Z</time>
      </trkpt>
      <trkpt lat="42.58119" lon="2.06237">
        <ele>1911.389282</ele>
        <time>2011-09-24T08:32:09Z</time>
      </trkpt>
      <trkpt lat="42.58123" lon="2.06247">
        <ele>1910.531128</ele>
        <time>2011-09-24T08:32:10Z</time>
      </trkpt>
      <trkpt lat="42.58126" lon="2.06257">
        <ele>1909.832397</ele>
        <time>2011-09-24T08:32:11Z</time>
      </trkpt>
      <trkpt lat="42.58129" lon="2.06266">
        <ele>1909.13147</ele>
        <time>2011-09-24T08:32:12Z</time>
      </trkpt>
      <trkpt lat="42.58133" lon="2.06275">
        <ele>1908.525391</ele>
        <time>2011-09-24T08:32:13Z</time>
      </trkpt>
      <trkpt lat="42.58136" lon="2.06285">
        <ele>1908.140259</ele>
        <time>2011-09-24T08:32:14Z</time>
      </trkpt>
      <trkpt lat="42.58137" lon="2.06296">
        <ele>1907.775269</ele>
        <time>2011-09-24T08:32:15Z</time>
      </trkpt>
      <trkpt lat="42.58138" lon="2.06307">
        <ele>1907.349365</ele>
        <time>2011-09-24T08:32:16Z</time>
      </trkpt>
      <trkpt lat="42.58139" lon="2.06316">
        <ele>1907.017944</ele>
        <time>2011-09-24T08:32:17Z</time>
      </trkpt>
      <trkpt lat="42.5814" lon="2.06322">
        <ele>1906.604858</ele>
        <time>2011-09-24T08:32:18Z</time>
      </trkpt>
      <trkpt lat="42.5814" lon="2.06329">
        <ele>1906.151489</ele>
        <time>2011-09-24T08:32:19Z</time>
      </trkpt>
      <trkpt lat="42.58141" lon="2.06335">
        <ele>1906.019775</ele>
        <time>2011-09-24T08:32:20Z</time>
      </trkpt>
      <trkpt lat="42.58142" lon="2.06347">
        <ele>1905.865967</ele>
        <time>2011-09-24T08:32:22Z</time>
      </trkpt>
      <trkpt lat="42.58144" lon="2.06357">
        <ele>1905.690918</ele>
        <time>2011-09-24T08:32:24Z</time>
      </trkpt>
      <trkpt lat="42.58147" lon="2.06368">
        <ele>1905.689087</ele>
        <time>2011-09-24T08:32:26Z</time>
      </trkpt>
      <trkpt lat="42.58153" lon="2.06374">
        <ele>1905.846924</ele>
        <time>2011-09-24T08:32:28Z</time>
      </trkpt>
      <trkpt lat="42.58159" lon="2.06383">
        <ele>1905.975586</ele>
        <time>2011-09-24T08:32:30Z</time>
      </trkpt>
      <trkpt lat="42.58162" lon="2.06388">
        <ele>1905.868652</ele>
        <time>2011-09-24T08:32:31Z</time>
      </trkpt>
      <trkpt lat="42.58167" lon="2.06398">
        <ele>1905.786621</ele>
        <time>2011-09-24T08:32:33Z</time>
      </trkpt>
      <trkpt lat="42.58169" lon="2.06405">
        <ele>1906.092651</ele>
        <time>2011-09-24T08:32:34Z</time>
      </trkpt>
      <trkpt lat="42.58171" lon="2.06414">
        <ele>1906.45813</ele>
        <time>2011-09-24T08:32:35Z</time>
      </trkpt>
      <trkpt lat="42.5817" lon="2.06425">
        <ele>1906.386597</ele>
        <time>2011-09-24T08:32:36Z</time>
      </trkpt>
      <trkpt lat="42.5817" lon="2.06436">
        <ele>1905.960815</ele>
        <time>2011-09-24T08:32:37Z</time>
      </trkpt>
      <trkpt lat="42.58174" lon="2.06445">
        <ele>1905.345825</ele>
        <time>2011-09-24T08:32:38Z</time>
      </trkpt>
      <trkpt lat="42.58177" lon="2.06455">
        <ele>1904.64917</ele>
        <time>2011-09-24T08:32:39Z</time>
      </trkpt>
      <trkpt lat="42.58176" lon="2.06467">
        <ele>1903.331421</ele>
        <time>2011-09-24T08:32:40Z</time>
      </trkpt>
      <trkpt lat="42.58174" lon="2.06479">
        <ele>1901.749268</ele>
        <time>2011-09-24T08:32:41Z</time>
      </trkpt>
      <trkpt lat="42.58173" lon="2.0649">
        <ele>1900.18335</ele>
        <time>2011-09-24T08:32:42Z</time>
      </trkpt>
      <trkpt lat="42.58175" lon="2.06496">
        <ele>1898.576538</ele>
        <time>2011-09-24T08:32:43Z</time>
      </trkpt>
      <trkpt lat="42.58183" lon="2.06497">
        <ele>1897.015381</ele>
        <time>2011-09-24T08:32:44Z</time>
      </trkpt>
      <trkpt lat="42.58191" lon="2.06493">
        <ele>1895.015259</ele>
        <time>2011-09-24T08:32:45Z</time>
      </trkpt>
      <trkpt lat="42.58196" lon="2.06492">
        <ele>1893.108887</ele>
        <time>2011-09-24T08:32:46Z</time>
      </trkpt>
      <trkpt lat="42.58201" lon="2.06493">
        <ele>1891.316406</ele>
        <time>2011-09-24T08:32:47Z</time>
      </trkpt>
      <trkpt lat="42.58205" lon="2.06497">
        <ele>1889.535278</ele>
        <time>2011-09-24T08:32:48Z</time>
      </trkpt>
      <trkpt lat="42.58205" lon="2.06504">
        <ele>1888.102539</ele>
        <time>2011-09-24T08:32:49Z</time>
      </trkpt>
      <trkpt lat="42.5821" lon="2.06506">
        <ele>1885.827515</ele>
        <time>2011-09-24T08:32:51Z</time>
      </trkpt>
      <trkpt lat="42.58216" lon="2.0651">
        <ele>1884.109741</ele>
        <time>2011-09-24T08:32:53Z</time>
      </trkpt>
      <trkpt lat="42.58216" lon="2.06516">
        <ele>1883.139893</ele>
        <time>2011-09-24T08:32:54Z</time>
      </trkpt>
      <trkpt lat="42.58221" lon="2.06525">
        <ele>1880.576782</ele>
        <time>2011-09-24T08:32:56Z</time>
      </trkpt>
      <trkpt lat="42.58221" lon="2.06535">
        <ele>1879.100952</ele>
        <time>2011-09-24T08:32:57Z</time>
      </trkpt>
      <trkpt lat="42.58217" lon="2.06542">
        <ele>1877.93103</ele>
        <time>2011-09-24T08:32:58Z</time>
      </trkpt>
      <trkpt lat="42.58215" lon="2.06548">
        <ele>1876.998535</ele>
        <time>2011-09-24T08:32:59Z</time>
      </trkpt>
      <trkpt lat="42.5822" lon="2.06554">
        <ele>1875.334473</ele>
        <time>2011-09-24T08:33:01Z</time>
      </trkpt>
      <trkpt lat="42.58218" lon="2.06562">
        <ele>1874.483521</ele>
        <time>2011-09-24T08:33:02Z</time>
      </trkpt>
      <trkpt lat="42.58218" lon="2.06569">
        <ele>1873.645142</ele>
        <time>2011-09-24T08:33:03Z</time>
      </trkpt>
      <trkpt lat="42.58218" lon="2.06576">
        <ele>1872.873901</ele>
        <time>2011-09-24T08:33:04Z</time>
      </trkpt>
      <trkpt lat="42.58219" lon="2.06584">
        <ele>1872.078369</ele>
        <time>2011-09-24T08:33:05Z</time>
      </trkpt>
      <trkpt lat="42.5822" lon="2.06591">
        <ele>1871.289551</ele>
        <time>2011-09-24T08:33:06Z</time>
      </trkpt>
      <trkpt lat="42.58215" lon="2.06596">
        <ele>1870.640991</ele>
        <time>2011-09-24T08:33:07Z</time>
      </trkpt>
      <trkpt lat="42.5821" lon="2.06603">
        <ele>1870.200928</ele>
        <time>2011-09-24T08:33:08Z</time>
      </trkpt>
      <trkpt lat="42.58209" lon="2.0661">
        <ele>1869.464478</ele>
        <time>2011-09-24T08:33:09Z</time>
      </trkpt>
      <trkpt lat="42.5821" lon="2.06619">
        <ele>1867.432739</ele>
        <time>2011-09-24T08:33:11Z</time>
      </trkpt>
      <trkpt lat="42.58208" lon="2.06626">
        <ele>1864.811523</ele>
        <time>2011-09-24T08:33:13Z</time>
      </trkpt>
      <trkpt lat="42.58202" lon="2.06633">
        <ele>1863.568237</ele>
        <time>2011-09-24T08:33:14Z</time>
      </trkpt>
      <trkpt lat="42.58198" lon="2.0664">
        <ele>1862.557983</ele>
        <time>2011-09-24T08:33:15Z</time>
      </trkpt>
      <trkpt lat="42.58195" lon="2.06647">
        <ele>1861.579956</ele>
        <time>2011-09-24T08:33:16Z</time>
      </trkpt>
      <trkpt lat="42.58191" lon="2.06655">
        <ele>1860.638306</ele>
        <time>2011-09-24T08:33:17Z</time>
      </trkpt>
      <trkpt lat="42.58188" lon="2.06666">
        <ele>1859.766235</ele>
        <time>2011-09-24T08:33:18Z</time>
      </trkpt>
      <trkpt lat="42.58183" lon="2.06676">
        <ele>1858.91333</ele>
        <time>2011-09-24T08:33:19Z</time>
      </trkpt>
      <trkpt lat="42.58178" lon="2.06687">
        <ele>1858.081055</ele>
        <time>2011-09-24T08:33:20Z</time>
      </trkpt>
      <trkpt lat="42.58173" lon="2.06698">
        <ele>1857.348389</ele>
        <time>2011-09-24T08:33:21Z</time>
      </trkpt>
      <trkpt lat="42.58167" lon="2.06709">
        <ele>1856.118408</ele>
        <time>2011-09-24T08:33:22Z</time>
      </trkpt>
      <trkpt lat="42.58161" lon="2.06719">
        <ele>1854.646729</ele>
        <time>2011-09-24T08:33:23Z</time>
      </trkpt>
      <trkpt lat="42.58156" lon="2.06731">
        <ele>1853.134033</ele>
        <time>2011-09-24T08:33:24Z</time>
      </trkpt>
      <trkpt lat="42.5815" lon="2.06744">
        <ele>1851.646851</ele>
        <time>2011-09-24T08:33:25Z</time>
      </trkpt>
      <trkpt lat="42.58143" lon="2.06757">
        <ele>1850.168823</ele>
        <time>2011-09-24T08:33:26Z</time>
      </trkpt>
      <trkpt lat="42.58135" lon="2.06767">
        <ele>1848.998291</ele>
        <time>2011-09-24T08:33:27Z</time>
      </trkpt>
      <trkpt lat="42.58126" lon="2.06776">
        <ele>1848.220459</ele>
        <time>2011-09-24T08:33:28Z</time>
      </trkpt>
      <trkpt lat="42.58119" lon="2.06784">
        <ele>1847.632568</ele>
        <time>2011-09-24T08:33:29Z</time>
      </trkpt>
      <trkpt lat="42.58112" lon="2.06793">
        <ele>1847.588745</ele>
        <time>2011-09-24T08:33:30Z</time>
      </trkpt>
      <trkpt lat="42.58105" lon="2.06802">
        <ele>1847.728394</ele>
        <time>2011-09-24T08:33:31Z</time>
      </trkpt>
      <trkpt lat="42.58098" lon="2.06811">
        <ele>1847.766724</ele>
        <time>2011-09-24T08:33:32Z</time>
      </trkpt>
      <trkpt lat="42.58091" lon="2.06821">
        <ele>1847.83728</ele>
        <time>2011-09-24T08:33:33Z</time>
      </trkpt>
      <trkpt lat="42.58084" lon="2.06829">
        <ele>1847.680664</ele>
        <time>2011-09-24T08:33:34Z</time>
      </trkpt>
      <trkpt lat="42.58076" lon="2.06833">
        <ele>1847.141357</ele>
        <time>2011-09-24T08:33:35Z</time>
      </trkpt>
      <trkpt lat="42.58067" lon="2.06833">
        <ele>1846.529663</ele>
        <time>2011-09-24T08:33:36Z</time>
      </trkpt>
      <trkpt lat="42.5806" lon="2.06832">
        <ele>1845.953613</ele>
        <time>2011-09-24T08:33:37Z</time>
      </trkpt>
      <trkpt lat="42.58054" lon="2.06827">
        <ele>1845.449341</ele>
        <time>2011-09-24T08:33:38Z</time>
      </trkpt>
      <trkpt lat="42.58049" lon="2.06823">
        <ele>1844.8927</ele>
        <time>2011-09-24T08:33:39Z</time>
      </trkpt>
      <trkpt lat="42.58045" lon="2.06818">
        <ele>1844.464111</ele>
        <time>2011-09-24T08:33:40Z</time>
      </trkpt>
      <trkpt lat="42.5804" lon="2.06814">
        <ele>1843.633301</ele>
        <time>2011-09-24T08:33:41Z</time>
      </trkpt>
      <trkpt lat="42.58037" lon="2.0681">
        <ele>1842.236816</ele>
        <time>2011-09-24T08:33:42Z</time>
      </trkpt>
      <trkpt lat="42.58033" lon="2.06806">
        <ele>1840.326172</ele>
        <time>2011-09-24T08:33:43Z</time>
      </trkpt>
      <trkpt lat="42.5803" lon="2.06802">
        <ele>1838.694458</ele>
        <time>2011-09-24T08:33:44Z</time>
      </trkpt>
      <trkpt lat="42.58027" lon="2.06796">
        <ele>1837.243164</ele>
        <time>2011-09-24T08:33:45Z</time>
      </trkpt>
      <trkpt lat="42.58024" lon="2.06791">
        <ele>1835.939209</ele>
        <time>2011-09-24T08:33:46Z</time>
      </trkpt>
      <trkpt lat="42.58021" lon="2.06786">
        <ele>1834.711792</ele>
        <time>2011-09-24T08:33:47Z</time>
      </trkpt>
      <trkpt lat="42.58017" lon="2.06779">
        <ele>1833.65271</ele>
        <time>2011-09-24T08:33:48Z</time>
      </trkpt>
      <trkpt lat="42.58014" lon="2.06772">
        <ele>1832.567139</ele>
        <time>2011-09-24T08:33:49Z</time>
      </trkpt>
      <trkpt lat="42.5801" lon="2.06765">
        <ele>1831.40564</ele>
        <time>2011-09-24T08:33:50Z</time>
      </trkpt>
      <trkpt lat="42.58004" lon="2.06757">
        <ele>1830.080688</ele>
        <time>2011-09-24T08:33:51Z</time>
      </trkpt>
      <trkpt lat="42.57999" lon="2.0675">
        <ele>1828.695312</ele>
        <time>2011-09-24T08:33:52Z</time>
      </trkpt>
      <trkpt lat="42.57992" lon="2.06743">
        <ele>1827.60498</ele>
        <time>2011-09-24T08:33:53Z</time>
      </trkpt>
      <trkpt lat="42.57986" lon="2.06736">
        <ele>1826.661133</ele>
        <time>2011-09-24T08:33:54Z</time>
      </trkpt>
      <trkpt lat="42.57979" lon="2.06729">
        <ele>1825.90271</ele>
        <time>2011-09-24T08:33:55Z</time>
      </trkpt>
      <trkpt lat="42.57971" lon="2.06722">
        <ele>1825.328979</ele>
        <time>2011-09-24T08:33:56Z</time>
      </trkpt>
      <trkpt lat="42.57963" lon="2.06714">
        <ele>1824.864136</ele>
        <time>2011-09-24T08:33:57Z</time>
      </trkpt>
      <trkpt lat="42.57956" lon="2.06706">
        <ele>1824.091553</ele>
        <time>2011-09-24T08:33:58Z</time>
      </trkpt>
      <trkpt lat="42.57951" lon="2.06697">
        <ele>1823.320557</ele>
        <time>2011-09-24T08:33:59Z</time>
      </trkpt>
      <trkpt lat="42.57948" lon="2.06687">
        <ele>1822.420532</ele>
        <time>2011-09-24T08:34:00Z</time>
      </trkpt>
      <trkpt lat="42.57945" lon="2.06677">
        <ele>1821.674561</ele>
        <time>2011-09-24T08:34:01Z</time>
      </trkpt>
      <trkpt lat="42.57941" lon="2.06667">
        <ele>1820.709473</ele>
        <time>2011-09-24T08:34:02Z</time>
      </trkpt>
      <trkpt lat="42.57936" lon="2.06658">
        <ele>1819.841187</ele>
        <time>2011-09-24T08:34:03Z</time>
      </trkpt>
      <trkpt lat="42.57933" lon="2.06649">
        <ele>1818.983154</ele>
        <time>2011-09-24T08:34:04Z</time>
      </trkpt>
      <trkpt lat="42.57929" lon="2.06641">
        <ele>1817.969849</ele>
        <time>2011-09-24T08:34:05Z</time>
      </trkpt>
      <trkpt lat="42.57926" lon="2.06633">
        <ele>1817.25354</ele>
        <time>2011-09-24T08:34:06Z</time>
      </trkpt>
      <trkpt lat="42.57922" lon="2.06624">
        <ele>1816.528564</ele>
        <time>2011-09-24T08:34:07Z</time>
      </trkpt>
      <trkpt lat="42.57917" lon="2.06614">
        <ele>1815.794067</ele>
        <time>2011-09-24T08:34:08Z</time>
      </trkpt>
      <trkpt lat="42.57912" lon="2.06602">
        <ele>1815.00647</ele>
        <time>2011-09-24T08:34:09Z</time>
      </trkpt>
      <trkpt lat="42.57906" lon="2.06589">
        <ele>1814.381958</ele>
        <time>2011-09-24T08:34:10Z</time>
      </trkpt>
      <trkpt lat="42.57901" lon="2.06576">
        <ele>1813.706421</ele>
        <time>2011-09-24T08:34:11Z</time>
      </trkpt>
      <trkpt lat="42.57897" lon="2.06564">
        <ele>1813.037354</ele>
        <time>2011-09-24T08:34:12Z</time>
      </trkpt>
      <trkpt lat="42.57894" lon="2.06552">
        <ele>1812.574951</ele>
        <time>2011-09-24T08:34:13Z</time>
      </trkpt>
      <trkpt lat="42.57891" lon="2.0654">
        <ele>1811.837891</ele>
        <time>2011-09-24T08:34:14Z</time>
      </trkpt>
      <trkpt lat="42.57889" lon="2.06529">
        <ele>1810.87915</ele>
        <time>2011-09-24T08:34:15Z</time>
      </trkpt>
      <trkpt lat="42.57886" lon="2.06519">
        <ele>1810.105713</ele>
        <time>2011-09-24T08:34:16Z</time>
      </trkpt>
      <trkpt lat="42.57883" lon="2.06509">
        <ele>1809.335693</ele>
        <time>2011-09-24T08:34:17Z</time>
      </trkpt>
      <trkpt lat="42.57879" lon="2.065">
        <ele>1808.665283</ele>
        <time>2011-09-24T08:34:18Z</time>
      </trkpt>
      <trkpt lat="42.57875" lon="2.0649">
        <ele>1808.421387</ele>
        <time>2011-09-24T08:34:19Z</time>
      </trkpt>
      <trkpt lat="42.57871" lon="2.06482">
        <ele>1808.170776</ele>
        <time>2011-09-24T08:34:20Z</time>
      </trkpt>
      <trkpt lat="42.57866" lon="2.06473">
        <ele>1807.857544</ele>
        <time>2011-09-24T08:34:21Z</time>
      </trkpt>
      <trkpt lat="42.57862" lon="2.06464">
        <ele>1807.469482</ele>
        <time>2011-09-24T08:34:22Z</time>
      </trkpt>
      <trkpt lat="42.57858" lon="2.06455">
        <ele>1806.682861</ele>
        <time>2011-09-24T08:34:23Z</time>
      </trkpt>
      <trkpt lat="42.57854" lon="2.06447">
        <ele>1806.123413</ele>
        <time>2011-09-24T08:34:24Z</time>
      </trkpt>
      <trkpt lat="42.5785" lon="2.06439">
        <ele>1805.379395</ele>
        <time>2011-09-24T08:34:25Z</time>
      </trkpt>
      <trkpt lat="42.57847" lon="2.06431">
        <ele>1804.550415</ele>
        <time>2011-09-24T08:34:26Z</time>
      </trkpt>
      <trkpt lat="42.57842" lon="2.06423">
        <ele>1803.993774</ele>
        <time>2011-09-24T08:34:27Z</time>
      </trkpt>
      <trkpt lat="42.57838" lon="2.06416">
        <ele>1803.359375</ele>
        <time>2011-09-24T08:34:28Z</time>
      </trkpt>
      <trkpt lat="42.57834" lon="2.06409">
        <ele>1802.849976</ele>
        <time>2011-09-24T08:34:29Z</time>
      </trkpt>
      <trkpt lat="42.57831" lon="2.06402">
        <ele>1802.220093</ele>
        <time>2011-09-24T08:34:30Z</time>
      </trkpt>
      <trkpt lat="42.57827" lon="2.06395">
        <ele>1801.642456</ele>
        <time>2011-09-24T08:34:31Z</time>
      </trkpt>
      <trkpt lat="42.57823" lon="2.06388">
        <ele>1801.006226</ele>
        <time>2011-09-24T08:34:32Z</time>
      </trkpt>
      <trkpt lat="42.5782" lon="2.06382">
        <ele>1800.349365</ele>
        <time>2011-09-24T08:34:33Z</time>
      </trkpt>
      <trkpt lat="42.57815" lon="2.06377">
        <ele>1799.798706</ele>
        <time>2011-09-24T08:34:34Z</time>
      </trkpt>
      <trkpt lat="42.5781" lon="2.06375">
        <ele>1799.404785</ele>
        <time>2011-09-24T08:34:35Z</time>
      </trkpt>
      <trkpt lat="42.57803" lon="2.06376">
        <ele>1798.790283</ele>
        <time>2011-09-24T08:34:36Z</time>
      </trkpt>
      <trkpt lat="42.57794" lon="2.06377">
        <ele>1797.817017</ele>
        <time>2011-09-24T08:34:37Z</time>
      </trkpt>
      <trkpt lat="42.57785" lon="2.06379">
        <ele>1796.251709</ele>
        <time>2011-09-24T08:34:38Z</time>
      </trkpt>
      <trkpt lat="42.57775" lon="2.06382">
        <ele>1794.560181</ele>
        <time>2011-09-24T08:34:39Z</time>
      </trkpt>
      <trkpt lat="42.57766" lon="2.06387">
        <ele>1792.961914</ele>
        <time>2011-09-24T08:34:40Z</time>
      </trkpt>
      <trkpt lat="42.57757" lon="2.06393">
        <ele>1791.068237</ele>
        <time>2011-09-24T08:34:41Z</time>
      </trkpt>
      <trkpt lat="42.57747" lon="2.06399">
        <ele>1789.949707</ele>
        <time>2011-09-24T08:34:42Z</time>
      </trkpt>
      <trkpt lat="42.57738" lon="2.06406">
        <ele>1789.03833</ele>
        <time>2011-09-24T08:34:43Z</time>
      </trkpt>
      <trkpt lat="42.57729" lon="2.06414">
        <ele>1788.17334</ele>
        <time>2011-09-24T08:34:44Z</time>
      </trkpt>
      <trkpt lat="42.57721" lon="2.06421">
        <ele>1787.23645</ele>
        <time>2011-09-24T08:34:45Z</time>
      </trkpt>
      <trkpt lat="42.57713" lon="2.0643">
        <ele>1786.096436</ele>
        <time>2011-09-24T08:34:46Z</time>
      </trkpt>
      <trkpt lat="42.57705" lon="2.0644">
        <ele>1785.075439</ele>
        <time>2011-09-24T08:34:47Z</time>
      </trkpt>
      <trkpt lat="42.57698" lon="2.0645">
        <ele>1784.113647</ele>
        <time>2011-09-24T08:34:48Z</time>
      </trkpt>
      <trkpt lat="42.5769" lon="2.06461">
        <ele>1783.190308</ele>
        <time>2011-09-24T08:34:49Z</time>
      </trkpt>
      <trkpt lat="42.57684" lon="2.06472">
        <ele>1782.345581</ele>
        <time>2011-09-24T08:34:50Z</time>
      </trkpt>
      <trkpt lat="42.57678" lon="2.06483">
        <ele>1781.329834</ele>
        <time>2011-09-24T08:34:51Z</time>
      </trkpt>
      <trkpt lat="42.57672" lon="2.06494">
        <ele>1780.505493</ele>
        <time>2011-09-24T08:34:52Z</time>
      </trkpt>
      <trkpt lat="42.57667" lon="2.06505">
        <ele>1779.747925</ele>
        <time>2011-09-24T08:34:53Z</time>
      </trkpt>
      <trkpt lat="42.57664" lon="2.06513">
        <ele>1778.960205</ele>
        <time>2011-09-24T08:34:54Z</time>
      </trkpt>
      <trkpt lat="42.57661" lon="2.06521">
        <ele>1778.203247</ele>
        <time>2011-09-24T08:34:55Z</time>
      </trkpt>
      <trkpt lat="42.57657" lon="2.06528">
        <ele>1777.597412</ele>
        <time>2011-09-24T08:34:56Z</time>
      </trkpt>
      <trkpt lat="42.57654" lon="2.06535">
        <ele>1776.59375</ele>
        <time>2011-09-24T08:34:57Z</time>
      </trkpt>
      <trkpt lat="42.5765" lon="2.06543">
        <ele>1775.697754</ele>
        <time>2011-09-24T08:34:58Z</time>
      </trkpt>
      <trkpt lat="42.57646" lon="2.06551">
        <ele>1774.789307</ele>
        <time>2011-09-24T08:34:59Z</time>
      </trkpt>
      <trkpt lat="42.57643" lon="2.06558">
        <ele>1774.006348</ele>
        <time>2011-09-24T08:35:00Z</time>
      </trkpt>
      <trkpt lat="42.5764" lon="2.06568">
        <ele>1772.332886</ele>
        <time>2011-09-24T08:35:02Z</time>
      </trkpt>
      <trkpt lat="42.57642" lon="2.06575">
        <ele>1771.433716</ele>
        <time>2011-09-24T08:35:03Z</time>
      </trkpt>
      <trkpt lat="42.57648" lon="2.06579">
        <ele>1770.470337</ele>
        <time>2011-09-24T08:35:04Z</time>
      </trkpt>
      <trkpt lat="42.57655" lon="2.06582">
        <ele>1768.801147</ele>
        <time>2011-09-24T08:35:05Z</time>
      </trkpt>
      <trkpt lat="42.57661" lon="2.06587">
        <ele>1768.801147</ele>
        <time>2011-09-24T08:35:06Z</time>
      </trkpt>
      <trkpt lat="42.57665" lon="2.06584">
        <ele>1767.46521</ele>
        <time>2011-09-24T08:35:07Z</time>
      </trkpt>
      <trkpt lat="42.57669" lon="2.06586">
        <ele>1765.687378</ele>
        <time>2011-09-24T08:35:08Z</time>
      </trkpt>
      <trkpt lat="42.57671" lon="2.06595">
        <ele>1760.354858</ele>
        <time>2011-09-24T08:35:10Z</time>
      </trkpt>
      <trkpt lat="42.57665" lon="2.06603">
        <ele>1754.425781</ele>
        <time>2011-09-24T08:35:12Z</time>
      </trkpt>
      <trkpt lat="42.57663" lon="2.06613">
        <ele>1750.129761</ele>
        <time>2011-09-24T08:35:14Z</time>
      </trkpt>
      <trkpt lat="42.57667" lon="2.06622">
        <ele>1747.667114</ele>
        <time>2011-09-24T08:35:15Z</time>
      </trkpt>
      <trkpt lat="42.57671" lon="2.06632">
        <ele>1745.322388</ele>
        <time>2011-09-24T08:35:16Z</time>
      </trkpt>
      <trkpt lat="42.57673" lon="2.0664">
        <ele>1743.240356</ele>
        <time>2011-09-24T08:35:17Z</time>
      </trkpt>
      <trkpt lat="42.57673" lon="2.06647">
        <ele>1740.891846</ele>
        <time>2011-09-24T08:35:18Z</time>
      </trkpt>
      <trkpt lat="42.5767" lon="2.06653">
        <ele>1738.915649</ele>
        <time>2011-09-24T08:35:19Z</time>
      </trkpt>
      <trkpt lat="42.57668" lon="2.06659">
        <ele>1737.276855</ele>
        <time>2011-09-24T08:35:20Z</time>
      </trkpt>
      <trkpt lat="42.57665" lon="2.06666">
        <ele>1735.931519</ele>
        <time>2011-09-24T08:35:21Z</time>
      </trkpt>
      <trkpt lat="42.57662" lon="2.06674">
        <ele>1734.840576</ele>
        <time>2011-09-24T08:35:22Z</time>
      </trkpt>
      <trkpt lat="42.57659" lon="2.06682">
        <ele>1733.551025</ele>
        <time>2011-09-24T08:35:23Z</time>
      </trkpt>
      <trkpt lat="42.57655" lon="2.0669">
        <ele>1731.780518</ele>
        <time>2011-09-24T08:35:24Z</time>
      </trkpt>
      <trkpt lat="42.57649" lon="2.06698">
        <ele>1729.969849</ele>
        <time>2011-09-24T08:35:25Z</time>
      </trkpt>
      <trkpt lat="42.57643" lon="2.06709">
        <ele>1727.604858</ele>
        <time>2011-09-24T08:35:26Z</time>
      </trkpt>
      <trkpt lat="42.57637" lon="2.0672">
        <ele>1724.748535</ele>
        <time>2011-09-24T08:35:27Z</time>
      </trkpt>
      <trkpt lat="42.57632" lon="2.06729">
        <ele>1721.923584</ele>
        <time>2011-09-24T08:35:28Z</time>
      </trkpt>
      <trkpt lat="42.57629" lon="2.06737">
        <ele>1719.354126</ele>
        <time>2011-09-24T08:35:29Z</time>
      </trkpt>
      <trkpt lat="42.57632" lon="2.06743">
        <ele>1717.144897</ele>
        <time>2011-09-24T08:35:30Z</time>
      </trkpt>
      <trkpt lat="42.57635" lon="2.06748">
        <ele>1714.957275</ele>
        <time>2011-09-24T08:35:31Z</time>
      </trkpt>
      <trkpt lat="42.57634" lon="2.0676">
        <ele>1710.4198</ele>
        <time>2011-09-24T08:35:33Z</time>
      </trkpt>
      <trkpt lat="42.57626" lon="2.06766">
        <ele>1708.019043</ele>
        <time>2011-09-24T08:35:34Z</time>
      </trkpt>
      <trkpt lat="42.57619" lon="2.06773">
        <ele>1705.741089</ele>
        <time>2011-09-24T08:35:35Z</time>
      </trkpt>
      <trkpt lat="42.57611" lon="2.0678">
        <ele>1703.644409</ele>
        <time>2011-09-24T08:35:36Z</time>
      </trkpt>
      <trkpt lat="42.57601" lon="2.06784">
        <ele>1701.766479</ele>
        <time>2011-09-24T08:35:37Z</time>
      </trkpt>
      <trkpt lat="42.57592" lon="2.06788">
        <ele>1700.138916</ele>
        <time>2011-09-24T08:35:38Z</time>
      </trkpt>
      <trkpt lat="42.57582" lon="2.06792">
        <ele>1698.728516</ele>
        <time>2011-09-24T08:35:39Z</time>
      </trkpt>
      <trkpt lat="42.57572" lon="2.06796">
        <ele>1697.260742</ele>
        <time>2011-09-24T08:35:40Z</time>
      </trkpt>
      <trkpt lat="42.5756" lon="2.06802">
        <ele>1695.682495</ele>
        <time>2011-09-24T08:35:41Z</time>
      </trkpt>
      <trkpt lat="42.57548" lon="2.06808">
        <ele>1694.144287</ele>
        <time>2011-09-24T08:35:42Z</time>
      </trkpt>
      <trkpt lat="42.57537" lon="2.06815">
        <ele>1692.681274</ele>
        <time>2011-09-24T08:35:43Z</time>
      </trkpt>
      <trkpt lat="42.57526" lon="2.06822">
        <ele>1691.290161</ele>
        <time>2011-09-24T08:35:44Z</time>
      </trkpt>
      <trkpt lat="42.57517" lon="2.06831">
        <ele>1689.889771</ele>
        <time>2011-09-24T08:35:45Z</time>
      </trkpt>
      <trkpt lat="42.57508" lon="2.06841">
        <ele>1688.530273</ele>
        <time>2011-09-24T08:35:46Z</time>
      </trkpt>
      <trkpt lat="42.57502" lon="2.06852">
        <ele>1687.132324</ele>
        <time>2011-09-24T08:35:47Z</time>
      </trkpt>
      <trkpt lat="42.57499" lon="2.06864">
        <ele>1685.771118</ele>
        <time>2011-09-24T08:35:48Z</time>
      </trkpt>
      <trkpt lat="42.57498" lon="2.06878">
        <ele>1684.471924</ele>
        <time>2011-09-24T08:35:49Z</time>
      </trkpt>
      <trkpt lat="42.57498" lon="2.0689">
        <ele>1682.915039</ele>
        <time>2011-09-24T08:35:50Z</time>
      </trkpt>
      <trkpt lat="42.57498" lon="2.069">
        <ele>1681.392334</ele>
        <time>2011-09-24T08:35:51Z</time>
      </trkpt>
      <trkpt lat="42.57497" lon="2.06907">
        <ele>1679.912598</ele>
        <time>2011-09-24T08:35:52Z</time>
      </trkpt>
      <trkpt lat="42.57495" lon="2.06914">
        <ele>1679.630981</ele>
        <time>2011-09-24T08:35:54Z</time>
      </trkpt>
      <trkpt lat="42.57492" lon="2.0692">
        <ele>1679.385254</ele>
        <time>2011-09-24T08:35:56Z</time>
      </trkpt>
      <trkpt lat="42.57488" lon="2.06924">
        <ele>1679.117798</ele>
        <time>2011-09-24T08:35:58Z</time>
      </trkpt>
      <trkpt lat="42.57482" lon="2.06925">
        <ele>1678.471436</ele>
        <time>2011-09-24T08:36:01Z</time>
      </trkpt>
      <trkpt lat="42.57481" lon="2.06907">
        <ele>1665.689575</ele>
        <time>2011-09-24T08:38:20Z</time>
      </trkpt>
      <trkpt lat="42.57482" lon="2.06895">
        <ele>1663.61084</ele>
        <time>2011-09-24T08:38:23Z</time>
      </trkpt>
      <trkpt lat="42.57482" lon="2.06879">
        <ele>1661.433105</ele>
        <time>2011-09-24T08:38:27Z</time>
      </trkpt>
      <trkpt lat="42.57481" lon="2.0687">
        <ele>1660.660522</ele>
        <time>2011-09-24T08:38:29Z</time>
      </trkpt>
      <trkpt lat="42.57478" lon="2.06855">
        <ele>1659.509766</ele>
        <time>2011-09-24T08:38:33Z</time>
      </trkpt>
      <trkpt lat="42.57478" lon="2.06855">
        <ele>1659.509766</ele>
        <time>2011-09-24T08:38:35Z</time>
      </trkpt>
      <trkpt lat="42.57478" lon="2.0684">
        <ele>1658.854614</ele>
        <time>2011-09-24T08:38:36Z</time>
      </trkpt>
      <trkpt lat="42.57479" lon="2.0683">
        <ele>1658.650024</ele>
        <time>2011-09-24T08:38:38Z</time>
      </trkpt>
      <trkpt lat="42.57479" lon="2.06821">
        <ele>1658.583496</ele>
        <time>2011-09-24T08:38:40Z</time>
      </trkpt>
      <trkpt lat="42.57478" lon="2.06807">
        <ele>1658.832642</ele>
        <time>2011-09-24T08:38:44Z</time>
      </trkpt>
      <trkpt lat="42.57477" lon="2.06797">
        <ele>1659.017212</ele>
        <time>2011-09-24T08:38:46Z</time>
      </trkpt>
      <trkpt lat="42.57477" lon="2.06789">
        <ele>1659.225464</ele>
        <time>2011-09-24T08:38:48Z</time>
      </trkpt>
      <trkpt lat="42.57478" lon="2.06781">
        <ele>1659.456299</ele>
        <time>2011-09-24T08:38:50Z</time>
      </trkpt>
      <trkpt lat="42.57478" lon="2.06774">
        <ele>1659.674561</ele>
        <time>2011-09-24T08:38:52Z</time>
      </trkpt>
      <trkpt lat="42.57477" lon="2.06765">
        <ele>1660.327637</ele>
        <time>2011-09-24T08:38:55Z</time>
      </trkpt>
      <trkpt lat="42.57475" lon="2.06756">
        <ele>1661.125732</ele>
        <time>2011-09-24T08:38:57Z</time>
      </trkpt>
      <trkpt lat="42.57473" lon="2.06746">
        <ele>1662.153564</ele>
        <time>2011-09-24T08:38:59Z</time>
      </trkpt>
      <trkpt lat="42.57471" lon="2.06736">
        <ele>1663.290039</ele>
        <time>2011-09-24T08:39:01Z</time>
      </trkpt>
      <trkpt lat="42.57469" lon="2.06727">
        <ele>1664.502441</ele>
        <time>2011-09-24T08:39:03Z</time>
      </trkpt>
      <trkpt lat="42.57468" lon="2.06719">
        <ele>1665.757568</ele>
        <time>2011-09-24T08:39:05Z</time>
      </trkpt>
      <trkpt lat="42.57467" lon="2.06711">
        <ele>1666.942749</ele>
        <time>2011-09-24T08:39:07Z</time>
      </trkpt>
      <trkpt lat="42.57465" lon="2.06703">
        <ele>1668.165405</ele>
        <time>2011-09-24T08:39:09Z</time>
      </trkpt>
      <trkpt lat="42.57464" lon="2.06693">
        <ele>1669.496826</ele>
        <time>2011-09-24T08:39:11Z</time>
      </trkpt>
      <trkpt lat="42.57462" lon="2.06683">
        <ele>1670.843018</ele>
        <time>2011-09-24T08:39:13Z</time>
      </trkpt>
      <trkpt lat="42.57461" lon="2.06674">
        <ele>1672.188843</ele>
        <time>2011-09-24T08:39:15Z</time>
      </trkpt>
      <trkpt lat="42.57459" lon="2.06665">
        <ele>1673.54895</ele>
        <time>2011-09-24T08:39:17Z</time>
      </trkpt>
      <trkpt lat="42.57457" lon="2.06656">
        <ele>1674.874512</ele>
        <time>2011-09-24T08:39:19Z</time>
      </trkpt>
      <trkpt lat="42.57456" lon="2.06648">
        <ele>1676.203369</ele>
        <time>2011-09-24T08:39:21Z</time>
      </trkpt>
      <trkpt lat="42.57455" lon="2.06639">
        <ele>1677.522217</ele>
        <time>2011-09-24T08:39:23Z</time>
      </trkpt>
      <trkpt lat="42.57454" lon="2.0663">
        <ele>1678.829712</ele>
        <time>2011-09-24T08:39:25Z</time>
      </trkpt>
      <trkpt lat="42.57453" lon="2.06622">
        <ele>1680.128174</ele>
        <time>2011-09-24T08:39:27Z</time>
      </trkpt>
      <trkpt lat="42.57452" lon="2.06613">
        <ele>1681.430176</ele>
        <time>2011-09-24T08:39:29Z</time>
      </trkpt>
      <trkpt lat="42.57451" lon="2.06605">
        <ele>1682.805664</ele>
        <time>2011-09-24T08:39:31Z</time>
      </trkpt>
      <trkpt lat="42.57451" lon="2.06598">
        <ele>1684.249268</ele>
        <time>2011-09-24T08:39:33Z</time>
      </trkpt>
      <trkpt lat="42.5745" lon="2.06594">
        <ele>1684.986084</ele>
        <time>2011-09-24T08:39:34Z</time>
      </trkpt>
      <trkpt lat="42.57449" lon="2.06586">
        <ele>1686.470093</ele>
        <time>2011-09-24T08:39:36Z</time>
      </trkpt>
      <trkpt lat="42.57449" lon="2.06579">
        <ele>1687.9104</ele>
        <time>2011-09-24T08:39:38Z</time>
      </trkpt>
      <trkpt lat="42.57449" lon="2.0657">
        <ele>1689.307739</ele>
        <time>2011-09-24T08:39:40Z</time>
      </trkpt>
      <trkpt lat="42.57448" lon="2.0656">
        <ele>1690.701904</ele>
        <time>2011-09-24T08:39:42Z</time>
      </trkpt>
      <trkpt lat="42.57448" lon="2.0655">
        <ele>1692.10376</ele>
        <time>2011-09-24T08:39:44Z</time>
      </trkpt>
      <trkpt lat="42.57447" lon="2.0654">
        <ele>1693.52417</ele>
        <time>2011-09-24T08:39:46Z</time>
      </trkpt>
      <trkpt lat="42.57446" lon="2.06531">
        <ele>1694.953979</ele>
        <time>2011-09-24T08:39:48Z</time>
      </trkpt>
      <trkpt lat="42.57445" lon="2.06521">
        <ele>1696.383545</ele>
        <time>2011-09-24T08:39:50Z</time>
      </trkpt>
      <trkpt lat="42.57444" lon="2.06512">
        <ele>1697.811768</ele>
        <time>2011-09-24T08:39:52Z</time>
      </trkpt>
      <trkpt lat="42.57442" lon="2.06503">
        <ele>1699.251099</ele>
        <time>2011-09-24T08:39:54Z</time>
      </trkpt>
      <trkpt lat="42.57441" lon="2.06494">
        <ele>1700.702271</ele>
        <time>2011-09-24T08:39:56Z</time>
      </trkpt>
      <trkpt lat="42.5744" lon="2.06486">
        <ele>1702.208618</ele>
        <time>2011-09-24T08:39:58Z</time>
      </trkpt>
      <trkpt lat="42.57439" lon="2.06477">
        <ele>1703.778564</ele>
        <time>2011-09-24T08:40:00Z</time>
      </trkpt>
      <trkpt lat="42.57438" lon="2.06468">
        <ele>1705.420166</ele>
        <time>2011-09-24T08:40:02Z</time>
      </trkpt>
      <trkpt lat="42.57437" lon="2.06459">
        <ele>1707.116211</ele>
        <time>2011-09-24T08:40:04Z</time>
      </trkpt>
      <trkpt lat="42.57436" lon="2.0645">
        <ele>1708.81311</ele>
        <time>2011-09-24T08:40:06Z</time>
      </trkpt>
      <trkpt lat="42.57435" lon="2.06441">
        <ele>1710.521973</ele>
        <time>2011-09-24T08:40:08Z</time>
      </trkpt>
      <trkpt lat="42.57433" lon="2.06432">
        <ele>1712.218506</ele>
        <time>2011-09-24T08:40:10Z</time>
      </trkpt>
      <trkpt lat="42.57432" lon="2.06423">
        <ele>1713.932007</ele>
        <time>2011-09-24T08:40:12Z</time>
      </trkpt>
      <trkpt lat="42.57431" lon="2.06419">
        <ele>1714.796997</ele>
        <time>2011-09-24T08:40:13Z</time>
      </trkpt>
      <trkpt lat="42.57429" lon="2.06411">
        <ele>1716.547241</ele>
        <time>2011-09-24T08:40:15Z</time>
      </trkpt>
      <trkpt lat="42.57428" lon="2.06403">
        <ele>1718.288086</ele>
        <time>2011-09-24T08:40:17Z</time>
      </trkpt>
      <trkpt lat="42.57426" lon="2.06395">
        <ele>1719.983643</ele>
        <time>2011-09-24T08:40:19Z</time>
      </trkpt>
      <trkpt lat="42.57426" lon="2.06391">
        <ele>1720.832642</ele>
        <time>2011-09-24T08:40:20Z</time>
      </trkpt>
      <trkpt lat="42.57424" lon="2.06382">
        <ele>1722.510132</ele>
        <time>2011-09-24T08:40:22Z</time>
      </trkpt>
      <trkpt lat="42.57423" lon="2.06373">
        <ele>1724.189453</ele>
        <time>2011-09-24T08:40:24Z</time>
      </trkpt>
      <trkpt lat="42.57422" lon="2.06364">
        <ele>1725.852661</ele>
        <time>2011-09-24T08:40:26Z</time>
      </trkpt>
      <trkpt lat="42.57421" lon="2.06355">
        <ele>1727.485962</ele>
        <time>2011-09-24T08:40:28Z</time>
      </trkpt>
      <trkpt lat="42.57421" lon="2.06347">
        <ele>1729.107056</ele>
        <time>2011-09-24T08:40:30Z</time>
      </trkpt>
      <trkpt lat="42.5742" lon="2.06338">
        <ele>1730.70459</ele>
        <time>2011-09-24T08:40:32Z</time>
      </trkpt>
      <trkpt lat="42.57419" lon="2.06329">
        <ele>1732.2948</ele>
        <time>2011-09-24T08:40:34Z</time>
      </trkpt>
      <trkpt lat="42.57418" lon="2.06321">
        <ele>1733.857178</ele>
        <time>2011-09-24T08:40:36Z</time>
      </trkpt>
      <trkpt lat="42.57418" lon="2.06312">
        <ele>1735.386475</ele>
        <time>2011-09-24T08:40:38Z</time>
      </trkpt>
      <trkpt lat="42.57417" lon="2.06305">
        <ele>1736.87085</ele>
        <time>2011-09-24T08:40:40Z</time>
      </trkpt>
      <trkpt lat="42.57417" lon="2.06297">
        <ele>1738.282227</ele>
        <time>2011-09-24T08:40:42Z</time>
      </trkpt>
      <trkpt lat="42.57416" lon="2.06288">
        <ele>1739.643433</ele>
        <time>2011-09-24T08:40:44Z</time>
      </trkpt>
      <trkpt lat="42.57416" lon="2.0628">
        <ele>1740.968628</ele>
        <time>2011-09-24T08:40:46Z</time>
      </trkpt>
      <trkpt lat="42.57416" lon="2.06276">
        <ele>1741.621826</ele>
        <time>2011-09-24T08:40:47Z</time>
      </trkpt>
      <trkpt lat="42.57415" lon="2.06269">
        <ele>1742.945557</ele>
        <time>2011-09-24T08:40:49Z</time>
      </trkpt>
      <trkpt lat="42.57415" lon="2.06265">
        <ele>1743.588501</ele>
        <time>2011-09-24T08:40:50Z</time>
      </trkpt>
      <trkpt lat="42.57414" lon="2.06256">
        <ele>1744.947388</ele>
        <time>2011-09-24T08:40:52Z</time>
      </trkpt>
      <trkpt lat="42.57412" lon="2.06246">
        <ele>1746.391235</ele>
        <time>2011-09-24T08:40:54Z</time>
      </trkpt>
      <trkpt lat="42.57411" lon="2.06238">
        <ele>1747.851562</ele>
        <time>2011-09-24T08:40:56Z</time>
      </trkpt>
      <trkpt lat="42.57409" lon="2.06229">
        <ele>1749.418945</ele>
        <time>2011-09-24T08:40:58Z</time>
      </trkpt>
      <trkpt lat="42.57408" lon="2.06219">
        <ele>1751.098633</ele>
        <time>2011-09-24T08:41:00Z</time>
      </trkpt>
      <trkpt lat="42.57406" lon="2.0621">
        <ele>1752.843994</ele>
        <time>2011-09-24T08:41:02Z</time>
      </trkpt>
      <trkpt lat="42.57403" lon="2.06201">
        <ele>1754.719971</ele>
        <time>2011-09-24T08:41:04Z</time>
      </trkpt>
      <trkpt lat="42.57401" lon="2.06192">
        <ele>1756.676514</ele>
        <time>2011-09-24T08:41:06Z</time>
      </trkpt>
      <trkpt lat="42.574" lon="2.06184">
        <ele>1758.783447</ele>
        <time>2011-09-24T08:41:08Z</time>
      </trkpt>
      <trkpt lat="42.574" lon="2.06176">
        <ele>1760.92688</ele>
        <time>2011-09-24T08:41:10Z</time>
      </trkpt>
      <trkpt lat="42.57399" lon="2.06171">
        <ele>1761.970093</ele>
        <time>2011-09-24T08:41:11Z</time>
      </trkpt>
      <trkpt lat="42.57399" lon="2.06161">
        <ele>1764.036255</ele>
        <time>2011-09-24T08:41:13Z</time>
      </trkpt>
      <trkpt lat="42.57398" lon="2.0615">
        <ele>1766.14978</ele>
        <time>2011-09-24T08:41:15Z</time>
      </trkpt>
      <trkpt lat="42.57397" lon="2.0614">
        <ele>1768.331421</ele>
        <time>2011-09-24T08:41:17Z</time>
      </trkpt>
      <trkpt lat="42.57396" lon="2.06131">
        <ele>1770.511353</ele>
        <time>2011-09-24T08:41:19Z</time>
      </trkpt>
      <trkpt lat="42.57394" lon="2.06122">
        <ele>1772.675537</ele>
        <time>2011-09-24T08:41:21Z</time>
      </trkpt>
      <trkpt lat="42.57392" lon="2.06114">
        <ele>1774.782959</ele>
        <time>2011-09-24T08:41:23Z</time>
      </trkpt>
      <trkpt lat="42.57391" lon="2.0611">
        <ele>1775.81543</ele>
        <time>2011-09-24T08:41:24Z</time>
      </trkpt>
      <trkpt lat="42.5739" lon="2.06103">
        <ele>1777.857056</ele>
        <time>2011-09-24T08:41:26Z</time>
      </trkpt>
      <trkpt lat="42.57389" lon="2.06095">
        <ele>1779.929688</ele>
        <time>2011-09-24T08:41:28Z</time>
      </trkpt>
      <trkpt lat="42.57388" lon="2.06088">
        <ele>1782.022705</ele>
        <time>2011-09-24T08:41:30Z</time>
      </trkpt>
      <trkpt lat="42.57388" lon="2.0608">
        <ele>1784.119873</ele>
        <time>2011-09-24T08:41:32Z</time>
      </trkpt>
      <trkpt lat="42.57386" lon="2.06071">
        <ele>1786.598389</ele>
        <time>2011-09-24T08:41:34Z</time>
      </trkpt>
      <trkpt lat="42.57386" lon="2.06067">
        <ele>1787.908569</ele>
        <time>2011-09-24T08:41:35Z</time>
      </trkpt>
      <trkpt lat="42.57385" lon="2.06058">
        <ele>1790.428101</ele>
        <time>2011-09-24T08:41:37Z</time>
      </trkpt>
      <trkpt lat="42.57383" lon="2.06049">
        <ele>1793.036499</ele>
        <time>2011-09-24T08:41:39Z</time>
      </trkpt>
      <trkpt lat="42.57382" lon="2.0604">
        <ele>1795.612305</ele>
        <time>2011-09-24T08:41:41Z</time>
      </trkpt>
      <trkpt lat="42.5738" lon="2.06031">
        <ele>1798.164307</ele>
        <time>2011-09-24T08:41:43Z</time>
      </trkpt>
      <trkpt lat="42.57379" lon="2.06023">
        <ele>1800.67981</ele>
        <time>2011-09-24T08:41:45Z</time>
      </trkpt>
      <trkpt lat="42.57378" lon="2.06015">
        <ele>1803.120972</ele>
        <time>2011-09-24T08:41:47Z</time>
      </trkpt>
      <trkpt lat="42.57377" lon="2.06007">
        <ele>1805.472046</ele>
        <time>2011-09-24T08:41:49Z</time>
      </trkpt>
      <trkpt lat="42.57377" lon="2.06">
        <ele>1807.376831</ele>
        <time>2011-09-24T08:41:51Z</time>
      </trkpt>
      <trkpt lat="42.57377" lon="2.05994">
        <ele>1809.08374</ele>
        <time>2011-09-24T08:41:53Z</time>
      </trkpt>
      <trkpt lat="42.57377" lon="2.05987">
        <ele>1810.770508</ele>
        <time>2011-09-24T08:41:55Z</time>
      </trkpt>
      <trkpt lat="42.57376" lon="2.05978">
        <ele>1813.429443</ele>
        <time>2011-09-24T08:41:57Z</time>
      </trkpt>
      <trkpt lat="42.57374" lon="2.05968">
        <ele>1816.090576</ele>
        <time>2011-09-24T08:41:59Z</time>
      </trkpt>
      <trkpt lat="42.57372" lon="2.05958">
        <ele>1818.718994</ele>
        <time>2011-09-24T08:42:01Z</time>
      </trkpt>
      <trkpt lat="42.57371" lon="2.05953">
        <ele>1820.389282</ele>
        <time>2011-09-24T08:42:02Z</time>
      </trkpt>
      <trkpt lat="42.57369" lon="2.05947">
        <ele>1822.24646</ele>
        <time>2011-09-24T08:42:03Z</time>
      </trkpt>
      <trkpt lat="42.57367" lon="2.05941">
        <ele>1824.077148</ele>
        <time>2011-09-24T08:42:04Z</time>
      </trkpt>
      <trkpt lat="42.57365" lon="2.05935">
        <ele>1825.871582</ele>
        <time>2011-09-24T08:42:05Z</time>
      </trkpt>
      <trkpt lat="42.57362" lon="2.05924">
        <ele>1829.52478</ele>
        <time>2011-09-24T08:42:07Z</time>
      </trkpt>
      <trkpt lat="42.5736" lon="2.05914">
        <ele>1833.291138</ele>
        <time>2011-09-24T08:42:09Z</time>
      </trkpt>
      <trkpt lat="42.57357" lon="2.05903">
        <ele>1837.24646</ele>
        <time>2011-09-24T08:42:11Z</time>
      </trkpt>
      <trkpt lat="42.57355" lon="2.05894">
        <ele>1841.070557</ele>
        <time>2011-09-24T08:42:13Z</time>
      </trkpt>
      <trkpt lat="42.57353" lon="2.05885">
        <ele>1845.031738</ele>
        <time>2011-09-24T08:42:15Z</time>
      </trkpt>
      <trkpt lat="42.57351" lon="2.05876">
        <ele>1849.010376</ele>
        <time>2011-09-24T08:42:17Z</time>
      </trkpt>
      <trkpt lat="42.57349" lon="2.05868">
        <ele>1852.896484</ele>
        <time>2011-09-24T08:42:19Z</time>
      </trkpt>
      <trkpt lat="42.57348" lon="2.05864">
        <ele>1854.859741</ele>
        <time>2011-09-24T08:42:20Z</time>
      </trkpt>
      <trkpt lat="42.57346" lon="2.05855">
        <ele>1858.920532</ele>
        <time>2011-09-24T08:42:22Z</time>
      </trkpt>
      <trkpt lat="42.57345" lon="2.0585">
        <ele>1861.018555</ele>
        <time>2011-09-24T08:42:23Z</time>
      </trkpt>
      <trkpt lat="42.57343" lon="2.0584">
        <ele>1865.174927</ele>
        <time>2011-09-24T08:42:25Z</time>
      </trkpt>
      <trkpt lat="42.57341" lon="2.05831">
        <ele>1869.398926</ele>
        <time>2011-09-24T08:42:27Z</time>
      </trkpt>
      <trkpt lat="42.5734" lon="2.05822">
        <ele>1873.591431</ele>
        <time>2011-09-24T08:42:29Z</time>
      </trkpt>
      <trkpt lat="42.57339" lon="2.05812">
        <ele>1877.871704</ele>
        <time>2011-09-24T08:42:31Z</time>
      </trkpt>
      <trkpt lat="42.57338" lon="2.05803">
        <ele>1882.053711</ele>
        <time>2011-09-24T08:42:33Z</time>
      </trkpt>
      <trkpt lat="42.57338" lon="2.05794">
        <ele>1886.133423</ele>
        <time>2011-09-24T08:42:35Z</time>
      </trkpt>
      <trkpt lat="42.57337" lon="2.05785">
        <ele>1890.244263</ele>
        <time>2011-09-24T08:42:37Z</time>
      </trkpt>
      <trkpt lat="42.57335" lon="2.05777">
        <ele>1894.257812</ele>
        <time>2011-09-24T08:42:39Z</time>
      </trkpt>
      <trkpt lat="42.57334" lon="2.0577">
        <ele>1898.131836</ele>
        <time>2011-09-24T08:42:41Z</time>
      </trkpt>
      <trkpt lat="42.57333" lon="2.05762">
        <ele>1901.895508</ele>
        <time>2011-09-24T08:42:43Z</time>
      </trkpt>
      <trkpt lat="42.57333" lon="2.05754">
        <ele>1905.525879</ele>
        <time>2011-09-24T08:42:45Z</time>
      </trkpt>
      <trkpt lat="42.57333" lon="2.05747">
        <ele>1908.94043</ele>
        <time>2011-09-24T08:42:47Z</time>
      </trkpt>
      <trkpt lat="42.57332" lon="2.05739">
        <ele>1912.640015</ele>
        <time>2011-09-24T08:42:49Z</time>
      </trkpt>
      <trkpt lat="42.5733" lon="2.05728">
        <ele>1916.480469</ele>
        <time>2011-09-24T08:42:51Z</time>
      </trkpt>
      <trkpt lat="42.5733" lon="2.05717">
        <ele>1920.477905</ele>
        <time>2011-09-24T08:42:53Z</time>
      </trkpt>
      <trkpt lat="42.57328" lon="2.05706">
        <ele>1924.408936</ele>
        <time>2011-09-24T08:42:55Z</time>
      </trkpt>
      <trkpt lat="42.57327" lon="2.05697">
        <ele>1928.162598</ele>
        <time>2011-09-24T08:42:57Z</time>
      </trkpt>
      <trkpt lat="42.57326" lon="2.05687">
        <ele>1931.817871</ele>
        <time>2011-09-24T08:42:59Z</time>
      </trkpt>
      <trkpt lat="42.57326" lon="2.05678">
        <ele>1935.30127</ele>
        <time>2011-09-24T08:43:01Z</time>
      </trkpt>
      <trkpt lat="42.57326" lon="2.0567">
        <ele>1938.618164</ele>
        <time>2011-09-24T08:43:03Z</time>
      </trkpt>
      <trkpt lat="42.57326" lon="2.05663">
        <ele>1941.861816</ele>
        <time>2011-09-24T08:43:05Z</time>
      </trkpt>
      <trkpt lat="42.57325" lon="2.05659">
        <ele>1943.477295</ele>
        <time>2011-09-24T08:43:06Z</time>
      </trkpt>
      <trkpt lat="42.57326" lon="2.0565">
        <ele>1946.67395</ele>
        <time>2011-09-24T08:43:08Z</time>
      </trkpt>
      <trkpt lat="42.57326" lon="2.05642">
        <ele>1949.861206</ele>
        <time>2011-09-24T08:43:10Z</time>
      </trkpt>
      <trkpt lat="42.57324" lon="2.05634">
        <ele>1953.100586</ele>
        <time>2011-09-24T08:43:12Z</time>
      </trkpt>
      <trkpt lat="42.57322" lon="2.05627">
        <ele>1956.239624</ele>
        <time>2011-09-24T08:43:14Z</time>
      </trkpt>
      <trkpt lat="42.5732" lon="2.05618">
        <ele>1959.347534</ele>
        <time>2011-09-24T08:43:16Z</time>
      </trkpt>
      <trkpt lat="42.57318" lon="2.05611">
        <ele>1962.391235</ele>
        <time>2011-09-24T08:43:18Z</time>
      </trkpt>
      <trkpt lat="42.57317" lon="2.05602">
        <ele>1965.378906</ele>
        <time>2011-09-24T08:43:20Z</time>
      </trkpt>
      <trkpt lat="42.57317" lon="2.05598">
        <ele>1966.673706</ele>
        <time>2011-09-24T08:43:21Z</time>
      </trkpt>
      <trkpt lat="42.57317" lon="2.05591">
        <ele>1969.213135</ele>
        <time>2011-09-24T08:43:23Z</time>
      </trkpt>
      <trkpt lat="42.57317" lon="2.05584">
        <ele>1971.682617</ele>
        <time>2011-09-24T08:43:25Z</time>
      </trkpt>
      <trkpt lat="42.57315" lon="2.05576">
        <ele>1974.431641</ele>
        <time>2011-09-24T08:43:27Z</time>
      </trkpt>
      <trkpt lat="42.57315" lon="2.05572">
        <ele>1975.772095</ele>
        <time>2011-09-24T08:43:28Z</time>
      </trkpt>
      <trkpt lat="42.57314" lon="2.05563">
        <ele>1978.640259</ele>
        <time>2011-09-24T08:43:30Z</time>
      </trkpt>
      <trkpt lat="42.57313" lon="2.05555">
        <ele>1981.334595</ele>
        <time>2011-09-24T08:43:32Z</time>
      </trkpt>
      <trkpt lat="42.57311" lon="2.05548">
        <ele>1984.144043</ele>
        <time>2011-09-24T08:43:34Z</time>
      </trkpt>
      <trkpt lat="42.57308" lon="2.05541">
        <ele>1986.921265</ele>
        <time>2011-09-24T08:43:36Z</time>
      </trkpt>
      <trkpt lat="42.57306" lon="2.05537">
        <ele>1988.345703</ele>
        <time>2011-09-24T08:43:37Z</time>
      </trkpt>
      <trkpt lat="42.57304" lon="2.0553">
        <ele>1990.857178</ele>
        <time>2011-09-24T08:43:39Z</time>
      </trkpt>
      <trkpt lat="42.57302" lon="2.05522">
        <ele>1993.368774</ele>
        <time>2011-09-24T08:43:41Z</time>
      </trkpt>
      <trkpt lat="42.573" lon="2.05514">
        <ele>1996.020386</ele>
        <time>2011-09-24T08:43:43Z</time>
      </trkpt>
      <trkpt lat="42.573" lon="2.05509">
        <ele>1997.31958</ele>
        <time>2011-09-24T08:43:44Z</time>
      </trkpt>
      <trkpt lat="42.57297" lon="2.05499">
        <ele>1999.870728</ele>
        <time>2011-09-24T08:43:46Z</time>
      </trkpt>
      <trkpt lat="42.57295" lon="2.05489">
        <ele>2002.329712</ele>
        <time>2011-09-24T08:43:48Z</time>
      </trkpt>
      <trkpt lat="42.57293" lon="2.0548">
        <ele>2004.675171</ele>
        <time>2011-09-24T08:43:50Z</time>
      </trkpt>
      <trkpt lat="42.57292" lon="2.05476">
        <ele>2005.815063</ele>
        <time>2011-09-24T08:43:51Z</time>
      </trkpt>
      <trkpt lat="42.57291" lon="2.05467">
        <ele>2008.055054</ele>
        <time>2011-09-24T08:43:53Z</time>
      </trkpt>
      <trkpt lat="42.5729" lon="2.05457">
        <ele>2010.336304</ele>
        <time>2011-09-24T08:43:55Z</time>
      </trkpt>
      <trkpt lat="42.57288" lon="2.05446">
        <ele>2012.582886</ele>
        <time>2011-09-24T08:43:57Z</time>
      </trkpt>
      <trkpt lat="42.57286" lon="2.05436">
        <ele>2014.784058</ele>
        <time>2011-09-24T08:43:59Z</time>
      </trkpt>
      <trkpt lat="42.57284" lon="2.05424">
        <ele>2017.209351</ele>
        <time>2011-09-24T08:44:01Z</time>
      </trkpt>
      <trkpt lat="42.57282" lon="2.05415">
        <ele>2019.520142</ele>
        <time>2011-09-24T08:44:03Z</time>
      </trkpt>
      <trkpt lat="42.5728" lon="2.05406">
        <ele>2021.71814</ele>
        <time>2011-09-24T08:44:05Z</time>
      </trkpt>
      <trkpt lat="42.57279" lon="2.05397">
        <ele>2023.883179</ele>
        <time>2011-09-24T08:44:07Z</time>
      </trkpt>
      <trkpt lat="42.57277" lon="2.05388">
        <ele>2026.061646</ele>
        <time>2011-09-24T08:44:09Z</time>
      </trkpt>
      <trkpt lat="42.57273" lon="2.05379">
        <ele>2028.589233</ele>
        <time>2011-09-24T08:44:11Z</time>
      </trkpt>
      <trkpt lat="42.5727" lon="2.05373">
        <ele>2031.068237</ele>
        <time>2011-09-24T08:44:13Z</time>
      </trkpt>
      <trkpt lat="42.57269" lon="2.05366">
        <ele>2033.696655</ele>
        <time>2011-09-24T08:44:16Z</time>
      </trkpt>
      <trkpt lat="42.57269" lon="2.05359">
        <ele>2037.401245</ele>
        <time>2011-09-24T08:44:21Z</time>
      </trkpt>
      <trkpt lat="42.57269" lon="2.05359">
        <ele>2038.110229</ele>
        <time>2011-09-24T08:44:22Z</time>
      </trkpt>
      <trkpt lat="42.57272" lon="2.05353">
        <ele>2039.103638</ele>
        <time>2011-09-24T08:44:24Z</time>
      </trkpt>
      <trkpt lat="42.57274" lon="2.05347">
        <ele>2039.730835</ele>
        <time>2011-09-24T08:44:29Z</time>
      </trkpt>
      <trkpt lat="42.57274" lon="2.0534">
        <ele>2040.006958</ele>
        <time>2011-09-24T08:44:35Z</time>
      </trkpt>
      <trkpt lat="42.57272" lon="2.05334">
        <ele>2040.175903</ele>
        <time>2011-09-24T08:44:37Z</time>
      </trkpt>
      <trkpt lat="42.57269" lon="2.05329">
        <ele>2040.433472</ele>
        <time>2011-09-24T08:44:40Z</time>
      </trkpt>
      <trkpt lat="42.57269" lon="2.05329">
        <ele>2040.515259</ele>
        <time>2011-09-24T08:44:41Z</time>
      </trkpt>
      <trkpt lat="42.57266" lon="2.05324">
        <ele>2042.488647</ele>
        <time>2011-09-24T08:44:47Z</time>
      </trkpt>
      <trkpt lat="42.57263" lon="2.05319">
        <ele>2046.764038</ele>
        <time>2011-09-24T08:44:52Z</time>
      </trkpt>
      <trkpt lat="42.57264" lon="2.05306">
        <ele>2050.148438</ele>
        <time>2011-09-24T08:44:58Z</time>
      </trkpt>
      <trkpt lat="42.57269" lon="2.05308">
        <ele>2052.924805</ele>
        <time>2011-09-24T08:45:10Z</time>
      </trkpt>
      <trkpt lat="42.57272" lon="2.05303">
        <ele>2058.403076</ele>
        <time>2011-09-24T08:45:34Z</time>
      </trkpt>
      <trkpt lat="42.57276" lon="2.05297">
        <ele>2074.477783</ele>
        <time>2011-09-24T08:45:36Z</time>
      </trkpt>
      <trkpt lat="42.57283" lon="2.05287">
        <ele>2084.649414</ele>
        <time>2011-09-24T08:45:38Z</time>
      </trkpt>
      <trkpt lat="42.57286" lon="2.05282">
        <ele>2088.184326</ele>
        <time>2011-09-24T08:45:39Z</time>
      </trkpt>
      <trkpt lat="42.57291" lon="2.05277">
        <ele>2091.231934</ele>
        <time>2011-09-24T08:45:41Z</time>
      </trkpt>
      <trkpt lat="42.57297" lon="2.05277">
        <ele>2093.274902</ele>
        <time>2011-09-24T08:45:43Z</time>
      </trkpt>
      <trkpt lat="42.57305" lon="2.05278">
        <ele>2095.866943</ele>
        <time>2011-09-24T08:45:45Z</time>
      </trkpt>
      <trkpt lat="42.57309" lon="2.05282">
        <ele>2097.002686</ele>
        <time>2011-09-24T08:45:46Z</time>
      </trkpt>
      <trkpt lat="42.57312" lon="2.05288">
        <ele>2097.755859</ele>
        <time>2011-09-24T08:45:47Z</time>
      </trkpt>
      <trkpt lat="42.57315" lon="2.05295">
        <ele>2098.453125</ele>
        <time>2011-09-24T08:45:48Z</time>
      </trkpt>
      <trkpt lat="42.57322" lon="2.0531">
        <ele>2099.040771</ele>
        <time>2011-09-24T08:45:49Z</time>
      </trkpt>
      <trkpt lat="42.57327" lon="2.0531">
        <ele>2099.568604</ele>
        <time>2011-09-24T08:45:50Z</time>
      </trkpt>
      <trkpt lat="42.57331" lon="2.05306">
        <ele>2100.099854</ele>
        <time>2011-09-24T08:45:51Z</time>
      </trkpt>
      <trkpt lat="42.57335" lon="2.05306">
        <ele>2100.577881</ele>
        <time>2011-09-24T08:45:52Z</time>
      </trkpt>
      <trkpt lat="42.57341" lon="2.05308">
        <ele>2100.973145</ele>
        <time>2011-09-24T08:45:53Z</time>
      </trkpt>
      <trkpt lat="42.57348" lon="2.0531">
        <ele>2101.106689</ele>
        <time>2011-09-24T08:45:54Z</time>
      </trkpt>
      <trkpt lat="42.57356" lon="2.05307">
        <ele>2101.029053</ele>
        <time>2011-09-24T08:45:55Z</time>
      </trkpt>
      <trkpt lat="42.57364" lon="2.05305">
        <ele>2100.812988</ele>
        <time>2011-09-24T08:45:56Z</time>
      </trkpt>
      <trkpt lat="42.57373" lon="2.05302">
        <ele>2100.487549</ele>
        <time>2011-09-24T08:45:57Z</time>
      </trkpt>
      <trkpt lat="42.57381" lon="2.053">
        <ele>2100.121094</ele>
        <time>2011-09-24T08:45:58Z</time>
      </trkpt>
      <trkpt lat="42.5739" lon="2.05296">
        <ele>2099.684082</ele>
        <time>2011-09-24T08:45:59Z</time>
      </trkpt>
      <trkpt lat="42.57397" lon="2.05296">
        <ele>2099.207031</ele>
        <time>2011-09-24T08:46:00Z</time>
      </trkpt>
      <trkpt lat="42.57402" lon="2.05297">
        <ele>2098.791992</ele>
        <time>2011-09-24T08:46:01Z</time>
      </trkpt>
      <trkpt lat="42.57408" lon="2.05299">
        <ele>2098.45874</ele>
        <time>2011-09-24T08:46:02Z</time>
      </trkpt>
      <trkpt lat="42.57414" lon="2.053">
        <ele>2098.095703</ele>
        <time>2011-09-24T08:46:03Z</time>
      </trkpt>
      <trkpt lat="42.5742" lon="2.05299">
        <ele>2097.717041</ele>
        <time>2011-09-24T08:46:04Z</time>
      </trkpt>
      <trkpt lat="42.57424" lon="2.05301">
        <ele>2097.480469</ele>
        <time>2011-09-24T08:46:05Z</time>
      </trkpt>
      <trkpt lat="42.5743" lon="2.05304">
        <ele>2097.371582</ele>
        <time>2011-09-24T08:46:06Z</time>
      </trkpt>
      <trkpt lat="42.57436" lon="2.05306">
        <ele>2097.163086</ele>
        <time>2011-09-24T08:46:07Z</time>
      </trkpt>
      <trkpt lat="42.57443" lon="2.05307">
        <ele>2096.972168</ele>
        <time>2011-09-24T08:46:08Z</time>
      </trkpt>
      <trkpt lat="42.57449" lon="2.05309">
        <ele>2096.861572</ele>
        <time>2011-09-24T08:46:09Z</time>
      </trkpt>
      <trkpt lat="42.57453" lon="2.05313">
        <ele>2096.776123</ele>
        <time>2011-09-24T08:46:10Z</time>
      </trkpt>
      <trkpt lat="42.57456" lon="2.05322">
        <ele>2096.615234</ele>
        <time>2011-09-24T08:46:12Z</time>
      </trkpt>
      <trkpt lat="42.57456" lon="2.05331">
        <ele>2096.510742</ele>
        <time>2011-09-24T08:46:16Z</time>
      </trkpt>
      <trkpt lat="42.57461" lon="2.05335">
        <ele>2096.335449</ele>
        <time>2011-09-24T08:46:22Z</time>
      </trkpt>
      <trkpt lat="42.57469" lon="2.05336">
        <ele>2095.665039</ele>
        <time>2011-09-24T08:46:24Z</time>
      </trkpt>
      <trkpt lat="42.57474" lon="2.05337">
        <ele>2095.443115</ele>
        <time>2011-09-24T08:46:25Z</time>
      </trkpt>
      <trkpt lat="42.57479" lon="2.0534">
        <ele>2095.296631</ele>
        <time>2011-09-24T08:46:26Z</time>
      </trkpt>
      <trkpt lat="42.57484" lon="2.05343">
        <ele>2094.9375</ele>
        <time>2011-09-24T08:46:27Z</time>
      </trkpt>
      <trkpt lat="42.57491" lon="2.05349">
        <ele>2094.208984</ele>
        <time>2011-09-24T08:46:28Z</time>
      </trkpt>
      <trkpt lat="42.57497" lon="2.05354">
        <ele>2093.292725</ele>
        <time>2011-09-24T08:46:29Z</time>
      </trkpt>
      <trkpt lat="42.57504" lon="2.0536">
        <ele>2092.194336</ele>
        <time>2011-09-24T08:46:30Z</time>
      </trkpt>
      <trkpt lat="42.57511" lon="2.05365">
        <ele>2091.042725</ele>
        <time>2011-09-24T08:46:31Z</time>
      </trkpt>
      <trkpt lat="42.57515" lon="2.0537">
        <ele>2089.988037</ele>
        <time>2011-09-24T08:46:32Z</time>
      </trkpt>
      <trkpt lat="42.57517" lon="2.05375">
        <ele>2089.009033</ele>
        <time>2011-09-24T08:46:33Z</time>
      </trkpt>
      <trkpt lat="42.5752" lon="2.05382">
        <ele>2088.790527</ele>
        <time>2011-09-24T08:46:35Z</time>
      </trkpt>
      <trkpt lat="42.57526" lon="2.05385">
        <ele>2086.573975</ele>
        <time>2011-09-24T08:47:06Z</time>
      </trkpt>
      <trkpt lat="42.57535" lon="2.05387">
        <ele>2081.833496</ele>
        <time>2011-09-24T08:47:08Z</time>
      </trkpt>
      <trkpt lat="42.57541" lon="2.05389">
        <ele>2078.428467</ele>
        <time>2011-09-24T08:47:09Z</time>
      </trkpt>
      <trkpt lat="42.57545" lon="2.05395">
        <ele>2075.811035</ele>
        <time>2011-09-24T08:47:10Z</time>
      </trkpt>
      <trkpt lat="42.57551" lon="2.054">
        <ele>2073.801514</ele>
        <time>2011-09-24T08:47:11Z</time>
      </trkpt>
      <trkpt lat="42.57559" lon="2.05404">
        <ele>2072.182373</ele>
        <time>2011-09-24T08:47:12Z</time>
      </trkpt>
      <trkpt lat="42.57566" lon="2.05406">
        <ele>2070.867676</ele>
        <time>2011-09-24T08:47:13Z</time>
      </trkpt>
      <trkpt lat="42.57573" lon="2.05408">
        <ele>2069.530518</ele>
        <time>2011-09-24T08:47:14Z</time>
      </trkpt>
      <trkpt lat="42.57581" lon="2.0541">
        <ele>2068.492432</ele>
        <time>2011-09-24T08:47:15Z</time>
      </trkpt>
      <trkpt lat="42.5759" lon="2.05411">
        <ele>2067.633057</ele>
        <time>2011-09-24T08:47:16Z</time>
      </trkpt>
      <trkpt lat="42.57598" lon="2.0541">
        <ele>2066.786377</ele>
        <time>2011-09-24T08:47:17Z</time>
      </trkpt>
      <trkpt lat="42.57606" lon="2.05408">
        <ele>2065.821289</ele>
        <time>2011-09-24T08:47:18Z</time>
      </trkpt>
      <trkpt lat="42.57615" lon="2.05405">
        <ele>2064.759277</ele>
        <time>2011-09-24T08:47:19Z</time>
      </trkpt>
      <trkpt lat="42.57623" lon="2.05403">
        <ele>2063.668701</ele>
        <time>2011-09-24T08:47:20Z</time>
      </trkpt>
      <trkpt lat="42.57632" lon="2.05401">
        <ele>2062.404541</ele>
        <time>2011-09-24T08:47:21Z</time>
      </trkpt>
      <trkpt lat="42.57638" lon="2.05399">
        <ele>2061.125977</ele>
        <time>2011-09-24T08:47:22Z</time>
      </trkpt>
      <trkpt lat="42.57645" lon="2.05397">
        <ele>2059.926025</ele>
        <time>2011-09-24T08:47:23Z</time>
      </trkpt>
      <trkpt lat="42.57649" lon="2.05401">
        <ele>2059.245361</ele>
        <time>2011-09-24T08:47:25Z</time>
      </trkpt>
      <trkpt lat="42.57651" lon="2.0541">
        <ele>2058.821289</ele>
        <time>2011-09-24T08:47:28Z</time>
      </trkpt>
      <trkpt lat="42.57658" lon="2.05425">
        <ele>2057.121582</ele>
        <time>2011-09-24T08:47:31Z</time>
      </trkpt>
      <trkpt lat="42.5766" lon="2.05433">
        <ele>2054.766602</ele>
        <time>2011-09-24T08:47:32Z</time>
      </trkpt>
      <trkpt lat="42.57663" lon="2.0544">
        <ele>2052.123779</ele>
        <time>2011-09-24T08:47:33Z</time>
      </trkpt>
      <trkpt lat="42.57668" lon="2.05443">
        <ele>2049.615723</ele>
        <time>2011-09-24T08:47:34Z</time>
      </trkpt>
      <trkpt lat="42.57674" lon="2.05445">
        <ele>2047.229858</ele>
        <time>2011-09-24T08:47:35Z</time>
      </trkpt>
      <trkpt lat="42.5768" lon="2.05446">
        <ele>2044.971313</ele>
        <time>2011-09-24T08:47:36Z</time>
      </trkpt>
      <trkpt lat="42.57686" lon="2.05446">
        <ele>2043.014526</ele>
        <time>2011-09-24T08:47:37Z</time>
      </trkpt>
      <trkpt lat="42.57691" lon="2.05445">
        <ele>2041.360718</ele>
        <time>2011-09-24T08:47:38Z</time>
      </trkpt>
      <trkpt lat="42.57695" lon="2.05443">
        <ele>2039.88562</ele>
        <time>2011-09-24T08:47:39Z</time>
      </trkpt>
      <trkpt lat="42.577" lon="2.05441">
        <ele>2038.525513</ele>
        <time>2011-09-24T08:47:40Z</time>
      </trkpt>
      <trkpt lat="42.57708" lon="2.05438">
        <ele>2036.223022</ele>
        <time>2011-09-24T08:47:42Z</time>
      </trkpt>
      <trkpt lat="42.57717" lon="2.05435">
        <ele>2034.485962</ele>
        <time>2011-09-24T08:47:44Z</time>
      </trkpt>
      <trkpt lat="42.57725" lon="2.05434">
        <ele>2033.05188</ele>
        <time>2011-09-24T08:47:46Z</time>
      </trkpt>
      <trkpt lat="42.57734" lon="2.05433">
        <ele>2032.455933</ele>
        <time>2011-09-24T08:47:48Z</time>
      </trkpt>
      <trkpt lat="42.57742" lon="2.0543">
        <ele>2031.634644</ele>
        <time>2011-09-24T08:47:50Z</time>
      </trkpt>
      <trkpt lat="42.57749" lon="2.05426">
        <ele>2031.152222</ele>
        <time>2011-09-24T08:47:52Z</time>
      </trkpt>
      <trkpt lat="42.57754" lon="2.05417">
        <ele>2030.92981</ele>
        <time>2011-09-24T08:47:54Z</time>
      </trkpt>
      <trkpt lat="42.57755" lon="2.05411">
        <ele>2030.908813</ele>
        <time>2011-09-24T08:47:55Z</time>
      </trkpt>
      <trkpt lat="42.57755" lon="2.054">
        <ele>2030.884888</ele>
        <time>2011-09-24T08:47:57Z</time>
      </trkpt>
      <trkpt lat="42.57755" lon="2.0539">
        <ele>2030.842407</ele>
        <time>2011-09-24T08:47:59Z</time>
      </trkpt>
      <trkpt lat="42.57754" lon="2.0538">
        <ele>2030.869019</ele>
        <time>2011-09-24T08:48:01Z</time>
      </trkpt>
      <trkpt lat="42.57752" lon="2.0537">
        <ele>2031.190308</ele>
        <time>2011-09-24T08:48:03Z</time>
      </trkpt>
      <trkpt lat="42.57756" lon="2.05362">
        <ele>2031.59021</ele>
        <time>2011-09-24T08:48:05Z</time>
      </trkpt>
      <trkpt lat="42.57766" lon="2.0536">
        <ele>2031.719604</ele>
        <time>2011-09-24T08:48:07Z</time>
      </trkpt>
      <trkpt lat="42.57772" lon="2.05361">
        <ele>2031.334839</ele>
        <time>2011-09-24T08:48:08Z</time>
      </trkpt>
      <trkpt lat="42.57779" lon="2.05362">
        <ele>2030.925659</ele>
        <time>2011-09-24T08:48:09Z</time>
      </trkpt>
      <trkpt lat="42.57785" lon="2.05363">
        <ele>2030.505981</ele>
        <time>2011-09-24T08:48:10Z</time>
      </trkpt>
      <trkpt lat="42.57792" lon="2.05364">
        <ele>2030.046753</ele>
        <time>2011-09-24T08:48:11Z</time>
      </trkpt>
      <trkpt lat="42.57797" lon="2.05368">
        <ele>2029.595093</ele>
        <time>2011-09-24T08:48:12Z</time>
      </trkpt>
      <trkpt lat="42.578" lon="2.05372">
        <ele>2029.153198</ele>
        <time>2011-09-24T08:48:13Z</time>
      </trkpt>
      <trkpt lat="42.57803" lon="2.05378">
        <ele>2028.717896</ele>
        <time>2011-09-24T08:48:14Z</time>
      </trkpt>
      <trkpt lat="42.57805" lon="2.05384">
        <ele>2028.197632</ele>
        <time>2011-09-24T08:48:15Z</time>
      </trkpt>
      <trkpt lat="42.57809" lon="2.05388">
        <ele>2027.646606</ele>
        <time>2011-09-24T08:48:16Z</time>
      </trkpt>
      <trkpt lat="42.57814" lon="2.0539">
        <ele>2027.398804</ele>
        <time>2011-09-24T08:48:17Z</time>
      </trkpt>
      <trkpt lat="42.57819" lon="2.05393">
        <ele>2027.007935</ele>
        <time>2011-09-24T08:48:18Z</time>
      </trkpt>
      <trkpt lat="42.57823" lon="2.05397">
        <ele>2026.622925</ele>
        <time>2011-09-24T08:48:19Z</time>
      </trkpt>
      <trkpt lat="42.57828" lon="2.05403">
        <ele>2026.579712</ele>
        <time>2011-09-24T08:48:21Z</time>
      </trkpt>
      <trkpt lat="42.57836" lon="2.054">
        <ele>2026.60437</ele>
        <time>2011-09-24T08:48:23Z</time>
      </trkpt>
      <trkpt lat="42.57841" lon="2.05405">
        <ele>2026.592651</ele>
        <time>2011-09-24T08:48:24Z</time>
      </trkpt>
      <trkpt lat="42.57848" lon="2.0541">
        <ele>2026.358521</ele>
        <time>2011-09-24T08:48:25Z</time>
      </trkpt>
      <trkpt lat="42.57855" lon="2.05418">
        <ele>2026.098022</ele>
        <time>2011-09-24T08:48:26Z</time>
      </trkpt>
      <trkpt lat="42.57861" lon="2.05424">
        <ele>2025.863159</ele>
        <time>2011-09-24T08:48:27Z</time>
      </trkpt>
      <trkpt lat="42.57868" lon="2.0543">
        <ele>2025.53479</ele>
        <time>2011-09-24T08:48:28Z</time>
      </trkpt>
      <trkpt lat="42.57876" lon="2.05436">
        <ele>2025.037964</ele>
        <time>2011-09-24T08:48:29Z</time>
      </trkpt>
      <trkpt lat="42.57885" lon="2.05441">
        <ele>2024.339478</ele>
        <time>2011-09-24T08:48:30Z</time>
      </trkpt>
      <trkpt lat="42.57895" lon="2.05446">
        <ele>2023.539917</ele>
        <time>2011-09-24T08:48:31Z</time>
      </trkpt>
      <trkpt lat="42.57904" lon="2.05451">
        <ele>2022.698608</ele>
        <time>2011-09-24T08:48:32Z</time>
      </trkpt>
      <trkpt lat="42.57912" lon="2.05455">
        <ele>2021.79187</ele>
        <time>2011-09-24T08:48:33Z</time>
      </trkpt>
      <trkpt lat="42.5792" lon="2.05465">
        <ele>2020.808228</ele>
        <time>2011-09-24T08:48:34Z</time>
      </trkpt>
      <trkpt lat="42.57927" lon="2.05473">
        <ele>2019.781616</ele>
        <time>2011-09-24T08:48:35Z</time>
      </trkpt>
      <trkpt lat="42.57935" lon="2.0548">
        <ele>2018.891479</ele>
        <time>2011-09-24T08:48:36Z</time>
      </trkpt>
      <trkpt lat="42.57942" lon="2.05483">
        <ele>2018.23938</ele>
        <time>2011-09-24T08:48:37Z</time>
      </trkpt>
      <trkpt lat="42.5795" lon="2.05482">
        <ele>2017.610962</ele>
        <time>2011-09-24T08:48:38Z</time>
      </trkpt>
      <trkpt lat="42.57954" lon="2.05482">
        <ele>2017.064331</ele>
        <time>2011-09-24T08:48:39Z</time>
      </trkpt>
      <trkpt lat="42.57963" lon="2.05484">
        <ele>2016.474976</ele>
        <time>2011-09-24T08:48:41Z</time>
      </trkpt>
      <trkpt lat="42.57964" lon="2.05494">
        <ele>2016.447632</ele>
        <time>2011-09-24T08:48:43Z</time>
      </trkpt>
      <trkpt lat="42.57968" lon="2.055">
        <ele>2016.377319</ele>
        <time>2011-09-24T08:48:45Z</time>
      </trkpt>
      <trkpt lat="42.5797" lon="2.05507">
        <ele>2016.278931</ele>
        <time>2011-09-24T08:48:47Z</time>
      </trkpt>
      <trkpt lat="42.57969" lon="2.05514">
        <ele>2015.590454</ele>
        <time>2011-09-24T08:48:48Z</time>
      </trkpt>
      <trkpt lat="42.57968" lon="2.05521">
        <ele>2015.122681</ele>
        <time>2011-09-24T08:48:49Z</time>
      </trkpt>
      <trkpt lat="42.57967" lon="2.05527">
        <ele>2014.579224</ele>
        <time>2011-09-24T08:48:50Z</time>
      </trkpt>
      <trkpt lat="42.5797" lon="2.05536">
        <ele>2014.269409</ele>
        <time>2011-09-24T08:48:52Z</time>
      </trkpt>
      <trkpt lat="42.57973" lon="2.05543">
        <ele>2014.085571</ele>
        <time>2011-09-24T08:48:53Z</time>
      </trkpt>
      <trkpt lat="42.57973" lon="2.05553">
        <ele>2013.821411</ele>
        <time>2011-09-24T08:48:54Z</time>
      </trkpt>
      <trkpt lat="42.57976" lon="2.05562">
        <ele>2013.546265</ele>
        <time>2011-09-24T08:48:55Z</time>
      </trkpt>
      <trkpt lat="42.57978" lon="2.05573">
        <ele>2013.546265</ele>
        <time>2011-09-24T08:48:56Z</time>
      </trkpt>
      <trkpt lat="42.5798" lon="2.0558">
        <ele>2013.100464</ele>
        <time>2011-09-24T08:48:57Z</time>
      </trkpt>
      <trkpt lat="42.57983" lon="2.05587">
        <ele>2011.935669</ele>
        <time>2011-09-24T08:48:58Z</time>
      </trkpt>
      <trkpt lat="42.57987" lon="2.05593">
        <ele>2010.474243</ele>
        <time>2011-09-24T08:48:59Z</time>
      </trkpt>
      <trkpt lat="42.57988" lon="2.05602">
        <ele>2010.184204</ele>
        <time>2011-09-24T08:49:01Z</time>
      </trkpt>
      <trkpt lat="42.57992" lon="2.0561">
        <ele>2008.059692</ele>
        <time>2011-09-24T08:49:03Z</time>
      </trkpt>
      <trkpt lat="42.57997" lon="2.05612">
        <ele>2006.606812</ele>
        <time>2011-09-24T08:49:04Z</time>
      </trkpt>
      <trkpt lat="42.58002" lon="2.05614">
        <ele>2005.213257</ele>
        <time>2011-09-24T08:49:05Z</time>
      </trkpt>
      <trkpt lat="42.58007" lon="2.05619">
        <ele>2003.829956</ele>
        <time>2011-09-24T08:49:06Z</time>
      </trkpt>
      <trkpt lat="42.58011" lon="2.05625">
        <ele>2002.165649</ele>
        <time>2011-09-24T08:49:07Z</time>
      </trkpt>
      <trkpt lat="42.58012" lon="2.05631">
        <ele>2000.341187</ele>
        <time>2011-09-24T08:49:08Z</time>
      </trkpt>
      <trkpt lat="42.58015" lon="2.05637">
        <ele>1998.76062</ele>
        <time>2011-09-24T08:49:09Z</time>
      </trkpt>
      <trkpt lat="42.58018" lon="2.05643">
        <ele>1997.343384</ele>
        <time>2011-09-24T08:49:10Z</time>
      </trkpt>
      <trkpt lat="42.58023" lon="2.05648">
        <ele>1996.094116</ele>
        <time>2011-09-24T08:49:11Z</time>
      </trkpt>
      <trkpt lat="42.58026" lon="2.05655">
        <ele>1994.698853</ele>
        <time>2011-09-24T08:49:12Z</time>
      </trkpt>
      <trkpt lat="42.58028" lon="2.05662">
        <ele>1993.016357</ele>
        <time>2011-09-24T08:49:13Z</time>
      </trkpt>
      <trkpt lat="42.58032" lon="2.05669">
        <ele>1991.369263</ele>
        <time>2011-09-24T08:49:14Z</time>
      </trkpt>
      <trkpt lat="42.58038" lon="2.05677">
        <ele>1989.826416</ele>
        <time>2011-09-24T08:49:15Z</time>
      </trkpt>
      <trkpt lat="42.58043" lon="2.05686">
        <ele>1988.094849</ele>
        <time>2011-09-24T08:49:16Z</time>
      </trkpt>
      <trkpt lat="42.58049" lon="2.05696">
        <ele>1986.263184</ele>
        <time>2011-09-24T08:49:17Z</time>
      </trkpt>
      <trkpt lat="42.58056" lon="2.05707">
        <ele>1984.464233</ele>
        <time>2011-09-24T08:49:18Z</time>
      </trkpt>
      <trkpt lat="42.58061" lon="2.05718">
        <ele>1982.855103</ele>
        <time>2011-09-24T08:49:19Z</time>
      </trkpt>
      <trkpt lat="42.58067" lon="2.05726">
        <ele>1981.485229</ele>
        <time>2011-09-24T08:49:20Z</time>
      </trkpt>
      <trkpt lat="42.58071" lon="2.05733">
        <ele>1980.400024</ele>
        <time>2011-09-24T08:49:21Z</time>
      </trkpt>
      <trkpt lat="42.58074" lon="2.05741">
        <ele>1979.3479</ele>
        <time>2011-09-24T08:49:22Z</time>
      </trkpt>
      <trkpt lat="42.58076" lon="2.05747">
        <ele>1978.467407</ele>
        <time>2011-09-24T08:49:23Z</time>
      </trkpt>
      <trkpt lat="42.5808" lon="2.05757">
        <ele>1978.293579</ele>
        <time>2011-09-24T08:49:25Z</time>
      </trkpt>
      <trkpt lat="42.58082" lon="2.05763">
        <ele>1977.504761</ele>
        <time>2011-09-24T08:49:26Z</time>
      </trkpt>
      <trkpt lat="42.58084" lon="2.05771">
        <ele>1977.267578</ele>
        <time>2011-09-24T08:49:27Z</time>
      </trkpt>
      <trkpt lat="42.58086" lon="2.05779">
        <ele>1976.526489</ele>
        <time>2011-09-24T08:49:28Z</time>
      </trkpt>
      <trkpt lat="42.58086" lon="2.05788">
        <ele>1975.440186</ele>
        <time>2011-09-24T08:49:29Z</time>
      </trkpt>
      <trkpt lat="42.58087" lon="2.05796">
        <ele>1973.43396</ele>
        <time>2011-09-24T08:49:30Z</time>
      </trkpt>
      <trkpt lat="42.58091" lon="2.05805">
        <ele>1972.371704</ele>
        <time>2011-09-24T08:49:31Z</time>
      </trkpt>
      <trkpt lat="42.58094" lon="2.05815">
        <ele>1970.846924</ele>
        <time>2011-09-24T08:49:32Z</time>
      </trkpt>
      <trkpt lat="42.58098" lon="2.05826">
        <ele>1968.97168</ele>
        <time>2011-09-24T08:49:33Z</time>
      </trkpt>
      <trkpt lat="42.58102" lon="2.05838">
        <ele>1966.844849</ele>
        <time>2011-09-24T08:49:34Z</time>
      </trkpt>
      <trkpt lat="42.58103" lon="2.0585">
        <ele>1964.700317</ele>
        <time>2011-09-24T08:49:35Z</time>
      </trkpt>
      <trkpt lat="42.58105" lon="2.05863">
        <ele>1962.602051</ele>
        <time>2011-09-24T08:49:36Z</time>
      </trkpt>
      <trkpt lat="42.58106" lon="2.05877">
        <ele>1960.615356</ele>
        <time>2011-09-24T08:49:37Z</time>
      </trkpt>
      <trkpt lat="42.58104" lon="2.05889">
        <ele>1958.627319</ele>
        <time>2011-09-24T08:49:38Z</time>
      </trkpt>
      <trkpt lat="42.58101" lon="2.059">
        <ele>1956.821167</ele>
        <time>2011-09-24T08:49:39Z</time>
      </trkpt>
      <trkpt lat="42.58099" lon="2.05908">
        <ele>1955.071167</ele>
        <time>2011-09-24T08:49:40Z</time>
      </trkpt>
      <trkpt lat="42.58097" lon="2.05914">
        <ele>1954.724365</ele>
        <time>2011-09-24T08:49:42Z</time>
      </trkpt>
      <trkpt lat="42.58102" lon="2.05916">
        <ele>1950.099365</ele>
        <time>2011-09-24T08:50:23Z</time>
      </trkpt>
      <trkpt lat="42.58098" lon="2.05918">
        <ele>1942.314575</ele>
        <time>2011-09-24T08:52:47Z</time>
      </trkpt>
      <trkpt lat="42.58094" lon="2.05914">
        <ele>1942.033936</ele>
        <time>2011-09-24T08:52:59Z</time>
      </trkpt>
      <trkpt lat="42.5809" lon="2.0591">
        <ele>1941.911987</ele>
        <time>2011-09-24T08:53:09Z</time>
      </trkpt>
      <trkpt lat="42.58095" lon="2.05911">
        <ele>1941.136841</ele>
        <time>2011-09-24T08:53:38Z</time>
      </trkpt>
      <trkpt lat="42.58098" lon="2.05916">
        <ele>1940.597046</ele>
        <time>2011-09-24T08:53:56Z</time>
      </trkpt>
      <trkpt lat="42.58093" lon="2.05923">
        <ele>1938.490967</ele>
        <time>2011-09-24T08:54:14Z</time>
      </trkpt>
      <trkpt lat="42.58091" lon="2.05929">
        <ele>1937.372437</ele>
        <time>2011-09-24T08:54:15Z</time>
      </trkpt>
      <trkpt lat="42.58088" lon="2.05935">
        <ele>1936.294556</ele>
        <time>2011-09-24T08:54:16Z</time>
      </trkpt>
      <trkpt lat="42.58086" lon="2.05942">
        <ele>1935.3125</ele>
        <time>2011-09-24T08:54:17Z</time>
      </trkpt>
      <trkpt lat="42.58084" lon="2.0595">
        <ele>1934.441284</ele>
        <time>2011-09-24T08:54:18Z</time>
      </trkpt>
      <trkpt lat="42.58085" lon="2.0596">
        <ele>1933.85791</ele>
        <time>2011-09-24T08:54:19Z</time>
      </trkpt>
      <trkpt lat="42.58084" lon="2.05971">
        <ele>1933.220215</ele>
        <time>2011-09-24T08:54:20Z</time>
      </trkpt>
      <trkpt lat="42.58083" lon="2.05981">
        <ele>1933.220215</ele>
        <time>2011-09-24T08:54:21Z</time>
      </trkpt>
      <trkpt lat="42.58084" lon="2.05996">
        <ele>1931.887573</ele>
        <time>2011-09-24T08:54:22Z</time>
      </trkpt>
      <trkpt lat="42.58083" lon="2.06008">
        <ele>1930.302368</ele>
        <time>2011-09-24T08:54:23Z</time>
      </trkpt>
      <trkpt lat="42.58082" lon="2.0602">
        <ele>1928.765625</ele>
        <time>2011-09-24T08:54:24Z</time>
      </trkpt>
      <trkpt lat="42.58083" lon="2.06031">
        <ele>1927.47229</ele>
        <time>2011-09-24T08:54:25Z</time>
      </trkpt>
      <trkpt lat="42.58083" lon="2.06042">
        <ele>1926.420898</ele>
        <time>2011-09-24T08:54:26Z</time>
      </trkpt>
      <trkpt lat="42.58084" lon="2.06053">
        <ele>1925.368896</ele>
        <time>2011-09-24T08:54:27Z</time>
      </trkpt>
      <trkpt lat="42.58084" lon="2.06064">
        <ele>1924.518555</ele>
        <time>2011-09-24T08:54:28Z</time>
      </trkpt>
      <trkpt lat="42.58086" lon="2.06076">
        <ele>1923.714478</ele>
        <time>2011-09-24T08:54:29Z</time>
      </trkpt>
      <trkpt lat="42.5809" lon="2.06087">
        <ele>1922.854004</ele>
        <time>2011-09-24T08:54:30Z</time>
      </trkpt>
      <trkpt lat="42.58093" lon="2.06099">
        <ele>1921.959229</ele>
        <time>2011-09-24T08:54:31Z</time>
      </trkpt>
      <trkpt lat="42.58096" lon="2.0611">
        <ele>1921.189209</ele>
        <time>2011-09-24T08:54:32Z</time>
      </trkpt>
      <trkpt lat="42.58098" lon="2.0612">
        <ele>1920.29895</ele>
        <time>2011-09-24T08:54:33Z</time>
      </trkpt>
      <trkpt lat="42.58099" lon="2.06129">
        <ele>1919.088989</ele>
        <time>2011-09-24T08:54:34Z</time>
      </trkpt>
      <trkpt lat="42.58098" lon="2.06137">
        <ele>1917.841797</ele>
        <time>2011-09-24T08:54:35Z</time>
      </trkpt>
      <trkpt lat="42.58099" lon="2.06145">
        <ele>1916.556396</ele>
        <time>2011-09-24T08:54:36Z</time>
      </trkpt>
      <trkpt lat="42.58101" lon="2.06153">
        <ele>1915.33374</ele>
        <time>2011-09-24T08:54:37Z</time>
      </trkpt>
      <trkpt lat="42.58104" lon="2.06162">
        <ele>1914.175171</ele>
        <time>2011-09-24T08:54:38Z</time>
      </trkpt>
      <trkpt lat="42.58106" lon="2.06173">
        <ele>1913.136719</ele>
        <time>2011-09-24T08:54:39Z</time>
      </trkpt>
      <trkpt lat="42.58109" lon="2.06183">
        <ele>1912.291626</ele>
        <time>2011-09-24T08:54:40Z</time>
      </trkpt>
      <trkpt lat="42.58111" lon="2.06194">
        <ele>1911.849976</ele>
        <time>2011-09-24T08:54:41Z</time>
      </trkpt>
      <trkpt lat="42.58112" lon="2.06206">
        <ele>1911.489502</ele>
        <time>2011-09-24T08:54:42Z</time>
      </trkpt>
      <trkpt lat="42.58113" lon="2.06217">
        <ele>1911.102661</ele>
        <time>2011-09-24T08:54:43Z</time>
      </trkpt>
      <trkpt lat="42.58117" lon="2.06228">
        <ele>1910.674316</ele>
        <time>2011-09-24T08:54:44Z</time>
      </trkpt>
      <trkpt lat="42.58121" lon="2.06239">
        <ele>1910.335449</ele>
        <time>2011-09-24T08:54:45Z</time>
      </trkpt>
      <trkpt lat="42.58124" lon="2.06248">
        <ele>1910.030518</ele>
        <time>2011-09-24T08:54:46Z</time>
      </trkpt>
      <trkpt lat="42.58127" lon="2.06257">
        <ele>1909.623169</ele>
        <time>2011-09-24T08:54:47Z</time>
      </trkpt>
      <trkpt lat="42.58129" lon="2.06264">
        <ele>1909.218018</ele>
        <time>2011-09-24T08:54:48Z</time>
      </trkpt>
      <trkpt lat="42.58132" lon="2.06271">
        <ele>1908.954834</ele>
        <time>2011-09-24T08:54:49Z</time>
      </trkpt>
      <trkpt lat="42.58134" lon="2.06279">
        <ele>1908.671509</ele>
        <time>2011-09-24T08:54:50Z</time>
      </trkpt>
      <trkpt lat="42.58136" lon="2.06286">
        <ele>1908.418701</ele>
        <time>2011-09-24T08:54:51Z</time>
      </trkpt>
      <trkpt lat="42.58138" lon="2.06293">
        <ele>1908.20813</ele>
        <time>2011-09-24T08:54:52Z</time>
      </trkpt>
      <trkpt lat="42.58139" lon="2.06302">
        <ele>1907.949829</ele>
        <time>2011-09-24T08:54:53Z</time>
      </trkpt>
      <trkpt lat="42.58141" lon="2.06313">
        <ele>1907.586914</ele>
        <time>2011-09-24T08:54:55Z</time>
      </trkpt>
      <trkpt lat="42.58141" lon="2.0632">
        <ele>1907.503784</ele>
        <time>2011-09-24T08:54:56Z</time>
      </trkpt>
      <trkpt lat="42.58142" lon="2.06327">
        <ele>1907.452881</ele>
        <time>2011-09-24T08:54:57Z</time>
      </trkpt>
      <trkpt lat="42.58141" lon="2.06335">
        <ele>1907.430542</ele>
        <time>2011-09-24T08:54:58Z</time>
      </trkpt>
      <trkpt lat="42.58141" lon="2.06343">
        <ele>1907.391113</ele>
        <time>2011-09-24T08:54:59Z</time>
      </trkpt>
      <trkpt lat="42.58139" lon="2.06351">
        <ele>1907.389526</ele>
        <time>2011-09-24T08:55:01Z</time>
      </trkpt>
      <trkpt lat="42.58136" lon="2.06357">
        <ele>1907.417603</ele>
        <time>2011-09-24T08:55:03Z</time>
      </trkpt>
      <trkpt lat="42.58133" lon="2.06365">
        <ele>1907.37915</ele>
        <time>2011-09-24T08:55:05Z</time>
      </trkpt>
      <trkpt lat="42.58129" lon="2.06377">
        <ele>1906.250366</ele>
        <time>2011-09-24T08:55:07Z</time>
      </trkpt>
      <trkpt lat="42.58126" lon="2.06384">
        <ele>1905.382935</ele>
        <time>2011-09-24T08:55:08Z</time>
      </trkpt>
      <trkpt lat="42.58122" lon="2.06391">
        <ele>1904.888916</ele>
        <time>2011-09-24T08:55:09Z</time>
      </trkpt>
      <trkpt lat="42.58119" lon="2.06399">
        <ele>1904.595459</ele>
        <time>2011-09-24T08:55:10Z</time>
      </trkpt>
      <trkpt lat="42.58115" lon="2.06407">
        <ele>1904.169067</ele>
        <time>2011-09-24T08:55:11Z</time>
      </trkpt>
      <trkpt lat="42.58112" lon="2.06414">
        <ele>1903.846069</ele>
        <time>2011-09-24T08:55:12Z</time>
      </trkpt>
      <trkpt lat="42.58108" lon="2.06421">
        <ele>1903.686768</ele>
        <time>2011-09-24T08:55:13Z</time>
      </trkpt>
      <trkpt lat="42.58104" lon="2.06429">
        <ele>1903.644043</ele>
        <time>2011-09-24T08:55:14Z</time>
      </trkpt>
      <trkpt lat="42.581" lon="2.06436">
        <ele>1903.61438</ele>
        <time>2011-09-24T08:55:15Z</time>
      </trkpt>
      <trkpt lat="42.58096" lon="2.06444">
        <ele>1903.509155</ele>
        <time>2011-09-24T08:55:16Z</time>
      </trkpt>
      <trkpt lat="42.58093" lon="2.06453">
        <ele>1903.397583</ele>
        <time>2011-09-24T08:55:17Z</time>
      </trkpt>
      <trkpt lat="42.5809" lon="2.06462">
        <ele>1903.299194</ele>
        <time>2011-09-24T08:55:18Z</time>
      </trkpt>
      <trkpt lat="42.58087" lon="2.06471">
        <ele>1903.105469</ele>
        <time>2011-09-24T08:55:19Z</time>
      </trkpt>
      <trkpt lat="42.58084" lon="2.0648">
        <ele>1903.087891</ele>
        <time>2011-09-24T08:55:20Z</time>
      </trkpt>
      <trkpt lat="42.58081" lon="2.06489">
        <ele>1902.987915</ele>
        <time>2011-09-24T08:55:21Z</time>
      </trkpt>
      <trkpt lat="42.58078" lon="2.065">
        <ele>1903.178589</ele>
        <time>2011-09-24T08:55:22Z</time>
      </trkpt>
      <trkpt lat="42.58075" lon="2.06512">
        <ele>1903.214722</ele>
        <time>2011-09-24T08:55:23Z</time>
      </trkpt>
      <trkpt lat="42.58073" lon="2.06524">
        <ele>1903.205933</ele>
        <time>2011-09-24T08:55:24Z</time>
      </trkpt>
      <trkpt lat="42.58072" lon="2.06534">
        <ele>1903.312378</ele>
        <time>2011-09-24T08:55:25Z</time>
      </trkpt>
      <trkpt lat="42.58069" lon="2.06543">
        <ele>1903.322998</ele>
        <time>2011-09-24T08:55:26Z</time>
      </trkpt>
      <trkpt lat="42.58067" lon="2.06552">
        <ele>1903.019653</ele>
        <time>2011-09-24T08:55:27Z</time>
      </trkpt>
      <trkpt lat="42.58067" lon="2.06562">
        <ele>1902.713135</ele>
        <time>2011-09-24T08:55:28Z</time>
      </trkpt>
      <trkpt lat="42.58067" lon="2.06571">
        <ele>1902.399048</ele>
        <time>2011-09-24T08:55:29Z</time>
      </trkpt>
      <trkpt lat="42.58067" lon="2.0658">
        <ele>1902.11792</ele>
        <time>2011-09-24T08:55:30Z</time>
      </trkpt>
      <trkpt lat="42.58066" lon="2.06587">
        <ele>1902.11792</ele>
        <time>2011-09-24T08:55:31Z</time>
      </trkpt>
      <trkpt lat="42.58071" lon="2.06596">
        <ele>1901.985718</ele>
        <time>2011-09-24T08:55:33Z</time>
      </trkpt>
      <trkpt lat="42.58072" lon="2.06609">
        <ele>1899.168335</ele>
        <time>2011-09-24T08:55:35Z</time>
      </trkpt>
      <trkpt lat="42.58066" lon="2.06611">
        <ele>1898.529663</ele>
        <time>2011-09-24T08:55:37Z</time>
      </trkpt>
      <trkpt lat="42.58059" lon="2.06604">
        <ele>1894.340454</ele>
        <time>2011-09-24T08:55:41Z</time>
      </trkpt>
      <trkpt lat="42.58057" lon="2.06611">
        <ele>1891.668091</ele>
        <time>2011-09-24T08:55:42Z</time>
      </trkpt>
      <trkpt lat="42.58057" lon="2.06619">
        <ele>1889.225464</ele>
        <time>2011-09-24T08:55:43Z</time>
      </trkpt>
      <trkpt lat="42.58058" lon="2.06627">
        <ele>1887.085083</ele>
        <time>2011-09-24T08:55:44Z</time>
      </trkpt>
      <trkpt lat="42.58058" lon="2.06635">
        <ele>1885.333862</ele>
        <time>2011-09-24T08:55:45Z</time>
      </trkpt>
      <trkpt lat="42.58059" lon="2.06644">
        <ele>1885.011353</ele>
        <time>2011-09-24T08:55:47Z</time>
      </trkpt>
      <trkpt lat="42.58054" lon="2.06647">
        <ele>1882.959961</ele>
        <time>2011-09-24T08:55:49Z</time>
      </trkpt>
      <trkpt lat="42.58049" lon="2.06649">
        <ele>1882.634033</ele>
        <time>2011-09-24T08:55:51Z</time>
      </trkpt>
      <trkpt lat="42.58045" lon="2.06658">
        <ele>1879.77478</ele>
        <time>2011-09-24T08:55:53Z</time>
      </trkpt>
      <trkpt lat="42.58045" lon="2.06668">
        <ele>1879.60083</ele>
        <time>2011-09-24T08:55:55Z</time>
      </trkpt>
      <trkpt lat="42.58044" lon="2.06675">
        <ele>1879.40979</ele>
        <time>2011-09-24T08:55:57Z</time>
      </trkpt>
      <trkpt lat="42.58036" lon="2.06678">
        <ele>1877.26355</ele>
        <time>2011-09-24T08:55:59Z</time>
      </trkpt>
      <trkpt lat="42.58031" lon="2.06672">
        <ele>1876.435303</ele>
        <time>2011-09-24T08:56:01Z</time>
      </trkpt>
      <trkpt lat="42.58026" lon="2.06672">
        <ele>1876.018188</ele>
        <time>2011-09-24T08:56:04Z</time>
      </trkpt>
      <trkpt lat="42.58024" lon="2.06678">
        <ele>1875.152832</ele>
        <time>2011-09-24T08:56:08Z</time>
      </trkpt>
      <trkpt lat="42.58028" lon="2.06686">
        <ele>1874.418823</ele>
        <time>2011-09-24T08:56:11Z</time>
      </trkpt>
      <trkpt lat="42.5803" lon="2.06693">
        <ele>1873.889038</ele>
        <time>2011-09-24T08:56:13Z</time>
      </trkpt>
      <trkpt lat="42.58031" lon="2.06699">
        <ele>1873.313721</ele>
        <time>2011-09-24T08:56:15Z</time>
      </trkpt>
      <trkpt lat="42.58024" lon="2.06701">
        <ele>1869.495117</ele>
        <time>2011-09-24T08:56:17Z</time>
      </trkpt>
      <trkpt lat="42.58021" lon="2.06693">
        <ele>1868.920898</ele>
        <time>2011-09-24T08:56:19Z</time>
      </trkpt>
      <trkpt lat="42.58018" lon="2.06685">
        <ele>1868.336914</ele>
        <time>2011-09-24T08:56:21Z</time>
      </trkpt>
      <trkpt lat="42.58013" lon="2.06681">
        <ele>1867.368896</ele>
        <time>2011-09-24T08:56:24Z</time>
      </trkpt>
      <trkpt lat="42.58011" lon="2.06686">
        <ele>1863.980103</ele>
        <time>2011-09-24T08:56:25Z</time>
      </trkpt>
      <trkpt lat="42.58011" lon="2.06694">
        <ele>1861.257568</ele>
        <time>2011-09-24T08:56:26Z</time>
      </trkpt>
      <trkpt lat="42.58011" lon="2.06701">
        <ele>1859.024902</ele>
        <time>2011-09-24T08:56:27Z</time>
      </trkpt>
      <trkpt lat="42.58012" lon="2.06708">
        <ele>1857.237671</ele>
        <time>2011-09-24T08:56:28Z</time>
      </trkpt>
      <trkpt lat="42.58012" lon="2.06715">
        <ele>1855.987915</ele>
        <time>2011-09-24T08:56:29Z</time>
      </trkpt>
      <trkpt lat="42.58013" lon="2.06721">
        <ele>1854.983154</ele>
        <time>2011-09-24T08:56:30Z</time>
      </trkpt>
      <trkpt lat="42.58017" lon="2.06734">
        <ele>1853.398315</ele>
        <time>2011-09-24T08:56:32Z</time>
      </trkpt>
      <trkpt lat="42.58019" lon="2.06742">
        <ele>1852.678589</ele>
        <time>2011-09-24T08:56:33Z</time>
      </trkpt>
      <trkpt lat="42.58018" lon="2.06751">
        <ele>1852.555054</ele>
        <time>2011-09-24T08:56:35Z</time>
      </trkpt>
      <trkpt lat="42.58011" lon="2.06755">
        <ele>1851.707275</ele>
        <time>2011-09-24T08:56:37Z</time>
      </trkpt>
      <trkpt lat="42.58005" lon="2.0675">
        <ele>1850.845215</ele>
        <time>2011-09-24T08:56:38Z</time>
      </trkpt>
      <trkpt lat="42.58" lon="2.06745">
        <ele>1849.945557</ele>
        <time>2011-09-24T08:56:39Z</time>
      </trkpt>
      <trkpt lat="42.57994" lon="2.06738">
        <ele>1849.172363</ele>
        <time>2011-09-24T08:56:40Z</time>
      </trkpt>
      <trkpt lat="42.57988" lon="2.06732">
        <ele>1848.559326</ele>
        <time>2011-09-24T08:56:41Z</time>
      </trkpt>
      <trkpt lat="42.57982" lon="2.06725">
        <ele>1847.909424</ele>
        <time>2011-09-24T08:56:42Z</time>
      </trkpt>
      <trkpt lat="42.57975" lon="2.06718">
        <ele>1847.30957</ele>
        <time>2011-09-24T08:56:43Z</time>
      </trkpt>
      <trkpt lat="42.57968" lon="2.0671">
        <ele>1846.843018</ele>
        <time>2011-09-24T08:56:44Z</time>
      </trkpt>
      <trkpt lat="42.57961" lon="2.06705">
        <ele>1846.402466</ele>
        <time>2011-09-24T08:56:45Z</time>
      </trkpt>
      <trkpt lat="42.57955" lon="2.06699">
        <ele>1845.634399</ele>
        <time>2011-09-24T08:56:46Z</time>
      </trkpt>
      <trkpt lat="42.57951" lon="2.06693">
        <ele>1844.569336</ele>
        <time>2011-09-24T08:56:47Z</time>
      </trkpt>
      <trkpt lat="42.57949" lon="2.06685">
        <ele>1843.241821</ele>
        <time>2011-09-24T08:56:48Z</time>
      </trkpt>
      <trkpt lat="42.57947" lon="2.06679">
        <ele>1841.959717</ele>
        <time>2011-09-24T08:56:49Z</time>
      </trkpt>
      <trkpt lat="42.57946" lon="2.06672">
        <ele>1840.701172</ele>
        <time>2011-09-24T08:56:50Z</time>
      </trkpt>
      <trkpt lat="42.57943" lon="2.06663">
        <ele>1839.060425</ele>
        <time>2011-09-24T08:56:51Z</time>
      </trkpt>
      <trkpt lat="42.5794" lon="2.06655">
        <ele>1837.050781</ele>
        <time>2011-09-24T08:56:52Z</time>
      </trkpt>
      <trkpt lat="42.57938" lon="2.06647">
        <ele>1834.973999</ele>
        <time>2011-09-24T08:56:53Z</time>
      </trkpt>
      <trkpt lat="42.57934" lon="2.06638">
        <ele>1833.021851</ele>
        <time>2011-09-24T08:56:54Z</time>
      </trkpt>
      <trkpt lat="42.5793" lon="2.06628">
        <ele>1831.163208</ele>
        <time>2011-09-24T08:56:55Z</time>
      </trkpt>
      <trkpt lat="42.57925" lon="2.06614">
        <ele>1829.458008</ele>
        <time>2011-09-24T08:56:56Z</time>
      </trkpt>
      <trkpt lat="42.5792" lon="2.066">
        <ele>1827.896851</ele>
        <time>2011-09-24T08:56:57Z</time>
      </trkpt>
      <trkpt lat="42.57915" lon="2.06586">
        <ele>1825.875488</ele>
        <time>2011-09-24T08:56:58Z</time>
      </trkpt>
      <trkpt lat="42.57911" lon="2.06571">
        <ele>1823.525879</ele>
        <time>2011-09-24T08:56:59Z</time>
      </trkpt>
      <trkpt lat="42.57907" lon="2.06558">
        <ele>1821.21814</ele>
        <time>2011-09-24T08:57:00Z</time>
      </trkpt>
      <trkpt lat="42.57903" lon="2.06548">
        <ele>1819.064819</ele>
        <time>2011-09-24T08:57:01Z</time>
      </trkpt>
      <trkpt lat="42.57901" lon="2.06538">
        <ele>1817.031738</ele>
        <time>2011-09-24T08:57:02Z</time>
      </trkpt>
      <trkpt lat="42.57898" lon="2.06527">
        <ele>1815.210205</ele>
        <time>2011-09-24T08:57:03Z</time>
      </trkpt>
      <trkpt lat="42.57894" lon="2.06516">
        <ele>1813.507202</ele>
        <time>2011-09-24T08:57:04Z</time>
      </trkpt>
      <trkpt lat="42.5789" lon="2.06505">
        <ele>1812.011963</ele>
        <time>2011-09-24T08:57:05Z</time>
      </trkpt>
      <trkpt lat="42.57886" lon="2.06495">
        <ele>1810.740723</ele>
        <time>2011-09-24T08:57:06Z</time>
      </trkpt>
      <trkpt lat="42.57882" lon="2.06485">
        <ele>1809.686157</ele>
        <time>2011-09-24T08:57:07Z</time>
      </trkpt>
      <trkpt lat="42.57878" lon="2.06475">
        <ele>1808.992798</ele>
        <time>2011-09-24T08:57:08Z</time>
      </trkpt>
      <trkpt lat="42.57874" lon="2.06465">
        <ele>1808.547119</ele>
        <time>2011-09-24T08:57:09Z</time>
      </trkpt>
      <trkpt lat="42.57869" lon="2.06454">
        <ele>1808.248413</ele>
        <time>2011-09-24T08:57:10Z</time>
      </trkpt>
      <trkpt lat="42.57865" lon="2.06445">
        <ele>1807.979614</ele>
        <time>2011-09-24T08:57:11Z</time>
      </trkpt>
      <trkpt lat="42.57861" lon="2.06437">
        <ele>1807.849609</ele>
        <time>2011-09-24T08:57:12Z</time>
      </trkpt>
      <trkpt lat="42.57856" lon="2.06429">
        <ele>1807.849854</ele>
        <time>2011-09-24T08:57:13Z</time>
      </trkpt>
      <trkpt lat="42.57852" lon="2.06422">
        <ele>1807.583862</ele>
        <time>2011-09-24T08:57:14Z</time>
      </trkpt>
      <trkpt lat="42.57848" lon="2.06414">
        <ele>1807.163452</ele>
        <time>2011-09-24T08:57:15Z</time>
      </trkpt>
      <trkpt lat="42.57844" lon="2.06406">
        <ele>1806.521606</ele>
        <time>2011-09-24T08:57:16Z</time>
      </trkpt>
      <trkpt lat="42.5784" lon="2.06399">
        <ele>1805.782104</ele>
        <time>2011-09-24T08:57:17Z</time>
      </trkpt>
      <trkpt lat="42.57837" lon="2.06392">
        <ele>1804.702881</ele>
        <time>2011-09-24T08:57:18Z</time>
      </trkpt>
      <trkpt lat="42.57833" lon="2.06385">
        <ele>1803.451172</ele>
        <time>2011-09-24T08:57:19Z</time>
      </trkpt>
      <trkpt lat="42.57828" lon="2.06379">
        <ele>1802.348511</ele>
        <time>2011-09-24T08:57:20Z</time>
      </trkpt>
      <trkpt lat="42.57823" lon="2.06372">
        <ele>1801.349609</ele>
        <time>2011-09-24T08:57:21Z</time>
      </trkpt>
      <trkpt lat="42.57818" lon="2.06367">
        <ele>1800.250732</ele>
        <time>2011-09-24T08:57:22Z</time>
      </trkpt>
      <trkpt lat="42.57811" lon="2.06365">
        <ele>1798.880615</ele>
        <time>2011-09-24T08:57:23Z</time>
      </trkpt>
      <trkpt lat="42.57804" lon="2.06364">
        <ele>1797.24292</ele>
        <time>2011-09-24T08:57:24Z</time>
      </trkpt>
      <trkpt lat="42.57795" lon="2.06365">
        <ele>1795.306763</ele>
        <time>2011-09-24T08:57:25Z</time>
      </trkpt>
      <trkpt lat="42.57786" lon="2.06368">
        <ele>1793.12085</ele>
        <time>2011-09-24T08:57:26Z</time>
      </trkpt>
      <trkpt lat="42.57776" lon="2.06372">
        <ele>1790.912109</ele>
        <time>2011-09-24T08:57:27Z</time>
      </trkpt>
      <trkpt lat="42.57767" lon="2.06377">
        <ele>1788.776367</ele>
        <time>2011-09-24T08:57:28Z</time>
      </trkpt>
      <trkpt lat="42.57757" lon="2.06384">
        <ele>1786.617676</ele>
        <time>2011-09-24T08:57:29Z</time>
      </trkpt>
      <trkpt lat="42.57749" lon="2.06391">
        <ele>1784.557373</ele>
        <time>2011-09-24T08:57:30Z</time>
      </trkpt>
      <trkpt lat="42.5774" lon="2.06398">
        <ele>1782.535522</ele>
        <time>2011-09-24T08:57:31Z</time>
      </trkpt>
      <trkpt lat="42.57731" lon="2.06405">
        <ele>1780.575806</ele>
        <time>2011-09-24T08:57:32Z</time>
      </trkpt>
      <trkpt lat="42.57723" lon="2.06412">
        <ele>1779.202148</ele>
        <time>2011-09-24T08:57:33Z</time>
      </trkpt>
      <trkpt lat="42.57714" lon="2.06421">
        <ele>1777.921631</ele>
        <time>2011-09-24T08:57:34Z</time>
      </trkpt>
      <trkpt lat="42.57706" lon="2.06431">
        <ele>1776.528931</ele>
        <time>2011-09-24T08:57:35Z</time>
      </trkpt>
      <trkpt lat="42.57699" lon="2.06442">
        <ele>1775.483643</ele>
        <time>2011-09-24T08:57:36Z</time>
      </trkpt>
      <trkpt lat="42.57692" lon="2.06453">
        <ele>1774.789673</ele>
        <time>2011-09-24T08:57:37Z</time>
      </trkpt>
      <trkpt lat="42.57687" lon="2.06465">
        <ele>1773.715576</ele>
        <time>2011-09-24T08:57:38Z</time>
      </trkpt>
      <trkpt lat="42.57681" lon="2.06478">
        <ele>1772.945557</ele>
        <time>2011-09-24T08:57:39Z</time>
      </trkpt>
      <trkpt lat="42.57676" lon="2.0649">
        <ele>1772.253052</ele>
        <time>2011-09-24T08:57:40Z</time>
      </trkpt>
      <trkpt lat="42.5767" lon="2.06501">
        <ele>1771.451416</ele>
        <time>2011-09-24T08:57:41Z</time>
      </trkpt>
      <trkpt lat="42.57665" lon="2.06512">
        <ele>1770.842285</ele>
        <time>2011-09-24T08:57:42Z</time>
      </trkpt>
      <trkpt lat="42.5766" lon="2.06522">
        <ele>1770.37207</ele>
        <time>2011-09-24T08:57:43Z</time>
      </trkpt>
      <trkpt lat="42.57655" lon="2.06533">
        <ele>1769.750122</ele>
        <time>2011-09-24T08:57:44Z</time>
      </trkpt>
      <trkpt lat="42.5765" lon="2.06542">
        <ele>1769.148804</ele>
        <time>2011-09-24T08:57:45Z</time>
      </trkpt>
      <trkpt lat="42.57645" lon="2.06551">
        <ele>1768.371582</ele>
        <time>2011-09-24T08:57:46Z</time>
      </trkpt>
      <trkpt lat="42.57644" lon="2.06558">
        <ele>1767.545532</ele>
        <time>2011-09-24T08:57:47Z</time>
      </trkpt>
      <trkpt lat="42.57645" lon="2.06568">
        <ele>1766.808228</ele>
        <time>2011-09-24T08:57:49Z</time>
      </trkpt>
      <trkpt lat="42.57656" lon="2.06572">
        <ele>1766.450439</ele>
        <time>2011-09-24T08:57:51Z</time>
      </trkpt>
      <trkpt lat="42.57661" lon="2.06573">
        <ele>1766.450439</ele>
        <time>2011-09-24T08:57:52Z</time>
      </trkpt>
      <trkpt lat="42.57669" lon="2.06574">
        <ele>1766.300171</ele>
        <time>2011-09-24T08:57:54Z</time>
      </trkpt>
      <trkpt lat="42.57673" lon="2.06581">
        <ele>1764.709839</ele>
        <time>2011-09-24T08:57:55Z</time>
      </trkpt>
      <trkpt lat="42.57675" lon="2.06589">
        <ele>1762.720337</ele>
        <time>2011-09-24T08:57:56Z</time>
      </trkpt>
      <trkpt lat="42.57672" lon="2.06596">
        <ele>1760.63562</ele>
        <time>2011-09-24T08:57:57Z</time>
      </trkpt>
      <trkpt lat="42.57668" lon="2.06601">
        <ele>1758.65918</ele>
        <time>2011-09-24T08:57:58Z</time>
      </trkpt>
      <trkpt lat="42.57665" lon="2.06606">
        <ele>1756.676392</ele>
        <time>2011-09-24T08:57:59Z</time>
      </trkpt>
      <trkpt lat="42.57666" lon="2.06612">
        <ele>1754.828125</ele>
        <time>2011-09-24T08:58:00Z</time>
      </trkpt>
      <trkpt lat="42.57668" lon="2.0662">
        <ele>1753.057495</ele>
        <time>2011-09-24T08:58:01Z</time>
      </trkpt>
      <trkpt lat="42.5767" lon="2.06629">
        <ele>1751.091675</ele>
        <time>2011-09-24T08:58:02Z</time>
      </trkpt>
      <trkpt lat="42.57669" lon="2.06637">
        <ele>1749.36731</ele>
        <time>2011-09-24T08:58:03Z</time>
      </trkpt>
      <trkpt lat="42.57666" lon="2.06644">
        <ele>1747.878052</ele>
        <time>2011-09-24T08:58:04Z</time>
      </trkpt>
      <trkpt lat="42.57663" lon="2.06651">
        <ele>1746.66626</ele>
        <time>2011-09-24T08:58:05Z</time>
      </trkpt>
      <trkpt lat="42.57658" lon="2.06658">
        <ele>1745.552856</ele>
        <time>2011-09-24T08:58:06Z</time>
      </trkpt>
      <trkpt lat="42.57654" lon="2.06666">
        <ele>1744.642944</ele>
        <time>2011-09-24T08:58:07Z</time>
      </trkpt>
      <trkpt lat="42.5765" lon="2.06674">
        <ele>1743.818848</ele>
        <time>2011-09-24T08:58:08Z</time>
      </trkpt>
      <trkpt lat="42.57647" lon="2.06682">
        <ele>1743.150513</ele>
        <time>2011-09-24T08:58:09Z</time>
      </trkpt>
      <trkpt lat="42.57643" lon="2.0669">
        <ele>1742.547119</ele>
        <time>2011-09-24T08:58:10Z</time>
      </trkpt>
      <trkpt lat="42.57639" lon="2.067">
        <ele>1742.154541</ele>
        <time>2011-09-24T08:58:11Z</time>
      </trkpt>
      <trkpt lat="42.57638" lon="2.0671">
        <ele>1741.610962</ele>
        <time>2011-09-24T08:58:12Z</time>
      </trkpt>
      <trkpt lat="42.57636" lon="2.06723">
        <ele>1740.689453</ele>
        <time>2011-09-24T08:58:13Z</time>
      </trkpt>
      <trkpt lat="42.57636" lon="2.06735">
        <ele>1739.373169</ele>
        <time>2011-09-24T08:58:14Z</time>
      </trkpt>
      <trkpt lat="42.57633" lon="2.06745">
        <ele>1737.543579</ele>
        <time>2011-09-24T08:58:15Z</time>
      </trkpt>
      <trkpt lat="42.57627" lon="2.06753">
        <ele>1735.671997</ele>
        <time>2011-09-24T08:58:16Z</time>
      </trkpt>
      <trkpt lat="42.57621" lon="2.06759">
        <ele>1733.525757</ele>
        <time>2011-09-24T08:58:17Z</time>
      </trkpt>
      <trkpt lat="42.57614" lon="2.06766">
        <ele>1731.160522</ele>
        <time>2011-09-24T08:58:18Z</time>
      </trkpt>
      <trkpt lat="42.57607" lon="2.06772">
        <ele>1728.380005</ele>
        <time>2011-09-24T08:58:19Z</time>
      </trkpt>
      <trkpt lat="42.57598" lon="2.06775">
        <ele>1725.345703</ele>
        <time>2011-09-24T08:58:20Z</time>
      </trkpt>
      <trkpt lat="42.57589" lon="2.06779">
        <ele>1722.297974</ele>
        <time>2011-09-24T08:58:21Z</time>
      </trkpt>
      <trkpt lat="42.57581" lon="2.06784">
        <ele>1718.507324</ele>
        <time>2011-09-24T08:58:22Z</time>
      </trkpt>
      <trkpt lat="42.57571" lon="2.06789">
        <ele>1714.520142</ele>
        <time>2011-09-24T08:58:23Z</time>
      </trkpt>
      <trkpt lat="42.5756" lon="2.06795">
        <ele>1710.722046</ele>
        <time>2011-09-24T08:58:24Z</time>
      </trkpt>
      <trkpt lat="42.57549" lon="2.06801">
        <ele>1706.963013</ele>
        <time>2011-09-24T08:58:25Z</time>
      </trkpt>
      <trkpt lat="42.57539" lon="2.06807">
        <ele>1703.369141</ele>
        <time>2011-09-24T08:58:26Z</time>
      </trkpt>
      <trkpt lat="42.57529" lon="2.06813">
        <ele>1699.941162</ele>
        <time>2011-09-24T08:58:27Z</time>
      </trkpt>
      <trkpt lat="42.5752" lon="2.0682">
        <ele>1696.75</ele>
        <time>2011-09-24T08:58:28Z</time>
      </trkpt>
      <trkpt lat="42.57514" lon="2.06827">
        <ele>1693.876343</ele>
        <time>2011-09-24T08:58:29Z</time>
      </trkpt>
      <trkpt lat="42.57508" lon="2.06836">
        <ele>1691.362305</ele>
        <time>2011-09-24T08:58:30Z</time>
      </trkpt>
      <trkpt lat="42.57504" lon="2.06848">
        <ele>1689.234985</ele>
        <time>2011-09-24T08:58:31Z</time>
      </trkpt>
      <trkpt lat="42.57502" lon="2.0686">
        <ele>1687.374756</ele>
        <time>2011-09-24T08:58:32Z</time>
      </trkpt>
      <trkpt lat="42.575" lon="2.06872">
        <ele>1685.581421</ele>
        <time>2011-09-24T08:58:33Z</time>
      </trkpt>
      <trkpt lat="42.575" lon="2.06885">
        <ele>1684.105347</ele>
        <time>2011-09-24T08:58:34Z</time>
      </trkpt>
      <trkpt lat="42.57499" lon="2.06897">
        <ele>1683.003906</ele>
        <time>2011-09-24T08:58:35Z</time>
      </trkpt>
      <trkpt lat="42.57497" lon="2.06907">
        <ele>1681.681396</ele>
        <time>2011-09-24T08:58:39Z</time>
      </trkpt>
      <trkpt lat="42.57496" lon="2.06909">
        <ele>1681.7146</ele>
        <time>2011-09-24T08:58:42Z</time>
      </trkpt>
      <trkpt lat="42.5749" lon="2.06911">
        <ele>1679.572266</ele>
        <time>2011-09-24T08:59:06Z</time>
      </trkpt>
      <trkpt lat="42.57483" lon="2.06918">
        <ele>1677.028198</ele>
        <time>2011-09-24T08:59:15Z</time>
      </trkpt>
      <trkpt lat="42.57483" lon="2.06918">
        <ele>1677.028198</ele>
        <time>2011-09-24T08:59:16Z</time>
      </trkpt>
      <trkpt lat="42.57476" lon="2.06921">
        <ele>1672.140503</ele>
        <time>2011-09-24T08:59:28Z</time>
      </trkpt>
      <trkpt lat="42.57476" lon="2.0693">
        <ele>1668.28833</ele>
        <time>2011-09-24T09:00:17Z</time>
      </trkpt>
      <trkpt lat="42.57473" lon="2.06923">
        <ele>1662.986206</ele>
        <time>2011-09-24T09:01:41Z</time>
      </trkpt>
      <trkpt lat="42.5747" lon="2.06915">
        <ele>1661.828247</ele>
        <time>2011-09-24T09:01:44Z</time>
      </trkpt>
      <trkpt lat="42.57469" lon="2.06911">
        <ele>1661.520386</ele>
        <time>2011-09-24T09:01:45Z</time>
      </trkpt>
      <trkpt lat="42.57467" lon="2.06904">
        <ele>1661.070679</ele>
        <time>2011-09-24T09:01:47Z</time>
      </trkpt>
      <trkpt lat="42.57468" lon="2.06896">
        <ele>1661.033447</ele>
        <time>2011-09-24T09:01:49Z</time>
      </trkpt>
      <trkpt lat="42.57469" lon="2.06888">
        <ele>1661.237671</ele>
        <time>2011-09-24T09:01:51Z</time>
      </trkpt>
      <trkpt lat="42.57468" lon="2.0688">
        <ele>1661.589478</ele>
        <time>2011-09-24T09:01:54Z</time>
      </trkpt>
      <trkpt lat="42.57466" lon="2.06873">
        <ele>1661.797852</ele>
        <time>2011-09-24T09:01:56Z</time>
      </trkpt>
      <trkpt lat="42.57464" lon="2.06862">
        <ele>1662.25061</ele>
        <time>2011-09-24T09:01:58Z</time>
      </trkpt>
      <trkpt lat="42.57463" lon="2.06855">
        <ele>1662.635742</ele>
        <time>2011-09-24T09:01:59Z</time>
      </trkpt>
      <trkpt lat="42.57462" lon="2.06847">
        <ele>1663.067505</ele>
        <time>2011-09-24T09:02:00Z</time>
      </trkpt>
      <trkpt lat="42.57461" lon="2.0684">
        <ele>1663.526978</ele>
        <time>2011-09-24T09:02:01Z</time>
      </trkpt>
      <trkpt lat="42.57461" lon="2.06832">
        <ele>1663.966187</ele>
        <time>2011-09-24T09:02:02Z</time>
      </trkpt>
      <trkpt lat="42.5746" lon="2.06826">
        <ele>1664.418823</ele>
        <time>2011-09-24T09:02:03Z</time>
      </trkpt>
      <trkpt lat="42.5746" lon="2.06819">
        <ele>1664.856567</ele>
        <time>2011-09-24T09:02:04Z</time>
      </trkpt>
      <trkpt lat="42.57458" lon="2.06808">
        <ele>1665.73584</ele>
        <time>2011-09-24T09:02:06Z</time>
      </trkpt>
      <trkpt lat="42.57458" lon="2.06799">
        <ele>1666.697021</ele>
        <time>2011-09-24T09:02:08Z</time>
      </trkpt>
      <trkpt lat="42.57458" lon="2.06789">
        <ele>1667.751099</ele>
        <time>2011-09-24T09:02:10Z</time>
      </trkpt>
      <trkpt lat="42.57457" lon="2.06778">
        <ele>1668.863403</ele>
        <time>2011-09-24T09:02:12Z</time>
      </trkpt>
      <trkpt lat="42.57456" lon="2.06768">
        <ele>1669.979614</ele>
        <time>2011-09-24T09:02:14Z</time>
      </trkpt>
      <trkpt lat="42.57456" lon="2.06758">
        <ele>1671.07373</ele>
        <time>2011-09-24T09:02:16Z</time>
      </trkpt>
      <trkpt lat="42.57456" lon="2.06748">
        <ele>1672.189575</ele>
        <time>2011-09-24T09:02:18Z</time>
      </trkpt>
      <trkpt lat="42.57456" lon="2.06743">
        <ele>1672.75708</ele>
        <time>2011-09-24T09:02:19Z</time>
      </trkpt>
      <trkpt lat="42.57456" lon="2.06734">
        <ele>1673.909668</ele>
        <time>2011-09-24T09:02:21Z</time>
      </trkpt>
      <trkpt lat="42.57455" lon="2.06725">
        <ele>1675.064575</ele>
        <time>2011-09-24T09:02:23Z</time>
      </trkpt>
      <trkpt lat="42.57455" lon="2.06716">
        <ele>1676.209595</ele>
        <time>2011-09-24T09:02:25Z</time>
      </trkpt>
      <trkpt lat="42.57453" lon="2.06707">
        <ele>1677.360962</ele>
        <time>2011-09-24T09:02:27Z</time>
      </trkpt>
      <trkpt lat="42.57451" lon="2.06699">
        <ele>1678.484619</ele>
        <time>2011-09-24T09:02:29Z</time>
      </trkpt>
      <trkpt lat="42.57449" lon="2.06691">
        <ele>1679.63855</ele>
        <time>2011-09-24T09:02:31Z</time>
      </trkpt>
      <trkpt lat="42.57448" lon="2.06683">
        <ele>1680.878418</ele>
        <time>2011-09-24T09:02:33Z</time>
      </trkpt>
      <trkpt lat="42.57447" lon="2.06675">
        <ele>1682.205688</ele>
        <time>2011-09-24T09:02:35Z</time>
      </trkpt>
      <trkpt lat="42.57446" lon="2.06666">
        <ele>1683.56311</ele>
        <time>2011-09-24T09:02:37Z</time>
      </trkpt>
      <trkpt lat="42.57445" lon="2.06657">
        <ele>1684.916382</ele>
        <time>2011-09-24T09:02:39Z</time>
      </trkpt>
      <trkpt lat="42.57444" lon="2.06649">
        <ele>1686.264771</ele>
        <time>2011-09-24T09:02:41Z</time>
      </trkpt>
      <trkpt lat="42.57443" lon="2.06642">
        <ele>1687.656616</ele>
        <time>2011-09-24T09:02:43Z</time>
      </trkpt>
      <trkpt lat="42.57441" lon="2.06634">
        <ele>1689.091187</ele>
        <time>2011-09-24T09:02:45Z</time>
      </trkpt>
      <trkpt lat="42.5744" lon="2.06624">
        <ele>1690.542114</ele>
        <time>2011-09-24T09:02:47Z</time>
      </trkpt>
      <trkpt lat="42.57439" lon="2.06615">
        <ele>1692.038452</ele>
        <time>2011-09-24T09:02:49Z</time>
      </trkpt>
      <trkpt lat="42.57438" lon="2.06605">
        <ele>1693.560059</ele>
        <time>2011-09-24T09:02:51Z</time>
      </trkpt>
      <trkpt lat="42.57437" lon="2.06596">
        <ele>1695.092285</ele>
        <time>2011-09-24T09:02:53Z</time>
      </trkpt>
      <trkpt lat="42.57436" lon="2.06586">
        <ele>1696.619995</ele>
        <time>2011-09-24T09:02:55Z</time>
      </trkpt>
      <trkpt lat="42.57435" lon="2.06578">
        <ele>1698.191284</ele>
        <time>2011-09-24T09:02:57Z</time>
      </trkpt>
      <trkpt lat="42.57434" lon="2.06569">
        <ele>1699.829346</ele>
        <time>2011-09-24T09:02:59Z</time>
      </trkpt>
      <trkpt lat="42.57432" lon="2.0656">
        <ele>1701.439819</ele>
        <time>2011-09-24T09:03:01Z</time>
      </trkpt>
      <trkpt lat="42.57431" lon="2.06552">
        <ele>1703.103394</ele>
        <time>2011-09-24T09:03:03Z</time>
      </trkpt>
      <trkpt lat="42.5743" lon="2.06543">
        <ele>1704.850464</ele>
        <time>2011-09-24T09:03:05Z</time>
      </trkpt>
      <trkpt lat="42.57429" lon="2.06534">
        <ele>1706.637085</ele>
        <time>2011-09-24T09:03:07Z</time>
      </trkpt>
      <trkpt lat="42.57428" lon="2.06526">
        <ele>1708.525757</ele>
        <time>2011-09-24T09:03:09Z</time>
      </trkpt>
      <trkpt lat="42.57427" lon="2.06522">
        <ele>1709.491699</ele>
        <time>2011-09-24T09:03:10Z</time>
      </trkpt>
      <trkpt lat="42.57425" lon="2.06514">
        <ele>1711.404663</ele>
        <time>2011-09-24T09:03:12Z</time>
      </trkpt>
      <trkpt lat="42.57425" lon="2.06505">
        <ele>1713.380493</ele>
        <time>2011-09-24T09:03:14Z</time>
      </trkpt>
      <trkpt lat="42.57424" lon="2.06495">
        <ele>1715.39502</ele>
        <time>2011-09-24T09:03:16Z</time>
      </trkpt>
      <trkpt lat="42.57424" lon="2.06485">
        <ele>1717.422363</ele>
        <time>2011-09-24T09:03:18Z</time>
      </trkpt>
      <trkpt lat="42.57422" lon="2.06476">
        <ele>1719.449951</ele>
        <time>2011-09-24T09:03:20Z</time>
      </trkpt>
      <trkpt lat="42.57421" lon="2.06467">
        <ele>1721.44751</ele>
        <time>2011-09-24T09:03:22Z</time>
      </trkpt>
      <trkpt lat="42.57419" lon="2.06457">
        <ele>1723.424072</ele>
        <time>2011-09-24T09:03:24Z</time>
      </trkpt>
      <trkpt lat="42.57417" lon="2.06448">
        <ele>1725.396484</ele>
        <time>2011-09-24T09:03:26Z</time>
      </trkpt>
      <trkpt lat="42.57416" lon="2.06443">
        <ele>1726.384277</ele>
        <time>2011-09-24T09:03:27Z</time>
      </trkpt>
      <trkpt lat="42.57414" lon="2.06435">
        <ele>1728.315552</ele>
        <time>2011-09-24T09:03:29Z</time>
      </trkpt>
      <trkpt lat="42.57411" lon="2.06427">
        <ele>1730.175781</ele>
        <time>2011-09-24T09:03:31Z</time>
      </trkpt>
      <trkpt lat="42.5741" lon="2.06419">
        <ele>1732.081421</ele>
        <time>2011-09-24T09:03:33Z</time>
      </trkpt>
      <trkpt lat="42.57408" lon="2.0641">
        <ele>1734.002808</ele>
        <time>2011-09-24T09:03:35Z</time>
      </trkpt>
      <trkpt lat="42.57407" lon="2.06401">
        <ele>1735.907349</ele>
        <time>2011-09-24T09:03:37Z</time>
      </trkpt>
      <trkpt lat="42.57405" lon="2.06391">
        <ele>1737.775146</ele>
        <time>2011-09-24T09:03:39Z</time>
      </trkpt>
      <trkpt lat="42.57404" lon="2.06381">
        <ele>1739.634033</ele>
        <time>2011-09-24T09:03:41Z</time>
      </trkpt>
      <trkpt lat="42.57402" lon="2.0637">
        <ele>1741.509521</ele>
        <time>2011-09-24T09:03:43Z</time>
      </trkpt>
      <trkpt lat="42.57402" lon="2.06359">
        <ele>1743.415283</ele>
        <time>2011-09-24T09:03:45Z</time>
      </trkpt>
      <trkpt lat="42.57401" lon="2.0635">
        <ele>1745.339722</ele>
        <time>2011-09-24T09:03:47Z</time>
      </trkpt>
      <trkpt lat="42.574" lon="2.06341">
        <ele>1747.240112</ele>
        <time>2011-09-24T09:03:49Z</time>
      </trkpt>
      <trkpt lat="42.57399" lon="2.06331">
        <ele>1749.072021</ele>
        <time>2011-09-24T09:03:51Z</time>
      </trkpt>
      <trkpt lat="42.57398" lon="2.06321">
        <ele>1750.883057</ele>
        <time>2011-09-24T09:03:53Z</time>
      </trkpt>
      <trkpt lat="42.57397" lon="2.06311">
        <ele>1752.671753</ele>
        <time>2011-09-24T09:03:55Z</time>
      </trkpt>
      <trkpt lat="42.57396" lon="2.06302">
        <ele>1754.407349</ele>
        <time>2011-09-24T09:03:57Z</time>
      </trkpt>
      <trkpt lat="42.57395" lon="2.06293">
        <ele>1756.140137</ele>
        <time>2011-09-24T09:03:59Z</time>
      </trkpt>
      <trkpt lat="42.57394" lon="2.06283">
        <ele>1757.845093</ele>
        <time>2011-09-24T09:04:01Z</time>
      </trkpt>
      <trkpt lat="42.57392" lon="2.06274">
        <ele>1759.523804</ele>
        <time>2011-09-24T09:04:03Z</time>
      </trkpt>
      <trkpt lat="42.57391" lon="2.06265">
        <ele>1761.17041</ele>
        <time>2011-09-24T09:04:05Z</time>
      </trkpt>
      <trkpt lat="42.5739" lon="2.06256">
        <ele>1762.788696</ele>
        <time>2011-09-24T09:04:07Z</time>
      </trkpt>
      <trkpt lat="42.57389" lon="2.06247">
        <ele>1764.363647</ele>
        <time>2011-09-24T09:04:09Z</time>
      </trkpt>
      <trkpt lat="42.57387" lon="2.06239">
        <ele>1765.866577</ele>
        <time>2011-09-24T09:04:11Z</time>
      </trkpt>
      <trkpt lat="42.57385" lon="2.06236">
        <ele>1766.596436</ele>
        <time>2011-09-24T09:04:12Z</time>
      </trkpt>
      <trkpt lat="42.57384" lon="2.06228">
        <ele>1768.105103</ele>
        <time>2011-09-24T09:04:14Z</time>
      </trkpt>
      <trkpt lat="42.57384" lon="2.06219">
        <ele>1769.780396</ele>
        <time>2011-09-24T09:04:16Z</time>
      </trkpt>
      <trkpt lat="42.57384" lon="2.06215">
        <ele>1770.666504</ele>
        <time>2011-09-24T09:04:17Z</time>
      </trkpt>
      <trkpt lat="42.57385" lon="2.06205">
        <ele>1772.49292</ele>
        <time>2011-09-24T09:04:19Z</time>
      </trkpt>
      <trkpt lat="42.57385" lon="2.06195">
        <ele>1774.352417</ele>
        <time>2011-09-24T09:04:21Z</time>
      </trkpt>
      <trkpt lat="42.57385" lon="2.06186">
        <ele>1776.228027</ele>
        <time>2011-09-24T09:04:23Z</time>
      </trkpt>
      <trkpt lat="42.57384" lon="2.06176">
        <ele>1778.020386</ele>
        <time>2011-09-24T09:04:25Z</time>
      </trkpt>
      <trkpt lat="42.57384" lon="2.06165">
        <ele>1779.78186</ele>
        <time>2011-09-24T09:04:27Z</time>
      </trkpt>
      <trkpt lat="42.57383" lon="2.06154">
        <ele>1781.554443</ele>
        <time>2011-09-24T09:04:29Z</time>
      </trkpt>
      <trkpt lat="42.57381" lon="2.06145">
        <ele>1783.297119</ele>
        <time>2011-09-24T09:04:31Z</time>
      </trkpt>
      <trkpt lat="42.57379" lon="2.06137">
        <ele>1785.077393</ele>
        <time>2011-09-24T09:04:33Z</time>
      </trkpt>
      <trkpt lat="42.57378" lon="2.06128">
        <ele>1786.932129</ele>
        <time>2011-09-24T09:04:35Z</time>
      </trkpt>
      <trkpt lat="42.57377" lon="2.06119">
        <ele>1788.854736</ele>
        <time>2011-09-24T09:04:37Z</time>
      </trkpt>
      <trkpt lat="42.57376" lon="2.0611">
        <ele>1790.841064</ele>
        <time>2011-09-24T09:04:39Z</time>
      </trkpt>
      <trkpt lat="42.57376" lon="2.06101">
        <ele>1792.853882</ele>
        <time>2011-09-24T09:04:41Z</time>
      </trkpt>
      <trkpt lat="42.57375" lon="2.06092">
        <ele>1794.837891</ele>
        <time>2011-09-24T09:04:43Z</time>
      </trkpt>
      <trkpt lat="42.57374" lon="2.06087">
        <ele>1795.81897</ele>
        <time>2011-09-24T09:04:44Z</time>
      </trkpt>
      <trkpt lat="42.57372" lon="2.06077">
        <ele>1797.769409</ele>
        <time>2011-09-24T09:04:46Z</time>
      </trkpt>
      <trkpt lat="42.57371" lon="2.06066">
        <ele>1799.657959</ele>
        <time>2011-09-24T09:04:48Z</time>
      </trkpt>
      <trkpt lat="42.5737" lon="2.06061">
        <ele>1800.595703</ele>
        <time>2011-09-24T09:04:49Z</time>
      </trkpt>
      <trkpt lat="42.57369" lon="2.06051">
        <ele>1802.536255</ele>
        <time>2011-09-24T09:04:51Z</time>
      </trkpt>
      <trkpt lat="42.57369" lon="2.06042">
        <ele>1804.436646</ele>
        <time>2011-09-24T09:04:53Z</time>
      </trkpt>
      <trkpt lat="42.57368" lon="2.06033">
        <ele>1806.269531</ele>
        <time>2011-09-24T09:04:55Z</time>
      </trkpt>
      <trkpt lat="42.57367" lon="2.06026">
        <ele>1807.995728</ele>
        <time>2011-09-24T09:04:57Z</time>
      </trkpt>
      <trkpt lat="42.57365" lon="2.06019">
        <ele>1809.748535</ele>
        <time>2011-09-24T09:04:59Z</time>
      </trkpt>
      <trkpt lat="42.57364" lon="2.06014">
        <ele>1811.734497</ele>
        <time>2011-09-24T09:05:01Z</time>
      </trkpt>
      <trkpt lat="42.57364" lon="2.06007">
        <ele>1813.903931</ele>
        <time>2011-09-24T09:05:03Z</time>
      </trkpt>
      <trkpt lat="42.57363" lon="2.06">
        <ele>1815.920288</ele>
        <time>2011-09-24T09:05:05Z</time>
      </trkpt>
      <trkpt lat="42.57363" lon="2.05996">
        <ele>1816.932495</ele>
        <time>2011-09-24T09:05:06Z</time>
      </trkpt>
      <trkpt lat="42.57361" lon="2.05987">
        <ele>1818.967285</ele>
        <time>2011-09-24T09:05:08Z</time>
      </trkpt>
      <trkpt lat="42.57359" lon="2.05979">
        <ele>1821.022095</ele>
        <time>2011-09-24T09:05:10Z</time>
      </trkpt>
      <trkpt lat="42.57358" lon="2.05974">
        <ele>1822.108398</ele>
        <time>2011-09-24T09:05:11Z</time>
      </trkpt>
      <trkpt lat="42.57356" lon="2.05965">
        <ele>1824.319946</ele>
        <time>2011-09-24T09:05:13Z</time>
      </trkpt>
      <trkpt lat="42.57355" lon="2.05955">
        <ele>1826.486694</ele>
        <time>2011-09-24T09:05:15Z</time>
      </trkpt>
      <trkpt lat="42.57354" lon="2.05945">
        <ele>1828.640869</ele>
        <time>2011-09-24T09:05:17Z</time>
      </trkpt>
      <trkpt lat="42.57353" lon="2.05935">
        <ele>1830.86145</ele>
        <time>2011-09-24T09:05:19Z</time>
      </trkpt>
      <trkpt lat="42.57352" lon="2.05927">
        <ele>1833.197632</ele>
        <time>2011-09-24T09:05:21Z</time>
      </trkpt>
      <trkpt lat="42.57351" lon="2.05918">
        <ele>1835.587158</ele>
        <time>2011-09-24T09:05:23Z</time>
      </trkpt>
      <trkpt lat="42.57351" lon="2.05911">
        <ele>1838.084839</ele>
        <time>2011-09-24T09:05:25Z</time>
      </trkpt>
      <trkpt lat="42.57349" lon="2.05903">
        <ele>1840.607544</ele>
        <time>2011-09-24T09:05:27Z</time>
      </trkpt>
      <trkpt lat="42.57348" lon="2.05896">
        <ele>1843.126831</ele>
        <time>2011-09-24T09:05:29Z</time>
      </trkpt>
      <trkpt lat="42.57347" lon="2.05889">
        <ele>1845.807495</ele>
        <time>2011-09-24T09:05:31Z</time>
      </trkpt>
      <trkpt lat="42.57345" lon="2.05882">
        <ele>1848.697876</ele>
        <time>2011-09-24T09:05:33Z</time>
      </trkpt>
      <trkpt lat="42.57344" lon="2.05879">
        <ele>1850.240479</ele>
        <time>2011-09-24T09:05:34Z</time>
      </trkpt>
      <trkpt lat="42.57341" lon="2.05873">
        <ele>1853.449219</ele>
        <time>2011-09-24T09:05:36Z</time>
      </trkpt>
      <trkpt lat="42.57339" lon="2.05865">
        <ele>1856.766846</ele>
        <time>2011-09-24T09:05:38Z</time>
      </trkpt>
      <trkpt lat="42.57337" lon="2.05857">
        <ele>1860.064941</ele>
        <time>2011-09-24T09:05:40Z</time>
      </trkpt>
      <trkpt lat="42.57334" lon="2.05849">
        <ele>1863.394287</ele>
        <time>2011-09-24T09:05:42Z</time>
      </trkpt>
      <trkpt lat="42.57333" lon="2.05841">
        <ele>1866.732056</ele>
        <time>2011-09-24T09:05:44Z</time>
      </trkpt>
      <trkpt lat="42.57331" lon="2.05833">
        <ele>1870.108887</ele>
        <time>2011-09-24T09:05:46Z</time>
      </trkpt>
      <trkpt lat="42.57331" lon="2.05824">
        <ele>1873.365234</ele>
        <time>2011-09-24T09:05:48Z</time>
      </trkpt>
      <trkpt lat="42.57331" lon="2.05814">
        <ele>1876.469971</ele>
        <time>2011-09-24T09:05:50Z</time>
      </trkpt>
      <trkpt lat="42.5733" lon="2.05804">
        <ele>1879.588135</ele>
        <time>2011-09-24T09:05:52Z</time>
      </trkpt>
      <trkpt lat="42.57329" lon="2.05794">
        <ele>1882.723511</ele>
        <time>2011-09-24T09:05:54Z</time>
      </trkpt>
      <trkpt lat="42.57328" lon="2.05786">
        <ele>1885.850342</ele>
        <time>2011-09-24T09:05:56Z</time>
      </trkpt>
      <trkpt lat="42.57326" lon="2.05775">
        <ele>1888.770264</ele>
        <time>2011-09-24T09:05:58Z</time>
      </trkpt>
      <trkpt lat="42.57325" lon="2.05769">
        <ele>1891.677734</ele>
        <time>2011-09-24T09:06:00Z</time>
      </trkpt>
      <trkpt lat="42.57323" lon="2.05761">
        <ele>1894.520386</ele>
        <time>2011-09-24T09:06:02Z</time>
      </trkpt>
      <trkpt lat="42.57321" lon="2.05753">
        <ele>1897.312622</ele>
        <time>2011-09-24T09:06:04Z</time>
      </trkpt>
      <trkpt lat="42.57319" lon="2.05744">
        <ele>1900.168457</ele>
        <time>2011-09-24T09:06:06Z</time>
      </trkpt>
      <trkpt lat="42.57318" lon="2.05735">
        <ele>1903.123901</ele>
        <time>2011-09-24T09:06:08Z</time>
      </trkpt>
      <trkpt lat="42.57318" lon="2.05725">
        <ele>1906.133301</ele>
        <time>2011-09-24T09:06:10Z</time>
      </trkpt>
      <trkpt lat="42.57318" lon="2.05714">
        <ele>1909.196655</ele>
        <time>2011-09-24T09:06:12Z</time>
      </trkpt>
      <trkpt lat="42.57318" lon="2.05704">
        <ele>1912.264648</ele>
        <time>2011-09-24T09:06:14Z</time>
      </trkpt>
      <trkpt lat="42.57317" lon="2.05695">
        <ele>1915.301514</ele>
        <time>2011-09-24T09:06:16Z</time>
      </trkpt>
      <trkpt lat="42.57316" lon="2.05687">
        <ele>1918.297974</ele>
        <time>2011-09-24T09:06:18Z</time>
      </trkpt>
      <trkpt lat="42.57315" lon="2.05679">
        <ele>1921.266602</ele>
        <time>2011-09-24T09:06:20Z</time>
      </trkpt>
      <trkpt lat="42.57314" lon="2.05671">
        <ele>1924.18457</ele>
        <time>2011-09-24T09:06:22Z</time>
      </trkpt>
      <trkpt lat="42.57312" lon="2.05664">
        <ele>1927.095215</ele>
        <time>2011-09-24T09:06:24Z</time>
      </trkpt>
      <trkpt lat="42.5731" lon="2.05656">
        <ele>1929.949219</ele>
        <time>2011-09-24T09:06:26Z</time>
      </trkpt>
      <trkpt lat="42.57309" lon="2.05648">
        <ele>1932.779419</ele>
        <time>2011-09-24T09:06:28Z</time>
      </trkpt>
      <trkpt lat="42.57308" lon="2.05644">
        <ele>1934.179565</ele>
        <time>2011-09-24T09:06:29Z</time>
      </trkpt>
      <trkpt lat="42.57306" lon="2.05635">
        <ele>1936.945923</ele>
        <time>2011-09-24T09:06:31Z</time>
      </trkpt>
      <trkpt lat="42.57303" lon="2.05627">
        <ele>1939.636353</ele>
        <time>2011-09-24T09:06:33Z</time>
      </trkpt>
      <trkpt lat="42.57301" lon="2.05619">
        <ele>1942.271973</ele>
        <time>2011-09-24T09:06:35Z</time>
      </trkpt>
      <trkpt lat="42.57299" lon="2.05612">
        <ele>1944.973633</ele>
        <time>2011-09-24T09:06:37Z</time>
      </trkpt>
      <trkpt lat="42.57297" lon="2.05605">
        <ele>1947.780884</ele>
        <time>2011-09-24T09:06:39Z</time>
      </trkpt>
      <trkpt lat="42.57297" lon="2.05596">
        <ele>1950.758179</ele>
        <time>2011-09-24T09:06:41Z</time>
      </trkpt>
      <trkpt lat="42.57297" lon="2.05586">
        <ele>1953.875732</ele>
        <time>2011-09-24T09:06:43Z</time>
      </trkpt>
      <trkpt lat="42.57297" lon="2.05576">
        <ele>1957.04248</ele>
        <time>2011-09-24T09:06:45Z</time>
      </trkpt>
      <trkpt lat="42.57297" lon="2.05566">
        <ele>1960.189697</ele>
        <time>2011-09-24T09:06:47Z</time>
      </trkpt>
      <trkpt lat="42.57296" lon="2.05557">
        <ele>1963.32666</ele>
        <time>2011-09-24T09:06:49Z</time>
      </trkpt>
      <trkpt lat="42.57295" lon="2.05547">
        <ele>1966.476807</ele>
        <time>2011-09-24T09:06:51Z</time>
      </trkpt>
      <trkpt lat="42.57295" lon="2.05542">
        <ele>1968.026123</ele>
        <time>2011-09-24T09:06:52Z</time>
      </trkpt>
      <trkpt lat="42.57293" lon="2.05532">
        <ele>1971.099609</ele>
        <time>2011-09-24T09:06:54Z</time>
      </trkpt>
      <trkpt lat="42.57292" lon="2.05522">
        <ele>1974.174805</ele>
        <time>2011-09-24T09:06:56Z</time>
      </trkpt>
      <trkpt lat="42.57289" lon="2.05512">
        <ele>1977.197266</ele>
        <time>2011-09-24T09:06:58Z</time>
      </trkpt>
      <trkpt lat="42.57287" lon="2.05503">
        <ele>1980.108154</ele>
        <time>2011-09-24T09:07:00Z</time>
      </trkpt>
      <trkpt lat="42.57284" lon="2.05496">
        <ele>1982.873657</ele>
        <time>2011-09-24T09:07:02Z</time>
      </trkpt>
      <trkpt lat="42.57281" lon="2.0549">
        <ele>1985.546753</ele>
        <time>2011-09-24T09:07:04Z</time>
      </trkpt>
      <trkpt lat="42.5728" lon="2.05487">
        <ele>1986.867432</ele>
        <time>2011-09-24T09:07:05Z</time>
      </trkpt>
      <trkpt lat="42.57277" lon="2.05481">
        <ele>1989.519287</ele>
        <time>2011-09-24T09:07:07Z</time>
      </trkpt>
      <trkpt lat="42.57274" lon="2.05473">
        <ele>1992.138428</ele>
        <time>2011-09-24T09:07:09Z</time>
      </trkpt>
      <trkpt lat="42.57272" lon="2.05465">
        <ele>1994.834106</ele>
        <time>2011-09-24T09:07:11Z</time>
      </trkpt>
      <trkpt lat="42.57271" lon="2.05458">
        <ele>1997.544434</ele>
        <time>2011-09-24T09:07:13Z</time>
      </trkpt>
      <trkpt lat="42.5727" lon="2.05451">
        <ele>2000.353882</ele>
        <time>2011-09-24T09:07:15Z</time>
      </trkpt>
      <trkpt lat="42.57269" lon="2.05444">
        <ele>2003.249878</ele>
        <time>2011-09-24T09:07:17Z</time>
      </trkpt>
      <trkpt lat="42.57268" lon="2.05435">
        <ele>2006.26062</ele>
        <time>2011-09-24T09:07:19Z</time>
      </trkpt>
      <trkpt lat="42.57268" lon="2.05426">
        <ele>2009.353149</ele>
        <time>2011-09-24T09:07:21Z</time>
      </trkpt>
      <trkpt lat="42.57268" lon="2.05417">
        <ele>2012.403687</ele>
        <time>2011-09-24T09:07:23Z</time>
      </trkpt>
      <trkpt lat="42.57267" lon="2.05409">
        <ele>2015.401489</ele>
        <time>2011-09-24T09:07:25Z</time>
      </trkpt>
      <trkpt lat="42.57267" lon="2.05405">
        <ele>2016.883179</ele>
        <time>2011-09-24T09:07:26Z</time>
      </trkpt>
      <trkpt lat="42.57266" lon="2.05396">
        <ele>2019.88147</ele>
        <time>2011-09-24T09:07:28Z</time>
      </trkpt>
      <trkpt lat="42.57265" lon="2.05387">
        <ele>2022.857544</ele>
        <time>2011-09-24T09:07:30Z</time>
      </trkpt>
      <trkpt lat="42.57263" lon="2.05379">
        <ele>2025.784058</ele>
        <time>2011-09-24T09:07:32Z</time>
      </trkpt>
      <trkpt lat="42.5726" lon="2.05372">
        <ele>2028.624634</ele>
        <time>2011-09-24T09:07:34Z</time>
      </trkpt>
      <trkpt lat="42.57259" lon="2.05367">
        <ele>2031.363159</ele>
        <time>2011-09-24T09:07:36Z</time>
      </trkpt>
      <trkpt lat="42.57257" lon="2.0536">
        <ele>2035.244263</ele>
        <time>2011-09-24T09:07:39Z</time>
      </trkpt>
      <trkpt lat="42.57256" lon="2.05351">
        <ele>2044.003296</ele>
        <time>2011-09-24T09:07:49Z</time>
      </trkpt>
      <trkpt lat="42.57253" lon="2.05344">
        <ele>2046.956421</ele>
        <time>2011-09-24T09:07:57Z</time>
      </trkpt>
      <trkpt lat="42.57251" lon="2.05339">
        <ele>2050.391357</ele>
        <time>2011-09-24T09:08:00Z</time>
      </trkpt>
      <trkpt lat="42.57249" lon="2.0533">
        <ele>2053.762695</ele>
        <time>2011-09-24T09:08:03Z</time>
      </trkpt>
      <trkpt lat="42.5725" lon="2.05321">
        <ele>2056.155762</ele>
        <time>2011-09-24T09:08:05Z</time>
      </trkpt>
      <trkpt lat="42.57253" lon="2.05312">
        <ele>2058.499512</ele>
        <time>2011-09-24T09:08:07Z</time>
      </trkpt>
      <trkpt lat="42.57255" lon="2.05303">
        <ele>2060.848877</ele>
        <time>2011-09-24T09:08:09Z</time>
      </trkpt>
      <trkpt lat="42.57259" lon="2.05298">
        <ele>2081.43042</ele>
        <time>2011-09-24T09:08:54Z</time>
      </trkpt>
      <trkpt lat="42.57256" lon="2.05294">
        <ele>2086.149658</ele>
        <time>2011-09-24T09:09:24Z</time>
      </trkpt>
      <trkpt lat="42.57261" lon="2.05299">
        <ele>2087.585205</ele>
        <time>2011-09-24T09:09:59Z</time>
      </trkpt>
      <trkpt lat="42.57266" lon="2.053">
        <ele>2087.968506</ele>
        <time>2011-09-24T09:10:12Z</time>
      </trkpt>
      <trkpt lat="42.57266" lon="2.053">
        <ele>2087.976562</ele>
        <time>2011-09-24T09:10:13Z</time>
      </trkpt>
      <trkpt lat="42.57262" lon="2.05297">
        <ele>2087.790527</ele>
        <time>2011-09-24T09:10:25Z</time>
      </trkpt>
      <trkpt lat="42.57264" lon="2.0529">
        <ele>2087.005859</ele>
        <time>2011-09-24T09:10:45Z</time>
      </trkpt>
      <trkpt lat="42.5727" lon="2.05294">
        <ele>2086.77124</ele>
        <time>2011-09-24T09:10:48Z</time>
      </trkpt>
      <trkpt lat="42.57267" lon="2.05302">
        <ele>2086.635742</ele>
        <time>2011-09-24T09:10:51Z</time>
      </trkpt>
      <trkpt lat="42.57262" lon="2.05303">
        <ele>2086.921387</ele>
        <time>2011-09-24T09:10:55Z</time>
      </trkpt>
      <trkpt lat="42.57256" lon="2.05302">
        <ele>2087.611084</ele>
        <time>2011-09-24T09:11:03Z</time>
      </trkpt>
      <trkpt lat="42.57251" lon="2.05303">
        <ele>2091.348633</ele>
        <time>2011-09-24T09:11:34Z</time>
      </trkpt>
      <trkpt lat="42.57245" lon="2.05301">
        <ele>2092.077637</ele>
        <time>2011-09-24T09:11:37Z</time>
      </trkpt>
      <trkpt lat="42.57241" lon="2.05302">
        <ele>2092.333008</ele>
        <time>2011-09-24T09:11:39Z</time>
      </trkpt>
      <trkpt lat="42.57236" lon="2.05299">
        <ele>2092.700439</ele>
        <time>2011-09-24T09:11:41Z</time>
      </trkpt>
      <trkpt lat="42.5723" lon="2.05298">
        <ele>2092.981934</ele>
        <time>2011-09-24T09:11:43Z</time>
      </trkpt>
      <trkpt lat="42.57223" lon="2.05298">
        <ele>2093.230225</ele>
        <time>2011-09-24T09:11:45Z</time>
      </trkpt>
      <trkpt lat="42.57215" lon="2.05297">
        <ele>2095.335938</ele>
        <time>2011-09-24T09:11:47Z</time>
      </trkpt>
      <trkpt lat="42.57207" lon="2.05297">
        <ele>2096.864014</ele>
        <time>2011-09-24T09:11:49Z</time>
      </trkpt>
      <trkpt lat="42.572" lon="2.05297">
        <ele>2098.178955</ele>
        <time>2011-09-24T09:11:51Z</time>
      </trkpt>
      <trkpt lat="42.57192" lon="2.05296">
        <ele>2099.068359</ele>
        <time>2011-09-24T09:11:53Z</time>
      </trkpt>
      <trkpt lat="42.57185" lon="2.05294">
        <ele>2099.412598</ele>
        <time>2011-09-24T09:11:55Z</time>
      </trkpt>
      <trkpt lat="42.57178" lon="2.05293">
        <ele>2099.458496</ele>
        <time>2011-09-24T09:11:57Z</time>
      </trkpt>
      <trkpt lat="42.57172" lon="2.05292">
        <ele>2099.487549</ele>
        <time>2011-09-24T09:11:59Z</time>
      </trkpt>
      <trkpt lat="42.57167" lon="2.05291">
        <ele>2099.51001</ele>
        <time>2011-09-24T09:12:01Z</time>
      </trkpt>
      <trkpt lat="42.57162" lon="2.0529">
        <ele>2099.557373</ele>
        <time>2011-09-24T09:12:03Z</time>
      </trkpt>
      <trkpt lat="42.57157" lon="2.0529">
        <ele>2099.628418</ele>
        <time>2011-09-24T09:12:05Z</time>
      </trkpt>
      <trkpt lat="42.57153" lon="2.05291">
        <ele>2099.686768</ele>
        <time>2011-09-24T09:12:07Z</time>
      </trkpt>
      <trkpt lat="42.57148" lon="2.05292">
        <ele>2099.752686</ele>
        <time>2011-09-24T09:12:09Z</time>
      </trkpt>
      <trkpt lat="42.57141" lon="2.05293">
        <ele>2099.890381</ele>
        <time>2011-09-24T09:12:12Z</time>
      </trkpt>
      <trkpt lat="42.57135" lon="2.05294">
        <ele>2100.067383</ele>
        <time>2011-09-24T09:12:15Z</time>
      </trkpt>
      <trkpt lat="42.5713" lon="2.05294">
        <ele>2100.184814</ele>
        <time>2011-09-24T09:12:17Z</time>
      </trkpt>
      <trkpt lat="42.57124" lon="2.05294">
        <ele>2100.380371</ele>
        <time>2011-09-24T09:12:20Z</time>
      </trkpt>
      <trkpt lat="42.57119" lon="2.05292">
        <ele>2100.55542</ele>
        <time>2011-09-24T09:12:23Z</time>
      </trkpt>
      <trkpt lat="42.57114" lon="2.0529">
        <ele>2100.72998</ele>
        <time>2011-09-24T09:12:26Z</time>
      </trkpt>
      <trkpt lat="42.57109" lon="2.05287">
        <ele>2100.935059</ele>
        <time>2011-09-24T09:12:29Z</time>
      </trkpt>
      <trkpt lat="42.57104" lon="2.05285">
        <ele>2101.140869</ele>
        <time>2011-09-24T09:12:32Z</time>
      </trkpt>
      <trkpt lat="42.57099" lon="2.05281">
        <ele>2101.416992</ele>
        <time>2011-09-24T09:12:36Z</time>
      </trkpt>
      <trkpt lat="42.57095" lon="2.05276">
        <ele>2101.642334</ele>
        <time>2011-09-24T09:12:39Z</time>
      </trkpt>
      <trkpt lat="42.5709" lon="2.05272">
        <ele>2101.858887</ele>
        <time>2011-09-24T09:12:42Z</time>
      </trkpt>
      <trkpt lat="42.57086" lon="2.05267">
        <ele>2102.087891</ele>
        <time>2011-09-24T09:12:45Z</time>
      </trkpt>
      <trkpt lat="42.57082" lon="2.05261">
        <ele>2102.250977</ele>
        <time>2011-09-24T09:12:48Z</time>
      </trkpt>
      <trkpt lat="42.57078" lon="2.05255">
        <ele>2102.47998</ele>
        <time>2011-09-24T09:12:51Z</time>
      </trkpt>
      <trkpt lat="42.57074" lon="2.05251">
        <ele>2102.708496</ele>
        <time>2011-09-24T09:12:54Z</time>
      </trkpt>
      <trkpt lat="42.57069" lon="2.05247">
        <ele>2103.027832</ele>
        <time>2011-09-24T09:12:57Z</time>
      </trkpt>
      <trkpt lat="42.57065" lon="2.05242">
        <ele>2103.425537</ele>
        <time>2011-09-24T09:13:00Z</time>
      </trkpt>
      <trkpt lat="42.5706" lon="2.05239">
        <ele>2103.887695</ele>
        <time>2011-09-24T09:13:03Z</time>
      </trkpt>
      <trkpt lat="42.57054" lon="2.05237">
        <ele>2104.37793</ele>
        <time>2011-09-24T09:13:06Z</time>
      </trkpt>
      <trkpt lat="42.57048" lon="2.05236">
        <ele>2104.9104</ele>
        <time>2011-09-24T09:13:09Z</time>
      </trkpt>
      <trkpt lat="42.57044" lon="2.05232">
        <ele>2105.643311</ele>
        <time>2011-09-24T09:13:13Z</time>
      </trkpt>
      <trkpt lat="42.5704" lon="2.05228">
        <ele>2106.768311</ele>
        <time>2011-09-24T09:13:19Z</time>
      </trkpt>
      <trkpt lat="42.57035" lon="2.0523">
        <ele>2107.486816</ele>
        <time>2011-09-24T09:13:23Z</time>
      </trkpt>
      <trkpt lat="42.57028" lon="2.05229">
        <ele>2108.01001</ele>
        <time>2011-09-24T09:13:26Z</time>
      </trkpt>
      <trkpt lat="42.57022" lon="2.05227">
        <ele>2108.360596</ele>
        <time>2011-09-24T09:13:28Z</time>
      </trkpt>
      <trkpt lat="42.57014" lon="2.05224">
        <ele>2111.30957</ele>
        <time>2011-09-24T09:13:30Z</time>
      </trkpt>
      <trkpt lat="42.57009" lon="2.05224">
        <ele>2112.30957</ele>
        <time>2011-09-24T09:13:31Z</time>
      </trkpt>
      <trkpt lat="42.57004" lon="2.05225">
        <ele>2113.142822</ele>
        <time>2011-09-24T09:13:32Z</time>
      </trkpt>
      <trkpt lat="42.56999" lon="2.05225">
        <ele>2113.745117</ele>
        <time>2011-09-24T09:13:33Z</time>
      </trkpt>
      <trkpt lat="42.56994" lon="2.05225">
        <ele>2114.172119</ele>
        <time>2011-09-24T09:13:34Z</time>
      </trkpt>
      <trkpt lat="42.56988" lon="2.05224">
        <ele>2114.460938</ele>
        <time>2011-09-24T09:13:35Z</time>
      </trkpt>
      <trkpt lat="42.56981" lon="2.05224">
        <ele>2114.601074</ele>
        <time>2011-09-24T09:13:36Z</time>
      </trkpt>
      <trkpt lat="42.56974" lon="2.05223">
        <ele>2114.594971</ele>
        <time>2011-09-24T09:13:37Z</time>
      </trkpt>
      <trkpt lat="42.56966" lon="2.05223">
        <ele>2114.450439</ele>
        <time>2011-09-24T09:13:38Z</time>
      </trkpt>
      <trkpt lat="42.56957" lon="2.05222">
        <ele>2114.267578</ele>
        <time>2011-09-24T09:13:39Z</time>
      </trkpt>
      <trkpt lat="42.56948" lon="2.05222">
        <ele>2114.124512</ele>
        <time>2011-09-24T09:13:40Z</time>
      </trkpt>
      <trkpt lat="42.56939" lon="2.05222">
        <ele>2113.942871</ele>
        <time>2011-09-24T09:13:41Z</time>
      </trkpt>
      <trkpt lat="42.5693" lon="2.05223">
        <ele>2113.665527</ele>
        <time>2011-09-24T09:13:42Z</time>
      </trkpt>
      <trkpt lat="42.56921" lon="2.05223">
        <ele>2113.380859</ele>
        <time>2011-09-24T09:13:43Z</time>
      </trkpt>
      <trkpt lat="42.56913" lon="2.05223">
        <ele>2113.058594</ele>
        <time>2011-09-24T09:13:44Z</time>
      </trkpt>
      <trkpt lat="42.56904" lon="2.05224">
        <ele>2112.777832</ele>
        <time>2011-09-24T09:13:45Z</time>
      </trkpt>
      <trkpt lat="42.56895" lon="2.05224">
        <ele>2112.548096</ele>
        <time>2011-09-24T09:13:46Z</time>
      </trkpt>
      <trkpt lat="42.56887" lon="2.05223">
        <ele>2112.355469</ele>
        <time>2011-09-24T09:13:47Z</time>
      </trkpt>
      <trkpt lat="42.56879" lon="2.05223">
        <ele>2112.264648</ele>
        <time>2011-09-24T09:13:48Z</time>
      </trkpt>
      <trkpt lat="42.56871" lon="2.05222">
        <ele>2112.172363</ele>
        <time>2011-09-24T09:13:49Z</time>
      </trkpt>
      <trkpt lat="42.56865" lon="2.05224">
        <ele>2112.157227</ele>
        <time>2011-09-24T09:13:50Z</time>
      </trkpt>
      <trkpt lat="42.5686" lon="2.05225">
        <ele>2112.031982</ele>
        <time>2011-09-24T09:13:51Z</time>
      </trkpt>
      <trkpt lat="42.56852" lon="2.05228">
        <ele>2112.105713</ele>
        <time>2011-09-24T09:13:53Z</time>
      </trkpt>
      <trkpt lat="42.56847" lon="2.05231">
        <ele>2112.180664</ele>
        <time>2011-09-24T09:13:55Z</time>
      </trkpt>
      <trkpt lat="42.56841" lon="2.05233">
        <ele>2112.38501</ele>
        <time>2011-09-24T09:13:58Z</time>
      </trkpt>
      <trkpt lat="42.56835" lon="2.05233">
        <ele>2112.403076</ele>
        <time>2011-09-24T09:14:02Z</time>
      </trkpt>
      <trkpt lat="42.56829" lon="2.05232">
        <ele>2112.292725</ele>
        <time>2011-09-24T09:14:05Z</time>
      </trkpt>
      <trkpt lat="42.56824" lon="2.05231">
        <ele>2112.207764</ele>
        <time>2011-09-24T09:14:07Z</time>
      </trkpt>
      <trkpt lat="42.56817" lon="2.05229">
        <ele>2112.131592</ele>
        <time>2011-09-24T09:14:09Z</time>
      </trkpt>
      <trkpt lat="42.56809" lon="2.05227">
        <ele>2111.800537</ele>
        <time>2011-09-24T09:14:11Z</time>
      </trkpt>
      <trkpt lat="42.568" lon="2.05223">
        <ele>2111.402344</ele>
        <time>2011-09-24T09:14:13Z</time>
      </trkpt>
      <trkpt lat="42.56796" lon="2.05221">
        <ele>2111.289551</ele>
        <time>2011-09-24T09:14:14Z</time>
      </trkpt>
      <trkpt lat="42.56792" lon="2.05219">
        <ele>2111.20752</ele>
        <time>2011-09-24T09:14:15Z</time>
      </trkpt>
      <trkpt lat="42.56786" lon="2.05219">
        <ele>2111.211914</ele>
        <time>2011-09-24T09:14:16Z</time>
      </trkpt>
      <trkpt lat="42.5678" lon="2.05218">
        <ele>2111.122559</ele>
        <time>2011-09-24T09:14:17Z</time>
      </trkpt>
      <trkpt lat="42.56769" lon="2.05218">
        <ele>2111.222168</ele>
        <time>2011-09-24T09:14:19Z</time>
      </trkpt>
      <trkpt lat="42.56761" lon="2.05216">
        <ele>2110.845703</ele>
        <time>2011-09-24T09:14:21Z</time>
      </trkpt>
      <trkpt lat="42.56755" lon="2.05218">
        <ele>2110.93335</ele>
        <time>2011-09-24T09:14:22Z</time>
      </trkpt>
      <trkpt lat="42.5675" lon="2.0522">
        <ele>2111.415527</ele>
        <time>2011-09-24T09:14:23Z</time>
      </trkpt>
      <trkpt lat="42.56743" lon="2.05221">
        <ele>2111.966064</ele>
        <time>2011-09-24T09:14:24Z</time>
      </trkpt>
      <trkpt lat="42.56737" lon="2.05221">
        <ele>2111.686035</ele>
        <time>2011-09-24T09:14:25Z</time>
      </trkpt>
      <trkpt lat="42.56731" lon="2.0522">
        <ele>2111.297852</ele>
        <time>2011-09-24T09:14:26Z</time>
      </trkpt>
      <trkpt lat="42.56726" lon="2.05221">
        <ele>2111.297852</ele>
        <time>2011-09-24T09:14:27Z</time>
      </trkpt>
      <trkpt lat="42.56719" lon="2.05218">
        <ele>2111.062744</ele>
        <time>2011-09-24T09:14:28Z</time>
      </trkpt>
      <trkpt lat="42.56712" lon="2.05218">
        <ele>2110.242676</ele>
        <time>2011-09-24T09:14:29Z</time>
      </trkpt>
      <trkpt lat="42.56705" lon="2.05216">
        <ele>2109.659668</ele>
        <time>2011-09-24T09:14:30Z</time>
      </trkpt>
      <trkpt lat="42.56697" lon="2.05213">
        <ele>2109.292725</ele>
        <time>2011-09-24T09:14:31Z</time>
      </trkpt>
      <trkpt lat="42.56688" lon="2.05208">
        <ele>2108.957275</ele>
        <time>2011-09-24T09:14:32Z</time>
      </trkpt>
      <trkpt lat="42.56678" lon="2.05202">
        <ele>2108.303711</ele>
        <time>2011-09-24T09:14:33Z</time>
      </trkpt>
      <trkpt lat="42.56668" lon="2.05196">
        <ele>2107.532715</ele>
        <time>2011-09-24T09:14:34Z</time>
      </trkpt>
      <trkpt lat="42.56657" lon="2.05195">
        <ele>2106.385986</ele>
        <time>2011-09-24T09:14:35Z</time>
      </trkpt>
      <trkpt lat="42.5665" lon="2.05194">
        <ele>2105.216797</ele>
        <time>2011-09-24T09:14:36Z</time>
      </trkpt>
      <trkpt lat="42.56641" lon="2.05191">
        <ele>2104.975586</ele>
        <time>2011-09-24T09:14:38Z</time>
      </trkpt>
      <trkpt lat="42.56636" lon="2.05191">
        <ele>2104.865723</ele>
        <time>2011-09-24T09:14:39Z</time>
      </trkpt>
      <trkpt lat="42.56631" lon="2.05193">
        <ele>2103.776611</ele>
        <time>2011-09-24T09:14:40Z</time>
      </trkpt>
      <trkpt lat="42.56623" lon="2.05193">
        <ele>2103.562256</ele>
        <time>2011-09-24T09:14:42Z</time>
      </trkpt>
      <trkpt lat="42.56618" lon="2.05193">
        <ele>2102.076172</ele>
        <time>2011-09-24T09:14:43Z</time>
      </trkpt>
      <trkpt lat="42.56613" lon="2.05191">
        <ele>2100.822998</ele>
        <time>2011-09-24T09:14:44Z</time>
      </trkpt>
      <trkpt lat="42.56607" lon="2.05193">
        <ele>2099.802002</ele>
        <time>2011-09-24T09:14:45Z</time>
      </trkpt>
      <trkpt lat="42.56602" lon="2.05194">
        <ele>2098.901855</ele>
        <time>2011-09-24T09:14:46Z</time>
      </trkpt>
      <trkpt lat="42.56597" lon="2.05196">
        <ele>2098.224121</ele>
        <time>2011-09-24T09:14:47Z</time>
      </trkpt>
      <trkpt lat="42.56591" lon="2.05198">
        <ele>2097.751221</ele>
        <time>2011-09-24T09:14:48Z</time>
      </trkpt>
      <trkpt lat="42.56584" lon="2.05197">
        <ele>2097.408936</ele>
        <time>2011-09-24T09:14:49Z</time>
      </trkpt>
      <trkpt lat="42.56577" lon="2.05196">
        <ele>2096.983887</ele>
        <time>2011-09-24T09:14:50Z</time>
      </trkpt>
      <trkpt lat="42.5657" lon="2.05195">
        <ele>2096.614746</ele>
        <time>2011-09-24T09:14:51Z</time>
      </trkpt>
      <trkpt lat="42.56563" lon="2.05196">
        <ele>2096.194824</ele>
        <time>2011-09-24T09:14:52Z</time>
      </trkpt>
      <trkpt lat="42.56557" lon="2.05196">
        <ele>2095.664795</ele>
        <time>2011-09-24T09:14:53Z</time>
      </trkpt>
      <trkpt lat="42.5655" lon="2.05198">
        <ele>2095.221924</ele>
        <time>2011-09-24T09:14:54Z</time>
      </trkpt>
      <trkpt lat="42.56543" lon="2.05201">
        <ele>2095.040527</ele>
        <time>2011-09-24T09:14:55Z</time>
      </trkpt>
      <trkpt lat="42.56536" lon="2.05204">
        <ele>2095.043457</ele>
        <time>2011-09-24T09:14:56Z</time>
      </trkpt>
      <trkpt lat="42.56529" lon="2.05208">
        <ele>2095.056885</ele>
        <time>2011-09-24T09:14:57Z</time>
      </trkpt>
      <trkpt lat="42.56523" lon="2.05211">
        <ele>2094.937988</ele>
        <time>2011-09-24T09:14:58Z</time>
      </trkpt>
      <trkpt lat="42.56516" lon="2.05214">
        <ele>2094.756348</ele>
        <time>2011-09-24T09:14:59Z</time>
      </trkpt>
      <trkpt lat="42.5651" lon="2.05219">
        <ele>2094.654053</ele>
        <time>2011-09-24T09:15:00Z</time>
      </trkpt>
      <trkpt lat="42.56505" lon="2.05223">
        <ele>2094.383789</ele>
        <time>2011-09-24T09:15:01Z</time>
      </trkpt>
      <trkpt lat="42.56499" lon="2.05228">
        <ele>2093.644043</ele>
        <time>2011-09-24T09:15:02Z</time>
      </trkpt>
      <trkpt lat="42.56493" lon="2.05232">
        <ele>2092.468994</ele>
        <time>2011-09-24T09:15:03Z</time>
      </trkpt>
      <trkpt lat="42.56488" lon="2.05237">
        <ele>2090.804688</ele>
        <time>2011-09-24T09:15:04Z</time>
      </trkpt>
      <trkpt lat="42.56482" lon="2.05241">
        <ele>2088.876709</ele>
        <time>2011-09-24T09:15:05Z</time>
      </trkpt>
      <trkpt lat="42.56476" lon="2.05245">
        <ele>2086.747314</ele>
        <time>2011-09-24T09:15:06Z</time>
      </trkpt>
      <trkpt lat="42.56471" lon="2.05248">
        <ele>2084.708496</ele>
        <time>2011-09-24T09:15:07Z</time>
      </trkpt>
      <trkpt lat="42.56466" lon="2.05252">
        <ele>2082.925781</ele>
        <time>2011-09-24T09:15:08Z</time>
      </trkpt>
      <trkpt lat="42.56462" lon="2.05255">
        <ele>2081.304443</ele>
        <time>2011-09-24T09:15:09Z</time>
      </trkpt>
      <trkpt lat="42.56458" lon="2.0526">
        <ele>2079.791748</ele>
        <time>2011-09-24T09:15:10Z</time>
      </trkpt>
      <trkpt lat="42.56454" lon="2.05264">
        <ele>2078.458252</ele>
        <time>2011-09-24T09:15:11Z</time>
      </trkpt>
      <trkpt lat="42.5645" lon="2.05268">
        <ele>2077.267578</ele>
        <time>2011-09-24T09:15:12Z</time>
      </trkpt>
      <trkpt lat="42.56446" lon="2.05272">
        <ele>2076.28125</ele>
        <time>2011-09-24T09:15:13Z</time>
      </trkpt>
      <trkpt lat="42.56443" lon="2.05277">
        <ele>2075.453857</ele>
        <time>2011-09-24T09:15:14Z</time>
      </trkpt>
      <trkpt lat="42.56439" lon="2.05283">
        <ele>2075.298828</ele>
        <time>2011-09-24T09:15:16Z</time>
      </trkpt>
      <trkpt lat="42.56434" lon="2.05289">
        <ele>2075.06543</ele>
        <time>2011-09-24T09:15:18Z</time>
      </trkpt>
      <trkpt lat="42.56428" lon="2.05293">
        <ele>2074.757812</ele>
        <time>2011-09-24T09:15:20Z</time>
      </trkpt>
      <trkpt lat="42.56421" lon="2.05293">
        <ele>2074.386475</ele>
        <time>2011-09-24T09:15:22Z</time>
      </trkpt>
      <trkpt lat="42.56414" lon="2.05295">
        <ele>2072.04126</ele>
        <time>2011-09-24T09:15:24Z</time>
      </trkpt>
      <trkpt lat="42.56407" lon="2.05302">
        <ele>2068.630371</ele>
        <time>2011-09-24T09:15:26Z</time>
      </trkpt>
      <trkpt lat="42.564" lon="2.0531">
        <ele>2066.200928</ele>
        <time>2011-09-24T09:15:28Z</time>
      </trkpt>
      <trkpt lat="42.56396" lon="2.05315">
        <ele>2065.106934</ele>
        <time>2011-09-24T09:15:29Z</time>
      </trkpt>
      <trkpt lat="42.56391" lon="2.05318">
        <ele>2064.037354</ele>
        <time>2011-09-24T09:15:30Z</time>
      </trkpt>
      <trkpt lat="42.56387" lon="2.05321">
        <ele>2062.930176</ele>
        <time>2011-09-24T09:15:31Z</time>
      </trkpt>
      <trkpt lat="42.56383" lon="2.05324">
        <ele>2061.842041</ele>
        <time>2011-09-24T09:15:32Z</time>
      </trkpt>
      <trkpt lat="42.56379" lon="2.05329">
        <ele>2060.812256</ele>
        <time>2011-09-24T09:15:33Z</time>
      </trkpt>
      <trkpt lat="42.56376" lon="2.05336">
        <ele>2060.60376</ele>
        <time>2011-09-24T09:15:35Z</time>
      </trkpt>
      <trkpt lat="42.56372" lon="2.05347">
        <ele>2058.734375</ele>
        <time>2011-09-24T09:15:37Z</time>
      </trkpt>
      <trkpt lat="42.5637" lon="2.05354">
        <ele>2057.966064</ele>
        <time>2011-09-24T09:15:38Z</time>
      </trkpt>
      <trkpt lat="42.56365" lon="2.05359">
        <ele>2057.433838</ele>
        <time>2011-09-24T09:15:39Z</time>
      </trkpt>
      <trkpt lat="42.56359" lon="2.05364">
        <ele>2057.304688</ele>
        <time>2011-09-24T09:15:40Z</time>
      </trkpt>
      <trkpt lat="42.56352" lon="2.05369">
        <ele>2057.340332</ele>
        <time>2011-09-24T09:15:41Z</time>
      </trkpt>
      <trkpt lat="42.56343" lon="2.05376">
        <ele>2057.179932</ele>
        <time>2011-09-24T09:15:42Z</time>
      </trkpt>
      <trkpt lat="42.56335" lon="2.05383">
        <ele>2057.142578</ele>
        <time>2011-09-24T09:15:43Z</time>
      </trkpt>
      <trkpt lat="42.56328" lon="2.0539">
        <ele>2057.239502</ele>
        <time>2011-09-24T09:15:44Z</time>
      </trkpt>
      <trkpt lat="42.56324" lon="2.05394">
        <ele>2057.129395</ele>
        <time>2011-09-24T09:15:45Z</time>
      </trkpt>
      <trkpt lat="42.56319" lon="2.05399">
        <ele>2056.709473</ele>
        <time>2011-09-24T09:15:55Z</time>
      </trkpt>
      <trkpt lat="42.56312" lon="2.05404">
        <ele>2055.037842</ele>
        <time>2011-09-24T09:15:57Z</time>
      </trkpt>
      <trkpt lat="42.56309" lon="2.05409">
        <ele>2053.494385</ele>
        <time>2011-09-24T09:15:58Z</time>
      </trkpt>
      <trkpt lat="42.56306" lon="2.05414">
        <ele>2051.917236</ele>
        <time>2011-09-24T09:15:59Z</time>
      </trkpt>
      <trkpt lat="42.56302" lon="2.05418">
        <ele>2050.39502</ele>
        <time>2011-09-24T09:16:00Z</time>
      </trkpt>
      <trkpt lat="42.56298" lon="2.05421">
        <ele>2048.768555</ele>
        <time>2011-09-24T09:16:01Z</time>
      </trkpt>
      <trkpt lat="42.56291" lon="2.05427">
        <ele>2046.608032</ele>
        <time>2011-09-24T09:16:03Z</time>
      </trkpt>
      <trkpt lat="42.56287" lon="2.05432">
        <ele>2044.94104</ele>
        <time>2011-09-24T09:16:04Z</time>
      </trkpt>
      <trkpt lat="42.56282" lon="2.05436">
        <ele>2043.617065</ele>
        <time>2011-09-24T09:16:05Z</time>
      </trkpt>
      <trkpt lat="42.56278" lon="2.05443">
        <ele>2042.876831</ele>
        <time>2011-09-24T09:16:06Z</time>
      </trkpt>
      <trkpt lat="42.56274" lon="2.0545">
        <ele>2041.934204</ele>
        <time>2011-09-24T09:16:07Z</time>
      </trkpt>
      <trkpt lat="42.5627" lon="2.05457">
        <ele>2041.338257</ele>
        <time>2011-09-24T09:16:08Z</time>
      </trkpt>
      <trkpt lat="42.56266" lon="2.05464">
        <ele>2040.424683</ele>
        <time>2011-09-24T09:16:09Z</time>
      </trkpt>
      <trkpt lat="42.56262" lon="2.05471">
        <ele>2040.035278</ele>
        <time>2011-09-24T09:16:10Z</time>
      </trkpt>
      <trkpt lat="42.56258" lon="2.05477">
        <ele>2040.183228</ele>
        <time>2011-09-24T09:16:11Z</time>
      </trkpt>
      <trkpt lat="42.56253" lon="2.05483">
        <ele>2040.739136</ele>
        <time>2011-09-24T09:16:12Z</time>
      </trkpt>
      <trkpt lat="42.56249" lon="2.05489">
        <ele>2041.152466</ele>
        <time>2011-09-24T09:16:13Z</time>
      </trkpt>
      <trkpt lat="42.56244" lon="2.05496">
        <ele>2041.470337</ele>
        <time>2011-09-24T09:16:14Z</time>
      </trkpt>
      <trkpt lat="42.56239" lon="2.05501">
        <ele>2042.046265</ele>
        <time>2011-09-24T09:16:15Z</time>
      </trkpt>
      <trkpt lat="42.56232" lon="2.05505">
        <ele>2039.982056</ele>
        <time>2011-09-24T09:16:16Z</time>
      </trkpt>
      <trkpt lat="42.56225" lon="2.05509">
        <ele>2036.903442</ele>
        <time>2011-09-24T09:16:17Z</time>
      </trkpt>
      <trkpt lat="42.56219" lon="2.05517">
        <ele>2031.63562</ele>
        <time>2011-09-24T09:16:18Z</time>
      </trkpt>
      <trkpt lat="42.56212" lon="2.05526">
        <ele>2026.342163</ele>
        <time>2011-09-24T09:16:19Z</time>
      </trkpt>
      <trkpt lat="42.56206" lon="2.05533">
        <ele>2021.708374</ele>
        <time>2011-09-24T09:16:20Z</time>
      </trkpt>
      <trkpt lat="42.56199" lon="2.05541">
        <ele>2018.158081</ele>
        <time>2011-09-24T09:16:21Z</time>
      </trkpt>
      <trkpt lat="42.56194" lon="2.05548">
        <ele>2015.158081</ele>
        <time>2011-09-24T09:16:22Z</time>
      </trkpt>
      <trkpt lat="42.56187" lon="2.05553">
        <ele>2012.660278</ele>
        <time>2011-09-24T09:16:23Z</time>
      </trkpt>
      <trkpt lat="42.5618" lon="2.0556">
        <ele>2010.611694</ele>
        <time>2011-09-24T09:16:24Z</time>
      </trkpt>
      <trkpt lat="42.56174" lon="2.05567">
        <ele>2008.786743</ele>
        <time>2011-09-24T09:16:25Z</time>
      </trkpt>
      <trkpt lat="42.56168" lon="2.05576">
        <ele>2007.076294</ele>
        <time>2011-09-24T09:16:26Z</time>
      </trkpt>
      <trkpt lat="42.56163" lon="2.05585">
        <ele>2005.519165</ele>
        <time>2011-09-24T09:16:27Z</time>
      </trkpt>
      <trkpt lat="42.56156" lon="2.0559">
        <ele>2004.365601</ele>
        <time>2011-09-24T09:16:28Z</time>
      </trkpt>
      <trkpt lat="42.5615" lon="2.05594">
        <ele>2003.553345</ele>
        <time>2011-09-24T09:16:29Z</time>
      </trkpt>
      <trkpt lat="42.56144" lon="2.05597">
        <ele>2002.679077</ele>
        <time>2011-09-24T09:16:30Z</time>
      </trkpt>
      <trkpt lat="42.56138" lon="2.05598">
        <ele>2001.737183</ele>
        <time>2011-09-24T09:16:31Z</time>
      </trkpt>
      <trkpt lat="42.56133" lon="2.05599">
        <ele>2000.920776</ele>
        <time>2011-09-24T09:16:32Z</time>
      </trkpt>
      <trkpt lat="42.56127" lon="2.05602">
        <ele>2000.449097</ele>
        <time>2011-09-24T09:16:33Z</time>
      </trkpt>
      <trkpt lat="42.56122" lon="2.05608">
        <ele>2000.123901</ele>
        <time>2011-09-24T09:16:35Z</time>
      </trkpt>
      <trkpt lat="42.56117" lon="2.05612">
        <ele>2000.066284</ele>
        <time>2011-09-24T09:16:37Z</time>
      </trkpt>
      <trkpt lat="42.56111" lon="2.05616">
        <ele>1999.682495</ele>
        <time>2011-09-24T09:16:39Z</time>
      </trkpt>
      <trkpt lat="42.56105" lon="2.05624">
        <ele>1999.068481</ele>
        <time>2011-09-24T09:16:41Z</time>
      </trkpt>
      <trkpt lat="42.56099" lon="2.05631">
        <ele>1999.008911</ele>
        <time>2011-09-24T09:16:43Z</time>
      </trkpt>
      <trkpt lat="42.56093" lon="2.05637">
        <ele>1998.371216</ele>
        <time>2011-09-24T09:16:45Z</time>
      </trkpt>
      <trkpt lat="42.56089" lon="2.05639">
        <ele>1998.190796</ele>
        <time>2011-09-24T09:16:46Z</time>
      </trkpt>
      <trkpt lat="42.56081" lon="2.05633">
        <ele>1997.71814</ele>
        <time>2011-09-24T09:16:48Z</time>
      </trkpt>
      <trkpt lat="42.56076" lon="2.05627">
        <ele>1997.246582</ele>
        <time>2011-09-24T09:16:49Z</time>
      </trkpt>
      <trkpt lat="42.56069" lon="2.05624">
        <ele>1996.811646</ele>
        <time>2011-09-24T09:16:50Z</time>
      </trkpt>
      <trkpt lat="42.56061" lon="2.05623">
        <ele>1996.490601</ele>
        <time>2011-09-24T09:16:51Z</time>
      </trkpt>
      <trkpt lat="42.56052" lon="2.05627">
        <ele>1996.319214</ele>
        <time>2011-09-24T09:16:52Z</time>
      </trkpt>
      <trkpt lat="42.56045" lon="2.05632">
        <ele>1996.257324</ele>
        <time>2011-09-24T09:16:53Z</time>
      </trkpt>
      <trkpt lat="42.56038" lon="2.05637">
        <ele>1996.36084</ele>
        <time>2011-09-24T09:16:54Z</time>
      </trkpt>
      <trkpt lat="42.56031" lon="2.05637">
        <ele>1996.421875</ele>
        <time>2011-09-24T09:16:55Z</time>
      </trkpt>
      <trkpt lat="42.56026" lon="2.05634">
        <ele>1996.442871</ele>
        <time>2011-09-24T09:16:56Z</time>
      </trkpt>
      <trkpt lat="42.56019" lon="2.0563">
        <ele>1996.297974</ele>
        <time>2011-09-24T09:16:57Z</time>
      </trkpt>
      <trkpt lat="42.56012" lon="2.05631">
        <ele>1995.949951</ele>
        <time>2011-09-24T09:16:58Z</time>
      </trkpt>
      <trkpt lat="42.56005" lon="2.05632">
        <ele>1995.497681</ele>
        <time>2011-09-24T09:16:59Z</time>
      </trkpt>
      <trkpt lat="42.55997" lon="2.05634">
        <ele>1994.953613</ele>
        <time>2011-09-24T09:17:00Z</time>
      </trkpt>
      <trkpt lat="42.55988" lon="2.05636">
        <ele>1994.651367</ele>
        <time>2011-09-24T09:17:01Z</time>
      </trkpt>
      <trkpt lat="42.5598" lon="2.0564">
        <ele>1994.469604</ele>
        <time>2011-09-24T09:17:02Z</time>
      </trkpt>
      <trkpt lat="42.55971" lon="2.05646">
        <ele>1994.509033</ele>
        <time>2011-09-24T09:17:03Z</time>
      </trkpt>
      <trkpt lat="42.55964" lon="2.05651">
        <ele>1994.58374</ele>
        <time>2011-09-24T09:17:04Z</time>
      </trkpt>
      <trkpt lat="42.55957" lon="2.05657">
        <ele>1994.65918</ele>
        <time>2011-09-24T09:17:05Z</time>
      </trkpt>
      <trkpt lat="42.5595" lon="2.05663">
        <ele>1994.66272</ele>
        <time>2011-09-24T09:17:06Z</time>
      </trkpt>
      <trkpt lat="42.55945" lon="2.05671">
        <ele>1994.53418</ele>
        <time>2011-09-24T09:17:07Z</time>
      </trkpt>
      <trkpt lat="42.5594" lon="2.05679">
        <ele>1994.366943</ele>
        <time>2011-09-24T09:17:08Z</time>
      </trkpt>
      <trkpt lat="42.55934" lon="2.05686">
        <ele>1994.080811</ele>
        <time>2011-09-24T09:17:09Z</time>
      </trkpt>
      <trkpt lat="42.55929" lon="2.05693">
        <ele>1993.675903</ele>
        <time>2011-09-24T09:17:10Z</time>
      </trkpt>
      <trkpt lat="42.55924" lon="2.057">
        <ele>1993.324951</ele>
        <time>2011-09-24T09:17:11Z</time>
      </trkpt>
      <trkpt lat="42.55919" lon="2.05706">
        <ele>1992.918091</ele>
        <time>2011-09-24T09:17:12Z</time>
      </trkpt>
      <trkpt lat="42.55915" lon="2.05712">
        <ele>1992.507568</ele>
        <time>2011-09-24T09:17:13Z</time>
      </trkpt>
      <trkpt lat="42.5591" lon="2.05719">
        <ele>1992.073608</ele>
        <time>2011-09-24T09:17:14Z</time>
      </trkpt>
      <trkpt lat="42.55904" lon="2.05725">
        <ele>1991.6427</ele>
        <time>2011-09-24T09:17:15Z</time>
      </trkpt>
      <trkpt lat="42.55899" lon="2.05731">
        <ele>1991.199829</ele>
        <time>2011-09-24T09:17:16Z</time>
      </trkpt>
      <trkpt lat="42.55894" lon="2.05737">
        <ele>1990.818359</ele>
        <time>2011-09-24T09:17:17Z</time>
      </trkpt>
      <trkpt lat="42.55888" lon="2.05744">
        <ele>1990.485718</ele>
        <time>2011-09-24T09:17:18Z</time>
      </trkpt>
      <trkpt lat="42.55883" lon="2.0575">
        <ele>1990.14917</ele>
        <time>2011-09-24T09:17:19Z</time>
      </trkpt>
      <trkpt lat="42.55879" lon="2.05757">
        <ele>1989.72937</ele>
        <time>2011-09-24T09:17:20Z</time>
      </trkpt>
      <trkpt lat="42.55874" lon="2.05764">
        <ele>1989.425415</ele>
        <time>2011-09-24T09:17:21Z</time>
      </trkpt>
      <trkpt lat="42.5587" lon="2.05772">
        <ele>1989.090332</ele>
        <time>2011-09-24T09:17:22Z</time>
      </trkpt>
      <trkpt lat="42.55865" lon="2.0578">
        <ele>1989.030273</ele>
        <time>2011-09-24T09:17:23Z</time>
      </trkpt>
      <trkpt lat="42.55861" lon="2.05787">
        <ele>1989.00708</ele>
        <time>2011-09-24T09:17:24Z</time>
      </trkpt>
      <trkpt lat="42.55857" lon="2.05794">
        <ele>1989.031738</ele>
        <time>2011-09-24T09:17:25Z</time>
      </trkpt>
      <trkpt lat="42.55854" lon="2.05801">
        <ele>1989.059448</ele>
        <time>2011-09-24T09:17:26Z</time>
      </trkpt>
      <trkpt lat="42.55849" lon="2.05808">
        <ele>1989.10498</ele>
        <time>2011-09-24T09:17:27Z</time>
      </trkpt>
      <trkpt lat="42.55844" lon="2.05816">
        <ele>1989.061646</ele>
        <time>2011-09-24T09:17:28Z</time>
      </trkpt>
      <trkpt lat="42.55842" lon="2.05825">
        <ele>1988.931641</ele>
        <time>2011-09-24T09:17:29Z</time>
      </trkpt>
      <trkpt lat="42.5584" lon="2.05835">
        <ele>1989.054932</ele>
        <time>2011-09-24T09:17:30Z</time>
      </trkpt>
      <trkpt lat="42.5584" lon="2.05845">
        <ele>1989.443481</ele>
        <time>2011-09-24T09:17:31Z</time>
      </trkpt>
      <trkpt lat="42.5584" lon="2.05855">
        <ele>1989.667969</ele>
        <time>2011-09-24T09:17:32Z</time>
      </trkpt>
      <trkpt lat="42.5584" lon="2.05862">
        <ele>1990.085815</ele>
        <time>2011-09-24T09:17:33Z</time>
      </trkpt>
      <trkpt lat="42.5584" lon="2.05869">
        <ele>1990.085815</ele>
        <time>2011-09-24T09:17:34Z</time>
      </trkpt>
      <trkpt lat="42.55832" lon="2.05877">
        <ele>1990.07251</ele>
        <time>2011-09-24T09:17:37Z</time>
      </trkpt>
      <trkpt lat="42.55828" lon="2.05889">
        <ele>1989.345581</ele>
        <time>2011-09-24T09:17:39Z</time>
      </trkpt>
      <trkpt lat="42.55825" lon="2.05897">
        <ele>1988.451416</ele>
        <time>2011-09-24T09:17:40Z</time>
      </trkpt>
      <trkpt lat="42.55823" lon="2.05909">
        <ele>1987.399902</ele>
        <time>2011-09-24T09:17:41Z</time>
      </trkpt>
      <trkpt lat="42.55822" lon="2.0592">
        <ele>1986.386841</ele>
        <time>2011-09-24T09:17:42Z</time>
      </trkpt>
      <trkpt lat="42.55822" lon="2.05931">
        <ele>1985.437866</ele>
        <time>2011-09-24T09:17:43Z</time>
      </trkpt>
      <trkpt lat="42.55823" lon="2.0594">
        <ele>1984.517456</ele>
        <time>2011-09-24T09:17:44Z</time>
      </trkpt>
      <trkpt lat="42.55824" lon="2.05952">
        <ele>1983.38269</ele>
        <time>2011-09-24T09:17:45Z</time>
      </trkpt>
      <trkpt lat="42.55826" lon="2.05963">
        <ele>1981.944824</ele>
        <time>2011-09-24T09:17:46Z</time>
      </trkpt>
      <trkpt lat="42.55827" lon="2.05975">
        <ele>1980.205811</ele>
        <time>2011-09-24T09:17:47Z</time>
      </trkpt>
      <trkpt lat="42.55826" lon="2.05989">
        <ele>1978.34021</ele>
        <time>2011-09-24T09:17:48Z</time>
      </trkpt>
      <trkpt lat="42.55823" lon="2.06003">
        <ele>1976.32251</ele>
        <time>2011-09-24T09:17:49Z</time>
      </trkpt>
      <trkpt lat="42.55822" lon="2.06018">
        <ele>1974.459229</ele>
        <time>2011-09-24T09:17:50Z</time>
      </trkpt>
      <trkpt lat="42.55821" lon="2.06033">
        <ele>1972.650879</ele>
        <time>2011-09-24T09:17:51Z</time>
      </trkpt>
      <trkpt lat="42.55821" lon="2.0605">
        <ele>1970.506836</ele>
        <time>2011-09-24T09:17:52Z</time>
      </trkpt>
      <trkpt lat="42.55821" lon="2.06067">
        <ele>1967.977051</ele>
        <time>2011-09-24T09:17:53Z</time>
      </trkpt>
      <trkpt lat="42.55821" lon="2.0608">
        <ele>1965.210449</ele>
        <time>2011-09-24T09:17:54Z</time>
      </trkpt>
      <trkpt lat="42.5582" lon="2.06092">
        <ele>1962.677002</ele>
        <time>2011-09-24T09:17:55Z</time>
      </trkpt>
      <trkpt lat="42.55819" lon="2.06102">
        <ele>1960.494629</ele>
        <time>2011-09-24T09:17:56Z</time>
      </trkpt>
      <trkpt lat="42.55819" lon="2.06109">
        <ele>1958.47998</ele>
        <time>2011-09-24T09:17:57Z</time>
      </trkpt>
      <trkpt lat="42.55818" lon="2.0612">
        <ele>1956.000366</ele>
        <time>2011-09-24T09:17:59Z</time>
      </trkpt>
      <trkpt lat="42.55817" lon="2.06129">
        <ele>1953.610107</ele>
        <time>2011-09-24T09:18:01Z</time>
      </trkpt>
      <trkpt lat="42.55816" lon="2.06137">
        <ele>1953.146606</ele>
        <time>2011-09-24T09:18:03Z</time>
      </trkpt>
      <trkpt lat="42.55816" lon="2.06146">
        <ele>1952.621216</ele>
        <time>2011-09-24T09:18:05Z</time>
      </trkpt>
      <trkpt lat="42.55817" lon="2.06155">
        <ele>1952.112549</ele>
        <time>2011-09-24T09:18:07Z</time>
      </trkpt>
      <trkpt lat="42.55819" lon="2.06161">
        <ele>1951.582153</ele>
        <time>2011-09-24T09:18:09Z</time>
      </trkpt>
      <trkpt lat="42.5582" lon="2.06169">
        <ele>1950.744995</ele>
        <time>2011-09-24T09:18:12Z</time>
      </trkpt>
      <trkpt lat="42.55824" lon="2.06178">
        <ele>1949.11438</ele>
        <time>2011-09-24T09:18:36Z</time>
      </trkpt>
      <trkpt lat="42.5583" lon="2.06186">
        <ele>1948.477905</ele>
        <time>2011-09-24T09:18:38Z</time>
      </trkpt>
      <trkpt lat="42.55838" lon="2.06193">
        <ele>1944.805054</ele>
        <time>2011-09-24T09:18:40Z</time>
      </trkpt>
      <trkpt lat="42.55843" lon="2.06197">
        <ele>1942.134155</ele>
        <time>2011-09-24T09:18:41Z</time>
      </trkpt>
      <trkpt lat="42.55848" lon="2.06201">
        <ele>1939.529907</ele>
        <time>2011-09-24T09:18:42Z</time>
      </trkpt>
      <trkpt lat="42.55853" lon="2.06205">
        <ele>1937.197144</ele>
        <time>2011-09-24T09:18:43Z</time>
      </trkpt>
      <trkpt lat="42.55858" lon="2.06209">
        <ele>1935.035767</ele>
        <time>2011-09-24T09:18:44Z</time>
      </trkpt>
      <trkpt lat="42.55864" lon="2.06212">
        <ele>1934.66687</ele>
        <time>2011-09-24T09:18:46Z</time>
      </trkpt>
      <trkpt lat="42.55872" lon="2.06209">
        <ele>1934.128174</ele>
        <time>2011-09-24T09:18:49Z</time>
      </trkpt>
      <trkpt lat="42.55876" lon="2.06207">
        <ele>1932.278442</ele>
        <time>2011-09-24T09:18:50Z</time>
      </trkpt>
      <trkpt lat="42.55881" lon="2.06205">
        <ele>1930.824951</ele>
        <time>2011-09-24T09:18:51Z</time>
      </trkpt>
      <trkpt lat="42.55886" lon="2.06204">
        <ele>1929.772949</ele>
        <time>2011-09-24T09:18:52Z</time>
      </trkpt>
      <trkpt lat="42.55892" lon="2.06203">
        <ele>1929.005005</ele>
        <time>2011-09-24T09:18:53Z</time>
      </trkpt>
      <trkpt lat="42.55897" lon="2.06204">
        <ele>1928.359985</ele>
        <time>2011-09-24T09:18:54Z</time>
      </trkpt>
      <trkpt lat="42.55904" lon="2.06208">
        <ele>1928.258301</ele>
        <time>2011-09-24T09:18:56Z</time>
      </trkpt>
      <trkpt lat="42.55908" lon="2.06215">
        <ele>1928.1521</ele>
        <time>2011-09-24T09:18:58Z</time>
      </trkpt>
      <trkpt lat="42.55917" lon="2.06218">
        <ele>1927.615479</ele>
        <time>2011-09-24T09:19:00Z</time>
      </trkpt>
      <trkpt lat="42.55923" lon="2.0622">
        <ele>1927.162842</ele>
        <time>2011-09-24T09:19:01Z</time>
      </trkpt>
      <trkpt lat="42.55928" lon="2.06222">
        <ele>1926.660767</ele>
        <time>2011-09-24T09:19:02Z</time>
      </trkpt>
      <trkpt lat="42.55932" lon="2.06226">
        <ele>1926.604614</ele>
        <time>2011-09-24T09:19:03Z</time>
      </trkpt>
      <trkpt lat="42.55937" lon="2.06232">
        <ele>1926.498413</ele>
        <time>2011-09-24T09:19:05Z</time>
      </trkpt>
      <trkpt lat="42.55938" lon="2.06239">
        <ele>1926.397583</ele>
        <time>2011-09-24T09:19:07Z</time>
      </trkpt>
      <trkpt lat="42.55943" lon="2.06242">
        <ele>1925.880615</ele>
        <time>2011-09-24T09:19:08Z</time>
      </trkpt>
      <trkpt lat="42.5595" lon="2.06242">
        <ele>1925.272583</ele>
        <time>2011-09-24T09:19:09Z</time>
      </trkpt>
      <trkpt lat="42.55958" lon="2.06242">
        <ele>1924.771851</ele>
        <time>2011-09-24T09:19:10Z</time>
      </trkpt>
      <trkpt lat="42.55965" lon="2.06239">
        <ele>1924.424316</ele>
        <time>2011-09-24T09:19:11Z</time>
      </trkpt>
      <trkpt lat="42.55972" lon="2.06235">
        <ele>1923.968506</ele>
        <time>2011-09-24T09:19:12Z</time>
      </trkpt>
      <trkpt lat="42.55978" lon="2.06232">
        <ele>1923.257446</ele>
        <time>2011-09-24T09:19:13Z</time>
      </trkpt>
      <trkpt lat="42.55983" lon="2.0623">
        <ele>1922.386719</ele>
        <time>2011-09-24T09:19:14Z</time>
      </trkpt>
      <trkpt lat="42.5599" lon="2.06227">
        <ele>1920.96106</ele>
        <time>2011-09-24T09:19:15Z</time>
      </trkpt>
      <trkpt lat="42.55998" lon="2.06224">
        <ele>1917.887085</ele>
        <time>2011-09-24T09:19:16Z</time>
      </trkpt>
      <trkpt lat="42.56004" lon="2.06222">
        <ele>1915.247925</ele>
        <time>2011-09-24T09:19:17Z</time>
      </trkpt>
      <trkpt lat="42.5601" lon="2.06221">
        <ele>1912.911621</ele>
        <time>2011-09-24T09:19:18Z</time>
      </trkpt>
      <trkpt lat="42.56016" lon="2.06224">
        <ele>1910.683228</ele>
        <time>2011-09-24T09:19:19Z</time>
      </trkpt>
      <trkpt lat="42.56024" lon="2.06226">
        <ele>1908.516602</ele>
        <time>2011-09-24T09:19:20Z</time>
      </trkpt>
      <trkpt lat="42.56029" lon="2.06222">
        <ele>1906.799072</ele>
        <time>2011-09-24T09:19:21Z</time>
      </trkpt>
      <trkpt lat="42.56037" lon="2.06221">
        <ele>1905.520752</ele>
        <time>2011-09-24T09:19:22Z</time>
      </trkpt>
      <trkpt lat="42.56043" lon="2.06227">
        <ele>1904.087769</ele>
        <time>2011-09-24T09:19:23Z</time>
      </trkpt>
      <trkpt lat="42.56049" lon="2.06232">
        <ele>1902.484131</ele>
        <time>2011-09-24T09:19:24Z</time>
      </trkpt>
      <trkpt lat="42.56051" lon="2.06239">
        <ele>1900.681152</ele>
        <time>2011-09-24T09:19:25Z</time>
      </trkpt>
      <trkpt lat="42.56051" lon="2.0625">
        <ele>1896.820557</ele>
        <time>2011-09-24T09:19:27Z</time>
      </trkpt>
      <trkpt lat="42.56047" lon="2.06262">
        <ele>1893.536133</ele>
        <time>2011-09-24T09:19:29Z</time>
      </trkpt>
      <trkpt lat="42.56046" lon="2.06269">
        <ele>1892.040649</ele>
        <time>2011-09-24T09:19:30Z</time>
      </trkpt>
      <trkpt lat="42.56044" lon="2.06276">
        <ele>1890.74707</ele>
        <time>2011-09-24T09:19:31Z</time>
      </trkpt>
      <trkpt lat="42.56042" lon="2.06283">
        <ele>1889.745728</ele>
        <time>2011-09-24T09:19:32Z</time>
      </trkpt>
      <trkpt lat="42.56041" lon="2.06293">
        <ele>1889.074463</ele>
        <time>2011-09-24T09:19:33Z</time>
      </trkpt>
      <trkpt lat="42.56041" lon="2.06302">
        <ele>1888.35144</ele>
        <time>2011-09-24T09:19:34Z</time>
      </trkpt>
      <trkpt lat="42.56042" lon="2.06309">
        <ele>1887.89917</ele>
        <time>2011-09-24T09:19:35Z</time>
      </trkpt>
      <trkpt lat="42.56048" lon="2.06314">
        <ele>1887.406616</ele>
        <time>2011-09-24T09:19:36Z</time>
      </trkpt>
      <trkpt lat="42.56055" lon="2.06315">
        <ele>1886.873169</ele>
        <time>2011-09-24T09:19:37Z</time>
      </trkpt>
      <trkpt lat="42.56062" lon="2.06316">
        <ele>1885.868286</ele>
        <time>2011-09-24T09:19:38Z</time>
      </trkpt>
      <trkpt lat="42.56069" lon="2.06316">
        <ele>1884.084961</ele>
        <time>2011-09-24T09:19:39Z</time>
      </trkpt>
      <trkpt lat="42.56078" lon="2.06316">
        <ele>1881.516968</ele>
        <time>2011-09-24T09:19:40Z</time>
      </trkpt>
      <trkpt lat="42.56086" lon="2.06317">
        <ele>1878.906006</ele>
        <time>2011-09-24T09:19:41Z</time>
      </trkpt>
      <trkpt lat="42.56094" lon="2.0632">
        <ele>1876.488892</ele>
        <time>2011-09-24T09:19:42Z</time>
      </trkpt>
      <trkpt lat="42.56101" lon="2.06322">
        <ele>1874.319092</ele>
        <time>2011-09-24T09:19:43Z</time>
      </trkpt>
      <trkpt lat="42.56107" lon="2.06324">
        <ele>1872.307251</ele>
        <time>2011-09-24T09:19:44Z</time>
      </trkpt>
      <trkpt lat="42.56115" lon="2.06321">
        <ele>1871.91394</ele>
        <time>2011-09-24T09:19:46Z</time>
      </trkpt>
      <trkpt lat="42.56124" lon="2.06317">
        <ele>1867.949585</ele>
        <time>2011-09-24T09:19:48Z</time>
      </trkpt>
      <trkpt lat="42.56132" lon="2.06318">
        <ele>1866.054077</ele>
        <time>2011-09-24T09:19:49Z</time>
      </trkpt>
      <trkpt lat="42.5614" lon="2.06318">
        <ele>1864.322632</ele>
        <time>2011-09-24T09:19:50Z</time>
      </trkpt>
      <trkpt lat="42.56149" lon="2.06319">
        <ele>1862.892822</ele>
        <time>2011-09-24T09:19:51Z</time>
      </trkpt>
      <trkpt lat="42.56158" lon="2.06319">
        <ele>1861.66333</ele>
        <time>2011-09-24T09:19:52Z</time>
      </trkpt>
      <trkpt lat="42.56167" lon="2.0632">
        <ele>1860.540283</ele>
        <time>2011-09-24T09:19:53Z</time>
      </trkpt>
      <trkpt lat="42.56174" lon="2.0632">
        <ele>1859.506592</ele>
        <time>2011-09-24T09:19:54Z</time>
      </trkpt>
      <trkpt lat="42.5618" lon="2.06321">
        <ele>1859.352539</ele>
        <time>2011-09-24T09:19:56Z</time>
      </trkpt>
      <trkpt lat="42.56186" lon="2.06324">
        <ele>1855.175415</ele>
        <time>2011-09-24T09:21:30Z</time>
      </trkpt>
      <trkpt lat="42.56191" lon="2.06326">
        <ele>1854.266113</ele>
        <time>2011-09-24T09:21:33Z</time>
      </trkpt>
      <trkpt lat="42.56196" lon="2.06326">
        <ele>1853.547485</ele>
        <time>2011-09-24T09:21:35Z</time>
      </trkpt>
      <trkpt lat="42.56205" lon="2.06327">
        <ele>1846.773682</ele>
        <time>2011-09-24T09:21:37Z</time>
      </trkpt>
      <trkpt lat="42.5621" lon="2.06329">
        <ele>1844.533569</ele>
        <time>2011-09-24T09:21:38Z</time>
      </trkpt>
      <trkpt lat="42.56215" lon="2.06331">
        <ele>1842.164429</ele>
        <time>2011-09-24T09:21:39Z</time>
      </trkpt>
      <trkpt lat="42.56221" lon="2.06333">
        <ele>1840.192627</ele>
        <time>2011-09-24T09:21:40Z</time>
      </trkpt>
      <trkpt lat="42.56228" lon="2.06336">
        <ele>1838.62915</ele>
        <time>2011-09-24T09:21:41Z</time>
      </trkpt>
      <trkpt lat="42.56235" lon="2.0634">
        <ele>1837.270508</ele>
        <time>2011-09-24T09:21:42Z</time>
      </trkpt>
      <trkpt lat="42.56242" lon="2.06343">
        <ele>1836.243896</ele>
        <time>2011-09-24T09:21:43Z</time>
      </trkpt>
      <trkpt lat="42.5625" lon="2.06348">
        <ele>1835.375122</ele>
        <time>2011-09-24T09:21:44Z</time>
      </trkpt>
      <trkpt lat="42.56256" lon="2.06351">
        <ele>1834.666626</ele>
        <time>2011-09-24T09:21:45Z</time>
      </trkpt>
      <trkpt lat="42.56261" lon="2.06357">
        <ele>1834.210815</ele>
        <time>2011-09-24T09:21:46Z</time>
      </trkpt>
      <trkpt lat="42.56266" lon="2.06363">
        <ele>1834.391724</ele>
        <time>2011-09-24T09:21:47Z</time>
      </trkpt>
      <trkpt lat="42.5627" lon="2.0637">
        <ele>1834.411255</ele>
        <time>2011-09-24T09:21:48Z</time>
      </trkpt>
      <trkpt lat="42.56273" lon="2.06381">
        <ele>1834.488037</ele>
        <time>2011-09-24T09:21:49Z</time>
      </trkpt>
      <trkpt lat="42.56278" lon="2.0639">
        <ele>1834.786987</ele>
        <time>2011-09-24T09:21:50Z</time>
      </trkpt>
      <trkpt lat="42.56282" lon="2.06398">
        <ele>1834.786987</ele>
        <time>2011-09-24T09:21:51Z</time>
      </trkpt>
      <trkpt lat="42.56286" lon="2.06406">
        <ele>1835.523193</ele>
        <time>2011-09-24T09:21:52Z</time>
      </trkpt>
      <trkpt lat="42.56289" lon="2.06413">
        <ele>1835.068604</ele>
        <time>2011-09-24T09:21:53Z</time>
      </trkpt>
      <trkpt lat="42.56291" lon="2.06419">
        <ele>1834.304443</ele>
        <time>2011-09-24T09:21:54Z</time>
      </trkpt>
      <trkpt lat="42.56295" lon="2.06425">
        <ele>1833.969971</ele>
        <time>2011-09-24T09:21:56Z</time>
      </trkpt>
      <trkpt lat="42.563" lon="2.06436">
        <ele>1829.55249</ele>
        <time>2011-09-24T09:21:58Z</time>
      </trkpt>
      <trkpt lat="42.56303" lon="2.06445">
        <ele>1827.376465</ele>
        <time>2011-09-24T09:21:59Z</time>
      </trkpt>
      <trkpt lat="42.56306" lon="2.06455">
        <ele>1825.035034</ele>
        <time>2011-09-24T09:22:00Z</time>
      </trkpt>
      <trkpt lat="42.56309" lon="2.06466">
        <ele>1823.023926</ele>
        <time>2011-09-24T09:22:01Z</time>
      </trkpt>
      <trkpt lat="42.56311" lon="2.06478">
        <ele>1821.043213</ele>
        <time>2011-09-24T09:22:02Z</time>
      </trkpt>
      <trkpt lat="42.56313" lon="2.0649">
        <ele>1819.212158</ele>
        <time>2011-09-24T09:22:03Z</time>
      </trkpt>
      <trkpt lat="42.56314" lon="2.06502">
        <ele>1817.609985</ele>
        <time>2011-09-24T09:22:04Z</time>
      </trkpt>
      <trkpt lat="42.56315" lon="2.06513">
        <ele>1816.205688</ele>
        <time>2011-09-24T09:22:05Z</time>
      </trkpt>
      <trkpt lat="42.56317" lon="2.06523">
        <ele>1814.73877</ele>
        <time>2011-09-24T09:22:06Z</time>
      </trkpt>
      <trkpt lat="42.56321" lon="2.06532">
        <ele>1813.565796</ele>
        <time>2011-09-24T09:22:07Z</time>
      </trkpt>
      <trkpt lat="42.56325" lon="2.06541">
        <ele>1812.588257</ele>
        <time>2011-09-24T09:22:08Z</time>
      </trkpt>
      <trkpt lat="42.56329" lon="2.0655">
        <ele>1811.686157</ele>
        <time>2011-09-24T09:22:09Z</time>
      </trkpt>
      <trkpt lat="42.56332" lon="2.06558">
        <ele>1810.922607</ele>
        <time>2011-09-24T09:22:10Z</time>
      </trkpt>
      <trkpt lat="42.56334" lon="2.06567">
        <ele>1809.855591</ele>
        <time>2011-09-24T09:22:11Z</time>
      </trkpt>
      <trkpt lat="42.56335" lon="2.06576">
        <ele>1809.11145</ele>
        <time>2011-09-24T09:22:12Z</time>
      </trkpt>
      <trkpt lat="42.56335" lon="2.06584">
        <ele>1808.392212</ele>
        <time>2011-09-24T09:22:13Z</time>
      </trkpt>
      <trkpt lat="42.56335" lon="2.06592">
        <ele>1807.237427</ele>
        <time>2011-09-24T09:22:14Z</time>
      </trkpt>
      <trkpt lat="42.56335" lon="2.06599">
        <ele>1806.040649</ele>
        <time>2011-09-24T09:22:15Z</time>
      </trkpt>
      <trkpt lat="42.56334" lon="2.06607">
        <ele>1804.766846</ele>
        <time>2011-09-24T09:22:16Z</time>
      </trkpt>
      <trkpt lat="42.56334" lon="2.06614">
        <ele>1803.472046</ele>
        <time>2011-09-24T09:22:17Z</time>
      </trkpt>
      <trkpt lat="42.56333" lon="2.06621">
        <ele>1802.351562</ele>
        <time>2011-09-24T09:22:18Z</time>
      </trkpt>
      <trkpt lat="42.56334" lon="2.06628">
        <ele>1801.35437</ele>
        <time>2011-09-24T09:22:19Z</time>
      </trkpt>
      <trkpt lat="42.56335" lon="2.06634">
        <ele>1800.577026</ele>
        <time>2011-09-24T09:22:20Z</time>
      </trkpt>
      <trkpt lat="42.56337" lon="2.06641">
        <ele>1799.945557</ele>
        <time>2011-09-24T09:22:21Z</time>
      </trkpt>
      <trkpt lat="42.56338" lon="2.06647">
        <ele>1799.518066</ele>
        <time>2011-09-24T09:22:22Z</time>
      </trkpt>
      <trkpt lat="42.56338" lon="2.06654">
        <ele>1799.101318</ele>
        <time>2011-09-24T09:22:23Z</time>
      </trkpt>
      <trkpt lat="42.56339" lon="2.06662">
        <ele>1798.805054</ele>
        <time>2011-09-24T09:22:24Z</time>
      </trkpt>
      <trkpt lat="42.56339" lon="2.0667">
        <ele>1798.587036</ele>
        <time>2011-09-24T09:22:25Z</time>
      </trkpt>
      <trkpt lat="42.5634" lon="2.06679">
        <ele>1798.413208</ele>
        <time>2011-09-24T09:22:26Z</time>
      </trkpt>
      <trkpt lat="42.56341" lon="2.06689">
        <ele>1798.241089</ele>
        <time>2011-09-24T09:22:27Z</time>
      </trkpt>
      <trkpt lat="42.56342" lon="2.06699">
        <ele>1798.131348</ele>
        <time>2011-09-24T09:22:28Z</time>
      </trkpt>
      <trkpt lat="42.56342" lon="2.06707">
        <ele>1798.190186</ele>
        <time>2011-09-24T09:22:29Z</time>
      </trkpt>
      <trkpt lat="42.56341" lon="2.06714">
        <ele>1798.250244</ele>
        <time>2011-09-24T09:22:30Z</time>
      </trkpt>
      <trkpt lat="42.56339" lon="2.06721">
        <ele>1798.256348</ele>
        <time>2011-09-24T09:22:31Z</time>
      </trkpt>
      <trkpt lat="42.56338" lon="2.06728">
        <ele>1798.253784</ele>
        <time>2011-09-24T09:22:32Z</time>
      </trkpt>
      <trkpt lat="42.56338" lon="2.06736">
        <ele>1798.22937</ele>
        <time>2011-09-24T09:22:33Z</time>
      </trkpt>
      <trkpt lat="42.56338" lon="2.06744">
        <ele>1798.177734</ele>
        <time>2011-09-24T09:22:34Z</time>
      </trkpt>
      <trkpt lat="42.56338" lon="2.06751">
        <ele>1798.092529</ele>
        <time>2011-09-24T09:22:35Z</time>
      </trkpt>
      <trkpt lat="42.56339" lon="2.06757">
        <ele>1798.000366</ele>
        <time>2011-09-24T09:22:36Z</time>
      </trkpt>
      <trkpt lat="42.56339" lon="2.06764">
        <ele>1797.905396</ele>
        <time>2011-09-24T09:22:37Z</time>
      </trkpt>
      <trkpt lat="42.5634" lon="2.0677">
        <ele>1797.838257</ele>
        <time>2011-09-24T09:22:38Z</time>
      </trkpt>
      <trkpt lat="42.56341" lon="2.06779">
        <ele>1797.830933</ele>
        <time>2011-09-24T09:22:40Z</time>
      </trkpt>
      <trkpt lat="42.56343" lon="2.0679">
        <ele>1797.901489</ele>
        <time>2011-09-24T09:22:42Z</time>
      </trkpt>
      <trkpt lat="42.56348" lon="2.068">
        <ele>1797.904541</ele>
        <time>2011-09-24T09:22:44Z</time>
      </trkpt>
      <trkpt lat="42.56351" lon="2.06808">
        <ele>1797.868286</ele>
        <time>2011-09-24T09:22:46Z</time>
      </trkpt>
      <trkpt lat="42.56356" lon="2.06816">
        <ele>1797.75708</ele>
        <time>2011-09-24T09:22:48Z</time>
      </trkpt>
      <trkpt lat="42.56359" lon="2.0682">
        <ele>1796.766113</ele>
        <time>2011-09-24T09:22:49Z</time>
      </trkpt>
      <trkpt lat="42.56366" lon="2.06825">
        <ele>1796.56897</ele>
        <time>2011-09-24T09:22:51Z</time>
      </trkpt>
      <trkpt lat="42.5637" lon="2.06829">
        <ele>1795.884766</ele>
        <time>2011-09-24T09:22:52Z</time>
      </trkpt>
      <trkpt lat="42.56375" lon="2.06832">
        <ele>1795.804565</ele>
        <time>2011-09-24T09:22:53Z</time>
      </trkpt>
      <trkpt lat="42.5638" lon="2.06837">
        <ele>1796.552246</ele>
        <time>2011-09-24T09:22:54Z</time>
      </trkpt>
      <trkpt lat="42.56384" lon="2.06843">
        <ele>1797.58667</ele>
        <time>2011-09-24T09:22:55Z</time>
      </trkpt>
      <trkpt lat="42.56388" lon="2.06849">
        <ele>1798.491577</ele>
        <time>2011-09-24T09:22:56Z</time>
      </trkpt>
      <trkpt lat="42.56393" lon="2.06854">
        <ele>1799.41687</ele>
        <time>2011-09-24T09:22:57Z</time>
      </trkpt>
      <trkpt lat="42.564" lon="2.06856">
        <ele>1800.092163</ele>
        <time>2011-09-24T09:22:58Z</time>
      </trkpt>
      <trkpt lat="42.56407" lon="2.06859">
        <ele>1800.405396</ele>
        <time>2011-09-24T09:22:59Z</time>
      </trkpt>
      <trkpt lat="42.56414" lon="2.06862">
        <ele>1800.604492</ele>
        <time>2011-09-24T09:23:00Z</time>
      </trkpt>
      <trkpt lat="42.56421" lon="2.06865">
        <ele>1800.793335</ele>
        <time>2011-09-24T09:23:01Z</time>
      </trkpt>
      <trkpt lat="42.56428" lon="2.06869">
        <ele>1801.136108</ele>
        <time>2011-09-24T09:23:02Z</time>
      </trkpt>
      <trkpt lat="42.56435" lon="2.06874">
        <ele>1801.369629</ele>
        <time>2011-09-24T09:23:03Z</time>
      </trkpt>
      <trkpt lat="42.56441" lon="2.06877">
        <ele>1801.569824</ele>
        <time>2011-09-24T09:23:04Z</time>
      </trkpt>
      <trkpt lat="42.56448" lon="2.06879">
        <ele>1801.86499</ele>
        <time>2011-09-24T09:23:05Z</time>
      </trkpt>
      <trkpt lat="42.56454" lon="2.06882">
        <ele>1802.151367</ele>
        <time>2011-09-24T09:23:06Z</time>
      </trkpt>
      <trkpt lat="42.5646" lon="2.06885">
        <ele>1802.55481</ele>
        <time>2011-09-24T09:23:07Z</time>
      </trkpt>
      <trkpt lat="42.56465" lon="2.06887">
        <ele>1802.832886</ele>
        <time>2011-09-24T09:23:08Z</time>
      </trkpt>
      <trkpt lat="42.56473" lon="2.06891">
        <ele>1803.483276</ele>
        <time>2011-09-24T09:23:10Z</time>
      </trkpt>
      <trkpt lat="42.56479" lon="2.06895">
        <ele>1803.867065</ele>
        <time>2011-09-24T09:23:11Z</time>
      </trkpt>
      <trkpt lat="42.56484" lon="2.06897">
        <ele>1804.201538</ele>
        <time>2011-09-24T09:23:12Z</time>
      </trkpt>
      <trkpt lat="42.5649" lon="2.069">
        <ele>1804.490112</ele>
        <time>2011-09-24T09:23:13Z</time>
      </trkpt>
      <trkpt lat="42.56495" lon="2.06903">
        <ele>1804.765259</ele>
        <time>2011-09-24T09:23:14Z</time>
      </trkpt>
      <trkpt lat="42.565" lon="2.06905">
        <ele>1804.93811</ele>
        <time>2011-09-24T09:23:15Z</time>
      </trkpt>
      <trkpt lat="42.56505" lon="2.06908">
        <ele>1805.202026</ele>
        <time>2011-09-24T09:23:16Z</time>
      </trkpt>
      <trkpt lat="42.56509" lon="2.06911">
        <ele>1805.429199</ele>
        <time>2011-09-24T09:23:17Z</time>
      </trkpt>
      <trkpt lat="42.56514" lon="2.06914">
        <ele>1805.460815</ele>
        <time>2011-09-24T09:23:18Z</time>
      </trkpt>
      <trkpt lat="42.56518" lon="2.06916">
        <ele>1805.39917</ele>
        <time>2011-09-24T09:23:19Z</time>
      </trkpt>
      <trkpt lat="42.56522" lon="2.06921">
        <ele>1805.223267</ele>
        <time>2011-09-24T09:23:20Z</time>
      </trkpt>
      <trkpt lat="42.56528" lon="2.06932">
        <ele>1805.337646</ele>
        <time>2011-09-24T09:23:22Z</time>
      </trkpt>
      <trkpt lat="42.56533" lon="2.06938">
        <ele>1805.503662</ele>
        <time>2011-09-24T09:23:23Z</time>
      </trkpt>
      <trkpt lat="42.56536" lon="2.06941">
        <ele>1805.710327</ele>
        <time>2011-09-24T09:23:24Z</time>
      </trkpt>
      <trkpt lat="42.56542" lon="2.06947">
        <ele>1805.72522</ele>
        <time>2011-09-24T09:23:26Z</time>
      </trkpt>
      <trkpt lat="42.56548" lon="2.0695">
        <ele>1805.795898</ele>
        <time>2011-09-24T09:23:28Z</time>
      </trkpt>
      <trkpt lat="42.56552" lon="2.06955">
        <ele>1805.860474</ele>
        <time>2011-09-24T09:23:30Z</time>
      </trkpt>
      <trkpt lat="42.56557" lon="2.0696">
        <ele>1805.927124</ele>
        <time>2011-09-24T09:23:32Z</time>
      </trkpt>
      <trkpt lat="42.56564" lon="2.06962">
        <ele>1806.018433</ele>
        <time>2011-09-24T09:23:34Z</time>
      </trkpt>
      <trkpt lat="42.5657" lon="2.06963">
        <ele>1806.851562</ele>
        <time>2011-09-24T09:23:35Z</time>
      </trkpt>
      <trkpt lat="42.56579" lon="2.06965">
        <ele>1807.827148</ele>
        <time>2011-09-24T09:23:37Z</time>
      </trkpt>
      <trkpt lat="42.56587" lon="2.06966">
        <ele>1807.816284</ele>
        <time>2011-09-24T09:23:39Z</time>
      </trkpt>
      <trkpt lat="42.56596" lon="2.06968">
        <ele>1807.738525</ele>
        <time>2011-09-24T09:23:41Z</time>
      </trkpt>
      <trkpt lat="42.56602" lon="2.0697">
        <ele>1807.055908</ele>
        <time>2011-09-24T09:23:42Z</time>
      </trkpt>
      <trkpt lat="42.56608" lon="2.06972">
        <ele>1806.556641</ele>
        <time>2011-09-24T09:23:43Z</time>
      </trkpt>
      <trkpt lat="42.56615" lon="2.06974">
        <ele>1806.061768</ele>
        <time>2011-09-24T09:23:44Z</time>
      </trkpt>
      <trkpt lat="42.56623" lon="2.06977">
        <ele>1805.848755</ele>
        <time>2011-09-24T09:23:45Z</time>
      </trkpt>
      <trkpt lat="42.56632" lon="2.06981">
        <ele>1805.343018</ele>
        <time>2011-09-24T09:23:46Z</time>
      </trkpt>
      <trkpt lat="42.5664" lon="2.06984">
        <ele>1804.71167</ele>
        <time>2011-09-24T09:23:47Z</time>
      </trkpt>
      <trkpt lat="42.56648" lon="2.06985">
        <ele>1804.041626</ele>
        <time>2011-09-24T09:23:48Z</time>
      </trkpt>
      <trkpt lat="42.56654" lon="2.06985">
        <ele>1803.331055</ele>
        <time>2011-09-24T09:23:49Z</time>
      </trkpt>
      <trkpt lat="42.5666" lon="2.06985">
        <ele>1802.572754</ele>
        <time>2011-09-24T09:23:50Z</time>
      </trkpt>
      <trkpt lat="42.56666" lon="2.06985">
        <ele>1802.025635</ele>
        <time>2011-09-24T09:23:51Z</time>
      </trkpt>
      <trkpt lat="42.56671" lon="2.06984">
        <ele>1801.973022</ele>
        <time>2011-09-24T09:23:52Z</time>
      </trkpt>
      <trkpt lat="42.56676" lon="2.06984">
        <ele>1801.906372</ele>
        <time>2011-09-24T09:23:53Z</time>
      </trkpt>
      <trkpt lat="42.56681" lon="2.06985">
        <ele>1801.804199</ele>
        <time>2011-09-24T09:23:54Z</time>
      </trkpt>
      <trkpt lat="42.56686" lon="2.06987">
        <ele>1801.68042</ele>
        <time>2011-09-24T09:23:55Z</time>
      </trkpt>
      <trkpt lat="42.5669" lon="2.06988">
        <ele>1801.518066</ele>
        <time>2011-09-24T09:23:56Z</time>
      </trkpt>
      <trkpt lat="42.56695" lon="2.06989">
        <ele>1799.727539</ele>
        <time>2011-09-24T09:23:57Z</time>
      </trkpt>
      <trkpt lat="42.567" lon="2.06988">
        <ele>1798.5</ele>
        <time>2011-09-24T09:23:58Z</time>
      </trkpt>
      <trkpt lat="42.56709" lon="2.06987">
        <ele>1798.253418</ele>
        <time>2011-09-24T09:24:00Z</time>
      </trkpt>
      <trkpt lat="42.56715" lon="2.06985">
        <ele>1797.915283</ele>
        <time>2011-09-24T09:24:01Z</time>
      </trkpt>
      <trkpt lat="42.56724" lon="2.0698">
        <ele>1793.311401</ele>
        <time>2011-09-24T09:24:02Z</time>
      </trkpt>
      <trkpt lat="42.56732" lon="2.06976">
        <ele>1788.94812</ele>
        <time>2011-09-24T09:24:03Z</time>
      </trkpt>
      <trkpt lat="42.56739" lon="2.06972">
        <ele>1785.095703</ele>
        <time>2011-09-24T09:24:04Z</time>
      </trkpt>
      <trkpt lat="42.56746" lon="2.06968">
        <ele>1781.573853</ele>
        <time>2011-09-24T09:24:05Z</time>
      </trkpt>
      <trkpt lat="42.56752" lon="2.06966">
        <ele>1778.712402</ele>
        <time>2011-09-24T09:24:06Z</time>
      </trkpt>
      <trkpt lat="42.56758" lon="2.06965">
        <ele>1776.598511</ele>
        <time>2011-09-24T09:24:07Z</time>
      </trkpt>
      <trkpt lat="42.56764" lon="2.06964">
        <ele>1775.159912</ele>
        <time>2011-09-24T09:24:08Z</time>
      </trkpt>
      <trkpt lat="42.56769" lon="2.06963">
        <ele>1774.127686</ele>
        <time>2011-09-24T09:24:09Z</time>
      </trkpt>
      <trkpt lat="42.56774" lon="2.06961">
        <ele>1774.05481</ele>
        <time>2011-09-24T09:24:10Z</time>
      </trkpt>
      <trkpt lat="42.56781" lon="2.06957">
        <ele>1773.920532</ele>
        <time>2011-09-24T09:24:12Z</time>
      </trkpt>
      <trkpt lat="42.56789" lon="2.06953">
        <ele>1773.214355</ele>
        <time>2011-09-24T09:24:14Z</time>
      </trkpt>
      <trkpt lat="42.56794" lon="2.06951">
        <ele>1772.692627</ele>
        <time>2011-09-24T09:24:15Z</time>
      </trkpt>
      <trkpt lat="42.56799" lon="2.06948">
        <ele>1772.243286</ele>
        <time>2011-09-24T09:24:16Z</time>
      </trkpt>
      <trkpt lat="42.56804" lon="2.06946">
        <ele>1771.82312</ele>
        <time>2011-09-24T09:24:17Z</time>
      </trkpt>
      <trkpt lat="42.5681" lon="2.06943">
        <ele>1771.471924</ele>
        <time>2011-09-24T09:24:18Z</time>
      </trkpt>
      <trkpt lat="42.56816" lon="2.0694">
        <ele>1771.195557</ele>
        <time>2011-09-24T09:24:19Z</time>
      </trkpt>
      <trkpt lat="42.56822" lon="2.06936">
        <ele>1770.95874</ele>
        <time>2011-09-24T09:24:20Z</time>
      </trkpt>
      <trkpt lat="42.56829" lon="2.06932">
        <ele>1770.700806</ele>
        <time>2011-09-24T09:24:21Z</time>
      </trkpt>
      <trkpt lat="42.56835" lon="2.06931">
        <ele>1770.424561</ele>
        <time>2011-09-24T09:24:22Z</time>
      </trkpt>
      <trkpt lat="42.56843" lon="2.06932">
        <ele>1770.140015</ele>
        <time>2011-09-24T09:24:23Z</time>
      </trkpt>
      <trkpt lat="42.56849" lon="2.06933">
        <ele>1769.877563</ele>
        <time>2011-09-24T09:24:24Z</time>
      </trkpt>
      <trkpt lat="42.56854" lon="2.06933">
        <ele>1769.741089</ele>
        <time>2011-09-24T09:24:25Z</time>
      </trkpt>
      <trkpt lat="42.56861" lon="2.06939">
        <ele>1769.786987</ele>
        <time>2011-09-24T09:24:27Z</time>
      </trkpt>
      <trkpt lat="42.56864" lon="2.06944">
        <ele>1769.758057</ele>
        <time>2011-09-24T09:24:28Z</time>
      </trkpt>
      <trkpt lat="42.56868" lon="2.06949">
        <ele>1769.762695</ele>
        <time>2011-09-24T09:24:29Z</time>
      </trkpt>
      <trkpt lat="42.56873" lon="2.06953">
        <ele>1769.782227</ele>
        <time>2011-09-24T09:24:30Z</time>
      </trkpt>
      <trkpt lat="42.56878" lon="2.06954">
        <ele>1769.918091</ele>
        <time>2011-09-24T09:24:31Z</time>
      </trkpt>
      <trkpt lat="42.56884" lon="2.06957">
        <ele>1770.226807</ele>
        <time>2011-09-24T09:24:32Z</time>
      </trkpt>
      <trkpt lat="42.56891" lon="2.06959">
        <ele>1770.198364</ele>
        <time>2011-09-24T09:24:33Z</time>
      </trkpt>
      <trkpt lat="42.56899" lon="2.06958">
        <ele>1770.158447</ele>
        <time>2011-09-24T09:24:34Z</time>
      </trkpt>
      <trkpt lat="42.56907" lon="2.06957">
        <ele>1769.913818</ele>
        <time>2011-09-24T09:24:35Z</time>
      </trkpt>
      <trkpt lat="42.56916" lon="2.06955">
        <ele>1769.415039</ele>
        <time>2011-09-24T09:24:36Z</time>
      </trkpt>
      <trkpt lat="42.56925" lon="2.06952">
        <ele>1768.645142</ele>
        <time>2011-09-24T09:24:37Z</time>
      </trkpt>
      <trkpt lat="42.56938" lon="2.06947">
        <ele>1764.653931</ele>
        <time>2011-09-24T09:24:38Z</time>
      </trkpt>
      <trkpt lat="42.56949" lon="2.06946">
        <ele>1760.11145</ele>
        <time>2011-09-24T09:24:39Z</time>
      </trkpt>
      <trkpt lat="42.56959" lon="2.06945">
        <ele>1755.649658</ele>
        <time>2011-09-24T09:24:40Z</time>
      </trkpt>
      <trkpt lat="42.56969" lon="2.0694">
        <ele>1751.697388</ele>
        <time>2011-09-24T09:24:41Z</time>
      </trkpt>
      <trkpt lat="42.56976" lon="2.06933">
        <ele>1748.449707</ele>
        <time>2011-09-24T09:24:42Z</time>
      </trkpt>
      <trkpt lat="42.56982" lon="2.06926">
        <ele>1745.813721</ele>
        <time>2011-09-24T09:24:43Z</time>
      </trkpt>
      <trkpt lat="42.56987" lon="2.06919">
        <ele>1743.703247</ele>
        <time>2011-09-24T09:24:44Z</time>
      </trkpt>
      <trkpt lat="42.56992" lon="2.06912">
        <ele>1742.032593</ele>
        <time>2011-09-24T09:24:45Z</time>
      </trkpt>
      <trkpt lat="42.56996" lon="2.06907">
        <ele>1740.625122</ele>
        <time>2011-09-24T09:24:46Z</time>
      </trkpt>
      <trkpt lat="42.57001" lon="2.06903">
        <ele>1739.460693</ele>
        <time>2011-09-24T09:24:47Z</time>
      </trkpt>
      <trkpt lat="42.57006" lon="2.06901">
        <ele>1738.390137</ele>
        <time>2011-09-24T09:24:48Z</time>
      </trkpt>
      <trkpt lat="42.5701" lon="2.06897">
        <ele>1737.581177</ele>
        <time>2011-09-24T09:24:49Z</time>
      </trkpt>
      <trkpt lat="42.57013" lon="2.06893">
        <ele>1737.003296</ele>
        <time>2011-09-24T09:24:50Z</time>
      </trkpt>
      <trkpt lat="42.5702" lon="2.06886">
        <ele>1736.422241</ele>
        <time>2011-09-24T09:24:52Z</time>
      </trkpt>
      <trkpt lat="42.57024" lon="2.0688">
        <ele>1736.392456</ele>
        <time>2011-09-24T09:24:54Z</time>
      </trkpt>
      <trkpt lat="42.57028" lon="2.06875">
        <ele>1736.379639</ele>
        <time>2011-09-24T09:24:56Z</time>
      </trkpt>
      <trkpt lat="42.57031" lon="2.06871">
        <ele>1736.403564</ele>
        <time>2011-09-24T09:24:58Z</time>
      </trkpt>
      <trkpt lat="42.57035" lon="2.06864">
        <ele>1736.489624</ele>
        <time>2011-09-24T09:25:01Z</time>
      </trkpt>
      <trkpt lat="42.57039" lon="2.06859">
        <ele>1736.554932</ele>
        <time>2011-09-24T09:25:03Z</time>
      </trkpt>
      <trkpt lat="42.57045" lon="2.06854">
        <ele>1736.616211</ele>
        <time>2011-09-24T09:25:05Z</time>
      </trkpt>
      <trkpt lat="42.57049" lon="2.06852">
        <ele>1736.954712</ele>
        <time>2011-09-24T09:25:06Z</time>
      </trkpt>
      <trkpt lat="42.57055" lon="2.0685">
        <ele>1737.152954</ele>
        <time>2011-09-24T09:25:07Z</time>
      </trkpt>
      <trkpt lat="42.57061" lon="2.06848">
        <ele>1737.518921</ele>
        <time>2011-09-24T09:25:08Z</time>
      </trkpt>
      <trkpt lat="42.57069" lon="2.06845">
        <ele>1737.811279</ele>
        <time>2011-09-24T09:25:09Z</time>
      </trkpt>
      <trkpt lat="42.57077" lon="2.06842">
        <ele>1738.108887</ele>
        <time>2011-09-24T09:25:10Z</time>
      </trkpt>
      <trkpt lat="42.57085" lon="2.06839">
        <ele>1738.494995</ele>
        <time>2011-09-24T09:25:11Z</time>
      </trkpt>
      <trkpt lat="42.57093" lon="2.06841">
        <ele>1739.030396</ele>
        <time>2011-09-24T09:25:12Z</time>
      </trkpt>
      <trkpt lat="42.571" lon="2.06843">
        <ele>1739.403564</ele>
        <time>2011-09-24T09:25:13Z</time>
      </trkpt>
      <trkpt lat="42.57108" lon="2.06844">
        <ele>1739.703491</ele>
        <time>2011-09-24T09:25:14Z</time>
      </trkpt>
      <trkpt lat="42.57116" lon="2.06846">
        <ele>1739.821655</ele>
        <time>2011-09-24T09:25:15Z</time>
      </trkpt>
      <trkpt lat="42.57126" lon="2.06847">
        <ele>1739.987793</ele>
        <time>2011-09-24T09:25:16Z</time>
      </trkpt>
      <trkpt lat="42.57135" lon="2.06847">
        <ele>1740.157471</ele>
        <time>2011-09-24T09:25:17Z</time>
      </trkpt>
      <trkpt lat="42.57144" lon="2.06848">
        <ele>1740.157104</ele>
        <time>2011-09-24T09:25:18Z</time>
      </trkpt>
      <trkpt lat="42.57152" lon="2.06849">
        <ele>1740.102051</ele>
        <time>2011-09-24T09:25:19Z</time>
      </trkpt>
      <trkpt lat="42.5716" lon="2.06848">
        <ele>1740.216187</ele>
        <time>2011-09-24T09:25:20Z</time>
      </trkpt>
      <trkpt lat="42.57167" lon="2.06847">
        <ele>1740.283081</ele>
        <time>2011-09-24T09:25:21Z</time>
      </trkpt>
      <trkpt lat="42.57174" lon="2.06847">
        <ele>1740.300415</ele>
        <time>2011-09-24T09:25:22Z</time>
      </trkpt>
      <trkpt lat="42.57181" lon="2.06846">
        <ele>1740.299194</ele>
        <time>2011-09-24T09:25:23Z</time>
      </trkpt>
      <trkpt lat="42.57187" lon="2.06845">
        <ele>1740.258667</ele>
        <time>2011-09-24T09:25:24Z</time>
      </trkpt>
      <trkpt lat="42.57194" lon="2.06844">
        <ele>1740.224121</ele>
        <time>2011-09-24T09:25:25Z</time>
      </trkpt>
      <trkpt lat="42.57201" lon="2.06843">
        <ele>1740.063232</ele>
        <time>2011-09-24T09:25:26Z</time>
      </trkpt>
      <trkpt lat="42.57208" lon="2.06842">
        <ele>1740.18042</ele>
        <time>2011-09-24T09:25:27Z</time>
      </trkpt>
      <trkpt lat="42.57216" lon="2.0684">
        <ele>1740.506958</ele>
        <time>2011-09-24T09:25:28Z</time>
      </trkpt>
      <trkpt lat="42.57225" lon="2.06837">
        <ele>1740.574585</ele>
        <time>2011-09-24T09:25:29Z</time>
      </trkpt>
      <trkpt lat="42.57235" lon="2.06834">
        <ele>1740.198608</ele>
        <time>2011-09-24T09:25:30Z</time>
      </trkpt>
      <trkpt lat="42.57244" lon="2.06833">
        <ele>1739.75769</ele>
        <time>2011-09-24T09:25:31Z</time>
      </trkpt>
      <trkpt lat="42.57253" lon="2.06832">
        <ele>1739.302979</ele>
        <time>2011-09-24T09:25:32Z</time>
      </trkpt>
      <trkpt lat="42.57262" lon="2.06827">
        <ele>1738.898682</ele>
        <time>2011-09-24T09:25:33Z</time>
      </trkpt>
      <trkpt lat="42.57272" lon="2.06823">
        <ele>1738.671143</ele>
        <time>2011-09-24T09:25:34Z</time>
      </trkpt>
      <trkpt lat="42.57281" lon="2.06819">
        <ele>1738.539673</ele>
        <time>2011-09-24T09:25:35Z</time>
      </trkpt>
      <trkpt lat="42.57288" lon="2.06817">
        <ele>1738.759399</ele>
        <time>2011-09-24T09:25:36Z</time>
      </trkpt>
      <trkpt lat="42.57296" lon="2.06815">
        <ele>1738.716431</ele>
        <time>2011-09-24T09:25:37Z</time>
      </trkpt>
      <trkpt lat="42.57303" lon="2.06813">
        <ele>1738.685669</ele>
        <time>2011-09-24T09:25:38Z</time>
      </trkpt>
      <trkpt lat="42.5731" lon="2.0681">
        <ele>1738.381104</ele>
        <time>2011-09-24T09:25:39Z</time>
      </trkpt>
      <trkpt lat="42.57316" lon="2.06807">
        <ele>1737.052612</ele>
        <time>2011-09-24T09:25:40Z</time>
      </trkpt>
      <trkpt lat="42.57324" lon="2.06804">
        <ele>1735.14917</ele>
        <time>2011-09-24T09:25:41Z</time>
      </trkpt>
      <trkpt lat="42.57331" lon="2.06801">
        <ele>1733.025269</ele>
        <time>2011-09-24T09:25:42Z</time>
      </trkpt>
      <trkpt lat="42.57338" lon="2.06798">
        <ele>1730.710205</ele>
        <time>2011-09-24T09:25:43Z</time>
      </trkpt>
      <trkpt lat="42.57346" lon="2.06795">
        <ele>1727.947266</ele>
        <time>2011-09-24T09:25:44Z</time>
      </trkpt>
      <trkpt lat="42.57354" lon="2.06793">
        <ele>1725.354126</ele>
        <time>2011-09-24T09:25:45Z</time>
      </trkpt>
      <trkpt lat="42.57361" lon="2.06792">
        <ele>1722.910278</ele>
        <time>2011-09-24T09:25:46Z</time>
      </trkpt>
      <trkpt lat="42.57369" lon="2.06792">
        <ele>1720.721313</ele>
        <time>2011-09-24T09:25:47Z</time>
      </trkpt>
      <trkpt lat="42.57376" lon="2.06792">
        <ele>1718.621582</ele>
        <time>2011-09-24T09:25:48Z</time>
      </trkpt>
      <trkpt lat="42.57384" lon="2.06792">
        <ele>1716.890137</ele>
        <time>2011-09-24T09:25:49Z</time>
      </trkpt>
      <trkpt lat="42.57392" lon="2.06792">
        <ele>1715.571289</ele>
        <time>2011-09-24T09:25:50Z</time>
      </trkpt>
      <trkpt lat="42.574" lon="2.06794">
        <ele>1714.661499</ele>
        <time>2011-09-24T09:25:51Z</time>
      </trkpt>
      <trkpt lat="42.57409" lon="2.06796">
        <ele>1714.104614</ele>
        <time>2011-09-24T09:25:52Z</time>
      </trkpt>
      <trkpt lat="42.57419" lon="2.06798">
        <ele>1713.789551</ele>
        <time>2011-09-24T09:25:53Z</time>
      </trkpt>
      <trkpt lat="42.57428" lon="2.06796">
        <ele>1713.602661</ele>
        <time>2011-09-24T09:25:54Z</time>
      </trkpt>
      <trkpt lat="42.57437" lon="2.06792">
        <ele>1713.482666</ele>
        <time>2011-09-24T09:25:55Z</time>
      </trkpt>
      <trkpt lat="42.57444" lon="2.06785">
        <ele>1713.540771</ele>
        <time>2011-09-24T09:25:56Z</time>
      </trkpt>
      <trkpt lat="42.57452" lon="2.06778">
        <ele>1713.707642</ele>
        <time>2011-09-24T09:25:57Z</time>
      </trkpt>
      <trkpt lat="42.5746" lon="2.06771">
        <ele>1713.900146</ele>
        <time>2011-09-24T09:25:58Z</time>
      </trkpt>
      <trkpt lat="42.57469" lon="2.06765">
        <ele>1713.986206</ele>
        <time>2011-09-24T09:25:59Z</time>
      </trkpt>
      <trkpt lat="42.57479" lon="2.06767">
        <ele>1713.966797</ele>
        <time>2011-09-24T09:26:00Z</time>
      </trkpt>
      <trkpt lat="42.5749" lon="2.06768">
        <ele>1713.930664</ele>
        <time>2011-09-24T09:26:01Z</time>
      </trkpt>
      <trkpt lat="42.57501" lon="2.06769">
        <ele>1713.576294</ele>
        <time>2011-09-24T09:26:02Z</time>
      </trkpt>
      <trkpt lat="42.57512" lon="2.06769">
        <ele>1712.792725</ele>
        <time>2011-09-24T09:26:03Z</time>
      </trkpt>
      <trkpt lat="42.57523" lon="2.06772">
        <ele>1711.862915</ele>
        <time>2011-09-24T09:26:04Z</time>
      </trkpt>
      <trkpt lat="42.57531" lon="2.06776">
        <ele>1710.83252</ele>
        <time>2011-09-24T09:26:05Z</time>
      </trkpt>
      <trkpt lat="42.57539" lon="2.06781">
        <ele>1709.717773</ele>
        <time>2011-09-24T09:26:06Z</time>
      </trkpt>
      <trkpt lat="42.57545" lon="2.06787">
        <ele>1708.361206</ele>
        <time>2011-09-24T09:26:07Z</time>
      </trkpt>
      <trkpt lat="42.57548" lon="2.06793">
        <ele>1707.032837</ele>
        <time>2011-09-24T09:26:08Z</time>
      </trkpt>
      <trkpt lat="42.5755" lon="2.06799">
        <ele>1705.883057</ele>
        <time>2011-09-24T09:26:09Z</time>
      </trkpt>
      <trkpt lat="42.57549" lon="2.06806">
        <ele>1705.045776</ele>
        <time>2011-09-24T09:26:10Z</time>
      </trkpt>
      <trkpt lat="42.57543" lon="2.06809">
        <ele>1704.086304</ele>
        <time>2011-09-24T09:26:11Z</time>
      </trkpt>
      <trkpt lat="42.57538" lon="2.06814">
        <ele>1703.236938</ele>
        <time>2011-09-24T09:26:12Z</time>
      </trkpt>
      <trkpt lat="42.57531" lon="2.06821">
        <ele>1702.059326</ele>
        <time>2011-09-24T09:26:13Z</time>
      </trkpt>
      <trkpt lat="42.57524" lon="2.06828">
        <ele>1700.730347</ele>
        <time>2011-09-24T09:26:14Z</time>
      </trkpt>
      <trkpt lat="42.57518" lon="2.06838">
        <ele>1699.203735</ele>
        <time>2011-09-24T09:26:15Z</time>
      </trkpt>
      <trkpt lat="42.57513" lon="2.0685">
        <ele>1697.416138</ele>
        <time>2011-09-24T09:26:16Z</time>
      </trkpt>
      <trkpt lat="42.57508" lon="2.06864">
        <ele>1695.562744</ele>
        <time>2011-09-24T09:26:17Z</time>
      </trkpt>
      <trkpt lat="42.57503" lon="2.06878">
        <ele>1693.861328</ele>
        <time>2011-09-24T09:26:18Z</time>
      </trkpt>
      <trkpt lat="42.575" lon="2.06893">
        <ele>1692.204224</ele>
        <time>2011-09-24T09:26:19Z</time>
      </trkpt>
      <trkpt lat="42.57497" lon="2.06906">
        <ele>1690.475464</ele>
        <time>2011-09-24T09:26:20Z</time>
      </trkpt>
      <trkpt lat="42.57496" lon="2.06914">
        <ele>1688.979614</ele>
        <time>2011-09-24T09:26:21Z</time>
      </trkpt>
      <trkpt lat="42.57496" lon="2.06922">
        <ele>1688.555908</ele>
        <time>2011-09-24T09:26:23Z</time>
      </trkpt>
      <trkpt lat="42.57493" lon="2.06926">
        <ele>1687.753784</ele>
        <time>2011-09-24T09:26:26Z</time>
      </trkpt>
      <trkpt lat="42.57489" lon="2.0693">
        <ele>1687.168579</ele>
        <time>2011-09-24T09:26:28Z</time>
      </trkpt>
      <trkpt lat="42.57485" lon="2.06936">
        <ele>1686.55127</ele>
        <time>2011-09-24T09:26:30Z</time>
      </trkpt>
      <trkpt lat="42.57482" lon="2.06943">
        <ele>1685.949463</ele>
        <time>2011-09-24T09:26:32Z</time>
      </trkpt>
      <trkpt lat="42.57478" lon="2.06946">
        <ele>1685.370361</ele>
        <time>2011-09-24T09:26:34Z</time>
      </trkpt>
      <trkpt lat="42.57474" lon="2.0695">
        <ele>1684.811401</ele>
        <time>2011-09-24T09:26:36Z</time>
      </trkpt>
      <trkpt lat="42.57468" lon="2.06955">
        <ele>1678.317139</ele>
        <time>2011-09-24T09:27:22Z</time>
      </trkpt>
      <trkpt lat="42.57473" lon="2.06958">
        <ele>1676.056274</ele>
        <time>2011-09-24T09:27:30Z</time>
      </trkpt>
      <trkpt lat="42.57477" lon="2.06954">
        <ele>1674.588623</ele>
        <time>2011-09-24T09:27:37Z</time>
      </trkpt>
      <trkpt lat="42.57472" lon="2.06953">
        <ele>1671.774414</ele>
        <time>2011-09-24T09:27:51Z</time>
      </trkpt>
      <trkpt lat="42.57476" lon="2.06956">
        <ele>1663.661621</ele>
        <time>2011-09-24T09:29:54Z</time>
      </trkpt>
      <trkpt lat="42.57472" lon="2.0696">
        <ele>1663.227539</ele>
        <time>2011-09-24T09:30:17Z</time>
      </trkpt>
      <trkpt lat="42.57469" lon="2.06955">
        <ele>1662.564575</ele>
        <time>2011-09-24T09:30:39Z</time>
      </trkpt>
      <trkpt lat="42.5747" lon="2.06948">
        <ele>1664.631226</ele>
        <time>2011-09-24T09:32:42Z</time>
      </trkpt>
      <trkpt lat="42.5747" lon="2.06954">
        <ele>1666.702759</ele>
        <time>2011-09-24T09:33:36Z</time>
      </trkpt>
      <trkpt lat="42.57465" lon="2.06955">
        <ele>1668.726562</ele>
        <time>2011-09-24T09:37:01Z</time>
      </trkpt>
      <trkpt lat="42.57469" lon="2.06958">
        <ele>1665.788208</ele>
        <time>2011-09-24T09:37:57Z</time>
      </trkpt>
      <trkpt lat="42.57474" lon="2.06958">
        <ele>1664.330444</ele>
        <time>2011-09-24T09:38:10Z</time>
      </trkpt>
      <trkpt lat="42.57475" lon="2.06952">
        <ele>1663.603882</ele>
        <time>2011-09-24T09:38:20Z</time>
      </trkpt>
      <trkpt lat="42.57468" lon="2.06952">
        <ele>1663.389893</ele>
        <time>2011-09-24T09:38:42Z</time>
      </trkpt>
      <trkpt lat="42.57472" lon="2.06948">
        <ele>1663.791016</ele>
        <time>2011-09-24T09:39:04Z</time>
      </trkpt>
      <trkpt lat="42.57468" lon="2.0695">
        <ele>1663.500732</ele>
        <time>2011-09-24T09:39:34Z</time>
      </trkpt>
      <trkpt lat="42.57467" lon="2.0695">
        <ele>1663.48645</ele>
        <time>2011-09-24T09:39:35Z</time>
      </trkpt>
      <trkpt lat="42.57471" lon="2.06956">
        <ele>1663.005737</ele>
        <time>2011-09-24T09:40:18Z</time>
      </trkpt>
      <trkpt lat="42.57473" lon="2.06949">
        <ele>1663.959351</ele>
        <time>2011-09-24T09:40:50Z</time>
      </trkpt>
      <trkpt lat="42.57477" lon="2.06944">
        <ele>1664.10083</ele>
        <time>2011-09-24T09:40:54Z</time>
      </trkpt>
      <trkpt lat="42.57481" lon="2.06939">
        <ele>1664.175171</ele>
        <time>2011-09-24T09:40:57Z</time>
      </trkpt>
      <trkpt lat="42.57485" lon="2.06933">
        <ele>1664.215698</ele>
        <time>2011-09-24T09:41:00Z</time>
      </trkpt>
      <trkpt lat="42.57489" lon="2.06927">
        <ele>1664.272705</ele>
        <time>2011-09-24T09:41:03Z</time>
      </trkpt>
      <trkpt lat="42.57495" lon="2.06924">
        <ele>1664.297852</ele>
        <time>2011-09-24T09:41:06Z</time>
      </trkpt>
      <trkpt lat="42.57498" lon="2.06917">
        <ele>1664.274048</ele>
        <time>2011-09-24T09:41:09Z</time>
      </trkpt>
      <trkpt lat="42.57492" lon="2.06919">
        <ele>1664.036499</ele>
        <time>2011-09-24T09:41:15Z</time>
      </trkpt>
      <trkpt lat="42.57487" lon="2.06919">
        <ele>1663.910645</ele>
        <time>2011-09-24T09:41:18Z</time>
      </trkpt>
      <trkpt lat="42.57484" lon="2.06914">
        <ele>1663.779053</ele>
        <time>2011-09-24T09:41:21Z</time>
      </trkpt>
      <trkpt lat="42.57485" lon="2.06921">
        <ele>1661.930054</ele>
        <time>2011-09-24T09:41:31Z</time>
      </trkpt>
      <trkpt lat="42.57489" lon="2.06917">
        <ele>1659.310913</ele>
        <time>2011-09-24T09:41:40Z</time>
      </trkpt>
      <trkpt lat="42.57492" lon="2.06923">
        <ele>1658.040649</ele>
        <time>2011-09-24T09:42:14Z</time>
      </trkpt>
      <trkpt lat="42.57492" lon="2.06923">
        <ele>1657.253174</ele>
        <time>2011-09-24T09:42:19Z</time>
      </trkpt>
      <trkpt lat="42.5749" lon="2.06928">
        <ele>1656.828369</ele>
        <time>2011-09-24T09:42:23Z</time>
      </trkpt>
      <trkpt lat="42.5749" lon="2.06928">
        <ele>1656.492432</ele>
        <time>2011-09-24T09:42:24Z</time>
      </trkpt>
      <trkpt lat="42.57488" lon="2.06922">
        <ele>1655.155273</ele>
        <time>2011-09-24T09:42:29Z</time>
      </trkpt>
      <trkpt lat="42.57485" lon="2.06916">
        <ele>1653.832275</ele>
        <time>2011-09-24T09:42:33Z</time>
      </trkpt>
      <trkpt lat="42.57485" lon="2.06914">
        <ele>1653.483398</ele>
        <time>2011-09-24T09:42:34Z</time>
      </trkpt>
      <trkpt lat="42.57484" lon="2.06907">
        <ele>1652.952393</ele>
        <time>2011-09-24T09:42:36Z</time>
      </trkpt>
      <trkpt lat="42.57484" lon="2.069">
        <ele>1652.532227</ele>
        <time>2011-09-24T09:42:38Z</time>
      </trkpt>
      <trkpt lat="42.57484" lon="2.06891">
        <ele>1652.999023</ele>
        <time>2011-09-24T09:42:40Z</time>
      </trkpt>
      <trkpt lat="42.57483" lon="2.06879">
        <ele>1653.757446</ele>
        <time>2011-09-24T09:42:42Z</time>
      </trkpt>
      <trkpt lat="42.57482" lon="2.06872">
        <ele>1654.187866</ele>
        <time>2011-09-24T09:42:43Z</time>
      </trkpt>
      <trkpt lat="42.57481" lon="2.06865">
        <ele>1654.654053</ele>
        <time>2011-09-24T09:42:44Z</time>
      </trkpt>
      <trkpt lat="42.5748" lon="2.06858">
        <ele>1655.130615</ele>
        <time>2011-09-24T09:42:45Z</time>
      </trkpt>
      <trkpt lat="42.57479" lon="2.06851">
        <ele>1655.601562</ele>
        <time>2011-09-24T09:42:46Z</time>
      </trkpt>
      <trkpt lat="42.57478" lon="2.06844">
        <ele>1656.076172</ele>
        <time>2011-09-24T09:42:47Z</time>
      </trkpt>
      <trkpt lat="42.57477" lon="2.06837">
        <ele>1656.554321</ele>
        <time>2011-09-24T09:42:48Z</time>
      </trkpt>
      <trkpt lat="42.57476" lon="2.06831">
        <ele>1657.043091</ele>
        <time>2011-09-24T09:42:49Z</time>
      </trkpt>
      <trkpt lat="42.57475" lon="2.0682">
        <ele>1658.044434</ele>
        <time>2011-09-24T09:42:51Z</time>
      </trkpt>
      <trkpt lat="42.57473" lon="2.06809">
        <ele>1659.049683</ele>
        <time>2011-09-24T09:42:53Z</time>
      </trkpt>
      <trkpt lat="42.57472" lon="2.06799">
        <ele>1660.030029</ele>
        <time>2011-09-24T09:42:55Z</time>
      </trkpt>
      <trkpt lat="42.5747" lon="2.06789">
        <ele>1661.011353</ele>
        <time>2011-09-24T09:42:57Z</time>
      </trkpt>
      <trkpt lat="42.57469" lon="2.06778">
        <ele>1662.010132</ele>
        <time>2011-09-24T09:42:59Z</time>
      </trkpt>
      <trkpt lat="42.57468" lon="2.06768">
        <ele>1663.038452</ele>
        <time>2011-09-24T09:43:01Z</time>
      </trkpt>
      <trkpt lat="42.57467" lon="2.06759">
        <ele>1664.11499</ele>
        <time>2011-09-24T09:43:03Z</time>
      </trkpt>
      <trkpt lat="42.57465" lon="2.0675">
        <ele>1665.204956</ele>
        <time>2011-09-24T09:43:05Z</time>
      </trkpt>
      <trkpt lat="42.57464" lon="2.06742">
        <ele>1666.32312</ele>
        <time>2011-09-24T09:43:07Z</time>
      </trkpt>
      <trkpt lat="42.57463" lon="2.06732">
        <ele>1667.44165</ele>
        <time>2011-09-24T09:43:09Z</time>
      </trkpt>
      <trkpt lat="42.57463" lon="2.06722">
        <ele>1668.588745</ele>
        <time>2011-09-24T09:43:11Z</time>
      </trkpt>
      <trkpt lat="42.57462" lon="2.06713">
        <ele>1669.777466</ele>
        <time>2011-09-24T09:43:13Z</time>
      </trkpt>
      <trkpt lat="42.57461" lon="2.06705">
        <ele>1671.075439</ele>
        <time>2011-09-24T09:43:15Z</time>
      </trkpt>
      <trkpt lat="42.5746" lon="2.06697">
        <ele>1672.518677</ele>
        <time>2011-09-24T09:43:17Z</time>
      </trkpt>
      <trkpt lat="42.57458" lon="2.06688">
        <ele>1674.003296</ele>
        <time>2011-09-24T09:43:19Z</time>
      </trkpt>
      <trkpt lat="42.57457" lon="2.0668">
        <ele>1675.49707</ele>
        <time>2011-09-24T09:43:21Z</time>
      </trkpt>
      <trkpt lat="42.57455" lon="2.06671">
        <ele>1677.053589</ele>
        <time>2011-09-24T09:43:23Z</time>
      </trkpt>
      <trkpt lat="42.57454" lon="2.06663">
        <ele>1678.644409</ele>
        <time>2011-09-24T09:43:25Z</time>
      </trkpt>
      <trkpt lat="42.57453" lon="2.06655">
        <ele>1680.250977</ele>
        <time>2011-09-24T09:43:27Z</time>
      </trkpt>
      <trkpt lat="42.57452" lon="2.06646">
        <ele>1681.9021</ele>
        <time>2011-09-24T09:43:29Z</time>
      </trkpt>
      <trkpt lat="42.57452" lon="2.06638">
        <ele>1683.570679</ele>
        <time>2011-09-24T09:43:31Z</time>
      </trkpt>
      <trkpt lat="42.5745" lon="2.06629">
        <ele>1685.275757</ele>
        <time>2011-09-24T09:43:33Z</time>
      </trkpt>
      <trkpt lat="42.57449" lon="2.0662">
        <ele>1687.055542</ele>
        <time>2011-09-24T09:43:35Z</time>
      </trkpt>
      <trkpt lat="42.57447" lon="2.06612">
        <ele>1688.898438</ele>
        <time>2011-09-24T09:43:37Z</time>
      </trkpt>
      <trkpt lat="42.57446" lon="2.06605">
        <ele>1690.745728</ele>
        <time>2011-09-24T09:43:39Z</time>
      </trkpt>
      <trkpt lat="42.57446" lon="2.06597">
        <ele>1692.626099</ele>
        <time>2011-09-24T09:43:41Z</time>
      </trkpt>
      <trkpt lat="42.57445" lon="2.06589">
        <ele>1694.543579</ele>
        <time>2011-09-24T09:43:43Z</time>
      </trkpt>
      <trkpt lat="42.57443" lon="2.0658">
        <ele>1696.48645</ele>
        <time>2011-09-24T09:43:45Z</time>
      </trkpt>
      <trkpt lat="42.57441" lon="2.06571">
        <ele>1698.447021</ele>
        <time>2011-09-24T09:43:47Z</time>
      </trkpt>
      <trkpt lat="42.5744" lon="2.06562">
        <ele>1700.393555</ele>
        <time>2011-09-24T09:43:49Z</time>
      </trkpt>
      <trkpt lat="42.57439" lon="2.06553">
        <ele>1702.309937</ele>
        <time>2011-09-24T09:43:51Z</time>
      </trkpt>
      <trkpt lat="42.57438" lon="2.06543">
        <ele>1704.227417</ele>
        <time>2011-09-24T09:43:53Z</time>
      </trkpt>
      <trkpt lat="42.57436" lon="2.06534">
        <ele>1706.150513</ele>
        <time>2011-09-24T09:43:55Z</time>
      </trkpt>
      <trkpt lat="42.57435" lon="2.06525">
        <ele>1708.082031</ele>
        <time>2011-09-24T09:43:57Z</time>
      </trkpt>
      <trkpt lat="42.57433" lon="2.06516">
        <ele>1710.012451</ele>
        <time>2011-09-24T09:43:59Z</time>
      </trkpt>
      <trkpt lat="42.57431" lon="2.06507">
        <ele>1711.930786</ele>
        <time>2011-09-24T09:44:01Z</time>
      </trkpt>
      <trkpt lat="42.57429" lon="2.06498">
        <ele>1713.836182</ele>
        <time>2011-09-24T09:44:03Z</time>
      </trkpt>
      <trkpt lat="42.57428" lon="2.06489">
        <ele>1715.72522</ele>
        <time>2011-09-24T09:44:05Z</time>
      </trkpt>
      <trkpt lat="42.57426" lon="2.0648">
        <ele>1716.664429</ele>
        <time>2011-09-24T09:44:06Z</time>
      </trkpt>
      <trkpt lat="42.57425" lon="2.06471">
        <ele>1718.530273</ele>
        <time>2011-09-24T09:44:08Z</time>
      </trkpt>
      <trkpt lat="42.57423" lon="2.06463">
        <ele>1720.387695</ele>
        <time>2011-09-24T09:44:10Z</time>
      </trkpt>
      <trkpt lat="42.57422" lon="2.06453">
        <ele>1722.268066</ele>
        <time>2011-09-24T09:44:12Z</time>
      </trkpt>
      <trkpt lat="42.57422" lon="2.06443">
        <ele>1724.158203</ele>
        <time>2011-09-24T09:44:14Z</time>
      </trkpt>
      <trkpt lat="42.57422" lon="2.06433">
        <ele>1726.042969</ele>
        <time>2011-09-24T09:44:16Z</time>
      </trkpt>
      <trkpt lat="42.57421" lon="2.06425">
        <ele>1727.914551</ele>
        <time>2011-09-24T09:44:18Z</time>
      </trkpt>
      <trkpt lat="42.5742" lon="2.06417">
        <ele>1729.768066</ele>
        <time>2011-09-24T09:44:20Z</time>
      </trkpt>
      <trkpt lat="42.57418" lon="2.06409">
        <ele>1731.718872</ele>
        <time>2011-09-24T09:44:22Z</time>
      </trkpt>
      <trkpt lat="42.57416" lon="2.064">
        <ele>1733.79895</ele>
        <time>2011-09-24T09:44:24Z</time>
      </trkpt>
      <trkpt lat="42.57414" lon="2.06391">
        <ele>1735.951294</ele>
        <time>2011-09-24T09:44:26Z</time>
      </trkpt>
      <trkpt lat="42.57412" lon="2.06383">
        <ele>1738.188477</ele>
        <time>2011-09-24T09:44:28Z</time>
      </trkpt>
      <trkpt lat="42.5741" lon="2.06374">
        <ele>1740.477295</ele>
        <time>2011-09-24T09:44:30Z</time>
      </trkpt>
      <trkpt lat="42.57409" lon="2.06365">
        <ele>1742.7854</ele>
        <time>2011-09-24T09:44:32Z</time>
      </trkpt>
      <trkpt lat="42.57407" lon="2.06355">
        <ele>1745.089355</ele>
        <time>2011-09-24T09:44:34Z</time>
      </trkpt>
      <trkpt lat="42.57406" lon="2.06347">
        <ele>1747.367676</ele>
        <time>2011-09-24T09:44:36Z</time>
      </trkpt>
      <trkpt lat="42.57405" lon="2.06338">
        <ele>1749.622925</ele>
        <time>2011-09-24T09:44:38Z</time>
      </trkpt>
      <trkpt lat="42.57404" lon="2.06329">
        <ele>1751.852783</ele>
        <time>2011-09-24T09:44:40Z</time>
      </trkpt>
      <trkpt lat="42.57402" lon="2.0632">
        <ele>1754.053589</ele>
        <time>2011-09-24T09:44:42Z</time>
      </trkpt>
      <trkpt lat="42.57401" lon="2.06311">
        <ele>1756.22168</ele>
        <time>2011-09-24T09:44:44Z</time>
      </trkpt>
      <trkpt lat="42.57401" lon="2.06302">
        <ele>1758.332886</ele>
        <time>2011-09-24T09:44:46Z</time>
      </trkpt>
      <trkpt lat="42.574" lon="2.06293">
        <ele>1760.360596</ele>
        <time>2011-09-24T09:44:48Z</time>
      </trkpt>
      <trkpt lat="42.574" lon="2.06284">
        <ele>1762.311523</ele>
        <time>2011-09-24T09:44:50Z</time>
      </trkpt>
      <trkpt lat="42.57399" lon="2.06275">
        <ele>1764.192993</ele>
        <time>2011-09-24T09:44:52Z</time>
      </trkpt>
      <trkpt lat="42.57399" lon="2.06265">
        <ele>1765.97998</ele>
        <time>2011-09-24T09:44:54Z</time>
      </trkpt>
      <trkpt lat="42.57398" lon="2.06256">
        <ele>1767.700806</ele>
        <time>2011-09-24T09:44:56Z</time>
      </trkpt>
      <trkpt lat="42.57397" lon="2.06246">
        <ele>1769.350464</ele>
        <time>2011-09-24T09:44:58Z</time>
      </trkpt>
      <trkpt lat="42.57396" lon="2.06238">
        <ele>1770.909912</ele>
        <time>2011-09-24T09:45:00Z</time>
      </trkpt>
      <trkpt lat="42.57395" lon="2.06229">
        <ele>1772.422607</ele>
        <time>2011-09-24T09:45:02Z</time>
      </trkpt>
      <trkpt lat="42.57394" lon="2.0622">
        <ele>1773.901123</ele>
        <time>2011-09-24T09:45:04Z</time>
      </trkpt>
      <trkpt lat="42.57394" lon="2.06211">
        <ele>1775.308838</ele>
        <time>2011-09-24T09:45:06Z</time>
      </trkpt>
      <trkpt lat="42.57393" lon="2.06202">
        <ele>1776.647583</ele>
        <time>2011-09-24T09:45:08Z</time>
      </trkpt>
      <trkpt lat="42.57392" lon="2.06193">
        <ele>1777.321411</ele>
        <time>2011-09-24T09:45:10Z</time>
      </trkpt>
      <trkpt lat="42.5739" lon="2.06183">
        <ele>1778.708008</ele>
        <time>2011-09-24T09:45:12Z</time>
      </trkpt>
      <trkpt lat="42.57388" lon="2.06174">
        <ele>1780.374878</ele>
        <time>2011-09-24T09:45:14Z</time>
      </trkpt>
      <trkpt lat="42.57386" lon="2.06166">
        <ele>1782.271118</ele>
        <time>2011-09-24T09:45:16Z</time>
      </trkpt>
      <trkpt lat="42.57384" lon="2.06158">
        <ele>1784.372925</ele>
        <time>2011-09-24T09:45:18Z</time>
      </trkpt>
      <trkpt lat="42.57382" lon="2.0615">
        <ele>1786.58728</ele>
        <time>2011-09-24T09:45:20Z</time>
      </trkpt>
      <trkpt lat="42.57381" lon="2.06142">
        <ele>1788.812744</ele>
        <time>2011-09-24T09:45:22Z</time>
      </trkpt>
      <trkpt lat="42.5738" lon="2.06133">
        <ele>1791.10437</ele>
        <time>2011-09-24T09:45:24Z</time>
      </trkpt>
      <trkpt lat="42.57379" lon="2.06125">
        <ele>1793.457275</ele>
        <time>2011-09-24T09:45:26Z</time>
      </trkpt>
      <trkpt lat="42.57378" lon="2.06117">
        <ele>1795.854492</ele>
        <time>2011-09-24T09:45:28Z</time>
      </trkpt>
      <trkpt lat="42.57376" lon="2.06109">
        <ele>1798.300415</ele>
        <time>2011-09-24T09:45:30Z</time>
      </trkpt>
      <trkpt lat="42.57374" lon="2.06101">
        <ele>1800.807129</ele>
        <time>2011-09-24T09:45:32Z</time>
      </trkpt>
      <trkpt lat="42.57372" lon="2.06093">
        <ele>1803.344482</ele>
        <time>2011-09-24T09:45:34Z</time>
      </trkpt>
      <trkpt lat="42.57371" lon="2.06084">
        <ele>1805.897949</ele>
        <time>2011-09-24T09:45:36Z</time>
      </trkpt>
      <trkpt lat="42.57369" lon="2.06075">
        <ele>1808.452393</ele>
        <time>2011-09-24T09:45:38Z</time>
      </trkpt>
      <trkpt lat="42.57368" lon="2.06066">
        <ele>1811.006226</ele>
        <time>2011-09-24T09:45:40Z</time>
      </trkpt>
      <trkpt lat="42.57366" lon="2.06058">
        <ele>1813.593994</ele>
        <time>2011-09-24T09:45:42Z</time>
      </trkpt>
      <trkpt lat="42.57365" lon="2.0605">
        <ele>1816.223999</ele>
        <time>2011-09-24T09:45:44Z</time>
      </trkpt>
      <trkpt lat="42.57364" lon="2.06042">
        <ele>1818.869141</ele>
        <time>2011-09-24T09:45:46Z</time>
      </trkpt>
      <trkpt lat="42.57363" lon="2.06034">
        <ele>1821.484009</ele>
        <time>2011-09-24T09:45:48Z</time>
      </trkpt>
      <trkpt lat="42.57362" lon="2.06026">
        <ele>1824.122314</ele>
        <time>2011-09-24T09:45:50Z</time>
      </trkpt>
      <trkpt lat="42.57361" lon="2.06017">
        <ele>1826.79187</ele>
        <time>2011-09-24T09:45:52Z</time>
      </trkpt>
      <trkpt lat="42.5736" lon="2.06007">
        <ele>1830.817139</ele>
        <time>2011-09-24T09:45:55Z</time>
      </trkpt>
      <trkpt lat="42.57359" lon="2.05999">
        <ele>1833.493408</ele>
        <time>2011-09-24T09:45:57Z</time>
      </trkpt>
      <trkpt lat="42.57357" lon="2.0599">
        <ele>1836.159302</ele>
        <time>2011-09-24T09:45:59Z</time>
      </trkpt>
      <trkpt lat="42.57356" lon="2.05981">
        <ele>1838.830811</ele>
        <time>2011-09-24T09:46:01Z</time>
      </trkpt>
      <trkpt lat="42.57355" lon="2.05973">
        <ele>1841.521729</ele>
        <time>2011-09-24T09:46:03Z</time>
      </trkpt>
      <trkpt lat="42.57354" lon="2.05964">
        <ele>1844.250977</ele>
        <time>2011-09-24T09:46:05Z</time>
      </trkpt>
      <trkpt lat="42.57352" lon="2.05956">
        <ele>1847.00415</ele>
        <time>2011-09-24T09:46:07Z</time>
      </trkpt>
      <trkpt lat="42.57351" lon="2.05948">
        <ele>1849.800415</ele>
        <time>2011-09-24T09:46:09Z</time>
      </trkpt>
      <trkpt lat="42.5735" lon="2.05939">
        <ele>1852.631348</ele>
        <time>2011-09-24T09:46:11Z</time>
      </trkpt>
      <trkpt lat="42.57348" lon="2.0593">
        <ele>1855.485352</ele>
        <time>2011-09-24T09:46:13Z</time>
      </trkpt>
      <trkpt lat="42.57347" lon="2.05921">
        <ele>1858.34314</ele>
        <time>2011-09-24T09:46:15Z</time>
      </trkpt>
      <trkpt lat="42.57346" lon="2.05913">
        <ele>1861.187744</ele>
        <time>2011-09-24T09:46:17Z</time>
      </trkpt>
      <trkpt lat="42.57345" lon="2.05904">
        <ele>1864.015625</ele>
        <time>2011-09-24T09:46:19Z</time>
      </trkpt>
      <trkpt lat="42.57344" lon="2.05896">
        <ele>1866.826172</ele>
        <time>2011-09-24T09:46:21Z</time>
      </trkpt>
      <trkpt lat="42.57343" lon="2.05887">
        <ele>1869.654541</ele>
        <time>2011-09-24T09:46:23Z</time>
      </trkpt>
      <trkpt lat="42.57342" lon="2.05879">
        <ele>1872.527588</ele>
        <time>2011-09-24T09:46:25Z</time>
      </trkpt>
      <trkpt lat="42.57341" lon="2.05872">
        <ele>1875.422363</ele>
        <time>2011-09-24T09:46:27Z</time>
      </trkpt>
      <trkpt lat="42.5734" lon="2.05863">
        <ele>1878.331177</ele>
        <time>2011-09-24T09:46:29Z</time>
      </trkpt>
      <trkpt lat="42.5734" lon="2.05855">
        <ele>1881.238403</ele>
        <time>2011-09-24T09:46:31Z</time>
      </trkpt>
      <trkpt lat="42.57339" lon="2.05845">
        <ele>1884.166748</ele>
        <time>2011-09-24T09:46:33Z</time>
      </trkpt>
      <trkpt lat="42.57338" lon="2.05836">
        <ele>1887.128296</ele>
        <time>2011-09-24T09:46:35Z</time>
      </trkpt>
      <trkpt lat="42.57337" lon="2.05827">
        <ele>1890.102783</ele>
        <time>2011-09-24T09:46:37Z</time>
      </trkpt>
      <trkpt lat="42.57336" lon="2.05818">
        <ele>1893.083008</ele>
        <time>2011-09-24T09:46:39Z</time>
      </trkpt>
      <trkpt lat="42.57334" lon="2.05811">
        <ele>1896.111816</ele>
        <time>2011-09-24T09:46:41Z</time>
      </trkpt>
      <trkpt lat="42.57333" lon="2.05803">
        <ele>1899.158081</ele>
        <time>2011-09-24T09:46:43Z</time>
      </trkpt>
      <trkpt lat="42.57331" lon="2.05796">
        <ele>1902.2229</ele>
        <time>2011-09-24T09:46:45Z</time>
      </trkpt>
      <trkpt lat="42.57329" lon="2.05788">
        <ele>1905.338257</ele>
        <time>2011-09-24T09:46:47Z</time>
      </trkpt>
      <trkpt lat="42.57328" lon="2.05779">
        <ele>1908.473633</ele>
        <time>2011-09-24T09:46:49Z</time>
      </trkpt>
      <trkpt lat="42.57327" lon="2.05771">
        <ele>1911.608154</ele>
        <time>2011-09-24T09:46:51Z</time>
      </trkpt>
      <trkpt lat="42.57326" lon="2.05762">
        <ele>1914.702637</ele>
        <time>2011-09-24T09:46:53Z</time>
      </trkpt>
      <trkpt lat="42.57326" lon="2.05753">
        <ele>1917.748169</ele>
        <time>2011-09-24T09:46:55Z</time>
      </trkpt>
      <trkpt lat="42.57325" lon="2.05743">
        <ele>1920.784424</ele>
        <time>2011-09-24T09:46:57Z</time>
      </trkpt>
      <trkpt lat="42.57323" lon="2.05735">
        <ele>1923.809692</ele>
        <time>2011-09-24T09:46:59Z</time>
      </trkpt>
      <trkpt lat="42.57322" lon="2.05726">
        <ele>1926.815063</ele>
        <time>2011-09-24T09:47:01Z</time>
      </trkpt>
      <trkpt lat="42.5732" lon="2.05718">
        <ele>1929.791992</ele>
        <time>2011-09-24T09:47:03Z</time>
      </trkpt>
      <trkpt lat="42.57319" lon="2.05709">
        <ele>1932.734497</ele>
        <time>2011-09-24T09:47:05Z</time>
      </trkpt>
      <trkpt lat="42.57317" lon="2.05701">
        <ele>1935.655884</ele>
        <time>2011-09-24T09:47:07Z</time>
      </trkpt>
      <trkpt lat="42.57316" lon="2.05693">
        <ele>1938.561157</ele>
        <time>2011-09-24T09:47:09Z</time>
      </trkpt>
      <trkpt lat="42.57315" lon="2.05685">
        <ele>1941.480957</ele>
        <time>2011-09-24T09:47:11Z</time>
      </trkpt>
      <trkpt lat="42.57313" lon="2.05677">
        <ele>1944.427734</ele>
        <time>2011-09-24T09:47:13Z</time>
      </trkpt>
      <trkpt lat="42.57312" lon="2.05668">
        <ele>1947.389526</ele>
        <time>2011-09-24T09:47:15Z</time>
      </trkpt>
      <trkpt lat="42.57311" lon="2.05659">
        <ele>1950.349243</ele>
        <time>2011-09-24T09:47:17Z</time>
      </trkpt>
      <trkpt lat="42.5731" lon="2.05651">
        <ele>1953.298828</ele>
        <time>2011-09-24T09:47:19Z</time>
      </trkpt>
      <trkpt lat="42.57308" lon="2.05643">
        <ele>1956.269897</ele>
        <time>2011-09-24T09:47:21Z</time>
      </trkpt>
      <trkpt lat="42.57308" lon="2.05634">
        <ele>1959.237671</ele>
        <time>2011-09-24T09:47:23Z</time>
      </trkpt>
      <trkpt lat="42.57307" lon="2.05625">
        <ele>1962.200073</ele>
        <time>2011-09-24T09:47:25Z</time>
      </trkpt>
      <trkpt lat="42.57307" lon="2.05616">
        <ele>1965.112305</ele>
        <time>2011-09-24T09:47:27Z</time>
      </trkpt>
      <trkpt lat="42.57306" lon="2.05606">
        <ele>1967.995483</ele>
        <time>2011-09-24T09:47:29Z</time>
      </trkpt>
      <trkpt lat="42.57305" lon="2.05597">
        <ele>1970.858521</ele>
        <time>2011-09-24T09:47:31Z</time>
      </trkpt>
      <trkpt lat="42.57304" lon="2.05588">
        <ele>1973.734619</ele>
        <time>2011-09-24T09:47:33Z</time>
      </trkpt>
      <trkpt lat="42.57302" lon="2.0558">
        <ele>1976.610718</ele>
        <time>2011-09-24T09:47:35Z</time>
      </trkpt>
      <trkpt lat="42.573" lon="2.05572">
        <ele>1979.500732</ele>
        <time>2011-09-24T09:47:37Z</time>
      </trkpt>
      <trkpt lat="42.57299" lon="2.05562">
        <ele>1982.398438</ele>
        <time>2011-09-24T09:47:39Z</time>
      </trkpt>
      <trkpt lat="42.57297" lon="2.05554">
        <ele>1985.361328</ele>
        <time>2011-09-24T09:47:41Z</time>
      </trkpt>
      <trkpt lat="42.57296" lon="2.05546">
        <ele>1988.368774</ele>
        <time>2011-09-24T09:47:43Z</time>
      </trkpt>
      <trkpt lat="42.57294" lon="2.05539">
        <ele>1991.384521</ele>
        <time>2011-09-24T09:47:45Z</time>
      </trkpt>
      <trkpt lat="42.57292" lon="2.0553">
        <ele>1994.407349</ele>
        <time>2011-09-24T09:47:47Z</time>
      </trkpt>
      <trkpt lat="42.57291" lon="2.05522">
        <ele>1997.422974</ele>
        <time>2011-09-24T09:47:49Z</time>
      </trkpt>
      <trkpt lat="42.57289" lon="2.05513">
        <ele>2000.500122</ele>
        <time>2011-09-24T09:47:51Z</time>
      </trkpt>
      <trkpt lat="42.57288" lon="2.05504">
        <ele>2003.620728</ele>
        <time>2011-09-24T09:47:53Z</time>
      </trkpt>
      <trkpt lat="42.57286" lon="2.05495">
        <ele>2006.769165</ele>
        <time>2011-09-24T09:47:55Z</time>
      </trkpt>
      <trkpt lat="42.57286" lon="2.05486">
        <ele>2009.866333</ele>
        <time>2011-09-24T09:47:57Z</time>
      </trkpt>
      <trkpt lat="42.57285" lon="2.05476">
        <ele>2012.893433</ele>
        <time>2011-09-24T09:47:59Z</time>
      </trkpt>
      <trkpt lat="42.57284" lon="2.05467">
        <ele>2015.859253</ele>
        <time>2011-09-24T09:48:01Z</time>
      </trkpt>
      <trkpt lat="42.57283" lon="2.05458">
        <ele>2018.775269</ele>
        <time>2011-09-24T09:48:03Z</time>
      </trkpt>
      <trkpt lat="42.57282" lon="2.05449">
        <ele>2021.635132</ele>
        <time>2011-09-24T09:48:05Z</time>
      </trkpt>
      <trkpt lat="42.57281" lon="2.0544">
        <ele>2024.433472</ele>
        <time>2011-09-24T09:48:07Z</time>
      </trkpt>
      <trkpt lat="42.5728" lon="2.05431">
        <ele>2027.175415</ele>
        <time>2011-09-24T09:48:09Z</time>
      </trkpt>
      <trkpt lat="42.57279" lon="2.05422">
        <ele>2029.853882</ele>
        <time>2011-09-24T09:48:11Z</time>
      </trkpt>
      <trkpt lat="42.57277" lon="2.05413">
        <ele>2032.504517</ele>
        <time>2011-09-24T09:48:13Z</time>
      </trkpt>
      <trkpt lat="42.57275" lon="2.05405">
        <ele>2035.11853</ele>
        <time>2011-09-24T09:48:15Z</time>
      </trkpt>
      <trkpt lat="42.57273" lon="2.05396">
        <ele>2037.696899</ele>
        <time>2011-09-24T09:48:17Z</time>
      </trkpt>
      <trkpt lat="42.57272" lon="2.05387">
        <ele>2040.22644</ele>
        <time>2011-09-24T09:48:19Z</time>
      </trkpt>
      <trkpt lat="42.57271" lon="2.05378">
        <ele>2042.716431</ele>
        <time>2011-09-24T09:48:21Z</time>
      </trkpt>
      <trkpt lat="42.5727" lon="2.05369">
        <ele>2045.160522</ele>
        <time>2011-09-24T09:48:23Z</time>
      </trkpt>
      <trkpt lat="42.57269" lon="2.05361">
        <ele>2047.563354</ele>
        <time>2011-09-24T09:48:25Z</time>
      </trkpt>
      <trkpt lat="42.57267" lon="2.0535">
        <ele>2054.314453</ele>
        <time>2011-09-24T09:48:45Z</time>
      </trkpt>
      <trkpt lat="42.57264" lon="2.05344">
        <ele>2054.973877</ele>
        <time>2011-09-24T09:48:52Z</time>
      </trkpt>
      <trkpt lat="42.57263" lon="2.05338">
        <ele>2057.088867</ele>
        <time>2011-09-24T09:49:04Z</time>
      </trkpt>
      <trkpt lat="42.57262" lon="2.05331">
        <ele>2060.20459</ele>
        <time>2011-09-24T09:49:11Z</time>
      </trkpt>
      <trkpt lat="42.57264" lon="2.05324">
        <ele>2062.864014</ele>
        <time>2011-09-24T09:49:17Z</time>
      </trkpt>
      <trkpt lat="42.57266" lon="2.05317">
        <ele>2064.411377</ele>
        <time>2011-09-24T09:49:19Z</time>
      </trkpt>
      <trkpt lat="42.57265" lon="2.05311">
        <ele>2066.15332</ele>
        <time>2011-09-24T09:49:21Z</time>
      </trkpt>
      <trkpt lat="42.5726" lon="2.05306">
        <ele>2067.96582</ele>
        <time>2011-09-24T09:49:23Z</time>
      </trkpt>
      <trkpt lat="42.57254" lon="2.05303">
        <ele>2069.74292</ele>
        <time>2011-09-24T09:49:25Z</time>
      </trkpt>
      <trkpt lat="42.57247" lon="2.05301">
        <ele>2071.466064</ele>
        <time>2011-09-24T09:49:27Z</time>
      </trkpt>
      <trkpt lat="42.57241" lon="2.05299">
        <ele>2073.138672</ele>
        <time>2011-09-24T09:49:29Z</time>
      </trkpt>
      <trkpt lat="42.57234" lon="2.05297">
        <ele>2074.75415</ele>
        <time>2011-09-24T09:49:31Z</time>
      </trkpt>
      <trkpt lat="42.57227" lon="2.05296">
        <ele>2076.319336</ele>
        <time>2011-09-24T09:49:33Z</time>
      </trkpt>
      <trkpt lat="42.57219" lon="2.05297">
        <ele>2077.831787</ele>
        <time>2011-09-24T09:49:35Z</time>
      </trkpt>
      <trkpt lat="42.57213" lon="2.05297">
        <ele>2079.291504</ele>
        <time>2011-09-24T09:49:37Z</time>
      </trkpt>
      <trkpt lat="42.57208" lon="2.05296">
        <ele>2080.696045</ele>
        <time>2011-09-24T09:49:39Z</time>
      </trkpt>
      <trkpt lat="42.57201" lon="2.05296">
        <ele>2082.035156</ele>
        <time>2011-09-24T09:49:41Z</time>
      </trkpt>
      <trkpt lat="42.57195" lon="2.05296">
        <ele>2083.311279</ele>
        <time>2011-09-24T09:49:43Z</time>
      </trkpt>
      <trkpt lat="42.57188" lon="2.05296">
        <ele>2084.531006</ele>
        <time>2011-09-24T09:49:45Z</time>
      </trkpt>
      <trkpt lat="42.57181" lon="2.05295">
        <ele>2085.694824</ele>
        <time>2011-09-24T09:49:47Z</time>
      </trkpt>
      <trkpt lat="42.57175" lon="2.05294">
        <ele>2086.807129</ele>
        <time>2011-09-24T09:49:49Z</time>
      </trkpt>
      <trkpt lat="42.57168" lon="2.05293">
        <ele>2087.871582</ele>
        <time>2011-09-24T09:49:51Z</time>
      </trkpt>
      <trkpt lat="42.57162" lon="2.05292">
        <ele>2088.891113</ele>
        <time>2011-09-24T09:49:53Z</time>
      </trkpt>
      <trkpt lat="42.57156" lon="2.05291">
        <ele>2089.863525</ele>
        <time>2011-09-24T09:49:55Z</time>
      </trkpt>
      <trkpt lat="42.57149" lon="2.05291">
        <ele>2090.787842</ele>
        <time>2011-09-24T09:49:57Z</time>
      </trkpt>
      <trkpt lat="42.57143" lon="2.05291">
        <ele>2091.656738</ele>
        <time>2011-09-24T09:49:59Z</time>
      </trkpt>
      <trkpt lat="42.57137" lon="2.05292">
        <ele>2092.46582</ele>
        <time>2011-09-24T09:50:01Z</time>
      </trkpt>
      <trkpt lat="42.57132" lon="2.05292">
        <ele>2093.208496</ele>
        <time>2011-09-24T09:50:03Z</time>
      </trkpt>
      <trkpt lat="42.57126" lon="2.05293">
        <ele>2094.206055</ele>
        <time>2011-09-24T09:50:06Z</time>
      </trkpt>
      <trkpt lat="42.57121" lon="2.05292">
        <ele>2095.171631</ele>
        <time>2011-09-24T09:50:09Z</time>
      </trkpt>
      <trkpt lat="42.57115" lon="2.0529">
        <ele>2096.098145</ele>
        <time>2011-09-24T09:50:12Z</time>
      </trkpt>
      <trkpt lat="42.5711" lon="2.05288">
        <ele>2096.984375</ele>
        <time>2011-09-24T09:50:15Z</time>
      </trkpt>
      <trkpt lat="42.57106" lon="2.05286">
        <ele>2097.839111</ele>
        <time>2011-09-24T09:50:18Z</time>
      </trkpt>
      <trkpt lat="42.57101" lon="2.05282">
        <ele>2098.655762</ele>
        <time>2011-09-24T09:50:21Z</time>
      </trkpt>
      <trkpt lat="42.57097" lon="2.05278">
        <ele>2099.163574</ele>
        <time>2011-09-24T09:50:24Z</time>
      </trkpt>
      <trkpt lat="42.57092" lon="2.05274">
        <ele>2099.915039</ele>
        <time>2011-09-24T09:50:27Z</time>
      </trkpt>
      <trkpt lat="42.57088" lon="2.0527">
        <ele>2100.678711</ele>
        <time>2011-09-24T09:50:30Z</time>
      </trkpt>
      <trkpt lat="42.57085" lon="2.05265">
        <ele>2101.443115</ele>
        <time>2011-09-24T09:50:33Z</time>
      </trkpt>
      <trkpt lat="42.57081" lon="2.0526">
        <ele>2102.193604</ele>
        <time>2011-09-24T09:50:36Z</time>
      </trkpt>
      <trkpt lat="42.57077" lon="2.05256">
        <ele>2102.915771</ele>
        <time>2011-09-24T09:50:39Z</time>
      </trkpt>
      <trkpt lat="42.57073" lon="2.05251">
        <ele>2103.609375</ele>
        <time>2011-09-24T09:50:42Z</time>
      </trkpt>
      <trkpt lat="42.57069" lon="2.05245">
        <ele>2104.275391</ele>
        <time>2011-09-24T09:50:45Z</time>
      </trkpt>
      <trkpt lat="42.57063" lon="2.05241">
        <ele>2104.916992</ele>
        <time>2011-09-24T09:50:48Z</time>
      </trkpt>
      <trkpt lat="42.57058" lon="2.05238">
        <ele>2105.532471</ele>
        <time>2011-09-24T09:50:51Z</time>
      </trkpt>
      <trkpt lat="42.57052" lon="2.05235">
        <ele>2106.115234</ele>
        <time>2011-09-24T09:50:54Z</time>
      </trkpt>
      <trkpt lat="42.57047" lon="2.05231">
        <ele>2106.680176</ele>
        <time>2011-09-24T09:50:57Z</time>
      </trkpt>
      <trkpt lat="42.57042" lon="2.05229">
        <ele>2107.218994</ele>
        <time>2011-09-24T09:51:00Z</time>
      </trkpt>
      <trkpt lat="42.57036" lon="2.05227">
        <ele>2107.735352</ele>
        <time>2011-09-24T09:51:04Z</time>
      </trkpt>
      <trkpt lat="42.57031" lon="2.05227">
        <ele>2108.907227</ele>
        <time>2011-09-24T09:51:16Z</time>
      </trkpt>
      <trkpt lat="42.57025" lon="2.05226">
        <ele>2109.412598</ele>
        <time>2011-09-24T09:51:19Z</time>
      </trkpt>
      <trkpt lat="42.5702" lon="2.05224">
        <ele>2110.045654</ele>
        <time>2011-09-24T09:51:23Z</time>
      </trkpt>
      <trkpt lat="42.57016" lon="2.05222">
        <ele>2110.334717</ele>
        <time>2011-09-24T09:51:25Z</time>
      </trkpt>
      <trkpt lat="42.5701" lon="2.05221">
        <ele>2110.614746</ele>
        <time>2011-09-24T09:51:27Z</time>
      </trkpt>
      <trkpt lat="42.57002" lon="2.05221">
        <ele>2112.895508</ele>
        <time>2011-09-24T09:51:29Z</time>
      </trkpt>
      <trkpt lat="42.56997" lon="2.05223">
        <ele>2113.636719</ele>
        <time>2011-09-24T09:51:30Z</time>
      </trkpt>
      <trkpt lat="42.56992" lon="2.05224">
        <ele>2114.188721</ele>
        <time>2011-09-24T09:51:31Z</time>
      </trkpt>
      <trkpt lat="42.56987" lon="2.05225">
        <ele>2114.61499</ele>
        <time>2011-09-24T09:51:32Z</time>
      </trkpt>
      <trkpt lat="42.56982" lon="2.05224">
        <ele>2114.945312</ele>
        <time>2011-09-24T09:51:33Z</time>
      </trkpt>
      <trkpt lat="42.56975" lon="2.05224">
        <ele>2115.191406</ele>
        <time>2011-09-24T09:51:34Z</time>
      </trkpt>
      <trkpt lat="42.56967" lon="2.05223">
        <ele>2115.31665</ele>
        <time>2011-09-24T09:51:35Z</time>
      </trkpt>
      <trkpt lat="42.56959" lon="2.05223">
        <ele>2115.359375</ele>
        <time>2011-09-24T09:51:36Z</time>
      </trkpt>
      <trkpt lat="42.5695" lon="2.05223">
        <ele>2115.375</ele>
        <time>2011-09-24T09:51:37Z</time>
      </trkpt>
      <trkpt lat="42.56942" lon="2.05222">
        <ele>2115.400391</ele>
        <time>2011-09-24T09:51:38Z</time>
      </trkpt>
      <trkpt lat="42.56933" lon="2.05222">
        <ele>2115.38623</ele>
        <time>2011-09-24T09:51:39Z</time>
      </trkpt>
      <trkpt lat="42.56924" lon="2.05223">
        <ele>2115.361084</ele>
        <time>2011-09-24T09:51:40Z</time>
      </trkpt>
      <trkpt lat="42.56915" lon="2.05224">
        <ele>2115.302979</ele>
        <time>2011-09-24T09:51:41Z</time>
      </trkpt>
      <trkpt lat="42.56907" lon="2.05224">
        <ele>2115.137207</ele>
        <time>2011-09-24T09:51:42Z</time>
      </trkpt>
      <trkpt lat="42.56898" lon="2.05225">
        <ele>2114.927979</ele>
        <time>2011-09-24T09:51:43Z</time>
      </trkpt>
      <trkpt lat="42.56889" lon="2.05225">
        <ele>2114.714355</ele>
        <time>2011-09-24T09:51:44Z</time>
      </trkpt>
      <trkpt lat="42.5688" lon="2.05224">
        <ele>2114.598633</ele>
        <time>2011-09-24T09:51:45Z</time>
      </trkpt>
      <trkpt lat="42.56873" lon="2.05224">
        <ele>2114.55957</ele>
        <time>2011-09-24T09:51:46Z</time>
      </trkpt>
      <trkpt lat="42.56866" lon="2.05224">
        <ele>2114.516602</ele>
        <time>2011-09-24T09:51:47Z</time>
      </trkpt>
      <trkpt lat="42.56862" lon="2.05224">
        <ele>2114.349609</ele>
        <time>2011-09-24T09:51:48Z</time>
      </trkpt>
      <trkpt lat="42.56857" lon="2.05225">
        <ele>2114.087402</ele>
        <time>2011-09-24T09:51:49Z</time>
      </trkpt>
      <trkpt lat="42.56851" lon="2.05227">
        <ele>2114.059082</ele>
        <time>2011-09-24T09:51:51Z</time>
      </trkpt>
      <trkpt lat="42.56846" lon="2.05228">
        <ele>2114.053711</ele>
        <time>2011-09-24T09:51:53Z</time>
      </trkpt>
      <trkpt lat="42.5684" lon="2.0523">
        <ele>2114.075195</ele>
        <time>2011-09-24T09:51:55Z</time>
      </trkpt>
      <trkpt lat="42.56835" lon="2.05231">
        <ele>2114.107422</ele>
        <time>2011-09-24T09:51:57Z</time>
      </trkpt>
      <trkpt lat="42.5683" lon="2.05231">
        <ele>2114.142822</ele>
        <time>2011-09-24T09:51:59Z</time>
      </trkpt>
      <trkpt lat="42.56824" lon="2.05229">
        <ele>2114.181641</ele>
        <time>2011-09-24T09:52:01Z</time>
      </trkpt>
      <trkpt lat="42.56819" lon="2.05227">
        <ele>2114.223633</ele>
        <time>2011-09-24T09:52:03Z</time>
      </trkpt>
      <trkpt lat="42.56814" lon="2.05227">
        <ele>2114.317871</ele>
        <time>2011-09-24T09:52:07Z</time>
      </trkpt>
      <trkpt lat="42.56814" lon="2.05227">
        <ele>2114.317871</ele>
        <time>2011-09-24T09:52:08Z</time>
      </trkpt>
      <trkpt lat="42.5681" lon="2.05226">
        <ele>2114.431152</ele>
        <time>2011-09-24T09:52:13Z</time>
      </trkpt>
      <trkpt lat="42.56804" lon="2.05224">
        <ele>2114.464355</ele>
        <time>2011-09-24T09:52:15Z</time>
      </trkpt>
      <trkpt lat="42.56794" lon="2.05221">
        <ele>2114.52832</ele>
        <time>2011-09-24T09:52:17Z</time>
      </trkpt>
      <trkpt lat="42.56789" lon="2.0522">
        <ele>2114.400391</ele>
        <time>2011-09-24T09:52:18Z</time>
      </trkpt>
      <trkpt lat="42.56782" lon="2.0522">
        <ele>2114.310303</ele>
        <time>2011-09-24T09:52:19Z</time>
      </trkpt>
      <trkpt lat="42.56776" lon="2.05219">
        <ele>2114.112549</ele>
        <time>2011-09-24T09:52:20Z</time>
      </trkpt>
      <trkpt lat="42.56769" lon="2.05219">
        <ele>2113.871094</ele>
        <time>2011-09-24T09:52:21Z</time>
      </trkpt>
      <trkpt lat="42.56763" lon="2.05218">
        <ele>2113.496826</ele>
        <time>2011-09-24T09:52:22Z</time>
      </trkpt>
      <trkpt lat="42.56756" lon="2.05217">
        <ele>2113.068848</ele>
        <time>2011-09-24T09:52:23Z</time>
      </trkpt>
      <trkpt lat="42.5675" lon="2.05216">
        <ele>2112.616455</ele>
        <time>2011-09-24T09:52:24Z</time>
      </trkpt>
      <trkpt lat="42.56744" lon="2.05216">
        <ele>2112.204346</ele>
        <time>2011-09-24T09:52:25Z</time>
      </trkpt>
      <trkpt lat="42.56738" lon="2.05216">
        <ele>2111.944336</ele>
        <time>2011-09-24T09:52:26Z</time>
      </trkpt>
      <trkpt lat="42.56731" lon="2.05215">
        <ele>2111.770508</ele>
        <time>2011-09-24T09:52:27Z</time>
      </trkpt>
      <trkpt lat="42.56725" lon="2.05214">
        <ele>2111.437256</ele>
        <time>2011-09-24T09:52:28Z</time>
      </trkpt>
      <trkpt lat="42.56718" lon="2.05213">
        <ele>2111.081299</ele>
        <time>2011-09-24T09:52:29Z</time>
      </trkpt>
      <trkpt lat="42.56712" lon="2.05211">
        <ele>2110.744629</ele>
        <time>2011-09-24T09:52:30Z</time>
      </trkpt>
      <trkpt lat="42.56706" lon="2.05211">
        <ele>2110.448486</ele>
        <time>2011-09-24T09:52:31Z</time>
      </trkpt>
      <trkpt lat="42.567" lon="2.05211">
        <ele>2110.351074</ele>
        <time>2011-09-24T09:52:32Z</time>
      </trkpt>
      <trkpt lat="42.56694" lon="2.05209">
        <ele>2110.05957</ele>
        <time>2011-09-24T09:52:33Z</time>
      </trkpt>
      <trkpt lat="42.56687" lon="2.05205">
        <ele>2109.621826</ele>
        <time>2011-09-24T09:52:34Z</time>
      </trkpt>
      <trkpt lat="42.56679" lon="2.052">
        <ele>2109.2146</ele>
        <time>2011-09-24T09:52:35Z</time>
      </trkpt>
      <trkpt lat="42.56672" lon="2.05194">
        <ele>2109.2146</ele>
        <time>2011-09-24T09:52:36Z</time>
      </trkpt>
      <trkpt lat="42.56662" lon="2.05195">
        <ele>2108.283936</ele>
        <time>2011-09-24T09:52:37Z</time>
      </trkpt>
      <trkpt lat="42.56653" lon="2.05195">
        <ele>2107.403076</ele>
        <time>2011-09-24T09:52:38Z</time>
      </trkpt>
      <trkpt lat="42.56649" lon="2.05194">
        <ele>2107.319336</ele>
        <time>2011-09-24T09:52:39Z</time>
      </trkpt>
      <trkpt lat="42.56643" lon="2.05192">
        <ele>2105.849365</ele>
        <time>2011-09-24T09:52:40Z</time>
      </trkpt>
      <trkpt lat="42.56638" lon="2.0519">
        <ele>2104.2771</ele>
        <time>2011-09-24T09:52:41Z</time>
      </trkpt>
      <trkpt lat="42.56633" lon="2.05189">
        <ele>2102.6521</ele>
        <time>2011-09-24T09:52:42Z</time>
      </trkpt>
      <trkpt lat="42.56622" lon="2.05194">
        <ele>2100.688477</ele>
        <time>2011-09-24T09:52:45Z</time>
      </trkpt>
      <trkpt lat="42.56617" lon="2.05193">
        <ele>2099.168457</ele>
        <time>2011-09-24T09:52:46Z</time>
      </trkpt>
      <trkpt lat="42.56611" lon="2.05195">
        <ele>2098.243652</ele>
        <time>2011-09-24T09:52:47Z</time>
      </trkpt>
      <trkpt lat="42.56606" lon="2.05196">
        <ele>2097.626465</ele>
        <time>2011-09-24T09:52:48Z</time>
      </trkpt>
      <trkpt lat="42.566" lon="2.05198">
        <ele>2097.130615</ele>
        <time>2011-09-24T09:52:49Z</time>
      </trkpt>
      <trkpt lat="42.56594" lon="2.052">
        <ele>2096.687744</ele>
        <time>2011-09-24T09:52:50Z</time>
      </trkpt>
      <trkpt lat="42.56587" lon="2.05202">
        <ele>2096.26123</ele>
        <time>2011-09-24T09:52:51Z</time>
      </trkpt>
      <trkpt lat="42.56579" lon="2.052">
        <ele>2095.862549</ele>
        <time>2011-09-24T09:52:52Z</time>
      </trkpt>
      <trkpt lat="42.56572" lon="2.05198">
        <ele>2095.647705</ele>
        <time>2011-09-24T09:52:53Z</time>
      </trkpt>
      <trkpt lat="42.56564" lon="2.05198">
        <ele>2095.201172</ele>
        <time>2011-09-24T09:52:54Z</time>
      </trkpt>
      <trkpt lat="42.56555" lon="2.052">
        <ele>2094.656738</ele>
        <time>2011-09-24T09:52:55Z</time>
      </trkpt>
      <trkpt lat="42.56548" lon="2.05201">
        <ele>2093.905762</ele>
        <time>2011-09-24T09:52:56Z</time>
      </trkpt>
      <trkpt lat="42.56541" lon="2.05204">
        <ele>2093.077881</ele>
        <time>2011-09-24T09:52:57Z</time>
      </trkpt>
      <trkpt lat="42.56535" lon="2.05208">
        <ele>2092.233154</ele>
        <time>2011-09-24T09:52:58Z</time>
      </trkpt>
      <trkpt lat="42.56529" lon="2.05211">
        <ele>2091.253662</ele>
        <time>2011-09-24T09:52:59Z</time>
      </trkpt>
      <trkpt lat="42.56522" lon="2.05215">
        <ele>2090.161621</ele>
        <time>2011-09-24T09:53:00Z</time>
      </trkpt>
      <trkpt lat="42.56515" lon="2.0522">
        <ele>2089.130371</ele>
        <time>2011-09-24T09:53:01Z</time>
      </trkpt>
      <trkpt lat="42.56509" lon="2.05225">
        <ele>2088.048096</ele>
        <time>2011-09-24T09:53:02Z</time>
      </trkpt>
      <trkpt lat="42.56504" lon="2.05231">
        <ele>2086.886475</ele>
        <time>2011-09-24T09:53:03Z</time>
      </trkpt>
      <trkpt lat="42.56499" lon="2.05236">
        <ele>2085.733643</ele>
        <time>2011-09-24T09:53:04Z</time>
      </trkpt>
      <trkpt lat="42.56494" lon="2.0524">
        <ele>2084.630615</ele>
        <time>2011-09-24T09:53:05Z</time>
      </trkpt>
      <trkpt lat="42.56488" lon="2.05243">
        <ele>2083.40625</ele>
        <time>2011-09-24T09:53:06Z</time>
      </trkpt>
      <trkpt lat="42.56482" lon="2.05246">
        <ele>2082.118896</ele>
        <time>2011-09-24T09:53:07Z</time>
      </trkpt>
      <trkpt lat="42.56475" lon="2.05249">
        <ele>2080.888916</ele>
        <time>2011-09-24T09:53:08Z</time>
      </trkpt>
      <trkpt lat="42.5647" lon="2.05253">
        <ele>2079.724854</ele>
        <time>2011-09-24T09:53:09Z</time>
      </trkpt>
      <trkpt lat="42.56465" lon="2.05256">
        <ele>2078.698486</ele>
        <time>2011-09-24T09:53:10Z</time>
      </trkpt>
      <trkpt lat="42.5646" lon="2.05261">
        <ele>2077.797363</ele>
        <time>2011-09-24T09:53:11Z</time>
      </trkpt>
      <trkpt lat="42.56456" lon="2.05267">
        <ele>2076.954834</ele>
        <time>2011-09-24T09:53:12Z</time>
      </trkpt>
      <trkpt lat="42.56452" lon="2.05271">
        <ele>2076.11377</ele>
        <time>2011-09-24T09:53:13Z</time>
      </trkpt>
      <trkpt lat="42.56448" lon="2.05276">
        <ele>2075.322998</ele>
        <time>2011-09-24T09:53:14Z</time>
      </trkpt>
      <trkpt lat="42.56443" lon="2.05281">
        <ele>2074.555176</ele>
        <time>2011-09-24T09:53:15Z</time>
      </trkpt>
      <trkpt lat="42.5644" lon="2.05287">
        <ele>2073.741455</ele>
        <time>2011-09-24T09:53:16Z</time>
      </trkpt>
      <trkpt lat="42.56436" lon="2.05293">
        <ele>2072.942383</ele>
        <time>2011-09-24T09:53:17Z</time>
      </trkpt>
      <trkpt lat="42.5643" lon="2.05299">
        <ele>2071.841797</ele>
        <time>2011-09-24T09:53:19Z</time>
      </trkpt>
      <trkpt lat="42.56422" lon="2.05302">
        <ele>2069.704834</ele>
        <time>2011-09-24T09:53:21Z</time>
      </trkpt>
      <trkpt lat="42.56415" lon="2.05304">
        <ele>2069.463135</ele>
        <time>2011-09-24T09:53:23Z</time>
      </trkpt>
      <trkpt lat="42.56408" lon="2.0531">
        <ele>2066.770264</ele>
        <time>2011-09-24T09:53:25Z</time>
      </trkpt>
      <trkpt lat="42.56401" lon="2.05319">
        <ele>2064.49292</ele>
        <time>2011-09-24T09:53:27Z</time>
      </trkpt>
      <trkpt lat="42.56397" lon="2.05324">
        <ele>2063.432617</ele>
        <time>2011-09-24T09:53:28Z</time>
      </trkpt>
      <trkpt lat="42.56391" lon="2.05329">
        <ele>2062.288574</ele>
        <time>2011-09-24T09:53:29Z</time>
      </trkpt>
      <trkpt lat="42.56386" lon="2.05334">
        <ele>2061.188965</ele>
        <time>2011-09-24T09:53:30Z</time>
      </trkpt>
      <trkpt lat="42.56382" lon="2.05338">
        <ele>2060.196289</ele>
        <time>2011-09-24T09:53:31Z</time>
      </trkpt>
      <trkpt lat="42.56378" lon="2.05342">
        <ele>2059.165527</ele>
        <time>2011-09-24T09:53:32Z</time>
      </trkpt>
      <trkpt lat="42.56374" lon="2.05346">
        <ele>2058.14624</ele>
        <time>2011-09-24T09:53:33Z</time>
      </trkpt>
      <trkpt lat="42.56371" lon="2.05355">
        <ele>2057.9729</ele>
        <time>2011-09-24T09:53:35Z</time>
      </trkpt>
      <trkpt lat="42.56367" lon="2.05366">
        <ele>2056.2229</ele>
        <time>2011-09-24T09:53:37Z</time>
      </trkpt>
      <trkpt lat="42.56363" lon="2.0537">
        <ele>2055.360107</ele>
        <time>2011-09-24T09:53:38Z</time>
      </trkpt>
      <trkpt lat="42.56357" lon="2.05374">
        <ele>2054.22168</ele>
        <time>2011-09-24T09:53:39Z</time>
      </trkpt>
      <trkpt lat="42.5635" lon="2.05378">
        <ele>2052.796631</ele>
        <time>2011-09-24T09:53:40Z</time>
      </trkpt>
      <trkpt lat="42.56343" lon="2.05383">
        <ele>2051.310303</ele>
        <time>2011-09-24T09:53:41Z</time>
      </trkpt>
      <trkpt lat="42.56337" lon="2.05392">
        <ele>2049.806885</ele>
        <time>2011-09-24T09:53:42Z</time>
      </trkpt>
      <trkpt lat="42.56331" lon="2.05401">
        <ele>2048.290283</ele>
        <time>2011-09-24T09:53:43Z</time>
      </trkpt>
      <trkpt lat="42.56324" lon="2.05408">
        <ele>2046.837524</ele>
        <time>2011-09-24T09:53:44Z</time>
      </trkpt>
      <trkpt lat="42.56316" lon="2.05415">
        <ele>2045.467896</ele>
        <time>2011-09-24T09:53:45Z</time>
      </trkpt>
      <trkpt lat="42.56309" lon="2.05421">
        <ele>2044.024048</ele>
        <time>2011-09-24T09:53:46Z</time>
      </trkpt>
      <trkpt lat="42.56305" lon="2.05429">
        <ele>2042.78064</ele>
        <time>2011-09-24T09:53:47Z</time>
      </trkpt>
      <trkpt lat="42.56301" lon="2.05433">
        <ele>2041.535767</ele>
        <time>2011-09-24T09:53:48Z</time>
      </trkpt>
      <trkpt lat="42.56297" lon="2.05437">
        <ele>2040.329712</ele>
        <time>2011-09-24T09:53:49Z</time>
      </trkpt>
      <trkpt lat="42.56293" lon="2.05441">
        <ele>2039.179565</ele>
        <time>2011-09-24T09:53:50Z</time>
      </trkpt>
      <trkpt lat="42.56288" lon="2.05446">
        <ele>2038.115112</ele>
        <time>2011-09-24T09:53:51Z</time>
      </trkpt>
      <trkpt lat="42.56283" lon="2.05453">
        <ele>2037.103638</ele>
        <time>2011-09-24T09:53:52Z</time>
      </trkpt>
      <trkpt lat="42.56278" lon="2.0546">
        <ele>2036.210815</ele>
        <time>2011-09-24T09:53:53Z</time>
      </trkpt>
      <trkpt lat="42.56274" lon="2.05466">
        <ele>2035.405396</ele>
        <time>2011-09-24T09:53:54Z</time>
      </trkpt>
      <trkpt lat="42.56269" lon="2.05474">
        <ele>2034.707642</ele>
        <time>2011-09-24T09:53:55Z</time>
      </trkpt>
      <trkpt lat="42.56265" lon="2.05481">
        <ele>2034.109985</ele>
        <time>2011-09-24T09:53:56Z</time>
      </trkpt>
      <trkpt lat="42.5626" lon="2.05489">
        <ele>2033.571411</ele>
        <time>2011-09-24T09:53:57Z</time>
      </trkpt>
      <trkpt lat="42.56255" lon="2.05497">
        <ele>2032.990356</ele>
        <time>2011-09-24T09:53:58Z</time>
      </trkpt>
      <trkpt lat="42.5625" lon="2.05504">
        <ele>2032.474731</ele>
        <time>2011-09-24T09:53:59Z</time>
      </trkpt>
      <trkpt lat="42.56246" lon="2.05509">
        <ele>2032.177612</ele>
        <time>2011-09-24T09:54:00Z</time>
      </trkpt>
      <trkpt lat="42.56241" lon="2.05515">
        <ele>2032.202759</ele>
        <time>2011-09-24T09:54:01Z</time>
      </trkpt>
      <trkpt lat="42.56236" lon="2.0552">
        <ele>2032.485718</ele>
        <time>2011-09-24T09:54:02Z</time>
      </trkpt>
      <trkpt lat="42.5623" lon="2.05523">
        <ele>2032.520874</ele>
        <time>2011-09-24T09:54:03Z</time>
      </trkpt>
      <trkpt lat="42.56223" lon="2.05526">
        <ele>2032.640015</ele>
        <time>2011-09-24T09:54:04Z</time>
      </trkpt>
      <trkpt lat="42.56216" lon="2.05528">
        <ele>2032.79187</ele>
        <time>2011-09-24T09:54:05Z</time>
      </trkpt>
      <trkpt lat="42.56209" lon="2.05533">
        <ele>2032.958862</ele>
        <time>2011-09-24T09:54:06Z</time>
      </trkpt>
      <trkpt lat="42.56203" lon="2.05539">
        <ele>2032.925903</ele>
        <time>2011-09-24T09:54:07Z</time>
      </trkpt>
      <trkpt lat="42.56198" lon="2.05546">
        <ele>2032.756226</ele>
        <time>2011-09-24T09:54:08Z</time>
      </trkpt>
      <trkpt lat="42.56193" lon="2.05554">
        <ele>2032.655396</ele>
        <time>2011-09-24T09:54:09Z</time>
      </trkpt>
      <trkpt lat="42.56187" lon="2.0556">
        <ele>2032.542114</ele>
        <time>2011-09-24T09:54:10Z</time>
      </trkpt>
      <trkpt lat="42.56181" lon="2.05566">
        <ele>2032.448364</ele>
        <time>2011-09-24T09:54:11Z</time>
      </trkpt>
      <trkpt lat="42.56176" lon="2.05573">
        <ele>2032.330688</ele>
        <time>2011-09-24T09:54:12Z</time>
      </trkpt>
      <trkpt lat="42.5617" lon="2.0558">
        <ele>2032.162964</ele>
        <time>2011-09-24T09:54:13Z</time>
      </trkpt>
      <trkpt lat="42.56165" lon="2.05587">
        <ele>2031.94104</ele>
        <time>2011-09-24T09:54:14Z</time>
      </trkpt>
      <trkpt lat="42.56159" lon="2.05591">
        <ele>2031.687866</ele>
        <time>2011-09-24T09:54:15Z</time>
      </trkpt>
      <trkpt lat="42.56153" lon="2.05595">
        <ele>2031.536743</ele>
        <time>2011-09-24T09:54:16Z</time>
      </trkpt>
      <trkpt lat="42.56146" lon="2.05597">
        <ele>2031.215454</ele>
        <time>2011-09-24T09:54:17Z</time>
      </trkpt>
      <trkpt lat="42.5614" lon="2.05599">
        <ele>2030.896362</ele>
        <time>2011-09-24T09:54:18Z</time>
      </trkpt>
      <trkpt lat="42.5613" lon="2.05603">
        <ele>2030.102417</ele>
        <time>2011-09-24T09:54:20Z</time>
      </trkpt>
      <trkpt lat="42.56126" lon="2.05607">
        <ele>2029.541626</ele>
        <time>2011-09-24T09:54:21Z</time>
      </trkpt>
      <trkpt lat="42.56122" lon="2.05613">
        <ele>2029.428101</ele>
        <time>2011-09-24T09:54:23Z</time>
      </trkpt>
      <trkpt lat="42.56117" lon="2.0562">
        <ele>2029.127808</ele>
        <time>2011-09-24T09:54:26Z</time>
      </trkpt>
      <trkpt lat="42.56111" lon="2.05627">
        <ele>2027.098999</ele>
        <time>2011-09-24T09:54:28Z</time>
      </trkpt>
      <trkpt lat="42.56106" lon="2.0563">
        <ele>2026.988892</ele>
        <time>2011-09-24T09:54:29Z</time>
      </trkpt>
      <trkpt lat="42.56102" lon="2.05632">
        <ele>2026.878784</ele>
        <time>2011-09-24T09:54:30Z</time>
      </trkpt>
      <trkpt lat="42.56098" lon="2.05635">
        <ele>2025.755493</ele>
        <time>2011-09-24T09:54:31Z</time>
      </trkpt>
      <trkpt lat="42.56093" lon="2.05638">
        <ele>2024.821899</ele>
        <time>2011-09-24T09:54:32Z</time>
      </trkpt>
      <trkpt lat="42.56088" lon="2.05639">
        <ele>2023.910278</ele>
        <time>2011-09-24T09:54:33Z</time>
      </trkpt>
      <trkpt lat="42.5608" lon="2.05632">
        <ele>2022.893433</ele>
        <time>2011-09-24T09:54:35Z</time>
      </trkpt>
      <trkpt lat="42.56073" lon="2.05628">
        <ele>2021.676147</ele>
        <time>2011-09-24T09:54:36Z</time>
      </trkpt>
      <trkpt lat="42.56066" lon="2.05626">
        <ele>2020.49231</ele>
        <time>2011-09-24T09:54:37Z</time>
      </trkpt>
      <trkpt lat="42.56058" lon="2.05628">
        <ele>2019.390991</ele>
        <time>2011-09-24T09:54:38Z</time>
      </trkpt>
      <trkpt lat="42.56051" lon="2.05634">
        <ele>2018.367065</ele>
        <time>2011-09-24T09:54:39Z</time>
      </trkpt>
      <trkpt lat="42.56045" lon="2.0564">
        <ele>2017.421997</ele>
        <time>2011-09-24T09:54:40Z</time>
      </trkpt>
      <trkpt lat="42.56039" lon="2.05643">
        <ele>2016.578491</ele>
        <time>2011-09-24T09:54:41Z</time>
      </trkpt>
      <trkpt lat="42.56034" lon="2.05641">
        <ele>2015.664185</ele>
        <time>2011-09-24T09:54:42Z</time>
      </trkpt>
      <trkpt lat="42.56028" lon="2.0564">
        <ele>2014.891724</ele>
        <time>2011-09-24T09:54:43Z</time>
      </trkpt>
      <trkpt lat="42.56021" lon="2.05639">
        <ele>2014.162476</ele>
        <time>2011-09-24T09:54:44Z</time>
      </trkpt>
      <trkpt lat="42.56015" lon="2.0564">
        <ele>2013.464233</ele>
        <time>2011-09-24T09:54:45Z</time>
      </trkpt>
      <trkpt lat="42.56009" lon="2.05642">
        <ele>2012.731323</ele>
        <time>2011-09-24T09:54:46Z</time>
      </trkpt>
      <trkpt lat="42.56002" lon="2.05643">
        <ele>2011.987671</ele>
        <time>2011-09-24T09:54:47Z</time>
      </trkpt>
      <trkpt lat="42.55995" lon="2.05645">
        <ele>2010.995728</ele>
        <time>2011-09-24T09:54:48Z</time>
      </trkpt>
      <trkpt lat="42.55986" lon="2.05647">
        <ele>2009.996948</ele>
        <time>2011-09-24T09:54:49Z</time>
      </trkpt>
      <trkpt lat="42.55978" lon="2.05651">
        <ele>2009.160278</ele>
        <time>2011-09-24T09:54:50Z</time>
      </trkpt>
      <trkpt lat="42.55971" lon="2.05656">
        <ele>2008.221313</ele>
        <time>2011-09-24T09:54:51Z</time>
      </trkpt>
      <trkpt lat="42.55964" lon="2.05661">
        <ele>2007.319458</ele>
        <time>2011-09-24T09:54:52Z</time>
      </trkpt>
      <trkpt lat="42.55958" lon="2.05666">
        <ele>2006.407837</ele>
        <time>2011-09-24T09:54:53Z</time>
      </trkpt>
      <trkpt lat="42.55953" lon="2.05671">
        <ele>2005.528442</ele>
        <time>2011-09-24T09:54:54Z</time>
      </trkpt>
      <trkpt lat="42.55949" lon="2.05678">
        <ele>2004.710815</ele>
        <time>2011-09-24T09:54:55Z</time>
      </trkpt>
      <trkpt lat="42.55945" lon="2.05685">
        <ele>2003.788208</ele>
        <time>2011-09-24T09:54:56Z</time>
      </trkpt>
      <trkpt lat="42.5594" lon="2.05693">
        <ele>2002.815308</ele>
        <time>2011-09-24T09:54:57Z</time>
      </trkpt>
      <trkpt lat="42.55935" lon="2.057">
        <ele>2001.824097</ele>
        <time>2011-09-24T09:54:58Z</time>
      </trkpt>
      <trkpt lat="42.55929" lon="2.05707">
        <ele>2000.87561</ele>
        <time>2011-09-24T09:54:59Z</time>
      </trkpt>
      <trkpt lat="42.55924" lon="2.05713">
        <ele>2000.061646</ele>
        <time>2011-09-24T09:55:00Z</time>
      </trkpt>
      <trkpt lat="42.55919" lon="2.0572">
        <ele>1999.314331</ele>
        <time>2011-09-24T09:55:01Z</time>
      </trkpt>
      <trkpt lat="42.55914" lon="2.05725">
        <ele>1998.765991</ele>
        <time>2011-09-24T09:55:02Z</time>
      </trkpt>
      <trkpt lat="42.5591" lon="2.05731">
        <ele>1998.356567</ele>
        <time>2011-09-24T09:55:03Z</time>
      </trkpt>
      <trkpt lat="42.55905" lon="2.05736">
        <ele>1997.983521</ele>
        <time>2011-09-24T09:55:04Z</time>
      </trkpt>
      <trkpt lat="42.55901" lon="2.05742">
        <ele>1997.597534</ele>
        <time>2011-09-24T09:55:05Z</time>
      </trkpt>
      <trkpt lat="42.55896" lon="2.05747">
        <ele>1997.198975</ele>
        <time>2011-09-24T09:55:06Z</time>
      </trkpt>
      <trkpt lat="42.55891" lon="2.05754">
        <ele>1996.825928</ele>
        <time>2011-09-24T09:55:07Z</time>
      </trkpt>
      <trkpt lat="42.55887" lon="2.05762">
        <ele>1996.492798</ele>
        <time>2011-09-24T09:55:08Z</time>
      </trkpt>
      <trkpt lat="42.55882" lon="2.05769">
        <ele>1996.08728</ele>
        <time>2011-09-24T09:55:09Z</time>
      </trkpt>
      <trkpt lat="42.55877" lon="2.05777">
        <ele>1995.483276</ele>
        <time>2011-09-24T09:55:10Z</time>
      </trkpt>
      <trkpt lat="42.55872" lon="2.05785">
        <ele>1994.907959</ele>
        <time>2011-09-24T09:55:11Z</time>
      </trkpt>
      <trkpt lat="42.55868" lon="2.05793">
        <ele>1994.383423</ele>
        <time>2011-09-24T09:55:12Z</time>
      </trkpt>
      <trkpt lat="42.55863" lon="2.058">
        <ele>1993.859009</ele>
        <time>2011-09-24T09:55:13Z</time>
      </trkpt>
      <trkpt lat="42.55859" lon="2.05808">
        <ele>1993.315674</ele>
        <time>2011-09-24T09:55:14Z</time>
      </trkpt>
      <trkpt lat="42.55855" lon="2.05815">
        <ele>1992.842041</ele>
        <time>2011-09-24T09:55:15Z</time>
      </trkpt>
      <trkpt lat="42.5585" lon="2.05824">
        <ele>1992.232544</ele>
        <time>2011-09-24T09:55:16Z</time>
      </trkpt>
      <trkpt lat="42.55846" lon="2.05832">
        <ele>1991.563721</ele>
        <time>2011-09-24T09:55:17Z</time>
      </trkpt>
      <trkpt lat="42.55843" lon="2.05842">
        <ele>1990.886841</ele>
        <time>2011-09-24T09:55:18Z</time>
      </trkpt>
      <trkpt lat="42.55841" lon="2.05852">
        <ele>1990.067871</ele>
        <time>2011-09-24T09:55:19Z</time>
      </trkpt>
      <trkpt lat="42.55841" lon="2.05862">
        <ele>1989.245972</ele>
        <time>2011-09-24T09:55:20Z</time>
      </trkpt>
      <trkpt lat="42.55842" lon="2.0587">
        <ele>1988.53772</ele>
        <time>2011-09-24T09:55:21Z</time>
      </trkpt>
      <trkpt lat="42.55843" lon="2.05878">
        <ele>1987.890137</ele>
        <time>2011-09-24T09:55:22Z</time>
      </trkpt>
      <trkpt lat="42.55838" lon="2.05887">
        <ele>1986.291382</ele>
        <time>2011-09-24T09:55:24Z</time>
      </trkpt>
      <trkpt lat="42.55831" lon="2.05888">
        <ele>1986.097534</ele>
        <time>2011-09-24T09:55:26Z</time>
      </trkpt>
      <trkpt lat="42.55826" lon="2.05892">
        <ele>1984.885376</ele>
        <time>2011-09-24T09:55:27Z</time>
      </trkpt>
      <trkpt lat="42.55824" lon="2.05903">
        <ele>1983.796875</ele>
        <time>2011-09-24T09:55:28Z</time>
      </trkpt>
      <trkpt lat="42.55824" lon="2.05917">
        <ele>1982.673828</ele>
        <time>2011-09-24T09:55:29Z</time>
      </trkpt>
      <trkpt lat="42.55825" lon="2.0593">
        <ele>1981.625854</ele>
        <time>2011-09-24T09:55:30Z</time>
      </trkpt>
      <trkpt lat="42.55827" lon="2.05941">
        <ele>1980.46875</ele>
        <time>2011-09-24T09:55:31Z</time>
      </trkpt>
      <trkpt lat="42.55829" lon="2.05952">
        <ele>1979.375</ele>
        <time>2011-09-24T09:55:32Z</time>
      </trkpt>
      <trkpt lat="42.55831" lon="2.05963">
        <ele>1979.375</ele>
        <time>2011-09-24T09:55:33Z</time>
      </trkpt>
      <trkpt lat="42.55833" lon="2.05978">
        <ele>1977.98999</ele>
        <time>2011-09-24T09:55:34Z</time>
      </trkpt>
      <trkpt lat="42.55834" lon="2.05992">
        <ele>1975.54541</ele>
        <time>2011-09-24T09:55:35Z</time>
      </trkpt>
      <trkpt lat="42.55832" lon="2.06007">
        <ele>1972.587402</ele>
        <time>2011-09-24T09:55:36Z</time>
      </trkpt>
      <trkpt lat="42.55829" lon="2.06023">
        <ele>1969.423218</ele>
        <time>2011-09-24T09:55:37Z</time>
      </trkpt>
      <trkpt lat="42.55827" lon="2.06038">
        <ele>1966.236572</ele>
        <time>2011-09-24T09:55:38Z</time>
      </trkpt>
      <trkpt lat="42.55826" lon="2.06053">
        <ele>1963.229736</ele>
        <time>2011-09-24T09:55:39Z</time>
      </trkpt>
      <trkpt lat="42.55825" lon="2.06067">
        <ele>1960.503662</ele>
        <time>2011-09-24T09:55:40Z</time>
      </trkpt>
      <trkpt lat="42.55825" lon="2.0608">
        <ele>1957.997803</ele>
        <time>2011-09-24T09:55:41Z</time>
      </trkpt>
      <trkpt lat="42.55825" lon="2.0609">
        <ele>1955.565063</ele>
        <time>2011-09-24T09:55:42Z</time>
      </trkpt>
      <trkpt lat="42.55825" lon="2.06099">
        <ele>1953.455811</ele>
        <time>2011-09-24T09:55:43Z</time>
      </trkpt>
      <trkpt lat="42.55825" lon="2.06106">
        <ele>1951.775391</ele>
        <time>2011-09-24T09:55:44Z</time>
      </trkpt>
      <trkpt lat="42.55825" lon="2.06113">
        <ele>1950.175049</ele>
        <time>2011-09-24T09:55:45Z</time>
      </trkpt>
      <trkpt lat="42.55825" lon="2.06125">
        <ele>1947.454346</ele>
        <time>2011-09-24T09:55:47Z</time>
      </trkpt>
      <trkpt lat="42.55823" lon="2.06131">
        <ele>1946.398315</ele>
        <time>2011-09-24T09:55:48Z</time>
      </trkpt>
      <trkpt lat="42.55822" lon="2.06137">
        <ele>1945.406006</ele>
        <time>2011-09-24T09:55:49Z</time>
      </trkpt>
      <trkpt lat="42.5582" lon="2.06144">
        <ele>1944.455322</ele>
        <time>2011-09-24T09:55:50Z</time>
      </trkpt>
      <trkpt lat="42.5582" lon="2.06151">
        <ele>1943.477051</ele>
        <time>2011-09-24T09:55:51Z</time>
      </trkpt>
      <trkpt lat="42.55822" lon="2.06162">
        <ele>1943.293213</ele>
        <time>2011-09-24T09:55:53Z</time>
      </trkpt>
      <trkpt lat="42.55825" lon="2.06172">
        <ele>1941.161621</ele>
        <time>2011-09-24T09:55:55Z</time>
      </trkpt>
      <trkpt lat="42.55827" lon="2.06182">
        <ele>1939.096191</ele>
        <time>2011-09-24T09:55:57Z</time>
      </trkpt>
      <trkpt lat="42.55831" lon="2.06191">
        <ele>1938.851318</ele>
        <time>2011-09-24T09:55:59Z</time>
      </trkpt>
      <trkpt lat="42.55835" lon="2.06196">
        <ele>1938.561279</ele>
        <time>2011-09-24T09:56:01Z</time>
      </trkpt>
      <trkpt lat="42.55844" lon="2.06202">
        <ele>1936.947632</ele>
        <time>2011-09-24T09:56:03Z</time>
      </trkpt>
      <trkpt lat="42.55849" lon="2.06206">
        <ele>1935.79541</ele>
        <time>2011-09-24T09:56:04Z</time>
      </trkpt>
      <trkpt lat="42.55854" lon="2.06209">
        <ele>1934.793213</ele>
        <time>2011-09-24T09:56:05Z</time>
      </trkpt>
      <trkpt lat="42.55859" lon="2.06212">
        <ele>1933.739136</ele>
        <time>2011-09-24T09:56:06Z</time>
      </trkpt>
      <trkpt lat="42.55865" lon="2.06214">
        <ele>1933.54834</ele>
        <time>2011-09-24T09:56:08Z</time>
      </trkpt>
      <trkpt lat="42.55869" lon="2.06212">
        <ele>1933.346313</ele>
        <time>2011-09-24T09:56:10Z</time>
      </trkpt>
      <trkpt lat="42.55875" lon="2.06208">
        <ele>1932.053955</ele>
        <time>2011-09-24T09:56:12Z</time>
      </trkpt>
      <trkpt lat="42.55883" lon="2.06203">
        <ele>1930.405518</ele>
        <time>2011-09-24T09:56:14Z</time>
      </trkpt>
      <trkpt lat="42.55889" lon="2.06201">
        <ele>1929.825317</ele>
        <time>2011-09-24T09:56:15Z</time>
      </trkpt>
      <trkpt lat="42.55895" lon="2.06201">
        <ele>1929.294434</ele>
        <time>2011-09-24T09:56:16Z</time>
      </trkpt>
      <trkpt lat="42.559" lon="2.06202">
        <ele>1928.720093</ele>
        <time>2011-09-24T09:56:17Z</time>
      </trkpt>
      <trkpt lat="42.55906" lon="2.0621">
        <ele>1928.593384</ele>
        <time>2011-09-24T09:56:19Z</time>
      </trkpt>
      <trkpt lat="42.55908" lon="2.06216">
        <ele>1927.671265</ele>
        <time>2011-09-24T09:56:20Z</time>
      </trkpt>
      <trkpt lat="42.55911" lon="2.06221">
        <ele>1927.569824</ele>
        <time>2011-09-24T09:56:21Z</time>
      </trkpt>
      <trkpt lat="42.55916" lon="2.06222">
        <ele>1926.288696</ele>
        <time>2011-09-24T09:56:22Z</time>
      </trkpt>
      <trkpt lat="42.55922" lon="2.06223">
        <ele>1925.105591</ele>
        <time>2011-09-24T09:56:23Z</time>
      </trkpt>
      <trkpt lat="42.55929" lon="2.06224">
        <ele>1923.960571</ele>
        <time>2011-09-24T09:56:24Z</time>
      </trkpt>
      <trkpt lat="42.55936" lon="2.06226">
        <ele>1922.688965</ele>
        <time>2011-09-24T09:56:25Z</time>
      </trkpt>
      <trkpt lat="42.55943" lon="2.06229">
        <ele>1922.433228</ele>
        <time>2011-09-24T09:56:27Z</time>
      </trkpt>
      <trkpt lat="42.55945" lon="2.06238">
        <ele>1922.15271</ele>
        <time>2011-09-24T09:56:29Z</time>
      </trkpt>
      <trkpt lat="42.5595" lon="2.06245">
        <ele>1920.609985</ele>
        <time>2011-09-24T09:56:31Z</time>
      </trkpt>
      <trkpt lat="42.55955" lon="2.06247">
        <ele>1919.370605</ele>
        <time>2011-09-24T09:56:32Z</time>
      </trkpt>
      <trkpt lat="42.55962" lon="2.06248">
        <ele>1918.215454</ele>
        <time>2011-09-24T09:56:33Z</time>
      </trkpt>
      <trkpt lat="42.55968" lon="2.06245">
        <ele>1916.960327</ele>
        <time>2011-09-24T09:56:34Z</time>
      </trkpt>
      <trkpt lat="42.55975" lon="2.06241">
        <ele>1915.794189</ele>
        <time>2011-09-24T09:56:35Z</time>
      </trkpt>
      <trkpt lat="42.55983" lon="2.06235">
        <ele>1914.616333</ele>
        <time>2011-09-24T09:56:36Z</time>
      </trkpt>
      <trkpt lat="42.55988" lon="2.06231">
        <ele>1913.434082</ele>
        <time>2011-09-24T09:56:37Z</time>
      </trkpt>
      <trkpt lat="42.55995" lon="2.06226">
        <ele>1912.353149</ele>
        <time>2011-09-24T09:56:38Z</time>
      </trkpt>
      <trkpt lat="42.56004" lon="2.06221">
        <ele>1911.083008</ele>
        <time>2011-09-24T09:56:39Z</time>
      </trkpt>
      <trkpt lat="42.56012" lon="2.06217">
        <ele>1909.700562</ele>
        <time>2011-09-24T09:56:40Z</time>
      </trkpt>
      <trkpt lat="42.56017" lon="2.06219">
        <ele>1908.26001</ele>
        <time>2011-09-24T09:56:41Z</time>
      </trkpt>
      <trkpt lat="42.56022" lon="2.06224">
        <ele>1906.909424</ele>
        <time>2011-09-24T09:56:42Z</time>
      </trkpt>
      <trkpt lat="42.56028" lon="2.06226">
        <ele>1905.485596</ele>
        <time>2011-09-24T09:56:43Z</time>
      </trkpt>
      <trkpt lat="42.56035" lon="2.06226">
        <ele>1904.10144</ele>
        <time>2011-09-24T09:56:44Z</time>
      </trkpt>
      <trkpt lat="42.5604" lon="2.06222">
        <ele>1902.659058</ele>
        <time>2011-09-24T09:56:45Z</time>
      </trkpt>
      <trkpt lat="42.56048" lon="2.06222">
        <ele>1900.842407</ele>
        <time>2011-09-24T09:56:46Z</time>
      </trkpt>
      <trkpt lat="42.56053" lon="2.06227">
        <ele>1898.864136</ele>
        <time>2011-09-24T09:56:47Z</time>
      </trkpt>
      <trkpt lat="42.56054" lon="2.06236">
        <ele>1896.89624</ele>
        <time>2011-09-24T09:56:48Z</time>
      </trkpt>
      <trkpt lat="42.56057" lon="2.06243">
        <ele>1894.915161</ele>
        <time>2011-09-24T09:56:49Z</time>
      </trkpt>
      <trkpt lat="42.56058" lon="2.0625">
        <ele>1893.03833</ele>
        <time>2011-09-24T09:56:50Z</time>
      </trkpt>
      <trkpt lat="42.56058" lon="2.06256">
        <ele>1891.297729</ele>
        <time>2011-09-24T09:56:51Z</time>
      </trkpt>
      <trkpt lat="42.56056" lon="2.06263">
        <ele>1889.585083</ele>
        <time>2011-09-24T09:56:52Z</time>
      </trkpt>
      <trkpt lat="42.56053" lon="2.06269">
        <ele>1888.085693</ele>
        <time>2011-09-24T09:56:53Z</time>
      </trkpt>
      <trkpt lat="42.56049" lon="2.0628">
        <ele>1885.080444</ele>
        <time>2011-09-24T09:56:55Z</time>
      </trkpt>
      <trkpt lat="42.56047" lon="2.06287">
        <ele>1883.56604</ele>
        <time>2011-09-24T09:56:56Z</time>
      </trkpt>
      <trkpt lat="42.56046" lon="2.06297">
        <ele>1881.977417</ele>
        <time>2011-09-24T09:56:57Z</time>
      </trkpt>
      <trkpt lat="42.56046" lon="2.06307">
        <ele>1880.238281</ele>
        <time>2011-09-24T09:56:58Z</time>
      </trkpt>
      <trkpt lat="42.56046" lon="2.06317">
        <ele>1878.54248</ele>
        <time>2011-09-24T09:56:59Z</time>
      </trkpt>
      <trkpt lat="42.56048" lon="2.06323">
        <ele>1877.402222</ele>
        <time>2011-09-24T09:57:00Z</time>
      </trkpt>
      <trkpt lat="42.56057" lon="2.06321">
        <ele>1876.306274</ele>
        <time>2011-09-24T09:57:01Z</time>
      </trkpt>
      <trkpt lat="42.56066" lon="2.06317">
        <ele>1875.008911</ele>
        <time>2011-09-24T09:57:02Z</time>
      </trkpt>
      <trkpt lat="42.56074" lon="2.06315">
        <ele>1873.602905</ele>
        <time>2011-09-24T09:57:03Z</time>
      </trkpt>
      <trkpt lat="42.56082" lon="2.06313">
        <ele>1872.406128</ele>
        <time>2011-09-24T09:57:04Z</time>
      </trkpt>
      <trkpt lat="42.5609" lon="2.06312">
        <ele>1870.886353</ele>
        <time>2011-09-24T09:57:05Z</time>
      </trkpt>
      <trkpt lat="42.56096" lon="2.06312">
        <ele>1869.172241</ele>
        <time>2011-09-24T09:57:06Z</time>
      </trkpt>
      <trkpt lat="42.56104" lon="2.06314">
        <ele>1867.303833</ele>
        <time>2011-09-24T09:57:08Z</time>
      </trkpt>
      <trkpt lat="42.56111" lon="2.06316">
        <ele>1863.781372</ele>
        <time>2011-09-24T09:57:10Z</time>
      </trkpt>
      <trkpt lat="42.56117" lon="2.06316">
        <ele>1863.445801</ele>
        <time>2011-09-24T09:57:12Z</time>
      </trkpt>
      <trkpt lat="42.56112" lon="2.0631">
        <ele>1861.848999</ele>
        <time>2011-09-24T09:57:20Z</time>
      </trkpt>
      <trkpt lat="42.5612" lon="2.06311">
        <ele>1854.959351</ele>
        <time>2011-09-24T09:58:11Z</time>
      </trkpt>
      <trkpt lat="42.56125" lon="2.06312">
        <ele>1852.163696</ele>
        <time>2011-09-24T09:58:12Z</time>
      </trkpt>
      <trkpt lat="42.56132" lon="2.06313">
        <ele>1849.82019</ele>
        <time>2011-09-24T09:58:13Z</time>
      </trkpt>
      <trkpt lat="42.56139" lon="2.06314">
        <ele>1847.961304</ele>
        <time>2011-09-24T09:58:14Z</time>
      </trkpt>
      <trkpt lat="42.56147" lon="2.06314">
        <ele>1846.323486</ele>
        <time>2011-09-24T09:58:15Z</time>
      </trkpt>
      <trkpt lat="42.56155" lon="2.06315">
        <ele>1844.997925</ele>
        <time>2011-09-24T09:58:16Z</time>
      </trkpt>
      <trkpt lat="42.56164" lon="2.06317">
        <ele>1843.959229</ele>
        <time>2011-09-24T09:58:17Z</time>
      </trkpt>
      <trkpt lat="42.56174" lon="2.06319">
        <ele>1843.205933</ele>
        <time>2011-09-24T09:58:18Z</time>
      </trkpt>
      <trkpt lat="42.56183" lon="2.0632">
        <ele>1842.747681</ele>
        <time>2011-09-24T09:58:19Z</time>
      </trkpt>
      <trkpt lat="42.56192" lon="2.06322">
        <ele>1842.360474</ele>
        <time>2011-09-24T09:58:20Z</time>
      </trkpt>
      <trkpt lat="42.56202" lon="2.06324">
        <ele>1841.860474</ele>
        <time>2011-09-24T09:58:21Z</time>
      </trkpt>
      <trkpt lat="42.56212" lon="2.06327">
        <ele>1841.363525</ele>
        <time>2011-09-24T09:58:22Z</time>
      </trkpt>
      <trkpt lat="42.56221" lon="2.06331">
        <ele>1840.785889</ele>
        <time>2011-09-24T09:58:23Z</time>
      </trkpt>
      <trkpt lat="42.56231" lon="2.06335">
        <ele>1840.355347</ele>
        <time>2011-09-24T09:58:24Z</time>
      </trkpt>
      <trkpt lat="42.56241" lon="2.06339">
        <ele>1839.950439</ele>
        <time>2011-09-24T09:58:25Z</time>
      </trkpt>
      <trkpt lat="42.56249" lon="2.06344">
        <ele>1839.529175</ele>
        <time>2011-09-24T09:58:26Z</time>
      </trkpt>
      <trkpt lat="42.56257" lon="2.06349">
        <ele>1839.209961</ele>
        <time>2011-09-24T09:58:27Z</time>
      </trkpt>
      <trkpt lat="42.56263" lon="2.06356">
        <ele>1838.989258</ele>
        <time>2011-09-24T09:58:28Z</time>
      </trkpt>
      <trkpt lat="42.56268" lon="2.06364">
        <ele>1838.936401</ele>
        <time>2011-09-24T09:58:29Z</time>
      </trkpt>
      <trkpt lat="42.56272" lon="2.06374">
        <ele>1838.822632</ele>
        <time>2011-09-24T09:58:30Z</time>
      </trkpt>
      <trkpt lat="42.56276" lon="2.06385">
        <ele>1838.543335</ele>
        <time>2011-09-24T09:58:31Z</time>
      </trkpt>
      <trkpt lat="42.56281" lon="2.06394">
        <ele>1838.309326</ele>
        <time>2011-09-24T09:58:32Z</time>
      </trkpt>
      <trkpt lat="42.56285" lon="2.06403">
        <ele>1838.132935</ele>
        <time>2011-09-24T09:58:33Z</time>
      </trkpt>
      <trkpt lat="42.56288" lon="2.06411">
        <ele>1837.946899</ele>
        <time>2011-09-24T09:58:34Z</time>
      </trkpt>
      <trkpt lat="42.56291" lon="2.06419">
        <ele>1837.723633</ele>
        <time>2011-09-24T09:58:35Z</time>
      </trkpt>
      <trkpt lat="42.56295" lon="2.06428">
        <ele>1836.467163</ele>
        <time>2011-09-24T09:58:37Z</time>
      </trkpt>
      <trkpt lat="42.56299" lon="2.06433">
        <ele>1835.400513</ele>
        <time>2011-09-24T09:58:38Z</time>
      </trkpt>
      <trkpt lat="42.56303" lon="2.06438">
        <ele>1835.400513</ele>
        <time>2011-09-24T09:58:39Z</time>
      </trkpt>
      <trkpt lat="42.56303" lon="2.0645">
        <ele>1834.397339</ele>
        <time>2011-09-24T09:58:40Z</time>
      </trkpt>
      <trkpt lat="42.56306" lon="2.0646">
        <ele>1832.212524</ele>
        <time>2011-09-24T09:58:41Z</time>
      </trkpt>
      <trkpt lat="42.56309" lon="2.06471">
        <ele>1829.370972</ele>
        <time>2011-09-24T09:58:42Z</time>
      </trkpt>
      <trkpt lat="42.56313" lon="2.06482">
        <ele>1826.345093</ele>
        <time>2011-09-24T09:58:43Z</time>
      </trkpt>
      <trkpt lat="42.56316" lon="2.06493">
        <ele>1823.333984</ele>
        <time>2011-09-24T09:58:44Z</time>
      </trkpt>
      <trkpt lat="42.56319" lon="2.06504">
        <ele>1820.563721</ele>
        <time>2011-09-24T09:58:45Z</time>
      </trkpt>
      <trkpt lat="42.56321" lon="2.06513">
        <ele>1818.116699</ele>
        <time>2011-09-24T09:58:46Z</time>
      </trkpt>
      <trkpt lat="42.56321" lon="2.06522">
        <ele>1815.937134</ele>
        <time>2011-09-24T09:58:47Z</time>
      </trkpt>
      <trkpt lat="42.56321" lon="2.06529">
        <ele>1814.073853</ele>
        <time>2011-09-24T09:58:48Z</time>
      </trkpt>
      <trkpt lat="42.56323" lon="2.06536">
        <ele>1812.395874</ele>
        <time>2011-09-24T09:58:49Z</time>
      </trkpt>
      <trkpt lat="42.56325" lon="2.06543">
        <ele>1810.949951</ele>
        <time>2011-09-24T09:58:50Z</time>
      </trkpt>
      <trkpt lat="42.56328" lon="2.0655">
        <ele>1809.705933</ele>
        <time>2011-09-24T09:58:51Z</time>
      </trkpt>
      <trkpt lat="42.56331" lon="2.06556">
        <ele>1808.70459</ele>
        <time>2011-09-24T09:58:52Z</time>
      </trkpt>
      <trkpt lat="42.56334" lon="2.06561">
        <ele>1807.875</ele>
        <time>2011-09-24T09:58:53Z</time>
      </trkpt>
      <trkpt lat="42.5634" lon="2.06568">
        <ele>1806.609619</ele>
        <time>2011-09-24T09:58:55Z</time>
      </trkpt>
      <trkpt lat="42.56347" lon="2.06569">
        <ele>1806.506958</ele>
        <time>2011-09-24T09:58:57Z</time>
      </trkpt>
      <trkpt lat="42.56352" lon="2.06568">
        <ele>1806.401123</ele>
        <time>2011-09-24T09:58:59Z</time>
      </trkpt>
      <trkpt lat="42.56349" lon="2.06575">
        <ele>1805.993652</ele>
        <time>2011-09-24T09:59:07Z</time>
      </trkpt>
      <trkpt lat="42.5635" lon="2.06583">
        <ele>1805.901978</ele>
        <time>2011-09-24T09:59:09Z</time>
      </trkpt>
      <trkpt lat="42.56351" lon="2.06591">
        <ele>1805.81543</ele>
        <time>2011-09-24T09:59:11Z</time>
      </trkpt>
      <trkpt lat="42.56352" lon="2.066">
        <ele>1805.728638</ele>
        <time>2011-09-24T09:59:13Z</time>
      </trkpt>
      <trkpt lat="42.56351" lon="2.06608">
        <ele>1805.643433</ele>
        <time>2011-09-24T09:59:15Z</time>
      </trkpt>
      <trkpt lat="42.5635" lon="2.06617">
        <ele>1805.560913</ele>
        <time>2011-09-24T09:59:17Z</time>
      </trkpt>
      <trkpt lat="42.56348" lon="2.06627">
        <ele>1804.878784</ele>
        <time>2011-09-24T09:59:19Z</time>
      </trkpt>
      <trkpt lat="42.56345" lon="2.06637">
        <ele>1804.51001</ele>
        <time>2011-09-24T09:59:21Z</time>
      </trkpt>
      <trkpt lat="42.56342" lon="2.06648">
        <ele>1804.424194</ele>
        <time>2011-09-24T09:59:23Z</time>
      </trkpt>
      <trkpt lat="42.5634" lon="2.06655">
        <ele>1804.516235</ele>
        <time>2011-09-24T09:59:24Z</time>
      </trkpt>
      <trkpt lat="42.56339" lon="2.06662">
        <ele>1804.646606</ele>
        <time>2011-09-24T09:59:25Z</time>
      </trkpt>
      <trkpt lat="42.56339" lon="2.0667">
        <ele>1804.874268</ele>
        <time>2011-09-24T09:59:26Z</time>
      </trkpt>
      <trkpt lat="42.5634" lon="2.06679">
        <ele>1805.119995</ele>
        <time>2011-09-24T09:59:27Z</time>
      </trkpt>
      <trkpt lat="42.56342" lon="2.06688">
        <ele>1805.28833</ele>
        <time>2011-09-24T09:59:28Z</time>
      </trkpt>
      <trkpt lat="42.56343" lon="2.06697">
        <ele>1805.347656</ele>
        <time>2011-09-24T09:59:29Z</time>
      </trkpt>
      <trkpt lat="42.56342" lon="2.06705">
        <ele>1805.295532</ele>
        <time>2011-09-24T09:59:30Z</time>
      </trkpt>
      <trkpt lat="42.56342" lon="2.06712">
        <ele>1805.193726</ele>
        <time>2011-09-24T09:59:31Z</time>
      </trkpt>
      <trkpt lat="42.56341" lon="2.0672">
        <ele>1805.093018</ele>
        <time>2011-09-24T09:59:32Z</time>
      </trkpt>
      <trkpt lat="42.5634" lon="2.06728">
        <ele>1805.050415</ele>
        <time>2011-09-24T09:59:33Z</time>
      </trkpt>
      <trkpt lat="42.56339" lon="2.06737">
        <ele>1805.01123</ele>
        <time>2011-09-24T09:59:34Z</time>
      </trkpt>
      <trkpt lat="42.56339" lon="2.06745">
        <ele>1804.939575</ele>
        <time>2011-09-24T09:59:35Z</time>
      </trkpt>
      <trkpt lat="42.56339" lon="2.06752">
        <ele>1804.937744</ele>
        <time>2011-09-24T09:59:36Z</time>
      </trkpt>
      <trkpt lat="42.56339" lon="2.0676">
        <ele>1804.910889</ele>
        <time>2011-09-24T09:59:37Z</time>
      </trkpt>
      <trkpt lat="42.56339" lon="2.06767">
        <ele>1804.866455</ele>
        <time>2011-09-24T09:59:38Z</time>
      </trkpt>
      <trkpt lat="42.56338" lon="2.06775">
        <ele>1804.826782</ele>
        <time>2011-09-24T09:59:40Z</time>
      </trkpt>
      <trkpt lat="42.56338" lon="2.06779">
        <ele>1804.845581</ele>
        <time>2011-09-24T09:59:41Z</time>
      </trkpt>
      <trkpt lat="42.56341" lon="2.0679">
        <ele>1805.102295</ele>
        <time>2011-09-24T09:59:43Z</time>
      </trkpt>
      <trkpt lat="42.56344" lon="2.06795">
        <ele>1805.116333</ele>
        <time>2011-09-24T09:59:44Z</time>
      </trkpt>
      <trkpt lat="42.56346" lon="2.06801">
        <ele>1805.33252</ele>
        <time>2011-09-24T09:59:45Z</time>
      </trkpt>
      <trkpt lat="42.56349" lon="2.06806">
        <ele>1805.622192</ele>
        <time>2011-09-24T09:59:46Z</time>
      </trkpt>
      <trkpt lat="42.56353" lon="2.06814">
        <ele>1805.684692</ele>
        <time>2011-09-24T09:59:48Z</time>
      </trkpt>
      <trkpt lat="42.56359" lon="2.06819">
        <ele>1805.702026</ele>
        <time>2011-09-24T09:59:50Z</time>
      </trkpt>
      <trkpt lat="42.56367" lon="2.06824">
        <ele>1805.663818</ele>
        <time>2011-09-24T09:59:52Z</time>
      </trkpt>
      <trkpt lat="42.56371" lon="2.06827">
        <ele>1805.638062</ele>
        <time>2011-09-24T09:59:53Z</time>
      </trkpt>
      <trkpt lat="42.56375" lon="2.06829">
        <ele>1805.609741</ele>
        <time>2011-09-24T09:59:54Z</time>
      </trkpt>
      <trkpt lat="42.5638" lon="2.06832">
        <ele>1805.16272</ele>
        <time>2011-09-24T09:59:55Z</time>
      </trkpt>
      <trkpt lat="42.56385" lon="2.06836">
        <ele>1804.790894</ele>
        <time>2011-09-24T09:59:56Z</time>
      </trkpt>
      <trkpt lat="42.56388" lon="2.06842">
        <ele>1804.445557</ele>
        <time>2011-09-24T09:59:57Z</time>
      </trkpt>
      <trkpt lat="42.5639" lon="2.06847">
        <ele>1803.959351</ele>
        <time>2011-09-24T09:59:58Z</time>
      </trkpt>
      <trkpt lat="42.56394" lon="2.06852">
        <ele>1803.388794</ele>
        <time>2011-09-24T09:59:59Z</time>
      </trkpt>
      <trkpt lat="42.56399" lon="2.06855">
        <ele>1802.924194</ele>
        <time>2011-09-24T10:00:00Z</time>
      </trkpt>
      <trkpt lat="42.56406" lon="2.06859">
        <ele>1802.354492</ele>
        <time>2011-09-24T10:00:01Z</time>
      </trkpt>
      <trkpt lat="42.56412" lon="2.06862">
        <ele>1801.870605</ele>
        <time>2011-09-24T10:00:02Z</time>
      </trkpt>
      <trkpt lat="42.56418" lon="2.06865">
        <ele>1801.717407</ele>
        <time>2011-09-24T10:00:03Z</time>
      </trkpt>
      <trkpt lat="42.56424" lon="2.06869">
        <ele>1801.321289</ele>
        <time>2011-09-24T10:00:04Z</time>
      </trkpt>
      <trkpt lat="42.56431" lon="2.06872">
        <ele>1801.155884</ele>
        <time>2011-09-24T10:00:05Z</time>
      </trkpt>
      <trkpt lat="42.56437" lon="2.06876">
        <ele>1800.98999</ele>
        <time>2011-09-24T10:00:06Z</time>
      </trkpt>
      <trkpt lat="42.56442" lon="2.06878">
        <ele>1800.972168</ele>
        <time>2011-09-24T10:00:07Z</time>
      </trkpt>
      <trkpt lat="42.56448" lon="2.06881">
        <ele>1800.89624</ele>
        <time>2011-09-24T10:00:09Z</time>
      </trkpt>
      <trkpt lat="42.56454" lon="2.06884">
        <ele>1800.736572</ele>
        <time>2011-09-24T10:00:09Z</time>
      </trkpt>
      <trkpt lat="42.5646" lon="2.06887">
        <ele>1800.736572</ele>
        <time>2011-09-24T10:00:10Z</time>
      </trkpt>
      <trkpt lat="42.56466" lon="2.06892">
        <ele>1800.420776</ele>
        <time>2011-09-24T10:00:12Z</time>
      </trkpt>
      <trkpt lat="42.5647" lon="2.06895">
        <ele>1800.409058</ele>
        <time>2011-09-24T10:00:13Z</time>
      </trkpt>
      <trkpt lat="42.56474" lon="2.06898">
        <ele>1800.411133</ele>
        <time>2011-09-24T10:00:14Z</time>
      </trkpt>
      <trkpt lat="42.56482" lon="2.06904">
        <ele>1800.276733</ele>
        <time>2011-09-24T10:00:16Z</time>
      </trkpt>
      <trkpt lat="42.56487" lon="2.06907">
        <ele>1800.069824</ele>
        <time>2011-09-24T10:00:17Z</time>
      </trkpt>
      <trkpt lat="42.56492" lon="2.06909">
        <ele>1799.939941</ele>
        <time>2011-09-24T10:00:18Z</time>
      </trkpt>
      <trkpt lat="42.56497" lon="2.06911">
        <ele>1799.549927</ele>
        <time>2011-09-24T10:00:19Z</time>
      </trkpt>
      <trkpt lat="42.56502" lon="2.06914">
        <ele>1799.240967</ele>
        <time>2011-09-24T10:00:20Z</time>
      </trkpt>
      <trkpt lat="42.56506" lon="2.06918">
        <ele>1799.005981</ele>
        <time>2011-09-24T10:00:21Z</time>
      </trkpt>
      <trkpt lat="42.5651" lon="2.06924">
        <ele>1798.692261</ele>
        <time>2011-09-24T10:00:22Z</time>
      </trkpt>
      <trkpt lat="42.56513" lon="2.0693">
        <ele>1798.518433</ele>
        <time>2011-09-24T10:00:23Z</time>
      </trkpt>
      <trkpt lat="42.56516" lon="2.06935">
        <ele>1798.34436</ele>
        <time>2011-09-24T10:00:24Z</time>
      </trkpt>
      <trkpt lat="42.56519" lon="2.0694">
        <ele>1798.220825</ele>
        <time>2011-09-24T10:00:25Z</time>
      </trkpt>
      <trkpt lat="42.56524" lon="2.06944">
        <ele>1798.270142</ele>
        <time>2011-09-24T10:00:26Z</time>
      </trkpt>
      <trkpt lat="42.56528" lon="2.06949">
        <ele>1798.301636</ele>
        <time>2011-09-24T10:00:27Z</time>
      </trkpt>
      <trkpt lat="42.56536" lon="2.06953">
        <ele>1798.220093</ele>
        <time>2011-09-24T10:00:29Z</time>
      </trkpt>
      <trkpt lat="42.56541" lon="2.06955">
        <ele>1797.981445</ele>
        <time>2011-09-24T10:00:31Z</time>
      </trkpt>
      <trkpt lat="42.56549" lon="2.0696">
        <ele>1797.539673</ele>
        <time>2011-09-24T10:00:33Z</time>
      </trkpt>
      <trkpt lat="42.56554" lon="2.06963">
        <ele>1797.271973</ele>
        <time>2011-09-24T10:00:34Z</time>
      </trkpt>
      <trkpt lat="42.56562" lon="2.06967">
        <ele>1796.756714</ele>
        <time>2011-09-24T10:00:36Z</time>
      </trkpt>
      <trkpt lat="42.56566" lon="2.0697">
        <ele>1796.500122</ele>
        <time>2011-09-24T10:00:37Z</time>
      </trkpt>
      <trkpt lat="42.56575" lon="2.06975">
        <ele>1795.979614</ele>
        <time>2011-09-24T10:00:39Z</time>
      </trkpt>
      <trkpt lat="42.5658" lon="2.06977">
        <ele>1793.387573</ele>
        <time>2011-09-24T10:00:40Z</time>
      </trkpt>
      <trkpt lat="42.56588" lon="2.06978">
        <ele>1790.872925</ele>
        <time>2011-09-24T10:00:41Z</time>
      </trkpt>
      <trkpt lat="42.56596" lon="2.06979">
        <ele>1788.580444</ele>
        <time>2011-09-24T10:00:42Z</time>
      </trkpt>
      <trkpt lat="42.56603" lon="2.06979">
        <ele>1786.952271</ele>
        <time>2011-09-24T10:00:43Z</time>
      </trkpt>
      <trkpt lat="42.5661" lon="2.06979">
        <ele>1785.800171</ele>
        <time>2011-09-24T10:00:44Z</time>
      </trkpt>
      <trkpt lat="42.56616" lon="2.0698">
        <ele>1785.099121</ele>
        <time>2011-09-24T10:00:45Z</time>
      </trkpt>
      <trkpt lat="42.56624" lon="2.0698">
        <ele>1784.657471</ele>
        <time>2011-09-24T10:00:46Z</time>
      </trkpt>
      <trkpt lat="42.56632" lon="2.06981">
        <ele>1784.313354</ele>
        <time>2011-09-24T10:00:47Z</time>
      </trkpt>
      <trkpt lat="42.56638" lon="2.06982">
        <ele>1783.84668</ele>
        <time>2011-09-24T10:00:48Z</time>
      </trkpt>
      <trkpt lat="42.56645" lon="2.06981">
        <ele>1783.356445</ele>
        <time>2011-09-24T10:00:49Z</time>
      </trkpt>
      <trkpt lat="42.5665" lon="2.0698">
        <ele>1782.984985</ele>
        <time>2011-09-24T10:00:50Z</time>
      </trkpt>
      <trkpt lat="42.56655" lon="2.06979">
        <ele>1782.739136</ele>
        <time>2011-09-24T10:00:51Z</time>
      </trkpt>
      <trkpt lat="42.56659" lon="2.06978">
        <ele>1782.71582</ele>
        <time>2011-09-24T10:00:52Z</time>
      </trkpt>
      <trkpt lat="42.56669" lon="2.06978">
        <ele>1782.611816</ele>
        <time>2011-09-24T10:00:54Z</time>
      </trkpt>
      <trkpt lat="42.56675" lon="2.06979">
        <ele>1781.895264</ele>
        <time>2011-09-24T10:00:55Z</time>
      </trkpt>
      <trkpt lat="42.56683" lon="2.06979">
        <ele>1780.734863</ele>
        <time>2011-09-24T10:00:56Z</time>
      </trkpt>
      <trkpt lat="42.56691" lon="2.06979">
        <ele>1779.326782</ele>
        <time>2011-09-24T10:00:57Z</time>
      </trkpt>
      <trkpt lat="42.567" lon="2.06978">
        <ele>1778.134766</ele>
        <time>2011-09-24T10:00:58Z</time>
      </trkpt>
      <trkpt lat="42.56706" lon="2.06978">
        <ele>1778.037964</ele>
        <time>2011-09-24T10:00:59Z</time>
      </trkpt>
      <trkpt lat="42.56712" lon="2.06977">
        <ele>1777.919678</ele>
        <time>2011-09-24T10:01:00Z</time>
      </trkpt>
      <trkpt lat="42.56718" lon="2.06975">
        <ele>1777.78064</ele>
        <time>2011-09-24T10:01:01Z</time>
      </trkpt>
      <trkpt lat="42.56726" lon="2.06974">
        <ele>1776.166016</ele>
        <time>2011-09-24T10:01:02Z</time>
      </trkpt>
      <trkpt lat="42.56733" lon="2.06973">
        <ele>1774.765015</ele>
        <time>2011-09-24T10:01:03Z</time>
      </trkpt>
      <trkpt lat="42.56741" lon="2.06972">
        <ele>1773.543701</ele>
        <time>2011-09-24T10:01:04Z</time>
      </trkpt>
      <trkpt lat="42.56748" lon="2.0697">
        <ele>1772.478027</ele>
        <time>2011-09-24T10:01:05Z</time>
      </trkpt>
      <trkpt lat="42.56755" lon="2.06968">
        <ele>1771.507202</ele>
        <time>2011-09-24T10:01:06Z</time>
      </trkpt>
      <trkpt lat="42.56761" lon="2.06965">
        <ele>1770.636475</ele>
        <time>2011-09-24T10:01:07Z</time>
      </trkpt>
      <trkpt lat="42.56768" lon="2.06962">
        <ele>1769.826782</ele>
        <time>2011-09-24T10:01:08Z</time>
      </trkpt>
      <trkpt lat="42.56774" lon="2.06959">
        <ele>1769.156128</ele>
        <time>2011-09-24T10:01:09Z</time>
      </trkpt>
      <trkpt lat="42.56779" lon="2.06956">
        <ele>1768.58667</ele>
        <time>2011-09-24T10:01:10Z</time>
      </trkpt>
      <trkpt lat="42.56784" lon="2.06953">
        <ele>1768.042725</ele>
        <time>2011-09-24T10:01:11Z</time>
      </trkpt>
      <trkpt lat="42.56791" lon="2.06949">
        <ele>1767.60376</ele>
        <time>2011-09-24T10:01:12Z</time>
      </trkpt>
      <trkpt lat="42.56798" lon="2.06945">
        <ele>1767.307251</ele>
        <time>2011-09-24T10:01:13Z</time>
      </trkpt>
      <trkpt lat="42.56804" lon="2.06941">
        <ele>1767.080811</ele>
        <time>2011-09-24T10:01:14Z</time>
      </trkpt>
      <trkpt lat="42.56811" lon="2.06937">
        <ele>1766.864014</ele>
        <time>2011-09-24T10:01:15Z</time>
      </trkpt>
      <trkpt lat="42.56818" lon="2.06932">
        <ele>1766.559937</ele>
        <time>2011-09-24T10:01:16Z</time>
      </trkpt>
      <trkpt lat="42.56826" lon="2.06927">
        <ele>1766.229492</ele>
        <time>2011-09-24T10:01:17Z</time>
      </trkpt>
      <trkpt lat="42.56833" lon="2.06922">
        <ele>1765.906494</ele>
        <time>2011-09-24T10:01:18Z</time>
      </trkpt>
      <trkpt lat="42.56841" lon="2.06921">
        <ele>1765.569336</ele>
        <time>2011-09-24T10:01:19Z</time>
      </trkpt>
      <trkpt lat="42.56849" lon="2.0692">
        <ele>1765.253906</ele>
        <time>2011-09-24T10:01:20Z</time>
      </trkpt>
      <trkpt lat="42.56856" lon="2.06922">
        <ele>1764.833862</ele>
        <time>2011-09-24T10:01:21Z</time>
      </trkpt>
      <trkpt lat="42.56862" lon="2.06925">
        <ele>1764.264893</ele>
        <time>2011-09-24T10:01:22Z</time>
      </trkpt>
      <trkpt lat="42.56868" lon="2.06929">
        <ele>1763.608032</ele>
        <time>2011-09-24T10:01:23Z</time>
      </trkpt>
      <trkpt lat="42.56874" lon="2.06933">
        <ele>1762.697998</ele>
        <time>2011-09-24T10:01:24Z</time>
      </trkpt>
      <trkpt lat="42.5688" lon="2.06938">
        <ele>1761.610962</ele>
        <time>2011-09-24T10:01:25Z</time>
      </trkpt>
      <trkpt lat="42.56886" lon="2.06942">
        <ele>1760.414917</ele>
        <time>2011-09-24T10:01:26Z</time>
      </trkpt>
      <trkpt lat="42.56892" lon="2.06943">
        <ele>1759.270874</ele>
        <time>2011-09-24T10:01:27Z</time>
      </trkpt>
      <trkpt lat="42.56899" lon="2.06946">
        <ele>1758.265381</ele>
        <time>2011-09-24T10:01:28Z</time>
      </trkpt>
      <trkpt lat="42.56907" lon="2.06948">
        <ele>1757.30249</ele>
        <time>2011-09-24T10:01:29Z</time>
      </trkpt>
      <trkpt lat="42.56915" lon="2.06948">
        <ele>1756.424561</ele>
        <time>2011-09-24T10:01:30Z</time>
      </trkpt>
      <trkpt lat="42.56923" lon="2.06946">
        <ele>1755.846558</ele>
        <time>2011-09-24T10:01:31Z</time>
      </trkpt>
      <trkpt lat="42.5693" lon="2.06944">
        <ele>1755.513916</ele>
        <time>2011-09-24T10:01:32Z</time>
      </trkpt>
      <trkpt lat="42.56937" lon="2.06942">
        <ele>1755.351196</ele>
        <time>2011-09-24T10:01:33Z</time>
      </trkpt>
      <trkpt lat="42.56945" lon="2.06944">
        <ele>1755.152832</ele>
        <time>2011-09-24T10:01:34Z</time>
      </trkpt>
      <trkpt lat="42.56953" lon="2.06945">
        <ele>1754.780151</ele>
        <time>2011-09-24T10:01:35Z</time>
      </trkpt>
      <trkpt lat="42.56963" lon="2.06943">
        <ele>1754.177002</ele>
        <time>2011-09-24T10:01:36Z</time>
      </trkpt>
      <trkpt lat="42.56971" lon="2.06937">
        <ele>1753.510132</ele>
        <time>2011-09-24T10:01:37Z</time>
      </trkpt>
      <trkpt lat="42.56978" lon="2.0693">
        <ele>1752.82373</ele>
        <time>2011-09-24T10:01:38Z</time>
      </trkpt>
      <trkpt lat="42.56983" lon="2.06922">
        <ele>1752.181396</ele>
        <time>2011-09-24T10:01:39Z</time>
      </trkpt>
      <trkpt lat="42.56988" lon="2.06916">
        <ele>1751.522095</ele>
        <time>2011-09-24T10:01:40Z</time>
      </trkpt>
      <trkpt lat="42.56993" lon="2.06911">
        <ele>1750.885864</ele>
        <time>2011-09-24T10:01:41Z</time>
      </trkpt>
      <trkpt lat="42.56998" lon="2.06908">
        <ele>1750.252197</ele>
        <time>2011-09-24T10:01:42Z</time>
      </trkpt>
      <trkpt lat="42.57003" lon="2.06906">
        <ele>1749.656616</ele>
        <time>2011-09-24T10:01:43Z</time>
      </trkpt>
      <trkpt lat="42.57007" lon="2.06903">
        <ele>1749.086304</ele>
        <time>2011-09-24T10:01:44Z</time>
      </trkpt>
      <trkpt lat="42.57011" lon="2.069">
        <ele>1748.580078</ele>
        <time>2011-09-24T10:01:45Z</time>
      </trkpt>
      <trkpt lat="42.57015" lon="2.06895">
        <ele>1748.129761</ele>
        <time>2011-09-24T10:01:46Z</time>
      </trkpt>
      <trkpt lat="42.57018" lon="2.06891">
        <ele>1747.75647</ele>
        <time>2011-09-24T10:01:47Z</time>
      </trkpt>
      <trkpt lat="42.57023" lon="2.06885">
        <ele>1747.6875</ele>
        <time>2011-09-24T10:01:49Z</time>
      </trkpt>
      <trkpt lat="42.57026" lon="2.0688">
        <ele>1747.607422</ele>
        <time>2011-09-24T10:01:51Z</time>
      </trkpt>
      <trkpt lat="42.5703" lon="2.06875">
        <ele>1747.526855</ele>
        <time>2011-09-24T10:01:53Z</time>
      </trkpt>
      <trkpt lat="42.57033" lon="2.0687">
        <ele>1747.456909</ele>
        <time>2011-09-24T10:01:55Z</time>
      </trkpt>
      <trkpt lat="42.57038" lon="2.06863">
        <ele>1747.398438</ele>
        <time>2011-09-24T10:01:58Z</time>
      </trkpt>
      <trkpt lat="42.57046" lon="2.06853">
        <ele>1745.807495</ele>
        <time>2011-09-24T10:02:17Z</time>
      </trkpt>
      <trkpt lat="42.57055" lon="2.06848">
        <ele>1741.338135</ele>
        <time>2011-09-24T10:02:19Z</time>
      </trkpt>
      <trkpt lat="42.57061" lon="2.06845">
        <ele>1738.214722</ele>
        <time>2011-09-24T10:02:20Z</time>
      </trkpt>
      <trkpt lat="42.57069" lon="2.06841">
        <ele>1735.736938</ele>
        <time>2011-09-24T10:02:21Z</time>
      </trkpt>
      <trkpt lat="42.57077" lon="2.06838">
        <ele>1733.709106</ele>
        <time>2011-09-24T10:02:22Z</time>
      </trkpt>
      <trkpt lat="42.57085" lon="2.06835">
        <ele>1732.045776</ele>
        <time>2011-09-24T10:02:23Z</time>
      </trkpt>
      <trkpt lat="42.57094" lon="2.06834">
        <ele>1730.679443</ele>
        <time>2011-09-24T10:02:24Z</time>
      </trkpt>
      <trkpt lat="42.57101" lon="2.06836">
        <ele>1729.619873</ele>
        <time>2011-09-24T10:02:25Z</time>
      </trkpt>
      <trkpt lat="42.5711" lon="2.06838">
        <ele>1729.000244</ele>
        <time>2011-09-24T10:02:26Z</time>
      </trkpt>
      <trkpt lat="42.57118" lon="2.0684">
        <ele>1728.624023</ele>
        <time>2011-09-24T10:02:27Z</time>
      </trkpt>
      <trkpt lat="42.57127" lon="2.06841">
        <ele>1728.410156</ele>
        <time>2011-09-24T10:02:28Z</time>
      </trkpt>
      <trkpt lat="42.57136" lon="2.06843">
        <ele>1728.23877</ele>
        <time>2011-09-24T10:02:29Z</time>
      </trkpt>
      <trkpt lat="42.57144" lon="2.06843">
        <ele>1727.998901</ele>
        <time>2011-09-24T10:02:30Z</time>
      </trkpt>
      <trkpt lat="42.57152" lon="2.06844">
        <ele>1727.631958</ele>
        <time>2011-09-24T10:02:31Z</time>
      </trkpt>
      <trkpt lat="42.5716" lon="2.06842">
        <ele>1727.187378</ele>
        <time>2011-09-24T10:02:32Z</time>
      </trkpt>
      <trkpt lat="42.57168" lon="2.06841">
        <ele>1726.762085</ele>
        <time>2011-09-24T10:02:33Z</time>
      </trkpt>
      <trkpt lat="42.57175" lon="2.06841">
        <ele>1726.400757</ele>
        <time>2011-09-24T10:02:34Z</time>
      </trkpt>
      <trkpt lat="42.57182" lon="2.0684">
        <ele>1726.074951</ele>
        <time>2011-09-24T10:02:35Z</time>
      </trkpt>
      <trkpt lat="42.57189" lon="2.06839">
        <ele>1725.766602</ele>
        <time>2011-09-24T10:02:36Z</time>
      </trkpt>
      <trkpt lat="42.57196" lon="2.06838">
        <ele>1725.575195</ele>
        <time>2011-09-24T10:02:37Z</time>
      </trkpt>
      <trkpt lat="42.57204" lon="2.06836">
        <ele>1725.459717</ele>
        <time>2011-09-24T10:02:38Z</time>
      </trkpt>
      <trkpt lat="42.57212" lon="2.06833">
        <ele>1725.413208</ele>
        <time>2011-09-24T10:02:39Z</time>
      </trkpt>
      <trkpt lat="42.57221" lon="2.06831">
        <ele>1725.296387</ele>
        <time>2011-09-24T10:02:40Z</time>
      </trkpt>
      <trkpt lat="42.57231" lon="2.06829">
        <ele>1724.865601</ele>
        <time>2011-09-24T10:02:41Z</time>
      </trkpt>
      <trkpt lat="42.57243" lon="2.06827">
        <ele>1724.117065</ele>
        <time>2011-09-24T10:02:42Z</time>
      </trkpt>
      <trkpt lat="42.57255" lon="2.06824">
        <ele>1723.255859</ele>
        <time>2011-09-24T10:02:43Z</time>
      </trkpt>
      <trkpt lat="42.57266" lon="2.06821">
        <ele>1722.276123</ele>
        <time>2011-09-24T10:02:44Z</time>
      </trkpt>
      <trkpt lat="42.57278" lon="2.06818">
        <ele>1721.270508</ele>
        <time>2011-09-24T10:02:45Z</time>
      </trkpt>
      <trkpt lat="42.57287" lon="2.06816">
        <ele>1720.434814</ele>
        <time>2011-09-24T10:02:46Z</time>
      </trkpt>
      <trkpt lat="42.57296" lon="2.06813">
        <ele>1719.677734</ele>
        <time>2011-09-24T10:02:47Z</time>
      </trkpt>
      <trkpt lat="42.57305" lon="2.06809">
        <ele>1718.962769</ele>
        <time>2011-09-24T10:02:48Z</time>
      </trkpt>
      <trkpt lat="42.57313" lon="2.06805">
        <ele>1718.636353</ele>
        <time>2011-09-24T10:02:49Z</time>
      </trkpt>
      <trkpt lat="42.57319" lon="2.06802">
        <ele>1718.585449</ele>
        <time>2011-09-24T10:02:50Z</time>
      </trkpt>
      <trkpt lat="42.57325" lon="2.06799">
        <ele>1718.633423</ele>
        <time>2011-09-24T10:02:51Z</time>
      </trkpt>
      <trkpt lat="42.57333" lon="2.06795">
        <ele>1718.678467</ele>
        <time>2011-09-24T10:02:52Z</time>
      </trkpt>
      <trkpt lat="42.5734" lon="2.06793">
        <ele>1718.754395</ele>
        <time>2011-09-24T10:02:53Z</time>
      </trkpt>
      <trkpt lat="42.57347" lon="2.06792">
        <ele>1718.779907</ele>
        <time>2011-09-24T10:02:54Z</time>
      </trkpt>
      <trkpt lat="42.57355" lon="2.06791">
        <ele>1718.828491</ele>
        <time>2011-09-24T10:02:55Z</time>
      </trkpt>
      <trkpt lat="42.57362" lon="2.06791">
        <ele>1718.82666</ele>
        <time>2011-09-24T10:02:56Z</time>
      </trkpt>
      <trkpt lat="42.5737" lon="2.06791">
        <ele>1718.807739</ele>
        <time>2011-09-24T10:02:57Z</time>
      </trkpt>
      <trkpt lat="42.57378" lon="2.06792">
        <ele>1718.634521</ele>
        <time>2011-09-24T10:02:58Z</time>
      </trkpt>
      <trkpt lat="42.57386" lon="2.06792">
        <ele>1718.371094</ele>
        <time>2011-09-24T10:02:59Z</time>
      </trkpt>
      <trkpt lat="42.57394" lon="2.06793">
        <ele>1718.040649</ele>
        <time>2011-09-24T10:03:00Z</time>
      </trkpt>
      <trkpt lat="42.57404" lon="2.06794">
        <ele>1717.608276</ele>
        <time>2011-09-24T10:03:01Z</time>
      </trkpt>
      <trkpt lat="42.57413" lon="2.06796">
        <ele>1717.057373</ele>
        <time>2011-09-24T10:03:02Z</time>
      </trkpt>
      <trkpt lat="42.57423" lon="2.06794">
        <ele>1716.57666</ele>
        <time>2011-09-24T10:03:03Z</time>
      </trkpt>
      <trkpt lat="42.57432" lon="2.06791">
        <ele>1716.280396</ele>
        <time>2011-09-24T10:03:04Z</time>
      </trkpt>
      <trkpt lat="42.5744" lon="2.06785">
        <ele>1716.091675</ele>
        <time>2011-09-24T10:03:05Z</time>
      </trkpt>
      <trkpt lat="42.57448" lon="2.06778">
        <ele>1715.777832</ele>
        <time>2011-09-24T10:03:06Z</time>
      </trkpt>
      <trkpt lat="42.57456" lon="2.06772">
        <ele>1715.442505</ele>
        <time>2011-09-24T10:03:07Z</time>
      </trkpt>
      <trkpt lat="42.57466" lon="2.06768">
        <ele>1715.109253</ele>
        <time>2011-09-24T10:03:08Z</time>
      </trkpt>
      <trkpt lat="42.57476" lon="2.06769">
        <ele>1714.558716</ele>
        <time>2011-09-24T10:03:09Z</time>
      </trkpt>
      <trkpt lat="42.57487" lon="2.0677">
        <ele>1713.973877</ele>
        <time>2011-09-24T10:03:10Z</time>
      </trkpt>
      <trkpt lat="42.57497" lon="2.06771">
        <ele>1713.37439</ele>
        <time>2011-09-24T10:03:11Z</time>
      </trkpt>
      <trkpt lat="42.57509" lon="2.06772">
        <ele>1712.810303</ele>
        <time>2011-09-24T10:03:12Z</time>
      </trkpt>
      <trkpt lat="42.57519" lon="2.06775">
        <ele>1712.203735</ele>
        <time>2011-09-24T10:03:13Z</time>
      </trkpt>
      <trkpt lat="42.57527" lon="2.06779">
        <ele>1711.671509</ele>
        <time>2011-09-24T10:03:14Z</time>
      </trkpt>
      <trkpt lat="42.57535" lon="2.06784">
        <ele>1711.057251</ele>
        <time>2011-09-24T10:03:15Z</time>
      </trkpt>
      <trkpt lat="42.57541" lon="2.06789">
        <ele>1710.379395</ele>
        <time>2011-09-24T10:03:16Z</time>
      </trkpt>
      <trkpt lat="42.57544" lon="2.06794">
        <ele>1709.577881</ele>
        <time>2011-09-24T10:03:17Z</time>
      </trkpt>
      <trkpt lat="42.57544" lon="2.06805">
        <ele>1708.178955</ele>
        <time>2011-09-24T10:03:19Z</time>
      </trkpt>
      <trkpt lat="42.57541" lon="2.0681">
        <ele>1707.498657</ele>
        <time>2011-09-24T10:03:20Z</time>
      </trkpt>
      <trkpt lat="42.57535" lon="2.06815">
        <ele>1706.627808</ele>
        <time>2011-09-24T10:03:21Z</time>
      </trkpt>
      <trkpt lat="42.57529" lon="2.0682">
        <ele>1705.627441</ele>
        <time>2011-09-24T10:03:22Z</time>
      </trkpt>
      <trkpt lat="42.57523" lon="2.06826">
        <ele>1704.565063</ele>
        <time>2011-09-24T10:03:23Z</time>
      </trkpt>
      <trkpt lat="42.57517" lon="2.06834">
        <ele>1703.436646</ele>
        <time>2011-09-24T10:03:24Z</time>
      </trkpt>
      <trkpt lat="42.57512" lon="2.06843">
        <ele>1702.131592</ele>
        <time>2011-09-24T10:03:25Z</time>
      </trkpt>
      <trkpt lat="42.57508" lon="2.06854">
        <ele>1700.878296</ele>
        <time>2011-09-24T10:03:26Z</time>
      </trkpt>
      <trkpt lat="42.57504" lon="2.06866">
        <ele>1699.529663</ele>
        <time>2011-09-24T10:03:27Z</time>
      </trkpt>
      <trkpt lat="42.57501" lon="2.06877">
        <ele>1698.268311</ele>
        <time>2011-09-24T10:03:28Z</time>
      </trkpt>
      <trkpt lat="42.575" lon="2.06885">
        <ele>1697.196289</ele>
        <time>2011-09-24T10:03:29Z</time>
      </trkpt>
      <trkpt lat="42.57499" lon="2.06892">
        <ele>1696.129761</ele>
        <time>2011-09-24T10:03:30Z</time>
      </trkpt>
      <trkpt lat="42.57497" lon="2.06902">
        <ele>1695.921509</ele>
        <time>2011-09-24T10:03:32Z</time>
      </trkpt>
      <trkpt lat="42.57501" lon="2.06908">
        <ele>1692.898193</ele>
        <time>2011-09-24T10:03:52Z</time>
      </trkpt>
      <trkpt lat="42.575" lon="2.0692">
        <ele>1687.884033</ele>
        <time>2011-09-24T10:04:24Z</time>
      </trkpt>
      <trkpt lat="42.57495" lon="2.06926">
        <ele>1686.424438</ele>
        <time>2011-09-24T10:04:28Z</time>
      </trkpt>
      <trkpt lat="42.57485" lon="2.06928">
        <ele>1679.826904</ele>
        <time>2011-09-24T10:05:42Z</time>
      </trkpt>
      <trkpt lat="42.57479" lon="2.06928">
        <ele>1674.998413</ele>
        <time>2011-09-24T10:06:36Z</time>
      </trkpt>
      <trkpt lat="42.57476" lon="2.06933">
        <ele>1674.75708</ele>
        <time>2011-09-24T10:06:41Z</time>
      </trkpt>
      <trkpt lat="42.57472" lon="2.06937">
        <ele>1674.625488</ele>
        <time>2011-09-24T10:06:45Z</time>
      </trkpt>
      <trkpt lat="42.57472" lon="2.06937">
        <ele>1674.428955</ele>
        <time>2011-09-24T10:06:51Z</time>
      </trkpt>
      <trkpt lat="42.57476" lon="2.0694">
        <ele>1672.92749</ele>
        <time>2011-09-24T10:07:09Z</time>
      </trkpt>
      <trkpt lat="42.5748" lon="2.0694">
        <ele>1670.696655</ele>
        <time>2011-09-24T10:07:27Z</time>
      </trkpt>
      <trkpt lat="42.57484" lon="2.06937">
        <ele>1670.630615</ele>
        <time>2011-09-24T10:07:30Z</time>
      </trkpt>
      <trkpt lat="42.57489" lon="2.06934">
        <ele>1670.513428</ele>
        <time>2011-09-24T10:07:35Z</time>
      </trkpt>
      <trkpt lat="42.57489" lon="2.06934">
        <ele>1670.407349</ele>
        <time>2011-09-24T10:07:39Z</time>
      </trkpt>
      <trkpt lat="42.57492" lon="2.06938">
        <ele>1670.180054</ele>
        <time>2011-09-24T10:07:49Z</time>
      </trkpt>
      <trkpt lat="42.57487" lon="2.06941">
        <ele>1670.345337</ele>
        <time>2011-09-24T10:07:59Z</time>
      </trkpt>
      <trkpt lat="42.57487" lon="2.06941">
        <ele>1669.995972</ele>
        <time>2011-09-24T10:08:03Z</time>
      </trkpt>
      <trkpt lat="42.57482" lon="2.06939">
        <ele>1669.727783</ele>
        <time>2011-09-24T10:08:06Z</time>
      </trkpt>
      <trkpt lat="42.5748" lon="2.06936">
        <ele>1669.666748</ele>
        <time>2011-09-24T10:08:09Z</time>
      </trkpt>
      <trkpt lat="42.57477" lon="2.06929">
        <ele>1669.937256</ele>
        <time>2011-09-24T10:08:13Z</time>
      </trkpt>
      <trkpt lat="42.57474" lon="2.06923">
        <ele>1670.239014</ele>
        <time>2011-09-24T10:08:15Z</time>
      </trkpt>
      <trkpt lat="42.57473" lon="2.06918">
        <ele>1670.451782</ele>
        <time>2011-09-24T10:08:16Z</time>
      </trkpt>
      <trkpt lat="42.57471" lon="2.06912">
        <ele>1670.651733</ele>
        <time>2011-09-24T10:08:17Z</time>
      </trkpt>
      <trkpt lat="42.5747" lon="2.06905">
        <ele>1670.880127</ele>
        <time>2011-09-24T10:08:18Z</time>
      </trkpt>
      <trkpt lat="42.57469" lon="2.06898">
        <ele>1671.128052</ele>
        <time>2011-09-24T10:08:19Z</time>
      </trkpt>
      <trkpt lat="42.57468" lon="2.06891">
        <ele>1671.305908</ele>
        <time>2011-09-24T10:08:20Z</time>
      </trkpt>
      <trkpt lat="42.57468" lon="2.06884">
        <ele>1671.477051</ele>
        <time>2011-09-24T10:08:21Z</time>
      </trkpt>
      <trkpt lat="42.57467" lon="2.06877">
        <ele>1671.6698</ele>
        <time>2011-09-24T10:08:22Z</time>
      </trkpt>
      <trkpt lat="42.57465" lon="2.0687">
        <ele>1671.87793</ele>
        <time>2011-09-24T10:08:23Z</time>
      </trkpt>
      <trkpt lat="42.57464" lon="2.06863">
        <ele>1672.16394</ele>
        <time>2011-09-24T10:08:24Z</time>
      </trkpt>
      <trkpt lat="42.57463" lon="2.06856">
        <ele>1672.517578</ele>
        <time>2011-09-24T10:08:25Z</time>
      </trkpt>
      <trkpt lat="42.57463" lon="2.06849">
        <ele>1672.912598</ele>
        <time>2011-09-24T10:08:26Z</time>
      </trkpt>
      <trkpt lat="42.57463" lon="2.06843">
        <ele>1673.342529</ele>
        <time>2011-09-24T10:08:27Z</time>
      </trkpt>
      <trkpt lat="42.57463" lon="2.06836">
        <ele>1673.797852</ele>
        <time>2011-09-24T10:08:28Z</time>
      </trkpt>
      <trkpt lat="42.57463" lon="2.0683">
        <ele>1674.269409</ele>
        <time>2011-09-24T10:08:29Z</time>
      </trkpt>
      <trkpt lat="42.57463" lon="2.06818">
        <ele>1675.227295</ele>
        <time>2011-09-24T10:08:31Z</time>
      </trkpt>
      <trkpt lat="42.57463" lon="2.06807">
        <ele>1676.172607</ele>
        <time>2011-09-24T10:08:33Z</time>
      </trkpt>
      <trkpt lat="42.57464" lon="2.06796">
        <ele>1677.046021</ele>
        <time>2011-09-24T10:08:35Z</time>
      </trkpt>
      <trkpt lat="42.57464" lon="2.06784">
        <ele>1677.899048</ele>
        <time>2011-09-24T10:08:37Z</time>
      </trkpt>
      <trkpt lat="42.57464" lon="2.06773">
        <ele>1678.762817</ele>
        <time>2011-09-24T10:08:39Z</time>
      </trkpt>
      <trkpt lat="42.57464" lon="2.06762">
        <ele>1679.646606</ele>
        <time>2011-09-24T10:08:41Z</time>
      </trkpt>
      <trkpt lat="42.57464" lon="2.06751">
        <ele>1680.556519</ele>
        <time>2011-09-24T10:08:43Z</time>
      </trkpt>
      <trkpt lat="42.57464" lon="2.06741">
        <ele>1681.489868</ele>
        <time>2011-09-24T10:08:45Z</time>
      </trkpt>
      <trkpt lat="42.57464" lon="2.06731">
        <ele>1682.447632</ele>
        <time>2011-09-24T10:08:47Z</time>
      </trkpt>
      <trkpt lat="42.57464" lon="2.06721">
        <ele>1683.427734</ele>
        <time>2011-09-24T10:08:49Z</time>
      </trkpt>
      <trkpt lat="42.57463" lon="2.06711">
        <ele>1684.423462</ele>
        <time>2011-09-24T10:08:51Z</time>
      </trkpt>
      <trkpt lat="42.57463" lon="2.06701">
        <ele>1685.424438</ele>
        <time>2011-09-24T10:08:53Z</time>
      </trkpt>
      <trkpt lat="42.57462" lon="2.06692">
        <ele>1686.410767</ele>
        <time>2011-09-24T10:08:55Z</time>
      </trkpt>
      <trkpt lat="42.57461" lon="2.06684">
        <ele>1687.405151</ele>
        <time>2011-09-24T10:08:57Z</time>
      </trkpt>
      <trkpt lat="42.5746" lon="2.06674">
        <ele>1688.441528</ele>
        <time>2011-09-24T10:08:59Z</time>
      </trkpt>
      <trkpt lat="42.57459" lon="2.06664">
        <ele>1689.516113</ele>
        <time>2011-09-24T10:09:01Z</time>
      </trkpt>
      <trkpt lat="42.57458" lon="2.06654">
        <ele>1690.612061</ele>
        <time>2011-09-24T10:09:03Z</time>
      </trkpt>
      <trkpt lat="42.57457" lon="2.06644">
        <ele>1691.734253</ele>
        <time>2011-09-24T10:09:05Z</time>
      </trkpt>
      <trkpt lat="42.57456" lon="2.06635">
        <ele>1692.889038</ele>
        <time>2011-09-24T10:09:07Z</time>
      </trkpt>
      <trkpt lat="42.57454" lon="2.06625">
        <ele>1694.064697</ele>
        <time>2011-09-24T10:09:09Z</time>
      </trkpt>
      <trkpt lat="42.57453" lon="2.06616">
        <ele>1695.251099</ele>
        <time>2011-09-24T10:09:11Z</time>
      </trkpt>
      <trkpt lat="42.57452" lon="2.06606">
        <ele>1696.439819</ele>
        <time>2011-09-24T10:09:13Z</time>
      </trkpt>
      <trkpt lat="42.57451" lon="2.06597">
        <ele>1697.629028</ele>
        <time>2011-09-24T10:09:15Z</time>
      </trkpt>
      <trkpt lat="42.5745" lon="2.06587">
        <ele>1698.822632</ele>
        <time>2011-09-24T10:09:17Z</time>
      </trkpt>
      <trkpt lat="42.5745" lon="2.06577">
        <ele>1700.024048</ele>
        <time>2011-09-24T10:09:19Z</time>
      </trkpt>
      <trkpt lat="42.57449" lon="2.06567">
        <ele>1701.227295</ele>
        <time>2011-09-24T10:09:21Z</time>
      </trkpt>
      <trkpt lat="42.57448" lon="2.06557">
        <ele>1702.435181</ele>
        <time>2011-09-24T10:09:23Z</time>
      </trkpt>
      <trkpt lat="42.57448" lon="2.06548">
        <ele>1703.633789</ele>
        <time>2011-09-24T10:09:25Z</time>
      </trkpt>
      <trkpt lat="42.57447" lon="2.06539">
        <ele>1704.816284</ele>
        <time>2011-09-24T10:09:27Z</time>
      </trkpt>
      <trkpt lat="42.57447" lon="2.0653">
        <ele>1706.007446</ele>
        <time>2011-09-24T10:09:29Z</time>
      </trkpt>
      <trkpt lat="42.57446" lon="2.0652">
        <ele>1707.213623</ele>
        <time>2011-09-24T10:09:31Z</time>
      </trkpt>
      <trkpt lat="42.57445" lon="2.0651">
        <ele>1708.427612</ele>
        <time>2011-09-24T10:09:33Z</time>
      </trkpt>
      <trkpt lat="42.57444" lon="2.065">
        <ele>1709.653442</ele>
        <time>2011-09-24T10:09:35Z</time>
      </trkpt>
      <trkpt lat="42.57442" lon="2.06489">
        <ele>1710.903809</ele>
        <time>2011-09-24T10:09:37Z</time>
      </trkpt>
      <trkpt lat="42.57441" lon="2.06479">
        <ele>1712.172119</ele>
        <time>2011-09-24T10:09:39Z</time>
      </trkpt>
      <trkpt lat="42.5744" lon="2.0647">
        <ele>1713.457886</ele>
        <time>2011-09-24T10:09:41Z</time>
      </trkpt>
      <trkpt lat="42.57439" lon="2.06461">
        <ele>1714.779541</ele>
        <time>2011-09-24T10:09:43Z</time>
      </trkpt>
      <trkpt lat="42.57438" lon="2.06452">
        <ele>1716.137451</ele>
        <time>2011-09-24T10:09:45Z</time>
      </trkpt>
      <trkpt lat="42.57437" lon="2.06443">
        <ele>1717.534912</ele>
        <time>2011-09-24T10:09:47Z</time>
      </trkpt>
      <trkpt lat="42.57436" lon="2.06433">
        <ele>1718.965454</ele>
        <time>2011-09-24T10:09:49Z</time>
      </trkpt>
      <trkpt lat="42.57435" lon="2.06424">
        <ele>1720.424805</ele>
        <time>2011-09-24T10:09:51Z</time>
      </trkpt>
      <trkpt lat="42.57434" lon="2.06415">
        <ele>1721.932129</ele>
        <time>2011-09-24T10:09:54Z</time>
      </trkpt>
      <trkpt lat="42.57432" lon="2.06407">
        <ele>1723.470947</ele>
        <time>2011-09-24T10:09:55Z</time>
      </trkpt>
      <trkpt lat="42.57431" lon="2.06399">
        <ele>1725.125366</ele>
        <time>2011-09-24T10:09:57Z</time>
      </trkpt>
      <trkpt lat="42.57429" lon="2.06391">
        <ele>1726.871216</ele>
        <time>2011-09-24T10:09:59Z</time>
      </trkpt>
      <trkpt lat="42.57427" lon="2.06384">
        <ele>1728.728027</ele>
        <time>2011-09-24T10:10:01Z</time>
      </trkpt>
      <trkpt lat="42.57426" lon="2.06377">
        <ele>1730.737305</ele>
        <time>2011-09-24T10:10:03Z</time>
      </trkpt>
      <trkpt lat="42.57424" lon="2.0637">
        <ele>1732.899658</ele>
        <time>2011-09-24T10:10:05Z</time>
      </trkpt>
      <trkpt lat="42.57422" lon="2.06363">
        <ele>1735.090576</ele>
        <time>2011-09-24T10:10:07Z</time>
      </trkpt>
      <trkpt lat="42.5742" lon="2.06355">
        <ele>1737.351074</ele>
        <time>2011-09-24T10:10:09Z</time>
      </trkpt>
      <trkpt lat="42.57419" lon="2.06348">
        <ele>1739.715332</ele>
        <time>2011-09-24T10:10:11Z</time>
      </trkpt>
      <trkpt lat="42.57417" lon="2.0634">
        <ele>1742.108643</ele>
        <time>2011-09-24T10:10:13Z</time>
      </trkpt>
      <trkpt lat="42.57415" lon="2.06332">
        <ele>1744.47937</ele>
        <time>2011-09-24T10:10:15Z</time>
      </trkpt>
      <trkpt lat="42.57413" lon="2.06323">
        <ele>1746.835449</ele>
        <time>2011-09-24T10:10:17Z</time>
      </trkpt>
      <trkpt lat="42.57412" lon="2.06314">
        <ele>1749.171753</ele>
        <time>2011-09-24T10:10:19Z</time>
      </trkpt>
      <trkpt lat="42.5741" lon="2.06305">
        <ele>1751.467285</ele>
        <time>2011-09-24T10:10:21Z</time>
      </trkpt>
      <trkpt lat="42.57409" lon="2.06295">
        <ele>1753.726685</ele>
        <time>2011-09-24T10:10:23Z</time>
      </trkpt>
      <trkpt lat="42.57408" lon="2.06286">
        <ele>1755.96106</ele>
        <time>2011-09-24T10:10:25Z</time>
      </trkpt>
      <trkpt lat="42.57407" lon="2.06277">
        <ele>1758.186768</ele>
        <time>2011-09-24T10:10:27Z</time>
      </trkpt>
      <trkpt lat="42.57406" lon="2.06269">
        <ele>1760.450439</ele>
        <time>2011-09-24T10:10:29Z</time>
      </trkpt>
      <trkpt lat="42.57405" lon="2.0626">
        <ele>1762.72583</ele>
        <time>2011-09-24T10:10:31Z</time>
      </trkpt>
      <trkpt lat="42.57404" lon="2.06251">
        <ele>1765.000732</ele>
        <time>2011-09-24T10:10:33Z</time>
      </trkpt>
      <trkpt lat="42.57403" lon="2.06241">
        <ele>1767.264282</ele>
        <time>2011-09-24T10:10:35Z</time>
      </trkpt>
      <trkpt lat="42.57401" lon="2.06233">
        <ele>1769.46814</ele>
        <time>2011-09-24T10:10:37Z</time>
      </trkpt>
      <trkpt lat="42.574" lon="2.06224">
        <ele>1771.583252</ele>
        <time>2011-09-24T10:10:39Z</time>
      </trkpt>
      <trkpt lat="42.57398" lon="2.06216">
        <ele>1773.666992</ele>
        <time>2011-09-24T10:10:41Z</time>
      </trkpt>
      <trkpt lat="42.57396" lon="2.06207">
        <ele>1775.775513</ele>
        <time>2011-09-24T10:10:43Z</time>
      </trkpt>
      <trkpt lat="42.57395" lon="2.06197">
        <ele>1777.894043</ele>
        <time>2011-09-24T10:10:45Z</time>
      </trkpt>
      <trkpt lat="42.57393" lon="2.06187">
        <ele>1779.965942</ele>
        <time>2011-09-24T10:10:47Z</time>
      </trkpt>
      <trkpt lat="42.57392" lon="2.06177">
        <ele>1782.029663</ele>
        <time>2011-09-24T10:10:49Z</time>
      </trkpt>
      <trkpt lat="42.57391" lon="2.06167">
        <ele>1784.078613</ele>
        <time>2011-09-24T10:10:51Z</time>
      </trkpt>
      <trkpt lat="42.5739" lon="2.06157">
        <ele>1786.116577</ele>
        <time>2011-09-24T10:10:53Z</time>
      </trkpt>
      <trkpt lat="42.57389" lon="2.06148">
        <ele>1788.154907</ele>
        <time>2011-09-24T10:10:55Z</time>
      </trkpt>
      <trkpt lat="42.57388" lon="2.06144">
        <ele>1789.162842</ele>
        <time>2011-09-24T10:10:56Z</time>
      </trkpt>
      <trkpt lat="42.57387" lon="2.06136">
        <ele>1791.164673</ele>
        <time>2011-09-24T10:10:58Z</time>
      </trkpt>
      <trkpt lat="42.57385" lon="2.06128">
        <ele>1793.180054</ele>
        <time>2011-09-24T10:11:00Z</time>
      </trkpt>
      <trkpt lat="42.57383" lon="2.0612">
        <ele>1795.255493</ele>
        <time>2011-09-24T10:11:02Z</time>
      </trkpt>
      <trkpt lat="42.57381" lon="2.0611">
        <ele>1797.370972</ele>
        <time>2011-09-24T10:11:04Z</time>
      </trkpt>
      <trkpt lat="42.5738" lon="2.06101">
        <ele>1799.501343</ele>
        <time>2011-09-24T10:11:06Z</time>
      </trkpt>
      <trkpt lat="42.57379" lon="2.06091">
        <ele>1801.618896</ele>
        <time>2011-09-24T10:11:08Z</time>
      </trkpt>
      <trkpt lat="42.57378" lon="2.06081">
        <ele>1803.730347</ele>
        <time>2011-09-24T10:11:10Z</time>
      </trkpt>
      <trkpt lat="42.57378" lon="2.06071">
        <ele>1805.82251</ele>
        <time>2011-09-24T10:11:12Z</time>
      </trkpt>
      <trkpt lat="42.57377" lon="2.06061">
        <ele>1807.900146</ele>
        <time>2011-09-24T10:11:14Z</time>
      </trkpt>
      <trkpt lat="42.57376" lon="2.06052">
        <ele>1809.980103</ele>
        <time>2011-09-24T10:11:16Z</time>
      </trkpt>
      <trkpt lat="42.57376" lon="2.06042">
        <ele>1812.064209</ele>
        <time>2011-09-24T10:11:18Z</time>
      </trkpt>
      <trkpt lat="42.57375" lon="2.06033">
        <ele>1814.153076</ele>
        <time>2011-09-24T10:11:20Z</time>
      </trkpt>
      <trkpt lat="42.57374" lon="2.06024">
        <ele>1816.258545</ele>
        <time>2011-09-24T10:11:22Z</time>
      </trkpt>
      <trkpt lat="42.57373" lon="2.06016">
        <ele>1818.367188</ele>
        <time>2011-09-24T10:11:24Z</time>
      </trkpt>
      <trkpt lat="42.57372" lon="2.06007">
        <ele>1820.509521</ele>
        <time>2011-09-24T10:11:26Z</time>
      </trkpt>
      <trkpt lat="42.57371" lon="2.05998">
        <ele>1822.700317</ele>
        <time>2011-09-24T10:11:28Z</time>
      </trkpt>
      <trkpt lat="42.5737" lon="2.05989">
        <ele>1824.904175</ele>
        <time>2011-09-24T10:11:30Z</time>
      </trkpt>
      <trkpt lat="42.57369" lon="2.0598">
        <ele>1827.129883</ele>
        <time>2011-09-24T10:11:32Z</time>
      </trkpt>
      <trkpt lat="42.57368" lon="2.05971">
        <ele>1829.400391</ele>
        <time>2011-09-24T10:11:34Z</time>
      </trkpt>
      <trkpt lat="42.57367" lon="2.05962">
        <ele>1831.697632</ele>
        <time>2011-09-24T10:11:36Z</time>
      </trkpt>
      <trkpt lat="42.57366" lon="2.05953">
        <ele>1834.037476</ele>
        <time>2011-09-24T10:11:38Z</time>
      </trkpt>
      <trkpt lat="42.57365" lon="2.05945">
        <ele>1836.419312</ele>
        <time>2011-09-24T10:11:40Z</time>
      </trkpt>
      <trkpt lat="42.57365" lon="2.05937">
        <ele>1838.837646</ele>
        <time>2011-09-24T10:11:42Z</time>
      </trkpt>
      <trkpt lat="42.57364" lon="2.05928">
        <ele>1841.299438</ele>
        <time>2011-09-24T10:11:44Z</time>
      </trkpt>
      <trkpt lat="42.57362" lon="2.0592">
        <ele>1843.80957</ele>
        <time>2011-09-24T10:11:46Z</time>
      </trkpt>
      <trkpt lat="42.57361" lon="2.05912">
        <ele>1846.351074</ele>
        <time>2011-09-24T10:11:48Z</time>
      </trkpt>
      <trkpt lat="42.5736" lon="2.05904">
        <ele>1848.918335</ele>
        <time>2011-09-24T10:11:50Z</time>
      </trkpt>
      <trkpt lat="42.57358" lon="2.05895">
        <ele>1851.514404</ele>
        <time>2011-09-24T10:11:52Z</time>
      </trkpt>
      <trkpt lat="42.57357" lon="2.05886">
        <ele>1854.13501</ele>
        <time>2011-09-24T10:11:54Z</time>
      </trkpt>
      <trkpt lat="42.57356" lon="2.05877">
        <ele>1856.77356</ele>
        <time>2011-09-24T10:11:56Z</time>
      </trkpt>
      <trkpt lat="42.57355" lon="2.05869">
        <ele>1859.436768</ele>
        <time>2011-09-24T10:11:58Z</time>
      </trkpt>
      <trkpt lat="42.57354" lon="2.05861">
        <ele>1862.116699</ele>
        <time>2011-09-24T10:12:00Z</time>
      </trkpt>
      <trkpt lat="42.57352" lon="2.05853">
        <ele>1864.816406</ele>
        <time>2011-09-24T10:12:02Z</time>
      </trkpt>
      <trkpt lat="42.57351" lon="2.05844">
        <ele>1867.539307</ele>
        <time>2011-09-24T10:12:04Z</time>
      </trkpt>
      <trkpt lat="42.5735" lon="2.05836">
        <ele>1870.275024</ele>
        <time>2011-09-24T10:12:06Z</time>
      </trkpt>
      <trkpt lat="42.57349" lon="2.05828">
        <ele>1872.979492</ele>
        <time>2011-09-24T10:12:08Z</time>
      </trkpt>
      <trkpt lat="42.57348" lon="2.05821">
        <ele>1875.688232</ele>
        <time>2011-09-24T10:12:10Z</time>
      </trkpt>
      <trkpt lat="42.57347" lon="2.05812">
        <ele>1878.468994</ele>
        <time>2011-09-24T10:12:12Z</time>
      </trkpt>
      <trkpt lat="42.57346" lon="2.05804">
        <ele>1881.317261</ele>
        <time>2011-09-24T10:12:14Z</time>
      </trkpt>
      <trkpt lat="42.57344" lon="2.05795">
        <ele>1884.213135</ele>
        <time>2011-09-24T10:12:16Z</time>
      </trkpt>
      <trkpt lat="42.57342" lon="2.05787">
        <ele>1887.141113</ele>
        <time>2011-09-24T10:12:18Z</time>
      </trkpt>
      <trkpt lat="42.57341" lon="2.05779">
        <ele>1890.090576</ele>
        <time>2011-09-24T10:12:20Z</time>
      </trkpt>
      <trkpt lat="42.57339" lon="2.05771">
        <ele>1893.08313</ele>
        <time>2011-09-24T10:12:22Z</time>
      </trkpt>
      <trkpt lat="42.57337" lon="2.05763">
        <ele>1896.164795</ele>
        <time>2011-09-24T10:12:24Z</time>
      </trkpt>
      <trkpt lat="42.57335" lon="2.05755">
        <ele>1899.314697</ele>
        <time>2011-09-24T10:12:26Z</time>
      </trkpt>
      <trkpt lat="42.57334" lon="2.05748">
        <ele>1902.490356</ele>
        <time>2011-09-24T10:12:28Z</time>
      </trkpt>
      <trkpt lat="42.57332" lon="2.05741">
        <ele>1905.713135</ele>
        <time>2011-09-24T10:12:30Z</time>
      </trkpt>
      <trkpt lat="42.5733" lon="2.05733">
        <ele>1908.963013</ele>
        <time>2011-09-24T10:12:32Z</time>
      </trkpt>
      <trkpt lat="42.57328" lon="2.05724">
        <ele>1912.216309</ele>
        <time>2011-09-24T10:12:34Z</time>
      </trkpt>
      <trkpt lat="42.57327" lon="2.05716">
        <ele>1915.468994</ele>
        <time>2011-09-24T10:12:36Z</time>
      </trkpt>
      <trkpt lat="42.57325" lon="2.05708">
        <ele>1918.752563</ele>
        <time>2011-09-24T10:12:38Z</time>
      </trkpt>
      <trkpt lat="42.57324" lon="2.05701">
        <ele>1922.105225</ele>
        <time>2011-09-24T10:12:40Z</time>
      </trkpt>
      <trkpt lat="42.57323" lon="2.05694">
        <ele>1925.535034</ele>
        <time>2011-09-24T10:12:42Z</time>
      </trkpt>
      <trkpt lat="42.57322" lon="2.05688">
        <ele>1929.005859</ele>
        <time>2011-09-24T10:12:44Z</time>
      </trkpt>
      <trkpt lat="42.57321" lon="2.05681">
        <ele>1932.463501</ele>
        <time>2011-09-24T10:12:46Z</time>
      </trkpt>
      <trkpt lat="42.5732" lon="2.05673">
        <ele>1935.912476</ele>
        <time>2011-09-24T10:12:48Z</time>
      </trkpt>
      <trkpt lat="42.57319" lon="2.05665">
        <ele>1939.348145</ele>
        <time>2011-09-24T10:12:50Z</time>
      </trkpt>
      <trkpt lat="42.57319" lon="2.05657">
        <ele>1942.753784</ele>
        <time>2011-09-24T10:12:52Z</time>
      </trkpt>
      <trkpt lat="42.57318" lon="2.05648">
        <ele>1946.108032</ele>
        <time>2011-09-24T10:12:54Z</time>
      </trkpt>
      <trkpt lat="42.57317" lon="2.05638">
        <ele>1949.460938</ele>
        <time>2011-09-24T10:12:56Z</time>
      </trkpt>
      <trkpt lat="42.57316" lon="2.05628">
        <ele>1952.798828</ele>
        <time>2011-09-24T10:12:58Z</time>
      </trkpt>
      <trkpt lat="42.57315" lon="2.05619">
        <ele>1956.115601</ele>
        <time>2011-09-24T10:13:00Z</time>
      </trkpt>
      <trkpt lat="42.57313" lon="2.0561">
        <ele>1959.384644</ele>
        <time>2011-09-24T10:13:02Z</time>
      </trkpt>
      <trkpt lat="42.57311" lon="2.05603">
        <ele>1962.689697</ele>
        <time>2011-09-24T10:13:04Z</time>
      </trkpt>
      <trkpt lat="42.57308" lon="2.05595">
        <ele>1966.049561</ele>
        <time>2011-09-24T10:13:06Z</time>
      </trkpt>
      <trkpt lat="42.57306" lon="2.05587">
        <ele>1969.420532</ele>
        <time>2011-09-24T10:13:08Z</time>
      </trkpt>
      <trkpt lat="42.57304" lon="2.05579">
        <ele>1972.774414</ele>
        <time>2011-09-24T10:13:10Z</time>
      </trkpt>
      <trkpt lat="42.57303" lon="2.0557">
        <ele>1976.082397</ele>
        <time>2011-09-24T10:13:12Z</time>
      </trkpt>
      <trkpt lat="42.57302" lon="2.0556">
        <ele>1979.346802</ele>
        <time>2011-09-24T10:13:14Z</time>
      </trkpt>
      <trkpt lat="42.57301" lon="2.05551">
        <ele>1982.58313</ele>
        <time>2011-09-24T10:13:16Z</time>
      </trkpt>
      <trkpt lat="42.573" lon="2.05542">
        <ele>1985.781128</ele>
        <time>2011-09-24T10:13:18Z</time>
      </trkpt>
      <trkpt lat="42.573" lon="2.05533">
        <ele>1988.975098</ele>
        <time>2011-09-24T10:13:20Z</time>
      </trkpt>
      <trkpt lat="42.57299" lon="2.05524">
        <ele>1992.123535</ele>
        <time>2011-09-24T10:13:22Z</time>
      </trkpt>
      <trkpt lat="42.57298" lon="2.05515">
        <ele>1995.204224</ele>
        <time>2011-09-24T10:13:24Z</time>
      </trkpt>
      <trkpt lat="42.57297" lon="2.05507">
        <ele>1998.216675</ele>
        <time>2011-09-24T10:13:26Z</time>
      </trkpt>
      <trkpt lat="42.57295" lon="2.05498">
        <ele>2001.187866</ele>
        <time>2011-09-24T10:13:28Z</time>
      </trkpt>
      <trkpt lat="42.57293" lon="2.0549">
        <ele>2004.15979</ele>
        <time>2011-09-24T10:13:30Z</time>
      </trkpt>
      <trkpt lat="42.57292" lon="2.05482">
        <ele>2007.143677</ele>
        <time>2011-09-24T10:13:32Z</time>
      </trkpt>
      <trkpt lat="42.57289" lon="2.05474">
        <ele>2010.145386</ele>
        <time>2011-09-24T10:13:34Z</time>
      </trkpt>
      <trkpt lat="42.57287" lon="2.05467">
        <ele>2013.170288</ele>
        <time>2011-09-24T10:13:36Z</time>
      </trkpt>
      <trkpt lat="42.57285" lon="2.05459">
        <ele>2016.173462</ele>
        <time>2011-09-24T10:13:38Z</time>
      </trkpt>
      <trkpt lat="42.57283" lon="2.0545">
        <ele>2019.126587</ele>
        <time>2011-09-24T10:13:40Z</time>
      </trkpt>
      <trkpt lat="42.57281" lon="2.05443">
        <ele>2022.022583</ele>
        <time>2011-09-24T10:13:42Z</time>
      </trkpt>
      <trkpt lat="42.57279" lon="2.05435">
        <ele>2024.871216</ele>
        <time>2011-09-24T10:13:44Z</time>
      </trkpt>
      <trkpt lat="42.57277" lon="2.05427">
        <ele>2027.674194</ele>
        <time>2011-09-24T10:13:46Z</time>
      </trkpt>
      <trkpt lat="42.57274" lon="2.05418">
        <ele>2030.424194</ele>
        <time>2011-09-24T10:13:48Z</time>
      </trkpt>
      <trkpt lat="42.57272" lon="2.05409">
        <ele>2033.119995</ele>
        <time>2011-09-24T10:13:50Z</time>
      </trkpt>
      <trkpt lat="42.5727" lon="2.054">
        <ele>2035.725952</ele>
        <time>2011-09-24T10:13:52Z</time>
      </trkpt>
      <trkpt lat="42.57269" lon="2.05392">
        <ele>2038.252563</ele>
        <time>2011-09-24T10:13:54Z</time>
      </trkpt>
      <trkpt lat="42.57268" lon="2.05383">
        <ele>2040.717407</ele>
        <time>2011-09-24T10:13:56Z</time>
      </trkpt>
      <trkpt lat="42.57267" lon="2.05374">
        <ele>2043.12854</ele>
        <time>2011-09-24T10:13:58Z</time>
      </trkpt>
      <trkpt lat="42.57266" lon="2.05365">
        <ele>2045.479858</ele>
        <time>2011-09-24T10:14:00Z</time>
      </trkpt>
      <trkpt lat="42.57266" lon="2.05361">
        <ele>2046.619995</ele>
        <time>2011-09-24T10:14:01Z</time>
      </trkpt>
      <trkpt lat="42.57265" lon="2.05352">
        <ele>2051.105225</ele>
        <time>2011-09-24T10:14:07Z</time>
      </trkpt>
      <trkpt lat="42.57264" lon="2.05346">
        <ele>2055.347412</ele>
        <time>2011-09-24T10:14:14Z</time>
      </trkpt>
      <trkpt lat="42.57264" lon="2.05339">
        <ele>2058.53418</ele>
        <time>2011-09-24T10:14:22Z</time>
      </trkpt>
      <trkpt lat="42.57264" lon="2.05332">
        <ele>2061.421387</ele>
        <time>2011-09-24T10:14:27Z</time>
      </trkpt>
      <trkpt lat="42.57264" lon="2.05325">
        <ele>2063.934814</ele>
        <time>2011-09-24T10:14:30Z</time>
      </trkpt>
      <trkpt lat="42.57264" lon="2.05316">
        <ele>2064.981201</ele>
        <time>2011-09-24T10:14:32Z</time>
      </trkpt>
      <trkpt lat="42.57263" lon="2.05309">
        <ele>2066.926514</ele>
        <time>2011-09-24T10:14:34Z</time>
      </trkpt>
      <trkpt lat="42.57259" lon="2.05304">
        <ele>2069.733643</ele>
        <time>2011-09-24T10:14:37Z</time>
      </trkpt>
      <trkpt lat="42.57257" lon="2.0531">
        <ele>2073.234619</ele>
        <time>2011-09-24T10:14:41Z</time>
      </trkpt>
      <trkpt lat="42.57256" lon="2.05319">
        <ele>2080.545166</ele>
        <time>2011-09-24T10:15:14Z</time>
      </trkpt>
      <trkpt lat="42.57252" lon="2.05324">
        <ele>2083.152588</ele>
        <time>2011-09-24T10:15:21Z</time>
      </trkpt>
      <trkpt lat="42.57247" lon="2.05328">
        <ele>2083.956787</ele>
        <time>2011-09-24T10:15:23Z</time>
      </trkpt>
      <trkpt lat="42.57243" lon="2.05332">
        <ele>2084.753906</ele>
        <time>2011-09-24T10:15:25Z</time>
      </trkpt>
      <trkpt lat="42.57236" lon="2.05336">
        <ele>2088.949707</ele>
        <time>2011-09-24T10:15:27Z</time>
      </trkpt>
      <trkpt lat="42.57228" lon="2.05339">
        <ele>2094.324707</ele>
        <time>2011-09-24T10:15:29Z</time>
      </trkpt>
      <trkpt lat="42.57222" lon="2.05347">
        <ele>2097.847412</ele>
        <time>2011-09-24T10:15:31Z</time>
      </trkpt>
      <trkpt lat="42.57217" lon="2.05355">
        <ele>2099.773926</ele>
        <time>2011-09-24T10:15:33Z</time>
      </trkpt>
      <trkpt lat="42.57213" lon="2.05365">
        <ele>2100.899414</ele>
        <time>2011-09-24T10:15:35Z</time>
      </trkpt>
      <trkpt lat="42.5721" lon="2.05375">
        <ele>2102.334961</ele>
        <time>2011-09-24T10:15:37Z</time>
      </trkpt>
      <trkpt lat="42.57207" lon="2.05386">
        <ele>2103.882812</ele>
        <time>2011-09-24T10:15:39Z</time>
      </trkpt>
      <trkpt lat="42.57204" lon="2.05395">
        <ele>2104.038086</ele>
        <time>2011-09-24T10:15:41Z</time>
      </trkpt>
      <trkpt lat="42.57202" lon="2.05404">
        <ele>2104.211182</ele>
        <time>2011-09-24T10:15:43Z</time>
      </trkpt>
      <trkpt lat="42.572" lon="2.05413">
        <ele>2104.383545</ele>
        <time>2011-09-24T10:15:45Z</time>
      </trkpt>
      <trkpt lat="42.57198" lon="2.05421">
        <ele>2104.552246</ele>
        <time>2011-09-24T10:15:47Z</time>
      </trkpt>
      <trkpt lat="42.57196" lon="2.0543">
        <ele>2104.713623</ele>
        <time>2011-09-24T10:15:49Z</time>
      </trkpt>
      <trkpt lat="42.57195" lon="2.05438">
        <ele>2104.873779</ele>
        <time>2011-09-24T10:15:51Z</time>
      </trkpt>
      <trkpt lat="42.57195" lon="2.05447">
        <ele>2105.036133</ele>
        <time>2011-09-24T10:15:53Z</time>
      </trkpt>
      <trkpt lat="42.57195" lon="2.05454">
        <ele>2105.205811</ele>
        <time>2011-09-24T10:15:55Z</time>
      </trkpt>
      <trkpt lat="42.57196" lon="2.0546">
        <ele>2105.376953</ele>
        <time>2011-09-24T10:15:57Z</time>
      </trkpt>
      <trkpt lat="42.57196" lon="2.05467">
        <ele>2105.54541</ele>
        <time>2011-09-24T10:15:59Z</time>
      </trkpt>
      <trkpt lat="42.57196" lon="2.05474">
        <ele>2105.711182</ele>
        <time>2011-09-24T10:16:01Z</time>
      </trkpt>
      <trkpt lat="42.57197" lon="2.05482">
        <ele>2105.955811</ele>
        <time>2011-09-24T10:16:04Z</time>
      </trkpt>
      <trkpt lat="42.57196" lon="2.05491">
        <ele>2106.190918</ele>
        <time>2011-09-24T10:16:07Z</time>
      </trkpt>
      <trkpt lat="42.57195" lon="2.05497">
        <ele>2106.263428</ele>
        <time>2011-09-24T10:16:09Z</time>
      </trkpt>
      <trkpt lat="42.57192" lon="2.05505">
        <ele>2106.379395</ele>
        <time>2011-09-24T10:16:12Z</time>
      </trkpt>
      <trkpt lat="42.57188" lon="2.05512">
        <ele>2106.551758</ele>
        <time>2011-09-24T10:16:15Z</time>
      </trkpt>
      <trkpt lat="42.57185" lon="2.05517">
        <ele>2106.692139</ele>
        <time>2011-09-24T10:16:17Z</time>
      </trkpt>
      <trkpt lat="42.57182" lon="2.05522">
        <ele>2106.846924</ele>
        <time>2011-09-24T10:16:19Z</time>
      </trkpt>
      <trkpt lat="42.57177" lon="2.05527">
        <ele>2107.097656</ele>
        <time>2011-09-24T10:16:22Z</time>
      </trkpt>
      <trkpt lat="42.57172" lon="2.05532">
        <ele>2107.354736</ele>
        <time>2011-09-24T10:16:25Z</time>
      </trkpt>
      <trkpt lat="42.57167" lon="2.05535">
        <ele>2107.535645</ele>
        <time>2011-09-24T10:16:27Z</time>
      </trkpt>
      <trkpt lat="42.57163" lon="2.05538">
        <ele>2107.725586</ele>
        <time>2011-09-24T10:16:29Z</time>
      </trkpt>
      <trkpt lat="42.57159" lon="2.05542">
        <ele>2107.921631</ele>
        <time>2011-09-24T10:16:31Z</time>
      </trkpt>
      <trkpt lat="42.57154" lon="2.05545">
        <ele>2108.118652</ele>
        <time>2011-09-24T10:16:33Z</time>
      </trkpt>
      <trkpt lat="42.57151" lon="2.05551">
        <ele>2108.308838</ele>
        <time>2011-09-24T10:16:35Z</time>
      </trkpt>
      <trkpt lat="42.57145" lon="2.05557">
        <ele>2108.853027</ele>
        <time>2011-09-24T10:16:53Z</time>
      </trkpt>
      <trkpt lat="42.5714" lon="2.05563">
        <ele>2109.276367</ele>
        <time>2011-09-24T10:16:55Z</time>
      </trkpt>
      <trkpt lat="42.57137" lon="2.05567">
        <ele>2109.494873</ele>
        <time>2011-09-24T10:16:56Z</time>
      </trkpt>
      <trkpt lat="42.57132" lon="2.05572">
        <ele>2109.588379</ele>
        <time>2011-09-24T10:16:57Z</time>
      </trkpt>
      <trkpt lat="42.57128" lon="2.05577">
        <ele>2109.519775</ele>
        <time>2011-09-24T10:16:58Z</time>
      </trkpt>
      <trkpt lat="42.57125" lon="2.05583">
        <ele>2109.364014</ele>
        <time>2011-09-24T10:16:59Z</time>
      </trkpt>
      <trkpt lat="42.57123" lon="2.05591">
        <ele>2109.193604</ele>
        <time>2011-09-24T10:17:00Z</time>
      </trkpt>
      <trkpt lat="42.57119" lon="2.05599">
        <ele>2108.967041</ele>
        <time>2011-09-24T10:17:01Z</time>
      </trkpt>
      <trkpt lat="42.57116" lon="2.05607">
        <ele>2108.727051</ele>
        <time>2011-09-24T10:17:02Z</time>
      </trkpt>
      <trkpt lat="42.57112" lon="2.05615">
        <ele>2108.483887</ele>
        <time>2011-09-24T10:17:03Z</time>
      </trkpt>
      <trkpt lat="42.57107" lon="2.05625">
        <ele>2108.197754</ele>
        <time>2011-09-24T10:17:04Z</time>
      </trkpt>
      <trkpt lat="42.57103" lon="2.05634">
        <ele>2107.920654</ele>
        <time>2011-09-24T10:17:05Z</time>
      </trkpt>
      <trkpt lat="42.57098" lon="2.05643">
        <ele>2107.516846</ele>
        <time>2011-09-24T10:17:06Z</time>
      </trkpt>
      <trkpt lat="42.57094" lon="2.05651">
        <ele>2107.08252</ele>
        <time>2011-09-24T10:17:07Z</time>
      </trkpt>
      <trkpt lat="42.57091" lon="2.05657">
        <ele>2106.628174</ele>
        <time>2011-09-24T10:17:08Z</time>
      </trkpt>
      <trkpt lat="42.57084" lon="2.05662">
        <ele>2105.778809</ele>
        <time>2011-09-24T10:17:10Z</time>
      </trkpt>
      <trkpt lat="42.57083" lon="2.05675">
        <ele>2105.48877</ele>
        <time>2011-09-24T10:17:12Z</time>
      </trkpt>
      <trkpt lat="42.57085" lon="2.05683">
        <ele>2105.281494</ele>
        <time>2011-09-24T10:17:13Z</time>
      </trkpt>
      <trkpt lat="42.57087" lon="2.05691">
        <ele>2104.94873</ele>
        <time>2011-09-24T10:17:14Z</time>
      </trkpt>
      <trkpt lat="42.57086" lon="2.05698">
        <ele>2104.442383</ele>
        <time>2011-09-24T10:17:15Z</time>
      </trkpt>
      <trkpt lat="42.57081" lon="2.05703">
        <ele>2103.904053</ele>
        <time>2011-09-24T10:17:17Z</time>
      </trkpt>
      <trkpt lat="42.57079" lon="2.05712">
        <ele>2103.334473</ele>
        <time>2011-09-24T10:17:19Z</time>
      </trkpt>
      <trkpt lat="42.57079" lon="2.0572">
        <ele>2102.710205</ele>
        <time>2011-09-24T10:17:20Z</time>
      </trkpt>
      <trkpt lat="42.57078" lon="2.05727">
        <ele>2102.166992</ele>
        <time>2011-09-24T10:17:21Z</time>
      </trkpt>
      <trkpt lat="42.57072" lon="2.05734">
        <ele>2101.253906</ele>
        <time>2011-09-24T10:17:23Z</time>
      </trkpt>
      <trkpt lat="42.57067" lon="2.05742">
        <ele>2100.461426</ele>
        <time>2011-09-24T10:17:25Z</time>
      </trkpt>
      <trkpt lat="42.57063" lon="2.05751">
        <ele>2099.803467</ele>
        <time>2011-09-24T10:17:27Z</time>
      </trkpt>
      <trkpt lat="42.57061" lon="2.05757">
        <ele>2099.517822</ele>
        <time>2011-09-24T10:17:28Z</time>
      </trkpt>
      <trkpt lat="42.5706" lon="2.05763">
        <ele>2099.172119</ele>
        <time>2011-09-24T10:17:29Z</time>
      </trkpt>
      <trkpt lat="42.57058" lon="2.05769">
        <ele>2098.818359</ele>
        <time>2011-09-24T10:17:30Z</time>
      </trkpt>
      <trkpt lat="42.57054" lon="2.05775">
        <ele>2098.738037</ele>
        <time>2011-09-24T10:17:32Z</time>
      </trkpt>
      <trkpt lat="42.57049" lon="2.05779">
        <ele>2098.609131</ele>
        <time>2011-09-24T10:17:35Z</time>
      </trkpt>
      <trkpt lat="42.57044" lon="2.05784">
        <ele>2098.514404</ele>
        <time>2011-09-24T10:17:37Z</time>
      </trkpt>
      <trkpt lat="42.5704" lon="2.05792">
        <ele>2098.392334</ele>
        <time>2011-09-24T10:17:39Z</time>
      </trkpt>
      <trkpt lat="42.57036" lon="2.05803">
        <ele>2097.618652</ele>
        <time>2011-09-24T10:17:41Z</time>
      </trkpt>
      <trkpt lat="42.57033" lon="2.0581">
        <ele>2096.912598</ele>
        <time>2011-09-24T10:17:42Z</time>
      </trkpt>
      <trkpt lat="42.57028" lon="2.05816">
        <ele>2096.025146</ele>
        <time>2011-09-24T10:17:43Z</time>
      </trkpt>
      <trkpt lat="42.57024" lon="2.05824">
        <ele>2095.170654</ele>
        <time>2011-09-24T10:17:44Z</time>
      </trkpt>
      <trkpt lat="42.57019" lon="2.05831">
        <ele>2094.398193</ele>
        <time>2011-09-24T10:17:45Z</time>
      </trkpt>
      <trkpt lat="42.57016" lon="2.05838">
        <ele>2093.621826</ele>
        <time>2011-09-24T10:17:46Z</time>
      </trkpt>
      <trkpt lat="42.57013" lon="2.05846">
        <ele>2092.961182</ele>
        <time>2011-09-24T10:17:47Z</time>
      </trkpt>
      <trkpt lat="42.57013" lon="2.05853">
        <ele>2092.242432</ele>
        <time>2011-09-24T10:17:48Z</time>
      </trkpt>
      <trkpt lat="42.57012" lon="2.05861">
        <ele>2091.501465</ele>
        <time>2011-09-24T10:17:49Z</time>
      </trkpt>
      <trkpt lat="42.57012" lon="2.05868">
        <ele>2090.854492</ele>
        <time>2011-09-24T10:17:50Z</time>
      </trkpt>
      <trkpt lat="42.57012" lon="2.05874">
        <ele>2090.223633</ele>
        <time>2011-09-24T10:17:51Z</time>
      </trkpt>
      <trkpt lat="42.57011" lon="2.05881">
        <ele>2089.705811</ele>
        <time>2011-09-24T10:17:52Z</time>
      </trkpt>
      <trkpt lat="42.5701" lon="2.05887">
        <ele>2089.263916</ele>
        <time>2011-09-24T10:17:53Z</time>
      </trkpt>
      <trkpt lat="42.57006" lon="2.05896">
        <ele>2088.843506</ele>
        <time>2011-09-24T10:17:55Z</time>
      </trkpt>
      <trkpt lat="42.57002" lon="2.05903">
        <ele>2088.759766</ele>
        <time>2011-09-24T10:17:57Z</time>
      </trkpt>
      <trkpt lat="42.57" lon="2.05914">
        <ele>2088.220947</ele>
        <time>2011-09-24T10:17:59Z</time>
      </trkpt>
      <trkpt lat="42.57001" lon="2.05921">
        <ele>2087.767334</ele>
        <time>2011-09-24T10:18:00Z</time>
      </trkpt>
      <trkpt lat="42.57002" lon="2.05929">
        <ele>2087.424316</ele>
        <time>2011-09-24T10:18:01Z</time>
      </trkpt>
      <trkpt lat="42.57001" lon="2.05935">
        <ele>2087.090088</ele>
        <time>2011-09-24T10:18:02Z</time>
      </trkpt>
      <trkpt lat="42.56996" lon="2.05943">
        <ele>2086.652832</ele>
        <time>2011-09-24T10:18:04Z</time>
      </trkpt>
      <trkpt lat="42.56991" lon="2.05949">
        <ele>2086.555664</ele>
        <time>2011-09-24T10:18:06Z</time>
      </trkpt>
      <trkpt lat="42.5699" lon="2.05959">
        <ele>2085.952881</ele>
        <time>2011-09-24T10:18:08Z</time>
      </trkpt>
      <trkpt lat="42.56988" lon="2.05971">
        <ele>2083.574463</ele>
        <time>2011-09-24T10:18:10Z</time>
      </trkpt>
      <trkpt lat="42.56985" lon="2.05977">
        <ele>2082.196533</ele>
        <time>2011-09-24T10:18:11Z</time>
      </trkpt>
      <trkpt lat="42.56981" lon="2.0598">
        <ele>2080.515869</ele>
        <time>2011-09-24T10:18:12Z</time>
      </trkpt>
      <trkpt lat="42.56973" lon="2.0598">
        <ele>2076.791748</ele>
        <time>2011-09-24T10:18:14Z</time>
      </trkpt>
      <trkpt lat="42.56969" lon="2.05975">
        <ele>2074.85791</ele>
        <time>2011-09-24T10:18:15Z</time>
      </trkpt>
      <trkpt lat="42.56966" lon="2.05969">
        <ele>2073.027588</ele>
        <time>2011-09-24T10:18:16Z</time>
      </trkpt>
      <trkpt lat="42.56962" lon="2.05964">
        <ele>2071.255127</ele>
        <time>2011-09-24T10:18:17Z</time>
      </trkpt>
      <trkpt lat="42.56958" lon="2.05958">
        <ele>2069.580566</ele>
        <time>2011-09-24T10:18:18Z</time>
      </trkpt>
      <trkpt lat="42.5695" lon="2.05956">
        <ele>2066.662109</ele>
        <time>2011-09-24T10:18:20Z</time>
      </trkpt>
      <trkpt lat="42.56948" lon="2.05963">
        <ele>2066.380859</ele>
        <time>2011-09-24T10:18:22Z</time>
      </trkpt>
      <trkpt lat="42.56949" lon="2.0597">
        <ele>2066.249268</ele>
        <time>2011-09-24T10:18:23Z</time>
      </trkpt>
      <trkpt lat="42.5695" lon="2.05978">
        <ele>2066.104248</ele>
        <time>2011-09-24T10:18:24Z</time>
      </trkpt>
      <trkpt lat="42.5695" lon="2.05985">
        <ele>2065.949707</ele>
        <time>2011-09-24T10:18:25Z</time>
      </trkpt>
      <trkpt lat="42.5695" lon="2.05992">
        <ele>2065.785889</ele>
        <time>2011-09-24T10:18:26Z</time>
      </trkpt>
      <trkpt lat="42.56948" lon="2.05999">
        <ele>2064.045898</ele>
        <time>2011-09-24T10:18:27Z</time>
      </trkpt>
      <trkpt lat="42.56946" lon="2.06005">
        <ele>2062.39917</ele>
        <time>2011-09-24T10:18:28Z</time>
      </trkpt>
      <trkpt lat="42.56944" lon="2.06011">
        <ele>2060.852051</ele>
        <time>2011-09-24T10:18:29Z</time>
      </trkpt>
      <trkpt lat="42.5694" lon="2.06014">
        <ele>2060.563721</ele>
        <time>2011-09-24T10:18:31Z</time>
      </trkpt>
      <trkpt lat="42.56931" lon="2.06014">
        <ele>2059.084961</ele>
        <time>2011-09-24T10:18:33Z</time>
      </trkpt>
      <trkpt lat="42.56926" lon="2.06012">
        <ele>2057.859131</ele>
        <time>2011-09-24T10:18:34Z</time>
      </trkpt>
      <trkpt lat="42.56921" lon="2.06013">
        <ele>2056.621582</ele>
        <time>2011-09-24T10:18:35Z</time>
      </trkpt>
      <trkpt lat="42.56913" lon="2.06019">
        <ele>2055.007324</ele>
        <time>2011-09-24T10:18:37Z</time>
      </trkpt>
      <trkpt lat="42.56909" lon="2.06023">
        <ele>2053.553711</ele>
        <time>2011-09-24T10:18:38Z</time>
      </trkpt>
      <trkpt lat="42.56905" lon="2.06027">
        <ele>2052.31543</ele>
        <time>2011-09-24T10:18:39Z</time>
      </trkpt>
      <trkpt lat="42.56902" lon="2.06033">
        <ele>2051.095947</ele>
        <time>2011-09-24T10:18:40Z</time>
      </trkpt>
      <trkpt lat="42.56901" lon="2.0604">
        <ele>2049.986816</ele>
        <time>2011-09-24T10:18:41Z</time>
      </trkpt>
      <trkpt lat="42.569" lon="2.06049">
        <ele>2049.030029</ele>
        <time>2011-09-24T10:18:42Z</time>
      </trkpt>
      <trkpt lat="42.569" lon="2.06057">
        <ele>2048.222656</ele>
        <time>2011-09-24T10:18:43Z</time>
      </trkpt>
      <trkpt lat="42.56899" lon="2.06065">
        <ele>2047.448608</ele>
        <time>2011-09-24T10:18:44Z</time>
      </trkpt>
      <trkpt lat="42.56898" lon="2.06071">
        <ele>2046.67688</ele>
        <time>2011-09-24T10:18:45Z</time>
      </trkpt>
      <trkpt lat="42.56897" lon="2.06079">
        <ele>2045.868286</ele>
        <time>2011-09-24T10:18:46Z</time>
      </trkpt>
      <trkpt lat="42.56895" lon="2.06087">
        <ele>2045.019409</ele>
        <time>2011-09-24T10:18:47Z</time>
      </trkpt>
      <trkpt lat="42.56893" lon="2.06094">
        <ele>2044.184692</ele>
        <time>2011-09-24T10:18:48Z</time>
      </trkpt>
      <trkpt lat="42.56889" lon="2.06098">
        <ele>2043.222046</ele>
        <time>2011-09-24T10:18:49Z</time>
      </trkpt>
      <trkpt lat="42.56885" lon="2.06101">
        <ele>2042.143921</ele>
        <time>2011-09-24T10:18:50Z</time>
      </trkpt>
      <trkpt lat="42.56881" lon="2.061">
        <ele>2041.042358</ele>
        <time>2011-09-24T10:18:51Z</time>
      </trkpt>
      <trkpt lat="42.56872" lon="2.06096">
        <ele>2039.144165</ele>
        <time>2011-09-24T10:18:53Z</time>
      </trkpt>
      <trkpt lat="42.5687" lon="2.0609">
        <ele>2039.018433</ele>
        <time>2011-09-24T10:18:55Z</time>
      </trkpt>
      <trkpt lat="42.56868" lon="2.06078">
        <ele>2038.794556</ele>
        <time>2011-09-24T10:18:57Z</time>
      </trkpt>
      <trkpt lat="42.56865" lon="2.06069">
        <ele>2038.464966</ele>
        <time>2011-09-24T10:18:59Z</time>
      </trkpt>
      <trkpt lat="42.5686" lon="2.06072">
        <ele>2037.800171</ele>
        <time>2011-09-24T10:19:02Z</time>
      </trkpt>
      <trkpt lat="42.56859" lon="2.06079">
        <ele>2035.088989</ele>
        <time>2011-09-24T10:19:03Z</time>
      </trkpt>
      <trkpt lat="42.56858" lon="2.06086">
        <ele>2032.696411</ele>
        <time>2011-09-24T10:19:04Z</time>
      </trkpt>
      <trkpt lat="42.56857" lon="2.06095">
        <ele>2030.609497</ele>
        <time>2011-09-24T10:19:05Z</time>
      </trkpt>
      <trkpt lat="42.56856" lon="2.06104">
        <ele>2028.860474</ele>
        <time>2011-09-24T10:19:06Z</time>
      </trkpt>
      <trkpt lat="42.56855" lon="2.06113">
        <ele>2027.308716</ele>
        <time>2011-09-24T10:19:07Z</time>
      </trkpt>
      <trkpt lat="42.56854" lon="2.06123">
        <ele>2025.834106</ele>
        <time>2011-09-24T10:19:08Z</time>
      </trkpt>
      <trkpt lat="42.56854" lon="2.06131">
        <ele>2024.269409</ele>
        <time>2011-09-24T10:19:09Z</time>
      </trkpt>
      <trkpt lat="42.56853" lon="2.06137">
        <ele>2022.621704</ele>
        <time>2011-09-24T10:19:10Z</time>
      </trkpt>
      <trkpt lat="42.56848" lon="2.06141">
        <ele>2022.161255</ele>
        <time>2011-09-24T10:19:13Z</time>
      </trkpt>
      <trkpt lat="42.56846" lon="2.06148">
        <ele>2021.586548</ele>
        <time>2011-09-24T10:19:16Z</time>
      </trkpt>
      <trkpt lat="42.56842" lon="2.06155">
        <ele>2021.051392</ele>
        <time>2011-09-24T10:19:18Z</time>
      </trkpt>
      <trkpt lat="42.56839" lon="2.06164">
        <ele>2017.643433</ele>
        <time>2011-09-24T10:19:20Z</time>
      </trkpt>
      <trkpt lat="42.5684" lon="2.06175">
        <ele>2013.003296</ele>
        <time>2011-09-24T10:19:22Z</time>
      </trkpt>
      <trkpt lat="42.56842" lon="2.06181">
        <ele>2011.082153</ele>
        <time>2011-09-24T10:19:23Z</time>
      </trkpt>
      <trkpt lat="42.56842" lon="2.06187">
        <ele>2009.411743</ele>
        <time>2011-09-24T10:19:24Z</time>
      </trkpt>
      <trkpt lat="42.56844" lon="2.06195">
        <ele>2007.92688</ele>
        <time>2011-09-24T10:19:25Z</time>
      </trkpt>
      <trkpt lat="42.56845" lon="2.06203">
        <ele>2006.653687</ele>
        <time>2011-09-24T10:19:26Z</time>
      </trkpt>
      <trkpt lat="42.56847" lon="2.06209">
        <ele>2005.50061</ele>
        <time>2011-09-24T10:19:27Z</time>
      </trkpt>
      <trkpt lat="42.56849" lon="2.06215">
        <ele>2004.375854</ele>
        <time>2011-09-24T10:19:28Z</time>
      </trkpt>
      <trkpt lat="42.56847" lon="2.06226">
        <ele>2002.125366</ele>
        <time>2011-09-24T10:19:30Z</time>
      </trkpt>
      <trkpt lat="42.56843" lon="2.06234">
        <ele>1999.999878</ele>
        <time>2011-09-24T10:19:32Z</time>
      </trkpt>
      <trkpt lat="42.56843" lon="2.06241">
        <ele>1999.14563</ele>
        <time>2011-09-24T10:19:33Z</time>
      </trkpt>
      <trkpt lat="42.56841" lon="2.06248">
        <ele>1998.320435</ele>
        <time>2011-09-24T10:19:34Z</time>
      </trkpt>
      <trkpt lat="42.56839" lon="2.06255">
        <ele>1997.501099</ele>
        <time>2011-09-24T10:19:35Z</time>
      </trkpt>
      <trkpt lat="42.56837" lon="2.06261">
        <ele>1996.567871</ele>
        <time>2011-09-24T10:19:37Z</time>
      </trkpt>
      <trkpt lat="42.56834" lon="2.06267">
        <ele>1995.577515</ele>
        <time>2011-09-24T10:19:37Z</time>
      </trkpt>
      <trkpt lat="42.5683" lon="2.06277">
        <ele>1993.492432</ele>
        <time>2011-09-24T10:19:39Z</time>
      </trkpt>
      <trkpt lat="42.56833" lon="2.06282">
        <ele>1993.218018</ele>
        <time>2011-09-24T10:19:41Z</time>
      </trkpt>
      <trkpt lat="42.56837" lon="2.06289">
        <ele>1991.305664</ele>
        <time>2011-09-24T10:19:43Z</time>
      </trkpt>
      <trkpt lat="42.56837" lon="2.06296">
        <ele>1990.932251</ele>
        <time>2011-09-24T10:19:45Z</time>
      </trkpt>
      <trkpt lat="42.56837" lon="2.06302">
        <ele>1990.51001</ele>
        <time>2011-09-24T10:19:47Z</time>
      </trkpt>
      <trkpt lat="42.56839" lon="2.06307">
        <ele>1989.981079</ele>
        <time>2011-09-24T10:19:49Z</time>
      </trkpt>
      <trkpt lat="42.56836" lon="2.06314">
        <ele>1984.154663</ele>
        <time>2011-09-24T10:19:51Z</time>
      </trkpt>
      <trkpt lat="42.56829" lon="2.06313">
        <ele>1981.207642</ele>
        <time>2011-09-24T10:19:52Z</time>
      </trkpt>
      <trkpt lat="42.56824" lon="2.06314">
        <ele>1978.630615</ele>
        <time>2011-09-24T10:19:53Z</time>
      </trkpt>
      <trkpt lat="42.56818" lon="2.06312">
        <ele>1976.050903</ele>
        <time>2011-09-24T10:19:54Z</time>
      </trkpt>
      <trkpt lat="42.56812" lon="2.06313">
        <ele>1973.69519</ele>
        <time>2011-09-24T10:19:55Z</time>
      </trkpt>
      <trkpt lat="42.56807" lon="2.06315">
        <ele>1971.541748</ele>
        <time>2011-09-24T10:19:56Z</time>
      </trkpt>
      <trkpt lat="42.56802" lon="2.06318">
        <ele>1969.512329</ele>
        <time>2011-09-24T10:19:57Z</time>
      </trkpt>
      <trkpt lat="42.56796" lon="2.06326">
        <ele>1969.11792</ele>
        <time>2011-09-24T10:19:59Z</time>
      </trkpt>
      <trkpt lat="42.56796" lon="2.06332">
        <ele>1966.908569</ele>
        <time>2011-09-24T10:20:00Z</time>
      </trkpt>
      <trkpt lat="42.56795" lon="2.0634">
        <ele>1965.105103</ele>
        <time>2011-09-24T10:20:01Z</time>
      </trkpt>
      <trkpt lat="42.56795" lon="2.06347">
        <ele>1963.581055</ele>
        <time>2011-09-24T10:20:02Z</time>
      </trkpt>
      <trkpt lat="42.56795" lon="2.06354">
        <ele>1962.273193</ele>
        <time>2011-09-24T10:20:03Z</time>
      </trkpt>
      <trkpt lat="42.56795" lon="2.06362">
        <ele>1960.999878</ele>
        <time>2011-09-24T10:20:04Z</time>
      </trkpt>
      <trkpt lat="42.56796" lon="2.0637">
        <ele>1959.784424</ele>
        <time>2011-09-24T10:20:06Z</time>
      </trkpt>
      <trkpt lat="42.56795" lon="2.06377">
        <ele>1959.489014</ele>
        <time>2011-09-24T10:20:08Z</time>
      </trkpt>
      <trkpt lat="42.56794" lon="2.06388">
        <ele>1957.692261</ele>
        <time>2011-09-24T10:20:10Z</time>
      </trkpt>
      <trkpt lat="42.56796" lon="2.06396">
        <ele>1955.925171</ele>
        <time>2011-09-24T10:20:11Z</time>
      </trkpt>
      <trkpt lat="42.56798" lon="2.06404">
        <ele>1954.153442</ele>
        <time>2011-09-24T10:20:12Z</time>
      </trkpt>
      <trkpt lat="42.56797" lon="2.06412">
        <ele>1953.82373</ele>
        <time>2011-09-24T10:20:14Z</time>
      </trkpt>
      <trkpt lat="42.56791" lon="2.06416">
        <ele>1951.77356</ele>
        <time>2011-09-24T10:20:16Z</time>
      </trkpt>
      <trkpt lat="42.56782" lon="2.06414">
        <ele>1950.122437</ele>
        <time>2011-09-24T10:20:18Z</time>
      </trkpt>
      <trkpt lat="42.56776" lon="2.06419">
        <ele>1948.622192</ele>
        <time>2011-09-24T10:20:20Z</time>
      </trkpt>
      <trkpt lat="42.56772" lon="2.06428">
        <ele>1946.080566</ele>
        <time>2011-09-24T10:20:22Z</time>
      </trkpt>
      <trkpt lat="42.56766" lon="2.0643">
        <ele>1945.820312</ele>
        <time>2011-09-24T10:20:24Z</time>
      </trkpt>
      <trkpt lat="42.56761" lon="2.06433">
        <ele>1945.543335</ele>
        <time>2011-09-24T10:20:26Z</time>
      </trkpt>
      <trkpt lat="42.56756" lon="2.0644">
        <ele>1945.229858</ele>
        <time>2011-09-24T10:20:28Z</time>
      </trkpt>
      <trkpt lat="42.56752" lon="2.06448">
        <ele>1944.75</ele>
        <time>2011-09-24T10:20:30Z</time>
      </trkpt>
      <trkpt lat="42.56747" lon="2.06451">
        <ele>1944.122314</ele>
        <time>2011-09-24T10:20:32Z</time>
      </trkpt>
      <trkpt lat="42.56741" lon="2.06448">
        <ele>1940.108276</ele>
        <time>2011-09-24T10:20:33Z</time>
      </trkpt>
      <trkpt lat="42.56734" lon="2.06443">
        <ele>1936.2771</ele>
        <time>2011-09-24T10:20:34Z</time>
      </trkpt>
      <trkpt lat="42.56727" lon="2.06441">
        <ele>1932.676758</ele>
        <time>2011-09-24T10:20:35Z</time>
      </trkpt>
      <trkpt lat="42.56721" lon="2.06444">
        <ele>1932.005981</ele>
        <time>2011-09-24T10:20:37Z</time>
      </trkpt>
      <trkpt lat="42.56714" lon="2.06446">
        <ele>1928.636475</ele>
        <time>2011-09-24T10:21:11Z</time>
      </trkpt>
      <trkpt lat="42.56706" lon="2.0645">
        <ele>1923.025269</ele>
        <time>2011-09-24T10:21:13Z</time>
      </trkpt>
      <trkpt lat="42.567" lon="2.06455">
        <ele>1918.659668</ele>
        <time>2011-09-24T10:21:14Z</time>
      </trkpt>
      <trkpt lat="42.56694" lon="2.06462">
        <ele>1914.945801</ele>
        <time>2011-09-24T10:21:15Z</time>
      </trkpt>
      <trkpt lat="42.56689" lon="2.0647">
        <ele>1912.111572</ele>
        <time>2011-09-24T10:21:16Z</time>
      </trkpt>
      <trkpt lat="42.56683" lon="2.06478">
        <ele>1910.259399</ele>
        <time>2011-09-24T10:21:17Z</time>
      </trkpt>
      <trkpt lat="42.56678" lon="2.06482">
        <ele>1908.616943</ele>
        <time>2011-09-24T10:21:18Z</time>
      </trkpt>
      <trkpt lat="42.56673" lon="2.0649">
        <ele>1907.687378</ele>
        <time>2011-09-24T10:21:23Z</time>
      </trkpt>
      <trkpt lat="42.56666" lon="2.06485">
        <ele>1906.511353</ele>
        <time>2011-09-24T10:21:28Z</time>
      </trkpt>
      <trkpt lat="42.56661" lon="2.06482">
        <ele>1906.061035</ele>
        <time>2011-09-24T10:21:30Z</time>
      </trkpt>
      <trkpt lat="42.56655" lon="2.06488">
        <ele>1905.307495</ele>
        <time>2011-09-24T10:21:33Z</time>
      </trkpt>
      <trkpt lat="42.56654" lon="2.06499">
        <ele>1902.170776</ele>
        <time>2011-09-24T10:21:35Z</time>
      </trkpt>
      <trkpt lat="42.56651" lon="2.06505">
        <ele>1899.735962</ele>
        <time>2011-09-24T10:21:36Z</time>
      </trkpt>
      <trkpt lat="42.56647" lon="2.0651">
        <ele>1897.684082</ele>
        <time>2011-09-24T10:21:37Z</time>
      </trkpt>
      <trkpt lat="42.56643" lon="2.06515">
        <ele>1895.802612</ele>
        <time>2011-09-24T10:21:38Z</time>
      </trkpt>
      <trkpt lat="42.5664" lon="2.06521">
        <ele>1894.216064</ele>
        <time>2011-09-24T10:21:39Z</time>
      </trkpt>
      <trkpt lat="42.56635" lon="2.06528">
        <ele>1893.921387</ele>
        <time>2011-09-24T10:21:41Z</time>
      </trkpt>
      <trkpt lat="42.56633" lon="2.06537">
        <ele>1893.593994</ele>
        <time>2011-09-24T10:21:43Z</time>
      </trkpt>
      <trkpt lat="42.56634" lon="2.06547">
        <ele>1893.214478</ele>
        <time>2011-09-24T10:21:45Z</time>
      </trkpt>
      <trkpt lat="42.56632" lon="2.06553">
        <ele>1893.003906</ele>
        <time>2011-09-24T10:21:46Z</time>
      </trkpt>
      <trkpt lat="42.56628" lon="2.06563">
        <ele>1892.552979</ele>
        <time>2011-09-24T10:21:48Z</time>
      </trkpt>
      <trkpt lat="42.56626" lon="2.06576">
        <ele>1889.834229</ele>
        <time>2011-09-24T10:21:50Z</time>
      </trkpt>
      <trkpt lat="42.56627" lon="2.06584">
        <ele>1887.791748</ele>
        <time>2011-09-24T10:21:51Z</time>
      </trkpt>
      <trkpt lat="42.56628" lon="2.06593">
        <ele>1886.181396</ele>
        <time>2011-09-24T10:21:52Z</time>
      </trkpt>
      <trkpt lat="42.56631" lon="2.06601">
        <ele>1884.681274</ele>
        <time>2011-09-24T10:21:53Z</time>
      </trkpt>
      <trkpt lat="42.56632" lon="2.06611">
        <ele>1884.429443</ele>
        <time>2011-09-24T10:21:55Z</time>
      </trkpt>
      <trkpt lat="42.5663" lon="2.0662">
        <ele>1882.941162</ele>
        <time>2011-09-24T10:21:57Z</time>
      </trkpt>
      <trkpt lat="42.56627" lon="2.06629">
        <ele>1880.919922</ele>
        <time>2011-09-24T10:21:58Z</time>
      </trkpt>
      <trkpt lat="42.56621" lon="2.06639">
        <ele>1878.484619</ele>
        <time>2011-09-24T10:21:59Z</time>
      </trkpt>
      <trkpt lat="42.56614" lon="2.0665">
        <ele>1875.835083</ele>
        <time>2011-09-24T10:22:00Z</time>
      </trkpt>
      <trkpt lat="42.56604" lon="2.0666">
        <ele>1872.742432</ele>
        <time>2011-09-24T10:22:01Z</time>
      </trkpt>
      <trkpt lat="42.56593" lon="2.06668">
        <ele>1869.411011</ele>
        <time>2011-09-24T10:22:02Z</time>
      </trkpt>
      <trkpt lat="42.56582" lon="2.06675">
        <ele>1866.033936</ele>
        <time>2011-09-24T10:22:03Z</time>
      </trkpt>
      <trkpt lat="42.56571" lon="2.06682">
        <ele>1862.806274</ele>
        <time>2011-09-24T10:22:04Z</time>
      </trkpt>
      <trkpt lat="42.56562" lon="2.06688">
        <ele>1859.864136</ele>
        <time>2011-09-24T10:22:05Z</time>
      </trkpt>
      <trkpt lat="42.56553" lon="2.06694">
        <ele>1857.243896</ele>
        <time>2011-09-24T10:22:06Z</time>
      </trkpt>
      <trkpt lat="42.56544" lon="2.06699">
        <ele>1854.909424</ele>
        <time>2011-09-24T10:22:07Z</time>
      </trkpt>
      <trkpt lat="42.56536" lon="2.06704">
        <ele>1852.834961</ele>
        <time>2011-09-24T10:22:08Z</time>
      </trkpt>
      <trkpt lat="42.56532" lon="2.0671">
        <ele>1851.140259</ele>
        <time>2011-09-24T10:22:09Z</time>
      </trkpt>
      <trkpt lat="42.56531" lon="2.06717">
        <ele>1849.674805</ele>
        <time>2011-09-24T10:22:10Z</time>
      </trkpt>
      <trkpt lat="42.56532" lon="2.06724">
        <ele>1848.293823</ele>
        <time>2011-09-24T10:22:11Z</time>
      </trkpt>
      <trkpt lat="42.56534" lon="2.06731">
        <ele>1847.223145</ele>
        <time>2011-09-24T10:22:12Z</time>
      </trkpt>
      <trkpt lat="42.56536" lon="2.06739">
        <ele>1846.357422</ele>
        <time>2011-09-24T10:22:13Z</time>
      </trkpt>
      <trkpt lat="42.56539" lon="2.06747">
        <ele>1846.357422</ele>
        <time>2011-09-24T10:22:14Z</time>
      </trkpt>
      <trkpt lat="42.56544" lon="2.06757">
        <ele>1845.667358</ele>
        <time>2011-09-24T10:22:15Z</time>
      </trkpt>
      <trkpt lat="42.56548" lon="2.06766">
        <ele>1844.383179</ele>
        <time>2011-09-24T10:22:16Z</time>
      </trkpt>
      <trkpt lat="42.56552" lon="2.06774">
        <ele>1843.206909</ele>
        <time>2011-09-24T10:22:17Z</time>
      </trkpt>
      <trkpt lat="42.56557" lon="2.06782">
        <ele>1842.125122</ele>
        <time>2011-09-24T10:22:18Z</time>
      </trkpt>
      <trkpt lat="42.5656" lon="2.0679">
        <ele>1841.114746</ele>
        <time>2011-09-24T10:22:19Z</time>
      </trkpt>
      <trkpt lat="42.56558" lon="2.06798">
        <ele>1840.103638</ele>
        <time>2011-09-24T10:22:20Z</time>
      </trkpt>
      <trkpt lat="42.56555" lon="2.06805">
        <ele>1839.123291</ele>
        <time>2011-09-24T10:22:21Z</time>
      </trkpt>
      <trkpt lat="42.56551" lon="2.06811">
        <ele>1837.864258</ele>
        <time>2011-09-24T10:22:22Z</time>
      </trkpt>
      <trkpt lat="42.56547" lon="2.06821">
        <ele>1835.109131</ele>
        <time>2011-09-24T10:22:24Z</time>
      </trkpt>
      <trkpt lat="42.56544" lon="2.06827">
        <ele>1833.800903</ele>
        <time>2011-09-24T10:22:25Z</time>
      </trkpt>
      <trkpt lat="42.56541" lon="2.06832">
        <ele>1832.552124</ele>
        <time>2011-09-24T10:22:26Z</time>
      </trkpt>
      <trkpt lat="42.56539" lon="2.06837">
        <ele>1831.483276</ele>
        <time>2011-09-24T10:22:27Z</time>
      </trkpt>
      <trkpt lat="42.56534" lon="2.0684">
        <ele>1830.24231</ele>
        <time>2011-09-24T10:22:28Z</time>
      </trkpt>
      <trkpt lat="42.56531" lon="2.06844">
        <ele>1829.188721</ele>
        <time>2011-09-24T10:22:29Z</time>
      </trkpt>
      <trkpt lat="42.56527" lon="2.06848">
        <ele>1828.008301</ele>
        <time>2011-09-24T10:22:30Z</time>
      </trkpt>
      <trkpt lat="42.5652" lon="2.06855">
        <ele>1826.098145</ele>
        <time>2011-09-24T10:22:32Z</time>
      </trkpt>
      <trkpt lat="42.56516" lon="2.06858">
        <ele>1825.325562</ele>
        <time>2011-09-24T10:22:33Z</time>
      </trkpt>
      <trkpt lat="42.56511" lon="2.06861">
        <ele>1824.682983</ele>
        <time>2011-09-24T10:22:34Z</time>
      </trkpt>
      <trkpt lat="42.56507" lon="2.06864">
        <ele>1824.127197</ele>
        <time>2011-09-24T10:22:35Z</time>
      </trkpt>
      <trkpt lat="42.56503" lon="2.06868">
        <ele>1823.09021</ele>
        <time>2011-09-24T10:22:36Z</time>
      </trkpt>
      <trkpt lat="42.56499" lon="2.06871">
        <ele>1822.958008</ele>
        <time>2011-09-24T10:22:37Z</time>
      </trkpt>
      <trkpt lat="42.56493" lon="2.0688">
        <ele>1822.593506</ele>
        <time>2011-09-24T10:22:39Z</time>
      </trkpt>
      <trkpt lat="42.56491" lon="2.06891">
        <ele>1822.155762</ele>
        <time>2011-09-24T10:22:41Z</time>
      </trkpt>
      <trkpt lat="42.56492" lon="2.06902">
        <ele>1821.646362</ele>
        <time>2011-09-24T10:22:43Z</time>
      </trkpt>
      <trkpt lat="42.56498" lon="2.06909">
        <ele>1816.549927</ele>
        <time>2011-09-24T10:22:45Z</time>
      </trkpt>
      <trkpt lat="42.56506" lon="2.06913">
        <ele>1813.027588</ele>
        <time>2011-09-24T10:22:47Z</time>
      </trkpt>
      <trkpt lat="42.56513" lon="2.06917">
        <ele>1810.627197</ele>
        <time>2011-09-24T10:22:49Z</time>
      </trkpt>
      <trkpt lat="42.56521" lon="2.0692">
        <ele>1808.818237</ele>
        <time>2011-09-24T10:22:51Z</time>
      </trkpt>
      <trkpt lat="42.56529" lon="2.06925">
        <ele>1807.419312</ele>
        <time>2011-09-24T10:22:53Z</time>
      </trkpt>
      <trkpt lat="42.56532" lon="2.06931">
        <ele>1806.899902</ele>
        <time>2011-09-24T10:22:54Z</time>
      </trkpt>
      <trkpt lat="42.56535" lon="2.06937">
        <ele>1806.485596</ele>
        <time>2011-09-24T10:22:55Z</time>
      </trkpt>
      <trkpt lat="42.56538" lon="2.06942">
        <ele>1806.156494</ele>
        <time>2011-09-24T10:22:56Z</time>
      </trkpt>
      <trkpt lat="42.56542" lon="2.06946">
        <ele>1805.914551</ele>
        <time>2011-09-24T10:22:57Z</time>
      </trkpt>
      <trkpt lat="42.56547" lon="2.06951">
        <ele>1805.697266</ele>
        <time>2011-09-24T10:22:58Z</time>
      </trkpt>
      <trkpt lat="42.56551" lon="2.06955">
        <ele>1805.335693</ele>
        <time>2011-09-24T10:22:59Z</time>
      </trkpt>
      <trkpt lat="42.56556" lon="2.06958">
        <ele>1805.232788</ele>
        <time>2011-09-24T10:23:01Z</time>
      </trkpt>
      <trkpt lat="42.56561" lon="2.06962">
        <ele>1805.071899</ele>
        <time>2011-09-24T10:23:03Z</time>
      </trkpt>
      <trkpt lat="42.56566" lon="2.06966">
        <ele>1804.894653</ele>
        <time>2011-09-24T10:23:05Z</time>
      </trkpt>
      <trkpt lat="42.56573" lon="2.06966">
        <ele>1804.638306</ele>
        <time>2011-09-24T10:23:07Z</time>
      </trkpt>
      <trkpt lat="42.56578" lon="2.06964">
        <ele>1804.036133</ele>
        <time>2011-09-24T10:23:15Z</time>
      </trkpt>
      <trkpt lat="42.56583" lon="2.06964">
        <ele>1803.457642</ele>
        <time>2011-09-24T10:23:17Z</time>
      </trkpt>
      <trkpt lat="42.56589" lon="2.06967">
        <ele>1802.828247</ele>
        <time>2011-09-24T10:23:19Z</time>
      </trkpt>
      <trkpt lat="42.56598" lon="2.06971">
        <ele>1799.444824</ele>
        <time>2011-09-24T10:23:21Z</time>
      </trkpt>
      <trkpt lat="42.56602" lon="2.06972">
        <ele>1796.96167</ele>
        <time>2011-09-24T10:23:22Z</time>
      </trkpt>
      <trkpt lat="42.56607" lon="2.06974">
        <ele>1794.756226</ele>
        <time>2011-09-24T10:23:23Z</time>
      </trkpt>
      <trkpt lat="42.56611" lon="2.06976">
        <ele>1792.827148</ele>
        <time>2011-09-24T10:23:24Z</time>
      </trkpt>
      <trkpt lat="42.56616" lon="2.06977">
        <ele>1791.418213</ele>
        <time>2011-09-24T10:23:25Z</time>
      </trkpt>
      <trkpt lat="42.56621" lon="2.06979">
        <ele>1790.503052</ele>
        <time>2011-09-24T10:23:26Z</time>
      </trkpt>
      <trkpt lat="42.56626" lon="2.0698">
        <ele>1789.646484</ele>
        <time>2011-09-24T10:23:27Z</time>
      </trkpt>
      <trkpt lat="42.56634" lon="2.06982">
        <ele>1788.828003</ele>
        <time>2011-09-24T10:23:28Z</time>
      </trkpt>
      <trkpt lat="42.56641" lon="2.06985">
        <ele>1788.313232</ele>
        <time>2011-09-24T10:23:29Z</time>
      </trkpt>
      <trkpt lat="42.56648" lon="2.06986">
        <ele>1788.08252</ele>
        <time>2011-09-24T10:23:30Z</time>
      </trkpt>
      <trkpt lat="42.56654" lon="2.06988">
        <ele>1787.743164</ele>
        <time>2011-09-24T10:23:31Z</time>
      </trkpt>
      <trkpt lat="42.5666" lon="2.06986">
        <ele>1787.443237</ele>
        <time>2011-09-24T10:23:32Z</time>
      </trkpt>
      <trkpt lat="42.56664" lon="2.06985">
        <ele>1787.163208</ele>
        <time>2011-09-24T10:23:33Z</time>
      </trkpt>
      <trkpt lat="42.56669" lon="2.06984">
        <ele>1786.809814</ele>
        <time>2011-09-24T10:23:34Z</time>
      </trkpt>
      <trkpt lat="42.56674" lon="2.06983">
        <ele>1786.249512</ele>
        <time>2011-09-24T10:23:35Z</time>
      </trkpt>
      <trkpt lat="42.56679" lon="2.06984">
        <ele>1785.494263</ele>
        <time>2011-09-24T10:23:36Z</time>
      </trkpt>
      <trkpt lat="42.56683" lon="2.06985">
        <ele>1785.420288</ele>
        <time>2011-09-24T10:23:37Z</time>
      </trkpt>
      <trkpt lat="42.56689" lon="2.06986">
        <ele>1785.338623</ele>
        <time>2011-09-24T10:23:38Z</time>
      </trkpt>
      <trkpt lat="42.56693" lon="2.06987">
        <ele>1785.250366</ele>
        <time>2011-09-24T10:23:39Z</time>
      </trkpt>
      <trkpt lat="42.56698" lon="2.06988">
        <ele>1785.160645</ele>
        <time>2011-09-24T10:23:40Z</time>
      </trkpt>
      <trkpt lat="42.56703" lon="2.06988">
        <ele>1784.276245</ele>
        <time>2011-09-24T10:23:41Z</time>
      </trkpt>
      <trkpt lat="42.56708" lon="2.06987">
        <ele>1783.539551</ele>
        <time>2011-09-24T10:23:42Z</time>
      </trkpt>
      <trkpt lat="42.56713" lon="2.06985">
        <ele>1782.725098</ele>
        <time>2011-09-24T10:23:43Z</time>
      </trkpt>
      <trkpt lat="42.56719" lon="2.06983">
        <ele>1781.895508</ele>
        <time>2011-09-24T10:23:44Z</time>
      </trkpt>
      <trkpt lat="42.56726" lon="2.06981">
        <ele>1780.950073</ele>
        <time>2011-09-24T10:23:45Z</time>
      </trkpt>
      <trkpt lat="42.56732" lon="2.06979">
        <ele>1780.101318</ele>
        <time>2011-09-24T10:23:46Z</time>
      </trkpt>
      <trkpt lat="42.5674" lon="2.06976">
        <ele>1779.243164</ele>
        <time>2011-09-24T10:23:47Z</time>
      </trkpt>
      <trkpt lat="42.56746" lon="2.06974">
        <ele>1778.458374</ele>
        <time>2011-09-24T10:23:48Z</time>
      </trkpt>
      <trkpt lat="42.56753" lon="2.06973">
        <ele>1777.69458</ele>
        <time>2011-09-24T10:23:49Z</time>
      </trkpt>
      <trkpt lat="42.56758" lon="2.0697">
        <ele>1777.015625</ele>
        <time>2011-09-24T10:23:50Z</time>
      </trkpt>
      <trkpt lat="42.56763" lon="2.06967">
        <ele>1776.952393</ele>
        <time>2011-09-24T10:23:51Z</time>
      </trkpt>
      <trkpt lat="42.56768" lon="2.06965">
        <ele>1776.886108</ele>
        <time>2011-09-24T10:23:52Z</time>
      </trkpt>
      <trkpt lat="42.56772" lon="2.06962">
        <ele>1776.810303</ele>
        <time>2011-09-24T10:23:53Z</time>
      </trkpt>
      <trkpt lat="42.5678" lon="2.06957">
        <ele>1776.656982</ele>
        <time>2011-09-24T10:23:55Z</time>
      </trkpt>
      <trkpt lat="42.56789" lon="2.06952">
        <ele>1775.589111</ele>
        <time>2011-09-24T10:23:57Z</time>
      </trkpt>
      <trkpt lat="42.56794" lon="2.06949">
        <ele>1774.812134</ele>
        <time>2011-09-24T10:23:58Z</time>
      </trkpt>
      <trkpt lat="42.568" lon="2.06947">
        <ele>1774.203735</ele>
        <time>2011-09-24T10:23:59Z</time>
      </trkpt>
      <trkpt lat="42.56805" lon="2.06944">
        <ele>1773.598145</ele>
        <time>2011-09-24T10:24:00Z</time>
      </trkpt>
      <trkpt lat="42.5681" lon="2.06941">
        <ele>1773.10437</ele>
        <time>2011-09-24T10:24:01Z</time>
      </trkpt>
      <trkpt lat="42.56816" lon="2.06937">
        <ele>1772.817383</ele>
        <time>2011-09-24T10:24:02Z</time>
      </trkpt>
      <trkpt lat="42.56821" lon="2.06933">
        <ele>1772.631226</ele>
        <time>2011-09-24T10:24:03Z</time>
      </trkpt>
      <trkpt lat="42.56827" lon="2.06929">
        <ele>1772.305786</ele>
        <time>2011-09-24T10:24:04Z</time>
      </trkpt>
      <trkpt lat="42.56833" lon="2.06926">
        <ele>1772.112427</ele>
        <time>2011-09-24T10:24:05Z</time>
      </trkpt>
      <trkpt lat="42.5684" lon="2.06925">
        <ele>1772.016113</ele>
        <time>2011-09-24T10:24:06Z</time>
      </trkpt>
      <trkpt lat="42.56847" lon="2.06926">
        <ele>1771.873047</ele>
        <time>2011-09-24T10:24:07Z</time>
      </trkpt>
      <trkpt lat="42.56855" lon="2.06926">
        <ele>1771.687622</ele>
        <time>2011-09-24T10:24:08Z</time>
      </trkpt>
      <trkpt lat="42.5686" lon="2.06924">
        <ele>1771.589355</ele>
        <time>2011-09-24T10:24:09Z</time>
      </trkpt>
      <trkpt lat="42.56865" lon="2.06922">
        <ele>1771.611572</ele>
        <time>2011-09-24T10:24:10Z</time>
      </trkpt>
      <trkpt lat="42.56872" lon="2.06924">
        <ele>1771.428711</ele>
        <time>2011-09-24T10:24:12Z</time>
      </trkpt>
      <trkpt lat="42.56877" lon="2.06933">
        <ele>1771.508789</ele>
        <time>2011-09-24T10:24:14Z</time>
      </trkpt>
      <trkpt lat="42.56873" lon="2.06941">
        <ele>1771.474854</ele>
        <time>2011-09-24T10:24:15Z</time>
      </trkpt>
      <trkpt lat="42.56876" lon="2.06948">
        <ele>1769.550659</ele>
        <time>2011-09-24T10:24:17Z</time>
      </trkpt>
      <trkpt lat="42.56881" lon="2.0695">
        <ele>1768.524414</ele>
        <time>2011-09-24T10:24:18Z</time>
      </trkpt>
      <trkpt lat="42.56888" lon="2.06951">
        <ele>1767.208862</ele>
        <time>2011-09-24T10:24:19Z</time>
      </trkpt>
      <trkpt lat="42.56897" lon="2.06953">
        <ele>1765.945557</ele>
        <time>2011-09-24T10:24:20Z</time>
      </trkpt>
      <trkpt lat="42.56904" lon="2.06956">
        <ele>1764.734741</ele>
        <time>2011-09-24T10:24:21Z</time>
      </trkpt>
      <trkpt lat="42.56912" lon="2.06956">
        <ele>1763.584961</ele>
        <time>2011-09-24T10:24:22Z</time>
      </trkpt>
      <trkpt lat="42.5692" lon="2.06956">
        <ele>1762.536255</ele>
        <time>2011-09-24T10:24:23Z</time>
      </trkpt>
      <trkpt lat="42.56927" lon="2.06953">
        <ele>1761.487549</ele>
        <time>2011-09-24T10:24:24Z</time>
      </trkpt>
      <trkpt lat="42.56934" lon="2.06949">
        <ele>1760.451782</ele>
        <time>2011-09-24T10:24:25Z</time>
      </trkpt>
      <trkpt lat="42.56941" lon="2.0695">
        <ele>1759.280518</ele>
        <time>2011-09-24T10:24:26Z</time>
      </trkpt>
      <trkpt lat="42.56948" lon="2.0695">
        <ele>1757.994629</ele>
        <time>2011-09-24T10:24:27Z</time>
      </trkpt>
      <trkpt lat="42.56957" lon="2.06948">
        <ele>1756.598999</ele>
        <time>2011-09-24T10:24:28Z</time>
      </trkpt>
      <trkpt lat="42.56966" lon="2.06943">
        <ele>1755.20459</ele>
        <time>2011-09-24T10:24:29Z</time>
      </trkpt>
      <trkpt lat="42.56973" lon="2.06935">
        <ele>1753.845459</ele>
        <time>2011-09-24T10:24:30Z</time>
      </trkpt>
      <trkpt lat="42.5698" lon="2.06927">
        <ele>1752.589111</ele>
        <time>2011-09-24T10:24:31Z</time>
      </trkpt>
      <trkpt lat="42.56985" lon="2.0692">
        <ele>1751.444702</ele>
        <time>2011-09-24T10:24:32Z</time>
      </trkpt>
      <trkpt lat="42.56991" lon="2.06914">
        <ele>1750.428711</ele>
        <time>2011-09-24T10:24:33Z</time>
      </trkpt>
      <trkpt lat="42.56996" lon="2.0691">
        <ele>1749.526733</ele>
        <time>2011-09-24T10:24:34Z</time>
      </trkpt>
      <trkpt lat="42.57002" lon="2.06907">
        <ele>1748.787598</ele>
        <time>2011-09-24T10:24:35Z</time>
      </trkpt>
      <trkpt lat="42.57006" lon="2.06904">
        <ele>1748.144897</ele>
        <time>2011-09-24T10:24:36Z</time>
      </trkpt>
      <trkpt lat="42.57011" lon="2.069">
        <ele>1747.552246</ele>
        <time>2011-09-24T10:24:37Z</time>
      </trkpt>
      <trkpt lat="42.57014" lon="2.06895">
        <ele>1746.986694</ele>
        <time>2011-09-24T10:24:38Z</time>
      </trkpt>
      <trkpt lat="42.57018" lon="2.0689">
        <ele>1746.48999</ele>
        <time>2011-09-24T10:24:39Z</time>
      </trkpt>
      <trkpt lat="42.57022" lon="2.06886">
        <ele>1746.05188</ele>
        <time>2011-09-24T10:24:40Z</time>
      </trkpt>
      <trkpt lat="42.57026" lon="2.06881">
        <ele>1745.967773</ele>
        <time>2011-09-24T10:24:42Z</time>
      </trkpt>
      <trkpt lat="42.5703" lon="2.06876">
        <ele>1745.873169</ele>
        <time>2011-09-24T10:24:44Z</time>
      </trkpt>
      <trkpt lat="42.57036" lon="2.06864">
        <ele>1745.588989</ele>
        <time>2011-09-24T10:24:56Z</time>
      </trkpt>
      <trkpt lat="42.57039" lon="2.06858">
        <ele>1745.521362</ele>
        <time>2011-09-24T10:24:58Z</time>
      </trkpt>
      <trkpt lat="42.57043" lon="2.06853">
        <ele>1745.429443</ele>
        <time>2011-09-24T10:25:00Z</time>
      </trkpt>
      <trkpt lat="42.57052" lon="2.0685">
        <ele>1744.539673</ele>
        <time>2011-09-24T10:25:02Z</time>
      </trkpt>
      <trkpt lat="42.57059" lon="2.06847">
        <ele>1743.891968</ele>
        <time>2011-09-24T10:25:03Z</time>
      </trkpt>
      <trkpt lat="42.57067" lon="2.06844">
        <ele>1743.324707</ele>
        <time>2011-09-24T10:25:04Z</time>
      </trkpt>
      <trkpt lat="42.57076" lon="2.0684">
        <ele>1742.818359</ele>
        <time>2011-09-24T10:25:05Z</time>
      </trkpt>
      <trkpt lat="42.57085" lon="2.06838">
        <ele>1742.38269</ele>
        <time>2011-09-24T10:25:06Z</time>
      </trkpt>
      <trkpt lat="42.57094" lon="2.0684">
        <ele>1742.00647</ele>
        <time>2011-09-24T10:25:07Z</time>
      </trkpt>
      <trkpt lat="42.57102" lon="2.06842">
        <ele>1741.58606</ele>
        <time>2011-09-24T10:25:08Z</time>
      </trkpt>
      <trkpt lat="42.57111" lon="2.06844">
        <ele>1741.010498</ele>
        <time>2011-09-24T10:25:09Z</time>
      </trkpt>
      <trkpt lat="42.5712" lon="2.06846">
        <ele>1740.494507</ele>
        <time>2011-09-24T10:25:10Z</time>
      </trkpt>
      <trkpt lat="42.57129" lon="2.06847">
        <ele>1739.993774</ele>
        <time>2011-09-24T10:25:11Z</time>
      </trkpt>
      <trkpt lat="42.5714" lon="2.06847">
        <ele>1739.611572</ele>
        <time>2011-09-24T10:25:12Z</time>
      </trkpt>
      <trkpt lat="42.5715" lon="2.06847">
        <ele>1739.221069</ele>
        <time>2011-09-24T10:25:13Z</time>
      </trkpt>
      <trkpt lat="42.57159" lon="2.06847">
        <ele>1738.744873</ele>
        <time>2011-09-24T10:25:14Z</time>
      </trkpt>
      <trkpt lat="42.57167" lon="2.06846">
        <ele>1738.288574</ele>
        <time>2011-09-24T10:25:15Z</time>
      </trkpt>
      <trkpt lat="42.57174" lon="2.06846">
        <ele>1737.985229</ele>
        <time>2011-09-24T10:25:16Z</time>
      </trkpt>
      <trkpt lat="42.57181" lon="2.06845">
        <ele>1737.793945</ele>
        <time>2011-09-24T10:25:17Z</time>
      </trkpt>
      <trkpt lat="42.57187" lon="2.06844">
        <ele>1737.665039</ele>
        <time>2011-09-24T10:25:18Z</time>
      </trkpt>
      <trkpt lat="42.57194" lon="2.06843">
        <ele>1737.572876</ele>
        <time>2011-09-24T10:25:19Z</time>
      </trkpt>
      <trkpt lat="42.57201" lon="2.06841">
        <ele>1737.464355</ele>
        <time>2011-09-24T10:25:20Z</time>
      </trkpt>
      <trkpt lat="42.57208" lon="2.06839">
        <ele>1737.334839</ele>
        <time>2011-09-24T10:25:21Z</time>
      </trkpt>
      <trkpt lat="42.57216" lon="2.06836">
        <ele>1737.048096</ele>
        <time>2011-09-24T10:25:22Z</time>
      </trkpt>
      <trkpt lat="42.57225" lon="2.06832">
        <ele>1736.594482</ele>
        <time>2011-09-24T10:25:23Z</time>
      </trkpt>
      <trkpt lat="42.57235" lon="2.0683">
        <ele>1736.025146</ele>
        <time>2011-09-24T10:25:24Z</time>
      </trkpt>
      <trkpt lat="42.57245" lon="2.06828">
        <ele>1735.138062</ele>
        <time>2011-09-24T10:25:25Z</time>
      </trkpt>
      <trkpt lat="42.57255" lon="2.06827">
        <ele>1734.042114</ele>
        <time>2011-09-24T10:25:26Z</time>
      </trkpt>
      <trkpt lat="42.57265" lon="2.06824">
        <ele>1732.812012</ele>
        <time>2011-09-24T10:25:27Z</time>
      </trkpt>
      <trkpt lat="42.57276" lon="2.06821">
        <ele>1731.376587</ele>
        <time>2011-09-24T10:25:28Z</time>
      </trkpt>
      <trkpt lat="42.57286" lon="2.06819">
        <ele>1730.03064</ele>
        <time>2011-09-24T10:25:29Z</time>
      </trkpt>
      <trkpt lat="42.57296" lon="2.06815">
        <ele>1728.859985</ele>
        <time>2011-09-24T10:25:30Z</time>
      </trkpt>
      <trkpt lat="42.57305" lon="2.06808">
        <ele>1727.950195</ele>
        <time>2011-09-24T10:25:31Z</time>
      </trkpt>
      <trkpt lat="42.57313" lon="2.06802">
        <ele>1727.389893</ele>
        <time>2011-09-24T10:25:32Z</time>
      </trkpt>
      <trkpt lat="42.5732" lon="2.068">
        <ele>1727.202271</ele>
        <time>2011-09-24T10:25:33Z</time>
      </trkpt>
      <trkpt lat="42.57327" lon="2.06798">
        <ele>1727.066528</ele>
        <time>2011-09-24T10:25:34Z</time>
      </trkpt>
      <trkpt lat="42.57334" lon="2.06796">
        <ele>1727.025635</ele>
        <time>2011-09-24T10:25:35Z</time>
      </trkpt>
      <trkpt lat="42.5734" lon="2.06795">
        <ele>1726.95459</ele>
        <time>2011-09-24T10:25:36Z</time>
      </trkpt>
      <trkpt lat="42.57346" lon="2.06794">
        <ele>1726.906494</ele>
        <time>2011-09-24T10:25:37Z</time>
      </trkpt>
      <trkpt lat="42.57353" lon="2.06793">
        <ele>1726.800781</ele>
        <time>2011-09-24T10:25:38Z</time>
      </trkpt>
      <trkpt lat="42.5736" lon="2.06793">
        <ele>1726.518677</ele>
        <time>2011-09-24T10:25:39Z</time>
      </trkpt>
      <trkpt lat="42.57367" lon="2.06793">
        <ele>1726.283203</ele>
        <time>2011-09-24T10:25:40Z</time>
      </trkpt>
      <trkpt lat="42.57374" lon="2.06793">
        <ele>1726.128418</ele>
        <time>2011-09-24T10:25:41Z</time>
      </trkpt>
      <trkpt lat="42.57381" lon="2.06793">
        <ele>1725.940186</ele>
        <time>2011-09-24T10:25:42Z</time>
      </trkpt>
      <trkpt lat="42.57387" lon="2.06794">
        <ele>1725.692505</ele>
        <time>2011-09-24T10:25:43Z</time>
      </trkpt>
      <trkpt lat="42.57393" lon="2.06794">
        <ele>1725.368896</ele>
        <time>2011-09-24T10:25:44Z</time>
      </trkpt>
      <trkpt lat="42.57401" lon="2.06795">
        <ele>1724.987061</ele>
        <time>2011-09-24T10:25:45Z</time>
      </trkpt>
      <trkpt lat="42.5741" lon="2.06796">
        <ele>1724.499512</ele>
        <time>2011-09-24T10:25:46Z</time>
      </trkpt>
      <trkpt lat="42.57418" lon="2.06797">
        <ele>1724.068115</ele>
        <time>2011-09-24T10:25:47Z</time>
      </trkpt>
      <trkpt lat="42.57427" lon="2.06796">
        <ele>1723.672852</ele>
        <time>2011-09-24T10:25:48Z</time>
      </trkpt>
      <trkpt lat="42.57435" lon="2.06792">
        <ele>1723.214966</ele>
        <time>2011-09-24T10:25:49Z</time>
      </trkpt>
      <trkpt lat="42.57443" lon="2.06787">
        <ele>1722.807251</ele>
        <time>2011-09-24T10:25:50Z</time>
      </trkpt>
      <trkpt lat="42.57452" lon="2.06782">
        <ele>1722.380493</ele>
        <time>2011-09-24T10:25:51Z</time>
      </trkpt>
      <trkpt lat="42.5746" lon="2.06775">
        <ele>1722.062744</ele>
        <time>2011-09-24T10:25:52Z</time>
      </trkpt>
      <trkpt lat="42.5747" lon="2.06772">
        <ele>1721.802856</ele>
        <time>2011-09-24T10:25:53Z</time>
      </trkpt>
      <trkpt lat="42.57479" lon="2.06771">
        <ele>1721.601318</ele>
        <time>2011-09-24T10:25:54Z</time>
      </trkpt>
      <trkpt lat="42.57489" lon="2.06772">
        <ele>1721.383301</ele>
        <time>2011-09-24T10:25:55Z</time>
      </trkpt>
      <trkpt lat="42.57499" lon="2.06772">
        <ele>1721.165405</ele>
        <time>2011-09-24T10:25:56Z</time>
      </trkpt>
      <trkpt lat="42.57509" lon="2.06772">
        <ele>1720.957275</ele>
        <time>2011-09-24T10:25:57Z</time>
      </trkpt>
      <trkpt lat="42.57519" lon="2.06773">
        <ele>1720.650635</ele>
        <time>2011-09-24T10:25:58Z</time>
      </trkpt>
      <trkpt lat="42.57527" lon="2.06777">
        <ele>1720.432739</ele>
        <time>2011-09-24T10:25:59Z</time>
      </trkpt>
      <trkpt lat="42.57536" lon="2.06781">
        <ele>1720.253418</ele>
        <time>2011-09-24T10:26:00Z</time>
      </trkpt>
      <trkpt lat="42.57544" lon="2.06787">
        <ele>1719.939087</ele>
        <time>2011-09-24T10:26:01Z</time>
      </trkpt>
      <trkpt lat="42.57549" lon="2.06792">
        <ele>1719.531616</ele>
        <time>2011-09-24T10:26:02Z</time>
      </trkpt>
      <trkpt lat="42.57551" lon="2.06798">
        <ele>1719.113647</ele>
        <time>2011-09-24T10:26:03Z</time>
      </trkpt>
      <trkpt lat="42.57551" lon="2.06811">
        <ele>1718.108276</ele>
        <time>2011-09-24T10:26:05Z</time>
      </trkpt>
      <trkpt lat="42.57546" lon="2.06816">
        <ele>1715.570679</ele>
        <time>2011-09-24T10:26:06Z</time>
      </trkpt>
      <trkpt lat="42.57539" lon="2.06822">
        <ele>1711.563477</ele>
        <time>2011-09-24T10:26:07Z</time>
      </trkpt>
      <trkpt lat="42.57532" lon="2.06826">
        <ele>1706.794312</ele>
        <time>2011-09-24T10:26:08Z</time>
      </trkpt>
      <trkpt lat="42.57524" lon="2.06833">
        <ele>1702.041016</ele>
        <time>2011-09-24T10:26:09Z</time>
      </trkpt>
      <trkpt lat="42.57517" lon="2.06842">
        <ele>1697.417969</ele>
        <time>2011-09-24T10:26:10Z</time>
      </trkpt>
      <trkpt lat="42.57512" lon="2.06854">
        <ele>1693.099976</ele>
        <time>2011-09-24T10:26:11Z</time>
      </trkpt>
      <trkpt lat="42.57508" lon="2.06868">
        <ele>1689.153076</ele>
        <time>2011-09-24T10:26:12Z</time>
      </trkpt>
      <trkpt lat="42.57505" lon="2.06881">
        <ele>1685.634399</ele>
        <time>2011-09-24T10:26:13Z</time>
      </trkpt>
      <trkpt lat="42.57503" lon="2.0689">
        <ele>1682.608276</ele>
        <time>2011-09-24T10:26:14Z</time>
      </trkpt>
      <trkpt lat="42.57502" lon="2.06897">
        <ele>1679.991089</ele>
        <time>2011-09-24T10:26:15Z</time>
      </trkpt>
      <trkpt lat="42.575" lon="2.06906">
        <ele>1677.531738</ele>
        <time>2011-09-24T10:26:17Z</time>
      </trkpt>
      <trkpt lat="42.57497" lon="2.06915">
        <ele>1675.677979</ele>
        <time>2011-09-24T10:26:44Z</time>
      </trkpt>
      <trkpt lat="42.57491" lon="2.06924">
        <ele>1672.842163</ele>
        <time>2011-09-24T10:26:56Z</time>
      </trkpt>
      <trkpt lat="42.57481" lon="2.06927">
        <ele>1671.338135</ele>
        <time>2011-09-24T10:27:03Z</time>
      </trkpt>
      <trkpt lat="42.57475" lon="2.06923">
        <ele>1664.011353</ele>
        <time>2011-09-24T10:28:32Z</time>
      </trkpt>
      <trkpt lat="42.57479" lon="2.06931">
        <ele>1656.262817</ele>
        <time>2011-09-24T10:29:15Z</time>
      </trkpt>
      <trkpt lat="42.57479" lon="2.06931">
        <ele>1656.180298</ele>
        <time>2011-09-24T10:29:17Z</time>
      </trkpt>
      <trkpt lat="42.57476" lon="2.06926">
        <ele>1655.650513</ele>
        <time>2011-09-24T10:29:24Z</time>
      </trkpt>
      <trkpt lat="42.57473" lon="2.06921">
        <ele>1652.430542</ele>
        <time>2011-09-24T10:29:33Z</time>
      </trkpt>
      <trkpt lat="42.57473" lon="2.06914">
        <ele>1649.903931</ele>
        <time>2011-09-24T10:29:37Z</time>
      </trkpt>
      <trkpt lat="42.57473" lon="2.06905">
        <ele>1649.254639</ele>
        <time>2011-09-24T10:29:40Z</time>
      </trkpt>
      <trkpt lat="42.57473" lon="2.06898">
        <ele>1649.962158</ele>
        <time>2011-09-24T10:29:42Z</time>
      </trkpt>
      <trkpt lat="42.57473" lon="2.06887">
        <ele>1651.069702</ele>
        <time>2011-09-24T10:29:44Z</time>
      </trkpt>
      <trkpt lat="42.57473" lon="2.06876">
        <ele>1652.390991</ele>
        <time>2011-09-24T10:29:46Z</time>
      </trkpt>
      <trkpt lat="42.57473" lon="2.06865">
        <ele>1653.725586</ele>
        <time>2011-09-24T10:29:48Z</time>
      </trkpt>
      <trkpt lat="42.57473" lon="2.06853">
        <ele>1655.146729</ele>
        <time>2011-09-24T10:29:50Z</time>
      </trkpt>
      <trkpt lat="42.57473" lon="2.06847">
        <ele>1655.87561</ele>
        <time>2011-09-24T10:29:51Z</time>
      </trkpt>
      <trkpt lat="42.57474" lon="2.06841">
        <ele>1656.616577</ele>
        <time>2011-09-24T10:29:52Z</time>
      </trkpt>
      <trkpt lat="42.57474" lon="2.06834">
        <ele>1657.35376</ele>
        <time>2011-09-24T10:29:53Z</time>
      </trkpt>
      <trkpt lat="42.57474" lon="2.06828">
        <ele>1658.09314</ele>
        <time>2011-09-24T10:29:54Z</time>
      </trkpt>
      <trkpt lat="42.57473" lon="2.06822">
        <ele>1658.821045</ele>
        <time>2011-09-24T10:29:55Z</time>
      </trkpt>
      <trkpt lat="42.57473" lon="2.0681">
        <ele>1660.249878</ele>
        <time>2011-09-24T10:29:57Z</time>
      </trkpt>
      <trkpt lat="42.57472" lon="2.06799">
        <ele>1661.645996</ele>
        <time>2011-09-24T10:29:59Z</time>
      </trkpt>
      <trkpt lat="42.57472" lon="2.06788">
        <ele>1663.015991</ele>
        <time>2011-09-24T10:30:01Z</time>
      </trkpt>
      <trkpt lat="42.57471" lon="2.06777">
        <ele>1664.36731</ele>
        <time>2011-09-24T10:30:03Z</time>
      </trkpt>
      <trkpt lat="42.5747" lon="2.06767">
        <ele>1665.700928</ele>
        <time>2011-09-24T10:30:05Z</time>
      </trkpt>
      <trkpt lat="42.5747" lon="2.06756">
        <ele>1667.02002</ele>
        <time>2011-09-24T10:30:07Z</time>
      </trkpt>
      <trkpt lat="42.57468" lon="2.06746">
        <ele>1668.300659</ele>
        <time>2011-09-24T10:30:09Z</time>
      </trkpt>
      <trkpt lat="42.57467" lon="2.06736">
        <ele>1669.574219</ele>
        <time>2011-09-24T10:30:11Z</time>
      </trkpt>
      <trkpt lat="42.57466" lon="2.06725">
        <ele>1670.841553</ele>
        <time>2011-09-24T10:30:13Z</time>
      </trkpt>
      <trkpt lat="42.57465" lon="2.06715">
        <ele>1672.106567</ele>
        <time>2011-09-24T10:30:15Z</time>
      </trkpt>
      <trkpt lat="42.57463" lon="2.06706">
        <ele>1673.371216</ele>
        <time>2011-09-24T10:30:17Z</time>
      </trkpt>
      <trkpt lat="42.57462" lon="2.06696">
        <ele>1674.629517</ele>
        <time>2011-09-24T10:30:19Z</time>
      </trkpt>
      <trkpt lat="42.57461" lon="2.06686">
        <ele>1675.887939</ele>
        <time>2011-09-24T10:30:21Z</time>
      </trkpt>
      <trkpt lat="42.57459" lon="2.06677">
        <ele>1677.153076</ele>
        <time>2011-09-24T10:30:23Z</time>
      </trkpt>
      <trkpt lat="42.57458" lon="2.06667">
        <ele>1678.418945</ele>
        <time>2011-09-24T10:30:25Z</time>
      </trkpt>
      <trkpt lat="42.57456" lon="2.06657">
        <ele>1679.675659</ele>
        <time>2011-09-24T10:30:27Z</time>
      </trkpt>
      <trkpt lat="42.57454" lon="2.06648">
        <ele>1680.922241</ele>
        <time>2011-09-24T10:30:29Z</time>
      </trkpt>
      <trkpt lat="42.57452" lon="2.06638">
        <ele>1682.166504</ele>
        <time>2011-09-24T10:30:31Z</time>
      </trkpt>
      <trkpt lat="42.57449" lon="2.06629">
        <ele>1683.411255</ele>
        <time>2011-09-24T10:30:33Z</time>
      </trkpt>
      <trkpt lat="42.57447" lon="2.0662">
        <ele>1684.658203</ele>
        <time>2011-09-24T10:30:35Z</time>
      </trkpt>
      <trkpt lat="42.57445" lon="2.06611">
        <ele>1685.909302</ele>
        <time>2011-09-24T10:30:37Z</time>
      </trkpt>
      <trkpt lat="42.57442" lon="2.06601">
        <ele>1687.147461</ele>
        <time>2011-09-24T10:30:39Z</time>
      </trkpt>
      <trkpt lat="42.57441" lon="2.06592">
        <ele>1688.373169</ele>
        <time>2011-09-24T10:30:41Z</time>
      </trkpt>
      <trkpt lat="42.5744" lon="2.06583">
        <ele>1689.591309</ele>
        <time>2011-09-24T10:30:43Z</time>
      </trkpt>
      <trkpt lat="42.57439" lon="2.06574">
        <ele>1690.817017</ele>
        <time>2011-09-24T10:30:45Z</time>
      </trkpt>
      <trkpt lat="42.57438" lon="2.06564">
        <ele>1692.056152</ele>
        <time>2011-09-24T10:30:47Z</time>
      </trkpt>
      <trkpt lat="42.57437" lon="2.06555">
        <ele>1693.315186</ele>
        <time>2011-09-24T10:30:49Z</time>
      </trkpt>
      <trkpt lat="42.57436" lon="2.06545">
        <ele>1694.620972</ele>
        <time>2011-09-24T10:30:51Z</time>
      </trkpt>
      <trkpt lat="42.57436" lon="2.06541">
        <ele>1695.289917</ele>
        <time>2011-09-24T10:30:52Z</time>
      </trkpt>
      <trkpt lat="42.57435" lon="2.06532">
        <ele>1696.650024</ele>
        <time>2011-09-24T10:30:54Z</time>
      </trkpt>
      <trkpt lat="42.57435" lon="2.06524">
        <ele>1698.153442</ele>
        <time>2011-09-24T10:30:56Z</time>
      </trkpt>
      <trkpt lat="42.57436" lon="2.06517">
        <ele>1699.858154</ele>
        <time>2011-09-24T10:30:58Z</time>
      </trkpt>
      <trkpt lat="42.57435" lon="2.06509">
        <ele>1701.615356</ele>
        <time>2011-09-24T10:31:00Z</time>
      </trkpt>
      <trkpt lat="42.57434" lon="2.06501">
        <ele>1703.403931</ele>
        <time>2011-09-24T10:31:02Z</time>
      </trkpt>
      <trkpt lat="42.57433" lon="2.06492">
        <ele>1705.231079</ele>
        <time>2011-09-24T10:31:04Z</time>
      </trkpt>
      <trkpt lat="42.57431" lon="2.06482">
        <ele>1707.071533</ele>
        <time>2011-09-24T10:31:06Z</time>
      </trkpt>
      <trkpt lat="42.57429" lon="2.06473">
        <ele>1708.921753</ele>
        <time>2011-09-24T10:31:08Z</time>
      </trkpt>
      <trkpt lat="42.57427" lon="2.06464">
        <ele>1710.776611</ele>
        <time>2011-09-24T10:31:10Z</time>
      </trkpt>
      <trkpt lat="42.57425" lon="2.06455">
        <ele>1712.630371</ele>
        <time>2011-09-24T10:31:12Z</time>
      </trkpt>
      <trkpt lat="42.57424" lon="2.06446">
        <ele>1714.484131</ele>
        <time>2011-09-24T10:31:14Z</time>
      </trkpt>
      <trkpt lat="42.57422" lon="2.06437">
        <ele>1716.336426</ele>
        <time>2011-09-24T10:31:16Z</time>
      </trkpt>
      <trkpt lat="42.5742" lon="2.06428">
        <ele>1718.175293</ele>
        <time>2011-09-24T10:31:18Z</time>
      </trkpt>
      <trkpt lat="42.57418" lon="2.06419">
        <ele>1720.008789</ele>
        <time>2011-09-24T10:31:20Z</time>
      </trkpt>
      <trkpt lat="42.57416" lon="2.0641">
        <ele>1721.833984</ele>
        <time>2011-09-24T10:31:22Z</time>
      </trkpt>
      <trkpt lat="42.57415" lon="2.064">
        <ele>1723.652344</ele>
        <time>2011-09-24T10:31:24Z</time>
      </trkpt>
      <trkpt lat="42.57413" lon="2.0639">
        <ele>1725.460938</ele>
        <time>2011-09-24T10:31:26Z</time>
      </trkpt>
      <trkpt lat="42.57412" lon="2.0638">
        <ele>1727.257202</ele>
        <time>2011-09-24T10:31:28Z</time>
      </trkpt>
      <trkpt lat="42.5741" lon="2.0637">
        <ele>1729.042603</ele>
        <time>2011-09-24T10:31:30Z</time>
      </trkpt>
      <trkpt lat="42.57408" lon="2.0636">
        <ele>1730.801758</ele>
        <time>2011-09-24T10:31:32Z</time>
      </trkpt>
      <trkpt lat="42.57406" lon="2.06351">
        <ele>1732.533447</ele>
        <time>2011-09-24T10:31:34Z</time>
      </trkpt>
      <trkpt lat="42.57405" lon="2.06341">
        <ele>1734.252563</ele>
        <time>2011-09-24T10:31:36Z</time>
      </trkpt>
      <trkpt lat="42.57403" lon="2.06332">
        <ele>1735.932251</ele>
        <time>2011-09-24T10:31:38Z</time>
      </trkpt>
      <trkpt lat="42.57402" lon="2.06324">
        <ele>1737.597534</ele>
        <time>2011-09-24T10:31:40Z</time>
      </trkpt>
      <trkpt lat="42.574" lon="2.06315">
        <ele>1739.271973</ele>
        <time>2011-09-24T10:31:42Z</time>
      </trkpt>
      <trkpt lat="42.57398" lon="2.06306">
        <ele>1740.974731</ele>
        <time>2011-09-24T10:31:44Z</time>
      </trkpt>
      <trkpt lat="42.57397" lon="2.06296">
        <ele>1742.699097</ele>
        <time>2011-09-24T10:31:46Z</time>
      </trkpt>
      <trkpt lat="42.57396" lon="2.06287">
        <ele>1744.433472</ele>
        <time>2011-09-24T10:31:48Z</time>
      </trkpt>
      <trkpt lat="42.57394" lon="2.06277">
        <ele>1746.187988</ele>
        <time>2011-09-24T10:31:50Z</time>
      </trkpt>
      <trkpt lat="42.57393" lon="2.06268">
        <ele>1747.969727</ele>
        <time>2011-09-24T10:31:52Z</time>
      </trkpt>
      <trkpt lat="42.57392" lon="2.0626">
        <ele>1749.770264</ele>
        <time>2011-09-24T10:31:54Z</time>
      </trkpt>
      <trkpt lat="42.5739" lon="2.06251">
        <ele>1751.585938</ele>
        <time>2011-09-24T10:31:56Z</time>
      </trkpt>
      <trkpt lat="42.57389" lon="2.06243">
        <ele>1753.394775</ele>
        <time>2011-09-24T10:31:58Z</time>
      </trkpt>
      <trkpt lat="42.57388" lon="2.06234">
        <ele>1755.235229</ele>
        <time>2011-09-24T10:32:00Z</time>
      </trkpt>
      <trkpt lat="42.57387" lon="2.06226">
        <ele>1757.135498</ele>
        <time>2011-09-24T10:32:02Z</time>
      </trkpt>
      <trkpt lat="42.57387" lon="2.06217">
        <ele>1759.08667</ele>
        <time>2011-09-24T10:32:04Z</time>
      </trkpt>
      <trkpt lat="42.57386" lon="2.06208">
        <ele>1761.024658</ele>
        <time>2011-09-24T10:32:06Z</time>
      </trkpt>
      <trkpt lat="42.57385" lon="2.06198">
        <ele>1762.944702</ele>
        <time>2011-09-24T10:32:08Z</time>
      </trkpt>
      <trkpt lat="42.57384" lon="2.06189">
        <ele>1764.845337</ele>
        <time>2011-09-24T10:32:10Z</time>
      </trkpt>
      <trkpt lat="42.57382" lon="2.06179">
        <ele>1766.74939</ele>
        <time>2011-09-24T10:32:12Z</time>
      </trkpt>
      <trkpt lat="42.57381" lon="2.06169">
        <ele>1768.654663</ele>
        <time>2011-09-24T10:32:14Z</time>
      </trkpt>
      <trkpt lat="42.57381" lon="2.0616">
        <ele>1770.537231</ele>
        <time>2011-09-24T10:32:16Z</time>
      </trkpt>
      <trkpt lat="42.57379" lon="2.0615">
        <ele>1772.43396</ele>
        <time>2011-09-24T10:32:18Z</time>
      </trkpt>
      <trkpt lat="42.57378" lon="2.06141">
        <ele>1774.3396</ele>
        <time>2011-09-24T10:32:20Z</time>
      </trkpt>
      <trkpt lat="42.57376" lon="2.06132">
        <ele>1776.272949</ele>
        <time>2011-09-24T10:32:22Z</time>
      </trkpt>
      <trkpt lat="42.57375" lon="2.06124">
        <ele>1778.229492</ele>
        <time>2011-09-24T10:32:24Z</time>
      </trkpt>
      <trkpt lat="42.57374" lon="2.06121">
        <ele>1779.22876</ele>
        <time>2011-09-24T10:32:25Z</time>
      </trkpt>
      <trkpt lat="42.57372" lon="2.06112">
        <ele>1781.197388</ele>
        <time>2011-09-24T10:32:27Z</time>
      </trkpt>
      <trkpt lat="42.5737" lon="2.06103">
        <ele>1783.140625</ele>
        <time>2011-09-24T10:32:29Z</time>
      </trkpt>
      <trkpt lat="42.57368" lon="2.06093">
        <ele>1785.144531</ele>
        <time>2011-09-24T10:32:31Z</time>
      </trkpt>
      <trkpt lat="42.57365" lon="2.06084">
        <ele>1787.168091</ele>
        <time>2011-09-24T10:32:33Z</time>
      </trkpt>
      <trkpt lat="42.57363" lon="2.06075">
        <ele>1789.21167</ele>
        <time>2011-09-24T10:32:35Z</time>
      </trkpt>
      <trkpt lat="42.57361" lon="2.06065">
        <ele>1791.243896</ele>
        <time>2011-09-24T10:32:37Z</time>
      </trkpt>
      <trkpt lat="42.57359" lon="2.06056">
        <ele>1793.349976</ele>
        <time>2011-09-24T10:32:39Z</time>
      </trkpt>
      <trkpt lat="42.57358" lon="2.06047">
        <ele>1795.469116</ele>
        <time>2011-09-24T10:32:41Z</time>
      </trkpt>
      <trkpt lat="42.57358" lon="2.06039">
        <ele>1797.600342</ele>
        <time>2011-09-24T10:32:43Z</time>
      </trkpt>
      <trkpt lat="42.57357" lon="2.06031">
        <ele>1799.787231</ele>
        <time>2011-09-24T10:32:45Z</time>
      </trkpt>
      <trkpt lat="42.57358" lon="2.06023">
        <ele>1801.977905</ele>
        <time>2011-09-24T10:32:47Z</time>
      </trkpt>
      <trkpt lat="42.57358" lon="2.06015">
        <ele>1804.131714</ele>
        <time>2011-09-24T10:32:49Z</time>
      </trkpt>
      <trkpt lat="42.57358" lon="2.06006">
        <ele>1806.328735</ele>
        <time>2011-09-24T10:32:51Z</time>
      </trkpt>
      <trkpt lat="42.57358" lon="2.05997">
        <ele>1808.623535</ele>
        <time>2011-09-24T10:32:53Z</time>
      </trkpt>
      <trkpt lat="42.57357" lon="2.05988">
        <ele>1810.936523</ele>
        <time>2011-09-24T10:32:55Z</time>
      </trkpt>
      <trkpt lat="42.57357" lon="2.05978">
        <ele>1813.234131</ele>
        <time>2011-09-24T10:32:57Z</time>
      </trkpt>
      <trkpt lat="42.57355" lon="2.05969">
        <ele>1815.515503</ele>
        <time>2011-09-24T10:32:59Z</time>
      </trkpt>
      <trkpt lat="42.57354" lon="2.05959">
        <ele>1817.803467</ele>
        <time>2011-09-24T10:33:01Z</time>
      </trkpt>
      <trkpt lat="42.57352" lon="2.05951">
        <ele>1820.092529</ele>
        <time>2011-09-24T10:33:03Z</time>
      </trkpt>
      <trkpt lat="42.5735" lon="2.05942">
        <ele>1822.424805</ele>
        <time>2011-09-24T10:33:05Z</time>
      </trkpt>
      <trkpt lat="42.57348" lon="2.05933">
        <ele>1824.778076</ele>
        <time>2011-09-24T10:33:07Z</time>
      </trkpt>
      <trkpt lat="42.57347" lon="2.05925">
        <ele>1827.162964</ele>
        <time>2011-09-24T10:33:09Z</time>
      </trkpt>
      <trkpt lat="42.57345" lon="2.05916">
        <ele>1829.598755</ele>
        <time>2011-09-24T10:33:11Z</time>
      </trkpt>
      <trkpt lat="42.57343" lon="2.05907">
        <ele>1832.035278</ele>
        <time>2011-09-24T10:33:13Z</time>
      </trkpt>
      <trkpt lat="42.57341" lon="2.05899">
        <ele>1834.530029</ele>
        <time>2011-09-24T10:33:15Z</time>
      </trkpt>
      <trkpt lat="42.5734" lon="2.05891">
        <ele>1837.105591</ele>
        <time>2011-09-24T10:33:17Z</time>
      </trkpt>
      <trkpt lat="42.57339" lon="2.05882">
        <ele>1839.805176</ele>
        <time>2011-09-24T10:33:19Z</time>
      </trkpt>
      <trkpt lat="42.57338" lon="2.05874">
        <ele>1842.515991</ele>
        <time>2011-09-24T10:33:21Z</time>
      </trkpt>
      <trkpt lat="42.57335" lon="2.05866">
        <ele>1845.18103</ele>
        <time>2011-09-24T10:33:23Z</time>
      </trkpt>
      <trkpt lat="42.57334" lon="2.05858">
        <ele>1847.837769</ele>
        <time>2011-09-24T10:33:25Z</time>
      </trkpt>
      <trkpt lat="42.57333" lon="2.05849">
        <ele>1850.55249</ele>
        <time>2011-09-24T10:33:27Z</time>
      </trkpt>
      <trkpt lat="42.57332" lon="2.0584">
        <ele>1853.333862</ele>
        <time>2011-09-24T10:33:29Z</time>
      </trkpt>
      <trkpt lat="42.57331" lon="2.05832">
        <ele>1856.172241</ele>
        <time>2011-09-24T10:33:31Z</time>
      </trkpt>
      <trkpt lat="42.5733" lon="2.05824">
        <ele>1859.061279</ele>
        <time>2011-09-24T10:33:33Z</time>
      </trkpt>
      <trkpt lat="42.57329" lon="2.05816">
        <ele>1862.003784</ele>
        <time>2011-09-24T10:33:35Z</time>
      </trkpt>
      <trkpt lat="42.57328" lon="2.05809">
        <ele>1864.930298</ele>
        <time>2011-09-24T10:33:37Z</time>
      </trkpt>
      <trkpt lat="42.57327" lon="2.05801">
        <ele>1867.858276</ele>
        <time>2011-09-24T10:33:39Z</time>
      </trkpt>
      <trkpt lat="42.57325" lon="2.05792">
        <ele>1870.767822</ele>
        <time>2011-09-24T10:33:41Z</time>
      </trkpt>
      <trkpt lat="42.57323" lon="2.05784">
        <ele>1873.732056</ele>
        <time>2011-09-24T10:33:43Z</time>
      </trkpt>
      <trkpt lat="42.57322" lon="2.05776">
        <ele>1876.746582</ele>
        <time>2011-09-24T10:33:45Z</time>
      </trkpt>
      <trkpt lat="42.5732" lon="2.05768">
        <ele>1904.290527</ele>
        <time>2011-09-24T10:33:47Z</time>
      </trkpt>
      <trkpt lat="42.57318" lon="2.05759">
        <ele>1923.051025</ele>
        <time>2011-09-24T10:33:49Z</time>
      </trkpt>
      <trkpt lat="42.57316" lon="2.0575">
        <ele>1936.261597</ele>
        <time>2011-09-24T10:33:51Z</time>
      </trkpt>
      <trkpt lat="42.57314" lon="2.05741">
        <ele>1945.707397</ele>
        <time>2011-09-24T10:33:53Z</time>
      </trkpt>
      <trkpt lat="42.57312" lon="2.05733">
        <ele>1946.491943</ele>
        <time>2011-09-24T10:33:55Z</time>
      </trkpt>
      <trkpt lat="42.57311" lon="2.05724">
        <ele>1947.358276</ele>
        <time>2011-09-24T10:33:57Z</time>
      </trkpt>
      <trkpt lat="42.57308" lon="2.05715">
        <ele>1948.310547</ele>
        <time>2011-09-24T10:33:59Z</time>
      </trkpt>
      <trkpt lat="42.57306" lon="2.05707">
        <ele>1949.375366</ele>
        <time>2011-09-24T10:34:01Z</time>
      </trkpt>
      <trkpt lat="42.57304" lon="2.05699">
        <ele>1950.467285</ele>
        <time>2011-09-24T10:34:03Z</time>
      </trkpt>
      <trkpt lat="42.57303" lon="2.05691">
        <ele>1951.592651</ele>
        <time>2011-09-24T10:34:05Z</time>
      </trkpt>
      <trkpt lat="42.57301" lon="2.05682">
        <ele>1952.765015</ele>
        <time>2011-09-24T10:34:07Z</time>
      </trkpt>
      <trkpt lat="42.573" lon="2.05674">
        <ele>1954.043335</ele>
        <time>2011-09-24T10:34:09Z</time>
      </trkpt>
      <trkpt lat="42.573" lon="2.05666">
        <ele>1955.422485</ele>
        <time>2011-09-24T10:34:11Z</time>
      </trkpt>
      <trkpt lat="42.57299" lon="2.05658">
        <ele>1956.881592</ele>
        <time>2011-09-24T10:34:13Z</time>
      </trkpt>
      <trkpt lat="42.57298" lon="2.0565">
        <ele>1958.411743</ele>
        <time>2011-09-24T10:34:15Z</time>
      </trkpt>
      <trkpt lat="42.57298" lon="2.05641">
        <ele>1959.992188</ele>
        <time>2011-09-24T10:34:17Z</time>
      </trkpt>
      <trkpt lat="42.57297" lon="2.05632">
        <ele>1961.603638</ele>
        <time>2011-09-24T10:34:19Z</time>
      </trkpt>
      <trkpt lat="42.57295" lon="2.05623">
        <ele>1963.236694</ele>
        <time>2011-09-24T10:34:21Z</time>
      </trkpt>
      <trkpt lat="42.57293" lon="2.05613">
        <ele>1964.888062</ele>
        <time>2011-09-24T10:34:23Z</time>
      </trkpt>
      <trkpt lat="42.57291" lon="2.05604">
        <ele>1966.549683</ele>
        <time>2011-09-24T10:34:25Z</time>
      </trkpt>
      <trkpt lat="42.5729" lon="2.05595">
        <ele>1968.253662</ele>
        <time>2011-09-24T10:34:27Z</time>
      </trkpt>
      <trkpt lat="42.57288" lon="2.05588">
        <ele>1970.031128</ele>
        <time>2011-09-24T10:34:29Z</time>
      </trkpt>
      <trkpt lat="42.57286" lon="2.0558">
        <ele>1971.866333</ele>
        <time>2011-09-24T10:34:31Z</time>
      </trkpt>
      <trkpt lat="42.57285" lon="2.05572">
        <ele>1973.746948</ele>
        <time>2011-09-24T10:34:33Z</time>
      </trkpt>
      <trkpt lat="42.57283" lon="2.05563">
        <ele>1975.658691</ele>
        <time>2011-09-24T10:34:35Z</time>
      </trkpt>
      <trkpt lat="42.57282" lon="2.05555">
        <ele>1977.601074</ele>
        <time>2011-09-24T10:34:37Z</time>
      </trkpt>
      <trkpt lat="42.57282" lon="2.05546">
        <ele>1979.614624</ele>
        <time>2011-09-24T10:34:39Z</time>
      </trkpt>
      <trkpt lat="42.57281" lon="2.05537">
        <ele>1981.685181</ele>
        <time>2011-09-24T10:34:41Z</time>
      </trkpt>
      <trkpt lat="42.5728" lon="2.05529">
        <ele>1983.794556</ele>
        <time>2011-09-24T10:34:43Z</time>
      </trkpt>
      <trkpt lat="42.57279" lon="2.0552">
        <ele>1985.931274</ele>
        <time>2011-09-24T10:34:45Z</time>
      </trkpt>
      <trkpt lat="42.57278" lon="2.05512">
        <ele>1988.046265</ele>
        <time>2011-09-24T10:34:47Z</time>
      </trkpt>
      <trkpt lat="42.57278" lon="2.05503">
        <ele>1990.176758</ele>
        <time>2011-09-24T10:34:49Z</time>
      </trkpt>
      <trkpt lat="42.57277" lon="2.05495">
        <ele>1992.361206</ele>
        <time>2011-09-24T10:34:51Z</time>
      </trkpt>
      <trkpt lat="42.57276" lon="2.05487">
        <ele>1994.590698</ele>
        <time>2011-09-24T10:34:53Z</time>
      </trkpt>
      <trkpt lat="42.57275" lon="2.05478">
        <ele>1996.849609</ele>
        <time>2011-09-24T10:34:55Z</time>
      </trkpt>
      <trkpt lat="42.57275" lon="2.0547">
        <ele>1999.12439</ele>
        <time>2011-09-24T10:34:57Z</time>
      </trkpt>
      <trkpt lat="42.57274" lon="2.05462">
        <ele>2001.432495</ele>
        <time>2011-09-24T10:34:59Z</time>
      </trkpt>
      <trkpt lat="42.57273" lon="2.05453">
        <ele>2003.778687</ele>
        <time>2011-09-24T10:35:01Z</time>
      </trkpt>
      <trkpt lat="42.57271" lon="2.05444">
        <ele>2006.136597</ele>
        <time>2011-09-24T10:35:03Z</time>
      </trkpt>
      <trkpt lat="42.57269" lon="2.05435">
        <ele>2008.481812</ele>
        <time>2011-09-24T10:35:05Z</time>
      </trkpt>
      <trkpt lat="42.57268" lon="2.05427">
        <ele>2010.81897</ele>
        <time>2011-09-24T10:35:07Z</time>
      </trkpt>
      <trkpt lat="42.57267" lon="2.0542">
        <ele>2013.144165</ele>
        <time>2011-09-24T10:35:09Z</time>
      </trkpt>
      <trkpt lat="42.57266" lon="2.05411">
        <ele>2015.45105</ele>
        <time>2011-09-24T10:35:11Z</time>
      </trkpt>
      <trkpt lat="42.57265" lon="2.05403">
        <ele>2017.737183</ele>
        <time>2011-09-24T10:35:13Z</time>
      </trkpt>
      <trkpt lat="42.57264" lon="2.05395">
        <ele>2020.002075</ele>
        <time>2011-09-24T10:35:15Z</time>
      </trkpt>
      <trkpt lat="42.57263" lon="2.05386">
        <ele>2022.234253</ele>
        <time>2011-09-24T10:35:17Z</time>
      </trkpt>
      <trkpt lat="42.57263" lon="2.05378">
        <ele>2024.444458</ele>
        <time>2011-09-24T10:35:19Z</time>
      </trkpt>
      <trkpt lat="42.57262" lon="2.05369">
        <ele>2026.643677</ele>
        <time>2011-09-24T10:35:21Z</time>
      </trkpt>
      <trkpt lat="42.57261" lon="2.05361">
        <ele>2028.832153</ele>
        <time>2011-09-24T10:35:23Z</time>
      </trkpt>
      <trkpt lat="42.57261" lon="2.05352">
        <ele>2030.987427</ele>
        <time>2011-09-24T10:35:25Z</time>
      </trkpt>
      <trkpt lat="42.5726" lon="2.05344">
        <ele>2033.0802</ele>
        <time>2011-09-24T10:35:27Z</time>
      </trkpt>
      <trkpt lat="42.5726" lon="2.0534">
        <ele>2035.103882</ele>
        <time>2011-09-24T10:35:29Z</time>
      </trkpt>
      <trkpt lat="42.5726" lon="2.05332">
        <ele>2043.956909</ele>
        <time>2011-09-24T10:35:55Z</time>
      </trkpt>
      <trkpt lat="42.5726" lon="2.05332">
        <ele>2044.888306</ele>
        <time>2011-09-24T10:35:56Z</time>
      </trkpt>
      <trkpt lat="42.57262" lon="2.05326">
        <ele>2046.758179</ele>
        <time>2011-09-24T10:35:58Z</time>
      </trkpt>
      <trkpt lat="42.57263" lon="2.05319">
        <ele>2048.852051</ele>
        <time>2011-09-24T10:36:00Z</time>
      </trkpt>
      <trkpt lat="42.57262" lon="2.05313">
        <ele>2051.076172</ele>
        <time>2011-09-24T10:36:02Z</time>
      </trkpt>
      <trkpt lat="42.5726" lon="2.05307">
        <ele>2053.321045</ele>
        <time>2011-09-24T10:36:04Z</time>
      </trkpt>
      <trkpt lat="42.57256" lon="2.05302">
        <ele>2056.651367</ele>
        <time>2011-09-24T10:36:07Z</time>
      </trkpt>
      <trkpt lat="42.57251" lon="2.05301">
        <ele>2058.810791</ele>
        <time>2011-09-24T10:36:09Z</time>
      </trkpt>
      <trkpt lat="42.57246" lon="2.05302">
        <ele>2060.912598</ele>
        <time>2011-09-24T10:36:11Z</time>
      </trkpt>
      <trkpt lat="42.57242" lon="2.05305">
        <ele>2062.947754</ele>
        <time>2011-09-24T10:36:13Z</time>
      </trkpt>
      <trkpt lat="42.57239" lon="2.0531">
        <ele>2064.907227</ele>
        <time>2011-09-24T10:36:15Z</time>
      </trkpt>
      <trkpt lat="42.57235" lon="2.05315">
        <ele>2066.796631</ele>
        <time>2011-09-24T10:36:17Z</time>
      </trkpt>
      <trkpt lat="42.57231" lon="2.05321">
        <ele>2068.621338</ele>
        <time>2011-09-24T10:36:19Z</time>
      </trkpt>
      <trkpt lat="42.57227" lon="2.05326">
        <ele>2070.377686</ele>
        <time>2011-09-24T10:36:21Z</time>
      </trkpt>
      <trkpt lat="42.57222" lon="2.05331">
        <ele>2072.063477</ele>
        <time>2011-09-24T10:36:23Z</time>
      </trkpt>
      <trkpt lat="42.57216" lon="2.05337">
        <ele>2073.678223</ele>
        <time>2011-09-24T10:36:25Z</time>
      </trkpt>
      <trkpt lat="42.57211" lon="2.05342">
        <ele>2075.227051</ele>
        <time>2011-09-24T10:36:27Z</time>
      </trkpt>
      <trkpt lat="42.57205" lon="2.05348">
        <ele>2076.713867</ele>
        <time>2011-09-24T10:36:29Z</time>
      </trkpt>
      <trkpt lat="42.57201" lon="2.05355">
        <ele>2078.13501</ele>
        <time>2011-09-24T10:36:31Z</time>
      </trkpt>
      <trkpt lat="42.57198" lon="2.05362">
        <ele>2079.496826</ele>
        <time>2011-09-24T10:36:33Z</time>
      </trkpt>
      <trkpt lat="42.57196" lon="2.05372">
        <ele>2080.810303</ele>
        <time>2011-09-24T10:36:35Z</time>
      </trkpt>
      <trkpt lat="42.57196" lon="2.05379">
        <ele>2082.080322</ele>
        <time>2011-09-24T10:36:37Z</time>
      </trkpt>
      <trkpt lat="42.57195" lon="2.05385">
        <ele>2083.30127</ele>
        <time>2011-09-24T10:36:39Z</time>
      </trkpt>
      <trkpt lat="42.57194" lon="2.05392">
        <ele>2084.474609</ele>
        <time>2011-09-24T10:36:41Z</time>
      </trkpt>
      <trkpt lat="42.57194" lon="2.05399">
        <ele>2085.599121</ele>
        <time>2011-09-24T10:36:43Z</time>
      </trkpt>
      <trkpt lat="42.57193" lon="2.05406">
        <ele>2086.678955</ele>
        <time>2011-09-24T10:36:45Z</time>
      </trkpt>
      <trkpt lat="42.57193" lon="2.05413">
        <ele>2087.71582</ele>
        <time>2011-09-24T10:36:47Z</time>
      </trkpt>
      <trkpt lat="42.57193" lon="2.05421">
        <ele>2088.709717</ele>
        <time>2011-09-24T10:36:49Z</time>
      </trkpt>
      <trkpt lat="42.57194" lon="2.05428">
        <ele>2089.663818</ele>
        <time>2011-09-24T10:36:51Z</time>
      </trkpt>
      <trkpt lat="42.57195" lon="2.05435">
        <ele>2090.581543</ele>
        <time>2011-09-24T10:36:53Z</time>
      </trkpt>
      <trkpt lat="42.57196" lon="2.05441">
        <ele>2091.466064</ele>
        <time>2011-09-24T10:36:55Z</time>
      </trkpt>
      <trkpt lat="42.57196" lon="2.0545">
        <ele>2092.73877</ele>
        <time>2011-09-24T10:36:58Z</time>
      </trkpt>
      <trkpt lat="42.57196" lon="2.05458">
        <ele>2093.941895</ele>
        <time>2011-09-24T10:37:01Z</time>
      </trkpt>
      <trkpt lat="42.57195" lon="2.05466">
        <ele>2095.078369</ele>
        <time>2011-09-24T10:37:04Z</time>
      </trkpt>
      <trkpt lat="42.57195" lon="2.05474">
        <ele>2096.152588</ele>
        <time>2011-09-24T10:37:07Z</time>
      </trkpt>
      <trkpt lat="42.57195" lon="2.05482">
        <ele>2097.166016</ele>
        <time>2011-09-24T10:37:10Z</time>
      </trkpt>
      <trkpt lat="42.57195" lon="2.0549">
        <ele>2098.14209</ele>
        <time>2011-09-24T10:37:13Z</time>
      </trkpt>
      <trkpt lat="42.57194" lon="2.05493">
        <ele>2098.411865</ele>
        <time>2011-09-24T10:37:14Z</time>
      </trkpt>
      <trkpt lat="42.57193" lon="2.05499">
        <ele>2099.125732</ele>
        <time>2011-09-24T10:37:17Z</time>
      </trkpt>
      <trkpt lat="42.57191" lon="2.05506">
        <ele>2100.275635</ele>
        <time>2011-09-24T10:37:21Z</time>
      </trkpt>
      <trkpt lat="42.57188" lon="2.05512">
        <ele>2101.464844</ele>
        <time>2011-09-24T10:37:25Z</time>
      </trkpt>
      <trkpt lat="42.57184" lon="2.05518">
        <ele>2102.626709</ele>
        <time>2011-09-24T10:37:29Z</time>
      </trkpt>
      <trkpt lat="42.57181" lon="2.05523">
        <ele>2103.474854</ele>
        <time>2011-09-24T10:37:32Z</time>
      </trkpt>
      <trkpt lat="42.57177" lon="2.05528">
        <ele>2104.293701</ele>
        <time>2011-09-24T10:37:35Z</time>
      </trkpt>
      <trkpt lat="42.57173" lon="2.05532">
        <ele>2105.082764</ele>
        <time>2011-09-24T10:37:38Z</time>
      </trkpt>
      <trkpt lat="42.57169" lon="2.05536">
        <ele>2105.842773</ele>
        <time>2011-09-24T10:37:41Z</time>
      </trkpt>
      <trkpt lat="42.57164" lon="2.05539">
        <ele>2106.79126</ele>
        <time>2011-09-24T10:37:45Z</time>
      </trkpt>
      <trkpt lat="42.57158" lon="2.0554">
        <ele>2108.165283</ele>
        <time>2011-09-24T10:38:02Z</time>
      </trkpt>
      <trkpt lat="42.57154" lon="2.05545">
        <ele>2108.577148</ele>
        <time>2011-09-24T10:38:04Z</time>
      </trkpt>
      <trkpt lat="42.57149" lon="2.05552">
        <ele>2112.127197</ele>
        <time>2011-09-24T10:38:06Z</time>
      </trkpt>
      <trkpt lat="42.57144" lon="2.05561">
        <ele>2114.349365</ele>
        <time>2011-09-24T10:38:08Z</time>
      </trkpt>
      <trkpt lat="42.5714" lon="2.05566">
        <ele>2115.150146</ele>
        <time>2011-09-24T10:38:09Z</time>
      </trkpt>
      <trkpt lat="42.57136" lon="2.0557">
        <ele>2115.80542</ele>
        <time>2011-09-24T10:38:10Z</time>
      </trkpt>
      <trkpt lat="42.57132" lon="2.05574">
        <ele>2116.224365</ele>
        <time>2011-09-24T10:38:11Z</time>
      </trkpt>
      <trkpt lat="42.57128" lon="2.05578">
        <ele>2116.447021</ele>
        <time>2011-09-24T10:38:12Z</time>
      </trkpt>
      <trkpt lat="42.57125" lon="2.05585">
        <ele>2116.55127</ele>
        <time>2011-09-24T10:38:13Z</time>
      </trkpt>
      <trkpt lat="42.57123" lon="2.05593">
        <ele>2116.598633</ele>
        <time>2011-09-24T10:38:14Z</time>
      </trkpt>
      <trkpt lat="42.5712" lon="2.056">
        <ele>2116.624512</ele>
        <time>2011-09-24T10:38:15Z</time>
      </trkpt>
      <trkpt lat="42.57117" lon="2.05608">
        <ele>2116.619629</ele>
        <time>2011-09-24T10:38:16Z</time>
      </trkpt>
      <trkpt lat="42.57114" lon="2.05616">
        <ele>2116.604248</ele>
        <time>2011-09-24T10:38:17Z</time>
      </trkpt>
      <trkpt lat="42.5711" lon="2.05624">
        <ele>2116.530029</ele>
        <time>2011-09-24T10:38:18Z</time>
      </trkpt>
      <trkpt lat="42.57106" lon="2.05632">
        <ele>2116.408691</ele>
        <time>2011-09-24T10:38:19Z</time>
      </trkpt>
      <trkpt lat="42.57101" lon="2.05639">
        <ele>2116.210938</ele>
        <time>2011-09-24T10:38:20Z</time>
      </trkpt>
      <trkpt lat="42.57097" lon="2.05647">
        <ele>2116.036133</ele>
        <time>2011-09-24T10:38:21Z</time>
      </trkpt>
      <trkpt lat="42.57094" lon="2.05654">
        <ele>2115.852539</ele>
        <time>2011-09-24T10:38:22Z</time>
      </trkpt>
      <trkpt lat="42.57087" lon="2.0566">
        <ele>2115.799561</ele>
        <time>2011-09-24T10:38:24Z</time>
      </trkpt>
      <trkpt lat="42.57084" lon="2.0567">
        <ele>2115.311768</ele>
        <time>2011-09-24T10:38:26Z</time>
      </trkpt>
      <trkpt lat="42.57085" lon="2.05677">
        <ele>2114.865479</ele>
        <time>2011-09-24T10:38:27Z</time>
      </trkpt>
      <trkpt lat="42.57086" lon="2.05686">
        <ele>2114.446777</ele>
        <time>2011-09-24T10:38:28Z</time>
      </trkpt>
      <trkpt lat="42.57087" lon="2.05694">
        <ele>2114.02417</ele>
        <time>2011-09-24T10:38:29Z</time>
      </trkpt>
      <trkpt lat="42.57085" lon="2.057">
        <ele>2113.460205</ele>
        <time>2011-09-24T10:38:30Z</time>
      </trkpt>
      <trkpt lat="42.57081" lon="2.05704">
        <ele>2112.870117</ele>
        <time>2011-09-24T10:38:55Z</time>
      </trkpt>
      <trkpt lat="42.57076" lon="2.05709">
        <ele>2112.511475</ele>
        <time>2011-09-24T10:38:58Z</time>
      </trkpt>
      <trkpt lat="42.57075" lon="2.05715">
        <ele>2111.364746</ele>
        <time>2011-09-24T10:38:59Z</time>
      </trkpt>
      <trkpt lat="42.57073" lon="2.05721">
        <ele>2110.397217</ele>
        <time>2011-09-24T10:39:00Z</time>
      </trkpt>
      <trkpt lat="42.5707" lon="2.05729">
        <ele>2109.502686</ele>
        <time>2011-09-24T10:39:02Z</time>
      </trkpt>
      <trkpt lat="42.57066" lon="2.05734">
        <ele>2109.366699</ele>
        <time>2011-09-24T10:39:04Z</time>
      </trkpt>
      <trkpt lat="42.57062" lon="2.05744">
        <ele>2108.355225</ele>
        <time>2011-09-24T10:39:06Z</time>
      </trkpt>
      <trkpt lat="42.5706" lon="2.05749">
        <ele>2108.355225</ele>
        <time>2011-09-24T10:39:07Z</time>
      </trkpt>
      <trkpt lat="42.57058" lon="2.0576">
        <ele>2105.305176</ele>
        <time>2011-09-24T10:39:09Z</time>
      </trkpt>
      <trkpt lat="42.57056" lon="2.05767">
        <ele>2103.567139</ele>
        <time>2011-09-24T10:39:10Z</time>
      </trkpt>
      <trkpt lat="42.57055" lon="2.05773">
        <ele>2102.067139</ele>
        <time>2011-09-24T10:39:11Z</time>
      </trkpt>
      <trkpt lat="42.57052" lon="2.05778">
        <ele>2101.812012</ele>
        <time>2011-09-24T10:39:13Z</time>
      </trkpt>
      <trkpt lat="42.57047" lon="2.05779">
        <ele>2101.405762</ele>
        <time>2011-09-24T10:39:16Z</time>
      </trkpt>
      <trkpt lat="42.57043" lon="2.05782">
        <ele>2101.101074</ele>
        <time>2011-09-24T10:39:18Z</time>
      </trkpt>
      <trkpt lat="42.57039" lon="2.05793">
        <ele>2100.802734</ele>
        <time>2011-09-24T10:39:20Z</time>
      </trkpt>
      <trkpt lat="42.57037" lon="2.05799">
        <ele>2099.27124</ele>
        <time>2011-09-24T10:39:21Z</time>
      </trkpt>
      <trkpt lat="42.57034" lon="2.05805">
        <ele>2097.942139</ele>
        <time>2011-09-24T10:39:22Z</time>
      </trkpt>
      <trkpt lat="42.57029" lon="2.05813">
        <ele>2096.512451</ele>
        <time>2011-09-24T10:39:23Z</time>
      </trkpt>
      <trkpt lat="42.57025" lon="2.05822">
        <ele>2095.055664</ele>
        <time>2011-09-24T10:39:24Z</time>
      </trkpt>
      <trkpt lat="42.5702" lon="2.05831">
        <ele>2093.779541</ele>
        <time>2011-09-24T10:39:25Z</time>
      </trkpt>
      <trkpt lat="42.57017" lon="2.0584">
        <ele>2092.62793</ele>
        <time>2011-09-24T10:39:26Z</time>
      </trkpt>
      <trkpt lat="42.57015" lon="2.05847">
        <ele>2091.657959</ele>
        <time>2011-09-24T10:39:27Z</time>
      </trkpt>
      <trkpt lat="42.57013" lon="2.05854">
        <ele>2090.707275</ele>
        <time>2011-09-24T10:39:28Z</time>
      </trkpt>
      <trkpt lat="42.57012" lon="2.05862">
        <ele>2089.773682</ele>
        <time>2011-09-24T10:39:29Z</time>
      </trkpt>
      <trkpt lat="42.57011" lon="2.0587">
        <ele>2088.963379</ele>
        <time>2011-09-24T10:39:30Z</time>
      </trkpt>
      <trkpt lat="42.5701" lon="2.05877">
        <ele>2088.192139</ele>
        <time>2011-09-24T10:39:31Z</time>
      </trkpt>
      <trkpt lat="42.57009" lon="2.05884">
        <ele>2087.457764</ele>
        <time>2011-09-24T10:39:32Z</time>
      </trkpt>
      <trkpt lat="42.57008" lon="2.05891">
        <ele>2086.806885</ele>
        <time>2011-09-24T10:39:33Z</time>
      </trkpt>
      <trkpt lat="42.57005" lon="2.059">
        <ele>2086.162842</ele>
        <time>2011-09-24T10:39:35Z</time>
      </trkpt>
      <trkpt lat="42.57" lon="2.05907">
        <ele>2086.04126</ele>
        <time>2011-09-24T10:39:37Z</time>
      </trkpt>
      <trkpt lat="42.56999" lon="2.05914">
        <ele>2085.458252</ele>
        <time>2011-09-24T10:39:38Z</time>
      </trkpt>
      <trkpt lat="42.57" lon="2.05921">
        <ele>2084.953857</ele>
        <time>2011-09-24T10:39:39Z</time>
      </trkpt>
      <trkpt lat="42.57001" lon="2.05928">
        <ele>2084.546143</ele>
        <time>2011-09-24T10:39:40Z</time>
      </trkpt>
      <trkpt lat="42.57001" lon="2.05935">
        <ele>2084.27417</ele>
        <time>2011-09-24T10:39:41Z</time>
      </trkpt>
      <trkpt lat="42.56999" lon="2.05941">
        <ele>2084.001709</ele>
        <time>2011-09-24T10:39:42Z</time>
      </trkpt>
      <trkpt lat="42.56996" lon="2.05946">
        <ele>2083.827637</ele>
        <time>2011-09-24T10:39:43Z</time>
      </trkpt>
      <trkpt lat="42.56992" lon="2.05953">
        <ele>2083.70874</ele>
        <time>2011-09-24T10:39:45Z</time>
      </trkpt>
      <trkpt lat="42.56989" lon="2.05964">
        <ele>2083.492432</ele>
        <time>2011-09-24T10:39:47Z</time>
      </trkpt>
      <trkpt lat="42.56987" lon="2.05975">
        <ele>2081.926025</ele>
        <time>2011-09-24T10:39:49Z</time>
      </trkpt>
      <trkpt lat="42.56984" lon="2.0598">
        <ele>2080.933105</ele>
        <time>2011-09-24T10:39:50Z</time>
      </trkpt>
      <trkpt lat="42.56979" lon="2.05982">
        <ele>2079.672363</ele>
        <time>2011-09-24T10:39:51Z</time>
      </trkpt>
      <trkpt lat="42.56974" lon="2.05983">
        <ele>2078.171875</ele>
        <time>2011-09-24T10:39:52Z</time>
      </trkpt>
      <trkpt lat="42.56969" lon="2.05977">
        <ele>2077.896729</ele>
        <time>2011-09-24T10:39:54Z</time>
      </trkpt>
      <trkpt lat="42.56965" lon="2.05969">
        <ele>2075.85376</ele>
        <time>2011-09-24T10:39:56Z</time>
      </trkpt>
      <trkpt lat="42.56961" lon="2.05964">
        <ele>2074.027832</ele>
        <time>2011-09-24T10:39:57Z</time>
      </trkpt>
      <trkpt lat="42.56955" lon="2.05962">
        <ele>2072.16748</ele>
        <time>2011-09-24T10:39:58Z</time>
      </trkpt>
      <trkpt lat="42.5695" lon="2.05961">
        <ele>2070.390137</ele>
        <time>2011-09-24T10:39:59Z</time>
      </trkpt>
      <trkpt lat="42.56948" lon="2.05969">
        <ele>2070.064941</ele>
        <time>2011-09-24T10:40:01Z</time>
      </trkpt>
      <trkpt lat="42.56949" lon="2.05975">
        <ele>2068.375244</ele>
        <time>2011-09-24T10:40:02Z</time>
      </trkpt>
      <trkpt lat="42.56949" lon="2.05982">
        <ele>2066.919922</ele>
        <time>2011-09-24T10:40:03Z</time>
      </trkpt>
      <trkpt lat="42.56949" lon="2.05988">
        <ele>2065.616211</ele>
        <time>2011-09-24T10:40:04Z</time>
      </trkpt>
      <trkpt lat="42.56946" lon="2.06">
        <ele>2063.407227</ele>
        <time>2011-09-24T10:40:06Z</time>
      </trkpt>
      <trkpt lat="42.56945" lon="2.06006">
        <ele>2062.437256</ele>
        <time>2011-09-24T10:40:07Z</time>
      </trkpt>
      <trkpt lat="42.56942" lon="2.06014">
        <ele>2062.241455</ele>
        <time>2011-09-24T10:40:09Z</time>
      </trkpt>
      <trkpt lat="42.56937" lon="2.06016">
        <ele>2060.947266</ele>
        <time>2011-09-24T10:40:10Z</time>
      </trkpt>
      <trkpt lat="42.56932" lon="2.06015">
        <ele>2059.889648</ele>
        <time>2011-09-24T10:40:11Z</time>
      </trkpt>
      <trkpt lat="42.56926" lon="2.06013">
        <ele>2058.955811</ele>
        <time>2011-09-24T10:40:12Z</time>
      </trkpt>
      <trkpt lat="42.56921" lon="2.06014">
        <ele>2058.030762</ele>
        <time>2011-09-24T10:40:13Z</time>
      </trkpt>
      <trkpt lat="42.56917" lon="2.06017">
        <ele>2057.187012</ele>
        <time>2011-09-24T10:40:14Z</time>
      </trkpt>
      <trkpt lat="42.56912" lon="2.0602">
        <ele>2056.273193</ele>
        <time>2011-09-24T10:40:15Z</time>
      </trkpt>
      <trkpt lat="42.56907" lon="2.06025">
        <ele>2055.412109</ele>
        <time>2011-09-24T10:40:16Z</time>
      </trkpt>
      <trkpt lat="42.56904" lon="2.06031">
        <ele>2054.637939</ele>
        <time>2011-09-24T10:40:17Z</time>
      </trkpt>
      <trkpt lat="42.56902" lon="2.06038">
        <ele>2053.988037</ele>
        <time>2011-09-24T10:40:18Z</time>
      </trkpt>
      <trkpt lat="42.56901" lon="2.06045">
        <ele>2053.357666</ele>
        <time>2011-09-24T10:40:19Z</time>
      </trkpt>
      <trkpt lat="42.56901" lon="2.06053">
        <ele>2052.621338</ele>
        <time>2011-09-24T10:40:20Z</time>
      </trkpt>
      <trkpt lat="42.569" lon="2.06061">
        <ele>2051.848877</ele>
        <time>2011-09-24T10:40:21Z</time>
      </trkpt>
      <trkpt lat="42.56899" lon="2.06069">
        <ele>2050.937744</ele>
        <time>2011-09-24T10:40:22Z</time>
      </trkpt>
      <trkpt lat="42.56898" lon="2.06077">
        <ele>2049.949219</ele>
        <time>2011-09-24T10:40:23Z</time>
      </trkpt>
      <trkpt lat="42.56895" lon="2.06086">
        <ele>2048.845459</ele>
        <time>2011-09-24T10:40:24Z</time>
      </trkpt>
      <trkpt lat="42.56892" lon="2.06093">
        <ele>2047.609253</ele>
        <time>2011-09-24T10:40:25Z</time>
      </trkpt>
      <trkpt lat="42.56889" lon="2.06099">
        <ele>2046.26062</ele>
        <time>2011-09-24T10:40:26Z</time>
      </trkpt>
      <trkpt lat="42.56885" lon="2.06104">
        <ele>2044.827515</ele>
        <time>2011-09-24T10:40:27Z</time>
      </trkpt>
      <trkpt lat="42.56881" lon="2.06106">
        <ele>2043.247681</ele>
        <time>2011-09-24T10:40:28Z</time>
      </trkpt>
      <trkpt lat="42.56872" lon="2.06103">
        <ele>2039.843384</ele>
        <time>2011-09-24T10:40:30Z</time>
      </trkpt>
      <trkpt lat="42.56868" lon="2.06096">
        <ele>2038.154419</ele>
        <time>2011-09-24T10:40:31Z</time>
      </trkpt>
      <trkpt lat="42.56865" lon="2.06088">
        <ele>2036.600708</ele>
        <time>2011-09-24T10:40:33Z</time>
      </trkpt>
      <trkpt lat="42.56863" lon="2.06081">
        <ele>2035.248657</ele>
        <time>2011-09-24T10:40:33Z</time>
      </trkpt>
      <trkpt lat="42.56859" lon="2.06075">
        <ele>2035.003296</ele>
        <time>2011-09-24T10:40:35Z</time>
      </trkpt>
      <trkpt lat="42.56853" lon="2.06082">
        <ele>2032.513306</ele>
        <time>2011-09-24T10:40:37Z</time>
      </trkpt>
      <trkpt lat="42.56853" lon="2.06089">
        <ele>2031.236694</ele>
        <time>2011-09-24T10:40:38Z</time>
      </trkpt>
      <trkpt lat="42.56852" lon="2.06099">
        <ele>2029.830688</ele>
        <time>2011-09-24T10:40:39Z</time>
      </trkpt>
      <trkpt lat="42.56851" lon="2.06109">
        <ele>2028.618042</ele>
        <time>2011-09-24T10:40:40Z</time>
      </trkpt>
      <trkpt lat="42.5685" lon="2.06119">
        <ele>2027.334106</ele>
        <time>2011-09-24T10:40:41Z</time>
      </trkpt>
      <trkpt lat="42.56849" lon="2.06127">
        <ele>2025.991821</ele>
        <time>2011-09-24T10:40:42Z</time>
      </trkpt>
      <trkpt lat="42.56848" lon="2.06135">
        <ele>2024.729858</ele>
        <time>2011-09-24T10:40:43Z</time>
      </trkpt>
      <trkpt lat="42.56846" lon="2.06142">
        <ele>2024.486694</ele>
        <time>2011-09-24T10:40:45Z</time>
      </trkpt>
      <trkpt lat="42.56841" lon="2.06146">
        <ele>2023.670288</ele>
        <time>2011-09-24T10:40:51Z</time>
      </trkpt>
      <trkpt lat="42.56839" lon="2.06152">
        <ele>2023.296509</ele>
        <time>2011-09-24T10:40:53Z</time>
      </trkpt>
      <trkpt lat="42.56834" lon="2.06158">
        <ele>2022.791626</ele>
        <time>2011-09-24T10:40:55Z</time>
      </trkpt>
      <trkpt lat="42.56831" lon="2.06167">
        <ele>2022.213013</ele>
        <time>2011-09-24T10:40:57Z</time>
      </trkpt>
      <trkpt lat="42.56833" lon="2.06179">
        <ele>2018.952026</ele>
        <time>2011-09-24T10:40:59Z</time>
      </trkpt>
      <trkpt lat="42.56836" lon="2.0619">
        <ele>2014.453247</ele>
        <time>2011-09-24T10:41:01Z</time>
      </trkpt>
      <trkpt lat="42.56837" lon="2.06196">
        <ele>2012.678589</ele>
        <time>2011-09-24T10:41:02Z</time>
      </trkpt>
      <trkpt lat="42.56839" lon="2.06203">
        <ele>2011.191772</ele>
        <time>2011-09-24T10:41:03Z</time>
      </trkpt>
      <trkpt lat="42.56841" lon="2.06209">
        <ele>2009.955688</ele>
        <time>2011-09-24T10:41:04Z</time>
      </trkpt>
      <trkpt lat="42.56843" lon="2.06215">
        <ele>2008.901978</ele>
        <time>2011-09-24T10:41:05Z</time>
      </trkpt>
      <trkpt lat="42.56843" lon="2.06226">
        <ele>2006.730103</ele>
        <time>2011-09-24T10:41:07Z</time>
      </trkpt>
      <trkpt lat="42.56841" lon="2.06235">
        <ele>2004.310913</ele>
        <time>2011-09-24T10:41:09Z</time>
      </trkpt>
      <trkpt lat="42.56842" lon="2.06243">
        <ele>2003.256226</ele>
        <time>2011-09-24T10:41:10Z</time>
      </trkpt>
      <trkpt lat="42.56841" lon="2.06249">
        <ele>2002.290161</ele>
        <time>2011-09-24T10:41:11Z</time>
      </trkpt>
      <trkpt lat="42.56839" lon="2.06256">
        <ele>2001.328979</ele>
        <time>2011-09-24T10:41:12Z</time>
      </trkpt>
      <trkpt lat="42.56837" lon="2.06261">
        <ele>2000.262573</ele>
        <time>2011-09-24T10:41:13Z</time>
      </trkpt>
      <trkpt lat="42.56834" lon="2.06267">
        <ele>1998.964966</ele>
        <time>2011-09-24T10:41:14Z</time>
      </trkpt>
      <trkpt lat="42.56831" lon="2.06273">
        <ele>1997.550171</ele>
        <time>2011-09-24T10:41:15Z</time>
      </trkpt>
      <trkpt lat="42.56828" lon="2.06282">
        <ele>1995.910645</ele>
        <time>2011-09-24T10:41:17Z</time>
      </trkpt>
      <trkpt lat="42.56831" lon="2.06287">
        <ele>1995.32605</ele>
        <time>2011-09-24T10:41:20Z</time>
      </trkpt>
      <trkpt lat="42.56835" lon="2.06292">
        <ele>1994.812256</ele>
        <time>2011-09-24T10:41:22Z</time>
      </trkpt>
      <trkpt lat="42.56835" lon="2.06299">
        <ele>1994.220947</ele>
        <time>2011-09-24T10:41:24Z</time>
      </trkpt>
      <trkpt lat="42.56837" lon="2.06307">
        <ele>1993.293945</ele>
        <time>2011-09-24T10:41:27Z</time>
      </trkpt>
      <trkpt lat="42.56833" lon="2.06313">
        <ele>1992.636719</ele>
        <time>2011-09-24T10:41:29Z</time>
      </trkpt>
      <trkpt lat="42.56823" lon="2.06314">
        <ele>1988.421875</ele>
        <time>2011-09-24T10:41:31Z</time>
      </trkpt>
      <trkpt lat="42.56818" lon="2.06314">
        <ele>1984.802368</ele>
        <time>2011-09-24T10:41:32Z</time>
      </trkpt>
      <trkpt lat="42.56813" lon="2.06315">
        <ele>1981.533081</ele>
        <time>2011-09-24T10:41:33Z</time>
      </trkpt>
      <trkpt lat="42.56808" lon="2.06318">
        <ele>1978.407715</ele>
        <time>2011-09-24T10:41:34Z</time>
      </trkpt>
      <trkpt lat="42.56804" lon="2.06321">
        <ele>1975.45105</ele>
        <time>2011-09-24T10:41:35Z</time>
      </trkpt>
      <trkpt lat="42.56797" lon="2.06326">
        <ele>1969.886475</ele>
        <time>2011-09-24T10:41:37Z</time>
      </trkpt>
      <trkpt lat="42.56797" lon="2.06332">
        <ele>1969.207397</ele>
        <time>2011-09-24T10:41:41Z</time>
      </trkpt>
      <trkpt lat="42.56795" lon="2.0634">
        <ele>1968.672363</ele>
        <time>2011-09-24T10:41:42Z</time>
      </trkpt>
      <trkpt lat="42.56795" lon="2.06351">
        <ele>1963.407471</ele>
        <time>2011-09-24T10:41:44Z</time>
      </trkpt>
      <trkpt lat="42.56796" lon="2.0636">
        <ele>1962.991699</ele>
        <time>2011-09-24T10:41:46Z</time>
      </trkpt>
      <trkpt lat="42.56793" lon="2.06367">
        <ele>1962.535522</ele>
        <time>2011-09-24T10:41:48Z</time>
      </trkpt>
      <trkpt lat="42.56789" lon="2.06375">
        <ele>1962.022461</ele>
        <time>2011-09-24T10:41:50Z</time>
      </trkpt>
      <trkpt lat="42.56788" lon="2.06382">
        <ele>1959.189697</ele>
        <time>2011-09-24T10:41:51Z</time>
      </trkpt>
      <trkpt lat="42.56789" lon="2.06393">
        <ele>1954.641968</ele>
        <time>2011-09-24T10:41:53Z</time>
      </trkpt>
      <trkpt lat="42.56784" lon="2.06399">
        <ele>1954.268311</ele>
        <time>2011-09-24T10:41:55Z</time>
      </trkpt>
      <trkpt lat="42.56777" lon="2.06403">
        <ele>1953.771851</ele>
        <time>2011-09-24T10:41:57Z</time>
      </trkpt>
      <trkpt lat="42.56772" lon="2.06413">
        <ele>1951.071167</ele>
        <time>2011-09-24T10:41:59Z</time>
      </trkpt>
      <trkpt lat="42.5677" lon="2.06419">
        <ele>1948.948608</ele>
        <time>2011-09-24T10:42:00Z</time>
      </trkpt>
      <trkpt lat="42.56768" lon="2.06425">
        <ele>1947.043091</ele>
        <time>2011-09-24T10:42:01Z</time>
      </trkpt>
      <trkpt lat="42.56762" lon="2.06427">
        <ele>1945.193237</ele>
        <time>2011-09-24T10:42:03Z</time>
      </trkpt>
      <trkpt lat="42.56756" lon="2.06428">
        <ele>1944.816406</ele>
        <time>2011-09-24T10:42:05Z</time>
      </trkpt>
      <trkpt lat="42.56749" lon="2.06435">
        <ele>1940.528076</ele>
        <time>2011-09-24T10:42:07Z</time>
      </trkpt>
      <trkpt lat="42.56745" lon="2.06443">
        <ele>1940.175659</ele>
        <time>2011-09-24T10:42:09Z</time>
      </trkpt>
      <trkpt lat="42.56739" lon="2.06448">
        <ele>1937.646973</ele>
        <time>2011-09-24T10:42:11Z</time>
      </trkpt>
      <trkpt lat="42.56733" lon="2.06445">
        <ele>1935.227905</ele>
        <time>2011-09-24T10:42:12Z</time>
      </trkpt>
      <trkpt lat="42.56726" lon="2.06442">
        <ele>1932.871216</ele>
        <time>2011-09-24T10:42:13Z</time>
      </trkpt>
      <trkpt lat="42.56719" lon="2.06441">
        <ele>1930.265503</ele>
        <time>2011-09-24T10:42:14Z</time>
      </trkpt>
      <trkpt lat="42.56712" lon="2.06445">
        <ele>1929.764038</ele>
        <time>2011-09-24T10:42:16Z</time>
      </trkpt>
      <trkpt lat="42.56709" lon="2.06449">
        <ele>1926.672607</ele>
        <time>2011-09-24T10:42:58Z</time>
      </trkpt>
      <trkpt lat="42.56703" lon="2.06451">
        <ele>1926.245239</ele>
        <time>2011-09-24T10:43:00Z</time>
      </trkpt>
      <trkpt lat="42.56696" lon="2.06456">
        <ele>1917.459351</ele>
        <time>2011-09-24T10:43:02Z</time>
      </trkpt>
      <trkpt lat="42.56691" lon="2.06461">
        <ele>1913.674561</ele>
        <time>2011-09-24T10:43:03Z</time>
      </trkpt>
      <trkpt lat="42.56686" lon="2.0647">
        <ele>1910.211792</ele>
        <time>2011-09-24T10:43:04Z</time>
      </trkpt>
      <trkpt lat="42.56682" lon="2.06477">
        <ele>1907.324219</ele>
        <time>2011-09-24T10:43:05Z</time>
      </trkpt>
      <trkpt lat="42.56678" lon="2.06482">
        <ele>1904.879028</ele>
        <time>2011-09-24T10:43:06Z</time>
      </trkpt>
      <trkpt lat="42.56674" lon="2.06485">
        <ele>1902.709961</ele>
        <time>2011-09-24T10:43:07Z</time>
      </trkpt>
      <trkpt lat="42.56669" lon="2.06484">
        <ele>1900.796997</ele>
        <time>2011-09-24T10:43:08Z</time>
      </trkpt>
      <trkpt lat="42.56663" lon="2.06482">
        <ele>1899.001221</ele>
        <time>2011-09-24T10:43:10Z</time>
      </trkpt>
      <trkpt lat="42.56658" lon="2.06486">
        <ele>1898.704834</ele>
        <time>2011-09-24T10:43:12Z</time>
      </trkpt>
      <trkpt lat="42.56655" lon="2.06495">
        <ele>1897.340576</ele>
        <time>2011-09-24T10:43:14Z</time>
      </trkpt>
      <trkpt lat="42.56653" lon="2.06502">
        <ele>1896.401001</ele>
        <time>2011-09-24T10:43:15Z</time>
      </trkpt>
      <trkpt lat="42.5665" lon="2.06508">
        <ele>1895.584961</ele>
        <time>2011-09-24T10:43:16Z</time>
      </trkpt>
      <trkpt lat="42.56645" lon="2.06517">
        <ele>1893.904785</ele>
        <time>2011-09-24T10:43:18Z</time>
      </trkpt>
      <trkpt lat="42.5664" lon="2.06527">
        <ele>1892.53064</ele>
        <time>2011-09-24T10:43:20Z</time>
      </trkpt>
      <trkpt lat="42.56636" lon="2.06534">
        <ele>1891.98645</ele>
        <time>2011-09-24T10:43:29Z</time>
      </trkpt>
      <trkpt lat="42.56635" lon="2.06544">
        <ele>1891.621094</ele>
        <time>2011-09-24T10:43:32Z</time>
      </trkpt>
      <trkpt lat="42.56633" lon="2.06553">
        <ele>1891.373047</ele>
        <time>2011-09-24T10:43:34Z</time>
      </trkpt>
      <trkpt lat="42.56628" lon="2.06561">
        <ele>1889.768433</ele>
        <time>2011-09-24T10:43:36Z</time>
      </trkpt>
      <trkpt lat="42.56625" lon="2.06571">
        <ele>1887.151855</ele>
        <time>2011-09-24T10:43:38Z</time>
      </trkpt>
      <trkpt lat="42.56626" lon="2.06578">
        <ele>1886.022949</ele>
        <time>2011-09-24T10:43:39Z</time>
      </trkpt>
      <trkpt lat="42.56626" lon="2.06585">
        <ele>1885.07605</ele>
        <time>2011-09-24T10:43:40Z</time>
      </trkpt>
      <trkpt lat="42.56627" lon="2.06592">
        <ele>1884.227417</ele>
        <time>2011-09-24T10:43:41Z</time>
      </trkpt>
      <trkpt lat="42.56628" lon="2.066">
        <ele>1883.304321</ele>
        <time>2011-09-24T10:43:42Z</time>
      </trkpt>
      <trkpt lat="42.56627" lon="2.06608">
        <ele>1883.09668</ele>
        <time>2011-09-24T10:43:44Z</time>
      </trkpt>
      <trkpt lat="42.56624" lon="2.06619">
        <ele>1880.917969</ele>
        <time>2011-09-24T10:43:46Z</time>
      </trkpt>
      <trkpt lat="42.56621" lon="2.06628">
        <ele>1878.768311</ele>
        <time>2011-09-24T10:43:47Z</time>
      </trkpt>
      <trkpt lat="42.56615" lon="2.06639">
        <ele>1875.96521</ele>
        <time>2011-09-24T10:43:48Z</time>
      </trkpt>
      <trkpt lat="42.56607" lon="2.0665">
        <ele>1872.452148</ele>
        <time>2011-09-24T10:43:49Z</time>
      </trkpt>
      <trkpt lat="42.56598" lon="2.06661">
        <ele>1869.059082</ele>
        <time>2011-09-24T10:43:50Z</time>
      </trkpt>
      <trkpt lat="42.56588" lon="2.06671">
        <ele>1865.894775</ele>
        <time>2011-09-24T10:43:51Z</time>
      </trkpt>
      <trkpt lat="42.56577" lon="2.0668">
        <ele>1862.964478</ele>
        <time>2011-09-24T10:43:52Z</time>
      </trkpt>
      <trkpt lat="42.56567" lon="2.06687">
        <ele>1860.250366</ele>
        <time>2011-09-24T10:43:53Z</time>
      </trkpt>
      <trkpt lat="42.56558" lon="2.06693">
        <ele>1857.813599</ele>
        <time>2011-09-24T10:43:54Z</time>
      </trkpt>
      <trkpt lat="42.56549" lon="2.06698">
        <ele>1855.631836</ele>
        <time>2011-09-24T10:43:55Z</time>
      </trkpt>
      <trkpt lat="42.5654" lon="2.06702">
        <ele>1853.692993</ele>
        <time>2011-09-24T10:43:56Z</time>
      </trkpt>
      <trkpt lat="42.56535" lon="2.06708">
        <ele>1852.134521</ele>
        <time>2011-09-24T10:43:57Z</time>
      </trkpt>
      <trkpt lat="42.56532" lon="2.06715">
        <ele>1850.704712</ele>
        <time>2011-09-24T10:43:58Z</time>
      </trkpt>
      <trkpt lat="42.56529" lon="2.06722">
        <ele>1849.32019</ele>
        <time>2011-09-24T10:43:59Z</time>
      </trkpt>
      <trkpt lat="42.56531" lon="2.06732">
        <ele>1848.062988</ele>
        <time>2011-09-24T10:44:00Z</time>
      </trkpt>
      <trkpt lat="42.56533" lon="2.06741">
        <ele>1846.983643</ele>
        <time>2011-09-24T10:44:01Z</time>
      </trkpt>
      <trkpt lat="42.56535" lon="2.0675">
        <ele>1846.983643</ele>
        <time>2011-09-24T10:44:02Z</time>
      </trkpt>
      <trkpt lat="42.56544" lon="2.06763">
        <ele>1845.89978</ele>
        <time>2011-09-24T10:44:03Z</time>
      </trkpt>
      <trkpt lat="42.56549" lon="2.06774">
        <ele>1845.025024</ele>
        <time>2011-09-24T10:44:04Z</time>
      </trkpt>
      <trkpt lat="42.56553" lon="2.06784">
        <ele>1844.325439</ele>
        <time>2011-09-24T10:44:05Z</time>
      </trkpt>
      <trkpt lat="42.56555" lon="2.06794">
        <ele>1843.594727</ele>
        <time>2011-09-24T10:44:06Z</time>
      </trkpt>
      <trkpt lat="42.56556" lon="2.06801">
        <ele>1842.829834</ele>
        <time>2011-09-24T10:44:07Z</time>
      </trkpt>
      <trkpt lat="42.56552" lon="2.06809">
        <ele>1842.09729</ele>
        <time>2011-09-24T10:44:08Z</time>
      </trkpt>
      <trkpt lat="42.56548" lon="2.06813">
        <ele>1841.359497</ele>
        <time>2011-09-24T10:44:09Z</time>
      </trkpt>
      <trkpt lat="42.56542" lon="2.06822">
        <ele>1840.214111</ele>
        <time>2011-09-24T10:44:11Z</time>
      </trkpt>
      <trkpt lat="42.56539" lon="2.06828">
        <ele>1838.992432</ele>
        <time>2011-09-24T10:44:12Z</time>
      </trkpt>
      <trkpt lat="42.56537" lon="2.06834">
        <ele>1837.841309</ele>
        <time>2011-09-24T10:44:13Z</time>
      </trkpt>
      <trkpt lat="42.56532" lon="2.06843">
        <ele>1835.89856</ele>
        <time>2011-09-24T10:44:15Z</time>
      </trkpt>
      <trkpt lat="42.56526" lon="2.06851">
        <ele>1834.206055</ele>
        <time>2011-09-24T10:44:17Z</time>
      </trkpt>
      <trkpt lat="42.5652" lon="2.06859">
        <ele>1832.343262</ele>
        <time>2011-09-24T10:44:19Z</time>
      </trkpt>
      <trkpt lat="42.56514" lon="2.06864">
        <ele>1832.127197</ele>
        <time>2011-09-24T10:44:21Z</time>
      </trkpt>
      <trkpt lat="42.5651" lon="2.06868">
        <ele>1830.682007</ele>
        <time>2011-09-24T10:44:22Z</time>
      </trkpt>
      <trkpt lat="42.56505" lon="2.06872">
        <ele>1829.266235</ele>
        <time>2011-09-24T10:44:23Z</time>
      </trkpt>
      <trkpt lat="42.56502" lon="2.06876">
        <ele>1829.115845</ele>
        <time>2011-09-24T10:44:24Z</time>
      </trkpt>
      <trkpt lat="42.56496" lon="2.06885">
        <ele>1828.754395</ele>
        <time>2011-09-24T10:44:26Z</time>
      </trkpt>
      <trkpt lat="42.56495" lon="2.06897">
        <ele>1825.812744</ele>
        <time>2011-09-24T10:44:28Z</time>
      </trkpt>
      <trkpt lat="42.56496" lon="2.06907">
        <ele>1820.121582</ele>
        <time>2011-09-24T10:44:30Z</time>
      </trkpt>
      <trkpt lat="42.56502" lon="2.06912">
        <ele>1815.594238</ele>
        <time>2011-09-24T10:44:32Z</time>
      </trkpt>
      <trkpt lat="42.5651" lon="2.06916">
        <ele>1812.280151</ele>
        <time>2011-09-24T10:44:34Z</time>
      </trkpt>
      <trkpt lat="42.56515" lon="2.06918">
        <ele>1810.949951</ele>
        <time>2011-09-24T10:44:35Z</time>
      </trkpt>
      <trkpt lat="42.5652" lon="2.06918">
        <ele>1810.710938</ele>
        <time>2011-09-24T10:44:37Z</time>
      </trkpt>
      <trkpt lat="42.56524" lon="2.06921">
        <ele>1809.01062</ele>
        <time>2011-09-24T10:44:39Z</time>
      </trkpt>
      <trkpt lat="42.56529" lon="2.06929">
        <ele>1806.038574</ele>
        <time>2011-09-24T10:44:41Z</time>
      </trkpt>
      <trkpt lat="42.56532" lon="2.06935">
        <ele>1804.804077</ele>
        <time>2011-09-24T10:44:42Z</time>
      </trkpt>
      <trkpt lat="42.56536" lon="2.0694">
        <ele>1803.938232</ele>
        <time>2011-09-24T10:44:43Z</time>
      </trkpt>
      <trkpt lat="42.56541" lon="2.06944">
        <ele>1803.415405</ele>
        <time>2011-09-24T10:44:44Z</time>
      </trkpt>
      <trkpt lat="42.56545" lon="2.06947">
        <ele>1803.129761</ele>
        <time>2011-09-24T10:44:45Z</time>
      </trkpt>
      <trkpt lat="42.56549" lon="2.0695">
        <ele>1802.995972</ele>
        <time>2011-09-24T10:44:47Z</time>
      </trkpt>
      <trkpt lat="42.56555" lon="2.06954">
        <ele>1802.817139</ele>
        <time>2011-09-24T10:44:49Z</time>
      </trkpt>
      <trkpt lat="42.5656" lon="2.06957">
        <ele>1802.694946</ele>
        <time>2011-09-24T10:44:50Z</time>
      </trkpt>
      <trkpt lat="42.56565" lon="2.0696">
        <ele>1802.528564</ele>
        <time>2011-09-24T10:44:51Z</time>
      </trkpt>
      <trkpt lat="42.56571" lon="2.06965">
        <ele>1802.152588</ele>
        <time>2011-09-24T10:44:53Z</time>
      </trkpt>
      <trkpt lat="42.56578" lon="2.06971">
        <ele>1801.754761</ele>
        <time>2011-09-24T10:44:55Z</time>
      </trkpt>
      <trkpt lat="42.56586" lon="2.06974">
        <ele>1799.008057</ele>
        <time>2011-09-24T10:44:57Z</time>
      </trkpt>
      <trkpt lat="42.56591" lon="2.06975">
        <ele>1796.781372</ele>
        <time>2011-09-24T10:44:58Z</time>
      </trkpt>
      <trkpt lat="42.566" lon="2.06977">
        <ele>1793.043457</ele>
        <time>2011-09-24T10:45:00Z</time>
      </trkpt>
      <trkpt lat="42.56605" lon="2.06978">
        <ele>1792.821411</ele>
        <time>2011-09-24T10:45:02Z</time>
      </trkpt>
      <trkpt lat="42.56615" lon="2.06979">
        <ele>1792.335571</ele>
        <time>2011-09-24T10:45:04Z</time>
      </trkpt>
      <trkpt lat="42.5662" lon="2.06981">
        <ele>1791.954834</ele>
        <time>2011-09-24T10:45:05Z</time>
      </trkpt>
      <trkpt lat="42.56627" lon="2.06982">
        <ele>1791.59314</ele>
        <time>2011-09-24T10:45:06Z</time>
      </trkpt>
      <trkpt lat="42.56635" lon="2.06984">
        <ele>1790.673462</ele>
        <time>2011-09-24T10:45:07Z</time>
      </trkpt>
      <trkpt lat="42.56645" lon="2.06984">
        <ele>1788.814087</ele>
        <time>2011-09-24T10:45:08Z</time>
      </trkpt>
      <trkpt lat="42.56651" lon="2.06984">
        <ele>1788.604614</ele>
        <time>2011-09-24T10:45:09Z</time>
      </trkpt>
      <trkpt lat="42.56656" lon="2.06983">
        <ele>1788.393433</ele>
        <time>2011-09-24T10:45:10Z</time>
      </trkpt>
      <trkpt lat="42.56662" lon="2.06983">
        <ele>1788.123535</ele>
        <time>2011-09-24T10:45:11Z</time>
      </trkpt>
      <trkpt lat="42.56668" lon="2.06983">
        <ele>1787.822266</ele>
        <time>2011-09-24T10:45:12Z</time>
      </trkpt>
      <trkpt lat="42.56673" lon="2.06982">
        <ele>1787.523315</ele>
        <time>2011-09-24T10:45:13Z</time>
      </trkpt>
      <trkpt lat="42.56679" lon="2.06981">
        <ele>1787.218872</ele>
        <time>2011-09-24T10:45:14Z</time>
      </trkpt>
      <trkpt lat="42.56683" lon="2.06982">
        <ele>1786.926758</ele>
        <time>2011-09-24T10:45:15Z</time>
      </trkpt>
      <trkpt lat="42.56688" lon="2.06983">
        <ele>1786.640381</ele>
        <time>2011-09-24T10:45:16Z</time>
      </trkpt>
      <trkpt lat="42.56692" lon="2.06982">
        <ele>1786.354736</ele>
        <time>2011-09-24T10:45:17Z</time>
      </trkpt>
      <trkpt lat="42.56697" lon="2.06981">
        <ele>1786.072144</ele>
        <time>2011-09-24T10:45:18Z</time>
      </trkpt>
      <trkpt lat="42.56702" lon="2.06979">
        <ele>1785.798706</ele>
        <time>2011-09-24T10:45:19Z</time>
      </trkpt>
      <trkpt lat="42.56706" lon="2.06977">
        <ele>1785.52417</ele>
        <time>2011-09-24T10:45:20Z</time>
      </trkpt>
      <trkpt lat="42.56712" lon="2.06978">
        <ele>1785.254883</ele>
        <time>2011-09-24T10:45:21Z</time>
      </trkpt>
      <trkpt lat="42.56717" lon="2.06977">
        <ele>1784.992432</ele>
        <time>2011-09-24T10:45:22Z</time>
      </trkpt>
      <trkpt lat="42.56722" lon="2.06976">
        <ele>1782.373901</ele>
        <time>2011-09-24T10:45:23Z</time>
      </trkpt>
      <trkpt lat="42.56729" lon="2.06974">
        <ele>1780.153076</ele>
        <time>2011-09-24T10:45:24Z</time>
      </trkpt>
      <trkpt lat="42.56735" lon="2.06973">
        <ele>1778.262939</ele>
        <time>2011-09-24T10:45:25Z</time>
      </trkpt>
      <trkpt lat="42.56742" lon="2.06971">
        <ele>1776.609497</ele>
        <time>2011-09-24T10:45:26Z</time>
      </trkpt>
      <trkpt lat="42.56748" lon="2.06968">
        <ele>1775.215576</ele>
        <time>2011-09-24T10:45:27Z</time>
      </trkpt>
      <trkpt lat="42.56753" lon="2.06966">
        <ele>1775.108032</ele>
        <time>2011-09-24T10:45:28Z</time>
      </trkpt>
      <trkpt lat="42.5676" lon="2.06964">
        <ele>1774.023438</ele>
        <time>2011-09-24T10:45:29Z</time>
      </trkpt>
      <trkpt lat="42.56765" lon="2.06962">
        <ele>1773.221313</ele>
        <time>2011-09-24T10:45:30Z</time>
      </trkpt>
      <trkpt lat="42.56769" lon="2.0696">
        <ele>1773.152344</ele>
        <time>2011-09-24T10:45:31Z</time>
      </trkpt>
      <trkpt lat="42.56774" lon="2.06957">
        <ele>1773.081543</ele>
        <time>2011-09-24T10:45:32Z</time>
      </trkpt>
      <trkpt lat="42.56779" lon="2.06956">
        <ele>1772.395508</ele>
        <time>2011-09-24T10:45:33Z</time>
      </trkpt>
      <trkpt lat="42.56785" lon="2.06953">
        <ele>1771.744995</ele>
        <time>2011-09-24T10:45:34Z</time>
      </trkpt>
      <trkpt lat="42.56791" lon="2.06951">
        <ele>1771.230835</ele>
        <time>2011-09-24T10:45:35Z</time>
      </trkpt>
      <trkpt lat="42.56797" lon="2.06948">
        <ele>1770.78064</ele>
        <time>2011-09-24T10:45:36Z</time>
      </trkpt>
      <trkpt lat="42.56803" lon="2.06945">
        <ele>1770.34021</ele>
        <time>2011-09-24T10:45:37Z</time>
      </trkpt>
      <trkpt lat="42.56809" lon="2.06941">
        <ele>1769.982178</ele>
        <time>2011-09-24T10:45:38Z</time>
      </trkpt>
      <trkpt lat="42.56815" lon="2.06938">
        <ele>1769.703491</ele>
        <time>2011-09-24T10:45:39Z</time>
      </trkpt>
      <trkpt lat="42.56822" lon="2.06933">
        <ele>1769.477539</ele>
        <time>2011-09-24T10:45:40Z</time>
      </trkpt>
      <trkpt lat="42.56829" lon="2.06929">
        <ele>1769.231567</ele>
        <time>2011-09-24T10:45:41Z</time>
      </trkpt>
      <trkpt lat="42.56838" lon="2.06927">
        <ele>1769.010986</ele>
        <time>2011-09-24T10:45:42Z</time>
      </trkpt>
      <trkpt lat="42.56846" lon="2.06928">
        <ele>1768.823364</ele>
        <time>2011-09-24T10:45:43Z</time>
      </trkpt>
      <trkpt lat="42.56855" lon="2.0693">
        <ele>1768.708984</ele>
        <time>2011-09-24T10:45:44Z</time>
      </trkpt>
      <trkpt lat="42.56862" lon="2.06932">
        <ele>1768.536499</ele>
        <time>2011-09-24T10:45:45Z</time>
      </trkpt>
      <trkpt lat="42.56868" lon="2.06935">
        <ele>1768.273682</ele>
        <time>2011-09-24T10:45:46Z</time>
      </trkpt>
      <trkpt lat="42.56875" lon="2.06939">
        <ele>1767.802002</ele>
        <time>2011-09-24T10:45:47Z</time>
      </trkpt>
      <trkpt lat="42.56881" lon="2.06944">
        <ele>1767.268799</ele>
        <time>2011-09-24T10:45:48Z</time>
      </trkpt>
      <trkpt lat="42.56887" lon="2.06948">
        <ele>1766.671997</ele>
        <time>2011-09-24T10:45:49Z</time>
      </trkpt>
      <trkpt lat="42.56894" lon="2.06951">
        <ele>1766.034668</ele>
        <time>2011-09-24T10:45:50Z</time>
      </trkpt>
      <trkpt lat="42.569" lon="2.06953">
        <ele>1765.388428</ele>
        <time>2011-09-24T10:45:51Z</time>
      </trkpt>
      <trkpt lat="42.56908" lon="2.06956">
        <ele>1764.828125</ele>
        <time>2011-09-24T10:45:52Z</time>
      </trkpt>
      <trkpt lat="42.56916" lon="2.06957">
        <ele>1764.32666</ele>
        <time>2011-09-24T10:45:53Z</time>
      </trkpt>
      <trkpt lat="42.56924" lon="2.06956">
        <ele>1763.846436</ele>
        <time>2011-09-24T10:45:54Z</time>
      </trkpt>
      <trkpt lat="42.56932" lon="2.06953">
        <ele>1763.200195</ele>
        <time>2011-09-24T10:45:55Z</time>
      </trkpt>
      <trkpt lat="42.5694" lon="2.06951">
        <ele>1762.472046</ele>
        <time>2011-09-24T10:45:56Z</time>
      </trkpt>
      <trkpt lat="42.56948" lon="2.06951">
        <ele>1761.663086</ele>
        <time>2011-09-24T10:45:57Z</time>
      </trkpt>
      <trkpt lat="42.56956" lon="2.06952">
        <ele>1760.849487</ele>
        <time>2011-09-24T10:45:58Z</time>
      </trkpt>
      <trkpt lat="42.56965" lon="2.06954">
        <ele>1759.965576</ele>
        <time>2011-09-24T10:45:59Z</time>
      </trkpt>
      <trkpt lat="42.56974" lon="2.06951">
        <ele>1759.026489</ele>
        <time>2011-09-24T10:46:00Z</time>
      </trkpt>
      <trkpt lat="42.56982" lon="2.06946">
        <ele>1758.03894</ele>
        <time>2011-09-24T10:46:01Z</time>
      </trkpt>
      <trkpt lat="42.56988" lon="2.06938">
        <ele>1756.964355</ele>
        <time>2011-09-24T10:46:02Z</time>
      </trkpt>
      <trkpt lat="42.56993" lon="2.0693">
        <ele>1755.972534</ele>
        <time>2011-09-24T10:46:03Z</time>
      </trkpt>
      <trkpt lat="42.56997" lon="2.06923">
        <ele>1755.008301</ele>
        <time>2011-09-24T10:46:04Z</time>
      </trkpt>
      <trkpt lat="42.57" lon="2.06917">
        <ele>1753.7229</ele>
        <time>2011-09-24T10:46:05Z</time>
      </trkpt>
      <trkpt lat="42.57004" lon="2.06913">
        <ele>1752.596436</ele>
        <time>2011-09-24T10:46:06Z</time>
      </trkpt>
      <trkpt lat="42.57011" lon="2.06906">
        <ele>1750.66394</ele>
        <time>2011-09-24T10:46:08Z</time>
      </trkpt>
      <trkpt lat="42.57014" lon="2.06901">
        <ele>1749.787231</ele>
        <time>2011-09-24T10:46:09Z</time>
      </trkpt>
      <trkpt lat="42.57018" lon="2.06895">
        <ele>1749.071899</ele>
        <time>2011-09-24T10:46:10Z</time>
      </trkpt>
      <trkpt lat="42.57021" lon="2.06891">
        <ele>1748.478149</ele>
        <time>2011-09-24T10:46:11Z</time>
      </trkpt>
      <trkpt lat="42.57027" lon="2.06884">
        <ele>1748.378052</ele>
        <time>2011-09-24T10:46:13Z</time>
      </trkpt>
      <trkpt lat="42.57032" lon="2.06877">
        <ele>1748.251953</ele>
        <time>2011-09-24T10:46:15Z</time>
      </trkpt>
      <trkpt lat="42.57037" lon="2.06871">
        <ele>1748.112549</ele>
        <time>2011-09-24T10:46:17Z</time>
      </trkpt>
      <trkpt lat="42.57042" lon="2.06866">
        <ele>1748.013672</ele>
        <time>2011-09-24T10:46:19Z</time>
      </trkpt>
      <trkpt lat="42.57046" lon="2.06862">
        <ele>1747.604858</ele>
        <time>2011-09-24T10:46:20Z</time>
      </trkpt>
      <trkpt lat="42.57052" lon="2.0686">
        <ele>1747.402954</ele>
        <time>2011-09-24T10:46:22Z</time>
      </trkpt>
      <trkpt lat="42.57058" lon="2.06859">
        <ele>1747.402954</ele>
        <time>2011-09-24T10:46:22Z</time>
      </trkpt>
      <trkpt lat="42.57067" lon="2.06855">
        <ele>1747.181641</ele>
        <time>2011-09-24T10:46:23Z</time>
      </trkpt>
      <trkpt lat="42.57076" lon="2.06851">
        <ele>1746.310547</ele>
        <time>2011-09-24T10:46:24Z</time>
      </trkpt>
      <trkpt lat="42.57085" lon="2.06848">
        <ele>1745.40979</ele>
        <time>2011-09-24T10:46:25Z</time>
      </trkpt>
      <trkpt lat="42.57094" lon="2.06845">
        <ele>1744.68457</ele>
        <time>2011-09-24T10:46:26Z</time>
      </trkpt>
      <trkpt lat="42.57104" lon="2.06846">
        <ele>1744.094727</ele>
        <time>2011-09-24T10:46:27Z</time>
      </trkpt>
      <trkpt lat="42.57113" lon="2.06846">
        <ele>1743.554443</ele>
        <time>2011-09-24T10:46:28Z</time>
      </trkpt>
      <trkpt lat="42.57121" lon="2.06847">
        <ele>1743.071777</ele>
        <time>2011-09-24T10:46:29Z</time>
      </trkpt>
      <trkpt lat="42.57129" lon="2.06849">
        <ele>1742.597534</ele>
        <time>2011-09-24T10:46:30Z</time>
      </trkpt>
      <trkpt lat="42.57138" lon="2.0685">
        <ele>1742.155151</ele>
        <time>2011-09-24T10:46:31Z</time>
      </trkpt>
      <trkpt lat="42.57147" lon="2.0685">
        <ele>1741.726562</ele>
        <time>2011-09-24T10:46:32Z</time>
      </trkpt>
      <trkpt lat="42.57156" lon="2.06849">
        <ele>1741.261963</ele>
        <time>2011-09-24T10:46:33Z</time>
      </trkpt>
      <trkpt lat="42.57164" lon="2.06849">
        <ele>1740.678345</ele>
        <time>2011-09-24T10:46:34Z</time>
      </trkpt>
      <trkpt lat="42.57173" lon="2.06848">
        <ele>1740.02478</ele>
        <time>2011-09-24T10:46:35Z</time>
      </trkpt>
      <trkpt lat="42.57179" lon="2.06848">
        <ele>1739.360474</ele>
        <time>2011-09-24T10:46:36Z</time>
      </trkpt>
      <trkpt lat="42.57186" lon="2.06848">
        <ele>1738.717773</ele>
        <time>2011-09-24T10:46:37Z</time>
      </trkpt>
      <trkpt lat="42.57192" lon="2.06848">
        <ele>1738.114502</ele>
        <time>2011-09-24T10:46:38Z</time>
      </trkpt>
      <trkpt lat="42.57199" lon="2.06847">
        <ele>1737.717285</ele>
        <time>2011-09-24T10:46:39Z</time>
      </trkpt>
      <trkpt lat="42.57205" lon="2.06846">
        <ele>1737.428467</ele>
        <time>2011-09-24T10:46:40Z</time>
      </trkpt>
      <trkpt lat="42.57211" lon="2.06845">
        <ele>1737.200562</ele>
        <time>2011-09-24T10:46:41Z</time>
      </trkpt>
      <trkpt lat="42.57217" lon="2.06844">
        <ele>1736.98938</ele>
        <time>2011-09-24T10:46:42Z</time>
      </trkpt>
      <trkpt lat="42.57224" lon="2.06843">
        <ele>1736.827026</ele>
        <time>2011-09-24T10:46:43Z</time>
      </trkpt>
      <trkpt lat="42.57231" lon="2.0684">
        <ele>1736.534058</ele>
        <time>2011-09-24T10:46:44Z</time>
      </trkpt>
      <trkpt lat="42.57239" lon="2.06838">
        <ele>1736.267456</ele>
        <time>2011-09-24T10:46:45Z</time>
      </trkpt>
      <trkpt lat="42.57248" lon="2.06835">
        <ele>1735.879395</ele>
        <time>2011-09-24T10:46:46Z</time>
      </trkpt>
      <trkpt lat="42.57256" lon="2.06833">
        <ele>1735.409668</ele>
        <time>2011-09-24T10:46:47Z</time>
      </trkpt>
      <trkpt lat="42.57264" lon="2.06831">
        <ele>1735.001709</ele>
        <time>2011-09-24T10:46:48Z</time>
      </trkpt>
      <trkpt lat="42.57273" lon="2.06829">
        <ele>1734.547607</ele>
        <time>2011-09-24T10:46:49Z</time>
      </trkpt>
      <trkpt lat="42.57282" lon="2.06826">
        <ele>1734.039062</ele>
        <time>2011-09-24T10:46:50Z</time>
      </trkpt>
      <trkpt lat="42.57291" lon="2.06823">
        <ele>1733.414307</ele>
        <time>2011-09-24T10:46:51Z</time>
      </trkpt>
      <trkpt lat="42.573" lon="2.0682">
        <ele>1732.870728</ele>
        <time>2011-09-24T10:46:52Z</time>
      </trkpt>
      <trkpt lat="42.57308" lon="2.06818">
        <ele>1732.486938</ele>
        <time>2011-09-24T10:46:53Z</time>
      </trkpt>
      <trkpt lat="42.57316" lon="2.06814">
        <ele>1732.248901</ele>
        <time>2011-09-24T10:46:54Z</time>
      </trkpt>
      <trkpt lat="42.57322" lon="2.06811">
        <ele>1731.705566</ele>
        <time>2011-09-24T10:46:55Z</time>
      </trkpt>
      <trkpt lat="42.57328" lon="2.06807">
        <ele>1731.1073</ele>
        <time>2011-09-24T10:46:56Z</time>
      </trkpt>
      <trkpt lat="42.57333" lon="2.06804">
        <ele>1730.510132</ele>
        <time>2011-09-24T10:46:57Z</time>
      </trkpt>
      <trkpt lat="42.57339" lon="2.06801">
        <ele>1729.653931</ele>
        <time>2011-09-24T10:46:58Z</time>
      </trkpt>
      <trkpt lat="42.57344" lon="2.068">
        <ele>1728.635498</ele>
        <time>2011-09-24T10:46:59Z</time>
      </trkpt>
      <trkpt lat="42.57351" lon="2.06799">
        <ele>1727.483154</ele>
        <time>2011-09-24T10:47:00Z</time>
      </trkpt>
      <trkpt lat="42.57358" lon="2.06799">
        <ele>1726.314575</ele>
        <time>2011-09-24T10:47:01Z</time>
      </trkpt>
      <trkpt lat="42.57366" lon="2.06799">
        <ele>1725.120239</ele>
        <time>2011-09-24T10:47:02Z</time>
      </trkpt>
      <trkpt lat="42.57374" lon="2.06799">
        <ele>1723.966064</ele>
        <time>2011-09-24T10:47:03Z</time>
      </trkpt>
      <trkpt lat="42.57383" lon="2.06799">
        <ele>1722.847168</ele>
        <time>2011-09-24T10:47:04Z</time>
      </trkpt>
      <trkpt lat="42.57391" lon="2.06799">
        <ele>1721.788574</ele>
        <time>2011-09-24T10:47:05Z</time>
      </trkpt>
      <trkpt lat="42.57401" lon="2.06799">
        <ele>1720.808716</ele>
        <time>2011-09-24T10:47:06Z</time>
      </trkpt>
      <trkpt lat="42.57411" lon="2.06801">
        <ele>1719.929688</ele>
        <time>2011-09-24T10:47:07Z</time>
      </trkpt>
      <trkpt lat="42.57422" lon="2.06803">
        <ele>1719.040771</ele>
        <time>2011-09-24T10:47:08Z</time>
      </trkpt>
      <trkpt lat="42.57433" lon="2.06805">
        <ele>1718.239502</ele>
        <time>2011-09-24T10:47:09Z</time>
      </trkpt>
      <trkpt lat="42.57443" lon="2.06802">
        <ele>1717.529175</ele>
        <time>2011-09-24T10:47:10Z</time>
      </trkpt>
      <trkpt lat="42.57451" lon="2.06796">
        <ele>1716.714478</ele>
        <time>2011-09-24T10:47:11Z</time>
      </trkpt>
      <trkpt lat="42.5746" lon="2.06789">
        <ele>1715.865967</ele>
        <time>2011-09-24T10:47:12Z</time>
      </trkpt>
      <trkpt lat="42.5747" lon="2.06781">
        <ele>1715.0271</ele>
        <time>2011-09-24T10:47:13Z</time>
      </trkpt>
      <trkpt lat="42.5748" lon="2.06777">
        <ele>1714.286743</ele>
        <time>2011-09-24T10:47:14Z</time>
      </trkpt>
      <trkpt lat="42.57491" lon="2.06776">
        <ele>1713.530518</ele>
        <time>2011-09-24T10:47:15Z</time>
      </trkpt>
      <trkpt lat="42.57502" lon="2.06776">
        <ele>1712.797607</ele>
        <time>2011-09-24T10:47:16Z</time>
      </trkpt>
      <trkpt lat="42.57513" lon="2.06777">
        <ele>1712.099243</ele>
        <time>2011-09-24T10:47:17Z</time>
      </trkpt>
      <trkpt lat="42.57524" lon="2.06778">
        <ele>1711.364258</ele>
        <time>2011-09-24T10:47:18Z</time>
      </trkpt>
      <trkpt lat="42.57534" lon="2.06781">
        <ele>1710.796143</ele>
        <time>2011-09-24T10:47:19Z</time>
      </trkpt>
      <trkpt lat="42.57544" lon="2.06785">
        <ele>1710.295776</ele>
        <time>2011-09-24T10:47:20Z</time>
      </trkpt>
      <trkpt lat="42.57552" lon="2.06791">
        <ele>1709.809937</ele>
        <time>2011-09-24T10:47:21Z</time>
      </trkpt>
      <trkpt lat="42.57558" lon="2.06797">
        <ele>1709.199707</ele>
        <time>2011-09-24T10:47:22Z</time>
      </trkpt>
      <trkpt lat="42.57563" lon="2.06803">
        <ele>1708.311523</ele>
        <time>2011-09-24T10:47:23Z</time>
      </trkpt>
      <trkpt lat="42.57563" lon="2.06814">
        <ele>1706.435059</ele>
        <time>2011-09-24T10:47:25Z</time>
      </trkpt>
      <trkpt lat="42.5756" lon="2.0682">
        <ele>1705.481934</ele>
        <time>2011-09-24T10:47:26Z</time>
      </trkpt>
      <trkpt lat="42.5755" lon="2.06824">
        <ele>1704.246582</ele>
        <time>2011-09-24T10:47:27Z</time>
      </trkpt>
      <trkpt lat="42.5754" lon="2.06829">
        <ele>1702.812866</ele>
        <time>2011-09-24T10:47:28Z</time>
      </trkpt>
      <trkpt lat="42.5753" lon="2.06836">
        <ele>1701.102173</ele>
        <time>2011-09-24T10:47:29Z</time>
      </trkpt>
      <trkpt lat="42.5752" lon="2.06845">
        <ele>1699.250122</ele>
        <time>2011-09-24T10:47:30Z</time>
      </trkpt>
      <trkpt lat="42.57513" lon="2.06858">
        <ele>1697.289795</ele>
        <time>2011-09-24T10:47:31Z</time>
      </trkpt>
      <trkpt lat="42.57508" lon="2.06873">
        <ele>1695.315674</ele>
        <time>2011-09-24T10:47:32Z</time>
      </trkpt>
      <trkpt lat="42.57504" lon="2.06889">
        <ele>1693.491455</ele>
        <time>2011-09-24T10:47:33Z</time>
      </trkpt>
      <trkpt lat="42.57502" lon="2.06903">
        <ele>1692.044189</ele>
        <time>2011-09-24T10:47:34Z</time>
      </trkpt>
      <trkpt lat="42.57501" lon="2.06915">
        <ele>1690.783203</ele>
        <time>2011-09-24T10:47:35Z</time>
      </trkpt>
      <trkpt lat="42.575" lon="2.06924">
        <ele>1689.731812</ele>
        <time>2011-09-24T10:47:36Z</time>
      </trkpt>
      <trkpt lat="42.575" lon="2.06932">
        <ele>1688.731201</ele>
        <time>2011-09-24T10:47:38Z</time>
      </trkpt>
      <trkpt lat="42.57493" lon="2.06936">
        <ele>1688.385254</ele>
        <time>2011-09-24T10:47:41Z</time>
      </trkpt>
      <trkpt lat="42.57486" lon="2.06941">
        <ele>1688.062012</ele>
        <time>2011-09-24T10:47:43Z</time>
      </trkpt>
      <trkpt lat="42.57481" lon="2.06947">
        <ele>1687.662231</ele>
        <time>2011-09-24T10:47:45Z</time>
      </trkpt>
      <trkpt lat="42.57477" lon="2.06951">
        <ele>1687.013428</ele>
        <time>2011-09-24T10:47:48Z</time>
      </trkpt>
      <trkpt lat="42.57473" lon="2.06955">
        <ele>1686.120483</ele>
        <time>2011-09-24T10:47:52Z</time>
      </trkpt>
      <trkpt lat="42.57467" lon="2.06954">
        <ele>1681.570435</ele>
        <time>2011-09-24T10:48:52Z</time>
      </trkpt>
      <trkpt lat="42.57462" lon="2.06951">
        <ele>1677.809082</ele>
        <time>2011-09-24T10:50:42Z</time>
      </trkpt>
      <trkpt lat="42.57465" lon="2.06956">
        <ele>1676.584839</ele>
        <time>2011-09-24T10:51:03Z</time>
      </trkpt>
      <trkpt lat="42.5747" lon="2.06956">
        <ele>1675.85083</ele>
        <time>2011-09-24T10:51:28Z</time>
      </trkpt>
      <trkpt lat="42.57467" lon="2.06951">
        <ele>1675.379028</ele>
        <time>2011-09-24T10:51:41Z</time>
      </trkpt>
      <trkpt lat="42.57462" lon="2.06951">
        <ele>1674.755859</ele>
        <time>2011-09-24T10:51:55Z</time>
      </trkpt>
      <trkpt lat="42.57458" lon="2.06952">
        <ele>1674.114502</ele>
        <time>2011-09-24T10:52:10Z</time>
      </trkpt>
      <trkpt lat="42.57462" lon="2.06952">
        <ele>1673.277222</ele>
        <time>2011-09-24T10:52:28Z</time>
      </trkpt>
      <trkpt lat="42.57467" lon="2.06953">
        <ele>1670.518799</ele>
        <time>2011-09-24T10:53:32Z</time>
      </trkpt>
      <trkpt lat="42.57462" lon="2.06952">
        <ele>1669.73584</ele>
        <time>2011-09-24T10:53:55Z</time>
      </trkpt>
      <trkpt lat="42.57458" lon="2.0695">
        <ele>1669.539429</ele>
        <time>2011-09-24T10:54:01Z</time>
      </trkpt>
      <trkpt lat="42.57458" lon="2.06943">
        <ele>1669.037231</ele>
        <time>2011-09-24T10:54:16Z</time>
      </trkpt>
      <trkpt lat="42.57461" lon="2.06948">
        <ele>1668.646973</ele>
        <time>2011-09-24T10:54:28Z</time>
      </trkpt>
      <trkpt lat="42.57462" lon="2.06954">
        <ele>1664.926636</ele>
        <time>2011-09-24T10:56:23Z</time>
      </trkpt>
      <trkpt lat="42.57456" lon="2.06948">
        <ele>1660.31311</ele>
        <time>2011-09-24T10:57:22Z</time>
      </trkpt>
      <trkpt lat="42.57463" lon="2.0695">
        <ele>1657.844604</ele>
        <time>2011-09-24T10:57:59Z</time>
      </trkpt>
      <trkpt lat="42.57469" lon="2.06942">
        <ele>1656.166138</ele>
        <time>2011-09-24T10:59:14Z</time>
      </trkpt>
      <trkpt lat="42.57466" lon="2.06948">
        <ele>1656.11853</ele>
        <time>2011-09-24T10:59:31Z</time>
      </trkpt>
      <trkpt lat="42.57463" lon="2.06952">
        <ele>1656.141846</ele>
        <time>2011-09-24T10:59:48Z</time>
      </trkpt>
      <trkpt lat="42.57466" lon="2.06947">
        <ele>1655.97644</ele>
        <time>2011-09-24T11:00:27Z</time>
      </trkpt>
      <trkpt lat="42.57461" lon="2.06949">
        <ele>1655.916992</ele>
        <time>2011-09-24T11:00:52Z</time>
      </trkpt>
      <trkpt lat="42.57463" lon="2.06943">
        <ele>1655.667236</ele>
        <time>2011-09-24T11:01:11Z</time>
      </trkpt>
      <trkpt lat="42.57462" lon="2.06949">
        <ele>1655.645386</ele>
        <time>2011-09-24T11:01:34Z</time>
      </trkpt>
      <trkpt lat="42.57457" lon="2.06947">
        <ele>1655.283081</ele>
        <time>2011-09-24T11:02:03Z</time>
      </trkpt>
      <trkpt lat="42.57455" lon="2.06953">
        <ele>1654.650391</ele>
        <time>2011-09-24T11:02:26Z</time>
      </trkpt>
      <trkpt lat="42.57458" lon="2.06958">
        <ele>1654.015625</ele>
        <time>2011-09-24T11:03:05Z</time>
      </trkpt>
      <trkpt lat="42.57451" lon="2.06955">
        <ele>1654.049561</ele>
        <time>2011-09-24T11:03:26Z</time>
      </trkpt>
      <trkpt lat="42.57455" lon="2.06954">
        <ele>1654.050415</ele>
        <time>2011-09-24T11:03:35Z</time>
      </trkpt>
      <trkpt lat="42.5746" lon="2.06951">
        <ele>1654.061646</ele>
        <time>2011-09-24T11:03:39Z</time>
      </trkpt>
      <trkpt lat="42.57462" lon="2.06946">
        <ele>1653.615356</ele>
        <time>2011-09-24T11:04:07Z</time>
      </trkpt>
      <trkpt lat="42.57463" lon="2.06952">
        <ele>1654.136353</ele>
        <time>2011-09-24T11:04:54Z</time>
      </trkpt>
      <trkpt lat="42.5746" lon="2.06957">
        <ele>1656.466309</ele>
        <time>2011-09-24T11:07:00Z</time>
      </trkpt>
      <trkpt lat="42.57455" lon="2.06961">
        <ele>1656.657471</ele>
        <time>2011-09-24T11:07:12Z</time>
      </trkpt>
      <trkpt lat="42.57456" lon="2.06955">
        <ele>1656.805908</ele>
        <time>2011-09-24T11:07:26Z</time>
      </trkpt>
      <trkpt lat="42.57464" lon="2.06949">
        <ele>1657.128174</ele>
        <time>2011-09-24T11:07:57Z</time>
      </trkpt>
      <trkpt lat="42.57469" lon="2.06949">
        <ele>1657.109741</ele>
        <time>2011-09-24T11:08:05Z</time>
      </trkpt>
      <trkpt lat="42.57465" lon="2.06947">
        <ele>1657.01355</ele>
        <time>2011-09-24T11:08:24Z</time>
      </trkpt>
      <trkpt lat="42.57463" lon="2.06953">
        <ele>1656.999634</ele>
        <time>2011-09-24T11:08:44Z</time>
      </trkpt>
      <trkpt lat="42.57459" lon="2.06957">
        <ele>1657.111206</ele>
        <time>2011-09-24T11:08:57Z</time>
      </trkpt>
      <trkpt lat="42.57458" lon="2.0695">
        <ele>1657.081299</ele>
        <time>2011-09-24T11:09:35Z</time>
      </trkpt>
      <trkpt lat="42.57461" lon="2.06946">
        <ele>1657.028198</ele>
        <time>2011-09-24T11:09:41Z</time>
      </trkpt>
      <trkpt lat="42.57466" lon="2.06946">
        <ele>1657.02771</ele>
        <time>2011-09-24T11:09:48Z</time>
      </trkpt>
      <trkpt lat="42.57466" lon="2.06946">
        <ele>1657.031616</ele>
        <time>2011-09-24T11:09:49Z</time>
      </trkpt>
      <trkpt lat="42.57464" lon="2.06952">
        <ele>1657.104858</ele>
        <time>2011-09-24T11:10:27Z</time>
      </trkpt>
      <trkpt lat="42.57468" lon="2.06954">
        <ele>1656.920166</ele>
        <time>2011-09-24T11:10:57Z</time>
      </trkpt>
      <trkpt lat="42.57472" lon="2.06951">
        <ele>1657.048096</ele>
        <time>2011-09-24T11:11:25Z</time>
      </trkpt>
      <trkpt lat="42.5747" lon="2.06956">
        <ele>1657.110596</ele>
        <time>2011-09-24T11:11:33Z</time>
      </trkpt>
      <trkpt lat="42.57467" lon="2.06961">
        <ele>1658.185181</ele>
        <time>2011-09-24T11:12:39Z</time>
      </trkpt>
      <trkpt lat="42.5747" lon="2.06956">
        <ele>1658.466309</ele>
        <time>2011-09-24T11:12:55Z</time>
      </trkpt>
      <trkpt lat="42.57467" lon="2.06952">
        <ele>1658.620239</ele>
        <time>2011-09-24T11:13:14Z</time>
      </trkpt>
      <trkpt lat="42.57461" lon="2.06952">
        <ele>1658.639893</ele>
        <time>2011-09-24T11:13:18Z</time>
      </trkpt>
      <trkpt lat="42.57457" lon="2.0695">
        <ele>1658.640503</ele>
        <time>2011-09-24T11:13:28Z</time>
      </trkpt>
      <trkpt lat="42.5746" lon="2.06956">
        <ele>1659.927368</ele>
        <time>2011-09-24T11:14:03Z</time>
      </trkpt>
      <trkpt lat="42.57462" lon="2.0695">
        <ele>1659.974487</ele>
        <time>2011-09-24T11:14:22Z</time>
      </trkpt>
      <trkpt lat="42.57465" lon="2.06944">
        <ele>1660.118896</ele>
        <time>2011-09-24T11:14:33Z</time>
      </trkpt>
      <trkpt lat="42.57465" lon="2.06943">
        <ele>1659.884766</ele>
        <time>2011-09-24T11:14:34Z</time>
      </trkpt>
      <trkpt lat="42.57465" lon="2.06942">
        <ele>1659.760254</ele>
        <time>2011-09-24T11:14:35Z</time>
      </trkpt>
      <trkpt lat="42.57459" lon="2.06951">
        <ele>1659.297119</ele>
        <time>2011-09-24T11:14:50Z</time>
      </trkpt>
      <trkpt lat="42.57457" lon="2.06957">
        <ele>1660.456543</ele>
        <time>2011-09-24T11:15:33Z</time>
      </trkpt>
      <trkpt lat="42.57453" lon="2.06962">
        <ele>1660.431885</ele>
        <time>2011-09-24T11:15:39Z</time>
      </trkpt>
      <trkpt lat="42.57457" lon="2.06966">
        <ele>1660.263672</ele>
        <time>2011-09-24T11:15:52Z</time>
      </trkpt>
      <trkpt lat="42.57461" lon="2.06969">
        <ele>1660.256348</ele>
        <time>2011-09-24T11:15:56Z</time>
      </trkpt>
      <trkpt lat="42.57464" lon="2.06964">
        <ele>1660.349365</ele>
        <time>2011-09-24T11:16:09Z</time>
      </trkpt>
      <trkpt lat="42.57461" lon="2.06958">
        <ele>1660.569458</ele>
        <time>2011-09-24T11:16:22Z</time>
      </trkpt>
      <trkpt lat="42.57463" lon="2.06952">
        <ele>1660.991821</ele>
        <time>2011-09-24T11:16:59Z</time>
      </trkpt>
      <trkpt lat="42.57467" lon="2.06953">
        <ele>1661.151733</ele>
        <time>2011-09-24T11:17:19Z</time>
      </trkpt>
      <trkpt lat="42.57465" lon="2.06958">
        <ele>1661.189331</ele>
        <time>2011-09-24T11:17:33Z</time>
      </trkpt>
      <trkpt lat="42.57466" lon="2.06965">
        <ele>1661.361206</ele>
        <time>2011-09-24T11:18:14Z</time>
      </trkpt>
      <trkpt lat="42.57462" lon="2.06963">
        <ele>1661.061157</ele>
        <time>2011-09-24T11:18:35Z</time>
      </trkpt>
      <trkpt lat="42.57462" lon="2.06969">
        <ele>1660.408813</ele>
        <time>2011-09-24T11:19:16Z</time>
      </trkpt>
      <trkpt lat="42.57459" lon="2.06964">
        <ele>1660.038574</ele>
        <time>2011-09-24T11:19:30Z</time>
      </trkpt>
      <trkpt lat="42.57461" lon="2.06958">
        <ele>1659.85437</ele>
        <time>2011-09-24T11:19:35Z</time>
      </trkpt>
      <trkpt lat="42.57465" lon="2.06961">
        <ele>1659.827026</ele>
        <time>2011-09-24T11:19:44Z</time>
      </trkpt>
      <trkpt lat="42.57463" lon="2.06967">
        <ele>1660.476196</ele>
        <time>2011-09-24T11:20:04Z</time>
      </trkpt>
      <trkpt lat="42.57459" lon="2.06965">
        <ele>1660.740845</ele>
        <time>2011-09-24T11:20:15Z</time>
      </trkpt>
      <trkpt lat="42.5746" lon="2.06959">
        <ele>1660.997681</ele>
        <time>2011-09-24T11:20:30Z</time>
      </trkpt>
      <trkpt lat="42.57463" lon="2.06955">
        <ele>1661.021484</ele>
        <time>2011-09-24T11:20:35Z</time>
      </trkpt>
      <trkpt lat="42.57467" lon="2.06951">
        <ele>1660.975952</ele>
        <time>2011-09-24T11:20:40Z</time>
      </trkpt>
      <trkpt lat="42.57471" lon="2.06953">
        <ele>1660.939697</ele>
        <time>2011-09-24T11:20:45Z</time>
      </trkpt>
      <trkpt lat="42.57466" lon="2.06954">
        <ele>1660.828247</ele>
        <time>2011-09-24T11:20:55Z</time>
      </trkpt>
      <trkpt lat="42.57462" lon="2.06952">
        <ele>1660.72937</ele>
        <time>2011-09-24T11:21:02Z</time>
      </trkpt>
      <trkpt lat="42.5746" lon="2.06958">
        <ele>1660.415039</ele>
        <time>2011-09-24T11:21:29Z</time>
      </trkpt>
      <trkpt lat="42.57463" lon="2.06964">
        <ele>1660.474731</ele>
        <time>2011-09-24T11:21:37Z</time>
      </trkpt>
      <trkpt lat="42.57466" lon="2.06968">
        <ele>1660.542236</ele>
        <time>2011-09-24T11:21:46Z</time>
      </trkpt>
      <trkpt lat="42.57466" lon="2.06962">
        <ele>1660.662109</ele>
        <time>2011-09-24T11:22:06Z</time>
      </trkpt>
      <trkpt lat="42.5747" lon="2.0696">
        <ele>1660.702148</ele>
        <time>2011-09-24T11:22:15Z</time>
      </trkpt>
      <trkpt lat="42.57475" lon="2.06963">
        <ele>1660.693237</ele>
        <time>2011-09-24T11:22:26Z</time>
      </trkpt>
      <trkpt lat="42.5747" lon="2.0696">
        <ele>1660.56897</ele>
        <time>2011-09-24T11:22:38Z</time>
      </trkpt>
      <trkpt lat="42.57465" lon="2.06958">
        <ele>1659.276978</ele>
        <time>2011-09-24T11:22:53Z</time>
      </trkpt>
      <trkpt lat="42.57463" lon="2.06951">
        <ele>1659.008301</ele>
        <time>2011-09-24T11:23:02Z</time>
      </trkpt>
      <trkpt lat="42.57467" lon="2.06952">
        <ele>1658.547485</ele>
        <time>2011-09-24T11:23:32Z</time>
      </trkpt>
      <trkpt lat="42.57472" lon="2.06954">
        <ele>1658.425171</ele>
        <time>2011-09-24T11:23:40Z</time>
      </trkpt>
      <trkpt lat="42.57476" lon="2.06957">
        <ele>1658.19043</ele>
        <time>2011-09-24T11:24:04Z</time>
      </trkpt>
      <trkpt lat="42.57477" lon="2.06951">
        <ele>1658.006958</ele>
        <time>2011-09-24T11:24:27Z</time>
      </trkpt>
      <trkpt lat="42.57472" lon="2.06951">
        <ele>1658.008179</ele>
        <time>2011-09-24T11:24:37Z</time>
      </trkpt>
      <trkpt lat="42.5747" lon="2.06946">
        <ele>1657.464233</ele>
        <time>2011-09-24T11:25:46Z</time>
      </trkpt>
      <trkpt lat="42.57474" lon="2.06949">
        <ele>1656.60791</ele>
        <time>2011-09-24T11:26:09Z</time>
      </trkpt>
      <trkpt lat="42.57469" lon="2.06948">
        <ele>1655.888184</ele>
        <time>2011-09-24T11:26:34Z</time>
      </trkpt>
      <trkpt lat="42.57466" lon="2.06943">
        <ele>1655.788452</ele>
        <time>2011-09-24T11:26:42Z</time>
      </trkpt>
      <trkpt lat="42.57462" lon="2.06945">
        <ele>1655.59668</ele>
        <time>2011-09-24T11:26:50Z</time>
      </trkpt>
      <trkpt lat="42.57459" lon="2.0695">
        <ele>1655.536011</ele>
        <time>2011-09-24T11:26:55Z</time>
      </trkpt>
      <trkpt lat="42.57456" lon="2.06955">
        <ele>1655.35376</ele>
        <time>2011-09-24T11:27:01Z</time>
      </trkpt>
      <trkpt lat="42.57458" lon="2.06949">
        <ele>1654.952881</ele>
        <time>2011-09-24T11:27:13Z</time>
      </trkpt>
      <trkpt lat="42.57463" lon="2.06947">
        <ele>1654.820801</ele>
        <time>2011-09-24T11:27:18Z</time>
      </trkpt>
      <trkpt lat="42.57468" lon="2.06946">
        <ele>1654.680298</ele>
        <time>2011-09-24T11:27:23Z</time>
      </trkpt>
      <trkpt lat="42.57472" lon="2.06942">
        <ele>1654.525635</ele>
        <time>2011-09-24T11:27:29Z</time>
      </trkpt>
      <trkpt lat="42.57475" lon="2.06947">
        <ele>1654.301758</ele>
        <time>2011-09-24T11:27:46Z</time>
      </trkpt>
      <trkpt lat="42.57475" lon="2.06947">
        <ele>1654.290283</ele>
        <time>2011-09-24T11:27:53Z</time>
      </trkpt>
      <trkpt lat="42.57479" lon="2.0695">
        <ele>1653.218262</ele>
        <time>2011-09-24T11:28:01Z</time>
      </trkpt>
      <trkpt lat="42.57474" lon="2.06951">
        <ele>1652.801147</ele>
        <time>2011-09-24T11:28:15Z</time>
      </trkpt>
      <trkpt lat="42.5747" lon="2.06947">
        <ele>1652.724121</ele>
        <time>2011-09-24T11:28:19Z</time>
      </trkpt>
      <trkpt lat="42.5747" lon="2.06947">
        <ele>1652.68457</ele>
        <time>2011-09-24T11:28:22Z</time>
      </trkpt>
      <trkpt lat="42.57466" lon="2.06943">
        <ele>1652.656982</ele>
        <time>2011-09-24T11:28:25Z</time>
      </trkpt>
      <trkpt lat="42.57462" lon="2.06947">
        <ele>1652.615723</ele>
        <time>2011-09-24T11:28:35Z</time>
      </trkpt>
      <trkpt lat="42.57467" lon="2.06946">
        <ele>1652.388672</ele>
        <time>2011-09-24T11:28:54Z</time>
      </trkpt>
      <trkpt lat="42.57467" lon="2.06946">
        <ele>1652.375488</ele>
        <time>2011-09-24T11:28:55Z</time>
      </trkpt>
      <trkpt lat="42.57468" lon="2.06952">
        <ele>1652.267212</ele>
        <time>2011-09-24T11:29:25Z</time>
      </trkpt>
      <trkpt lat="42.57472" lon="2.06955">
        <ele>1652.24707</ele>
        <time>2011-09-24T11:29:33Z</time>
      </trkpt>
      <trkpt lat="42.57472" lon="2.06955">
        <ele>1652.243896</ele>
        <time>2011-09-24T11:29:34Z</time>
      </trkpt>
      <trkpt lat="42.57467" lon="2.06954">
        <ele>1652.155762</ele>
        <time>2011-09-24T11:29:52Z</time>
      </trkpt>
      <trkpt lat="42.57472" lon="2.06953">
        <ele>1651.483643</ele>
        <time>2011-09-24T11:30:40Z</time>
      </trkpt>
      <trkpt lat="42.57477" lon="2.06951">
        <ele>1651.187256</ele>
        <time>2011-09-24T11:30:57Z</time>
      </trkpt>
      <trkpt lat="42.57472" lon="2.06953">
        <ele>1651.028198</ele>
        <time>2011-09-24T11:31:17Z</time>
      </trkpt>
      <trkpt lat="42.57467" lon="2.06951">
        <ele>1651.042969</ele>
        <time>2011-09-24T11:31:32Z</time>
      </trkpt>
      <trkpt lat="42.57463" lon="2.06951">
        <ele>1651.091797</ele>
        <time>2011-09-24T11:32:05Z</time>
      </trkpt>
      <trkpt lat="42.57461" lon="2.06957">
        <ele>1651.125</ele>
        <time>2011-09-24T11:32:12Z</time>
      </trkpt>
      <trkpt lat="42.57461" lon="2.06957">
        <ele>1651.144775</ele>
        <time>2011-09-24T11:32:13Z</time>
      </trkpt>
      <trkpt lat="42.57466" lon="2.06953">
        <ele>1652.30127</ele>
        <time>2011-09-24T11:32:44Z</time>
      </trkpt>
      <trkpt lat="42.57471" lon="2.06952">
        <ele>1652.397339</ele>
        <time>2011-09-24T11:32:49Z</time>
      </trkpt>
      <trkpt lat="42.57471" lon="2.06952">
        <ele>1652.585449</ele>
        <time>2011-09-24T11:32:50Z</time>
      </trkpt>
      <trkpt lat="42.57472" lon="2.06958">
        <ele>1652.770142</ele>
        <time>2011-09-24T11:33:03Z</time>
      </trkpt>
      <trkpt lat="42.57467" lon="2.06959">
        <ele>1652.8396</ele>
        <time>2011-09-24T11:33:12Z</time>
      </trkpt>
      <trkpt lat="42.57467" lon="2.06959">
        <ele>1652.846924</ele>
        <time>2011-09-24T11:33:13Z</time>
      </trkpt>
      <trkpt lat="42.57465" lon="2.06953">
        <ele>1652.900391</ele>
        <time>2011-09-24T11:33:20Z</time>
      </trkpt>
      <trkpt lat="42.57465" lon="2.06946">
        <ele>1652.952148</ele>
        <time>2011-09-24T11:33:26Z</time>
      </trkpt>
      <trkpt lat="42.57465" lon="2.06946">
        <ele>1652.970459</ele>
        <time>2011-09-24T11:33:28Z</time>
      </trkpt>
      <trkpt lat="42.57463" lon="2.06952">
        <ele>1653.133179</ele>
        <time>2011-09-24T11:33:46Z</time>
      </trkpt>
      <trkpt lat="42.57458" lon="2.06952">
        <ele>1653.324341</ele>
        <time>2011-09-24T11:34:40Z</time>
      </trkpt>
      <trkpt lat="42.57454" lon="2.06951">
        <ele>1653.436035</ele>
        <time>2011-09-24T11:34:44Z</time>
      </trkpt>
      <trkpt lat="42.5745" lon="2.06955">
        <ele>1653.77771</ele>
        <time>2011-09-24T11:34:58Z</time>
      </trkpt>
      <trkpt lat="42.57454" lon="2.06958">
        <ele>1654.127075</ele>
        <time>2011-09-24T11:35:22Z</time>
      </trkpt>
      <trkpt lat="42.57457" lon="2.06964">
        <ele>1654.202393</ele>
        <time>2011-09-24T11:35:30Z</time>
      </trkpt>
      <trkpt lat="42.57461" lon="2.06962">
        <ele>1654.234131</ele>
        <time>2011-09-24T11:35:38Z</time>
      </trkpt>
      <trkpt lat="42.57463" lon="2.06957">
        <ele>1654.267944</ele>
        <time>2011-09-24T11:35:45Z</time>
      </trkpt>
      <trkpt lat="42.57461" lon="2.06951">
        <ele>1654.565063</ele>
        <time>2011-09-24T11:36:11Z</time>
      </trkpt>
      <trkpt lat="42.5746" lon="2.06958">
        <ele>1654.858887</ele>
        <time>2011-09-24T11:36:25Z</time>
      </trkpt>
      <trkpt lat="42.5746" lon="2.06958">
        <ele>1654.900879</ele>
        <time>2011-09-24T11:36:27Z</time>
      </trkpt>
      <trkpt lat="42.57463" lon="2.06954">
        <ele>1656.167847</ele>
        <time>2011-09-24T11:37:16Z</time>
      </trkpt>
      <trkpt lat="42.57459" lon="2.06956">
        <ele>1656.517822</ele>
        <time>2011-09-24T11:37:33Z</time>
      </trkpt>
      <trkpt lat="42.57456" lon="2.06951">
        <ele>1656.635986</ele>
        <time>2011-09-24T11:37:38Z</time>
      </trkpt>
      <trkpt lat="42.57451" lon="2.06957">
        <ele>1657.337158</ele>
        <time>2011-09-24T11:37:56Z</time>
      </trkpt>
      <trkpt lat="42.57448" lon="2.06964">
        <ele>1657.406006</ele>
        <time>2011-09-24T11:37:59Z</time>
      </trkpt>
      <trkpt lat="42.57446" lon="2.06957">
        <ele>1657.72644</ele>
        <time>2011-09-24T11:38:15Z</time>
      </trkpt>
      <trkpt lat="42.57451" lon="2.06956">
        <ele>1657.833862</ele>
        <time>2011-09-24T11:38:20Z</time>
      </trkpt>
      <trkpt lat="42.57453" lon="2.06962">
        <ele>1658.03833</ele>
        <time>2011-09-24T11:38:30Z</time>
      </trkpt>
      <trkpt lat="42.5745" lon="2.06957">
        <ele>1658.723755</ele>
        <time>2011-09-24T11:39:03Z</time>
      </trkpt>
      <trkpt lat="42.57454" lon="2.0695">
        <ele>1658.998291</ele>
        <time>2011-09-24T11:39:18Z</time>
      </trkpt>
      <trkpt lat="42.57457" lon="2.06944">
        <ele>1659.050049</ele>
        <time>2011-09-24T11:39:20Z</time>
      </trkpt>
      <trkpt lat="42.5746" lon="2.0694">
        <ele>1659.107056</ele>
        <time>2011-09-24T11:39:22Z</time>
      </trkpt>
      <trkpt lat="42.57465" lon="2.0694">
        <ele>1659.22522</ele>
        <time>2011-09-24T11:39:26Z</time>
      </trkpt>
      <trkpt lat="42.57468" lon="2.06945">
        <ele>1659.412476</ele>
        <time>2011-09-24T11:39:32Z</time>
      </trkpt>
      <trkpt lat="42.57469" lon="2.06952">
        <ele>1659.583496</ele>
        <time>2011-09-24T11:39:37Z</time>
      </trkpt>
      <trkpt lat="42.57469" lon="2.06958">
        <ele>1660.578613</ele>
        <time>2011-09-24T11:40:02Z</time>
      </trkpt>
      <trkpt lat="42.57466" lon="2.06953">
        <ele>1661.054932</ele>
        <time>2011-09-24T11:40:14Z</time>
      </trkpt>
      <trkpt lat="42.57464" lon="2.06947">
        <ele>1661.401489</ele>
        <time>2011-09-24T11:40:21Z</time>
      </trkpt>
      <trkpt lat="42.57464" lon="2.06947">
        <ele>1661.611694</ele>
        <time>2011-09-24T11:40:24Z</time>
      </trkpt>
      <trkpt lat="42.57467" lon="2.06942">
        <ele>1661.765381</ele>
        <time>2011-09-24T11:40:26Z</time>
      </trkpt>
      <trkpt lat="42.57467" lon="2.06942">
        <ele>1662.717407</ele>
        <time>2011-09-24T11:40:40Z</time>
      </trkpt>
      <trkpt lat="42.57468" lon="2.06948">
        <ele>1662.838989</ele>
        <time>2011-09-24T11:40:42Z</time>
      </trkpt>
      <trkpt lat="42.57463" lon="2.06947">
        <ele>1667.615356</ele>
        <time>2011-09-24T11:41:54Z</time>
      </trkpt>
      <trkpt lat="42.57463" lon="2.06947">
        <ele>1667.78064</ele>
        <time>2011-09-24T11:41:57Z</time>
      </trkpt>
      <trkpt lat="42.57459" lon="2.06946">
        <ele>1669.036865</ele>
        <time>2011-09-24T11:42:03Z</time>
      </trkpt>
      <trkpt lat="42.57454" lon="2.06948">
        <ele>1669.315552</ele>
        <time>2011-09-24T11:42:09Z</time>
      </trkpt>
      <trkpt lat="42.57456" lon="2.06954">
        <ele>1669.844971</ele>
        <time>2011-09-24T11:42:26Z</time>
      </trkpt>
      <trkpt lat="42.57452" lon="2.06958">
        <ele>1670.064087</ele>
        <time>2011-09-24T11:42:37Z</time>
      </trkpt>
      <trkpt lat="42.5745" lon="2.06952">
        <ele>1670.651123</ele>
        <time>2011-09-24T11:42:47Z</time>
      </trkpt>
      <trkpt lat="42.57455" lon="2.06954">
        <ele>1672.841797</ele>
        <time>2011-09-24T11:43:11Z</time>
      </trkpt>
      <trkpt lat="42.57455" lon="2.06954">
        <ele>1672.891724</ele>
        <time>2011-09-24T11:43:12Z</time>
      </trkpt>
      <trkpt lat="42.57453" lon="2.0696">
        <ele>1678.551025</ele>
        <time>2011-09-24T11:44:02Z</time>
      </trkpt>
      <trkpt lat="42.57449" lon="2.06964">
        <ele>1678.651367</ele>
        <time>2011-09-24T11:44:10Z</time>
      </trkpt>
      <trkpt lat="42.57445" lon="2.0696">
        <ele>1678.710205</ele>
        <time>2011-09-24T11:44:20Z</time>
      </trkpt>
      <trkpt lat="42.57446" lon="2.06952">
        <ele>1678.747559</ele>
        <time>2011-09-24T11:44:24Z</time>
      </trkpt>
      <trkpt lat="42.57448" lon="2.06958">
        <ele>1678.943481</ele>
        <time>2011-09-24T11:44:46Z</time>
      </trkpt>
      <trkpt lat="42.57449" lon="2.06965">
        <ele>1679.231445</ele>
        <time>2011-09-24T11:45:14Z</time>
      </trkpt>
      <trkpt lat="42.57454" lon="2.06965">
        <ele>1679.266479</ele>
        <time>2011-09-24T11:45:23Z</time>
      </trkpt>
      <trkpt lat="42.57458" lon="2.06958">
        <ele>1679.271118</ele>
        <time>2011-09-24T11:45:27Z</time>
      </trkpt>
      <trkpt lat="42.57461" lon="2.06954">
        <ele>1679.275146</ele>
        <time>2011-09-24T11:45:30Z</time>
      </trkpt>
      <trkpt lat="42.57466" lon="2.06955">
        <ele>1679.277222</ele>
        <time>2011-09-24T11:45:35Z</time>
      </trkpt>
      <trkpt lat="42.5747" lon="2.06954">
        <ele>1679.268066</ele>
        <time>2011-09-24T11:45:43Z</time>
      </trkpt>
      <trkpt lat="42.57466" lon="2.06951">
        <ele>1679.230347</ele>
        <time>2011-09-24T11:45:54Z</time>
      </trkpt>
      <trkpt lat="42.57466" lon="2.06951">
        <ele>1679.258179</ele>
        <time>2011-09-24T11:46:04Z</time>
      </trkpt>
      <trkpt lat="42.57462" lon="2.0695">
        <ele>1679.261841</ele>
        <time>2011-09-24T11:46:13Z</time>
      </trkpt>
      <trkpt lat="42.5746" lon="2.06955">
        <ele>1678.938721</ele>
        <time>2011-09-24T11:46:33Z</time>
      </trkpt>
      <trkpt lat="42.57465" lon="2.06958">
        <ele>1677.368652</ele>
        <time>2011-09-24T11:46:48Z</time>
      </trkpt>
      <trkpt lat="42.5747" lon="2.06958">
        <ele>1676.960083</ele>
        <time>2011-09-24T11:46:51Z</time>
      </trkpt>
      <trkpt lat="42.57475" lon="2.06957">
        <ele>1676.852051</ele>
        <time>2011-09-24T11:46:54Z</time>
      </trkpt>
      <trkpt lat="42.57475" lon="2.06957">
        <ele>1676.74292</ele>
        <time>2011-09-24T11:46:57Z</time>
      </trkpt>
      <trkpt lat="42.5748" lon="2.06955">
        <ele>1676.706665</ele>
        <time>2011-09-24T11:46:58Z</time>
      </trkpt>
      <trkpt lat="42.57476" lon="2.06953">
        <ele>1676.012207</ele>
        <time>2011-09-24T11:47:17Z</time>
      </trkpt>
      <trkpt lat="42.57476" lon="2.06953">
        <ele>1675.934937</ele>
        <time>2011-09-24T11:47:19Z</time>
      </trkpt>
      <trkpt lat="42.57472" lon="2.06951">
        <ele>1675.575195</ele>
        <time>2011-09-24T11:47:28Z</time>
      </trkpt>
      <trkpt lat="42.57467" lon="2.06952">
        <ele>1673.227295</ele>
        <time>2011-09-24T11:48:22Z</time>
      </trkpt>
      <trkpt lat="42.57467" lon="2.06952">
        <ele>1672.932983</ele>
        <time>2011-09-24T11:48:24Z</time>
      </trkpt>
      <trkpt lat="42.57462" lon="2.06954">
        <ele>1672.639771</ele>
        <time>2011-09-24T11:48:34Z</time>
      </trkpt>
      <trkpt lat="42.57462" lon="2.06954">
        <ele>1672.610107</ele>
        <time>2011-09-24T11:48:35Z</time>
      </trkpt>
      <trkpt lat="42.57458" lon="2.06958">
        <ele>1672.433716</ele>
        <time>2011-09-24T11:48:41Z</time>
      </trkpt>
      <trkpt lat="42.57458" lon="2.06958">
        <ele>1672.405762</ele>
        <time>2011-09-24T11:48:42Z</time>
      </trkpt>
      <trkpt lat="42.57463" lon="2.06956">
        <ele>1672.096436</ele>
        <time>2011-09-24T11:48:54Z</time>
      </trkpt>
      <trkpt lat="42.57468" lon="2.06952">
        <ele>1671.901733</ele>
        <time>2011-09-24T11:49:01Z</time>
      </trkpt>
      <trkpt lat="42.5747" lon="2.06945">
        <ele>1671.834595</ele>
        <time>2011-09-24T11:49:04Z</time>
      </trkpt>
      <trkpt lat="42.57473" lon="2.06941">
        <ele>1671.73291</ele>
        <time>2011-09-24T11:49:09Z</time>
      </trkpt>
      <trkpt lat="42.57474" lon="2.06947">
        <ele>1671.554321</ele>
        <time>2011-09-24T11:49:19Z</time>
      </trkpt>
      <trkpt lat="42.57469" lon="2.06947">
        <ele>1670.967773</ele>
        <time>2011-09-24T11:49:46Z</time>
      </trkpt>
      <trkpt lat="42.57469" lon="2.06947">
        <ele>1670.938965</ele>
        <time>2011-09-24T11:49:47Z</time>
      </trkpt>
      <trkpt lat="42.57465" lon="2.06945">
        <ele>1670.104736</ele>
        <time>2011-09-24T11:50:12Z</time>
      </trkpt>
      <trkpt lat="42.57465" lon="2.06945">
        <ele>1670.078247</ele>
        <time>2011-09-24T11:50:13Z</time>
      </trkpt>
      <trkpt lat="42.57465" lon="2.06952">
        <ele>1669.821899</ele>
        <time>2011-09-24T11:50:22Z</time>
      </trkpt>
      <trkpt lat="42.5747" lon="2.0695">
        <ele>1669.335327</ele>
        <time>2011-09-24T11:50:36Z</time>
      </trkpt>
      <trkpt lat="42.5747" lon="2.0695">
        <ele>1669.302002</ele>
        <time>2011-09-24T11:50:37Z</time>
      </trkpt>
      <trkpt lat="42.57466" lon="2.06953">
        <ele>1668.786865</ele>
        <time>2011-09-24T11:50:51Z</time>
      </trkpt>
      <trkpt lat="42.57466" lon="2.06953">
        <ele>1668.61853</ele>
        <time>2011-09-24T11:50:52Z</time>
      </trkpt>
      <trkpt lat="42.57462" lon="2.06958">
        <ele>1668.552856</ele>
        <time>2011-09-24T11:50:56Z</time>
      </trkpt>
      <trkpt lat="42.57463" lon="2.06952">
        <ele>1668.283203</ele>
        <time>2011-09-24T11:51:11Z</time>
      </trkpt>
      <trkpt lat="42.57467" lon="2.06956">
        <ele>1667.831543</ele>
        <time>2011-09-24T11:51:27Z</time>
      </trkpt>
      <trkpt lat="42.57465" lon="2.06962">
        <ele>1667.10083</ele>
        <time>2011-09-24T11:51:45Z</time>
      </trkpt>
      <trkpt lat="42.57461" lon="2.06966">
        <ele>1667.0354</ele>
        <time>2011-09-24T11:51:49Z</time>
      </trkpt>
      <trkpt lat="42.57458" lon="2.0696">
        <ele>1666.814453</ele>
        <time>2011-09-24T11:52:07Z</time>
      </trkpt>
      <trkpt lat="42.57453" lon="2.06958">
        <ele>1666.242432</ele>
        <time>2011-09-24T11:52:21Z</time>
      </trkpt>
      <trkpt lat="42.57448" lon="2.06956">
        <ele>1666.10791</ele>
        <time>2011-09-24T11:52:26Z</time>
      </trkpt>
      <trkpt lat="42.57453" lon="2.06957">
        <ele>1665.530396</ele>
        <time>2011-09-24T11:52:48Z</time>
      </trkpt>
      <trkpt lat="42.57458" lon="2.06959">
        <ele>1665.401001</ele>
        <time>2011-09-24T11:52:52Z</time>
      </trkpt>
      <trkpt lat="42.57463" lon="2.06958">
        <ele>1665.24353</ele>
        <time>2011-09-24T11:52:56Z</time>
      </trkpt>
      <trkpt lat="42.57464" lon="2.06951">
        <ele>1664.297729</ele>
        <time>2011-09-24T11:53:21Z</time>
      </trkpt>
      <trkpt lat="42.57468" lon="2.06955">
        <ele>1664.192871</ele>
        <time>2011-09-24T11:53:35Z</time>
      </trkpt>
      <trkpt lat="42.57463" lon="2.06956">
        <ele>1664.203979</ele>
        <time>2011-09-24T11:53:47Z</time>
      </trkpt>
      <trkpt lat="42.57459" lon="2.06959">
        <ele>1664.289795</ele>
        <time>2011-09-24T11:53:55Z</time>
      </trkpt>
      <trkpt lat="42.5746" lon="2.06952">
        <ele>1664.657104</ele>
        <time>2011-09-24T11:54:35Z</time>
      </trkpt>
      <trkpt lat="42.57463" lon="2.06956">
        <ele>1663.711182</ele>
        <time>2011-09-24T11:55:46Z</time>
      </trkpt>
      <trkpt lat="42.57463" lon="2.0695">
        <ele>1663.620605</ele>
        <time>2011-09-24T11:56:04Z</time>
      </trkpt>
      <trkpt lat="42.57464" lon="2.06941">
        <ele>1663.621948</ele>
        <time>2011-09-24T11:57:53Z</time>
      </trkpt>
      <trkpt lat="42.57466" lon="2.06946">
        <ele>1663.477417</ele>
        <time>2011-09-24T11:58:02Z</time>
      </trkpt>
      <trkpt lat="42.57466" lon="2.06952">
        <ele>1663.365601</ele>
        <time>2011-09-24T11:58:07Z</time>
      </trkpt>
      <trkpt lat="42.57462" lon="2.06951">
        <ele>1663.03894</ele>
        <time>2011-09-24T11:58:27Z</time>
      </trkpt>
      <trkpt lat="42.57458" lon="2.06946">
        <ele>1662.933716</ele>
        <time>2011-09-24T11:58:36Z</time>
      </trkpt>
      <trkpt lat="42.57462" lon="2.06951">
        <ele>1662.386475</ele>
        <time>2011-09-24T11:58:52Z</time>
      </trkpt>
      <trkpt lat="42.57464" lon="2.06945">
        <ele>1663.735107</ele>
        <time>2011-09-24T11:59:30Z</time>
      </trkpt>
      <trkpt lat="42.57469" lon="2.06942">
        <ele>1664.299072</ele>
        <time>2011-09-24T11:59:33Z</time>
      </trkpt>
      <trkpt lat="42.57474" lon="2.06938">
        <ele>1664.827148</ele>
        <time>2011-09-24T11:59:36Z</time>
      </trkpt>
      <trkpt lat="42.57478" lon="2.06934">
        <ele>1665.334229</ele>
        <time>2011-09-24T11:59:39Z</time>
      </trkpt>
      <trkpt lat="42.57484" lon="2.06933">
        <ele>1665.813599</ele>
        <time>2011-09-24T11:59:42Z</time>
      </trkpt>
      <trkpt lat="42.57489" lon="2.0693">
        <ele>1666.401978</ele>
        <time>2011-09-24T11:59:46Z</time>
      </trkpt>
      <trkpt lat="42.57495" lon="2.06926">
        <ele>1667.378418</ele>
        <time>2011-09-24T11:59:55Z</time>
      </trkpt>
      <trkpt lat="42.5749" lon="2.06928">
        <ele>1667.619751</ele>
        <time>2011-09-24T12:00:05Z</time>
      </trkpt>
      <trkpt lat="42.57485" lon="2.06926">
        <ele>1666.860718</ele>
        <time>2011-09-24T12:00:12Z</time>
      </trkpt>
      <trkpt lat="42.57481" lon="2.06922">
        <ele>1666.43396</ele>
        <time>2011-09-24T12:00:17Z</time>
      </trkpt>
      <trkpt lat="42.57478" lon="2.06927">
        <ele>1664.706665</ele>
        <time>2011-09-24T12:01:03Z</time>
      </trkpt>
      <trkpt lat="42.57477" lon="2.06933">
        <ele>1664.511719</ele>
        <time>2011-09-24T12:01:17Z</time>
      </trkpt>
      <trkpt lat="42.57479" lon="2.06939">
        <ele>1662.422729</ele>
        <time>2011-09-24T12:01:48Z</time>
      </trkpt>
      <trkpt lat="42.57479" lon="2.06939">
        <ele>1662.376709</ele>
        <time>2011-09-24T12:01:51Z</time>
      </trkpt>
      <trkpt lat="42.57477" lon="2.06945">
        <ele>1661.612549</ele>
        <time>2011-09-24T12:02:11Z</time>
      </trkpt>
      <trkpt lat="42.57476" lon="2.06937">
        <ele>1660.750244</ele>
        <time>2011-09-24T12:02:21Z</time>
      </trkpt>
      <trkpt lat="42.57476" lon="2.06931">
        <ele>1660.541992</ele>
        <time>2011-09-24T12:02:23Z</time>
      </trkpt>
      <trkpt lat="42.57475" lon="2.06927">
        <ele>1660.456055</ele>
        <time>2011-09-24T12:02:24Z</time>
      </trkpt>
      <trkpt lat="42.57471" lon="2.06916">
        <ele>1660.316284</ele>
        <time>2011-09-24T12:02:26Z</time>
      </trkpt>
      <trkpt lat="42.5747" lon="2.0691">
        <ele>1660.259644</ele>
        <time>2011-09-24T12:02:27Z</time>
      </trkpt>
      <trkpt lat="42.57468" lon="2.06898">
        <ele>1660.162354</ele>
        <time>2011-09-24T12:02:29Z</time>
      </trkpt>
      <trkpt lat="42.57468" lon="2.06892">
        <ele>1660.131104</ele>
        <time>2011-09-24T12:02:30Z</time>
      </trkpt>
      <trkpt lat="42.57469" lon="2.06886">
        <ele>1660.108521</ele>
        <time>2011-09-24T12:02:31Z</time>
      </trkpt>
      <trkpt lat="42.57469" lon="2.06879">
        <ele>1660.087036</ele>
        <time>2011-09-24T12:02:32Z</time>
      </trkpt>
      <trkpt lat="42.57469" lon="2.06873">
        <ele>1660.072876</ele>
        <time>2011-09-24T12:02:33Z</time>
      </trkpt>
      <trkpt lat="42.57469" lon="2.06866">
        <ele>1660.076904</ele>
        <time>2011-09-24T12:02:34Z</time>
      </trkpt>
      <trkpt lat="42.57469" lon="2.06854">
        <ele>1660.151733</ele>
        <time>2011-09-24T12:02:36Z</time>
      </trkpt>
      <trkpt lat="42.57469" lon="2.06848">
        <ele>1660.850098</ele>
        <time>2011-09-24T12:02:37Z</time>
      </trkpt>
      <trkpt lat="42.57469" lon="2.06841">
        <ele>1661.588379</ele>
        <time>2011-09-24T12:02:38Z</time>
      </trkpt>
      <trkpt lat="42.57469" lon="2.06835">
        <ele>1662.356812</ele>
        <time>2011-09-24T12:02:39Z</time>
      </trkpt>
      <trkpt lat="42.57469" lon="2.06828">
        <ele>1663.018555</ele>
        <time>2011-09-24T12:02:40Z</time>
      </trkpt>
      <trkpt lat="42.57469" lon="2.06821">
        <ele>1663.74353</ele>
        <time>2011-09-24T12:02:41Z</time>
      </trkpt>
      <trkpt lat="42.57469" lon="2.06814">
        <ele>1664.504639</ele>
        <time>2011-09-24T12:02:42Z</time>
      </trkpt>
      <trkpt lat="42.57469" lon="2.06808">
        <ele>1664.568237</ele>
        <time>2011-09-24T12:02:43Z</time>
      </trkpt>
      <trkpt lat="42.57469" lon="2.06802">
        <ele>1664.651611</ele>
        <time>2011-09-24T12:02:44Z</time>
      </trkpt>
      <trkpt lat="42.57469" lon="2.06789">
        <ele>1665.842529</ele>
        <time>2011-09-24T12:02:46Z</time>
      </trkpt>
      <trkpt lat="42.57468" lon="2.06778">
        <ele>1666.060303</ele>
        <time>2011-09-24T12:02:48Z</time>
      </trkpt>
      <trkpt lat="42.57467" lon="2.06767">
        <ele>1666.321289</ele>
        <time>2011-09-24T12:02:50Z</time>
      </trkpt>
      <trkpt lat="42.57467" lon="2.06756">
        <ele>1666.618896</ele>
        <time>2011-09-24T12:02:52Z</time>
      </trkpt>
      <trkpt lat="42.57467" lon="2.06746">
        <ele>1668.320679</ele>
        <time>2011-09-24T12:02:54Z</time>
      </trkpt>
      <trkpt lat="42.57467" lon="2.06734">
        <ele>1670.919189</ele>
        <time>2011-09-24T12:02:56Z</time>
      </trkpt>
      <trkpt lat="42.57467" lon="2.06727">
        <ele>1672.120972</ele>
        <time>2011-09-24T12:02:57Z</time>
      </trkpt>
      <trkpt lat="42.57467" lon="2.06721">
        <ele>1673.302856</ele>
        <time>2011-09-24T12:02:58Z</time>
      </trkpt>
      <trkpt lat="42.57467" lon="2.06714">
        <ele>1674.451782</ele>
        <time>2011-09-24T12:02:59Z</time>
      </trkpt>
      <trkpt lat="42.57467" lon="2.06708">
        <ele>1675.554199</ele>
        <time>2011-09-24T12:03:00Z</time>
      </trkpt>
      <trkpt lat="42.57466" lon="2.06697">
        <ele>1677.550781</ele>
        <time>2011-09-24T12:03:02Z</time>
      </trkpt>
      <trkpt lat="42.57466" lon="2.06687">
        <ele>1679.456543</ele>
        <time>2011-09-24T12:03:04Z</time>
      </trkpt>
      <trkpt lat="42.57465" lon="2.06677">
        <ele>1681.143433</ele>
        <time>2011-09-24T12:03:06Z</time>
      </trkpt>
      <trkpt lat="42.57464" lon="2.06668">
        <ele>1682.020264</ele>
        <time>2011-09-24T12:03:07Z</time>
      </trkpt>
      <trkpt lat="42.57462" lon="2.06659">
        <ele>1682.145508</ele>
        <time>2011-09-24T12:03:09Z</time>
      </trkpt>
      <trkpt lat="42.57462" lon="2.06652">
        <ele>1682.32605</ele>
        <time>2011-09-24T12:03:11Z</time>
      </trkpt>
      <trkpt lat="42.5746" lon="2.06644">
        <ele>1682.524292</ele>
        <time>2011-09-24T12:03:13Z</time>
      </trkpt>
      <trkpt lat="42.57459" lon="2.06635">
        <ele>1682.738403</ele>
        <time>2011-09-24T12:03:15Z</time>
      </trkpt>
      <trkpt lat="42.57458" lon="2.06628">
        <ele>1682.981934</ele>
        <time>2011-09-24T12:03:17Z</time>
      </trkpt>
      <trkpt lat="42.57456" lon="2.06622">
        <ele>1683.30957</ele>
        <time>2011-09-24T12:03:19Z</time>
      </trkpt>
      <trkpt lat="42.57454" lon="2.06613">
        <ele>1684.006714</ele>
        <time>2011-09-24T12:03:22Z</time>
      </trkpt>
      <trkpt lat="42.57452" lon="2.06607">
        <ele>1684.617798</ele>
        <time>2011-09-24T12:03:24Z</time>
      </trkpt>
      <trkpt lat="42.5745" lon="2.06598">
        <ele>1685.305176</ele>
        <time>2011-09-24T12:03:26Z</time>
      </trkpt>
      <trkpt lat="42.57448" lon="2.06589">
        <ele>1686.057129</ele>
        <time>2011-09-24T12:03:28Z</time>
      </trkpt>
      <trkpt lat="42.57447" lon="2.0658">
        <ele>1686.926392</ele>
        <time>2011-09-24T12:03:30Z</time>
      </trkpt>
      <trkpt lat="42.57446" lon="2.06571">
        <ele>1687.893555</ele>
        <time>2011-09-24T12:03:32Z</time>
      </trkpt>
      <trkpt lat="42.57445" lon="2.06562">
        <ele>1688.918945</ele>
        <time>2011-09-24T12:03:34Z</time>
      </trkpt>
      <trkpt lat="42.57444" lon="2.06553">
        <ele>1689.908447</ele>
        <time>2011-09-24T12:03:36Z</time>
      </trkpt>
      <trkpt lat="42.57441" lon="2.06544">
        <ele>1690.864868</ele>
        <time>2011-09-24T12:03:38Z</time>
      </trkpt>
      <trkpt lat="42.57439" lon="2.06536">
        <ele>1691.738647</ele>
        <time>2011-09-24T12:03:40Z</time>
      </trkpt>
      <trkpt lat="42.57436" lon="2.06528">
        <ele>1692.599609</ele>
        <time>2011-09-24T12:03:42Z</time>
      </trkpt>
      <trkpt lat="42.57433" lon="2.06519">
        <ele>1693.444946</ele>
        <time>2011-09-24T12:03:44Z</time>
      </trkpt>
      <trkpt lat="42.5743" lon="2.06512">
        <ele>1694.276855</ele>
        <time>2011-09-24T12:03:46Z</time>
      </trkpt>
      <trkpt lat="42.57427" lon="2.06503">
        <ele>1695.095581</ele>
        <time>2011-09-24T12:03:48Z</time>
      </trkpt>
      <trkpt lat="42.57423" lon="2.06495">
        <ele>1695.887329</ele>
        <time>2011-09-24T12:03:50Z</time>
      </trkpt>
      <trkpt lat="42.57421" lon="2.06485">
        <ele>1696.675903</ele>
        <time>2011-09-24T12:03:52Z</time>
      </trkpt>
      <trkpt lat="42.57424" lon="2.06475">
        <ele>1697.752197</ele>
        <time>2011-09-24T12:03:54Z</time>
      </trkpt>
      <trkpt lat="42.57426" lon="2.06463">
        <ele>1710.088257</ele>
        <time>2011-09-24T12:03:56Z</time>
      </trkpt>
      <trkpt lat="42.57427" lon="2.06453">
        <ele>1711.163696</ele>
        <time>2011-09-24T12:03:58Z</time>
      </trkpt>
      <trkpt lat="42.57427" lon="2.06442">
        <ele>1717.578735</ele>
        <time>2011-09-24T12:04:00Z</time>
      </trkpt>
      <trkpt lat="42.57427" lon="2.06432">
        <ele>1718.556396</ele>
        <time>2011-09-24T12:04:02Z</time>
      </trkpt>
      <trkpt lat="42.57427" lon="2.06422">
        <ele>1719.484985</ele>
        <time>2011-09-24T12:04:04Z</time>
      </trkpt>
      <trkpt lat="42.57426" lon="2.06411">
        <ele>1723.974731</ele>
        <time>2011-09-24T12:04:06Z</time>
      </trkpt>
      <trkpt lat="42.57425" lon="2.064">
        <ele>1727.471436</ele>
        <time>2011-09-24T12:04:08Z</time>
      </trkpt>
      <trkpt lat="42.57424" lon="2.06391">
        <ele>1727.982788</ele>
        <time>2011-09-24T12:04:10Z</time>
      </trkpt>
      <trkpt lat="42.57423" lon="2.06382">
        <ele>1728.396484</ele>
        <time>2011-09-24T12:04:12Z</time>
      </trkpt>
      <trkpt lat="42.57422" lon="2.06372">
        <ele>1728.794922</ele>
        <time>2011-09-24T12:04:14Z</time>
      </trkpt>
      <trkpt lat="42.5742" lon="2.06363">
        <ele>1729.151611</ele>
        <time>2011-09-24T12:04:16Z</time>
      </trkpt>
      <trkpt lat="42.57419" lon="2.06354">
        <ele>1729.546875</ele>
        <time>2011-09-24T12:04:18Z</time>
      </trkpt>
      <trkpt lat="42.57417" lon="2.06345">
        <ele>1729.970459</ele>
        <time>2011-09-24T12:04:20Z</time>
      </trkpt>
      <trkpt lat="42.57415" lon="2.06335">
        <ele>1730.411011</ele>
        <time>2011-09-24T12:04:22Z</time>
      </trkpt>
      <trkpt lat="42.57414" lon="2.06326">
        <ele>1730.864624</ele>
        <time>2011-09-24T12:04:24Z</time>
      </trkpt>
      <trkpt lat="42.57412" lon="2.06316">
        <ele>1731.346558</ele>
        <time>2011-09-24T12:04:26Z</time>
      </trkpt>
      <trkpt lat="42.57411" lon="2.06307">
        <ele>1731.818237</ele>
        <time>2011-09-24T12:04:28Z</time>
      </trkpt>
      <trkpt lat="42.57409" lon="2.06298">
        <ele>1732.311279</ele>
        <time>2011-09-24T12:04:30Z</time>
      </trkpt>
      <trkpt lat="42.57408" lon="2.06289">
        <ele>1732.8396</ele>
        <time>2011-09-24T12:04:32Z</time>
      </trkpt>
      <trkpt lat="42.57406" lon="2.0628">
        <ele>1733.333252</ele>
        <time>2011-09-24T12:04:34Z</time>
      </trkpt>
      <trkpt lat="42.57405" lon="2.0627">
        <ele>1733.825928</ele>
        <time>2011-09-24T12:04:36Z</time>
      </trkpt>
      <trkpt lat="42.57404" lon="2.0626">
        <ele>1736.234497</ele>
        <time>2011-09-24T12:04:38Z</time>
      </trkpt>
      <trkpt lat="42.57403" lon="2.06249">
        <ele>1739.22583</ele>
        <time>2011-09-24T12:04:40Z</time>
      </trkpt>
      <trkpt lat="42.57403" lon="2.06238">
        <ele>1740.375732</ele>
        <time>2011-09-24T12:04:42Z</time>
      </trkpt>
      <trkpt lat="42.57403" lon="2.06227">
        <ele>1741.318115</ele>
        <time>2011-09-24T12:04:44Z</time>
      </trkpt>
      <trkpt lat="42.57402" lon="2.06216">
        <ele>1741.46521</ele>
        <time>2011-09-24T12:04:46Z</time>
      </trkpt>
      <trkpt lat="42.57401" lon="2.06207">
        <ele>1741.747437</ele>
        <time>2011-09-24T12:04:48Z</time>
      </trkpt>
      <trkpt lat="42.57396" lon="2.06205">
        <ele>1742.764893</ele>
        <time>2011-09-24T12:04:51Z</time>
      </trkpt>
      <trkpt lat="42.57392" lon="2.062">
        <ele>1744.112793</ele>
        <time>2011-09-24T12:04:54Z</time>
      </trkpt>
      <trkpt lat="42.57391" lon="2.06191">
        <ele>1745.739868</ele>
        <time>2011-09-24T12:04:57Z</time>
      </trkpt>
      <trkpt lat="42.57391" lon="2.06182">
        <ele>1746.770996</ele>
        <time>2011-09-24T12:04:59Z</time>
      </trkpt>
      <trkpt lat="42.5739" lon="2.06173">
        <ele>1748.018555</ele>
        <time>2011-09-24T12:05:01Z</time>
      </trkpt>
      <trkpt lat="42.5739" lon="2.06163">
        <ele>1749.327881</ele>
        <time>2011-09-24T12:05:03Z</time>
      </trkpt>
      <trkpt lat="42.57388" lon="2.06152">
        <ele>1750.513428</ele>
        <time>2011-09-24T12:05:05Z</time>
      </trkpt>
      <trkpt lat="42.57387" lon="2.06142">
        <ele>1757.068848</ele>
        <time>2011-09-24T12:05:07Z</time>
      </trkpt>
      <trkpt lat="42.57386" lon="2.06137">
        <ele>1757.58374</ele>
        <time>2011-09-24T12:05:08Z</time>
      </trkpt>
      <trkpt lat="42.57385" lon="2.06128">
        <ele>1758.653931</ele>
        <time>2011-09-24T12:05:10Z</time>
      </trkpt>
      <trkpt lat="42.57383" lon="2.06119">
        <ele>1759.751953</ele>
        <time>2011-09-24T12:05:12Z</time>
      </trkpt>
      <trkpt lat="42.57382" lon="2.06109">
        <ele>1760.837646</ele>
        <time>2011-09-24T12:05:14Z</time>
      </trkpt>
      <trkpt lat="42.57382" lon="2.06099">
        <ele>1761.935791</ele>
        <time>2011-09-24T12:05:16Z</time>
      </trkpt>
      <trkpt lat="42.57382" lon="2.06087">
        <ele>1772.963989</ele>
        <time>2011-09-24T12:05:18Z</time>
      </trkpt>
      <trkpt lat="42.57382" lon="2.06075">
        <ele>1781.540161</ele>
        <time>2011-09-24T12:05:20Z</time>
      </trkpt>
      <trkpt lat="42.57382" lon="2.06064">
        <ele>1782.246094</ele>
        <time>2011-09-24T12:05:22Z</time>
      </trkpt>
      <trkpt lat="42.57381" lon="2.06053">
        <ele>1786.505249</ele>
        <time>2011-09-24T12:05:24Z</time>
      </trkpt>
      <trkpt lat="42.5738" lon="2.06041">
        <ele>1792.659058</ele>
        <time>2011-09-24T12:05:26Z</time>
      </trkpt>
      <trkpt lat="42.57379" lon="2.06031">
        <ele>1795.338989</ele>
        <time>2011-09-24T12:05:28Z</time>
      </trkpt>
      <trkpt lat="42.57377" lon="2.06021">
        <ele>1795.727173</ele>
        <time>2011-09-24T12:05:30Z</time>
      </trkpt>
      <trkpt lat="42.57375" lon="2.0601">
        <ele>1796.096558</ele>
        <time>2011-09-24T12:05:32Z</time>
      </trkpt>
      <trkpt lat="42.57374" lon="2.06">
        <ele>1796.535889</ele>
        <time>2011-09-24T12:05:34Z</time>
      </trkpt>
      <trkpt lat="42.57373" lon="2.0599">
        <ele>1797.012695</ele>
        <time>2011-09-24T12:05:36Z</time>
      </trkpt>
      <trkpt lat="42.57371" lon="2.05982">
        <ele>1797.515747</ele>
        <time>2011-09-24T12:05:38Z</time>
      </trkpt>
      <trkpt lat="42.5737" lon="2.05974">
        <ele>1798.059814</ele>
        <time>2011-09-24T12:05:40Z</time>
      </trkpt>
      <trkpt lat="42.57368" lon="2.05965">
        <ele>1800.971191</ele>
        <time>2011-09-24T12:05:42Z</time>
      </trkpt>
      <trkpt lat="42.57366" lon="2.05956">
        <ele>1803.537598</ele>
        <time>2011-09-24T12:05:44Z</time>
      </trkpt>
      <trkpt lat="42.57365" lon="2.05947">
        <ele>1803.941406</ele>
        <time>2011-09-24T12:05:46Z</time>
      </trkpt>
      <trkpt lat="42.57364" lon="2.05938">
        <ele>1804.445068</ele>
        <time>2011-09-24T12:05:48Z</time>
      </trkpt>
      <trkpt lat="42.57364" lon="2.05927">
        <ele>1808.989014</ele>
        <time>2011-09-24T12:05:50Z</time>
      </trkpt>
      <trkpt lat="42.57364" lon="2.05916">
        <ele>1812.712891</ele>
        <time>2011-09-24T12:05:52Z</time>
      </trkpt>
      <trkpt lat="42.57364" lon="2.05906">
        <ele>1816.062866</ele>
        <time>2011-09-24T12:05:54Z</time>
      </trkpt>
      <trkpt lat="42.57363" lon="2.05896">
        <ele>1817.732422</ele>
        <time>2011-09-24T12:05:56Z</time>
      </trkpt>
      <trkpt lat="42.57362" lon="2.05885">
        <ele>1818.044189</ele>
        <time>2011-09-24T12:05:58Z</time>
      </trkpt>
      <trkpt lat="42.5736" lon="2.05875">
        <ele>1821.498169</ele>
        <time>2011-09-24T12:06:00Z</time>
      </trkpt>
      <trkpt lat="42.57359" lon="2.05865">
        <ele>1824.585938</ele>
        <time>2011-09-24T12:06:02Z</time>
      </trkpt>
      <trkpt lat="42.57358" lon="2.05855">
        <ele>1824.812256</ele>
        <time>2011-09-24T12:06:04Z</time>
      </trkpt>
      <trkpt lat="42.57357" lon="2.05844">
        <ele>1824.957275</ele>
        <time>2011-09-24T12:06:06Z</time>
      </trkpt>
      <trkpt lat="42.57356" lon="2.05834">
        <ele>1827.257812</ele>
        <time>2011-09-24T12:06:08Z</time>
      </trkpt>
      <trkpt lat="42.57355" lon="2.05823">
        <ele>1829.489014</ele>
        <time>2011-09-24T12:06:10Z</time>
      </trkpt>
      <trkpt lat="42.57354" lon="2.05812">
        <ele>1831.47644</ele>
        <time>2011-09-24T12:06:12Z</time>
      </trkpt>
      <trkpt lat="42.57353" lon="2.05806">
        <ele>1831.667847</ele>
        <time>2011-09-24T12:06:14Z</time>
      </trkpt>
      <trkpt lat="42.57352" lon="2.05797">
        <ele>1831.762695</ele>
        <time>2011-09-24T12:06:16Z</time>
      </trkpt>
      <trkpt lat="42.5735" lon="2.05787">
        <ele>1831.924438</ele>
        <time>2011-09-24T12:06:18Z</time>
      </trkpt>
      <trkpt lat="42.57348" lon="2.05777">
        <ele>1832.138916</ele>
        <time>2011-09-24T12:06:20Z</time>
      </trkpt>
      <trkpt lat="42.57346" lon="2.05768">
        <ele>1832.570435</ele>
        <time>2011-09-24T12:06:22Z</time>
      </trkpt>
      <trkpt lat="42.57345" lon="2.0576">
        <ele>1833.179077</ele>
        <time>2011-09-24T12:06:24Z</time>
      </trkpt>
      <trkpt lat="42.57344" lon="2.05752">
        <ele>1833.811035</ele>
        <time>2011-09-24T12:06:26Z</time>
      </trkpt>
      <trkpt lat="42.57344" lon="2.05743">
        <ele>1834.165161</ele>
        <time>2011-09-24T12:06:28Z</time>
      </trkpt>
      <trkpt lat="42.57344" lon="2.05733">
        <ele>1834.469727</ele>
        <time>2011-09-24T12:06:30Z</time>
      </trkpt>
      <trkpt lat="42.57344" lon="2.05724">
        <ele>1834.826904</ele>
        <time>2011-09-24T12:06:32Z</time>
      </trkpt>
      <trkpt lat="42.57343" lon="2.05714">
        <ele>1835.335327</ele>
        <time>2011-09-24T12:06:34Z</time>
      </trkpt>
      <trkpt lat="42.57342" lon="2.05706">
        <ele>1835.955566</ele>
        <time>2011-09-24T12:06:36Z</time>
      </trkpt>
      <trkpt lat="42.57341" lon="2.05697">
        <ele>1836.727539</ele>
        <time>2011-09-24T12:06:38Z</time>
      </trkpt>
      <trkpt lat="42.5734" lon="2.05688">
        <ele>1837.433105</ele>
        <time>2011-09-24T12:06:40Z</time>
      </trkpt>
      <trkpt lat="42.57338" lon="2.05679">
        <ele>1838.134155</ele>
        <time>2011-09-24T12:06:42Z</time>
      </trkpt>
      <trkpt lat="42.57337" lon="2.05671">
        <ele>1838.884888</ele>
        <time>2011-09-24T12:06:44Z</time>
      </trkpt>
      <trkpt lat="42.57336" lon="2.05663">
        <ele>1839.793091</ele>
        <time>2011-09-24T12:06:46Z</time>
      </trkpt>
      <trkpt lat="42.57335" lon="2.05655">
        <ele>1840.845703</ele>
        <time>2011-09-24T12:06:48Z</time>
      </trkpt>
      <trkpt lat="42.57335" lon="2.05646">
        <ele>1842.014526</ele>
        <time>2011-09-24T12:06:50Z</time>
      </trkpt>
      <trkpt lat="42.57335" lon="2.05638">
        <ele>1843.364502</ele>
        <time>2011-09-24T12:06:52Z</time>
      </trkpt>
      <trkpt lat="42.57334" lon="2.05629">
        <ele>1844.750732</ele>
        <time>2011-09-24T12:06:54Z</time>
      </trkpt>
      <trkpt lat="42.57333" lon="2.0562">
        <ele>1846.227661</ele>
        <time>2011-09-24T12:06:56Z</time>
      </trkpt>
      <trkpt lat="42.57332" lon="2.0561">
        <ele>1847.444214</ele>
        <time>2011-09-24T12:06:58Z</time>
      </trkpt>
      <trkpt lat="42.57332" lon="2.05601">
        <ele>1848.882812</ele>
        <time>2011-09-24T12:07:00Z</time>
      </trkpt>
      <trkpt lat="42.5733" lon="2.05592">
        <ele>1850.571411</ele>
        <time>2011-09-24T12:07:02Z</time>
      </trkpt>
      <trkpt lat="42.57329" lon="2.05584">
        <ele>1852.387451</ele>
        <time>2011-09-24T12:07:04Z</time>
      </trkpt>
      <trkpt lat="42.57328" lon="2.05575">
        <ele>1854.288208</ele>
        <time>2011-09-24T12:07:06Z</time>
      </trkpt>
      <trkpt lat="42.57327" lon="2.05567">
        <ele>1856.296875</ele>
        <time>2011-09-24T12:07:08Z</time>
      </trkpt>
      <trkpt lat="42.57325" lon="2.05558">
        <ele>1858.367798</ele>
        <time>2011-09-24T12:07:10Z</time>
      </trkpt>
      <trkpt lat="42.57323" lon="2.05549">
        <ele>1860.161133</ele>
        <time>2011-09-24T12:07:12Z</time>
      </trkpt>
      <trkpt lat="42.57321" lon="2.05539">
        <ele>1861.958496</ele>
        <time>2011-09-24T12:07:14Z</time>
      </trkpt>
      <trkpt lat="42.57319" lon="2.0553">
        <ele>1863.813477</ele>
        <time>2011-09-24T12:07:16Z</time>
      </trkpt>
      <trkpt lat="42.57317" lon="2.05523">
        <ele>1865.960205</ele>
        <time>2011-09-24T12:07:18Z</time>
      </trkpt>
      <trkpt lat="42.57315" lon="2.05516">
        <ele>1868.28418</ele>
        <time>2011-09-24T12:07:20Z</time>
      </trkpt>
      <trkpt lat="42.57313" lon="2.0551">
        <ele>1870.682983</ele>
        <time>2011-09-24T12:07:22Z</time>
      </trkpt>
      <trkpt lat="42.57311" lon="2.05504">
        <ele>1873.166992</ele>
        <time>2011-09-24T12:07:24Z</time>
      </trkpt>
      <trkpt lat="42.57309" lon="2.05498">
        <ele>1875.65332</ele>
        <time>2011-09-24T12:07:26Z</time>
      </trkpt>
      <trkpt lat="42.57307" lon="2.05491">
        <ele>1878.150146</ele>
        <time>2011-09-24T12:07:28Z</time>
      </trkpt>
      <trkpt lat="42.57305" lon="2.05483">
        <ele>1880.685547</ele>
        <time>2011-09-24T12:07:30Z</time>
      </trkpt>
      <trkpt lat="42.57304" lon="2.05476">
        <ele>1883.290649</ele>
        <time>2011-09-24T12:07:32Z</time>
      </trkpt>
      <trkpt lat="42.57302" lon="2.05468">
        <ele>1885.950439</ele>
        <time>2011-09-24T12:07:34Z</time>
      </trkpt>
      <trkpt lat="42.57301" lon="2.0546">
        <ele>1888.661133</ele>
        <time>2011-09-24T12:07:36Z</time>
      </trkpt>
      <trkpt lat="42.57299" lon="2.05452">
        <ele>1891.4552</ele>
        <time>2011-09-24T12:07:38Z</time>
      </trkpt>
      <trkpt lat="42.57298" lon="2.05444">
        <ele>1894.296997</ele>
        <time>2011-09-24T12:07:40Z</time>
      </trkpt>
      <trkpt lat="42.57296" lon="2.05437">
        <ele>1897.17627</ele>
        <time>2011-09-24T12:07:42Z</time>
      </trkpt>
      <trkpt lat="42.57295" lon="2.05429">
        <ele>1900.081787</ele>
        <time>2011-09-24T12:07:44Z</time>
      </trkpt>
      <trkpt lat="42.57294" lon="2.05422">
        <ele>1903.000854</ele>
        <time>2011-09-24T12:07:46Z</time>
      </trkpt>
      <trkpt lat="42.57292" lon="2.05415">
        <ele>1905.895386</ele>
        <time>2011-09-24T12:07:48Z</time>
      </trkpt>
      <trkpt lat="42.57291" lon="2.05408">
        <ele>1908.768921</ele>
        <time>2011-09-24T12:07:50Z</time>
      </trkpt>
      <trkpt lat="42.5729" lon="2.054">
        <ele>1911.754639</ele>
        <time>2011-09-24T12:07:52Z</time>
      </trkpt>
      <trkpt lat="42.5729" lon="2.05393">
        <ele>1915.360229</ele>
        <time>2011-09-24T12:07:54Z</time>
      </trkpt>
      <trkpt lat="42.57288" lon="2.05386">
        <ele>1924.34375</ele>
        <time>2011-09-24T12:07:58Z</time>
      </trkpt>
      <trkpt lat="42.57285" lon="2.05379">
        <ele>1930.862915</ele>
        <time>2011-09-24T12:08:01Z</time>
      </trkpt>
      <trkpt lat="42.57283" lon="2.05374">
        <ele>1935.068115</ele>
        <time>2011-09-24T12:08:03Z</time>
      </trkpt>
      <trkpt lat="42.57281" lon="2.05367">
        <ele>1938.947021</ele>
        <time>2011-09-24T12:08:05Z</time>
      </trkpt>
      <trkpt lat="42.57279" lon="2.05358">
        <ele>1942.109253</ele>
        <time>2011-09-24T12:08:07Z</time>
      </trkpt>
      <trkpt lat="42.57279" lon="2.05349">
        <ele>1945.19397</ele>
        <time>2011-09-24T12:08:09Z</time>
      </trkpt>
      <trkpt lat="42.57279" lon="2.05341">
        <ele>1948.636841</ele>
        <time>2011-09-24T12:08:11Z</time>
      </trkpt>
      <trkpt lat="42.57278" lon="2.05332">
        <ele>1951.890259</ele>
        <time>2011-09-24T12:08:13Z</time>
      </trkpt>
      <trkpt lat="42.57277" lon="2.05322">
        <ele>1954.772583</ele>
        <time>2011-09-24T12:08:15Z</time>
      </trkpt>
      <trkpt lat="42.57276" lon="2.05313">
        <ele>1957.295776</ele>
        <time>2011-09-24T12:08:17Z</time>
      </trkpt>
      <trkpt lat="42.57276" lon="2.05306">
        <ele>1959.311523</ele>
        <time>2011-09-24T12:08:19Z</time>
      </trkpt>
      <trkpt lat="42.57276" lon="2.05299">
        <ele>1960.421875</ele>
        <time>2011-09-24T12:08:21Z</time>
      </trkpt>
      <trkpt lat="42.57275" lon="2.05289">
        <ele>1960.946777</ele>
        <time>2011-09-24T12:08:25Z</time>
      </trkpt>
      <trkpt lat="42.57274" lon="2.05283">
        <ele>1959.952271</ele>
        <time>2011-09-24T12:08:30Z</time>
      </trkpt>
      <trkpt lat="42.57273" lon="2.05275">
        <ele>1958.810547</ele>
        <time>2011-09-24T12:08:37Z</time>
      </trkpt>
      <trkpt lat="42.57274" lon="2.05267">
        <ele>1957.601196</ele>
        <time>2011-09-24T12:08:41Z</time>
      </trkpt>
      <trkpt lat="42.57275" lon="2.05261">
        <ele>1956.457397</ele>
        <time>2011-09-24T12:08:45Z</time>
      </trkpt>
      <trkpt lat="42.57274" lon="2.05258">
        <ele>1955.919434</ele>
        <time>2011-09-24T12:08:47Z</time>
      </trkpt>
      <trkpt lat="42.57277" lon="2.05251">
        <ele>1955.644043</ele>
        <time>2011-09-24T12:08:52Z</time>
      </trkpt>
      <trkpt lat="42.57279" lon="2.05259">
        <ele>1956.130005</ele>
        <time>2011-09-24T12:08:59Z</time>
      </trkpt>
      <trkpt lat="42.57279" lon="2.05265">
        <ele>1956.235596</ele>
        <time>2011-09-24T12:09:01Z</time>
      </trkpt>
      <trkpt lat="42.57278" lon="2.05273">
        <ele>1956.689331</ele>
        <time>2011-09-24T12:09:06Z</time>
      </trkpt>
      <trkpt lat="42.57278" lon="2.05273">
        <ele>1956.820923</ele>
        <time>2011-09-24T12:09:07Z</time>
      </trkpt>
      <trkpt lat="42.57276" lon="2.05279">
        <ele>1956.963745</ele>
        <time>2011-09-24T12:09:08Z</time>
      </trkpt>
      <trkpt lat="42.57273" lon="2.05285">
        <ele>1958.730713</ele>
        <time>2011-09-24T12:09:10Z</time>
      </trkpt>
      <trkpt lat="42.57276" lon="2.0529">
        <ele>1963.177979</ele>
        <time>2011-09-24T12:09:23Z</time>
      </trkpt>
      <trkpt lat="42.5728" lon="2.05287">
        <ele>1970.034668</ele>
        <time>2011-09-24T12:09:35Z</time>
      </trkpt>
      <trkpt lat="42.57286" lon="2.05282">
        <ele>1971.992798</ele>
        <time>2011-09-24T12:09:37Z</time>
      </trkpt>
      <trkpt lat="42.57293" lon="2.05276">
        <ele>1982.879272</ele>
        <time>2011-09-24T12:09:39Z</time>
      </trkpt>
      <trkpt lat="42.57297" lon="2.05272">
        <ele>1990.597168</ele>
        <time>2011-09-24T12:09:40Z</time>
      </trkpt>
      <trkpt lat="42.57302" lon="2.05265">
        <ele>1991.529663</ele>
        <time>2011-09-24T12:09:42Z</time>
      </trkpt>
      <trkpt lat="42.57305" lon="2.05263">
        <ele>1991.722168</ele>
        <time>2011-09-24T12:09:43Z</time>
      </trkpt>
      <trkpt lat="42.5731" lon="2.05262">
        <ele>1991.660156</ele>
        <time>2011-09-24T12:09:45Z</time>
      </trkpt>
      <trkpt lat="42.57313" lon="2.0526">
        <ele>1991.43042</ele>
        <time>2011-09-24T12:09:46Z</time>
      </trkpt>
      <trkpt lat="42.57318" lon="2.05259">
        <ele>1990.702393</ele>
        <time>2011-09-24T12:09:48Z</time>
      </trkpt>
      <trkpt lat="42.57323" lon="2.05264">
        <ele>1989.769287</ele>
        <time>2011-09-24T12:09:50Z</time>
      </trkpt>
      <trkpt lat="42.57326" lon="2.05273">
        <ele>1982.096558</ele>
        <time>2011-09-24T12:09:52Z</time>
      </trkpt>
      <trkpt lat="42.57329" lon="2.05279">
        <ele>1981.948608</ele>
        <time>2011-09-24T12:09:53Z</time>
      </trkpt>
      <trkpt lat="42.57333" lon="2.05284">
        <ele>1981.821777</ele>
        <time>2011-09-24T12:09:54Z</time>
      </trkpt>
      <trkpt lat="42.57341" lon="2.05287">
        <ele>1980.356323</ele>
        <time>2011-09-24T12:09:56Z</time>
      </trkpt>
      <trkpt lat="42.57346" lon="2.05287">
        <ele>1982.480957</ele>
        <time>2011-09-24T12:09:57Z</time>
      </trkpt>
      <trkpt lat="42.57351" lon="2.05288">
        <ele>1984.136597</ele>
        <time>2011-09-24T12:09:58Z</time>
      </trkpt>
      <trkpt lat="42.57358" lon="2.05286">
        <ele>1985.03125</ele>
        <time>2011-09-24T12:09:59Z</time>
      </trkpt>
      <trkpt lat="42.57372" lon="2.05282">
        <ele>1987.41394</ele>
        <time>2011-09-24T12:10:00Z</time>
      </trkpt>
      <trkpt lat="42.5738" lon="2.05281">
        <ele>1992.004883</ele>
        <time>2011-09-24T12:10:01Z</time>
      </trkpt>
      <trkpt lat="42.57388" lon="2.0528">
        <ele>1997.592163</ele>
        <time>2011-09-24T12:10:02Z</time>
      </trkpt>
      <trkpt lat="42.57395" lon="2.05279">
        <ele>2003.505981</ele>
        <time>2011-09-24T12:10:03Z</time>
      </trkpt>
      <trkpt lat="42.57401" lon="2.05278">
        <ele>2009.491333</ele>
        <time>2011-09-24T12:10:04Z</time>
      </trkpt>
      <trkpt lat="42.57407" lon="2.05277">
        <ele>2015.172485</ele>
        <time>2011-09-24T12:10:05Z</time>
      </trkpt>
      <trkpt lat="42.57412" lon="2.05278">
        <ele>2020.370728</ele>
        <time>2011-09-24T12:10:06Z</time>
      </trkpt>
      <trkpt lat="42.57417" lon="2.05281">
        <ele>2025.088501</ele>
        <time>2011-09-24T12:10:07Z</time>
      </trkpt>
      <trkpt lat="42.57424" lon="2.05285">
        <ele>2028.674438</ele>
        <time>2011-09-24T12:10:09Z</time>
      </trkpt>
      <trkpt lat="42.57431" lon="2.05285">
        <ele>2029.192749</ele>
        <time>2011-09-24T12:10:11Z</time>
      </trkpt>
      <trkpt lat="42.57437" lon="2.05288">
        <ele>2029.597534</ele>
        <time>2011-09-24T12:10:13Z</time>
      </trkpt>
      <trkpt lat="42.57446" lon="2.05292">
        <ele>2029.501343</ele>
        <time>2011-09-24T12:10:15Z</time>
      </trkpt>
      <trkpt lat="42.57451" lon="2.05293">
        <ele>2029.45813</ele>
        <time>2011-09-24T12:10:16Z</time>
      </trkpt>
      <trkpt lat="42.57457" lon="2.05294">
        <ele>2029.705444</ele>
        <time>2011-09-24T12:10:17Z</time>
      </trkpt>
      <trkpt lat="42.57464" lon="2.05299">
        <ele>2029.689575</ele>
        <time>2011-09-24T12:10:19Z</time>
      </trkpt>
      <trkpt lat="42.57463" lon="2.05308">
        <ele>2029.636841</ele>
        <time>2011-09-24T12:10:21Z</time>
      </trkpt>
      <trkpt lat="42.57463" lon="2.05319">
        <ele>2029.055298</ele>
        <time>2011-09-24T12:10:23Z</time>
      </trkpt>
      <trkpt lat="42.57468" lon="2.05322">
        <ele>2028.737671</ele>
        <time>2011-09-24T12:10:24Z</time>
      </trkpt>
      <trkpt lat="42.57473" lon="2.05322">
        <ele>2028.547241</ele>
        <time>2011-09-24T12:10:25Z</time>
      </trkpt>
      <trkpt lat="42.5748" lon="2.05323">
        <ele>2028.464233</ele>
        <time>2011-09-24T12:10:26Z</time>
      </trkpt>
      <trkpt lat="42.57486" lon="2.05324">
        <ele>2028.379761</ele>
        <time>2011-09-24T12:10:27Z</time>
      </trkpt>
      <trkpt lat="42.57492" lon="2.05328">
        <ele>2027.728882</ele>
        <time>2011-09-24T12:10:28Z</time>
      </trkpt>
      <trkpt lat="42.57497" lon="2.05334">
        <ele>2027.279419</ele>
        <time>2011-09-24T12:10:29Z</time>
      </trkpt>
      <trkpt lat="42.57503" lon="2.0534">
        <ele>2027.917847</ele>
        <time>2011-09-24T12:10:30Z</time>
      </trkpt>
      <trkpt lat="42.57508" lon="2.05348">
        <ele>2029.428589</ele>
        <time>2011-09-24T12:10:31Z</time>
      </trkpt>
      <trkpt lat="42.57515" lon="2.05355">
        <ele>2031.208618</ele>
        <time>2011-09-24T12:10:32Z</time>
      </trkpt>
      <trkpt lat="42.57521" lon="2.05361">
        <ele>2032.6698</ele>
        <time>2011-09-24T12:10:33Z</time>
      </trkpt>
      <trkpt lat="42.57522" lon="2.0537">
        <ele>2032.927124</ele>
        <time>2011-09-24T12:10:35Z</time>
      </trkpt>
      <trkpt lat="42.57524" lon="2.05379">
        <ele>2033.299683</ele>
        <time>2011-09-24T12:10:37Z</time>
      </trkpt>
      <trkpt lat="42.57532" lon="2.05385">
        <ele>2037.572144</ele>
        <time>2011-09-24T12:10:39Z</time>
      </trkpt>
      <trkpt lat="42.5754" lon="2.05391">
        <ele>2040.578247</ele>
        <time>2011-09-24T12:10:41Z</time>
      </trkpt>
      <trkpt lat="42.57544" lon="2.05397">
        <ele>2041.830933</ele>
        <time>2011-09-24T12:10:42Z</time>
      </trkpt>
      <trkpt lat="42.57549" lon="2.05401">
        <ele>2043.006714</ele>
        <time>2011-09-24T12:10:43Z</time>
      </trkpt>
      <trkpt lat="42.57556" lon="2.05404">
        <ele>2044.016479</ele>
        <time>2011-09-24T12:10:44Z</time>
      </trkpt>
      <trkpt lat="42.57563" lon="2.05405">
        <ele>2044.885376</ele>
        <time>2011-09-24T12:10:45Z</time>
      </trkpt>
      <trkpt lat="42.5757" lon="2.05406">
        <ele>2045.502808</ele>
        <time>2011-09-24T12:10:46Z</time>
      </trkpt>
      <trkpt lat="42.57577" lon="2.05408">
        <ele>2046.17981</ele>
        <time>2011-09-24T12:10:47Z</time>
      </trkpt>
      <trkpt lat="42.57585" lon="2.05409">
        <ele>2046.802856</ele>
        <time>2011-09-24T12:10:48Z</time>
      </trkpt>
      <trkpt lat="42.57593" lon="2.05409">
        <ele>2047.287476</ele>
        <time>2011-09-24T12:10:49Z</time>
      </trkpt>
      <trkpt lat="42.57601" lon="2.05409">
        <ele>2047.646851</ele>
        <time>2011-09-24T12:10:50Z</time>
      </trkpt>
      <trkpt lat="42.57609" lon="2.05408">
        <ele>2047.929077</ele>
        <time>2011-09-24T12:10:51Z</time>
      </trkpt>
      <trkpt lat="42.57617" lon="2.05407">
        <ele>2048.121582</ele>
        <time>2011-09-24T12:10:52Z</time>
      </trkpt>
      <trkpt lat="42.57625" lon="2.05407">
        <ele>2048.180908</ele>
        <time>2011-09-24T12:10:53Z</time>
      </trkpt>
      <trkpt lat="42.57633" lon="2.05407">
        <ele>2048.086426</ele>
        <time>2011-09-24T12:10:54Z</time>
      </trkpt>
      <trkpt lat="42.57639" lon="2.05405">
        <ele>2047.921021</ele>
        <time>2011-09-24T12:10:55Z</time>
      </trkpt>
      <trkpt lat="42.57647" lon="2.05409">
        <ele>2047.642944</ele>
        <time>2011-09-24T12:10:57Z</time>
      </trkpt>
      <trkpt lat="42.57653" lon="2.05416">
        <ele>2047.090698</ele>
        <time>2011-09-24T12:10:59Z</time>
      </trkpt>
      <trkpt lat="42.57655" lon="2.05425">
        <ele>2046.790161</ele>
        <time>2011-09-24T12:11:01Z</time>
      </trkpt>
      <trkpt lat="42.57659" lon="2.0543">
        <ele>2046.761597</ele>
        <time>2011-09-24T12:11:03Z</time>
      </trkpt>
      <trkpt lat="42.57663" lon="2.05436">
        <ele>2046.754517</ele>
        <time>2011-09-24T12:11:05Z</time>
      </trkpt>
      <trkpt lat="42.57666" lon="2.05444">
        <ele>2046.819458</ele>
        <time>2011-09-24T12:11:07Z</time>
      </trkpt>
      <trkpt lat="42.57672" lon="2.05448">
        <ele>2047.072388</ele>
        <time>2011-09-24T12:11:09Z</time>
      </trkpt>
      <trkpt lat="42.5768" lon="2.05449">
        <ele>2047.210815</ele>
        <time>2011-09-24T12:11:11Z</time>
      </trkpt>
      <trkpt lat="42.57688" lon="2.05448">
        <ele>2047.197144</ele>
        <time>2011-09-24T12:11:13Z</time>
      </trkpt>
      <trkpt lat="42.57694" lon="2.05447">
        <ele>2047.170776</ele>
        <time>2011-09-24T12:11:15Z</time>
      </trkpt>
      <trkpt lat="42.577" lon="2.05446">
        <ele>2047.123413</ele>
        <time>2011-09-24T12:11:17Z</time>
      </trkpt>
      <trkpt lat="42.57706" lon="2.05444">
        <ele>2047.046265</ele>
        <time>2011-09-24T12:11:19Z</time>
      </trkpt>
      <trkpt lat="42.57711" lon="2.05442">
        <ele>2046.937622</ele>
        <time>2011-09-24T12:11:21Z</time>
      </trkpt>
      <trkpt lat="42.57717" lon="2.05442">
        <ele>2046.816528</ele>
        <time>2011-09-24T12:11:23Z</time>
      </trkpt>
      <trkpt lat="42.57722" lon="2.0544">
        <ele>2046.69812</ele>
        <time>2011-09-24T12:11:25Z</time>
      </trkpt>
      <trkpt lat="42.57727" lon="2.0544">
        <ele>2046.578735</ele>
        <time>2011-09-24T12:11:27Z</time>
      </trkpt>
      <trkpt lat="42.57733" lon="2.0544">
        <ele>2046.450562</ele>
        <time>2011-09-24T12:11:29Z</time>
      </trkpt>
      <trkpt lat="42.57739" lon="2.05438">
        <ele>2046.31189</ele>
        <time>2011-09-24T12:11:31Z</time>
      </trkpt>
      <trkpt lat="42.57745" lon="2.05434">
        <ele>2046.16687</ele>
        <time>2011-09-24T12:11:33Z</time>
      </trkpt>
      <trkpt lat="42.5775" lon="2.05429">
        <ele>2046.026489</ele>
        <time>2011-09-24T12:11:35Z</time>
      </trkpt>
      <trkpt lat="42.57754" lon="2.05423">
        <ele>2045.879761</ele>
        <time>2011-09-24T12:11:37Z</time>
      </trkpt>
      <trkpt lat="42.57756" lon="2.05415">
        <ele>2045.737183</ele>
        <time>2011-09-24T12:11:39Z</time>
      </trkpt>
      <trkpt lat="42.57756" lon="2.05408">
        <ele>2045.599976</ele>
        <time>2011-09-24T12:11:41Z</time>
      </trkpt>
      <trkpt lat="42.57755" lon="2.054">
        <ele>2045.478638</ele>
        <time>2011-09-24T12:11:43Z</time>
      </trkpt>
      <trkpt lat="42.57754" lon="2.05392">
        <ele>2045.386108</ele>
        <time>2011-09-24T12:11:45Z</time>
      </trkpt>
      <trkpt lat="42.57752" lon="2.05383">
        <ele>2045.306763</ele>
        <time>2011-09-24T12:11:47Z</time>
      </trkpt>
      <trkpt lat="42.57751" lon="2.05376">
        <ele>2045.250122</ele>
        <time>2011-09-24T12:11:49Z</time>
      </trkpt>
      <trkpt lat="42.57755" lon="2.05369">
        <ele>2045.069702</ele>
        <time>2011-09-24T12:11:51Z</time>
      </trkpt>
      <trkpt lat="42.57764" lon="2.05369">
        <ele>2044.963989</ele>
        <time>2011-09-24T12:11:53Z</time>
      </trkpt>
      <trkpt lat="42.57769" lon="2.0537">
        <ele>2044.809204</ele>
        <time>2011-09-24T12:11:54Z</time>
      </trkpt>
      <trkpt lat="42.57774" lon="2.0537">
        <ele>2044.633667</ele>
        <time>2011-09-24T12:11:55Z</time>
      </trkpt>
      <trkpt lat="42.57779" lon="2.05371">
        <ele>2044.537231</ele>
        <time>2011-09-24T12:11:56Z</time>
      </trkpt>
      <trkpt lat="42.57784" lon="2.05371">
        <ele>2044.349487</ele>
        <time>2011-09-24T12:11:57Z</time>
      </trkpt>
      <trkpt lat="42.57789" lon="2.05371">
        <ele>2044.075806</ele>
        <time>2011-09-24T12:11:58Z</time>
      </trkpt>
      <trkpt lat="42.57797" lon="2.05375">
        <ele>2043.289673</ele>
        <time>2011-09-24T12:12:00Z</time>
      </trkpt>
      <trkpt lat="42.578" lon="2.05385">
        <ele>2043.127075</ele>
        <time>2011-09-24T12:12:02Z</time>
      </trkpt>
      <trkpt lat="42.57801" lon="2.05391">
        <ele>2042.297241</ele>
        <time>2011-09-24T12:12:03Z</time>
      </trkpt>
      <trkpt lat="42.57805" lon="2.05396">
        <ele>2041.588501</ele>
        <time>2011-09-24T12:12:04Z</time>
      </trkpt>
      <trkpt lat="42.5781" lon="2.05398">
        <ele>2040.725464</ele>
        <time>2011-09-24T12:12:05Z</time>
      </trkpt>
      <trkpt lat="42.57816" lon="2.054">
        <ele>2039.944946</ele>
        <time>2011-09-24T12:12:06Z</time>
      </trkpt>
      <trkpt lat="42.5782" lon="2.05403">
        <ele>2039.126831</ele>
        <time>2011-09-24T12:12:07Z</time>
      </trkpt>
      <trkpt lat="42.57825" lon="2.0541">
        <ele>2038.346802</ele>
        <time>2011-09-24T12:12:09Z</time>
      </trkpt>
      <trkpt lat="42.57832" lon="2.05406">
        <ele>2037.436646</ele>
        <time>2011-09-24T12:12:11Z</time>
      </trkpt>
      <trkpt lat="42.57841" lon="2.05408">
        <ele>2037.313843</ele>
        <time>2011-09-24T12:12:13Z</time>
      </trkpt>
      <trkpt lat="42.57848" lon="2.05412">
        <ele>2037.246948</ele>
        <time>2011-09-24T12:12:14Z</time>
      </trkpt>
      <trkpt lat="42.57855" lon="2.05417">
        <ele>2037.14978</ele>
        <time>2011-09-24T12:12:15Z</time>
      </trkpt>
      <trkpt lat="42.57863" lon="2.05421">
        <ele>2036.810913</ele>
        <time>2011-09-24T12:12:16Z</time>
      </trkpt>
      <trkpt lat="42.57872" lon="2.05427">
        <ele>2035.693726</ele>
        <time>2011-09-24T12:12:17Z</time>
      </trkpt>
      <trkpt lat="42.5788" lon="2.05433">
        <ele>2034.157837</ele>
        <time>2011-09-24T12:12:18Z</time>
      </trkpt>
      <trkpt lat="42.57888" lon="2.05439">
        <ele>2032.37854</ele>
        <time>2011-09-24T12:12:19Z</time>
      </trkpt>
      <trkpt lat="42.57897" lon="2.05445">
        <ele>2030.510864</ele>
        <time>2011-09-24T12:12:20Z</time>
      </trkpt>
      <trkpt lat="42.57905" lon="2.0545">
        <ele>2028.713013</ele>
        <time>2011-09-24T12:12:21Z</time>
      </trkpt>
      <trkpt lat="42.57912" lon="2.05455">
        <ele>2026.967896</ele>
        <time>2011-09-24T12:12:22Z</time>
      </trkpt>
      <trkpt lat="42.57919" lon="2.05462">
        <ele>2025.349487</ele>
        <time>2011-09-24T12:12:23Z</time>
      </trkpt>
      <trkpt lat="42.57925" lon="2.0547">
        <ele>2024.005737</ele>
        <time>2011-09-24T12:12:24Z</time>
      </trkpt>
      <trkpt lat="42.57932" lon="2.05478">
        <ele>2022.902222</ele>
        <time>2011-09-24T12:12:25Z</time>
      </trkpt>
      <trkpt lat="42.57939" lon="2.05486">
        <ele>2021.673218</ele>
        <time>2011-09-24T12:12:26Z</time>
      </trkpt>
      <trkpt lat="42.57947" lon="2.05491">
        <ele>2020.645142</ele>
        <time>2011-09-24T12:12:27Z</time>
      </trkpt>
      <trkpt lat="42.57953" lon="2.05492">
        <ele>2020.001831</ele>
        <time>2011-09-24T12:12:28Z</time>
      </trkpt>
      <trkpt lat="42.5796" lon="2.0549">
        <ele>2019.395874</ele>
        <time>2011-09-24T12:12:29Z</time>
      </trkpt>
      <trkpt lat="42.57965" lon="2.05488">
        <ele>2018.788452</ele>
        <time>2011-09-24T12:12:30Z</time>
      </trkpt>
      <trkpt lat="42.57968" lon="2.05501">
        <ele>2018.125122</ele>
        <time>2011-09-24T12:12:32Z</time>
      </trkpt>
      <trkpt lat="42.57968" lon="2.05512">
        <ele>2017.037476</ele>
        <time>2011-09-24T12:12:34Z</time>
      </trkpt>
      <trkpt lat="42.57974" lon="2.05522">
        <ele>2015.678833</ele>
        <time>2011-09-24T12:12:36Z</time>
      </trkpt>
      <trkpt lat="42.57977" lon="2.05529">
        <ele>2014.707886</ele>
        <time>2011-09-24T12:12:37Z</time>
      </trkpt>
      <trkpt lat="42.57979" lon="2.05535">
        <ele>2013.471558</ele>
        <time>2011-09-24T12:12:38Z</time>
      </trkpt>
      <trkpt lat="42.57982" lon="2.0554">
        <ele>2013.158081</ele>
        <time>2011-09-24T12:12:40Z</time>
      </trkpt>
      <trkpt lat="42.57986" lon="2.05552">
        <ele>2010.33606</ele>
        <time>2011-09-24T12:12:42Z</time>
      </trkpt>
      <trkpt lat="42.57988" lon="2.05561">
        <ele>2008.448364</ele>
        <time>2011-09-24T12:12:43Z</time>
      </trkpt>
      <trkpt lat="42.5799" lon="2.05571">
        <ele>2006.99231</ele>
        <time>2011-09-24T12:12:44Z</time>
      </trkpt>
      <trkpt lat="42.57992" lon="2.05581">
        <ele>2005.731567</ele>
        <time>2011-09-24T12:12:45Z</time>
      </trkpt>
      <trkpt lat="42.57994" lon="2.05588">
        <ele>2004.435913</ele>
        <time>2011-09-24T12:12:46Z</time>
      </trkpt>
      <trkpt lat="42.57997" lon="2.05594">
        <ele>2003.088989</ele>
        <time>2011-09-24T12:12:47Z</time>
      </trkpt>
      <trkpt lat="42.57999" lon="2.05602">
        <ele>2002.852173</ele>
        <time>2011-09-24T12:12:49Z</time>
      </trkpt>
      <trkpt lat="42.57999" lon="2.0561">
        <ele>2002.583618</ele>
        <time>2011-09-24T12:12:51Z</time>
      </trkpt>
      <trkpt lat="42.58007" lon="2.05613">
        <ele>1999.849243</ele>
        <time>2011-09-24T12:12:53Z</time>
      </trkpt>
      <trkpt lat="42.58012" lon="2.05615">
        <ele>1998.566528</ele>
        <time>2011-09-24T12:12:54Z</time>
      </trkpt>
      <trkpt lat="42.58016" lon="2.0562">
        <ele>1997.266357</ele>
        <time>2011-09-24T12:12:55Z</time>
      </trkpt>
      <trkpt lat="42.58019" lon="2.05626">
        <ele>1996.099976</ele>
        <time>2011-09-24T12:12:56Z</time>
      </trkpt>
      <trkpt lat="42.5802" lon="2.05633">
        <ele>1995.223999</ele>
        <time>2011-09-24T12:12:57Z</time>
      </trkpt>
      <trkpt lat="42.58024" lon="2.05643">
        <ele>1994.093018</ele>
        <time>2011-09-24T12:12:59Z</time>
      </trkpt>
      <trkpt lat="42.58029" lon="2.05646">
        <ele>1993.656494</ele>
        <time>2011-09-24T12:13:00Z</time>
      </trkpt>
      <trkpt lat="42.58033" lon="2.05649">
        <ele>1993.194092</ele>
        <time>2011-09-24T12:13:01Z</time>
      </trkpt>
      <trkpt lat="42.58035" lon="2.05657">
        <ele>1992.780518</ele>
        <time>2011-09-24T12:13:02Z</time>
      </trkpt>
      <trkpt lat="42.58037" lon="2.05665">
        <ele>1992.183472</ele>
        <time>2011-09-24T12:13:03Z</time>
      </trkpt>
      <trkpt lat="42.58042" lon="2.05673">
        <ele>1991.316284</ele>
        <time>2011-09-24T12:13:04Z</time>
      </trkpt>
      <trkpt lat="42.58047" lon="2.05682">
        <ele>1990.424927</ele>
        <time>2011-09-24T12:13:05Z</time>
      </trkpt>
      <trkpt lat="42.58052" lon="2.05691">
        <ele>1989.575439</ele>
        <time>2011-09-24T12:13:06Z</time>
      </trkpt>
      <trkpt lat="42.58058" lon="2.05701">
        <ele>1988.370483</ele>
        <time>2011-09-24T12:13:07Z</time>
      </trkpt>
      <trkpt lat="42.58063" lon="2.05712">
        <ele>1986.706909</ele>
        <time>2011-09-24T12:13:08Z</time>
      </trkpt>
      <trkpt lat="42.58068" lon="2.05722">
        <ele>1984.887329</ele>
        <time>2011-09-24T12:13:09Z</time>
      </trkpt>
      <trkpt lat="42.58073" lon="2.05731">
        <ele>1982.964844</ele>
        <time>2011-09-24T12:13:10Z</time>
      </trkpt>
      <trkpt lat="42.58077" lon="2.0574">
        <ele>1980.86377</ele>
        <time>2011-09-24T12:13:11Z</time>
      </trkpt>
      <trkpt lat="42.5808" lon="2.05748">
        <ele>1978.794189</ele>
        <time>2011-09-24T12:13:12Z</time>
      </trkpt>
      <trkpt lat="42.58082" lon="2.05756">
        <ele>1977.015015</ele>
        <time>2011-09-24T12:13:13Z</time>
      </trkpt>
      <trkpt lat="42.58083" lon="2.05765">
        <ele>1975.559937</ele>
        <time>2011-09-24T12:13:14Z</time>
      </trkpt>
      <trkpt lat="42.58085" lon="2.05773">
        <ele>1975.327148</ele>
        <time>2011-09-24T12:13:16Z</time>
      </trkpt>
      <trkpt lat="42.58087" lon="2.0578">
        <ele>1974.16272</ele>
        <time>2011-09-24T12:13:18Z</time>
      </trkpt>
      <trkpt lat="42.58091" lon="2.05791">
        <ele>1972.536743</ele>
        <time>2011-09-24T12:13:20Z</time>
      </trkpt>
      <trkpt lat="42.5809" lon="2.05798">
        <ele>1971.942993</ele>
        <time>2011-09-24T12:13:21Z</time>
      </trkpt>
      <trkpt lat="42.58091" lon="2.05806">
        <ele>1971.593262</ele>
        <time>2011-09-24T12:13:22Z</time>
      </trkpt>
      <trkpt lat="42.58093" lon="2.05816">
        <ele>1971.354614</ele>
        <time>2011-09-24T12:13:23Z</time>
      </trkpt>
      <trkpt lat="42.58095" lon="2.05826">
        <ele>1970.821655</ele>
        <time>2011-09-24T12:13:24Z</time>
      </trkpt>
      <trkpt lat="42.58098" lon="2.05836">
        <ele>1970.020996</ele>
        <time>2011-09-24T12:13:25Z</time>
      </trkpt>
      <trkpt lat="42.58099" lon="2.05846">
        <ele>1969.199219</ele>
        <time>2011-09-24T12:13:26Z</time>
      </trkpt>
      <trkpt lat="42.58101" lon="2.05857">
        <ele>1968.125488</ele>
        <time>2011-09-24T12:13:27Z</time>
      </trkpt>
      <trkpt lat="42.58103" lon="2.05867">
        <ele>1966.99646</ele>
        <time>2011-09-24T12:13:28Z</time>
      </trkpt>
      <trkpt lat="42.58105" lon="2.05878">
        <ele>1965.774658</ele>
        <time>2011-09-24T12:13:29Z</time>
      </trkpt>
      <trkpt lat="42.58104" lon="2.05888">
        <ele>1964.641968</ele>
        <time>2011-09-24T12:13:30Z</time>
      </trkpt>
      <trkpt lat="42.58103" lon="2.05898">
        <ele>1963.699097</ele>
        <time>2011-09-24T12:13:31Z</time>
      </trkpt>
      <trkpt lat="42.581" lon="2.05906">
        <ele>1962.759033</ele>
        <time>2011-09-24T12:13:32Z</time>
      </trkpt>
      <trkpt lat="42.58097" lon="2.05915">
        <ele>1960.42334</ele>
        <time>2011-09-24T12:13:34Z</time>
      </trkpt>
      <trkpt lat="42.58093" lon="2.05925">
        <ele>1957.426514</ele>
        <time>2011-09-24T12:13:36Z</time>
      </trkpt>
      <trkpt lat="42.5809" lon="2.05937">
        <ele>1954.753662</ele>
        <time>2011-09-24T12:13:38Z</time>
      </trkpt>
      <trkpt lat="42.58091" lon="2.05945">
        <ele>1953.467163</ele>
        <time>2011-09-24T12:13:39Z</time>
      </trkpt>
      <trkpt lat="42.58092" lon="2.05953">
        <ele>1952.349365</ele>
        <time>2011-09-24T12:13:40Z</time>
      </trkpt>
      <trkpt lat="42.58093" lon="2.05963">
        <ele>1951.264893</ele>
        <time>2011-09-24T12:13:41Z</time>
      </trkpt>
      <trkpt lat="42.58094" lon="2.05973">
        <ele>1950.192017</ele>
        <time>2011-09-24T12:13:42Z</time>
      </trkpt>
      <trkpt lat="42.58094" lon="2.05985">
        <ele>1949.680176</ele>
        <time>2011-09-24T12:13:43Z</time>
      </trkpt>
      <trkpt lat="42.58094" lon="2.05998">
        <ele>1949.490234</ele>
        <time>2011-09-24T12:13:44Z</time>
      </trkpt>
      <trkpt lat="42.58093" lon="2.0601">
        <ele>1949.264893</ele>
        <time>2011-09-24T12:13:45Z</time>
      </trkpt>
      <trkpt lat="42.58091" lon="2.06021">
        <ele>1949.029907</ele>
        <time>2011-09-24T12:13:46Z</time>
      </trkpt>
      <trkpt lat="42.58092" lon="2.06032">
        <ele>1948.640015</ele>
        <time>2011-09-24T12:13:47Z</time>
      </trkpt>
      <trkpt lat="42.58092" lon="2.06043">
        <ele>1948.339233</ele>
        <time>2011-09-24T12:13:48Z</time>
      </trkpt>
      <trkpt lat="42.58093" lon="2.06054">
        <ele>1948.183838</ele>
        <time>2011-09-24T12:13:49Z</time>
      </trkpt>
      <trkpt lat="42.58097" lon="2.06065">
        <ele>1947.85022</ele>
        <time>2011-09-24T12:13:50Z</time>
      </trkpt>
      <trkpt lat="42.581" lon="2.06076">
        <ele>1947.356201</ele>
        <time>2011-09-24T12:13:51Z</time>
      </trkpt>
      <trkpt lat="42.58104" lon="2.06088">
        <ele>1946.83728</ele>
        <time>2011-09-24T12:13:52Z</time>
      </trkpt>
      <trkpt lat="42.58107" lon="2.06099">
        <ele>1946.230957</ele>
        <time>2011-09-24T12:13:53Z</time>
      </trkpt>
      <trkpt lat="42.5811" lon="2.06108">
        <ele>1945.53186</ele>
        <time>2011-09-24T12:13:54Z</time>
      </trkpt>
      <trkpt lat="42.58111" lon="2.06118">
        <ele>1944.715942</ele>
        <time>2011-09-24T12:13:55Z</time>
      </trkpt>
      <trkpt lat="42.58112" lon="2.06128">
        <ele>1943.667236</ele>
        <time>2011-09-24T12:13:56Z</time>
      </trkpt>
      <trkpt lat="42.58113" lon="2.06137">
        <ele>1942.369629</ele>
        <time>2011-09-24T12:13:57Z</time>
      </trkpt>
      <trkpt lat="42.58114" lon="2.06145">
        <ele>1940.873047</ele>
        <time>2011-09-24T12:13:58Z</time>
      </trkpt>
      <trkpt lat="42.58115" lon="2.06152">
        <ele>1939.34082</ele>
        <time>2011-09-24T12:13:59Z</time>
      </trkpt>
      <trkpt lat="42.58116" lon="2.06159">
        <ele>1937.899658</ele>
        <time>2011-09-24T12:14:00Z</time>
      </trkpt>
      <trkpt lat="42.58118" lon="2.06168">
        <ele>1936.55542</ele>
        <time>2011-09-24T12:14:01Z</time>
      </trkpt>
      <trkpt lat="42.58121" lon="2.06176">
        <ele>1935.374268</ele>
        <time>2011-09-24T12:14:02Z</time>
      </trkpt>
      <trkpt lat="42.58123" lon="2.06185">
        <ele>1933.576172</ele>
        <time>2011-09-24T12:14:03Z</time>
      </trkpt>
      <trkpt lat="42.58124" lon="2.06195">
        <ele>1931.758301</ele>
        <time>2011-09-24T12:14:04Z</time>
      </trkpt>
      <trkpt lat="42.58125" lon="2.06205">
        <ele>1929.936646</ele>
        <time>2011-09-24T12:14:05Z</time>
      </trkpt>
      <trkpt lat="42.58126" lon="2.06216">
        <ele>1928.185425</ele>
        <time>2011-09-24T12:14:06Z</time>
      </trkpt>
      <trkpt lat="42.58129" lon="2.06228">
        <ele>1926.551514</ele>
        <time>2011-09-24T12:14:07Z</time>
      </trkpt>
      <trkpt lat="42.58132" lon="2.06238">
        <ele>1925.307617</ele>
        <time>2011-09-24T12:14:08Z</time>
      </trkpt>
      <trkpt lat="42.58135" lon="2.06248">
        <ele>1924.268677</ele>
        <time>2011-09-24T12:14:09Z</time>
      </trkpt>
      <trkpt lat="42.58138" lon="2.06256">
        <ele>1923.582397</ele>
        <time>2011-09-24T12:14:10Z</time>
      </trkpt>
      <trkpt lat="42.58142" lon="2.06267">
        <ele>1922.175171</ele>
        <time>2011-09-24T12:14:12Z</time>
      </trkpt>
      <trkpt lat="42.58144" lon="2.06272">
        <ele>1921.666138</ele>
        <time>2011-09-24T12:14:13Z</time>
      </trkpt>
      <trkpt lat="42.58146" lon="2.06278">
        <ele>1921.207886</ele>
        <time>2011-09-24T12:14:14Z</time>
      </trkpt>
      <trkpt lat="42.58149" lon="2.06285">
        <ele>1920.853882</ele>
        <time>2011-09-24T12:14:15Z</time>
      </trkpt>
      <trkpt lat="42.5815" lon="2.06293">
        <ele>1920.078491</ele>
        <time>2011-09-24T12:14:16Z</time>
      </trkpt>
      <trkpt lat="42.58151" lon="2.06302">
        <ele>1918.894165</ele>
        <time>2011-09-24T12:14:17Z</time>
      </trkpt>
      <trkpt lat="42.58153" lon="2.0631">
        <ele>1917.946533</ele>
        <time>2011-09-24T12:14:18Z</time>
      </trkpt>
      <trkpt lat="42.58154" lon="2.06318">
        <ele>1917.218018</ele>
        <time>2011-09-24T12:14:19Z</time>
      </trkpt>
      <trkpt lat="42.58155" lon="2.06326">
        <ele>1916.64209</ele>
        <time>2011-09-24T12:14:20Z</time>
      </trkpt>
      <trkpt lat="42.58156" lon="2.06333">
        <ele>1916.197876</ele>
        <time>2011-09-24T12:14:21Z</time>
      </trkpt>
      <trkpt lat="42.58156" lon="2.0634">
        <ele>1916.13269</ele>
        <time>2011-09-24T12:14:22Z</time>
      </trkpt>
      <trkpt lat="42.58158" lon="2.06347">
        <ele>1916.128784</ele>
        <time>2011-09-24T12:14:23Z</time>
      </trkpt>
      <trkpt lat="42.58162" lon="2.06353">
        <ele>1915.880737</ele>
        <time>2011-09-24T12:14:24Z</time>
      </trkpt>
      <trkpt lat="42.58166" lon="2.0636">
        <ele>1915.626587</ele>
        <time>2011-09-24T12:14:25Z</time>
      </trkpt>
      <trkpt lat="42.58171" lon="2.06367">
        <ele>1915.122437</ele>
        <time>2011-09-24T12:14:26Z</time>
      </trkpt>
      <trkpt lat="42.58174" lon="2.06373">
        <ele>1914.793945</ele>
        <time>2011-09-24T12:14:27Z</time>
      </trkpt>
      <trkpt lat="42.58178" lon="2.06381">
        <ele>1914.750488</ele>
        <time>2011-09-24T12:14:29Z</time>
      </trkpt>
      <trkpt lat="42.5818" lon="2.0639">
        <ele>1914.726318</ele>
        <time>2011-09-24T12:14:30Z</time>
      </trkpt>
      <trkpt lat="42.58181" lon="2.06399">
        <ele>1914.424438</ele>
        <time>2011-09-24T12:14:31Z</time>
      </trkpt>
      <trkpt lat="42.58181" lon="2.06409">
        <ele>1913.366821</ele>
        <time>2011-09-24T12:14:32Z</time>
      </trkpt>
      <trkpt lat="42.58181" lon="2.06421">
        <ele>1912.831909</ele>
        <time>2011-09-24T12:14:33Z</time>
      </trkpt>
      <trkpt lat="42.58183" lon="2.06432">
        <ele>1912.004395</ele>
        <time>2011-09-24T12:14:34Z</time>
      </trkpt>
      <trkpt lat="42.58187" lon="2.06441">
        <ele>1911.464844</ele>
        <time>2011-09-24T12:14:35Z</time>
      </trkpt>
      <trkpt lat="42.58187" lon="2.06452">
        <ele>1910.479736</ele>
        <time>2011-09-24T12:14:36Z</time>
      </trkpt>
      <trkpt lat="42.58186" lon="2.06464">
        <ele>1909.541382</ele>
        <time>2011-09-24T12:14:37Z</time>
      </trkpt>
      <trkpt lat="42.58187" lon="2.06475">
        <ele>1908.634766</ele>
        <time>2011-09-24T12:14:38Z</time>
      </trkpt>
      <trkpt lat="42.5819" lon="2.06484">
        <ele>1907.931885</ele>
        <time>2011-09-24T12:14:39Z</time>
      </trkpt>
      <trkpt lat="42.58194" lon="2.06492">
        <ele>1907.081909</ele>
        <time>2011-09-24T12:14:40Z</time>
      </trkpt>
      <trkpt lat="42.58201" lon="2.0649">
        <ele>1904.963867</ele>
        <time>2011-09-24T12:14:41Z</time>
      </trkpt>
      <trkpt lat="42.58206" lon="2.06488">
        <ele>1903.106323</ele>
        <time>2011-09-24T12:14:42Z</time>
      </trkpt>
      <trkpt lat="42.5821" lon="2.06487">
        <ele>1901.378296</ele>
        <time>2011-09-24T12:14:43Z</time>
      </trkpt>
      <trkpt lat="42.58214" lon="2.06498">
        <ele>1898.662109</ele>
        <time>2011-09-24T12:14:45Z</time>
      </trkpt>
      <trkpt lat="42.58213" lon="2.06506">
        <ele>1897.651611</ele>
        <time>2011-09-24T12:14:46Z</time>
      </trkpt>
      <trkpt lat="42.5822" lon="2.0651">
        <ele>1896.166992</ele>
        <time>2011-09-24T12:14:48Z</time>
      </trkpt>
      <trkpt lat="42.58228" lon="2.06514">
        <ele>1894.72522</ele>
        <time>2011-09-24T12:14:50Z</time>
      </trkpt>
      <trkpt lat="42.58229" lon="2.0652">
        <ele>1893.75415</ele>
        <time>2011-09-24T12:14:51Z</time>
      </trkpt>
      <trkpt lat="42.58232" lon="2.06526">
        <ele>1892.934326</ele>
        <time>2011-09-24T12:14:52Z</time>
      </trkpt>
      <trkpt lat="42.58234" lon="2.06532">
        <ele>1892.246094</ele>
        <time>2011-09-24T12:14:53Z</time>
      </trkpt>
      <trkpt lat="42.58231" lon="2.06537">
        <ele>1891.541504</ele>
        <time>2011-09-24T12:14:54Z</time>
      </trkpt>
      <trkpt lat="42.58231" lon="2.06544">
        <ele>1891.403442</ele>
        <time>2011-09-24T12:14:56Z</time>
      </trkpt>
      <trkpt lat="42.58237" lon="2.06553">
        <ele>1889.8125</ele>
        <time>2011-09-24T12:14:58Z</time>
      </trkpt>
      <trkpt lat="42.58235" lon="2.06559">
        <ele>1889.068726</ele>
        <time>2011-09-24T12:14:59Z</time>
      </trkpt>
      <trkpt lat="42.58238" lon="2.06568">
        <ele>1887.787354</ele>
        <time>2011-09-24T12:15:01Z</time>
      </trkpt>
      <trkpt lat="42.58242" lon="2.06579">
        <ele>1886.479858</ele>
        <time>2011-09-24T12:15:03Z</time>
      </trkpt>
      <trkpt lat="42.58236" lon="2.06587">
        <ele>1885.536133</ele>
        <time>2011-09-24T12:15:04Z</time>
      </trkpt>
      <trkpt lat="42.5823" lon="2.06592">
        <ele>1884.591309</ele>
        <time>2011-09-24T12:15:05Z</time>
      </trkpt>
      <trkpt lat="42.58227" lon="2.06597">
        <ele>1883.546997</ele>
        <time>2011-09-24T12:15:06Z</time>
      </trkpt>
      <trkpt lat="42.58226" lon="2.06606">
        <ele>1881.411499</ele>
        <time>2011-09-24T12:15:08Z</time>
      </trkpt>
      <trkpt lat="42.58226" lon="2.06617">
        <ele>1878.726196</ele>
        <time>2011-09-24T12:15:10Z</time>
      </trkpt>
      <trkpt lat="42.58222" lon="2.06622">
        <ele>1877.355469</ele>
        <time>2011-09-24T12:15:11Z</time>
      </trkpt>
      <trkpt lat="42.58217" lon="2.06627">
        <ele>1876.184082</ele>
        <time>2011-09-24T12:15:12Z</time>
      </trkpt>
      <trkpt lat="42.58213" lon="2.06632">
        <ele>1875.124878</ele>
        <time>2011-09-24T12:15:13Z</time>
      </trkpt>
      <trkpt lat="42.58211" lon="2.0664">
        <ele>1874.089233</ele>
        <time>2011-09-24T12:15:14Z</time>
      </trkpt>
      <trkpt lat="42.58209" lon="2.06649">
        <ele>1873.150024</ele>
        <time>2011-09-24T12:15:15Z</time>
      </trkpt>
      <trkpt lat="42.58206" lon="2.06659">
        <ele>1872.319946</ele>
        <time>2011-09-24T12:15:16Z</time>
      </trkpt>
      <trkpt lat="42.582" lon="2.06668">
        <ele>1871.758423</ele>
        <time>2011-09-24T12:15:17Z</time>
      </trkpt>
      <trkpt lat="42.58193" lon="2.06677">
        <ele>1871.137695</ele>
        <time>2011-09-24T12:15:18Z</time>
      </trkpt>
      <trkpt lat="42.58187" lon="2.06689">
        <ele>1869.94397</ele>
        <time>2011-09-24T12:15:19Z</time>
      </trkpt>
      <trkpt lat="42.5818" lon="2.067">
        <ele>1868.189697</ele>
        <time>2011-09-24T12:15:20Z</time>
      </trkpt>
      <trkpt lat="42.58174" lon="2.06711">
        <ele>1866.450684</ele>
        <time>2011-09-24T12:15:21Z</time>
      </trkpt>
      <trkpt lat="42.58168" lon="2.06722">
        <ele>1864.629883</ele>
        <time>2011-09-24T12:15:22Z</time>
      </trkpt>
      <trkpt lat="42.58162" lon="2.06734">
        <ele>1862.47583</ele>
        <time>2011-09-24T12:15:23Z</time>
      </trkpt>
      <trkpt lat="42.58155" lon="2.06746">
        <ele>1859.898682</ele>
        <time>2011-09-24T12:15:24Z</time>
      </trkpt>
      <trkpt lat="42.58146" lon="2.06757">
        <ele>1857.023438</ele>
        <time>2011-09-24T12:15:25Z</time>
      </trkpt>
      <trkpt lat="42.58137" lon="2.06767">
        <ele>1854.136353</ele>
        <time>2011-09-24T12:15:26Z</time>
      </trkpt>
      <trkpt lat="42.58128" lon="2.06777">
        <ele>1851.478638</ele>
        <time>2011-09-24T12:15:27Z</time>
      </trkpt>
      <trkpt lat="42.5812" lon="2.06785">
        <ele>1848.984619</ele>
        <time>2011-09-24T12:15:28Z</time>
      </trkpt>
      <trkpt lat="42.58112" lon="2.06794">
        <ele>1846.713135</ele>
        <time>2011-09-24T12:15:29Z</time>
      </trkpt>
      <trkpt lat="42.58105" lon="2.06804">
        <ele>1844.429321</ele>
        <time>2011-09-24T12:15:30Z</time>
      </trkpt>
      <trkpt lat="42.58097" lon="2.06813">
        <ele>1842.268799</ele>
        <time>2011-09-24T12:15:31Z</time>
      </trkpt>
      <trkpt lat="42.58089" lon="2.06821">
        <ele>1840.408569</ele>
        <time>2011-09-24T12:15:32Z</time>
      </trkpt>
      <trkpt lat="42.5808" lon="2.06825">
        <ele>1838.849609</ele>
        <time>2011-09-24T12:15:33Z</time>
      </trkpt>
      <trkpt lat="42.58071" lon="2.06825">
        <ele>1837.526733</ele>
        <time>2011-09-24T12:15:34Z</time>
      </trkpt>
      <trkpt lat="42.58063" lon="2.06824">
        <ele>1836.459717</ele>
        <time>2011-09-24T12:15:35Z</time>
      </trkpt>
      <trkpt lat="42.58057" lon="2.06822">
        <ele>1835.529907</ele>
        <time>2011-09-24T12:15:36Z</time>
      </trkpt>
      <trkpt lat="42.58052" lon="2.0682">
        <ele>1834.778076</ele>
        <time>2011-09-24T12:15:37Z</time>
      </trkpt>
      <trkpt lat="42.58046" lon="2.06817">
        <ele>1834.21875</ele>
        <time>2011-09-24T12:15:38Z</time>
      </trkpt>
      <trkpt lat="42.58041" lon="2.06814">
        <ele>1833.759399</ele>
        <time>2011-09-24T12:15:39Z</time>
      </trkpt>
      <trkpt lat="42.58037" lon="2.06811">
        <ele>1833.419434</ele>
        <time>2011-09-24T12:15:40Z</time>
      </trkpt>
      <trkpt lat="42.58033" lon="2.06808">
        <ele>1833.203857</ele>
        <time>2011-09-24T12:15:41Z</time>
      </trkpt>
      <trkpt lat="42.58029" lon="2.06804">
        <ele>1833.056519</ele>
        <time>2011-09-24T12:15:42Z</time>
      </trkpt>
      <trkpt lat="42.58026" lon="2.068">
        <ele>1832.932129</ele>
        <time>2011-09-24T12:15:43Z</time>
      </trkpt>
      <trkpt lat="42.58022" lon="2.06795">
        <ele>1832.819336</ele>
        <time>2011-09-24T12:15:45Z</time>
      </trkpt>
      <trkpt lat="42.58019" lon="2.0679">
        <ele>1832.680908</ele>
        <time>2011-09-24T12:15:45Z</time>
      </trkpt>
      <trkpt lat="42.58015" lon="2.06784">
        <ele>1832.492554</ele>
        <time>2011-09-24T12:15:46Z</time>
      </trkpt>
      <trkpt lat="42.58011" lon="2.06778">
        <ele>1832.456299</ele>
        <time>2011-09-24T12:15:47Z</time>
      </trkpt>
      <trkpt lat="42.58005" lon="2.06771">
        <ele>1832.35791</ele>
        <time>2011-09-24T12:15:48Z</time>
      </trkpt>
      <trkpt lat="42.57999" lon="2.06766">
        <ele>1832.382324</ele>
        <time>2011-09-24T12:15:49Z</time>
      </trkpt>
      <trkpt lat="42.57993" lon="2.06761">
        <ele>1832.371704</ele>
        <time>2011-09-24T12:15:50Z</time>
      </trkpt>
      <trkpt lat="42.57987" lon="2.06755">
        <ele>1832.488281</ele>
        <time>2011-09-24T12:15:51Z</time>
      </trkpt>
      <trkpt lat="42.57981" lon="2.06749">
        <ele>1832.689575</ele>
        <time>2011-09-24T12:15:52Z</time>
      </trkpt>
      <trkpt lat="42.57974" lon="2.06741">
        <ele>1832.910522</ele>
        <time>2011-09-24T12:15:53Z</time>
      </trkpt>
      <trkpt lat="42.57966" lon="2.06734">
        <ele>1833.187256</ele>
        <time>2011-09-24T12:15:54Z</time>
      </trkpt>
      <trkpt lat="42.57959" lon="2.06727">
        <ele>1833.54541</ele>
        <time>2011-09-24T12:15:55Z</time>
      </trkpt>
      <trkpt lat="42.57952" lon="2.0672">
        <ele>1833.798096</ele>
        <time>2011-09-24T12:15:56Z</time>
      </trkpt>
      <trkpt lat="42.57947" lon="2.0671">
        <ele>1834.034668</ele>
        <time>2011-09-24T12:15:57Z</time>
      </trkpt>
      <trkpt lat="42.57944" lon="2.067">
        <ele>1834.168091</ele>
        <time>2011-09-24T12:15:58Z</time>
      </trkpt>
      <trkpt lat="42.57941" lon="2.06691">
        <ele>1834.52356</ele>
        <time>2011-09-24T12:15:59Z</time>
      </trkpt>
      <trkpt lat="42.57938" lon="2.06683">
        <ele>1834.822266</ele>
        <time>2011-09-24T12:16:00Z</time>
      </trkpt>
      <trkpt lat="42.57934" lon="2.06674">
        <ele>1835.264038</ele>
        <time>2011-09-24T12:16:01Z</time>
      </trkpt>
      <trkpt lat="42.5793" lon="2.06664">
        <ele>1835.945312</ele>
        <time>2011-09-24T12:16:02Z</time>
      </trkpt>
      <trkpt lat="42.57927" lon="2.06655">
        <ele>1836.247314</ele>
        <time>2011-09-24T12:16:03Z</time>
      </trkpt>
      <trkpt lat="42.57923" lon="2.06645">
        <ele>1836.266235</ele>
        <time>2011-09-24T12:16:04Z</time>
      </trkpt>
      <trkpt lat="42.57918" lon="2.06633">
        <ele>1836.013794</ele>
        <time>2011-09-24T12:16:05Z</time>
      </trkpt>
      <trkpt lat="42.57912" lon="2.06622">
        <ele>1835.649536</ele>
        <time>2011-09-24T12:16:06Z</time>
      </trkpt>
      <trkpt lat="42.57907" lon="2.0661">
        <ele>1835.385132</ele>
        <time>2011-09-24T12:16:07Z</time>
      </trkpt>
      <trkpt lat="42.57902" lon="2.06598">
        <ele>1835.294556</ele>
        <time>2011-09-24T12:16:08Z</time>
      </trkpt>
      <trkpt lat="42.57897" lon="2.06587">
        <ele>1834.97583</ele>
        <time>2011-09-24T12:16:09Z</time>
      </trkpt>
      <trkpt lat="42.57893" lon="2.06579">
        <ele>1834.893311</ele>
        <time>2011-09-24T12:16:10Z</time>
      </trkpt>
      <trkpt lat="42.57889" lon="2.06572">
        <ele>1834.896973</ele>
        <time>2011-09-24T12:16:11Z</time>
      </trkpt>
      <trkpt lat="42.57886" lon="2.06566">
        <ele>1834.950439</ele>
        <time>2011-09-24T12:16:12Z</time>
      </trkpt>
      <trkpt lat="42.57883" lon="2.06556">
        <ele>1835.019287</ele>
        <time>2011-09-24T12:16:13Z</time>
      </trkpt>
      <trkpt lat="42.5788" lon="2.06547">
        <ele>1835.197632</ele>
        <time>2011-09-24T12:16:14Z</time>
      </trkpt>
      <trkpt lat="42.57876" lon="2.0654">
        <ele>1835.606689</ele>
        <time>2011-09-24T12:16:15Z</time>
      </trkpt>
      <trkpt lat="42.57872" lon="2.06532">
        <ele>1836.090576</ele>
        <time>2011-09-24T12:16:16Z</time>
      </trkpt>
      <trkpt lat="42.57868" lon="2.06524">
        <ele>1836.686523</ele>
        <time>2011-09-24T12:16:17Z</time>
      </trkpt>
      <trkpt lat="42.57864" lon="2.06516">
        <ele>1837.328491</ele>
        <time>2011-09-24T12:16:18Z</time>
      </trkpt>
      <trkpt lat="42.57859" lon="2.06508">
        <ele>1837.711792</ele>
        <time>2011-09-24T12:16:19Z</time>
      </trkpt>
      <trkpt lat="42.57855" lon="2.06499">
        <ele>1837.800781</ele>
        <time>2011-09-24T12:16:20Z</time>
      </trkpt>
      <trkpt lat="42.57851" lon="2.06491">
        <ele>1837.761108</ele>
        <time>2011-09-24T12:16:21Z</time>
      </trkpt>
      <trkpt lat="42.57847" lon="2.06482">
        <ele>1837.548706</ele>
        <time>2011-09-24T12:16:22Z</time>
      </trkpt>
      <trkpt lat="42.57843" lon="2.06475">
        <ele>1837.265625</ele>
        <time>2011-09-24T12:16:23Z</time>
      </trkpt>
      <trkpt lat="42.57839" lon="2.06466">
        <ele>1836.869995</ele>
        <time>2011-09-24T12:16:24Z</time>
      </trkpt>
      <trkpt lat="42.57836" lon="2.06459">
        <ele>1836.389282</ele>
        <time>2011-09-24T12:16:25Z</time>
      </trkpt>
      <trkpt lat="42.57832" lon="2.06448">
        <ele>1835.571167</ele>
        <time>2011-09-24T12:16:26Z</time>
      </trkpt>
      <trkpt lat="42.57828" lon="2.06441">
        <ele>1834.123413</ele>
        <time>2011-09-24T12:16:27Z</time>
      </trkpt>
      <trkpt lat="42.57826" lon="2.06435">
        <ele>1833.956787</ele>
        <time>2011-09-24T12:16:28Z</time>
      </trkpt>
      <trkpt lat="42.57825" lon="2.06429">
        <ele>1833.792114</ele>
        <time>2011-09-24T12:16:29Z</time>
      </trkpt>
      <trkpt lat="42.57822" lon="2.06419">
        <ele>1833.396606</ele>
        <time>2011-09-24T12:16:31Z</time>
      </trkpt>
      <trkpt lat="42.57817" lon="2.06411">
        <ele>1832.796631</ele>
        <time>2011-09-24T12:16:33Z</time>
      </trkpt>
      <trkpt lat="42.5781" lon="2.06402">
        <ele>1828.565918</ele>
        <time>2011-09-24T12:16:35Z</time>
      </trkpt>
      <trkpt lat="42.57808" lon="2.06393">
        <ele>1825.23291</ele>
        <time>2011-09-24T12:16:36Z</time>
      </trkpt>
      <trkpt lat="42.57805" lon="2.06385">
        <ele>1821.753784</ele>
        <time>2011-09-24T12:16:37Z</time>
      </trkpt>
      <trkpt lat="42.57801" lon="2.06377">
        <ele>1818.953979</ele>
        <time>2011-09-24T12:16:38Z</time>
      </trkpt>
      <trkpt lat="42.57796" lon="2.06373">
        <ele>1817.269287</ele>
        <time>2011-09-24T12:16:39Z</time>
      </trkpt>
      <trkpt lat="42.57789" lon="2.06372">
        <ele>1815.906982</ele>
        <time>2011-09-24T12:16:40Z</time>
      </trkpt>
      <trkpt lat="42.57781" lon="2.06375">
        <ele>1815.116943</ele>
        <time>2011-09-24T12:16:41Z</time>
      </trkpt>
      <trkpt lat="42.57773" lon="2.06379">
        <ele>1814.294189</ele>
        <time>2011-09-24T12:16:42Z</time>
      </trkpt>
      <trkpt lat="42.57764" lon="2.06385">
        <ele>1812.50708</ele>
        <time>2011-09-24T12:16:43Z</time>
      </trkpt>
      <trkpt lat="42.57755" lon="2.06391">
        <ele>1809.986328</ele>
        <time>2011-09-24T12:16:44Z</time>
      </trkpt>
      <trkpt lat="42.57746" lon="2.06397">
        <ele>1806.811279</ele>
        <time>2011-09-24T12:16:45Z</time>
      </trkpt>
      <trkpt lat="42.57737" lon="2.06404">
        <ele>1803.376709</ele>
        <time>2011-09-24T12:16:46Z</time>
      </trkpt>
      <trkpt lat="42.57729" lon="2.06412">
        <ele>1799.633423</ele>
        <time>2011-09-24T12:16:47Z</time>
      </trkpt>
      <trkpt lat="42.5772" lon="2.06419">
        <ele>1796.636841</ele>
        <time>2011-09-24T12:16:48Z</time>
      </trkpt>
      <trkpt lat="42.57711" lon="2.06428">
        <ele>1794.150757</ele>
        <time>2011-09-24T12:16:49Z</time>
      </trkpt>
      <trkpt lat="42.57703" lon="2.06439">
        <ele>1792.241821</ele>
        <time>2011-09-24T12:16:50Z</time>
      </trkpt>
      <trkpt lat="42.57694" lon="2.0645">
        <ele>1790.920166</ele>
        <time>2011-09-24T12:16:51Z</time>
      </trkpt>
      <trkpt lat="42.57687" lon="2.06462">
        <ele>1790.029419</ele>
        <time>2011-09-24T12:16:52Z</time>
      </trkpt>
      <trkpt lat="42.5768" lon="2.06473">
        <ele>1789.390625</ele>
        <time>2011-09-24T12:16:53Z</time>
      </trkpt>
      <trkpt lat="42.57674" lon="2.06484">
        <ele>1788.984253</ele>
        <time>2011-09-24T12:16:54Z</time>
      </trkpt>
      <trkpt lat="42.57668" lon="2.06494">
        <ele>1788.46167</ele>
        <time>2011-09-24T12:16:55Z</time>
      </trkpt>
      <trkpt lat="42.57664" lon="2.06503">
        <ele>1785.515259</ele>
        <time>2011-09-24T12:16:56Z</time>
      </trkpt>
      <trkpt lat="42.57659" lon="2.06513">
        <ele>1783.144653</ele>
        <time>2011-09-24T12:16:57Z</time>
      </trkpt>
      <trkpt lat="42.57654" lon="2.06524">
        <ele>1781.197876</ele>
        <time>2011-09-24T12:16:58Z</time>
      </trkpt>
      <trkpt lat="42.5765" lon="2.06535">
        <ele>1778.894775</ele>
        <time>2011-09-24T12:16:59Z</time>
      </trkpt>
      <trkpt lat="42.57646" lon="2.06543">
        <ele>1775.770142</ele>
        <time>2011-09-24T12:17:00Z</time>
      </trkpt>
      <trkpt lat="42.57643" lon="2.0655">
        <ele>1773.207886</ele>
        <time>2011-09-24T12:17:01Z</time>
      </trkpt>
      <trkpt lat="42.57644" lon="2.06562">
        <ele>1769.037231</ele>
        <time>2011-09-24T12:17:03Z</time>
      </trkpt>
      <trkpt lat="42.57649" lon="2.06566">
        <ele>1767.086426</ele>
        <time>2011-09-24T12:17:04Z</time>
      </trkpt>
      <trkpt lat="42.57656" lon="2.06568">
        <ele>1765.277588</ele>
        <time>2011-09-24T12:17:05Z</time>
      </trkpt>
      <trkpt lat="42.57663" lon="2.06568">
        <ele>1763.489014</ele>
        <time>2011-09-24T12:17:06Z</time>
      </trkpt>
      <trkpt lat="42.5767" lon="2.06568">
        <ele>1761.659424</ele>
        <time>2011-09-24T12:17:07Z</time>
      </trkpt>
      <trkpt lat="42.57676" lon="2.06574">
        <ele>1761.28125</ele>
        <time>2011-09-24T12:17:09Z</time>
      </trkpt>
      <trkpt lat="42.57678" lon="2.06583">
        <ele>1759.402954</ele>
        <time>2011-09-24T12:17:10Z</time>
      </trkpt>
      <trkpt lat="42.57677" lon="2.0659">
        <ele>1757.746826</ele>
        <time>2011-09-24T12:17:11Z</time>
      </trkpt>
      <trkpt lat="42.57673" lon="2.06595">
        <ele>1756.538818</ele>
        <time>2011-09-24T12:17:12Z</time>
      </trkpt>
      <trkpt lat="42.5767" lon="2.066">
        <ele>1756.073853</ele>
        <time>2011-09-24T12:17:13Z</time>
      </trkpt>
      <trkpt lat="42.57665" lon="2.06608">
        <ele>1755.186768</ele>
        <time>2011-09-24T12:17:15Z</time>
      </trkpt>
      <trkpt lat="42.57666" lon="2.06617">
        <ele>1754.53833</ele>
        <time>2011-09-24T12:17:16Z</time>
      </trkpt>
      <trkpt lat="42.57668" lon="2.06625">
        <ele>1753.975708</ele>
        <time>2011-09-24T12:17:17Z</time>
      </trkpt>
      <trkpt lat="42.5767" lon="2.06632">
        <ele>1753.653198</ele>
        <time>2011-09-24T12:17:18Z</time>
      </trkpt>
      <trkpt lat="42.5767" lon="2.0664">
        <ele>1753.158936</ele>
        <time>2011-09-24T12:17:20Z</time>
      </trkpt>
      <trkpt lat="42.57666" lon="2.06649">
        <ele>1752.046387</ele>
        <time>2011-09-24T12:17:22Z</time>
      </trkpt>
      <trkpt lat="42.57664" lon="2.06654">
        <ele>1751.63208</ele>
        <time>2011-09-24T12:17:23Z</time>
      </trkpt>
      <trkpt lat="42.57661" lon="2.06661">
        <ele>1751.332031</ele>
        <time>2011-09-24T12:17:24Z</time>
      </trkpt>
      <trkpt lat="42.57659" lon="2.06668">
        <ele>1751.029663</ele>
        <time>2011-09-24T12:17:25Z</time>
      </trkpt>
      <trkpt lat="42.57656" lon="2.06677">
        <ele>1750.877075</ele>
        <time>2011-09-24T12:17:26Z</time>
      </trkpt>
      <trkpt lat="42.57653" lon="2.06686">
        <ele>1751.045288</ele>
        <time>2011-09-24T12:17:27Z</time>
      </trkpt>
      <trkpt lat="42.57652" lon="2.06697">
        <ele>1751.180054</ele>
        <time>2011-09-24T12:17:28Z</time>
      </trkpt>
      <trkpt lat="42.57653" lon="2.06709">
        <ele>1751.442261</ele>
        <time>2011-09-24T12:17:29Z</time>
      </trkpt>
      <trkpt lat="42.57653" lon="2.06725">
        <ele>1749.699341</ele>
        <time>2011-09-24T12:17:30Z</time>
      </trkpt>
      <trkpt lat="42.57652" lon="2.0674">
        <ele>1747.449463</ele>
        <time>2011-09-24T12:17:31Z</time>
      </trkpt>
      <trkpt lat="42.57648" lon="2.06751">
        <ele>1745.698853</ele>
        <time>2011-09-24T12:17:32Z</time>
      </trkpt>
      <trkpt lat="42.57642" lon="2.06758">
        <ele>1743.911865</ele>
        <time>2011-09-24T12:17:33Z</time>
      </trkpt>
      <trkpt lat="42.57635" lon="2.06764">
        <ele>1741.97229</ele>
        <time>2011-09-24T12:17:34Z</time>
      </trkpt>
      <trkpt lat="42.57628" lon="2.06769">
        <ele>1740.365723</ele>
        <time>2011-09-24T12:17:35Z</time>
      </trkpt>
      <trkpt lat="42.5762" lon="2.06775">
        <ele>1739.039307</ele>
        <time>2011-09-24T12:17:36Z</time>
      </trkpt>
      <trkpt lat="42.57612" lon="2.0678">
        <ele>1737.967285</ele>
        <time>2011-09-24T12:17:37Z</time>
      </trkpt>
      <trkpt lat="42.57602" lon="2.06783">
        <ele>1736.638672</ele>
        <time>2011-09-24T12:17:38Z</time>
      </trkpt>
      <trkpt lat="42.57593" lon="2.06786">
        <ele>1735.39563</ele>
        <time>2011-09-24T12:17:39Z</time>
      </trkpt>
      <trkpt lat="42.57583" lon="2.06789">
        <ele>1734.27417</ele>
        <time>2011-09-24T12:17:40Z</time>
      </trkpt>
      <trkpt lat="42.57573" lon="2.06793">
        <ele>1733.256714</ele>
        <time>2011-09-24T12:17:41Z</time>
      </trkpt>
      <trkpt lat="42.57562" lon="2.06798">
        <ele>1732.117798</ele>
        <time>2011-09-24T12:17:42Z</time>
      </trkpt>
      <trkpt lat="42.57552" lon="2.06804">
        <ele>1731.22644</ele>
        <time>2011-09-24T12:17:43Z</time>
      </trkpt>
      <trkpt lat="42.57542" lon="2.06811">
        <ele>1730.524414</ele>
        <time>2011-09-24T12:17:44Z</time>
      </trkpt>
      <trkpt lat="42.57533" lon="2.06819">
        <ele>1729.89978</ele>
        <time>2011-09-24T12:17:45Z</time>
      </trkpt>
      <trkpt lat="42.57526" lon="2.0683">
        <ele>1729.408936</ele>
        <time>2011-09-24T12:17:46Z</time>
      </trkpt>
      <trkpt lat="42.57519" lon="2.06843">
        <ele>1729.014526</ele>
        <time>2011-09-24T12:17:47Z</time>
      </trkpt>
      <trkpt lat="42.57515" lon="2.06857">
        <ele>1728.580322</ele>
        <time>2011-09-24T12:17:48Z</time>
      </trkpt>
      <trkpt lat="42.5751" lon="2.06873">
        <ele>1728.213135</ele>
        <time>2011-09-24T12:17:49Z</time>
      </trkpt>
      <trkpt lat="42.57508" lon="2.06885">
        <ele>1727.883789</ele>
        <time>2011-09-24T12:17:50Z</time>
      </trkpt>
      <trkpt lat="42.57506" lon="2.06894">
        <ele>1727.711914</ele>
        <time>2011-09-24T12:17:51Z</time>
      </trkpt>
      <trkpt lat="42.57505" lon="2.06901">
        <ele>1727.438232</ele>
        <time>2011-09-24T12:17:52Z</time>
      </trkpt>
      <trkpt lat="42.57505" lon="2.06901">
        <ele>1727.269531</ele>
        <time>2011-09-24T12:18:01Z</time>
      </trkpt>
      <trkpt lat="42.57503" lon="2.06913">
        <ele>1717.653076</ele>
        <time>2011-09-24T12:18:33Z</time>
      </trkpt>
      <trkpt lat="42.57503" lon="2.06913">
        <ele>1717.653076</ele>
        <time>2011-09-24T12:18:36Z</time>
      </trkpt>
      <trkpt lat="42.57497" lon="2.06922">
        <ele>1711.28479</ele>
        <time>2011-09-24T12:18:38Z</time>
      </trkpt>
      <trkpt lat="42.57487" lon="2.06923">
        <ele>1697.228027</ele>
        <time>2011-09-24T12:18:52Z</time>
      </trkpt>
      <trkpt lat="42.57494" lon="2.06911">
        <ele>1686.706177</ele>
        <time>2011-09-24T12:20:22Z</time>
      </trkpt>
      <trkpt lat="42.57493" lon="2.06903">
        <ele>1685.811035</ele>
        <time>2011-09-24T12:20:24Z</time>
      </trkpt>
      <trkpt lat="42.5749" lon="2.06893">
        <ele>1685.07373</ele>
        <time>2011-09-24T12:20:26Z</time>
      </trkpt>
      <trkpt lat="42.57487" lon="2.06883">
        <ele>1684.510132</ele>
        <time>2011-09-24T12:20:28Z</time>
      </trkpt>
      <trkpt lat="42.57479" lon="2.06867">
        <ele>1683.842773</ele>
        <time>2011-09-24T12:20:32Z</time>
      </trkpt>
      <trkpt lat="42.57477" lon="2.06858">
        <ele>1683.66333</ele>
        <time>2011-09-24T12:20:34Z</time>
      </trkpt>
      <trkpt lat="42.57475" lon="2.06848">
        <ele>1683.593872</ele>
        <time>2011-09-24T12:20:36Z</time>
      </trkpt>
      <trkpt lat="42.57474" lon="2.06843">
        <ele>1683.596069</ele>
        <time>2011-09-24T12:20:37Z</time>
      </trkpt>
      <trkpt lat="42.57472" lon="2.06832">
        <ele>1683.650269</ele>
        <time>2011-09-24T12:20:39Z</time>
      </trkpt>
      <trkpt lat="42.57468" lon="2.06821">
        <ele>1683.799805</ele>
        <time>2011-09-24T12:20:41Z</time>
      </trkpt>
      <trkpt lat="42.57465" lon="2.06809">
        <ele>1684.146118</ele>
        <time>2011-09-24T12:20:44Z</time>
      </trkpt>
      <trkpt lat="42.57462" lon="2.068">
        <ele>1684.436279</ele>
        <time>2011-09-24T12:20:46Z</time>
      </trkpt>
      <trkpt lat="42.5746" lon="2.0679">
        <ele>1684.763184</ele>
        <time>2011-09-24T12:20:48Z</time>
      </trkpt>
      <trkpt lat="42.57458" lon="2.0678">
        <ele>1685.026855</ele>
        <time>2011-09-24T12:20:50Z</time>
      </trkpt>
      <trkpt lat="42.57458" lon="2.06777">
        <ele>1685.113037</ele>
        <time>2011-09-24T12:20:51Z</time>
      </trkpt>
      <trkpt lat="42.57457" lon="2.06767">
        <ele>1685.267944</ele>
        <time>2011-09-24T12:20:53Z</time>
      </trkpt>
      <trkpt lat="42.57457" lon="2.0676">
        <ele>1685.355103</ele>
        <time>2011-09-24T12:20:54Z</time>
      </trkpt>
      <trkpt lat="42.57457" lon="2.06754">
        <ele>1685.471069</ele>
        <time>2011-09-24T12:20:55Z</time>
      </trkpt>
      <trkpt lat="42.57457" lon="2.06743">
        <ele>1685.783447</ele>
        <time>2011-09-24T12:20:57Z</time>
      </trkpt>
      <trkpt lat="42.57456" lon="2.06733">
        <ele>1686.148926</ele>
        <time>2011-09-24T12:20:59Z</time>
      </trkpt>
      <trkpt lat="42.57455" lon="2.06723">
        <ele>1686.548096</ele>
        <time>2011-09-24T12:21:01Z</time>
      </trkpt>
      <trkpt lat="42.57454" lon="2.06714">
        <ele>1686.975952</ele>
        <time>2011-09-24T12:21:03Z</time>
      </trkpt>
      <trkpt lat="42.57452" lon="2.06705">
        <ele>1687.443726</ele>
        <time>2011-09-24T12:21:05Z</time>
      </trkpt>
      <trkpt lat="42.57451" lon="2.06698">
        <ele>1687.952271</ele>
        <time>2011-09-24T12:21:07Z</time>
      </trkpt>
      <trkpt lat="42.5745" lon="2.06689">
        <ele>1688.56897</ele>
        <time>2011-09-24T12:21:09Z</time>
      </trkpt>
      <trkpt lat="42.57448" lon="2.06678">
        <ele>1689.262573</ele>
        <time>2011-09-24T12:21:11Z</time>
      </trkpt>
      <trkpt lat="42.57447" lon="2.06668">
        <ele>1690.024048</ele>
        <time>2011-09-24T12:21:13Z</time>
      </trkpt>
      <trkpt lat="42.57445" lon="2.06657">
        <ele>1690.834839</ele>
        <time>2011-09-24T12:21:15Z</time>
      </trkpt>
      <trkpt lat="42.57445" lon="2.06653">
        <ele>1691.26001</ele>
        <time>2011-09-24T12:21:16Z</time>
      </trkpt>
      <trkpt lat="42.57443" lon="2.06645">
        <ele>1692.115845</ele>
        <time>2011-09-24T12:21:18Z</time>
      </trkpt>
      <trkpt lat="42.57439" lon="2.06634">
        <ele>1692.991455</ele>
        <time>2011-09-24T12:21:20Z</time>
      </trkpt>
      <trkpt lat="42.57436" lon="2.06627">
        <ele>1693.873779</ele>
        <time>2011-09-24T12:21:22Z</time>
      </trkpt>
      <trkpt lat="42.57433" lon="2.06619">
        <ele>1694.745361</ele>
        <time>2011-09-24T12:21:24Z</time>
      </trkpt>
      <trkpt lat="42.5743" lon="2.06611">
        <ele>1695.606201</ele>
        <time>2011-09-24T12:21:26Z</time>
      </trkpt>
      <trkpt lat="42.57427" lon="2.06604">
        <ele>1696.421875</ele>
        <time>2011-09-24T12:21:28Z</time>
      </trkpt>
      <trkpt lat="42.57425" lon="2.06597">
        <ele>1697.240601</ele>
        <time>2011-09-24T12:21:30Z</time>
      </trkpt>
      <trkpt lat="42.57423" lon="2.06589">
        <ele>1698.067993</ele>
        <time>2011-09-24T12:21:32Z</time>
      </trkpt>
      <trkpt lat="42.57423" lon="2.06579">
        <ele>1698.940674</ele>
        <time>2011-09-24T12:21:34Z</time>
      </trkpt>
      <trkpt lat="42.57423" lon="2.06571">
        <ele>1699.829956</ele>
        <time>2011-09-24T12:21:36Z</time>
      </trkpt>
      <trkpt lat="42.57423" lon="2.06562">
        <ele>1701.337769</ele>
        <time>2011-09-24T12:21:39Z</time>
      </trkpt>
      <trkpt lat="42.57423" lon="2.06555">
        <ele>1702.358154</ele>
        <time>2011-09-24T12:21:41Z</time>
      </trkpt>
      <trkpt lat="42.57423" lon="2.06547">
        <ele>1703.411621</ele>
        <time>2011-09-24T12:21:43Z</time>
      </trkpt>
      <trkpt lat="42.57423" lon="2.06537">
        <ele>1704.398438</ele>
        <time>2011-09-24T12:21:45Z</time>
      </trkpt>
      <trkpt lat="42.57422" lon="2.06529">
        <ele>1705.443359</ele>
        <time>2011-09-24T12:21:47Z</time>
      </trkpt>
      <trkpt lat="42.57422" lon="2.06523">
        <ele>1706.596069</ele>
        <time>2011-09-24T12:21:49Z</time>
      </trkpt>
      <trkpt lat="42.57423" lon="2.06516">
        <ele>1707.723145</ele>
        <time>2011-09-24T12:21:51Z</time>
      </trkpt>
      <trkpt lat="42.57423" lon="2.06507">
        <ele>1709.745483</ele>
        <time>2011-09-24T12:21:54Z</time>
      </trkpt>
      <trkpt lat="42.57423" lon="2.065">
        <ele>1710.98877</ele>
        <time>2011-09-24T12:21:56Z</time>
      </trkpt>
      <trkpt lat="42.57423" lon="2.06488">
        <ele>1712.054688</ele>
        <time>2011-09-24T12:21:58Z</time>
      </trkpt>
      <trkpt lat="42.5742" lon="2.06477">
        <ele>1713.123779</ele>
        <time>2011-09-24T12:22:00Z</time>
      </trkpt>
      <trkpt lat="42.57419" lon="2.06471">
        <ele>1713.765137</ele>
        <time>2011-09-24T12:22:01Z</time>
      </trkpt>
      <trkpt lat="42.57417" lon="2.0646">
        <ele>1715.213501</ele>
        <time>2011-09-24T12:22:03Z</time>
      </trkpt>
      <trkpt lat="42.57416" lon="2.06452">
        <ele>1716.778931</ele>
        <time>2011-09-24T12:22:05Z</time>
      </trkpt>
      <trkpt lat="42.57416" lon="2.06443">
        <ele>1719.312256</ele>
        <time>2011-09-24T12:22:08Z</time>
      </trkpt>
      <trkpt lat="42.57416" lon="2.06436">
        <ele>1720.835449</ele>
        <time>2011-09-24T12:22:10Z</time>
      </trkpt>
      <trkpt lat="42.57414" lon="2.06428">
        <ele>1722.402466</ele>
        <time>2011-09-24T12:22:12Z</time>
      </trkpt>
      <trkpt lat="42.57413" lon="2.06417">
        <ele>1723.810547</ele>
        <time>2011-09-24T12:22:14Z</time>
      </trkpt>
      <trkpt lat="42.57412" lon="2.06408">
        <ele>1725.149414</ele>
        <time>2011-09-24T12:22:16Z</time>
      </trkpt>
      <trkpt lat="42.5741" lon="2.064">
        <ele>1726.612915</ele>
        <time>2011-09-24T12:22:18Z</time>
      </trkpt>
      <trkpt lat="42.57408" lon="2.06392">
        <ele>1728.044189</ele>
        <time>2011-09-24T12:22:20Z</time>
      </trkpt>
      <trkpt lat="42.57406" lon="2.06385">
        <ele>1729.388794</ele>
        <time>2011-09-24T12:22:22Z</time>
      </trkpt>
      <trkpt lat="42.57405" lon="2.06377">
        <ele>1730.710205</ele>
        <time>2011-09-24T12:22:24Z</time>
      </trkpt>
      <trkpt lat="42.57403" lon="2.06369">
        <ele>1731.9104</ele>
        <time>2011-09-24T12:22:26Z</time>
      </trkpt>
      <trkpt lat="42.57402" lon="2.0636">
        <ele>1732.927246</ele>
        <time>2011-09-24T12:22:28Z</time>
      </trkpt>
      <trkpt lat="42.574" lon="2.06354">
        <ele>1733.835693</ele>
        <time>2011-09-24T12:22:30Z</time>
      </trkpt>
      <trkpt lat="42.57399" lon="2.06345">
        <ele>1734.730469</ele>
        <time>2011-09-24T12:22:32Z</time>
      </trkpt>
      <trkpt lat="42.57397" lon="2.06336">
        <ele>1735.475464</ele>
        <time>2011-09-24T12:22:34Z</time>
      </trkpt>
      <trkpt lat="42.57395" lon="2.06327">
        <ele>1736.311768</ele>
        <time>2011-09-24T12:22:36Z</time>
      </trkpt>
      <trkpt lat="42.57393" lon="2.06317">
        <ele>1737.057739</ele>
        <time>2011-09-24T12:22:38Z</time>
      </trkpt>
      <trkpt lat="42.5739" lon="2.06309">
        <ele>1737.697144</ele>
        <time>2011-09-24T12:22:40Z</time>
      </trkpt>
      <trkpt lat="42.57388" lon="2.06298">
        <ele>1738.326416</ele>
        <time>2011-09-24T12:22:42Z</time>
      </trkpt>
      <trkpt lat="42.57387" lon="2.06292">
        <ele>1738.650513</ele>
        <time>2011-09-24T12:22:43Z</time>
      </trkpt>
      <trkpt lat="42.57384" lon="2.06281">
        <ele>1739.1875</ele>
        <time>2011-09-24T12:22:45Z</time>
      </trkpt>
      <trkpt lat="42.57383" lon="2.06274">
        <ele>1740.207031</ele>
        <time>2011-09-24T12:22:47Z</time>
      </trkpt>
      <trkpt lat="42.57385" lon="2.06264">
        <ele>1741.446655</ele>
        <time>2011-09-24T12:22:49Z</time>
      </trkpt>
      <trkpt lat="42.57386" lon="2.06255">
        <ele>1742.22522</ele>
        <time>2011-09-24T12:22:51Z</time>
      </trkpt>
      <trkpt lat="42.57387" lon="2.06245">
        <ele>1742.933472</ele>
        <time>2011-09-24T12:22:53Z</time>
      </trkpt>
      <trkpt lat="42.57387" lon="2.06233">
        <ele>1743.685181</ele>
        <time>2011-09-24T12:22:55Z</time>
      </trkpt>
      <trkpt lat="42.57386" lon="2.06222">
        <ele>1744.446533</ele>
        <time>2011-09-24T12:22:57Z</time>
      </trkpt>
      <trkpt lat="42.57384" lon="2.0621">
        <ele>1745.532349</ele>
        <time>2011-09-24T12:22:59Z</time>
      </trkpt>
      <trkpt lat="42.57383" lon="2.06204">
        <ele>1746.071289</ele>
        <time>2011-09-24T12:23:00Z</time>
      </trkpt>
      <trkpt lat="42.57382" lon="2.06198">
        <ele>1746.807251</ele>
        <time>2011-09-24T12:23:01Z</time>
      </trkpt>
      <trkpt lat="42.5738" lon="2.06186">
        <ele>1748.292358</ele>
        <time>2011-09-24T12:23:03Z</time>
      </trkpt>
      <trkpt lat="42.57379" lon="2.06174">
        <ele>1749.921509</ele>
        <time>2011-09-24T12:23:05Z</time>
      </trkpt>
      <trkpt lat="42.57377" lon="2.06166">
        <ele>1751.713501</ele>
        <time>2011-09-24T12:23:07Z</time>
      </trkpt>
      <trkpt lat="42.57375" lon="2.06159">
        <ele>1753.577148</ele>
        <time>2011-09-24T12:23:09Z</time>
      </trkpt>
      <trkpt lat="42.57373" lon="2.06151">
        <ele>1755.338501</ele>
        <time>2011-09-24T12:23:11Z</time>
      </trkpt>
      <trkpt lat="42.57371" lon="2.06143">
        <ele>1756.890381</ele>
        <time>2011-09-24T12:23:13Z</time>
      </trkpt>
      <trkpt lat="42.57369" lon="2.06137">
        <ele>1758.160767</ele>
        <time>2011-09-24T12:23:15Z</time>
      </trkpt>
      <trkpt lat="42.57367" lon="2.06131">
        <ele>1759.581787</ele>
        <time>2011-09-24T12:23:17Z</time>
      </trkpt>
      <trkpt lat="42.57366" lon="2.06122">
        <ele>1761.262817</ele>
        <time>2011-09-24T12:23:19Z</time>
      </trkpt>
      <trkpt lat="42.57365" lon="2.06111">
        <ele>1762.60498</ele>
        <time>2011-09-24T12:23:21Z</time>
      </trkpt>
      <trkpt lat="42.57364" lon="2.06101">
        <ele>1763.736694</ele>
        <time>2011-09-24T12:23:23Z</time>
      </trkpt>
      <trkpt lat="42.57363" lon="2.06091">
        <ele>1765.016846</ele>
        <time>2011-09-24T12:23:25Z</time>
      </trkpt>
      <trkpt lat="42.57363" lon="2.06082">
        <ele>1766.392334</ele>
        <time>2011-09-24T12:23:27Z</time>
      </trkpt>
      <trkpt lat="42.57363" lon="2.06071">
        <ele>1768.03418</ele>
        <time>2011-09-24T12:23:29Z</time>
      </trkpt>
      <trkpt lat="42.57362" lon="2.0606">
        <ele>1769.591064</ele>
        <time>2011-09-24T12:23:31Z</time>
      </trkpt>
      <trkpt lat="42.57361" lon="2.06051">
        <ele>1771.024658</ele>
        <time>2011-09-24T12:23:33Z</time>
      </trkpt>
      <trkpt lat="42.5736" lon="2.06043">
        <ele>1772.359375</ele>
        <time>2011-09-24T12:23:35Z</time>
      </trkpt>
      <trkpt lat="42.5736" lon="2.06036">
        <ele>1773.476685</ele>
        <time>2011-09-24T12:23:37Z</time>
      </trkpt>
      <trkpt lat="42.57358" lon="2.06029">
        <ele>1774.345947</ele>
        <time>2011-09-24T12:23:39Z</time>
      </trkpt>
      <trkpt lat="42.57357" lon="2.06021">
        <ele>1775.026123</ele>
        <time>2011-09-24T12:23:41Z</time>
      </trkpt>
      <trkpt lat="42.57356" lon="2.06012">
        <ele>1775.700806</ele>
        <time>2011-09-24T12:23:43Z</time>
      </trkpt>
      <trkpt lat="42.57355" lon="2.06002">
        <ele>1776.495605</ele>
        <time>2011-09-24T12:23:45Z</time>
      </trkpt>
      <trkpt lat="42.57354" lon="2.05992">
        <ele>1777.04895</ele>
        <time>2011-09-24T12:23:47Z</time>
      </trkpt>
      <trkpt lat="42.57354" lon="2.05981">
        <ele>1777.679932</ele>
        <time>2011-09-24T12:23:49Z</time>
      </trkpt>
      <trkpt lat="42.57354" lon="2.05975">
        <ele>1778.421997</ele>
        <time>2011-09-24T12:23:50Z</time>
      </trkpt>
      <trkpt lat="42.57353" lon="2.05964">
        <ele>1779.631226</ele>
        <time>2011-09-24T12:23:52Z</time>
      </trkpt>
      <trkpt lat="42.57351" lon="2.05955">
        <ele>1780.746704</ele>
        <time>2011-09-24T12:23:54Z</time>
      </trkpt>
      <trkpt lat="42.57349" lon="2.05947">
        <ele>1781.729614</ele>
        <time>2011-09-24T12:23:56Z</time>
      </trkpt>
      <trkpt lat="42.57352" lon="2.05941">
        <ele>1782.711792</ele>
        <time>2011-09-24T12:23:58Z</time>
      </trkpt>
      <trkpt lat="42.57353" lon="2.05931">
        <ele>1783.96582</ele>
        <time>2011-09-24T12:24:00Z</time>
      </trkpt>
      <trkpt lat="42.57352" lon="2.05922">
        <ele>1785.307007</ele>
        <time>2011-09-24T12:24:02Z</time>
      </trkpt>
      <trkpt lat="42.57351" lon="2.05915">
        <ele>1787.090332</ele>
        <time>2011-09-24T12:24:04Z</time>
      </trkpt>
      <trkpt lat="42.57349" lon="2.05908">
        <ele>1788.619507</ele>
        <time>2011-09-24T12:24:06Z</time>
      </trkpt>
      <trkpt lat="42.57346" lon="2.059">
        <ele>1790.495728</ele>
        <time>2011-09-24T12:24:08Z</time>
      </trkpt>
      <trkpt lat="42.57343" lon="2.05891">
        <ele>1792.649658</ele>
        <time>2011-09-24T12:24:10Z</time>
      </trkpt>
      <trkpt lat="42.57338" lon="2.05882">
        <ele>1794.616821</ele>
        <time>2011-09-24T12:24:12Z</time>
      </trkpt>
      <trkpt lat="42.57333" lon="2.05871">
        <ele>1796.384399</ele>
        <time>2011-09-24T12:24:14Z</time>
      </trkpt>
      <trkpt lat="42.57331" lon="2.05862">
        <ele>1798.400391</ele>
        <time>2011-09-24T12:24:16Z</time>
      </trkpt>
      <trkpt lat="42.5733" lon="2.05854">
        <ele>1800.697388</ele>
        <time>2011-09-24T12:24:18Z</time>
      </trkpt>
      <trkpt lat="42.57328" lon="2.05847">
        <ele>1802.802734</ele>
        <time>2011-09-24T12:24:20Z</time>
      </trkpt>
      <trkpt lat="42.57325" lon="2.05839">
        <ele>1804.555298</ele>
        <time>2011-09-24T12:24:22Z</time>
      </trkpt>
      <trkpt lat="42.57323" lon="2.05833">
        <ele>1806.184814</ele>
        <time>2011-09-24T12:24:24Z</time>
      </trkpt>
      <trkpt lat="42.57321" lon="2.05825">
        <ele>1808.47937</ele>
        <time>2011-09-24T12:24:27Z</time>
      </trkpt>
      <trkpt lat="42.5732" lon="2.05816">
        <ele>1810.656616</ele>
        <time>2011-09-24T12:24:29Z</time>
      </trkpt>
      <trkpt lat="42.57319" lon="2.05808">
        <ele>1812.094727</ele>
        <time>2011-09-24T12:24:31Z</time>
      </trkpt>
      <trkpt lat="42.57319" lon="2.05802">
        <ele>1812.674438</ele>
        <time>2011-09-24T12:24:32Z</time>
      </trkpt>
      <trkpt lat="42.57317" lon="2.05792">
        <ele>1813.834717</ele>
        <time>2011-09-24T12:24:34Z</time>
      </trkpt>
      <trkpt lat="42.57316" lon="2.05786">
        <ele>1814.404053</ele>
        <time>2011-09-24T12:24:35Z</time>
      </trkpt>
      <trkpt lat="42.57314" lon="2.05777">
        <ele>1815.339233</ele>
        <time>2011-09-24T12:24:36Z</time>
      </trkpt>
      <trkpt lat="42.57311" lon="2.05768">
        <ele>1816.703979</ele>
        <time>2011-09-24T12:24:37Z</time>
      </trkpt>
      <trkpt lat="42.57308" lon="2.05759">
        <ele>1818.330933</ele>
        <time>2011-09-24T12:24:38Z</time>
      </trkpt>
      <trkpt lat="42.57306" lon="2.05751">
        <ele>1819.988159</ele>
        <time>2011-09-24T12:24:39Z</time>
      </trkpt>
      <trkpt lat="42.57305" lon="2.05745">
        <ele>1821.681885</ele>
        <time>2011-09-24T12:24:40Z</time>
      </trkpt>
      <trkpt lat="42.57304" lon="2.05738">
        <ele>1823.452148</ele>
        <time>2011-09-24T12:24:41Z</time>
      </trkpt>
      <trkpt lat="42.57303" lon="2.05729">
        <ele>1825.038086</ele>
        <time>2011-09-24T12:24:42Z</time>
      </trkpt>
      <trkpt lat="42.57303" lon="2.05721">
        <ele>1826.459595</ele>
        <time>2011-09-24T12:24:43Z</time>
      </trkpt>
      <trkpt lat="42.57302" lon="2.05709">
        <ele>1829.344727</ele>
        <time>2011-09-24T12:24:45Z</time>
      </trkpt>
      <trkpt lat="42.57299" lon="2.05707">
        <ele>1833.297852</ele>
        <time>2011-09-24T12:24:47Z</time>
      </trkpt>
      <trkpt lat="42.57296" lon="2.05698">
        <ele>1838.480713</ele>
        <time>2011-09-24T12:24:50Z</time>
      </trkpt>
      <trkpt lat="42.57295" lon="2.05689">
        <ele>1841.600098</ele>
        <time>2011-09-24T12:24:52Z</time>
      </trkpt>
      <trkpt lat="42.57293" lon="2.0568">
        <ele>1844.236206</ele>
        <time>2011-09-24T12:24:54Z</time>
      </trkpt>
      <trkpt lat="42.57291" lon="2.0567">
        <ele>1846.258667</ele>
        <time>2011-09-24T12:24:56Z</time>
      </trkpt>
      <trkpt lat="42.57292" lon="2.0566">
        <ele>1848.517456</ele>
        <time>2011-09-24T12:24:58Z</time>
      </trkpt>
      <trkpt lat="42.57293" lon="2.0565">
        <ele>1850.464355</ele>
        <time>2011-09-24T12:25:00Z</time>
      </trkpt>
      <trkpt lat="42.57293" lon="2.05642">
        <ele>1852.330811</ele>
        <time>2011-09-24T12:25:02Z</time>
      </trkpt>
      <trkpt lat="42.57293" lon="2.05633">
        <ele>1853.364014</ele>
        <time>2011-09-24T12:25:04Z</time>
      </trkpt>
      <trkpt lat="42.57295" lon="2.05623">
        <ele>1853.909912</ele>
        <time>2011-09-24T12:25:06Z</time>
      </trkpt>
      <trkpt lat="42.57297" lon="2.05617">
        <ele>1854.102661</ele>
        <time>2011-09-24T12:25:07Z</time>
      </trkpt>
      <trkpt lat="42.57299" lon="2.05611">
        <ele>1854.320312</ele>
        <time>2011-09-24T12:25:08Z</time>
      </trkpt>
      <trkpt lat="42.57301" lon="2.05605">
        <ele>1854.72583</ele>
        <time>2011-09-24T12:25:09Z</time>
      </trkpt>
      <trkpt lat="42.57302" lon="2.05597">
        <ele>1855.421387</ele>
        <time>2011-09-24T12:25:10Z</time>
      </trkpt>
      <trkpt lat="42.57305" lon="2.05589">
        <ele>1855.973267</ele>
        <time>2011-09-24T12:25:11Z</time>
      </trkpt>
      <trkpt lat="42.57306" lon="2.05582">
        <ele>1856.549927</ele>
        <time>2011-09-24T12:25:12Z</time>
      </trkpt>
      <trkpt lat="42.57307" lon="2.05574">
        <ele>1856.991211</ele>
        <time>2011-09-24T12:25:13Z</time>
      </trkpt>
      <trkpt lat="42.57308" lon="2.05565">
        <ele>1857.486694</ele>
        <time>2011-09-24T12:25:14Z</time>
      </trkpt>
      <trkpt lat="42.57308" lon="2.05554">
        <ele>1857.912231</ele>
        <time>2011-09-24T12:25:15Z</time>
      </trkpt>
      <trkpt lat="42.57307" lon="2.05544">
        <ele>1858.256348</ele>
        <time>2011-09-24T12:25:16Z</time>
      </trkpt>
      <trkpt lat="42.57307" lon="2.05534">
        <ele>1858.652832</ele>
        <time>2011-09-24T12:25:17Z</time>
      </trkpt>
      <trkpt lat="42.57308" lon="2.05523">
        <ele>1858.968506</ele>
        <time>2011-09-24T12:25:18Z</time>
      </trkpt>
      <trkpt lat="42.57308" lon="2.05513">
        <ele>1859.242798</ele>
        <time>2011-09-24T12:25:19Z</time>
      </trkpt>
      <trkpt lat="42.57308" lon="2.05502">
        <ele>1859.680908</ele>
        <time>2011-09-24T12:25:21Z</time>
      </trkpt>
      <trkpt lat="42.57308" lon="2.05494">
        <ele>1859.904419</ele>
        <time>2011-09-24T12:25:22Z</time>
      </trkpt>
      <trkpt lat="42.57307" lon="2.05486">
        <ele>1860.138672</ele>
        <time>2011-09-24T12:25:23Z</time>
      </trkpt>
      <trkpt lat="42.57306" lon="2.05477">
        <ele>1860.384277</ele>
        <time>2011-09-24T12:25:24Z</time>
      </trkpt>
      <trkpt lat="42.57305" lon="2.05468">
        <ele>1860.649292</ele>
        <time>2011-09-24T12:25:25Z</time>
      </trkpt>
      <trkpt lat="42.57304" lon="2.05459">
        <ele>1860.916016</ele>
        <time>2011-09-24T12:25:26Z</time>
      </trkpt>
      <trkpt lat="42.57303" lon="2.05451">
        <ele>1861.226807</ele>
        <time>2011-09-24T12:25:27Z</time>
      </trkpt>
      <trkpt lat="42.57302" lon="2.05445">
        <ele>1861.565918</ele>
        <time>2011-09-24T12:25:28Z</time>
      </trkpt>
      <trkpt lat="42.57301" lon="2.05434">
        <ele>1862.55542</ele>
        <time>2011-09-24T12:25:30Z</time>
      </trkpt>
      <trkpt lat="42.573" lon="2.05429">
        <ele>1863.628906</ele>
        <time>2011-09-24T12:25:31Z</time>
      </trkpt>
      <trkpt lat="42.573" lon="2.05422">
        <ele>1867.446655</ele>
        <time>2011-09-24T12:25:33Z</time>
      </trkpt>
      <trkpt lat="42.57299" lon="2.05414">
        <ele>1877.639038</ele>
        <time>2011-09-24T12:25:38Z</time>
      </trkpt>
      <trkpt lat="42.57299" lon="2.05408">
        <ele>1884.404419</ele>
        <time>2011-09-24T12:25:42Z</time>
      </trkpt>
      <trkpt lat="42.57298" lon="2.05401">
        <ele>1889.549805</ele>
        <time>2011-09-24T12:25:45Z</time>
      </trkpt>
      <trkpt lat="42.57296" lon="2.05393">
        <ele>1894.656006</ele>
        <time>2011-09-24T12:25:48Z</time>
      </trkpt>
      <trkpt lat="42.57294" lon="2.05387">
        <ele>1899.793579</ele>
        <time>2011-09-24T12:25:51Z</time>
      </trkpt>
      <trkpt lat="42.57292" lon="2.05381">
        <ele>1905.104492</ele>
        <time>2011-09-24T12:25:54Z</time>
      </trkpt>
      <trkpt lat="42.5729" lon="2.05376">
        <ele>1910.58667</ele>
        <time>2011-09-24T12:25:57Z</time>
      </trkpt>
      <trkpt lat="42.57287" lon="2.0537">
        <ele>1916.298096</ele>
        <time>2011-09-24T12:26:00Z</time>
      </trkpt>
      <trkpt lat="42.57282" lon="2.05366">
        <ele>1928.279419</ele>
        <time>2011-09-24T12:26:05Z</time>
      </trkpt>
      <trkpt lat="42.57276" lon="2.05363">
        <ele>1936.315552</ele>
        <time>2011-09-24T12:26:08Z</time>
      </trkpt>
      <trkpt lat="42.57271" lon="2.05358">
        <ele>1944.004395</ele>
        <time>2011-09-24T12:26:11Z</time>
      </trkpt>
      <trkpt lat="42.57266" lon="2.05359">
        <ele>1953.89978</ele>
        <time>2011-09-24T12:26:15Z</time>
      </trkpt>
      <trkpt lat="42.57266" lon="2.05359">
        <ele>1954.380981</ele>
        <time>2011-09-24T12:26:17Z</time>
      </trkpt>
      <trkpt lat="42.57264" lon="2.05353">
        <ele>1962.515015</ele>
        <time>2011-09-24T12:26:26Z</time>
      </trkpt>
      <trkpt lat="42.57265" lon="2.05347">
        <ele>1964.470703</ele>
        <time>2011-09-24T12:26:29Z</time>
      </trkpt>
      <trkpt lat="42.57266" lon="2.05341">
        <ele>1966.191528</ele>
        <time>2011-09-24T12:26:33Z</time>
      </trkpt>
      <trkpt lat="42.57266" lon="2.05341">
        <ele>1966.319946</ele>
        <time>2011-09-24T12:26:34Z</time>
      </trkpt>
      <trkpt lat="42.57266" lon="2.05333">
        <ele>1968.028564</ele>
        <time>2011-09-24T12:26:38Z</time>
      </trkpt>
      <trkpt lat="42.57266" lon="2.05326">
        <ele>1972.410156</ele>
        <time>2011-09-24T12:26:45Z</time>
      </trkpt>
      <trkpt lat="42.57265" lon="2.05324">
        <ele>1975.422852</ele>
        <time>2011-09-24T12:26:48Z</time>
      </trkpt>
      <trkpt lat="42.57262" lon="2.05318">
        <ele>1975.591309</ele>
        <time>2011-09-24T12:26:49Z</time>
      </trkpt>
      <trkpt lat="42.57262" lon="2.05318">
        <ele>1975.946655</ele>
        <time>2011-09-24T12:26:51Z</time>
      </trkpt>
      <trkpt lat="42.57257" lon="2.05315">
        <ele>1976.136597</ele>
        <time>2011-09-24T12:26:52Z</time>
      </trkpt>
      <trkpt lat="42.57257" lon="2.05315">
        <ele>1976.333374</ele>
        <time>2011-09-24T12:26:53Z</time>
      </trkpt>
      <trkpt lat="42.57259" lon="2.05309">
        <ele>1983.676636</ele>
        <time>2011-09-24T12:27:07Z</time>
      </trkpt>
      <trkpt lat="42.57264" lon="2.0531">
        <ele>1985.381836</ele>
        <time>2011-09-24T12:27:14Z</time>
      </trkpt>
      <trkpt lat="42.57264" lon="2.0531">
        <ele>1985.626221</ele>
        <time>2011-09-24T12:27:15Z</time>
      </trkpt>
      <trkpt lat="42.5727" lon="2.05311">
        <ele>1986.590332</ele>
        <time>2011-09-24T12:27:19Z</time>
      </trkpt>
      <trkpt lat="42.57274" lon="2.05311">
        <ele>1998.026978</ele>
        <time>2011-09-24T12:27:30Z</time>
      </trkpt>
      <trkpt lat="42.57268" lon="2.0531">
        <ele>2008.948853</ele>
        <time>2011-09-24T12:27:35Z</time>
      </trkpt>
      <trkpt lat="42.57261" lon="2.05309">
        <ele>2012.934692</ele>
        <time>2011-09-24T12:27:37Z</time>
      </trkpt>
      <trkpt lat="42.57253" lon="2.05307">
        <ele>2016.859253</ele>
        <time>2011-09-24T12:27:39Z</time>
      </trkpt>
      <trkpt lat="42.57249" lon="2.05307">
        <ele>2018.780151</ele>
        <time>2011-09-24T12:27:40Z</time>
      </trkpt>
      <trkpt lat="42.57241" lon="2.05307">
        <ele>2022.521606</ele>
        <time>2011-09-24T12:27:42Z</time>
      </trkpt>
      <trkpt lat="42.57234" lon="2.0531">
        <ele>2026.159546</ele>
        <time>2011-09-24T12:27:44Z</time>
      </trkpt>
      <trkpt lat="42.57228" lon="2.05313">
        <ele>2029.685425</ele>
        <time>2011-09-24T12:27:46Z</time>
      </trkpt>
      <trkpt lat="42.57223" lon="2.05318">
        <ele>2033.090698</ele>
        <time>2011-09-24T12:27:48Z</time>
      </trkpt>
      <trkpt lat="42.57217" lon="2.05324">
        <ele>2036.369019</ele>
        <time>2011-09-24T12:27:50Z</time>
      </trkpt>
      <trkpt lat="42.57212" lon="2.05331">
        <ele>2039.480591</ele>
        <time>2011-09-24T12:27:52Z</time>
      </trkpt>
      <trkpt lat="42.57207" lon="2.05338">
        <ele>2042.42688</ele>
        <time>2011-09-24T12:27:54Z</time>
      </trkpt>
      <trkpt lat="42.57203" lon="2.05346">
        <ele>2045.259888</ele>
        <time>2011-09-24T12:27:56Z</time>
      </trkpt>
      <trkpt lat="42.57199" lon="2.05354">
        <ele>2047.983521</ele>
        <time>2011-09-24T12:27:58Z</time>
      </trkpt>
      <trkpt lat="42.57197" lon="2.05361">
        <ele>2050.594238</ele>
        <time>2011-09-24T12:28:00Z</time>
      </trkpt>
      <trkpt lat="42.57197" lon="2.05368">
        <ele>2053.095703</ele>
        <time>2011-09-24T12:28:02Z</time>
      </trkpt>
      <trkpt lat="42.57196" lon="2.05374">
        <ele>2055.492432</ele>
        <time>2011-09-24T12:28:04Z</time>
      </trkpt>
      <trkpt lat="42.57196" lon="2.05378">
        <ele>2056.653809</ele>
        <time>2011-09-24T12:28:05Z</time>
      </trkpt>
      <trkpt lat="42.57196" lon="2.05385">
        <ele>2058.916748</ele>
        <time>2011-09-24T12:28:07Z</time>
      </trkpt>
      <trkpt lat="42.57196" lon="2.05393">
        <ele>2061.108643</ele>
        <time>2011-09-24T12:28:09Z</time>
      </trkpt>
      <trkpt lat="42.57196" lon="2.05399">
        <ele>2063.233398</ele>
        <time>2011-09-24T12:28:11Z</time>
      </trkpt>
      <trkpt lat="42.57196" lon="2.05406">
        <ele>2065.28125</ele>
        <time>2011-09-24T12:28:13Z</time>
      </trkpt>
      <trkpt lat="42.57196" lon="2.05416">
        <ele>2067.253418</ele>
        <time>2011-09-24T12:28:15Z</time>
      </trkpt>
      <trkpt lat="42.57196" lon="2.05423">
        <ele>2069.160156</ele>
        <time>2011-09-24T12:28:17Z</time>
      </trkpt>
      <trkpt lat="42.57196" lon="2.0543">
        <ele>2070.98999</ele>
        <time>2011-09-24T12:28:19Z</time>
      </trkpt>
      <trkpt lat="42.57196" lon="2.05437">
        <ele>2072.747314</ele>
        <time>2011-09-24T12:28:21Z</time>
      </trkpt>
      <trkpt lat="42.57196" lon="2.05443">
        <ele>2074.442627</ele>
        <time>2011-09-24T12:28:23Z</time>
      </trkpt>
      <trkpt lat="42.57196" lon="2.0545">
        <ele>2076.081055</ele>
        <time>2011-09-24T12:28:25Z</time>
      </trkpt>
      <trkpt lat="42.57195" lon="2.05457">
        <ele>2077.66333</ele>
        <time>2011-09-24T12:28:27Z</time>
      </trkpt>
      <trkpt lat="42.57195" lon="2.05466">
        <ele>2079.928955</ele>
        <time>2011-09-24T12:28:30Z</time>
      </trkpt>
      <trkpt lat="42.57196" lon="2.05472">
        <ele>2081.386963</ele>
        <time>2011-09-24T12:28:32Z</time>
      </trkpt>
      <trkpt lat="42.57196" lon="2.05479">
        <ele>2082.812744</ele>
        <time>2011-09-24T12:28:34Z</time>
      </trkpt>
      <trkpt lat="42.57196" lon="2.05487">
        <ele>2084.876465</ele>
        <time>2011-09-24T12:28:37Z</time>
      </trkpt>
      <trkpt lat="42.57194" lon="2.05496">
        <ele>2086.841553</ele>
        <time>2011-09-24T12:28:40Z</time>
      </trkpt>
      <trkpt lat="42.57191" lon="2.05501">
        <ele>2088.092041</ele>
        <time>2011-09-24T12:28:42Z</time>
      </trkpt>
      <trkpt lat="42.57189" lon="2.05506">
        <ele>2089.287109</ele>
        <time>2011-09-24T12:28:44Z</time>
      </trkpt>
      <trkpt lat="42.57186" lon="2.05511">
        <ele>2090.431641</ele>
        <time>2011-09-24T12:28:46Z</time>
      </trkpt>
      <trkpt lat="42.57182" lon="2.05517">
        <ele>2092.098877</ele>
        <time>2011-09-24T12:28:49Z</time>
      </trkpt>
      <trkpt lat="42.57178" lon="2.05523">
        <ele>2093.730225</ele>
        <time>2011-09-24T12:28:52Z</time>
      </trkpt>
      <trkpt lat="42.57175" lon="2.05528">
        <ele>2094.753174</ele>
        <time>2011-09-24T12:28:54Z</time>
      </trkpt>
      <trkpt lat="42.5717" lon="2.05532">
        <ele>2095.741699</ele>
        <time>2011-09-24T12:28:56Z</time>
      </trkpt>
      <trkpt lat="42.57165" lon="2.05537">
        <ele>2097.16333</ele>
        <time>2011-09-24T12:28:59Z</time>
      </trkpt>
      <trkpt lat="42.5716" lon="2.0554">
        <ele>2098.510742</ele>
        <time>2011-09-24T12:29:02Z</time>
      </trkpt>
      <trkpt lat="42.57156" lon="2.05541">
        <ele>2102.171143</ele>
        <time>2011-09-24T12:29:15Z</time>
      </trkpt>
      <trkpt lat="42.57151" lon="2.05546">
        <ele>2103.761963</ele>
        <time>2011-09-24T12:29:25Z</time>
      </trkpt>
      <trkpt lat="42.57148" lon="2.05552">
        <ele>2104.184082</ele>
        <time>2011-09-24T12:29:27Z</time>
      </trkpt>
      <trkpt lat="42.57143" lon="2.05561">
        <ele>2108.213379</ele>
        <time>2011-09-24T12:29:29Z</time>
      </trkpt>
      <trkpt lat="42.5714" lon="2.05565">
        <ele>2109.659912</ele>
        <time>2011-09-24T12:29:30Z</time>
      </trkpt>
      <trkpt lat="42.57136" lon="2.0557">
        <ele>2110.817871</ele>
        <time>2011-09-24T12:29:31Z</time>
      </trkpt>
      <trkpt lat="42.57132" lon="2.05574">
        <ele>2111.731445</ele>
        <time>2011-09-24T12:29:32Z</time>
      </trkpt>
      <trkpt lat="42.57129" lon="2.05578">
        <ele>2112.513672</ele>
        <time>2011-09-24T12:29:33Z</time>
      </trkpt>
      <trkpt lat="42.57126" lon="2.05584">
        <ele>2113.151123</ele>
        <time>2011-09-24T12:29:34Z</time>
      </trkpt>
      <trkpt lat="42.57122" lon="2.05595">
        <ele>2113.711182</ele>
        <time>2011-09-24T12:29:36Z</time>
      </trkpt>
      <trkpt lat="42.57119" lon="2.05602">
        <ele>2114.071289</ele>
        <time>2011-09-24T12:29:37Z</time>
      </trkpt>
      <trkpt lat="42.57115" lon="2.05609">
        <ele>2114.438721</ele>
        <time>2011-09-24T12:29:38Z</time>
      </trkpt>
      <trkpt lat="42.57111" lon="2.05617">
        <ele>2114.917725</ele>
        <time>2011-09-24T12:29:39Z</time>
      </trkpt>
      <trkpt lat="42.57107" lon="2.05625">
        <ele>2115.231689</ele>
        <time>2011-09-24T12:29:40Z</time>
      </trkpt>
      <trkpt lat="42.57103" lon="2.05633">
        <ele>2115.272705</ele>
        <time>2011-09-24T12:29:41Z</time>
      </trkpt>
      <trkpt lat="42.571" lon="2.05639">
        <ele>2115.137939</ele>
        <time>2011-09-24T12:29:42Z</time>
      </trkpt>
      <trkpt lat="42.57096" lon="2.05646">
        <ele>2115.144531</ele>
        <time>2011-09-24T12:29:44Z</time>
      </trkpt>
      <trkpt lat="42.57093" lon="2.05655">
        <ele>2115.220703</ele>
        <time>2011-09-24T12:29:47Z</time>
      </trkpt>
      <trkpt lat="42.57094" lon="2.05667">
        <ele>2115.565918</ele>
        <time>2011-09-24T12:29:49Z</time>
      </trkpt>
      <trkpt lat="42.57096" lon="2.05673">
        <ele>2115.810059</ele>
        <time>2011-09-24T12:29:50Z</time>
      </trkpt>
      <trkpt lat="42.57094" lon="2.05684">
        <ele>2115.816895</ele>
        <time>2011-09-24T12:29:52Z</time>
      </trkpt>
      <trkpt lat="42.57089" lon="2.0569">
        <ele>2115.757568</ele>
        <time>2011-09-24T12:29:54Z</time>
      </trkpt>
      <trkpt lat="42.57083" lon="2.05697">
        <ele>2115.612061</ele>
        <time>2011-09-24T12:29:56Z</time>
      </trkpt>
      <trkpt lat="42.57082" lon="2.05704">
        <ele>2115.557617</ele>
        <time>2011-09-24T12:29:57Z</time>
      </trkpt>
      <trkpt lat="42.5708" lon="2.05714">
        <ele>2115.548096</ele>
        <time>2011-09-24T12:29:59Z</time>
      </trkpt>
      <trkpt lat="42.57077" lon="2.0572">
        <ele>2115.546387</ele>
        <time>2011-09-24T12:30:01Z</time>
      </trkpt>
      <trkpt lat="42.57073" lon="2.05725">
        <ele>2115.548828</ele>
        <time>2011-09-24T12:30:03Z</time>
      </trkpt>
      <trkpt lat="42.5707" lon="2.05733">
        <ele>2115.556396</ele>
        <time>2011-09-24T12:30:05Z</time>
      </trkpt>
      <trkpt lat="42.57068" lon="2.05742">
        <ele>2115.573242</ele>
        <time>2011-09-24T12:30:07Z</time>
      </trkpt>
      <trkpt lat="42.57065" lon="2.0575">
        <ele>2115.565674</ele>
        <time>2011-09-24T12:30:09Z</time>
      </trkpt>
      <trkpt lat="42.57062" lon="2.05755">
        <ele>2115.775879</ele>
        <time>2011-09-24T12:30:13Z</time>
      </trkpt>
      <trkpt lat="42.57056" lon="2.05759">
        <ele>2116.093262</ele>
        <time>2011-09-24T12:30:16Z</time>
      </trkpt>
      <trkpt lat="42.57052" lon="2.05766">
        <ele>2116.356445</ele>
        <time>2011-09-24T12:30:18Z</time>
      </trkpt>
      <trkpt lat="42.57048" lon="2.05772">
        <ele>2116.616943</ele>
        <time>2011-09-24T12:30:20Z</time>
      </trkpt>
      <trkpt lat="42.57043" lon="2.05783">
        <ele>2116.757812</ele>
        <time>2011-09-24T12:30:22Z</time>
      </trkpt>
      <trkpt lat="42.5704" lon="2.05793">
        <ele>2116.645996</ele>
        <time>2011-09-24T12:30:23Z</time>
      </trkpt>
      <trkpt lat="42.57036" lon="2.05801">
        <ele>2115.333496</ele>
        <time>2011-09-24T12:30:24Z</time>
      </trkpt>
      <trkpt lat="42.57033" lon="2.05809">
        <ele>2113.89209</ele>
        <time>2011-09-24T12:30:25Z</time>
      </trkpt>
      <trkpt lat="42.57029" lon="2.05815">
        <ele>2112.337891</ele>
        <time>2011-09-24T12:30:26Z</time>
      </trkpt>
      <trkpt lat="42.57026" lon="2.05822">
        <ele>2111.021484</ele>
        <time>2011-09-24T12:30:27Z</time>
      </trkpt>
      <trkpt lat="42.57023" lon="2.05828">
        <ele>2109.897705</ele>
        <time>2011-09-24T12:30:28Z</time>
      </trkpt>
      <trkpt lat="42.57022" lon="2.05834">
        <ele>2109.796143</ele>
        <time>2011-09-24T12:30:29Z</time>
      </trkpt>
      <trkpt lat="42.57019" lon="2.05845">
        <ele>2109.599854</ele>
        <time>2011-09-24T12:30:31Z</time>
      </trkpt>
      <trkpt lat="42.57017" lon="2.05855">
        <ele>2109.402588</ele>
        <time>2011-09-24T12:30:33Z</time>
      </trkpt>
      <trkpt lat="42.57015" lon="2.05866">
        <ele>2109.223633</ele>
        <time>2011-09-24T12:30:35Z</time>
      </trkpt>
      <trkpt lat="42.57011" lon="2.05876">
        <ele>2109.047363</ele>
        <time>2011-09-24T12:30:37Z</time>
      </trkpt>
      <trkpt lat="42.57007" lon="2.05883">
        <ele>2108.850342</ele>
        <time>2011-09-24T12:30:39Z</time>
      </trkpt>
      <trkpt lat="42.57003" lon="2.05889">
        <ele>2108.651611</ele>
        <time>2011-09-24T12:30:41Z</time>
      </trkpt>
      <trkpt lat="42.57002" lon="2.05896">
        <ele>2107.501221</ele>
        <time>2011-09-24T12:30:42Z</time>
      </trkpt>
      <trkpt lat="42.57003" lon="2.05904">
        <ele>2106.419189</ele>
        <time>2011-09-24T12:30:43Z</time>
      </trkpt>
      <trkpt lat="42.57003" lon="2.05914">
        <ele>2104.35791</ele>
        <time>2011-09-24T12:30:44Z</time>
      </trkpt>
      <trkpt lat="42.57001" lon="2.05923">
        <ele>2101.910889</ele>
        <time>2011-09-24T12:30:45Z</time>
      </trkpt>
      <trkpt lat="42.56999" lon="2.05931">
        <ele>2099.627197</ele>
        <time>2011-09-24T12:30:46Z</time>
      </trkpt>
      <trkpt lat="42.56994" lon="2.0594">
        <ele>2099.285156</ele>
        <time>2011-09-24T12:30:48Z</time>
      </trkpt>
      <trkpt lat="42.56991" lon="2.05947">
        <ele>2098.749756</ele>
        <time>2011-09-24T12:30:51Z</time>
      </trkpt>
      <trkpt lat="42.5699" lon="2.05954">
        <ele>2098.402832</ele>
        <time>2011-09-24T12:30:53Z</time>
      </trkpt>
      <trkpt lat="42.56988" lon="2.05961">
        <ele>2098.019531</ele>
        <time>2011-09-24T12:30:55Z</time>
      </trkpt>
      <trkpt lat="42.56984" lon="2.05966">
        <ele>2097.599854</ele>
        <time>2011-09-24T12:30:57Z</time>
      </trkpt>
      <trkpt lat="42.56979" lon="2.05963">
        <ele>2097.188477</ele>
        <time>2011-09-24T12:30:59Z</time>
      </trkpt>
      <trkpt lat="42.56975" lon="2.05959">
        <ele>2096.712891</ele>
        <time>2011-09-24T12:31:01Z</time>
      </trkpt>
      <trkpt lat="42.5697" lon="2.05955">
        <ele>2096.195312</ele>
        <time>2011-09-24T12:31:03Z</time>
      </trkpt>
      <trkpt lat="42.56966" lon="2.05951">
        <ele>2095.549316</ele>
        <time>2011-09-24T12:31:05Z</time>
      </trkpt>
      <trkpt lat="42.56961" lon="2.0595">
        <ele>2094.918457</ele>
        <time>2011-09-24T12:31:07Z</time>
      </trkpt>
      <trkpt lat="42.56959" lon="2.05958">
        <ele>2094.282471</ele>
        <time>2011-09-24T12:31:09Z</time>
      </trkpt>
      <trkpt lat="42.56959" lon="2.05968">
        <ele>2093.63916</ele>
        <time>2011-09-24T12:31:11Z</time>
      </trkpt>
      <trkpt lat="42.56958" lon="2.05978">
        <ele>2092.997803</ele>
        <time>2011-09-24T12:31:13Z</time>
      </trkpt>
      <trkpt lat="42.56956" lon="2.05987">
        <ele>2092.369873</ele>
        <time>2011-09-24T12:31:15Z</time>
      </trkpt>
      <trkpt lat="42.56954" lon="2.05996">
        <ele>2091.722656</ele>
        <time>2011-09-24T12:31:17Z</time>
      </trkpt>
      <trkpt lat="42.56948" lon="2.05998">
        <ele>2091.011719</ele>
        <time>2011-09-24T12:31:19Z</time>
      </trkpt>
      <trkpt lat="42.56943" lon="2.06">
        <ele>2086.632812</ele>
        <time>2011-09-24T12:31:20Z</time>
      </trkpt>
      <trkpt lat="42.56938" lon="2.06002">
        <ele>2082.537842</ele>
        <time>2011-09-24T12:31:21Z</time>
      </trkpt>
      <trkpt lat="42.56933" lon="2.06004">
        <ele>2082.214355</ele>
        <time>2011-09-24T12:31:22Z</time>
      </trkpt>
      <trkpt lat="42.56929" lon="2.06007">
        <ele>2079.230225</ele>
        <time>2011-09-24T12:31:23Z</time>
      </trkpt>
      <trkpt lat="42.56924" lon="2.0601">
        <ele>2076.94458</ele>
        <time>2011-09-24T12:31:24Z</time>
      </trkpt>
      <trkpt lat="42.5692" lon="2.06013">
        <ele>2074.983154</ele>
        <time>2011-09-24T12:31:25Z</time>
      </trkpt>
      <trkpt lat="42.56916" lon="2.06018">
        <ele>2073.410645</ele>
        <time>2011-09-24T12:31:26Z</time>
      </trkpt>
      <trkpt lat="42.56913" lon="2.06023">
        <ele>2072.084229</ele>
        <time>2011-09-24T12:31:27Z</time>
      </trkpt>
      <trkpt lat="42.56911" lon="2.06029">
        <ele>2071.015381</ele>
        <time>2011-09-24T12:31:28Z</time>
      </trkpt>
      <trkpt lat="42.56909" lon="2.06035">
        <ele>2070.135742</ele>
        <time>2011-09-24T12:31:29Z</time>
      </trkpt>
      <trkpt lat="42.56908" lon="2.06041">
        <ele>2069.562988</ele>
        <time>2011-09-24T12:31:30Z</time>
      </trkpt>
      <trkpt lat="42.56906" lon="2.06052">
        <ele>2069.455322</ele>
        <time>2011-09-24T12:31:32Z</time>
      </trkpt>
      <trkpt lat="42.56904" lon="2.06058">
        <ele>2069.400879</ele>
        <time>2011-09-24T12:31:33Z</time>
      </trkpt>
      <trkpt lat="42.56903" lon="2.06064">
        <ele>2068.949707</ele>
        <time>2011-09-24T12:31:34Z</time>
      </trkpt>
      <trkpt lat="42.56901" lon="2.06072">
        <ele>2068.617188</ele>
        <time>2011-09-24T12:31:35Z</time>
      </trkpt>
      <trkpt lat="42.56899" lon="2.06079">
        <ele>2068.101807</ele>
        <time>2011-09-24T12:31:36Z</time>
      </trkpt>
      <trkpt lat="42.56897" lon="2.06084">
        <ele>2067.5271</ele>
        <time>2011-09-24T12:31:37Z</time>
      </trkpt>
      <trkpt lat="42.5689" lon="2.06088">
        <ele>2066.241211</ele>
        <time>2011-09-24T12:31:39Z</time>
      </trkpt>
      <trkpt lat="42.56884" lon="2.06086">
        <ele>2065.811035</ele>
        <time>2011-09-24T12:31:41Z</time>
      </trkpt>
      <trkpt lat="42.56877" lon="2.0608">
        <ele>2061.235107</ele>
        <time>2011-09-24T12:31:43Z</time>
      </trkpt>
      <trkpt lat="42.56872" lon="2.06075">
        <ele>2056.459229</ele>
        <time>2011-09-24T12:31:45Z</time>
      </trkpt>
      <trkpt lat="42.56865" lon="2.06071">
        <ele>2055.181152</ele>
        <time>2011-09-24T12:31:48Z</time>
      </trkpt>
      <trkpt lat="42.56861" lon="2.06076">
        <ele>2054.325195</ele>
        <time>2011-09-24T12:31:50Z</time>
      </trkpt>
      <trkpt lat="42.56859" lon="2.06083">
        <ele>2050.14209</ele>
        <time>2011-09-24T12:31:51Z</time>
      </trkpt>
      <trkpt lat="42.56857" lon="2.06089">
        <ele>2046.769165</ele>
        <time>2011-09-24T12:31:52Z</time>
      </trkpt>
      <trkpt lat="42.56855" lon="2.06096">
        <ele>2044.111206</ele>
        <time>2011-09-24T12:31:53Z</time>
      </trkpt>
      <trkpt lat="42.56855" lon="2.06103">
        <ele>2042.130249</ele>
        <time>2011-09-24T12:31:54Z</time>
      </trkpt>
      <trkpt lat="42.56854" lon="2.0611">
        <ele>2040.739868</ele>
        <time>2011-09-24T12:31:55Z</time>
      </trkpt>
      <trkpt lat="42.56854" lon="2.06119">
        <ele>2040.526489</ele>
        <time>2011-09-24T12:31:57Z</time>
      </trkpt>
      <trkpt lat="42.56852" lon="2.0613">
        <ele>2040.051636</ele>
        <time>2011-09-24T12:32:01Z</time>
      </trkpt>
      <trkpt lat="42.56852" lon="2.06138">
        <ele>2039.560669</ele>
        <time>2011-09-24T12:32:04Z</time>
      </trkpt>
      <trkpt lat="42.56849" lon="2.06144">
        <ele>2039.196655</ele>
        <time>2011-09-24T12:32:06Z</time>
      </trkpt>
      <trkpt lat="42.56846" lon="2.06151">
        <ele>2038.765259</ele>
        <time>2011-09-24T12:32:08Z</time>
      </trkpt>
      <trkpt lat="42.56845" lon="2.06157">
        <ele>2038.465942</ele>
        <time>2011-09-24T12:32:09Z</time>
      </trkpt>
      <trkpt lat="42.56844" lon="2.06164">
        <ele>2038.078735</ele>
        <time>2011-09-24T12:32:10Z</time>
      </trkpt>
      <trkpt lat="42.56845" lon="2.06172">
        <ele>2037.604858</ele>
        <time>2011-09-24T12:32:11Z</time>
      </trkpt>
      <trkpt lat="42.56843" lon="2.06183">
        <ele>2032.115356</ele>
        <time>2011-09-24T12:32:13Z</time>
      </trkpt>
      <trkpt lat="42.56845" lon="2.06193">
        <ele>2024.316284</ele>
        <time>2011-09-24T12:32:15Z</time>
      </trkpt>
      <trkpt lat="42.56848" lon="2.06202">
        <ele>2018.955444</ele>
        <time>2011-09-24T12:32:17Z</time>
      </trkpt>
      <trkpt lat="42.56845" lon="2.06211">
        <ele>2018.502563</ele>
        <time>2011-09-24T12:32:19Z</time>
      </trkpt>
      <trkpt lat="42.56841" lon="2.0622">
        <ele>2018.014282</ele>
        <time>2011-09-24T12:32:21Z</time>
      </trkpt>
      <trkpt lat="42.56842" lon="2.06232">
        <ele>2013.658813</ele>
        <time>2011-09-24T12:32:23Z</time>
      </trkpt>
      <trkpt lat="42.56839" lon="2.06243">
        <ele>2010.940308</ele>
        <time>2011-09-24T12:32:25Z</time>
      </trkpt>
      <trkpt lat="42.56835" lon="2.06252">
        <ele>2010.686401</ele>
        <time>2011-09-24T12:32:27Z</time>
      </trkpt>
      <trkpt lat="42.56833" lon="2.06258">
        <ele>2010.51355</ele>
        <time>2011-09-24T12:32:28Z</time>
      </trkpt>
      <trkpt lat="42.56831" lon="2.06266">
        <ele>2010.16687</ele>
        <time>2011-09-24T12:32:30Z</time>
      </trkpt>
      <trkpt lat="42.56833" lon="2.06272">
        <ele>2009.877563</ele>
        <time>2011-09-24T12:32:32Z</time>
      </trkpt>
      <trkpt lat="42.56836" lon="2.06278">
        <ele>2009.532349</ele>
        <time>2011-09-24T12:32:34Z</time>
      </trkpt>
      <trkpt lat="42.56836" lon="2.06286">
        <ele>2008.859497</ele>
        <time>2011-09-24T12:32:37Z</time>
      </trkpt>
      <trkpt lat="42.56837" lon="2.06294">
        <ele>2008.038696</ele>
        <time>2011-09-24T12:32:40Z</time>
      </trkpt>
      <trkpt lat="42.56833" lon="2.06299">
        <ele>2007.171997</ele>
        <time>2011-09-24T12:32:43Z</time>
      </trkpt>
      <trkpt lat="42.56825" lon="2.06301">
        <ele>2002.27356</ele>
        <time>2011-09-24T12:32:45Z</time>
      </trkpt>
      <trkpt lat="42.56817" lon="2.06303">
        <ele>1998.770142</ele>
        <time>2011-09-24T12:32:47Z</time>
      </trkpt>
      <trkpt lat="42.5681" lon="2.06308">
        <ele>1996.851196</ele>
        <time>2011-09-24T12:32:49Z</time>
      </trkpt>
      <trkpt lat="42.56806" lon="2.06315">
        <ele>1996.450562</ele>
        <time>2011-09-24T12:32:51Z</time>
      </trkpt>
      <trkpt lat="42.56803" lon="2.06325">
        <ele>1995.991821</ele>
        <time>2011-09-24T12:32:53Z</time>
      </trkpt>
      <trkpt lat="42.56801" lon="2.06331">
        <ele>1993.452637</ele>
        <time>2011-09-24T12:32:54Z</time>
      </trkpt>
      <trkpt lat="42.56799" lon="2.06337">
        <ele>1991.217163</ele>
        <time>2011-09-24T12:32:55Z</time>
      </trkpt>
      <trkpt lat="42.56799" lon="2.06344">
        <ele>1989.29126</ele>
        <time>2011-09-24T12:32:56Z</time>
      </trkpt>
      <trkpt lat="42.56798" lon="2.06351">
        <ele>1988.933838</ele>
        <time>2011-09-24T12:32:58Z</time>
      </trkpt>
      <trkpt lat="42.56796" lon="2.0636">
        <ele>1988.439453</ele>
        <time>2011-09-24T12:33:01Z</time>
      </trkpt>
      <trkpt lat="42.56793" lon="2.06373">
        <ele>1987.263794</ele>
        <time>2011-09-24T12:33:03Z</time>
      </trkpt>
      <trkpt lat="42.56793" lon="2.0638">
        <ele>1985.954834</ele>
        <time>2011-09-24T12:33:04Z</time>
      </trkpt>
      <trkpt lat="42.56793" lon="2.06388">
        <ele>1985.719238</ele>
        <time>2011-09-24T12:33:06Z</time>
      </trkpt>
      <trkpt lat="42.56789" lon="2.0639">
        <ele>1985.519897</ele>
        <time>2011-09-24T12:33:08Z</time>
      </trkpt>
      <trkpt lat="42.56783" lon="2.06392">
        <ele>1985.210693</ele>
        <time>2011-09-24T12:33:11Z</time>
      </trkpt>
      <trkpt lat="42.56778" lon="2.06396">
        <ele>1984.557861</ele>
        <time>2011-09-24T12:33:15Z</time>
      </trkpt>
      <trkpt lat="42.56774" lon="2.06399">
        <ele>1984.234131</ele>
        <time>2011-09-24T12:33:17Z</time>
      </trkpt>
      <trkpt lat="42.5677" lon="2.06408">
        <ele>1983.93457</ele>
        <time>2011-09-24T12:33:19Z</time>
      </trkpt>
      <trkpt lat="42.56767" lon="2.06418">
        <ele>1983.495117</ele>
        <time>2011-09-24T12:33:21Z</time>
      </trkpt>
      <trkpt lat="42.56762" lon="2.06424">
        <ele>1982.917358</ele>
        <time>2011-09-24T12:33:23Z</time>
      </trkpt>
      <trkpt lat="42.56755" lon="2.06425">
        <ele>1982.187988</ele>
        <time>2011-09-24T12:33:25Z</time>
      </trkpt>
      <trkpt lat="42.56751" lon="2.06423">
        <ele>1978.752197</ele>
        <time>2011-09-24T12:33:26Z</time>
      </trkpt>
      <trkpt lat="42.56746" lon="2.06422">
        <ele>1974.60437</ele>
        <time>2011-09-24T12:33:27Z</time>
      </trkpt>
      <trkpt lat="42.56741" lon="2.06424">
        <ele>1973.976929</ele>
        <time>2011-09-24T12:33:28Z</time>
      </trkpt>
      <trkpt lat="42.56735" lon="2.06427">
        <ele>1973.129272</ele>
        <time>2011-09-24T12:33:29Z</time>
      </trkpt>
      <trkpt lat="42.5673" lon="2.06431">
        <ele>1973.025513</ele>
        <time>2011-09-24T12:33:30Z</time>
      </trkpt>
      <trkpt lat="42.56724" lon="2.06437">
        <ele>1972.783569</ele>
        <time>2011-09-24T12:33:32Z</time>
      </trkpt>
      <trkpt lat="42.56721" lon="2.06442">
        <ele>1972.226318</ele>
        <time>2011-09-24T12:33:36Z</time>
      </trkpt>
      <trkpt lat="42.56716" lon="2.06445">
        <ele>1967.478516</ele>
        <time>2011-09-24T12:33:49Z</time>
      </trkpt>
      <trkpt lat="42.5671" lon="2.06447">
        <ele>1964.520386</ele>
        <time>2011-09-24T12:33:51Z</time>
      </trkpt>
      <trkpt lat="42.56702" lon="2.06451">
        <ele>1938.556152</ele>
        <time>2011-09-24T12:33:53Z</time>
      </trkpt>
      <trkpt lat="42.56696" lon="2.06457">
        <ele>1929.135498</ele>
        <time>2011-09-24T12:33:54Z</time>
      </trkpt>
      <trkpt lat="42.5669" lon="2.06465">
        <ele>1921.127319</ele>
        <time>2011-09-24T12:33:55Z</time>
      </trkpt>
      <trkpt lat="42.56686" lon="2.06473">
        <ele>1914.365479</ele>
        <time>2011-09-24T12:33:56Z</time>
      </trkpt>
      <trkpt lat="42.56683" lon="2.06479">
        <ele>1908.687988</ele>
        <time>2011-09-24T12:33:57Z</time>
      </trkpt>
      <trkpt lat="42.56678" lon="2.06483">
        <ele>1903.979248</ele>
        <time>2011-09-24T12:33:58Z</time>
      </trkpt>
      <trkpt lat="42.56669" lon="2.06486">
        <ele>1897.668213</ele>
        <time>2011-09-24T12:34:00Z</time>
      </trkpt>
      <trkpt lat="42.56662" lon="2.06487">
        <ele>1895.485474</ele>
        <time>2011-09-24T12:34:02Z</time>
      </trkpt>
      <trkpt lat="42.56657" lon="2.0649">
        <ele>1895.262695</ele>
        <time>2011-09-24T12:34:04Z</time>
      </trkpt>
      <trkpt lat="42.56658" lon="2.065">
        <ele>1895.157227</ele>
        <time>2011-09-24T12:34:06Z</time>
      </trkpt>
      <trkpt lat="42.56657" lon="2.06509">
        <ele>1895.118164</ele>
        <time>2011-09-24T12:34:08Z</time>
      </trkpt>
      <trkpt lat="42.56654" lon="2.06515">
        <ele>1895.325562</ele>
        <time>2011-09-24T12:34:09Z</time>
      </trkpt>
      <trkpt lat="42.5665" lon="2.0652">
        <ele>1896.299683</ele>
        <time>2011-09-24T12:34:11Z</time>
      </trkpt>
      <trkpt lat="42.56646" lon="2.06524">
        <ele>1896.501465</ele>
        <time>2011-09-24T12:34:13Z</time>
      </trkpt>
      <trkpt lat="42.56644" lon="2.0653">
        <ele>1896.763062</ele>
        <time>2011-09-24T12:34:15Z</time>
      </trkpt>
      <trkpt lat="42.56646" lon="2.06538">
        <ele>1897.023193</ele>
        <time>2011-09-24T12:34:17Z</time>
      </trkpt>
      <trkpt lat="42.56644" lon="2.06544">
        <ele>1897.293213</ele>
        <time>2011-09-24T12:34:19Z</time>
      </trkpt>
      <trkpt lat="42.56642" lon="2.06556">
        <ele>1897.777832</ele>
        <time>2011-09-24T12:34:22Z</time>
      </trkpt>
      <trkpt lat="42.56642" lon="2.06562">
        <ele>1897.941284</ele>
        <time>2011-09-24T12:34:23Z</time>
      </trkpt>
      <trkpt lat="42.56643" lon="2.0657">
        <ele>1899.544556</ele>
        <time>2011-09-24T12:34:24Z</time>
      </trkpt>
      <trkpt lat="42.56644" lon="2.06579">
        <ele>1900.858032</ele>
        <time>2011-09-24T12:34:25Z</time>
      </trkpt>
      <trkpt lat="42.56647" lon="2.06586">
        <ele>1901.991821</ele>
        <time>2011-09-24T12:34:26Z</time>
      </trkpt>
      <trkpt lat="42.56649" lon="2.06596">
        <ele>1902.296753</ele>
        <time>2011-09-24T12:34:29Z</time>
      </trkpt>
      <trkpt lat="42.56648" lon="2.06605">
        <ele>1902.457886</ele>
        <time>2011-09-24T12:34:31Z</time>
      </trkpt>
      <trkpt lat="42.56643" lon="2.0661">
        <ele>1903.317505</ele>
        <time>2011-09-24T12:34:32Z</time>
      </trkpt>
      <trkpt lat="42.56636" lon="2.06618">
        <ele>1903.53125</ele>
        <time>2011-09-24T12:34:33Z</time>
      </trkpt>
      <trkpt lat="42.56622" lon="2.06634">
        <ele>1902.592529</ele>
        <time>2011-09-24T12:34:34Z</time>
      </trkpt>
      <trkpt lat="42.56606" lon="2.06651">
        <ele>1899.743408</ele>
        <time>2011-09-24T12:34:35Z</time>
      </trkpt>
      <trkpt lat="42.5659" lon="2.06666">
        <ele>1895.716675</ele>
        <time>2011-09-24T12:34:36Z</time>
      </trkpt>
      <trkpt lat="42.56576" lon="2.06678">
        <ele>1890.920898</ele>
        <time>2011-09-24T12:34:37Z</time>
      </trkpt>
      <trkpt lat="42.56564" lon="2.06687">
        <ele>1885.828369</ele>
        <time>2011-09-24T12:34:38Z</time>
      </trkpt>
      <trkpt lat="42.56553" lon="2.06695">
        <ele>1881.009155</ele>
        <time>2011-09-24T12:34:39Z</time>
      </trkpt>
      <trkpt lat="42.56544" lon="2.06701">
        <ele>1876.234741</ele>
        <time>2011-09-24T12:34:40Z</time>
      </trkpt>
      <trkpt lat="42.56538" lon="2.06707">
        <ele>1872.307983</ele>
        <time>2011-09-24T12:34:41Z</time>
      </trkpt>
      <trkpt lat="42.56533" lon="2.06714">
        <ele>1869.036133</ele>
        <time>2011-09-24T12:34:42Z</time>
      </trkpt>
      <trkpt lat="42.56534" lon="2.06724">
        <ele>1866.595459</ele>
        <time>2011-09-24T12:34:43Z</time>
      </trkpt>
      <trkpt lat="42.5654" lon="2.06733">
        <ele>1864.796387</ele>
        <time>2011-09-24T12:34:44Z</time>
      </trkpt>
      <trkpt lat="42.56546" lon="2.06743">
        <ele>1863.217285</ele>
        <time>2011-09-24T12:34:45Z</time>
      </trkpt>
      <trkpt lat="42.56552" lon="2.06753">
        <ele>1862.130127</ele>
        <time>2011-09-24T12:34:46Z</time>
      </trkpt>
      <trkpt lat="42.56558" lon="2.06763">
        <ele>1861.644043</ele>
        <time>2011-09-24T12:34:47Z</time>
      </trkpt>
      <trkpt lat="42.56565" lon="2.06773">
        <ele>1861.91626</ele>
        <time>2011-09-24T12:34:48Z</time>
      </trkpt>
      <trkpt lat="42.5657" lon="2.06781">
        <ele>1862.256836</ele>
        <time>2011-09-24T12:34:49Z</time>
      </trkpt>
      <trkpt lat="42.56574" lon="2.06789">
        <ele>1862.373901</ele>
        <time>2011-09-24T12:34:50Z</time>
      </trkpt>
      <trkpt lat="42.56576" lon="2.06796">
        <ele>1862.099487</ele>
        <time>2011-09-24T12:34:51Z</time>
      </trkpt>
      <trkpt lat="42.56573" lon="2.06806">
        <ele>1861.702271</ele>
        <time>2011-09-24T12:34:53Z</time>
      </trkpt>
      <trkpt lat="42.56568" lon="2.06809">
        <ele>1861.609497</ele>
        <time>2011-09-24T12:34:54Z</time>
      </trkpt>
      <trkpt lat="42.56562" lon="2.06814">
        <ele>1861.424561</ele>
        <time>2011-09-24T12:34:56Z</time>
      </trkpt>
      <trkpt lat="42.56554" lon="2.06821">
        <ele>1861.236694</ele>
        <time>2011-09-24T12:34:58Z</time>
      </trkpt>
      <trkpt lat="42.56551" lon="2.06824">
        <ele>1861.135132</ele>
        <time>2011-09-24T12:34:59Z</time>
      </trkpt>
      <trkpt lat="42.56544" lon="2.0683">
        <ele>1860.925537</ele>
        <time>2011-09-24T12:35:01Z</time>
      </trkpt>
      <trkpt lat="42.56536" lon="2.06834">
        <ele>1860.516357</ele>
        <time>2011-09-24T12:35:03Z</time>
      </trkpt>
      <trkpt lat="42.56528" lon="2.06837">
        <ele>1860.054321</ele>
        <time>2011-09-24T12:35:05Z</time>
      </trkpt>
      <trkpt lat="42.5652" lon="2.06841">
        <ele>1859.470703</ele>
        <time>2011-09-24T12:35:07Z</time>
      </trkpt>
      <trkpt lat="42.56512" lon="2.06846">
        <ele>1858.828247</ele>
        <time>2011-09-24T12:35:09Z</time>
      </trkpt>
      <trkpt lat="42.56506" lon="2.06857">
        <ele>1858.107178</ele>
        <time>2011-09-24T12:35:11Z</time>
      </trkpt>
      <trkpt lat="42.56503" lon="2.06863">
        <ele>1857.709595</ele>
        <time>2011-09-24T12:35:12Z</time>
      </trkpt>
      <trkpt lat="42.56503" lon="2.0687">
        <ele>1857.321411</ele>
        <time>2011-09-24T12:35:13Z</time>
      </trkpt>
      <trkpt lat="42.56501" lon="2.06878">
        <ele>1856.691162</ele>
        <time>2011-09-24T12:35:14Z</time>
      </trkpt>
      <trkpt lat="42.56502" lon="2.06889">
        <ele>1855.525635</ele>
        <time>2011-09-24T12:35:16Z</time>
      </trkpt>
      <trkpt lat="42.56507" lon="2.06896">
        <ele>1854.469604</ele>
        <time>2011-09-24T12:35:18Z</time>
      </trkpt>
      <trkpt lat="42.56511" lon="2.06901">
        <ele>1853.467651</ele>
        <time>2011-09-24T12:35:20Z</time>
      </trkpt>
      <trkpt lat="42.56516" lon="2.06913">
        <ele>1851.338135</ele>
        <time>2011-09-24T12:35:37Z</time>
      </trkpt>
      <trkpt lat="42.56519" lon="2.06921">
        <ele>1850.865723</ele>
        <time>2011-09-24T12:35:38Z</time>
      </trkpt>
      <trkpt lat="42.56522" lon="2.06929">
        <ele>1850.413696</ele>
        <time>2011-09-24T12:35:39Z</time>
      </trkpt>
      <trkpt lat="42.56525" lon="2.06937">
        <ele>1845.807251</ele>
        <time>2011-09-24T12:35:40Z</time>
      </trkpt>
      <trkpt lat="42.56528" lon="2.06948">
        <ele>1845.05542</ele>
        <time>2011-09-24T12:35:42Z</time>
      </trkpt>
      <trkpt lat="42.56531" lon="2.06953">
        <ele>1841.556152</ele>
        <time>2011-09-24T12:35:43Z</time>
      </trkpt>
      <trkpt lat="42.56537" lon="2.06961">
        <ele>1841.108276</ele>
        <time>2011-09-24T12:35:45Z</time>
      </trkpt>
      <trkpt lat="42.56544" lon="2.0697">
        <ele>1836.920288</ele>
        <time>2011-09-24T12:36:56Z</time>
      </trkpt>
      <trkpt lat="42.5655" lon="2.06977">
        <ele>1834.414307</ele>
        <time>2011-09-24T12:37:31Z</time>
      </trkpt>
      <trkpt lat="42.56545" lon="2.06977">
        <ele>1830.585083</ele>
        <time>2011-09-24T12:38:22Z</time>
      </trkpt>
      <trkpt lat="42.5654" lon="2.06974">
        <ele>1830.219116</ele>
        <time>2011-09-24T12:38:27Z</time>
      </trkpt>
      <trkpt lat="42.56535" lon="2.06972">
        <ele>1829.871216</ele>
        <time>2011-09-24T12:38:32Z</time>
      </trkpt>
      <trkpt lat="42.56537" lon="2.06965">
        <ele>1829.074219</ele>
        <time>2011-09-24T12:38:44Z</time>
      </trkpt>
      <trkpt lat="42.56542" lon="2.06962">
        <ele>1828.08374</ele>
        <time>2011-09-24T12:38:49Z</time>
      </trkpt>
      <trkpt lat="42.56547" lon="2.06961">
        <ele>1826.946533</ele>
        <time>2011-09-24T12:38:54Z</time>
      </trkpt>
      <trkpt lat="42.56555" lon="2.06961">
        <ele>1821.547852</ele>
        <time>2011-09-24T12:39:08Z</time>
      </trkpt>
      <trkpt lat="42.5656" lon="2.06962">
        <ele>1816.880981</ele>
        <time>2011-09-24T12:39:15Z</time>
      </trkpt>
      <trkpt lat="42.56564" lon="2.06966">
        <ele>1815.755005</ele>
        <time>2011-09-24T12:39:17Z</time>
      </trkpt>
      <trkpt lat="42.56568" lon="2.06971">
        <ele>1814.716797</ele>
        <time>2011-09-24T12:39:19Z</time>
      </trkpt>
      <trkpt lat="42.56573" lon="2.06975">
        <ele>1813.745728</ele>
        <time>2011-09-24T12:39:21Z</time>
      </trkpt>
      <trkpt lat="42.56579" lon="2.06976">
        <ele>1812.80188</ele>
        <time>2011-09-24T12:39:23Z</time>
      </trkpt>
      <trkpt lat="42.56586" lon="2.06978">
        <ele>1811.878662</ele>
        <time>2011-09-24T12:39:25Z</time>
      </trkpt>
      <trkpt lat="42.56592" lon="2.0698">
        <ele>1810.972778</ele>
        <time>2011-09-24T12:39:27Z</time>
      </trkpt>
      <trkpt lat="42.56596" lon="2.06983">
        <ele>1806.474976</ele>
        <time>2011-09-24T12:39:28Z</time>
      </trkpt>
      <trkpt lat="42.56604" lon="2.06985">
        <ele>1802.981201</ele>
        <time>2011-09-24T12:39:29Z</time>
      </trkpt>
      <trkpt lat="42.56611" lon="2.06987">
        <ele>1800.272827</ele>
        <time>2011-09-24T12:39:30Z</time>
      </trkpt>
      <trkpt lat="42.56619" lon="2.06989">
        <ele>1797.259155</ele>
        <time>2011-09-24T12:39:31Z</time>
      </trkpt>
      <trkpt lat="42.56627" lon="2.06991">
        <ele>1794.70874</ele>
        <time>2011-09-24T12:39:32Z</time>
      </trkpt>
      <trkpt lat="42.56632" lon="2.06989">
        <ele>1794.490967</ele>
        <time>2011-09-24T12:39:33Z</time>
      </trkpt>
      <trkpt lat="42.56637" lon="2.06987">
        <ele>1794.262085</ele>
        <time>2011-09-24T12:39:34Z</time>
      </trkpt>
      <trkpt lat="42.56642" lon="2.06985">
        <ele>1793.999268</ele>
        <time>2011-09-24T12:39:35Z</time>
      </trkpt>
      <trkpt lat="42.56647" lon="2.06983">
        <ele>1793.726929</ele>
        <time>2011-09-24T12:39:36Z</time>
      </trkpt>
      <trkpt lat="42.56653" lon="2.06981">
        <ele>1791.025146</ele>
        <time>2011-09-24T12:39:37Z</time>
      </trkpt>
      <trkpt lat="42.56661" lon="2.06981">
        <ele>1789.019165</ele>
        <time>2011-09-24T12:39:38Z</time>
      </trkpt>
      <trkpt lat="42.56669" lon="2.06981">
        <ele>1787.172607</ele>
        <time>2011-09-24T12:39:39Z</time>
      </trkpt>
      <trkpt lat="42.56676" lon="2.06981">
        <ele>1786.043823</ele>
        <time>2011-09-24T12:39:40Z</time>
      </trkpt>
      <trkpt lat="42.56683" lon="2.06981">
        <ele>1785.663452</ele>
        <time>2011-09-24T12:39:41Z</time>
      </trkpt>
      <trkpt lat="42.56689" lon="2.06981">
        <ele>1785.095093</ele>
        <time>2011-09-24T12:39:42Z</time>
      </trkpt>
      <trkpt lat="42.56697" lon="2.06981">
        <ele>1784.809692</ele>
        <time>2011-09-24T12:39:43Z</time>
      </trkpt>
      <trkpt lat="42.56705" lon="2.0698">
        <ele>1784.768066</ele>
        <time>2011-09-24T12:39:44Z</time>
      </trkpt>
      <trkpt lat="42.56712" lon="2.0698">
        <ele>1784.759399</ele>
        <time>2011-09-24T12:39:45Z</time>
      </trkpt>
      <trkpt lat="42.5672" lon="2.0698">
        <ele>1784.285889</ele>
        <time>2011-09-24T12:39:46Z</time>
      </trkpt>
      <trkpt lat="42.56727" lon="2.06978">
        <ele>1783.544434</ele>
        <time>2011-09-24T12:39:47Z</time>
      </trkpt>
      <trkpt lat="42.56733" lon="2.06977">
        <ele>1782.994507</ele>
        <time>2011-09-24T12:39:48Z</time>
      </trkpt>
      <trkpt lat="42.5674" lon="2.06976">
        <ele>1782.335693</ele>
        <time>2011-09-24T12:39:49Z</time>
      </trkpt>
      <trkpt lat="42.56746" lon="2.06974">
        <ele>1781.341187</ele>
        <time>2011-09-24T12:39:50Z</time>
      </trkpt>
      <trkpt lat="42.56752" lon="2.06971">
        <ele>1780.171021</ele>
        <time>2011-09-24T12:39:51Z</time>
      </trkpt>
      <trkpt lat="42.56756" lon="2.06968">
        <ele>1779.039795</ele>
        <time>2011-09-24T12:39:52Z</time>
      </trkpt>
      <trkpt lat="42.56761" lon="2.06967">
        <ele>1778.084839</ele>
        <time>2011-09-24T12:39:53Z</time>
      </trkpt>
      <trkpt lat="42.56766" lon="2.06965">
        <ele>1777.216064</ele>
        <time>2011-09-24T12:39:54Z</time>
      </trkpt>
      <trkpt lat="42.5677" lon="2.06963">
        <ele>1777.141113</ele>
        <time>2011-09-24T12:39:55Z</time>
      </trkpt>
      <trkpt lat="42.56778" lon="2.06959">
        <ele>1776.968994</ele>
        <time>2011-09-24T12:39:57Z</time>
      </trkpt>
      <trkpt lat="42.56783" lon="2.06957">
        <ele>1776.075195</ele>
        <time>2011-09-24T12:39:58Z</time>
      </trkpt>
      <trkpt lat="42.56788" lon="2.06955">
        <ele>1775.366089</ele>
        <time>2011-09-24T12:39:59Z</time>
      </trkpt>
      <trkpt lat="42.56794" lon="2.06952">
        <ele>1774.484497</ele>
        <time>2011-09-24T12:40:00Z</time>
      </trkpt>
      <trkpt lat="42.568" lon="2.06949">
        <ele>1773.596558</ele>
        <time>2011-09-24T12:40:01Z</time>
      </trkpt>
      <trkpt lat="42.56806" lon="2.06946">
        <ele>1772.623901</ele>
        <time>2011-09-24T12:40:02Z</time>
      </trkpt>
      <trkpt lat="42.56813" lon="2.06943">
        <ele>1771.649902</ele>
        <time>2011-09-24T12:40:03Z</time>
      </trkpt>
      <trkpt lat="42.56819" lon="2.0694">
        <ele>1770.772705</ele>
        <time>2011-09-24T12:40:04Z</time>
      </trkpt>
      <trkpt lat="42.56825" lon="2.06937">
        <ele>1769.975586</ele>
        <time>2011-09-24T12:40:05Z</time>
      </trkpt>
      <trkpt lat="42.56832" lon="2.06935">
        <ele>1769.428589</ele>
        <time>2011-09-24T12:40:06Z</time>
      </trkpt>
      <trkpt lat="42.56839" lon="2.06933">
        <ele>1768.960083</ele>
        <time>2011-09-24T12:40:07Z</time>
      </trkpt>
      <trkpt lat="42.56845" lon="2.06935">
        <ele>1768.556641</ele>
        <time>2011-09-24T12:40:08Z</time>
      </trkpt>
      <trkpt lat="42.5685" lon="2.06936">
        <ele>1768.354736</ele>
        <time>2011-09-24T12:40:09Z</time>
      </trkpt>
      <trkpt lat="42.56857" lon="2.06941">
        <ele>1768.293823</ele>
        <time>2011-09-24T12:40:11Z</time>
      </trkpt>
      <trkpt lat="42.5686" lon="2.06944">
        <ele>1767.487183</ele>
        <time>2011-09-24T12:40:12Z</time>
      </trkpt>
      <trkpt lat="42.56865" lon="2.06946">
        <ele>1765.571777</ele>
        <time>2011-09-24T12:40:13Z</time>
      </trkpt>
      <trkpt lat="42.56873" lon="2.06944">
        <ele>1762.274536</ele>
        <time>2011-09-24T12:40:14Z</time>
      </trkpt>
      <trkpt lat="42.56881" lon="2.06945">
        <ele>1759.303345</ele>
        <time>2011-09-24T12:40:15Z</time>
      </trkpt>
      <trkpt lat="42.56888" lon="2.06946">
        <ele>1756.541138</ele>
        <time>2011-09-24T12:40:16Z</time>
      </trkpt>
      <trkpt lat="42.56895" lon="2.06947">
        <ele>1754.079102</ele>
        <time>2011-09-24T12:40:17Z</time>
      </trkpt>
      <trkpt lat="42.56902" lon="2.06949">
        <ele>1751.924683</ele>
        <time>2011-09-24T12:40:18Z</time>
      </trkpt>
      <trkpt lat="42.56909" lon="2.06949">
        <ele>1750.126343</ele>
        <time>2011-09-24T12:40:19Z</time>
      </trkpt>
      <trkpt lat="42.56917" lon="2.06947">
        <ele>1748.589111</ele>
        <time>2011-09-24T12:40:20Z</time>
      </trkpt>
      <trkpt lat="42.56925" lon="2.06946">
        <ele>1747.474976</ele>
        <time>2011-09-24T12:40:21Z</time>
      </trkpt>
      <trkpt lat="42.56932" lon="2.06945">
        <ele>1746.345459</ele>
        <time>2011-09-24T12:40:22Z</time>
      </trkpt>
      <trkpt lat="42.56939" lon="2.06944">
        <ele>1745.260254</ele>
        <time>2011-09-24T12:40:23Z</time>
      </trkpt>
      <trkpt lat="42.56947" lon="2.06946">
        <ele>1744.219482</ele>
        <time>2011-09-24T12:40:24Z</time>
      </trkpt>
      <trkpt lat="42.56955" lon="2.06947">
        <ele>1743.173828</ele>
        <time>2011-09-24T12:40:25Z</time>
      </trkpt>
      <trkpt lat="42.56963" lon="2.06944">
        <ele>1742.318481</ele>
        <time>2011-09-24T12:40:26Z</time>
      </trkpt>
      <trkpt lat="42.5697" lon="2.06939">
        <ele>1741.558228</ele>
        <time>2011-09-24T12:40:27Z</time>
      </trkpt>
      <trkpt lat="42.56976" lon="2.06932">
        <ele>1740.91748</ele>
        <time>2011-09-24T12:40:28Z</time>
      </trkpt>
      <trkpt lat="42.56981" lon="2.06926">
        <ele>1740.44458</ele>
        <time>2011-09-24T12:40:29Z</time>
      </trkpt>
      <trkpt lat="42.56986" lon="2.0692">
        <ele>1740.088989</ele>
        <time>2011-09-24T12:40:30Z</time>
      </trkpt>
      <trkpt lat="42.56989" lon="2.06915">
        <ele>1739.842896</ele>
        <time>2011-09-24T12:40:31Z</time>
      </trkpt>
      <trkpt lat="42.56995" lon="2.06909">
        <ele>1739.579346</ele>
        <time>2011-09-24T12:40:33Z</time>
      </trkpt>
      <trkpt lat="42.56999" lon="2.06904">
        <ele>1739.391968</ele>
        <time>2011-09-24T12:40:38Z</time>
      </trkpt>
      <trkpt lat="42.57004" lon="2.06901">
        <ele>1739.186035</ele>
        <time>2011-09-24T12:40:41Z</time>
      </trkpt>
      <trkpt lat="42.57009" lon="2.06896">
        <ele>1739.051392</ele>
        <time>2011-09-24T12:40:43Z</time>
      </trkpt>
      <trkpt lat="42.57014" lon="2.0689">
        <ele>1738.93103</ele>
        <time>2011-09-24T12:40:45Z</time>
      </trkpt>
      <trkpt lat="42.57019" lon="2.06885">
        <ele>1738.813354</ele>
        <time>2011-09-24T12:40:47Z</time>
      </trkpt>
      <trkpt lat="42.57023" lon="2.0688">
        <ele>1738.710205</ele>
        <time>2011-09-24T12:40:49Z</time>
      </trkpt>
      <trkpt lat="42.57027" lon="2.06875">
        <ele>1738.621338</ele>
        <time>2011-09-24T12:40:51Z</time>
      </trkpt>
      <trkpt lat="42.57032" lon="2.06869">
        <ele>1738.538818</ele>
        <time>2011-09-24T12:40:53Z</time>
      </trkpt>
      <trkpt lat="42.57037" lon="2.06863">
        <ele>1738.473877</ele>
        <time>2011-09-24T12:40:55Z</time>
      </trkpt>
      <trkpt lat="42.57043" lon="2.06858">
        <ele>1738.420776</ele>
        <time>2011-09-24T12:40:57Z</time>
      </trkpt>
      <trkpt lat="42.57048" lon="2.06854">
        <ele>1738.375122</ele>
        <time>2011-09-24T12:40:59Z</time>
      </trkpt>
      <trkpt lat="42.57053" lon="2.06852">
        <ele>1738.062866</ele>
        <time>2011-09-24T12:41:00Z</time>
      </trkpt>
      <trkpt lat="42.5706" lon="2.06849">
        <ele>1737.652954</ele>
        <time>2011-09-24T12:41:01Z</time>
      </trkpt>
      <trkpt lat="42.57066" lon="2.06846">
        <ele>1737.102051</ele>
        <time>2011-09-24T12:41:02Z</time>
      </trkpt>
      <trkpt lat="42.57075" lon="2.06843">
        <ele>1736.378418</ele>
        <time>2011-09-24T12:41:03Z</time>
      </trkpt>
      <trkpt lat="42.57083" lon="2.0684">
        <ele>1736.205078</ele>
        <time>2011-09-24T12:41:04Z</time>
      </trkpt>
      <trkpt lat="42.57093" lon="2.0684">
        <ele>1736.353882</ele>
        <time>2011-09-24T12:41:05Z</time>
      </trkpt>
      <trkpt lat="42.57101" lon="2.06841">
        <ele>1736.22998</ele>
        <time>2011-09-24T12:41:06Z</time>
      </trkpt>
      <trkpt lat="42.57109" lon="2.06842">
        <ele>1736.179321</ele>
        <time>2011-09-24T12:41:07Z</time>
      </trkpt>
      <trkpt lat="42.57116" lon="2.06844">
        <ele>1736.178589</ele>
        <time>2011-09-24T12:41:08Z</time>
      </trkpt>
      <trkpt lat="42.57124" lon="2.06845">
        <ele>1736.061768</ele>
        <time>2011-09-24T12:41:09Z</time>
      </trkpt>
      <trkpt lat="42.57133" lon="2.06846">
        <ele>1735.838257</ele>
        <time>2011-09-24T12:41:10Z</time>
      </trkpt>
      <trkpt lat="42.57141" lon="2.06848">
        <ele>1735.490967</ele>
        <time>2011-09-24T12:41:11Z</time>
      </trkpt>
      <trkpt lat="42.57149" lon="2.06849">
        <ele>1735.102173</ele>
        <time>2011-09-24T12:41:12Z</time>
      </trkpt>
      <trkpt lat="42.57157" lon="2.0685">
        <ele>1734.662842</ele>
        <time>2011-09-24T12:41:13Z</time>
      </trkpt>
      <trkpt lat="42.57166" lon="2.0685">
        <ele>1734.196533</ele>
        <time>2011-09-24T12:41:14Z</time>
      </trkpt>
      <trkpt lat="42.57173" lon="2.0685">
        <ele>1733.747192</ele>
        <time>2011-09-24T12:41:15Z</time>
      </trkpt>
      <trkpt lat="42.5718" lon="2.06849">
        <ele>1733.306396</ele>
        <time>2011-09-24T12:41:16Z</time>
      </trkpt>
      <trkpt lat="42.57187" lon="2.06848">
        <ele>1732.78418</ele>
        <time>2011-09-24T12:41:17Z</time>
      </trkpt>
      <trkpt lat="42.57193" lon="2.06847">
        <ele>1732.255249</ele>
        <time>2011-09-24T12:41:18Z</time>
      </trkpt>
      <trkpt lat="42.57199" lon="2.06845">
        <ele>1731.713257</ele>
        <time>2011-09-24T12:41:19Z</time>
      </trkpt>
      <trkpt lat="42.57206" lon="2.06842">
        <ele>1731.334351</ele>
        <time>2011-09-24T12:41:20Z</time>
      </trkpt>
      <trkpt lat="42.57215" lon="2.06839">
        <ele>1731.511108</ele>
        <time>2011-09-24T12:41:21Z</time>
      </trkpt>
      <trkpt lat="42.57224" lon="2.06837">
        <ele>1731.225464</ele>
        <time>2011-09-24T12:41:22Z</time>
      </trkpt>
      <trkpt lat="42.57233" lon="2.06835">
        <ele>1730.60791</ele>
        <time>2011-09-24T12:41:23Z</time>
      </trkpt>
      <trkpt lat="42.57241" lon="2.06831">
        <ele>1729.643555</ele>
        <time>2011-09-24T12:41:24Z</time>
      </trkpt>
      <trkpt lat="42.57249" lon="2.06828">
        <ele>1728.297607</ele>
        <time>2011-09-24T12:41:25Z</time>
      </trkpt>
      <trkpt lat="42.57257" lon="2.06827">
        <ele>1726.915039</ele>
        <time>2011-09-24T12:41:26Z</time>
      </trkpt>
      <trkpt lat="42.57264" lon="2.06826">
        <ele>1725.702881</ele>
        <time>2011-09-24T12:41:27Z</time>
      </trkpt>
      <trkpt lat="42.57272" lon="2.06825">
        <ele>1724.823853</ele>
        <time>2011-09-24T12:41:28Z</time>
      </trkpt>
      <trkpt lat="42.5728" lon="2.06823">
        <ele>1724.006104</ele>
        <time>2011-09-24T12:41:29Z</time>
      </trkpt>
      <trkpt lat="42.57287" lon="2.06821">
        <ele>1723.339355</ele>
        <time>2011-09-24T12:41:30Z</time>
      </trkpt>
      <trkpt lat="42.57294" lon="2.0682">
        <ele>1722.90686</ele>
        <time>2011-09-24T12:41:31Z</time>
      </trkpt>
      <trkpt lat="42.57302" lon="2.06818">
        <ele>1722.601562</ele>
        <time>2011-09-24T12:41:32Z</time>
      </trkpt>
      <trkpt lat="42.57309" lon="2.06815">
        <ele>1721.990479</ele>
        <time>2011-09-24T12:41:33Z</time>
      </trkpt>
      <trkpt lat="42.57314" lon="2.06811">
        <ele>1721.455811</ele>
        <time>2011-09-24T12:41:34Z</time>
      </trkpt>
      <trkpt lat="42.57319" lon="2.06807">
        <ele>1721.205322</ele>
        <time>2011-09-24T12:41:35Z</time>
      </trkpt>
      <trkpt lat="42.57327" lon="2.068">
        <ele>1720.946777</ele>
        <time>2011-09-24T12:41:43Z</time>
      </trkpt>
      <trkpt lat="42.57332" lon="2.06797">
        <ele>1720.78894</ele>
        <time>2011-09-24T12:41:45Z</time>
      </trkpt>
      <trkpt lat="42.57339" lon="2.06795">
        <ele>1720.535889</ele>
        <time>2011-09-24T12:41:47Z</time>
      </trkpt>
      <trkpt lat="42.57346" lon="2.06793">
        <ele>1720.199829</ele>
        <time>2011-09-24T12:41:49Z</time>
      </trkpt>
      <trkpt lat="42.57354" lon="2.06792">
        <ele>1718.131348</ele>
        <time>2011-09-24T12:41:51Z</time>
      </trkpt>
      <trkpt lat="42.57362" lon="2.06793">
        <ele>1715.297729</ele>
        <time>2011-09-24T12:41:53Z</time>
      </trkpt>
      <trkpt lat="42.57368" lon="2.06794">
        <ele>1714.102905</ele>
        <time>2011-09-24T12:41:54Z</time>
      </trkpt>
      <trkpt lat="42.57373" lon="2.06794">
        <ele>1712.952637</ele>
        <time>2011-09-24T12:41:55Z</time>
      </trkpt>
      <trkpt lat="42.57381" lon="2.06794">
        <ele>1711.073242</ele>
        <time>2011-09-24T12:41:57Z</time>
      </trkpt>
      <trkpt lat="42.5739" lon="2.06793">
        <ele>1709.898438</ele>
        <time>2011-09-24T12:41:59Z</time>
      </trkpt>
      <trkpt lat="42.57395" lon="2.06794">
        <ele>1709.442017</ele>
        <time>2011-09-24T12:42:00Z</time>
      </trkpt>
      <trkpt lat="42.57402" lon="2.06795">
        <ele>1709.008423</ele>
        <time>2011-09-24T12:42:01Z</time>
      </trkpt>
      <trkpt lat="42.57409" lon="2.06795">
        <ele>1708.507935</ele>
        <time>2011-09-24T12:42:02Z</time>
      </trkpt>
      <trkpt lat="42.57417" lon="2.06796">
        <ele>1707.944824</ele>
        <time>2011-09-24T12:42:03Z</time>
      </trkpt>
      <trkpt lat="42.57424" lon="2.06796">
        <ele>1707.388794</ele>
        <time>2011-09-24T12:42:04Z</time>
      </trkpt>
      <trkpt lat="42.57431" lon="2.06795">
        <ele>1706.920166</ele>
        <time>2011-09-24T12:42:05Z</time>
      </trkpt>
      <trkpt lat="42.57438" lon="2.06791">
        <ele>1706.443604</ele>
        <time>2011-09-24T12:42:06Z</time>
      </trkpt>
      <trkpt lat="42.57445" lon="2.06785">
        <ele>1706.184692</ele>
        <time>2011-09-24T12:42:07Z</time>
      </trkpt>
      <trkpt lat="42.57452" lon="2.06779">
        <ele>1705.980713</ele>
        <time>2011-09-24T12:42:08Z</time>
      </trkpt>
      <trkpt lat="42.5746" lon="2.06774">
        <ele>1705.83252</ele>
        <time>2011-09-24T12:42:09Z</time>
      </trkpt>
      <trkpt lat="42.57468" lon="2.06768">
        <ele>1705.73645</ele>
        <time>2011-09-24T12:42:10Z</time>
      </trkpt>
      <trkpt lat="42.57476" lon="2.06764">
        <ele>1705.603149</ele>
        <time>2011-09-24T12:42:11Z</time>
      </trkpt>
      <trkpt lat="42.57486" lon="2.06767">
        <ele>1705.46228</ele>
        <time>2011-09-24T12:42:12Z</time>
      </trkpt>
      <trkpt lat="42.57495" lon="2.06769">
        <ele>1704.993042</ele>
        <time>2011-09-24T12:42:13Z</time>
      </trkpt>
      <trkpt lat="42.57504" lon="2.0677">
        <ele>1704.3302</ele>
        <time>2011-09-24T12:42:14Z</time>
      </trkpt>
      <trkpt lat="42.57511" lon="2.0677">
        <ele>1703.283081</ele>
        <time>2011-09-24T12:42:15Z</time>
      </trkpt>
      <trkpt lat="42.57518" lon="2.0677">
        <ele>1702.128296</ele>
        <time>2011-09-24T12:42:16Z</time>
      </trkpt>
      <trkpt lat="42.57524" lon="2.06772">
        <ele>1701.036743</ele>
        <time>2011-09-24T12:42:17Z</time>
      </trkpt>
      <trkpt lat="42.57528" lon="2.06777">
        <ele>1700.139648</ele>
        <time>2011-09-24T12:42:18Z</time>
      </trkpt>
      <trkpt lat="42.57533" lon="2.06782">
        <ele>1699.299194</ele>
        <time>2011-09-24T12:42:19Z</time>
      </trkpt>
      <trkpt lat="42.57537" lon="2.06789">
        <ele>1698.4021</ele>
        <time>2011-09-24T12:42:20Z</time>
      </trkpt>
      <trkpt lat="42.5754" lon="2.06794">
        <ele>1697.302368</ele>
        <time>2011-09-24T12:42:21Z</time>
      </trkpt>
      <trkpt lat="42.57541" lon="2.06805">
        <ele>1695.182739</ele>
        <time>2011-09-24T12:42:23Z</time>
      </trkpt>
      <trkpt lat="42.57538" lon="2.0681">
        <ele>1694.415649</ele>
        <time>2011-09-24T12:42:24Z</time>
      </trkpt>
      <trkpt lat="42.57534" lon="2.06813">
        <ele>1693.538574</ele>
        <time>2011-09-24T12:42:25Z</time>
      </trkpt>
      <trkpt lat="42.57529" lon="2.06816">
        <ele>1692.581543</ele>
        <time>2011-09-24T12:42:26Z</time>
      </trkpt>
      <trkpt lat="42.57525" lon="2.06821">
        <ele>1691.699707</ele>
        <time>2011-09-24T12:42:27Z</time>
      </trkpt>
      <trkpt lat="42.5752" lon="2.06827">
        <ele>1690.852051</ele>
        <time>2011-09-24T12:42:28Z</time>
      </trkpt>
      <trkpt lat="42.57517" lon="2.06836">
        <ele>1689.834595</ele>
        <time>2011-09-24T12:42:29Z</time>
      </trkpt>
      <trkpt lat="42.57513" lon="2.06846">
        <ele>1688.696777</ele>
        <time>2011-09-24T12:42:30Z</time>
      </trkpt>
      <trkpt lat="42.57509" lon="2.06857">
        <ele>1687.713379</ele>
        <time>2011-09-24T12:42:31Z</time>
      </trkpt>
      <trkpt lat="42.57506" lon="2.0687">
        <ele>1686.906128</ele>
        <time>2011-09-24T12:42:32Z</time>
      </trkpt>
      <trkpt lat="42.57504" lon="2.0688">
        <ele>1686.27356</ele>
        <time>2011-09-24T12:42:33Z</time>
      </trkpt>
      <trkpt lat="42.57503" lon="2.06888">
        <ele>1685.882324</ele>
        <time>2011-09-24T12:42:34Z</time>
      </trkpt>
      <trkpt lat="42.57502" lon="2.06894">
        <ele>1685.621094</ele>
        <time>2011-09-24T12:42:35Z</time>
      </trkpt>
      <trkpt lat="42.57501" lon="2.06901">
        <ele>1685.625977</ele>
        <time>2011-09-24T12:42:37Z</time>
      </trkpt>
      <trkpt lat="42.57501" lon="2.06909">
        <ele>1685.619141</ele>
        <time>2011-09-24T12:42:40Z</time>
      </trkpt>
      <trkpt lat="42.57499" lon="2.06917">
        <ele>1685.623047</ele>
        <time>2011-09-24T12:42:43Z</time>
      </trkpt>
      <trkpt lat="42.57494" lon="2.06921">
        <ele>1685.608398</ele>
        <time>2011-09-24T12:42:45Z</time>
      </trkpt>
      <trkpt lat="42.57489" lon="2.06926">
        <ele>1685.627075</ele>
        <time>2011-09-24T12:42:48Z</time>
      </trkpt>
      <trkpt lat="42.57485" lon="2.06932">
        <ele>1685.769165</ele>
        <time>2011-09-24T12:42:51Z</time>
      </trkpt>
      <trkpt lat="42.57481" lon="2.06936">
        <ele>1685.831421</ele>
        <time>2011-09-24T12:42:54Z</time>
      </trkpt>
      <trkpt lat="42.57476" lon="2.06941">
        <ele>1685.660156</ele>
        <time>2011-09-24T12:42:56Z</time>
      </trkpt>
      <trkpt lat="42.57472" lon="2.06944">
        <ele>1685.363403</ele>
        <time>2011-09-24T12:42:58Z</time>
      </trkpt>
      <trkpt lat="42.57466" lon="2.06946">
        <ele>1684.849365</ele>
        <time>2011-09-24T12:43:01Z</time>
      </trkpt>
      <trkpt lat="42.57462" lon="2.06948">
        <ele>1673.063721</ele>
        <time>2011-09-24T12:45:38Z</time>
      </trkpt>
      <trkpt lat="42.57458" lon="2.06946">
        <ele>1667.766113</ele>
        <time>2011-09-24T12:47:04Z</time>
      </trkpt>
      <trkpt lat="42.57461" lon="2.06951">
        <ele>1666.921265</ele>
        <time>2011-09-24T12:47:37Z</time>
      </trkpt>
      <trkpt lat="42.57465" lon="2.06952">
        <ele>1666.76001</ele>
        <time>2011-09-24T12:47:47Z</time>
      </trkpt>
      <trkpt lat="42.5747" lon="2.0695">
        <ele>1666.521729</ele>
        <time>2011-09-24T12:48:16Z</time>
      </trkpt>
      <trkpt lat="42.57468" lon="2.06944">
        <ele>1666.565552</ele>
        <time>2011-09-24T12:48:20Z</time>
      </trkpt>
      <trkpt lat="42.57471" lon="2.06948">
        <ele>1666.970947</ele>
        <time>2011-09-24T12:48:42Z</time>
      </trkpt>
      <trkpt lat="42.57467" lon="2.0695">
        <ele>1667.32959</ele>
        <time>2011-09-24T12:49:59Z</time>
      </trkpt>
      <trkpt lat="42.57463" lon="2.06948">
        <ele>1666.47583</ele>
        <time>2011-09-24T12:50:22Z</time>
      </trkpt>
      <trkpt lat="42.57462" lon="2.06941">
        <ele>1665.319092</ele>
        <time>2011-09-24T12:51:06Z</time>
      </trkpt>
      <trkpt lat="42.57462" lon="2.06941">
        <ele>1665.38562</ele>
        <time>2011-09-24T12:51:09Z</time>
      </trkpt>
      <trkpt lat="42.57458" lon="2.06939">
        <ele>1665.588989</ele>
        <time>2011-09-24T12:51:18Z</time>
      </trkpt>
      <trkpt lat="42.57462" lon="2.06942">
        <ele>1665.834961</ele>
        <time>2011-09-24T12:51:27Z</time>
      </trkpt>
      <trkpt lat="42.57466" lon="2.06947">
        <ele>1666.844604</ele>
        <time>2011-09-24T12:51:33Z</time>
      </trkpt>
      <trkpt lat="42.57461" lon="2.06945">
        <ele>1666.797852</ele>
        <time>2011-09-24T12:51:40Z</time>
      </trkpt>
      <trkpt lat="42.57466" lon="2.06941">
        <ele>1666.151367</ele>
        <time>2011-09-24T12:51:47Z</time>
      </trkpt>
      <trkpt lat="42.5747" lon="2.06936">
        <ele>1665.927979</ele>
        <time>2011-09-24T12:51:51Z</time>
      </trkpt>
      <trkpt lat="42.57474" lon="2.06934">
        <ele>1665.656738</ele>
        <time>2011-09-24T12:51:55Z</time>
      </trkpt>
      <trkpt lat="42.57479" lon="2.06932">
        <ele>1665.331665</ele>
        <time>2011-09-24T12:51:59Z</time>
      </trkpt>
      <trkpt lat="42.57484" lon="2.06929">
        <ele>1665.079468</ele>
        <time>2011-09-24T12:52:02Z</time>
      </trkpt>
      <trkpt lat="42.5749" lon="2.06927">
        <ele>1664.855103</ele>
        <time>2011-09-24T12:52:05Z</time>
      </trkpt>
      <trkpt lat="42.57496" lon="2.06924">
        <ele>1664.677979</ele>
        <time>2011-09-24T12:52:08Z</time>
      </trkpt>
      <trkpt lat="42.57499" lon="2.06919">
        <ele>1664.549316</ele>
        <time>2011-09-24T12:52:11Z</time>
      </trkpt>
      <trkpt lat="42.57495" lon="2.06921">
        <ele>1664.280029</ele>
        <time>2011-09-24T12:52:17Z</time>
      </trkpt>
      <trkpt lat="42.57489" lon="2.06921">
        <ele>1664.150146</ele>
        <time>2011-09-24T12:52:21Z</time>
      </trkpt>
      <trkpt lat="42.57482" lon="2.06918">
        <ele>1662.331177</ele>
        <time>2011-09-24T12:52:58Z</time>
      </trkpt>
      <trkpt lat="42.5748" lon="2.06923">
        <ele>1661.53894</ele>
        <time>2011-09-24T12:53:09Z</time>
      </trkpt>
      <trkpt lat="42.57475" lon="2.06926">
        <ele>1661.29126</ele>
        <time>2011-09-24T12:53:15Z</time>
      </trkpt>
      <trkpt lat="42.57471" lon="2.0693">
        <ele>1661.239258</ele>
        <time>2011-09-24T12:53:17Z</time>
      </trkpt>
      <trkpt lat="42.57467" lon="2.06935">
        <ele>1661.169556</ele>
        <time>2011-09-24T12:53:20Z</time>
      </trkpt>
      <trkpt lat="42.57461" lon="2.06934">
        <ele>1661.118652</ele>
        <time>2011-09-24T12:53:23Z</time>
      </trkpt>
      <trkpt lat="42.57456" lon="2.06931">
        <ele>1661.098877</ele>
        <time>2011-09-24T12:53:24Z</time>
      </trkpt>
      <trkpt lat="42.57452" lon="2.06926">
        <ele>1661.141113</ele>
        <time>2011-09-24T12:53:27Z</time>
      </trkpt>
      <trkpt lat="42.57449" lon="2.06922">
        <ele>1661.192993</ele>
        <time>2011-09-24T12:53:31Z</time>
      </trkpt>
      <trkpt lat="42.57445" lon="2.06918">
        <ele>1661.221558</ele>
        <time>2011-09-24T12:53:36Z</time>
      </trkpt>
      <trkpt lat="42.57441" lon="2.06921">
        <ele>1661.129395</ele>
        <time>2011-09-24T12:53:44Z</time>
      </trkpt>
      <trkpt lat="42.57445" lon="2.06918">
        <ele>1660.819702</ele>
        <time>2011-09-24T12:53:50Z</time>
      </trkpt>
      <trkpt lat="42.5745" lon="2.06915">
        <ele>1660.719727</ele>
        <time>2011-09-24T12:53:52Z</time>
      </trkpt>
      <trkpt lat="42.57457" lon="2.06914">
        <ele>1659.734619</ele>
        <time>2011-09-24T12:53:54Z</time>
      </trkpt>
      <trkpt lat="42.57464" lon="2.06915">
        <ele>1659.280151</ele>
        <time>2011-09-24T12:53:55Z</time>
      </trkpt>
      <trkpt lat="42.57471" lon="2.06916">
        <ele>1659.239624</ele>
        <time>2011-09-24T12:53:56Z</time>
      </trkpt>
      <trkpt lat="42.57477" lon="2.06917">
        <ele>1658.840576</ele>
        <time>2011-09-24T12:53:57Z</time>
      </trkpt>
      <trkpt lat="42.57483" lon="2.06919">
        <ele>1658.770386</ele>
        <time>2011-09-24T12:53:59Z</time>
      </trkpt>
      <trkpt lat="42.57488" lon="2.0692">
        <ele>1658.668091</ele>
        <time>2011-09-24T12:54:02Z</time>
      </trkpt>
      <trkpt lat="42.57492" lon="2.06918">
        <ele>1658.255005</ele>
        <time>2011-09-24T12:54:14Z</time>
      </trkpt>
      <trkpt lat="42.5749" lon="2.06924">
        <ele>1657.713257</ele>
        <time>2011-09-24T12:54:34Z</time>
      </trkpt>
      <trkpt lat="42.57485" lon="2.0692">
        <ele>1657.924683</ele>
        <time>2011-09-24T12:54:43Z</time>
      </trkpt>
      <trkpt lat="42.57484" lon="2.06917">
        <ele>1657.969604</ele>
        <time>2011-09-24T12:54:45Z</time>
      </trkpt>
      <trkpt lat="42.57482" lon="2.06909">
        <ele>1658.243164</ele>
        <time>2011-09-24T12:54:48Z</time>
      </trkpt>
      <trkpt lat="42.57481" lon="2.06903">
        <ele>1658.618896</ele>
        <time>2011-09-24T12:54:50Z</time>
      </trkpt>
      <trkpt lat="42.5748" lon="2.06896">
        <ele>1659.102417</ele>
        <time>2011-09-24T12:54:52Z</time>
      </trkpt>
      <trkpt lat="42.57478" lon="2.06888">
        <ele>1659.655396</ele>
        <time>2011-09-24T12:54:54Z</time>
      </trkpt>
      <trkpt lat="42.57477" lon="2.06878">
        <ele>1660.247803</ele>
        <time>2011-09-24T12:54:56Z</time>
      </trkpt>
      <trkpt lat="42.57476" lon="2.06867">
        <ele>1663.87915</ele>
        <time>2011-09-24T12:54:58Z</time>
      </trkpt>
      <trkpt lat="42.57475" lon="2.0686">
        <ele>1666.705322</ele>
        <time>2011-09-24T12:54:59Z</time>
      </trkpt>
      <trkpt lat="42.57475" lon="2.06854">
        <ele>1666.909912</ele>
        <time>2011-09-24T12:55:00Z</time>
      </trkpt>
      <trkpt lat="42.57475" lon="2.06847">
        <ele>1667.097168</ele>
        <time>2011-09-24T12:55:01Z</time>
      </trkpt>
      <trkpt lat="42.57474" lon="2.0684">
        <ele>1667.304443</ele>
        <time>2011-09-24T12:55:02Z</time>
      </trkpt>
      <trkpt lat="42.57474" lon="2.06834">
        <ele>1667.526611</ele>
        <time>2011-09-24T12:55:03Z</time>
      </trkpt>
      <trkpt lat="42.57472" lon="2.06822">
        <ele>1667.758301</ele>
        <time>2011-09-24T12:55:04Z</time>
      </trkpt>
      <trkpt lat="42.57471" lon="2.06812">
        <ele>1668.262451</ele>
        <time>2011-09-24T12:55:06Z</time>
      </trkpt>
      <trkpt lat="42.57469" lon="2.06803">
        <ele>1668.805664</ele>
        <time>2011-09-24T12:55:08Z</time>
      </trkpt>
      <trkpt lat="42.57468" lon="2.06793">
        <ele>1669.405884</ele>
        <time>2011-09-24T12:55:10Z</time>
      </trkpt>
      <trkpt lat="42.57466" lon="2.06783">
        <ele>1670.045044</ele>
        <time>2011-09-24T12:55:12Z</time>
      </trkpt>
      <trkpt lat="42.57465" lon="2.06773">
        <ele>1670.720947</ele>
        <time>2011-09-24T12:55:14Z</time>
      </trkpt>
      <trkpt lat="42.57464" lon="2.06763">
        <ele>1671.403809</ele>
        <time>2011-09-24T12:55:16Z</time>
      </trkpt>
      <trkpt lat="42.57463" lon="2.06754">
        <ele>1672.129883</ele>
        <time>2011-09-24T12:55:18Z</time>
      </trkpt>
      <trkpt lat="42.57462" lon="2.06745">
        <ele>1672.907715</ele>
        <time>2011-09-24T12:55:20Z</time>
      </trkpt>
      <trkpt lat="42.57462" lon="2.06737">
        <ele>1673.729248</ele>
        <time>2011-09-24T12:55:22Z</time>
      </trkpt>
      <trkpt lat="42.57461" lon="2.06728">
        <ele>1674.591187</ele>
        <time>2011-09-24T12:55:24Z</time>
      </trkpt>
      <trkpt lat="42.57459" lon="2.06721">
        <ele>1675.508057</ele>
        <time>2011-09-24T12:55:26Z</time>
      </trkpt>
      <trkpt lat="42.57458" lon="2.06712">
        <ele>1676.424561</ele>
        <time>2011-09-24T12:55:28Z</time>
      </trkpt>
      <trkpt lat="42.57456" lon="2.06701">
        <ele>1684.543579</ele>
        <time>2011-09-24T12:55:30Z</time>
      </trkpt>
      <trkpt lat="42.57454" lon="2.06692">
        <ele>1685.137695</ele>
        <time>2011-09-24T12:55:32Z</time>
      </trkpt>
      <trkpt lat="42.57453" lon="2.06683">
        <ele>1685.764648</ele>
        <time>2011-09-24T12:55:34Z</time>
      </trkpt>
      <trkpt lat="42.57452" lon="2.06674">
        <ele>1686.432861</ele>
        <time>2011-09-24T12:55:36Z</time>
      </trkpt>
      <trkpt lat="42.57451" lon="2.06664">
        <ele>1692.830566</ele>
        <time>2011-09-24T12:55:38Z</time>
      </trkpt>
      <trkpt lat="42.5745" lon="2.06655">
        <ele>1693.314575</ele>
        <time>2011-09-24T12:55:40Z</time>
      </trkpt>
      <trkpt lat="42.57448" lon="2.06645">
        <ele>1696.066406</ele>
        <time>2011-09-24T12:55:42Z</time>
      </trkpt>
      <trkpt lat="42.57447" lon="2.06635">
        <ele>1698.693604</ele>
        <time>2011-09-24T12:55:44Z</time>
      </trkpt>
      <trkpt lat="42.57446" lon="2.06629">
        <ele>1700.751221</ele>
        <time>2011-09-24T12:55:45Z</time>
      </trkpt>
      <trkpt lat="42.57445" lon="2.06623">
        <ele>1702.561035</ele>
        <time>2011-09-24T12:55:46Z</time>
      </trkpt>
      <trkpt lat="42.57444" lon="2.06612">
        <ele>1704.241089</ele>
        <time>2011-09-24T12:55:48Z</time>
      </trkpt>
      <trkpt lat="42.57443" lon="2.06602">
        <ele>1705.873535</ele>
        <time>2011-09-24T12:55:50Z</time>
      </trkpt>
      <trkpt lat="42.57442" lon="2.06593">
        <ele>1706.177856</ele>
        <time>2011-09-24T12:55:52Z</time>
      </trkpt>
      <trkpt lat="42.57441" lon="2.06583">
        <ele>1706.547119</ele>
        <time>2011-09-24T12:55:54Z</time>
      </trkpt>
      <trkpt lat="42.5744" lon="2.06575">
        <ele>1707.020142</ele>
        <time>2011-09-24T12:55:56Z</time>
      </trkpt>
      <trkpt lat="42.57438" lon="2.06566">
        <ele>1707.544434</ele>
        <time>2011-09-24T12:55:58Z</time>
      </trkpt>
      <trkpt lat="42.57437" lon="2.06558">
        <ele>1708.135498</ele>
        <time>2011-09-24T12:56:00Z</time>
      </trkpt>
      <trkpt lat="42.57436" lon="2.0655">
        <ele>1708.809937</ele>
        <time>2011-09-24T12:56:02Z</time>
      </trkpt>
      <trkpt lat="42.57435" lon="2.06542">
        <ele>1709.559937</ele>
        <time>2011-09-24T12:56:04Z</time>
      </trkpt>
      <trkpt lat="42.57433" lon="2.06532">
        <ele>1710.357178</ele>
        <time>2011-09-24T12:56:06Z</time>
      </trkpt>
      <trkpt lat="42.57432" lon="2.06525">
        <ele>1711.17395</ele>
        <time>2011-09-24T12:56:08Z</time>
      </trkpt>
      <trkpt lat="42.57431" lon="2.06516">
        <ele>1712.064087</ele>
        <time>2011-09-24T12:56:10Z</time>
      </trkpt>
      <trkpt lat="42.5743" lon="2.06507">
        <ele>1712.997559</ele>
        <time>2011-09-24T12:56:12Z</time>
      </trkpt>
      <trkpt lat="42.57429" lon="2.06498">
        <ele>1713.95752</ele>
        <time>2011-09-24T12:56:14Z</time>
      </trkpt>
      <trkpt lat="42.57428" lon="2.06488">
        <ele>1714.953491</ele>
        <time>2011-09-24T12:56:16Z</time>
      </trkpt>
      <trkpt lat="42.57427" lon="2.0648">
        <ele>1715.98877</ele>
        <time>2011-09-24T12:56:18Z</time>
      </trkpt>
      <trkpt lat="42.57426" lon="2.0647">
        <ele>1717.103271</ele>
        <time>2011-09-24T12:56:20Z</time>
      </trkpt>
      <trkpt lat="42.57425" lon="2.0646">
        <ele>1723.433716</ele>
        <time>2011-09-24T12:56:22Z</time>
      </trkpt>
      <trkpt lat="42.57423" lon="2.06449">
        <ele>1733.040039</ele>
        <time>2011-09-24T12:56:24Z</time>
      </trkpt>
      <trkpt lat="42.57422" lon="2.06439">
        <ele>1733.808472</ele>
        <time>2011-09-24T12:56:26Z</time>
      </trkpt>
      <trkpt lat="42.57421" lon="2.0643">
        <ele>1734.626709</ele>
        <time>2011-09-24T12:56:28Z</time>
      </trkpt>
      <trkpt lat="42.5742" lon="2.06421">
        <ele>1735.495972</ele>
        <time>2011-09-24T12:56:30Z</time>
      </trkpt>
      <trkpt lat="42.57419" lon="2.06412">
        <ele>1736.438843</ele>
        <time>2011-09-24T12:56:32Z</time>
      </trkpt>
      <trkpt lat="42.57418" lon="2.06403">
        <ele>1737.457275</ele>
        <time>2011-09-24T12:56:34Z</time>
      </trkpt>
      <trkpt lat="42.57417" lon="2.06393">
        <ele>1743.229736</ele>
        <time>2011-09-24T12:56:36Z</time>
      </trkpt>
      <trkpt lat="42.57415" lon="2.06385">
        <ele>1744.146973</ele>
        <time>2011-09-24T12:56:38Z</time>
      </trkpt>
      <trkpt lat="42.57414" lon="2.06375">
        <ele>1745.174072</ele>
        <time>2011-09-24T12:56:40Z</time>
      </trkpt>
      <trkpt lat="42.57413" lon="2.06366">
        <ele>1746.281128</ele>
        <time>2011-09-24T12:56:42Z</time>
      </trkpt>
      <trkpt lat="42.57412" lon="2.06355">
        <ele>1756.00708</ele>
        <time>2011-09-24T12:56:44Z</time>
      </trkpt>
      <trkpt lat="42.5741" lon="2.06345">
        <ele>1762.812378</ele>
        <time>2011-09-24T12:56:46Z</time>
      </trkpt>
      <trkpt lat="42.57409" lon="2.06335">
        <ele>1763.36853</ele>
        <time>2011-09-24T12:56:48Z</time>
      </trkpt>
      <trkpt lat="42.57407" lon="2.06325">
        <ele>1764.00415</ele>
        <time>2011-09-24T12:56:50Z</time>
      </trkpt>
      <trkpt lat="42.57406" lon="2.06315">
        <ele>1767.865479</ele>
        <time>2011-09-24T12:56:52Z</time>
      </trkpt>
      <trkpt lat="42.57405" lon="2.06305">
        <ele>1768.467285</ele>
        <time>2011-09-24T12:56:54Z</time>
      </trkpt>
      <trkpt lat="42.57404" lon="2.06295">
        <ele>1769.113037</ele>
        <time>2011-09-24T12:56:56Z</time>
      </trkpt>
      <trkpt lat="42.57403" lon="2.06285">
        <ele>1773.234863</ele>
        <time>2011-09-24T12:56:58Z</time>
      </trkpt>
      <trkpt lat="42.57402" lon="2.06276">
        <ele>1773.91272</ele>
        <time>2011-09-24T12:57:00Z</time>
      </trkpt>
      <trkpt lat="42.57401" lon="2.06267">
        <ele>1774.665771</ele>
        <time>2011-09-24T12:57:02Z</time>
      </trkpt>
      <trkpt lat="42.57399" lon="2.06258">
        <ele>1775.484619</ele>
        <time>2011-09-24T12:57:04Z</time>
      </trkpt>
      <trkpt lat="42.57399" lon="2.06253">
        <ele>1775.932861</ele>
        <time>2011-09-24T12:57:05Z</time>
      </trkpt>
      <trkpt lat="42.57398" lon="2.06243">
        <ele>1776.865234</ele>
        <time>2011-09-24T12:57:07Z</time>
      </trkpt>
      <trkpt lat="42.57396" lon="2.06234">
        <ele>1777.802734</ele>
        <time>2011-09-24T12:57:09Z</time>
      </trkpt>
      <trkpt lat="42.57395" lon="2.06225">
        <ele>1778.724854</ele>
        <time>2011-09-24T12:57:11Z</time>
      </trkpt>
      <trkpt lat="42.57394" lon="2.06216">
        <ele>1779.618652</ele>
        <time>2011-09-24T12:57:13Z</time>
      </trkpt>
      <trkpt lat="42.57393" lon="2.06206">
        <ele>1784.303223</ele>
        <time>2011-09-24T12:57:15Z</time>
      </trkpt>
      <trkpt lat="42.57392" lon="2.06195">
        <ele>1790.94519</ele>
        <time>2011-09-24T12:57:17Z</time>
      </trkpt>
      <trkpt lat="42.57391" lon="2.06184">
        <ele>1795.591919</ele>
        <time>2011-09-24T12:57:19Z</time>
      </trkpt>
      <trkpt lat="42.57389" lon="2.06175">
        <ele>1799.460083</ele>
        <time>2011-09-24T12:57:21Z</time>
      </trkpt>
      <trkpt lat="42.57388" lon="2.06165">
        <ele>1801.243164</ele>
        <time>2011-09-24T12:57:23Z</time>
      </trkpt>
      <trkpt lat="42.57387" lon="2.06156">
        <ele>1801.633423</ele>
        <time>2011-09-24T12:57:25Z</time>
      </trkpt>
      <trkpt lat="42.57387" lon="2.06151">
        <ele>1801.853516</ele>
        <time>2011-09-24T12:57:26Z</time>
      </trkpt>
      <trkpt lat="42.57385" lon="2.06142">
        <ele>1802.355347</ele>
        <time>2011-09-24T12:57:28Z</time>
      </trkpt>
      <trkpt lat="42.57384" lon="2.06132">
        <ele>1805.388916</ele>
        <time>2011-09-24T12:57:30Z</time>
      </trkpt>
      <trkpt lat="42.57383" lon="2.06122">
        <ele>1805.866577</ele>
        <time>2011-09-24T12:57:32Z</time>
      </trkpt>
      <trkpt lat="42.57382" lon="2.06111">
        <ele>1809.976807</ele>
        <time>2011-09-24T12:57:34Z</time>
      </trkpt>
      <trkpt lat="42.57381" lon="2.06099">
        <ele>1813.159912</ele>
        <time>2011-09-24T12:57:36Z</time>
      </trkpt>
      <trkpt lat="42.5738" lon="2.06094">
        <ele>1814.74292</ele>
        <time>2011-09-24T12:57:37Z</time>
      </trkpt>
      <trkpt lat="42.57379" lon="2.06083">
        <ele>1817.612793</ele>
        <time>2011-09-24T12:57:39Z</time>
      </trkpt>
      <trkpt lat="42.57378" lon="2.06073">
        <ele>1819.119263</ele>
        <time>2011-09-24T12:57:41Z</time>
      </trkpt>
      <trkpt lat="42.57378" lon="2.06063">
        <ele>1819.46228</ele>
        <time>2011-09-24T12:57:43Z</time>
      </trkpt>
      <trkpt lat="42.57377" lon="2.06052">
        <ele>1823.091064</ele>
        <time>2011-09-24T12:57:45Z</time>
      </trkpt>
      <trkpt lat="42.57376" lon="2.0604">
        <ele>1825.874634</ele>
        <time>2011-09-24T12:57:47Z</time>
      </trkpt>
      <trkpt lat="42.57375" lon="2.06034">
        <ele>1827.059204</ele>
        <time>2011-09-24T12:57:48Z</time>
      </trkpt>
      <trkpt lat="42.57374" lon="2.06025">
        <ele>1827.32312</ele>
        <time>2011-09-24T12:57:50Z</time>
      </trkpt>
      <trkpt lat="42.57373" lon="2.06014">
        <ele>1828.888184</ele>
        <time>2011-09-24T12:57:52Z</time>
      </trkpt>
      <trkpt lat="42.57372" lon="2.06002">
        <ele>1831.459473</ele>
        <time>2011-09-24T12:57:54Z</time>
      </trkpt>
      <trkpt lat="42.57371" lon="2.0599">
        <ele>1832.482422</ele>
        <time>2011-09-24T12:57:56Z</time>
      </trkpt>
      <trkpt lat="42.5737" lon="2.05978">
        <ele>1835.589966</ele>
        <time>2011-09-24T12:57:58Z</time>
      </trkpt>
      <trkpt lat="42.57369" lon="2.05972">
        <ele>1837.721924</ele>
        <time>2011-09-24T12:57:59Z</time>
      </trkpt>
      <trkpt lat="42.57367" lon="2.05961">
        <ele>1840.071533</ele>
        <time>2011-09-24T12:58:01Z</time>
      </trkpt>
      <trkpt lat="42.57367" lon="2.05951">
        <ele>1840.619507</ele>
        <time>2011-09-24T12:58:03Z</time>
      </trkpt>
      <trkpt lat="42.57366" lon="2.05942">
        <ele>1841.31189</ele>
        <time>2011-09-24T12:58:05Z</time>
      </trkpt>
      <trkpt lat="42.57365" lon="2.05934">
        <ele>1842.112915</ele>
        <time>2011-09-24T12:58:07Z</time>
      </trkpt>
      <trkpt lat="42.57364" lon="2.05925">
        <ele>1843.019775</ele>
        <time>2011-09-24T12:58:09Z</time>
      </trkpt>
      <trkpt lat="42.57363" lon="2.05917">
        <ele>1844.024536</ele>
        <time>2011-09-24T12:58:11Z</time>
      </trkpt>
      <trkpt lat="42.57361" lon="2.05908">
        <ele>1845.117188</ele>
        <time>2011-09-24T12:58:13Z</time>
      </trkpt>
      <trkpt lat="42.5736" lon="2.05901">
        <ele>1846.298584</ele>
        <time>2011-09-24T12:58:15Z</time>
      </trkpt>
      <trkpt lat="42.57359" lon="2.05893">
        <ele>1847.565308</ele>
        <time>2011-09-24T12:58:17Z</time>
      </trkpt>
      <trkpt lat="42.57357" lon="2.05886">
        <ele>1848.911499</ele>
        <time>2011-09-24T12:58:19Z</time>
      </trkpt>
      <trkpt lat="42.57356" lon="2.05878">
        <ele>1850.312622</ele>
        <time>2011-09-24T12:58:21Z</time>
      </trkpt>
      <trkpt lat="42.57356" lon="2.0587">
        <ele>1851.773193</ele>
        <time>2011-09-24T12:58:23Z</time>
      </trkpt>
      <trkpt lat="42.57355" lon="2.05863">
        <ele>1853.304932</ele>
        <time>2011-09-24T12:58:25Z</time>
      </trkpt>
      <trkpt lat="42.57354" lon="2.05855">
        <ele>1854.898682</ele>
        <time>2011-09-24T12:58:27Z</time>
      </trkpt>
      <trkpt lat="42.57353" lon="2.05847">
        <ele>1856.549683</ele>
        <time>2011-09-24T12:58:29Z</time>
      </trkpt>
      <trkpt lat="42.57351" lon="2.05839">
        <ele>1858.270508</ele>
        <time>2011-09-24T12:58:31Z</time>
      </trkpt>
      <trkpt lat="42.5735" lon="2.05832">
        <ele>1860.062256</ele>
        <time>2011-09-24T12:58:33Z</time>
      </trkpt>
      <trkpt lat="42.57349" lon="2.05824">
        <ele>1861.926147</ele>
        <time>2011-09-24T12:58:35Z</time>
      </trkpt>
      <trkpt lat="42.57348" lon="2.05816">
        <ele>1863.856689</ele>
        <time>2011-09-24T12:58:37Z</time>
      </trkpt>
      <trkpt lat="42.57347" lon="2.05808">
        <ele>1865.852417</ele>
        <time>2011-09-24T12:58:39Z</time>
      </trkpt>
      <trkpt lat="42.57345" lon="2.058">
        <ele>1867.905762</ele>
        <time>2011-09-24T12:58:41Z</time>
      </trkpt>
      <trkpt lat="42.57344" lon="2.05792">
        <ele>1869.964233</ele>
        <time>2011-09-24T12:58:43Z</time>
      </trkpt>
      <trkpt lat="42.57343" lon="2.05783">
        <ele>1872.100586</ele>
        <time>2011-09-24T12:58:45Z</time>
      </trkpt>
      <trkpt lat="42.57341" lon="2.05774">
        <ele>1874.310425</ele>
        <time>2011-09-24T12:58:47Z</time>
      </trkpt>
      <trkpt lat="42.5734" lon="2.05767">
        <ele>1876.583374</ele>
        <time>2011-09-24T12:58:49Z</time>
      </trkpt>
      <trkpt lat="42.57339" lon="2.05759">
        <ele>1878.915405</ele>
        <time>2011-09-24T12:58:51Z</time>
      </trkpt>
      <trkpt lat="42.57337" lon="2.05751">
        <ele>1881.294922</ele>
        <time>2011-09-24T12:58:53Z</time>
      </trkpt>
      <trkpt lat="42.57336" lon="2.05743">
        <ele>1883.720337</ele>
        <time>2011-09-24T12:58:55Z</time>
      </trkpt>
      <trkpt lat="42.57335" lon="2.05735">
        <ele>1887.470093</ele>
        <time>2011-09-24T12:58:58Z</time>
      </trkpt>
      <trkpt lat="42.57335" lon="2.05727">
        <ele>1890.010864</ele>
        <time>2011-09-24T12:59:00Z</time>
      </trkpt>
      <trkpt lat="42.57334" lon="2.05719">
        <ele>1892.563232</ele>
        <time>2011-09-24T12:59:02Z</time>
      </trkpt>
      <trkpt lat="42.57332" lon="2.0571">
        <ele>1895.122681</ele>
        <time>2011-09-24T12:59:04Z</time>
      </trkpt>
      <trkpt lat="42.57331" lon="2.05701">
        <ele>1897.704834</ele>
        <time>2011-09-24T12:59:06Z</time>
      </trkpt>
      <trkpt lat="42.5733" lon="2.05692">
        <ele>1900.306641</ele>
        <time>2011-09-24T12:59:08Z</time>
      </trkpt>
      <trkpt lat="42.57329" lon="2.05683">
        <ele>1902.927124</ele>
        <time>2011-09-24T12:59:10Z</time>
      </trkpt>
      <trkpt lat="42.57328" lon="2.05674">
        <ele>1905.567383</ele>
        <time>2011-09-24T12:59:12Z</time>
      </trkpt>
      <trkpt lat="42.57327" lon="2.05665">
        <ele>1908.224243</ele>
        <time>2011-09-24T12:59:14Z</time>
      </trkpt>
      <trkpt lat="42.57325" lon="2.05656">
        <ele>1910.891357</ele>
        <time>2011-09-24T12:59:16Z</time>
      </trkpt>
      <trkpt lat="42.57324" lon="2.05647">
        <ele>1913.566284</ele>
        <time>2011-09-24T12:59:18Z</time>
      </trkpt>
      <trkpt lat="42.57323" lon="2.05639">
        <ele>1916.251465</ele>
        <time>2011-09-24T12:59:20Z</time>
      </trkpt>
      <trkpt lat="42.57322" lon="2.05632">
        <ele>1918.943604</ele>
        <time>2011-09-24T12:59:22Z</time>
      </trkpt>
      <trkpt lat="42.57321" lon="2.05626">
        <ele>1921.632935</ele>
        <time>2011-09-24T12:59:24Z</time>
      </trkpt>
      <trkpt lat="42.5732" lon="2.05619">
        <ele>1924.31543</ele>
        <time>2011-09-24T12:59:26Z</time>
      </trkpt>
      <trkpt lat="42.57319" lon="2.05613">
        <ele>1926.989258</ele>
        <time>2011-09-24T12:59:28Z</time>
      </trkpt>
      <trkpt lat="42.57318" lon="2.05607">
        <ele>1929.649902</ele>
        <time>2011-09-24T12:59:30Z</time>
      </trkpt>
      <trkpt lat="42.57317" lon="2.056">
        <ele>1932.301636</ele>
        <time>2011-09-24T12:59:32Z</time>
      </trkpt>
      <trkpt lat="42.57315" lon="2.05594">
        <ele>1934.906982</ele>
        <time>2011-09-24T12:59:34Z</time>
      </trkpt>
      <trkpt lat="42.57314" lon="2.05587">
        <ele>1937.506958</ele>
        <time>2011-09-24T12:59:36Z</time>
      </trkpt>
      <trkpt lat="42.57313" lon="2.0558">
        <ele>1940.097534</ele>
        <time>2011-09-24T12:59:38Z</time>
      </trkpt>
      <trkpt lat="42.57312" lon="2.05573">
        <ele>1942.675903</ele>
        <time>2011-09-24T12:59:40Z</time>
      </trkpt>
      <trkpt lat="42.57311" lon="2.05566">
        <ele>1945.224487</ele>
        <time>2011-09-24T12:59:42Z</time>
      </trkpt>
      <trkpt lat="42.5731" lon="2.0556">
        <ele>1947.748657</ele>
        <time>2011-09-24T12:59:44Z</time>
      </trkpt>
      <trkpt lat="42.57307" lon="2.05553">
        <ele>1950.555298</ele>
        <time>2011-09-24T12:59:46Z</time>
      </trkpt>
      <trkpt lat="42.57303" lon="2.05549">
        <ele>1953.734009</ele>
        <time>2011-09-24T12:59:48Z</time>
      </trkpt>
      <trkpt lat="42.573" lon="2.05543">
        <ele>1958.292847</ele>
        <time>2011-09-24T12:59:51Z</time>
      </trkpt>
      <trkpt lat="42.57299" lon="2.05536">
        <ele>1962.772705</ele>
        <time>2011-09-24T12:59:54Z</time>
      </trkpt>
      <trkpt lat="42.57299" lon="2.05528">
        <ele>1967.318359</ele>
        <time>2011-09-24T12:59:57Z</time>
      </trkpt>
      <trkpt lat="42.57298" lon="2.05519">
        <ele>1971.918945</ele>
        <time>2011-09-24T13:00:00Z</time>
      </trkpt>
      <trkpt lat="42.57296" lon="2.05512">
        <ele>1975.007935</ele>
        <time>2011-09-24T13:00:02Z</time>
      </trkpt>
      <trkpt lat="42.57295" lon="2.05505">
        <ele>1978.108276</ele>
        <time>2011-09-24T13:00:04Z</time>
      </trkpt>
      <trkpt lat="42.57293" lon="2.05498">
        <ele>1981.200195</ele>
        <time>2011-09-24T13:00:06Z</time>
      </trkpt>
      <trkpt lat="42.57292" lon="2.0549">
        <ele>1984.297607</ele>
        <time>2011-09-24T13:00:08Z</time>
      </trkpt>
      <trkpt lat="42.5729" lon="2.05481">
        <ele>1987.397583</ele>
        <time>2011-09-24T13:00:10Z</time>
      </trkpt>
      <trkpt lat="42.57289" lon="2.05473">
        <ele>1990.484131</ele>
        <time>2011-09-24T13:00:12Z</time>
      </trkpt>
      <trkpt lat="42.57287" lon="2.05464">
        <ele>1993.54187</ele>
        <time>2011-09-24T13:00:14Z</time>
      </trkpt>
      <trkpt lat="42.57286" lon="2.05455">
        <ele>1996.571411</ele>
        <time>2011-09-24T13:00:16Z</time>
      </trkpt>
      <trkpt lat="42.57284" lon="2.05447">
        <ele>1999.576538</ele>
        <time>2011-09-24T13:00:18Z</time>
      </trkpt>
      <trkpt lat="42.57283" lon="2.05439">
        <ele>2002.550903</ele>
        <time>2011-09-24T13:00:20Z</time>
      </trkpt>
      <trkpt lat="42.57281" lon="2.05431">
        <ele>2005.481323</ele>
        <time>2011-09-24T13:00:22Z</time>
      </trkpt>
      <trkpt lat="42.57279" lon="2.05423">
        <ele>2008.373901</ele>
        <time>2011-09-24T13:00:24Z</time>
      </trkpt>
      <trkpt lat="42.57278" lon="2.05416">
        <ele>2011.233276</ele>
        <time>2011-09-24T13:00:26Z</time>
      </trkpt>
      <trkpt lat="42.57276" lon="2.05408">
        <ele>2014.052124</ele>
        <time>2011-09-24T13:00:28Z</time>
      </trkpt>
      <trkpt lat="42.57275" lon="2.054">
        <ele>2016.819946</ele>
        <time>2011-09-24T13:00:30Z</time>
      </trkpt>
      <trkpt lat="42.57274" lon="2.05394">
        <ele>2019.601196</ele>
        <time>2011-09-24T13:00:32Z</time>
      </trkpt>
      <trkpt lat="42.57271" lon="2.05386">
        <ele>2023.769409</ele>
        <time>2011-09-24T13:00:35Z</time>
      </trkpt>
      <trkpt lat="42.57268" lon="2.05378">
        <ele>2027.93811</ele>
        <time>2011-09-24T13:00:38Z</time>
      </trkpt>
      <trkpt lat="42.57266" lon="2.05372">
        <ele>2030.62561</ele>
        <time>2011-09-24T13:00:40Z</time>
      </trkpt>
      <trkpt lat="42.57265" lon="2.05365">
        <ele>2033.21936</ele>
        <time>2011-09-24T13:00:42Z</time>
      </trkpt>
      <trkpt lat="42.57265" lon="2.05353">
        <ele>2041.637817</ele>
        <time>2011-09-24T13:00:57Z</time>
      </trkpt>
      <trkpt lat="42.57264" lon="2.05347">
        <ele>2043.135864</ele>
        <time>2011-09-24T13:01:02Z</time>
      </trkpt>
      <trkpt lat="42.57261" lon="2.05341">
        <ele>2044.492554</ele>
        <time>2011-09-24T13:01:06Z</time>
      </trkpt>
      <trkpt lat="42.5726" lon="2.05334">
        <ele>2046.78064</ele>
        <time>2011-09-24T13:01:10Z</time>
      </trkpt>
      <trkpt lat="42.5726" lon="2.05327">
        <ele>2048.86377</ele>
        <time>2011-09-24T13:01:13Z</time>
      </trkpt>
      <trkpt lat="42.5726" lon="2.0532">
        <ele>2051.740234</ele>
        <time>2011-09-24T13:01:16Z</time>
      </trkpt>
      <trkpt lat="42.57262" lon="2.05313">
        <ele>2053.725098</ele>
        <time>2011-09-24T13:01:19Z</time>
      </trkpt>
      <trkpt lat="42.57258" lon="2.05307">
        <ele>2061.713135</ele>
        <time>2011-09-24T13:01:51Z</time>
      </trkpt>
      <trkpt lat="42.57254" lon="2.05303">
        <ele>2064.568604</ele>
        <time>2011-09-24T13:01:54Z</time>
      </trkpt>
      <trkpt lat="42.57248" lon="2.05302">
        <ele>2067.290771</ele>
        <time>2011-09-24T13:01:57Z</time>
      </trkpt>
      <trkpt lat="42.57242" lon="2.05305">
        <ele>2069.893555</ele>
        <time>2011-09-24T13:02:00Z</time>
      </trkpt>
      <trkpt lat="42.57238" lon="2.05309">
        <ele>2071.567383</ele>
        <time>2011-09-24T13:02:02Z</time>
      </trkpt>
      <trkpt lat="42.57235" lon="2.05314">
        <ele>2073.192627</ele>
        <time>2011-09-24T13:02:04Z</time>
      </trkpt>
      <trkpt lat="42.5723" lon="2.0532">
        <ele>2074.766113</ele>
        <time>2011-09-24T13:02:06Z</time>
      </trkpt>
      <trkpt lat="42.57225" lon="2.05325">
        <ele>2076.28418</ele>
        <time>2011-09-24T13:02:08Z</time>
      </trkpt>
      <trkpt lat="42.5722" lon="2.05331">
        <ele>2077.744629</ele>
        <time>2011-09-24T13:02:10Z</time>
      </trkpt>
      <trkpt lat="42.57215" lon="2.05337">
        <ele>2079.151855</ele>
        <time>2011-09-24T13:02:12Z</time>
      </trkpt>
      <trkpt lat="42.5721" lon="2.05343">
        <ele>2080.497803</ele>
        <time>2011-09-24T13:02:14Z</time>
      </trkpt>
      <trkpt lat="42.57205" lon="2.0535">
        <ele>2081.784668</ele>
        <time>2011-09-24T13:02:16Z</time>
      </trkpt>
      <trkpt lat="42.57201" lon="2.05358">
        <ele>2083.015869</ele>
        <time>2011-09-24T13:02:18Z</time>
      </trkpt>
      <trkpt lat="42.57198" lon="2.05366">
        <ele>2084.195068</ele>
        <time>2011-09-24T13:02:20Z</time>
      </trkpt>
      <trkpt lat="42.57198" lon="2.05374">
        <ele>2085.326416</ele>
        <time>2011-09-24T13:02:22Z</time>
      </trkpt>
      <trkpt lat="42.57195" lon="2.05382">
        <ele>2086.93042</ele>
        <time>2011-09-24T13:02:25Z</time>
      </trkpt>
      <trkpt lat="42.57195" lon="2.05389">
        <ele>2087.939697</ele>
        <time>2011-09-24T13:02:27Z</time>
      </trkpt>
      <trkpt lat="42.57194" lon="2.05396">
        <ele>2088.909424</ele>
        <time>2011-09-24T13:02:29Z</time>
      </trkpt>
      <trkpt lat="42.57194" lon="2.05402">
        <ele>2089.843506</ele>
        <time>2011-09-24T13:02:31Z</time>
      </trkpt>
      <trkpt lat="42.57193" lon="2.05409">
        <ele>2090.741211</ele>
        <time>2011-09-24T13:02:33Z</time>
      </trkpt>
      <trkpt lat="42.57192" lon="2.05416">
        <ele>2091.605225</ele>
        <time>2011-09-24T13:02:35Z</time>
      </trkpt>
      <trkpt lat="42.57192" lon="2.05423">
        <ele>2092.433105</ele>
        <time>2011-09-24T13:02:37Z</time>
      </trkpt>
      <trkpt lat="42.57192" lon="2.05429">
        <ele>2093.225586</ele>
        <time>2011-09-24T13:02:39Z</time>
      </trkpt>
      <trkpt lat="42.57192" lon="2.05438">
        <ele>2094.364258</ele>
        <time>2011-09-24T13:02:42Z</time>
      </trkpt>
      <trkpt lat="42.57192" lon="2.05444">
        <ele>2095.094482</ele>
        <time>2011-09-24T13:02:44Z</time>
      </trkpt>
      <trkpt lat="42.57192" lon="2.05451">
        <ele>2095.804443</ele>
        <time>2011-09-24T13:02:46Z</time>
      </trkpt>
      <trkpt lat="42.57192" lon="2.05457">
        <ele>2096.494873</ele>
        <time>2011-09-24T13:02:48Z</time>
      </trkpt>
      <trkpt lat="42.57193" lon="2.05464">
        <ele>2097.158936</ele>
        <time>2011-09-24T13:02:50Z</time>
      </trkpt>
      <trkpt lat="42.57193" lon="2.0547">
        <ele>2097.794922</ele>
        <time>2011-09-24T13:02:52Z</time>
      </trkpt>
      <trkpt lat="42.57193" lon="2.05478">
        <ele>2098.705566</ele>
        <time>2011-09-24T13:02:55Z</time>
      </trkpt>
      <trkpt lat="42.57193" lon="2.05486">
        <ele>2099.564453</ele>
        <time>2011-09-24T13:02:58Z</time>
      </trkpt>
      <trkpt lat="42.57192" lon="2.05492">
        <ele>2100.375488</ele>
        <time>2011-09-24T13:03:01Z</time>
      </trkpt>
      <trkpt lat="42.5719" lon="2.05499">
        <ele>2101.150146</ele>
        <time>2011-09-24T13:03:04Z</time>
      </trkpt>
      <trkpt lat="42.57187" lon="2.05506">
        <ele>2101.906006</ele>
        <time>2011-09-24T13:03:07Z</time>
      </trkpt>
      <trkpt lat="42.57185" lon="2.05512">
        <ele>2102.397217</ele>
        <time>2011-09-24T13:03:09Z</time>
      </trkpt>
      <trkpt lat="42.57183" lon="2.05518">
        <ele>2102.871582</ele>
        <time>2011-09-24T13:03:11Z</time>
      </trkpt>
      <trkpt lat="42.5718" lon="2.05524">
        <ele>2103.554688</ele>
        <time>2011-09-24T13:03:14Z</time>
      </trkpt>
      <trkpt lat="42.57176" lon="2.05529">
        <ele>2104.203125</ele>
        <time>2011-09-24T13:03:17Z</time>
      </trkpt>
      <trkpt lat="42.57171" lon="2.05532">
        <ele>2104.621338</ele>
        <time>2011-09-24T13:03:19Z</time>
      </trkpt>
      <trkpt lat="42.57167" lon="2.05536">
        <ele>2105.039551</ele>
        <time>2011-09-24T13:03:21Z</time>
      </trkpt>
      <trkpt lat="42.57163" lon="2.05539">
        <ele>2105.65918</ele>
        <time>2011-09-24T13:03:24Z</time>
      </trkpt>
      <trkpt lat="42.57157" lon="2.05543">
        <ele>2106.258545</ele>
        <time>2011-09-24T13:03:27Z</time>
      </trkpt>
      <trkpt lat="42.57153" lon="2.05544">
        <ele>2108.630127</ele>
        <time>2011-09-24T13:03:50Z</time>
      </trkpt>
      <trkpt lat="42.57151" lon="2.05551">
        <ele>2110.362549</ele>
        <time>2011-09-24T13:05:05Z</time>
      </trkpt>
      <trkpt lat="42.57148" lon="2.05557">
        <ele>2110.490967</ele>
        <time>2011-09-24T13:05:07Z</time>
      </trkpt>
      <trkpt lat="42.57142" lon="2.05565">
        <ele>2111.290527</ele>
        <time>2011-09-24T13:05:09Z</time>
      </trkpt>
      <trkpt lat="42.57135" lon="2.05576">
        <ele>2111.665039</ele>
        <time>2011-09-24T13:05:12Z</time>
      </trkpt>
      <trkpt lat="42.57133" lon="2.05588">
        <ele>2111.599854</ele>
        <time>2011-09-24T13:05:14Z</time>
      </trkpt>
      <trkpt lat="42.5713" lon="2.05596">
        <ele>2111.178711</ele>
        <time>2011-09-24T13:05:15Z</time>
      </trkpt>
      <trkpt lat="42.57126" lon="2.05604">
        <ele>2110.740723</ele>
        <time>2011-09-24T13:05:16Z</time>
      </trkpt>
      <trkpt lat="42.57122" lon="2.05611">
        <ele>2110.236084</ele>
        <time>2011-09-24T13:05:17Z</time>
      </trkpt>
      <trkpt lat="42.57117" lon="2.05619">
        <ele>2109.622314</ele>
        <time>2011-09-24T13:05:18Z</time>
      </trkpt>
      <trkpt lat="42.57113" lon="2.05627">
        <ele>2108.687988</ele>
        <time>2011-09-24T13:05:19Z</time>
      </trkpt>
      <trkpt lat="42.57109" lon="2.05633">
        <ele>2107.658691</ele>
        <time>2011-09-24T13:05:20Z</time>
      </trkpt>
      <trkpt lat="42.57105" lon="2.05639">
        <ele>2106.645996</ele>
        <time>2011-09-24T13:05:21Z</time>
      </trkpt>
      <trkpt lat="42.57102" lon="2.05645">
        <ele>2105.614502</ele>
        <time>2011-09-24T13:05:22Z</time>
      </trkpt>
      <trkpt lat="42.57097" lon="2.05651">
        <ele>2105.431641</ele>
        <time>2011-09-24T13:05:24Z</time>
      </trkpt>
      <trkpt lat="42.57093" lon="2.05657">
        <ele>2105.216064</ele>
        <time>2011-09-24T13:05:26Z</time>
      </trkpt>
      <trkpt lat="42.57094" lon="2.05666">
        <ele>2104.989014</ele>
        <time>2011-09-24T13:05:28Z</time>
      </trkpt>
      <trkpt lat="42.57094" lon="2.05672">
        <ele>2103.716553</ele>
        <time>2011-09-24T13:05:29Z</time>
      </trkpt>
      <trkpt lat="42.57095" lon="2.05678">
        <ele>2102.625488</ele>
        <time>2011-09-24T13:05:30Z</time>
      </trkpt>
      <trkpt lat="42.57091" lon="2.05689">
        <ele>2100.905762</ele>
        <time>2011-09-24T13:05:32Z</time>
      </trkpt>
      <trkpt lat="42.57087" lon="2.05693">
        <ele>2100.275391</ele>
        <time>2011-09-24T13:05:33Z</time>
      </trkpt>
      <trkpt lat="42.57082" lon="2.05703">
        <ele>2099.444336</ele>
        <time>2011-09-24T13:05:35Z</time>
      </trkpt>
      <trkpt lat="42.57081" lon="2.0571">
        <ele>2098.765137</ele>
        <time>2011-09-24T13:05:36Z</time>
      </trkpt>
      <trkpt lat="42.5708" lon="2.05717">
        <ele>2098.065186</ele>
        <time>2011-09-24T13:05:37Z</time>
      </trkpt>
      <trkpt lat="42.57077" lon="2.05722">
        <ele>2097.396484</ele>
        <time>2011-09-24T13:05:38Z</time>
      </trkpt>
      <trkpt lat="42.57072" lon="2.05729">
        <ele>2097.263428</ele>
        <time>2011-09-24T13:05:40Z</time>
      </trkpt>
      <trkpt lat="42.57069" lon="2.05736">
        <ele>2097.12915</ele>
        <time>2011-09-24T13:05:42Z</time>
      </trkpt>
      <trkpt lat="42.57067" lon="2.05744">
        <ele>2097</ele>
        <time>2011-09-24T13:05:44Z</time>
      </trkpt>
      <trkpt lat="42.57065" lon="2.05753">
        <ele>2096.871094</ele>
        <time>2011-09-24T13:05:46Z</time>
      </trkpt>
      <trkpt lat="42.5706" lon="2.05761">
        <ele>2096.699951</ele>
        <time>2011-09-24T13:05:48Z</time>
      </trkpt>
      <trkpt lat="42.57057" lon="2.05767">
        <ele>2096.497803</ele>
        <time>2011-09-24T13:05:51Z</time>
      </trkpt>
      <trkpt lat="42.57052" lon="2.05773">
        <ele>2096.428955</ele>
        <time>2011-09-24T13:05:54Z</time>
      </trkpt>
      <trkpt lat="42.57047" lon="2.05781">
        <ele>2096.477051</ele>
        <time>2011-09-24T13:05:56Z</time>
      </trkpt>
      <trkpt lat="42.57044" lon="2.05786">
        <ele>2096.528076</ele>
        <time>2011-09-24T13:05:57Z</time>
      </trkpt>
      <trkpt lat="42.57038" lon="2.05797">
        <ele>2096.611572</ele>
        <time>2011-09-24T13:05:59Z</time>
      </trkpt>
      <trkpt lat="42.57035" lon="2.05803">
        <ele>2096.576416</ele>
        <time>2011-09-24T13:06:00Z</time>
      </trkpt>
      <trkpt lat="42.5703" lon="2.0581">
        <ele>2095.486084</ele>
        <time>2011-09-24T13:06:01Z</time>
      </trkpt>
      <trkpt lat="42.57025" lon="2.05815">
        <ele>2094.283691</ele>
        <time>2011-09-24T13:06:02Z</time>
      </trkpt>
      <trkpt lat="42.57021" lon="2.05821">
        <ele>2092.772217</ele>
        <time>2011-09-24T13:06:03Z</time>
      </trkpt>
      <trkpt lat="42.57016" lon="2.05828">
        <ele>2091.114258</ele>
        <time>2011-09-24T13:06:04Z</time>
      </trkpt>
      <trkpt lat="42.57013" lon="2.05834">
        <ele>2089.43457</ele>
        <time>2011-09-24T13:06:05Z</time>
      </trkpt>
      <trkpt lat="42.57011" lon="2.05841">
        <ele>2087.790283</ele>
        <time>2011-09-24T13:06:06Z</time>
      </trkpt>
      <trkpt lat="42.5701" lon="2.05847">
        <ele>2087.634521</ele>
        <time>2011-09-24T13:06:07Z</time>
      </trkpt>
      <trkpt lat="42.57009" lon="2.05853">
        <ele>2087.463379</ele>
        <time>2011-09-24T13:06:08Z</time>
      </trkpt>
      <trkpt lat="42.57009" lon="2.0586">
        <ele>2087.281006</ele>
        <time>2011-09-24T13:06:09Z</time>
      </trkpt>
      <trkpt lat="42.57007" lon="2.0587">
        <ele>2086.902832</ele>
        <time>2011-09-24T13:06:11Z</time>
      </trkpt>
      <trkpt lat="42.57004" lon="2.05881">
        <ele>2085.008301</ele>
        <time>2011-09-24T13:06:13Z</time>
      </trkpt>
      <trkpt lat="42.57002" lon="2.05886">
        <ele>2083.71167</ele>
        <time>2011-09-24T13:06:14Z</time>
      </trkpt>
      <trkpt lat="42.56999" lon="2.05894">
        <ele>2083.521484</ele>
        <time>2011-09-24T13:06:16Z</time>
      </trkpt>
      <trkpt lat="42.56995" lon="2.05901">
        <ele>2083.345459</ele>
        <time>2011-09-24T13:06:18Z</time>
      </trkpt>
      <trkpt lat="42.56996" lon="2.05914">
        <ele>2082.129883</ele>
        <time>2011-09-24T13:06:20Z</time>
      </trkpt>
      <trkpt lat="42.56997" lon="2.05922">
        <ele>2080.85083</ele>
        <time>2011-09-24T13:06:21Z</time>
      </trkpt>
      <trkpt lat="42.56997" lon="2.0593">
        <ele>2079.55957</ele>
        <time>2011-09-24T13:06:22Z</time>
      </trkpt>
      <trkpt lat="42.56996" lon="2.05937">
        <ele>2078.343506</ele>
        <time>2011-09-24T13:06:23Z</time>
      </trkpt>
      <trkpt lat="42.56992" lon="2.05944">
        <ele>2077.091309</ele>
        <time>2011-09-24T13:06:25Z</time>
      </trkpt>
      <trkpt lat="42.56988" lon="2.05949">
        <ele>2076.86792</ele>
        <time>2011-09-24T13:06:27Z</time>
      </trkpt>
      <trkpt lat="42.56987" lon="2.05958">
        <ele>2076.598145</ele>
        <time>2011-09-24T13:06:29Z</time>
      </trkpt>
      <trkpt lat="42.56986" lon="2.05968">
        <ele>2076.282471</ele>
        <time>2011-09-24T13:06:31Z</time>
      </trkpt>
      <trkpt lat="42.56981" lon="2.05976">
        <ele>2074.414062</ele>
        <time>2011-09-24T13:06:33Z</time>
      </trkpt>
      <trkpt lat="42.56974" lon="2.05976">
        <ele>2074.010986</ele>
        <time>2011-09-24T13:06:35Z</time>
      </trkpt>
      <trkpt lat="42.56969" lon="2.05971">
        <ele>2073.519531</ele>
        <time>2011-09-24T13:06:37Z</time>
      </trkpt>
      <trkpt lat="42.56965" lon="2.05967">
        <ele>2073.016113</ele>
        <time>2011-09-24T13:06:39Z</time>
      </trkpt>
      <trkpt lat="42.5696" lon="2.05963">
        <ele>2072.52417</ele>
        <time>2011-09-24T13:06:41Z</time>
      </trkpt>
      <trkpt lat="42.56955" lon="2.05964">
        <ele>2072.033203</ele>
        <time>2011-09-24T13:06:43Z</time>
      </trkpt>
      <trkpt lat="42.56954" lon="2.05971">
        <ele>2071.563965</ele>
        <time>2011-09-24T13:06:45Z</time>
      </trkpt>
      <trkpt lat="42.56954" lon="2.0598">
        <ele>2071.108398</ele>
        <time>2011-09-24T13:06:47Z</time>
      </trkpt>
      <trkpt lat="42.56954" lon="2.0599">
        <ele>2070.675293</ele>
        <time>2011-09-24T13:06:49Z</time>
      </trkpt>
      <trkpt lat="42.56951" lon="2.06001">
        <ele>2070.231201</ele>
        <time>2011-09-24T13:06:51Z</time>
      </trkpt>
      <trkpt lat="42.56946" lon="2.06007">
        <ele>2069.740967</ele>
        <time>2011-09-24T13:06:53Z</time>
      </trkpt>
      <trkpt lat="42.56939" lon="2.06008">
        <ele>2066.96167</ele>
        <time>2011-09-24T13:06:55Z</time>
      </trkpt>
      <trkpt lat="42.56929" lon="2.06008">
        <ele>2063.432861</ele>
        <time>2011-09-24T13:06:57Z</time>
      </trkpt>
      <trkpt lat="42.56924" lon="2.0601">
        <ele>2061.63501</ele>
        <time>2011-09-24T13:06:58Z</time>
      </trkpt>
      <trkpt lat="42.56919" lon="2.06015">
        <ele>2059.825684</ele>
        <time>2011-09-24T13:06:59Z</time>
      </trkpt>
      <trkpt lat="42.56914" lon="2.06019">
        <ele>2058.145752</ele>
        <time>2011-09-24T13:07:00Z</time>
      </trkpt>
      <trkpt lat="42.5691" lon="2.06023">
        <ele>2056.571533</ele>
        <time>2011-09-24T13:07:01Z</time>
      </trkpt>
      <trkpt lat="42.56907" lon="2.06028">
        <ele>2055.07666</ele>
        <time>2011-09-24T13:07:02Z</time>
      </trkpt>
      <trkpt lat="42.56903" lon="2.06036">
        <ele>2053.607422</ele>
        <time>2011-09-24T13:07:04Z</time>
      </trkpt>
      <trkpt lat="42.56902" lon="2.06048">
        <ele>2051.126465</ele>
        <time>2011-09-24T13:07:06Z</time>
      </trkpt>
      <trkpt lat="42.56902" lon="2.06054">
        <ele>2050.130371</ele>
        <time>2011-09-24T13:07:07Z</time>
      </trkpt>
      <trkpt lat="42.569" lon="2.06065">
        <ele>2049.293945</ele>
        <time>2011-09-24T13:07:09Z</time>
      </trkpt>
      <trkpt lat="42.56898" lon="2.06072">
        <ele>2048.660889</ele>
        <time>2011-09-24T13:07:10Z</time>
      </trkpt>
      <trkpt lat="42.56897" lon="2.0608">
        <ele>2047.869995</ele>
        <time>2011-09-24T13:07:11Z</time>
      </trkpt>
      <trkpt lat="42.56896" lon="2.06088">
        <ele>2046.977661</ele>
        <time>2011-09-24T13:07:12Z</time>
      </trkpt>
      <trkpt lat="42.56893" lon="2.06093">
        <ele>2045.968872</ele>
        <time>2011-09-24T13:07:13Z</time>
      </trkpt>
      <trkpt lat="42.56886" lon="2.06099">
        <ele>2042.772095</ele>
        <time>2011-09-24T13:07:15Z</time>
      </trkpt>
      <trkpt lat="42.5688" lon="2.06098">
        <ele>2040.536987</ele>
        <time>2011-09-24T13:07:17Z</time>
      </trkpt>
      <trkpt lat="42.56873" lon="2.06089">
        <ele>2037.011353</ele>
        <time>2011-09-24T13:07:19Z</time>
      </trkpt>
      <trkpt lat="42.5687" lon="2.06083">
        <ele>2035.139771</ele>
        <time>2011-09-24T13:07:20Z</time>
      </trkpt>
      <trkpt lat="42.56867" lon="2.06076">
        <ele>2034.820679</ele>
        <time>2011-09-24T13:07:22Z</time>
      </trkpt>
      <trkpt lat="42.56862" lon="2.0608">
        <ele>2034.2948</ele>
        <time>2011-09-24T13:07:25Z</time>
      </trkpt>
      <trkpt lat="42.56859" lon="2.06091">
        <ele>2030.248901</ele>
        <time>2011-09-24T13:07:27Z</time>
      </trkpt>
      <trkpt lat="42.56858" lon="2.06097">
        <ele>2028.740356</ele>
        <time>2011-09-24T13:07:28Z</time>
      </trkpt>
      <trkpt lat="42.56857" lon="2.06104">
        <ele>2027.505737</ele>
        <time>2011-09-24T13:07:29Z</time>
      </trkpt>
      <trkpt lat="42.56856" lon="2.06111">
        <ele>2026.442261</ele>
        <time>2011-09-24T13:07:30Z</time>
      </trkpt>
      <trkpt lat="42.56856" lon="2.06119">
        <ele>2025.637329</ele>
        <time>2011-09-24T13:07:31Z</time>
      </trkpt>
      <trkpt lat="42.56855" lon="2.06126">
        <ele>2025.013794</ele>
        <time>2011-09-24T13:07:32Z</time>
      </trkpt>
      <trkpt lat="42.56852" lon="2.06131">
        <ele>2024.869751</ele>
        <time>2011-09-24T13:07:34Z</time>
      </trkpt>
      <trkpt lat="42.5685" lon="2.06138">
        <ele>2024.468628</ele>
        <time>2011-09-24T13:07:37Z</time>
      </trkpt>
      <trkpt lat="42.56847" lon="2.06146">
        <ele>2024.085327</ele>
        <time>2011-09-24T13:07:39Z</time>
      </trkpt>
      <trkpt lat="42.56842" lon="2.06153">
        <ele>2023.594116</ele>
        <time>2011-09-24T13:07:41Z</time>
      </trkpt>
      <trkpt lat="42.56839" lon="2.0616">
        <ele>2023.025757</ele>
        <time>2011-09-24T13:07:43Z</time>
      </trkpt>
      <trkpt lat="42.56838" lon="2.06171">
        <ele>2022.366821</ele>
        <time>2011-09-24T13:07:45Z</time>
      </trkpt>
      <trkpt lat="42.56839" lon="2.06178">
        <ele>2022.005493</ele>
        <time>2011-09-24T13:07:46Z</time>
      </trkpt>
      <trkpt lat="42.56839" lon="2.06184">
        <ele>2018.466431</ele>
        <time>2011-09-24T13:07:47Z</time>
      </trkpt>
      <trkpt lat="42.5684" lon="2.06191">
        <ele>2015.552612</ele>
        <time>2011-09-24T13:07:48Z</time>
      </trkpt>
      <trkpt lat="42.56841" lon="2.06197">
        <ele>2015.294067</ele>
        <time>2011-09-24T13:07:49Z</time>
      </trkpt>
      <trkpt lat="42.56842" lon="2.06203">
        <ele>2012.584839</ele>
        <time>2011-09-24T13:07:50Z</time>
      </trkpt>
      <trkpt lat="42.56844" lon="2.06214">
        <ele>2008.667358</ele>
        <time>2011-09-24T13:07:52Z</time>
      </trkpt>
      <trkpt lat="42.56838" lon="2.06221">
        <ele>2005.699585</ele>
        <time>2011-09-24T13:07:54Z</time>
      </trkpt>
      <trkpt lat="42.56837" lon="2.06231">
        <ele>2005.395874</ele>
        <time>2011-09-24T13:07:56Z</time>
      </trkpt>
      <trkpt lat="42.56838" lon="2.06237">
        <ele>2003.40271</ele>
        <time>2011-09-24T13:07:57Z</time>
      </trkpt>
      <trkpt lat="42.56836" lon="2.06248">
        <ele>2000.257202</ele>
        <time>2011-09-24T13:07:59Z</time>
      </trkpt>
      <trkpt lat="42.56833" lon="2.06258">
        <ele>1997.951782</ele>
        <time>2011-09-24T13:08:01Z</time>
      </trkpt>
      <trkpt lat="42.56832" lon="2.06264">
        <ele>1997.004883</ele>
        <time>2011-09-24T13:08:02Z</time>
      </trkpt>
      <trkpt lat="42.5683" lon="2.06273">
        <ele>1995.611694</ele>
        <time>2011-09-24T13:08:04Z</time>
      </trkpt>
      <trkpt lat="42.56833" lon="2.06278">
        <ele>1995.232178</ele>
        <time>2011-09-24T13:08:06Z</time>
      </trkpt>
      <trkpt lat="42.56834" lon="2.06285">
        <ele>1994.603271</ele>
        <time>2011-09-24T13:08:09Z</time>
      </trkpt>
      <trkpt lat="42.56831" lon="2.06293">
        <ele>1993.908813</ele>
        <time>2011-09-24T13:08:12Z</time>
      </trkpt>
      <trkpt lat="42.56828" lon="2.06299">
        <ele>1992.145264</ele>
        <time>2011-09-24T13:08:20Z</time>
      </trkpt>
      <trkpt lat="42.56823" lon="2.06303">
        <ele>1991.037354</ele>
        <time>2011-09-24T13:08:23Z</time>
      </trkpt>
      <trkpt lat="42.56816" lon="2.06308">
        <ele>1986.002441</ele>
        <time>2011-09-24T13:08:25Z</time>
      </trkpt>
      <trkpt lat="42.56808" lon="2.06311">
        <ele>1978.595459</ele>
        <time>2011-09-24T13:08:27Z</time>
      </trkpt>
      <trkpt lat="42.56805" lon="2.06315">
        <ele>1975.251831</ele>
        <time>2011-09-24T13:08:28Z</time>
      </trkpt>
      <trkpt lat="42.56798" lon="2.06321">
        <ele>1974.626465</ele>
        <time>2011-09-24T13:08:30Z</time>
      </trkpt>
      <trkpt lat="42.56794" lon="2.06326">
        <ele>1973.974487</ele>
        <time>2011-09-24T13:08:32Z</time>
      </trkpt>
      <trkpt lat="42.56792" lon="2.06333">
        <ele>1973.321289</ele>
        <time>2011-09-24T13:08:34Z</time>
      </trkpt>
      <trkpt lat="42.56791" lon="2.06343">
        <ele>1969.544067</ele>
        <time>2011-09-24T13:08:36Z</time>
      </trkpt>
      <trkpt lat="42.56791" lon="2.0635">
        <ele>1969.00354</ele>
        <time>2011-09-24T13:08:38Z</time>
      </trkpt>
      <trkpt lat="42.56789" lon="2.06356">
        <ele>1968.457153</ele>
        <time>2011-09-24T13:08:40Z</time>
      </trkpt>
      <trkpt lat="42.56786" lon="2.06365">
        <ele>1967.666138</ele>
        <time>2011-09-24T13:08:43Z</time>
      </trkpt>
      <trkpt lat="42.56786" lon="2.06373">
        <ele>1967.100464</ele>
        <time>2011-09-24T13:08:45Z</time>
      </trkpt>
      <trkpt lat="42.56785" lon="2.06379">
        <ele>1966.514282</ele>
        <time>2011-09-24T13:08:47Z</time>
      </trkpt>
      <trkpt lat="42.56783" lon="2.06386">
        <ele>1965.928101</ele>
        <time>2011-09-24T13:08:49Z</time>
      </trkpt>
      <trkpt lat="42.5678" lon="2.06396">
        <ele>1965.222534</ele>
        <time>2011-09-24T13:08:51Z</time>
      </trkpt>
      <trkpt lat="42.56778" lon="2.06407">
        <ele>1964.482178</ele>
        <time>2011-09-24T13:08:53Z</time>
      </trkpt>
      <trkpt lat="42.56777" lon="2.06413">
        <ele>1964.097046</ele>
        <time>2011-09-24T13:08:54Z</time>
      </trkpt>
      <trkpt lat="42.56771" lon="2.06415">
        <ele>1963.346924</ele>
        <time>2011-09-24T13:08:56Z</time>
      </trkpt>
      <trkpt lat="42.56765" lon="2.06416">
        <ele>1962.622681</ele>
        <time>2011-09-24T13:08:58Z</time>
      </trkpt>
      <trkpt lat="42.5676" lon="2.0642">
        <ele>1961.899536</ele>
        <time>2011-09-24T13:09:00Z</time>
      </trkpt>
      <trkpt lat="42.56756" lon="2.06427">
        <ele>1961.078003</ele>
        <time>2011-09-24T13:09:02Z</time>
      </trkpt>
      <trkpt lat="42.56752" lon="2.06432">
        <ele>1960.116577</ele>
        <time>2011-09-24T13:09:04Z</time>
      </trkpt>
      <trkpt lat="42.56749" lon="2.06434">
        <ele>1959.506836</ele>
        <time>2011-09-24T13:09:05Z</time>
      </trkpt>
      <trkpt lat="42.56744" lon="2.06433">
        <ele>1953.011719</ele>
        <time>2011-09-24T13:09:06Z</time>
      </trkpt>
      <trkpt lat="42.56738" lon="2.06432">
        <ele>1947.950684</ele>
        <time>2011-09-24T13:09:07Z</time>
      </trkpt>
      <trkpt lat="42.56732" lon="2.06433">
        <ele>1942.710083</ele>
        <time>2011-09-24T13:09:08Z</time>
      </trkpt>
      <trkpt lat="42.56726" lon="2.06436">
        <ele>1942.21228</ele>
        <time>2011-09-24T13:09:09Z</time>
      </trkpt>
      <trkpt lat="42.5672" lon="2.06441">
        <ele>1941.054688</ele>
        <time>2011-09-24T13:09:11Z</time>
      </trkpt>
      <trkpt lat="42.56718" lon="2.06447">
        <ele>1940.540039</ele>
        <time>2011-09-24T13:09:18Z</time>
      </trkpt>
      <trkpt lat="42.56723" lon="2.06444">
        <ele>1939.910278</ele>
        <time>2011-09-24T13:09:27Z</time>
      </trkpt>
      <trkpt lat="42.56717" lon="2.06446">
        <ele>1931.096313</ele>
        <time>2011-09-24T13:09:35Z</time>
      </trkpt>
      <trkpt lat="42.56711" lon="2.0645">
        <ele>1925.591553</ele>
        <time>2011-09-24T13:09:36Z</time>
      </trkpt>
      <trkpt lat="42.56704" lon="2.06456">
        <ele>1920.716064</ele>
        <time>2011-09-24T13:09:37Z</time>
      </trkpt>
      <trkpt lat="42.56698" lon="2.06464">
        <ele>1916.556396</ele>
        <time>2011-09-24T13:09:38Z</time>
      </trkpt>
      <trkpt lat="42.56694" lon="2.06472">
        <ele>1913.037598</ele>
        <time>2011-09-24T13:09:39Z</time>
      </trkpt>
      <trkpt lat="42.56689" lon="2.06478">
        <ele>1910.11084</ele>
        <time>2011-09-24T13:09:40Z</time>
      </trkpt>
      <trkpt lat="42.56685" lon="2.06482">
        <ele>1907.56665</ele>
        <time>2011-09-24T13:09:41Z</time>
      </trkpt>
      <trkpt lat="42.56678" lon="2.06484">
        <ele>1907.12085</ele>
        <time>2011-09-24T13:09:43Z</time>
      </trkpt>
      <trkpt lat="42.5667" lon="2.06482">
        <ele>1906.717651</ele>
        <time>2011-09-24T13:09:45Z</time>
      </trkpt>
      <trkpt lat="42.56664" lon="2.06487">
        <ele>1906.173828</ele>
        <time>2011-09-24T13:09:48Z</time>
      </trkpt>
      <trkpt lat="42.56659" lon="2.06498">
        <ele>1905.769409</ele>
        <time>2011-09-24T13:09:51Z</time>
      </trkpt>
      <trkpt lat="42.56656" lon="2.06502">
        <ele>1904.737549</ele>
        <time>2011-09-24T13:09:52Z</time>
      </trkpt>
      <trkpt lat="42.5665" lon="2.06509">
        <ele>1903.919189</ele>
        <time>2011-09-24T13:09:54Z</time>
      </trkpt>
      <trkpt lat="42.56646" lon="2.06517">
        <ele>1903.602783</ele>
        <time>2011-09-24T13:09:57Z</time>
      </trkpt>
      <trkpt lat="42.56643" lon="2.06529">
        <ele>1903.164673</ele>
        <time>2011-09-24T13:10:00Z</time>
      </trkpt>
      <trkpt lat="42.56644" lon="2.06537">
        <ele>1902.730347</ele>
        <time>2011-09-24T13:10:02Z</time>
      </trkpt>
      <trkpt lat="42.56644" lon="2.06546">
        <ele>1901.97583</ele>
        <time>2011-09-24T13:10:05Z</time>
      </trkpt>
      <trkpt lat="42.56643" lon="2.06556">
        <ele>1901.396606</ele>
        <time>2011-09-24T13:10:07Z</time>
      </trkpt>
      <trkpt lat="42.56643" lon="2.06564">
        <ele>1898.350464</ele>
        <time>2011-09-24T13:10:08Z</time>
      </trkpt>
      <trkpt lat="42.56642" lon="2.06571">
        <ele>1895.534546</ele>
        <time>2011-09-24T13:10:09Z</time>
      </trkpt>
      <trkpt lat="42.56642" lon="2.06578">
        <ele>1895.30603</ele>
        <time>2011-09-24T13:10:10Z</time>
      </trkpt>
      <trkpt lat="42.56642" lon="2.06585">
        <ele>1895.051147</ele>
        <time>2011-09-24T13:10:11Z</time>
      </trkpt>
      <trkpt lat="42.56638" lon="2.06596">
        <ele>1894.56604</ele>
        <time>2011-09-24T13:10:13Z</time>
      </trkpt>
      <trkpt lat="42.56636" lon="2.06604">
        <ele>1891.922119</ele>
        <time>2011-09-24T13:10:14Z</time>
      </trkpt>
      <trkpt lat="42.56632" lon="2.06616">
        <ele>1889.345581</ele>
        <time>2011-09-24T13:10:15Z</time>
      </trkpt>
      <trkpt lat="42.56625" lon="2.06625">
        <ele>1886.692383</ele>
        <time>2011-09-24T13:10:16Z</time>
      </trkpt>
      <trkpt lat="42.56618" lon="2.06636">
        <ele>1882.575806</ele>
        <time>2011-09-24T13:10:17Z</time>
      </trkpt>
      <trkpt lat="42.56608" lon="2.06648">
        <ele>1878.05957</ele>
        <time>2011-09-24T13:10:18Z</time>
      </trkpt>
      <trkpt lat="42.56596" lon="2.06661">
        <ele>1873.724487</ele>
        <time>2011-09-24T13:10:19Z</time>
      </trkpt>
      <trkpt lat="42.56584" lon="2.06672">
        <ele>1869.414429</ele>
        <time>2011-09-24T13:10:20Z</time>
      </trkpt>
      <trkpt lat="42.56573" lon="2.06682">
        <ele>1865.304199</ele>
        <time>2011-09-24T13:10:21Z</time>
      </trkpt>
      <trkpt lat="42.56562" lon="2.0669">
        <ele>1861.491699</ele>
        <time>2011-09-24T13:10:22Z</time>
      </trkpt>
      <trkpt lat="42.56552" lon="2.06697">
        <ele>1858.01062</ele>
        <time>2011-09-24T13:10:23Z</time>
      </trkpt>
      <trkpt lat="42.56543" lon="2.06703">
        <ele>1854.854858</ele>
        <time>2011-09-24T13:10:24Z</time>
      </trkpt>
      <trkpt lat="42.56536" lon="2.0671">
        <ele>1851.953979</ele>
        <time>2011-09-24T13:10:25Z</time>
      </trkpt>
      <trkpt lat="42.56531" lon="2.06716">
        <ele>1849.495972</ele>
        <time>2011-09-24T13:10:26Z</time>
      </trkpt>
      <trkpt lat="42.56531" lon="2.06726">
        <ele>1847.379761</ele>
        <time>2011-09-24T13:10:27Z</time>
      </trkpt>
      <trkpt lat="42.56534" lon="2.06736">
        <ele>1845.53833</ele>
        <time>2011-09-24T13:10:28Z</time>
      </trkpt>
      <trkpt lat="42.56537" lon="2.06745">
        <ele>1843.837402</ele>
        <time>2011-09-24T13:10:29Z</time>
      </trkpt>
      <trkpt lat="42.5654" lon="2.06754">
        <ele>1842.274536</ele>
        <time>2011-09-24T13:10:30Z</time>
      </trkpt>
      <trkpt lat="42.56543" lon="2.06762">
        <ele>1840.899048</ele>
        <time>2011-09-24T13:10:31Z</time>
      </trkpt>
      <trkpt lat="42.56546" lon="2.06771">
        <ele>1840.077515</ele>
        <time>2011-09-24T13:10:32Z</time>
      </trkpt>
      <trkpt lat="42.5655" lon="2.06779">
        <ele>1839.107056</ele>
        <time>2011-09-24T13:10:33Z</time>
      </trkpt>
      <trkpt lat="42.56552" lon="2.06787">
        <ele>1838.248047</ele>
        <time>2011-09-24T13:10:34Z</time>
      </trkpt>
      <trkpt lat="42.56551" lon="2.06793">
        <ele>1837.582886</ele>
        <time>2011-09-24T13:10:35Z</time>
      </trkpt>
      <trkpt lat="42.5655" lon="2.06799">
        <ele>1837.010132</ele>
        <time>2011-09-24T13:10:36Z</time>
      </trkpt>
      <trkpt lat="42.56548" lon="2.06805">
        <ele>1836.430908</ele>
        <time>2011-09-24T13:10:37Z</time>
      </trkpt>
      <trkpt lat="42.56543" lon="2.06811">
        <ele>1836.322021</ele>
        <time>2011-09-24T13:10:39Z</time>
      </trkpt>
      <trkpt lat="42.56539" lon="2.06819">
        <ele>1836.177734</ele>
        <time>2011-09-24T13:10:41Z</time>
      </trkpt>
      <trkpt lat="42.56533" lon="2.06827">
        <ele>1835.965576</ele>
        <time>2011-09-24T13:10:43Z</time>
      </trkpt>
      <trkpt lat="42.56528" lon="2.06835">
        <ele>1835.68811</ele>
        <time>2011-09-24T13:10:45Z</time>
      </trkpt>
      <trkpt lat="42.56522" lon="2.06842">
        <ele>1835.44043</ele>
        <time>2011-09-24T13:10:47Z</time>
      </trkpt>
      <trkpt lat="42.56515" lon="2.06849">
        <ele>1835.252319</ele>
        <time>2011-09-24T13:10:49Z</time>
      </trkpt>
      <trkpt lat="42.56508" lon="2.06855">
        <ele>1833.332153</ele>
        <time>2011-09-24T13:10:51Z</time>
      </trkpt>
      <trkpt lat="42.56502" lon="2.06861">
        <ele>1832.867798</ele>
        <time>2011-09-24T13:10:53Z</time>
      </trkpt>
      <trkpt lat="42.56496" lon="2.06869">
        <ele>1832.219604</ele>
        <time>2011-09-24T13:10:55Z</time>
      </trkpt>
      <trkpt lat="42.56493" lon="2.06877">
        <ele>1831.46875</ele>
        <time>2011-09-24T13:10:57Z</time>
      </trkpt>
      <trkpt lat="42.56494" lon="2.0689">
        <ele>1825.34082</ele>
        <time>2011-09-24T13:11:00Z</time>
      </trkpt>
      <trkpt lat="42.56501" lon="2.06894">
        <ele>1817.874146</ele>
        <time>2011-09-24T13:11:02Z</time>
      </trkpt>
      <trkpt lat="42.56508" lon="2.06898">
        <ele>1814.975952</ele>
        <time>2011-09-24T13:11:04Z</time>
      </trkpt>
      <trkpt lat="42.56512" lon="2.06899">
        <ele>1814.529053</ele>
        <time>2011-09-24T13:11:06Z</time>
      </trkpt>
      <trkpt lat="42.56518" lon="2.06904">
        <ele>1813.871582</ele>
        <time>2011-09-24T13:11:09Z</time>
      </trkpt>
      <trkpt lat="42.56521" lon="2.06912">
        <ele>1813.446777</ele>
        <time>2011-09-24T13:11:11Z</time>
      </trkpt>
      <trkpt lat="42.56525" lon="2.06916">
        <ele>1811.388672</ele>
        <time>2011-09-24T13:11:12Z</time>
      </trkpt>
      <trkpt lat="42.56529" lon="2.06921">
        <ele>1809.776367</ele>
        <time>2011-09-24T13:11:13Z</time>
      </trkpt>
      <trkpt lat="42.56533" lon="2.06927">
        <ele>1809.526611</ele>
        <time>2011-09-24T13:11:15Z</time>
      </trkpt>
      <trkpt lat="42.56537" lon="2.06929">
        <ele>1809.299438</ele>
        <time>2011-09-24T13:11:17Z</time>
      </trkpt>
      <trkpt lat="42.56542" lon="2.06932">
        <ele>1808.948242</ele>
        <time>2011-09-24T13:11:20Z</time>
      </trkpt>
      <trkpt lat="42.56547" lon="2.06934">
        <ele>1808.608765</ele>
        <time>2011-09-24T13:11:22Z</time>
      </trkpt>
      <trkpt lat="42.56551" lon="2.06935">
        <ele>1808.397217</ele>
        <time>2011-09-24T13:11:23Z</time>
      </trkpt>
      <trkpt lat="42.5656" lon="2.06938">
        <ele>1806.129517</ele>
        <time>2011-09-24T13:11:25Z</time>
      </trkpt>
      <trkpt lat="42.56565" lon="2.06941">
        <ele>1805.937256</ele>
        <time>2011-09-24T13:11:26Z</time>
      </trkpt>
      <trkpt lat="42.56569" lon="2.06944">
        <ele>1805.737671</ele>
        <time>2011-09-24T13:11:27Z</time>
      </trkpt>
      <trkpt lat="42.56573" lon="2.06947">
        <ele>1805.539673</ele>
        <time>2011-09-24T13:11:28Z</time>
      </trkpt>
      <trkpt lat="42.56581" lon="2.06952">
        <ele>1805.151489</ele>
        <time>2011-09-24T13:11:30Z</time>
      </trkpt>
      <trkpt lat="42.56586" lon="2.06955">
        <ele>1804.943237</ele>
        <time>2011-09-24T13:11:31Z</time>
      </trkpt>
      <trkpt lat="42.56593" lon="2.06957">
        <ele>1804.511597</ele>
        <time>2011-09-24T13:11:33Z</time>
      </trkpt>
      <trkpt lat="42.56603" lon="2.0696">
        <ele>1802.608276</ele>
        <time>2011-09-24T13:11:35Z</time>
      </trkpt>
      <trkpt lat="42.56609" lon="2.06962">
        <ele>1800.759888</ele>
        <time>2011-09-24T13:11:36Z</time>
      </trkpt>
      <trkpt lat="42.56615" lon="2.06965">
        <ele>1798.738037</ele>
        <time>2011-09-24T13:11:37Z</time>
      </trkpt>
      <trkpt lat="42.56622" lon="2.06967">
        <ele>1796.813721</ele>
        <time>2011-09-24T13:11:38Z</time>
      </trkpt>
      <trkpt lat="42.56629" lon="2.06968">
        <ele>1794.752075</ele>
        <time>2011-09-24T13:11:39Z</time>
      </trkpt>
      <trkpt lat="42.56634" lon="2.06968">
        <ele>1794.592041</ele>
        <time>2011-09-24T13:11:40Z</time>
      </trkpt>
      <trkpt lat="42.5664" lon="2.06968">
        <ele>1794.406006</ele>
        <time>2011-09-24T13:11:41Z</time>
      </trkpt>
      <trkpt lat="42.56646" lon="2.06968">
        <ele>1794.255737</ele>
        <time>2011-09-24T13:11:42Z</time>
      </trkpt>
      <trkpt lat="42.56652" lon="2.06967">
        <ele>1794.101562</ele>
        <time>2011-09-24T13:11:43Z</time>
      </trkpt>
      <trkpt lat="42.56659" lon="2.06967">
        <ele>1791.932251</ele>
        <time>2011-09-24T13:11:44Z</time>
      </trkpt>
      <trkpt lat="42.56665" lon="2.06967">
        <ele>1791.695923</ele>
        <time>2011-09-24T13:11:45Z</time>
      </trkpt>
      <trkpt lat="42.56671" lon="2.06968">
        <ele>1791.467896</ele>
        <time>2011-09-24T13:11:46Z</time>
      </trkpt>
      <trkpt lat="42.56676" lon="2.06969">
        <ele>1791.207153</ele>
        <time>2011-09-24T13:11:47Z</time>
      </trkpt>
      <trkpt lat="42.56682" lon="2.06969">
        <ele>1790.952515</ele>
        <time>2011-09-24T13:11:48Z</time>
      </trkpt>
      <trkpt lat="42.56688" lon="2.06967">
        <ele>1790.683105</ele>
        <time>2011-09-24T13:11:49Z</time>
      </trkpt>
      <trkpt lat="42.56695" lon="2.06966">
        <ele>1790.323608</ele>
        <time>2011-09-24T13:11:50Z</time>
      </trkpt>
      <trkpt lat="42.56704" lon="2.06967">
        <ele>1786.260132</ele>
        <time>2011-09-24T13:11:51Z</time>
      </trkpt>
      <trkpt lat="42.56712" lon="2.06968">
        <ele>1782.273315</ele>
        <time>2011-09-24T13:11:52Z</time>
      </trkpt>
      <trkpt lat="42.5672" lon="2.06969">
        <ele>1778.415894</ele>
        <time>2011-09-24T13:11:53Z</time>
      </trkpt>
      <trkpt lat="42.56728" lon="2.0697">
        <ele>1775.012085</ele>
        <time>2011-09-24T13:11:54Z</time>
      </trkpt>
      <trkpt lat="42.56737" lon="2.0697">
        <ele>1772.601807</ele>
        <time>2011-09-24T13:11:55Z</time>
      </trkpt>
      <trkpt lat="42.56744" lon="2.06969">
        <ele>1770.880981</ele>
        <time>2011-09-24T13:11:56Z</time>
      </trkpt>
      <trkpt lat="42.5675" lon="2.06969">
        <ele>1770.763794</ele>
        <time>2011-09-24T13:11:57Z</time>
      </trkpt>
      <trkpt lat="42.56756" lon="2.06968">
        <ele>1770.650146</ele>
        <time>2011-09-24T13:11:58Z</time>
      </trkpt>
      <trkpt lat="42.56762" lon="2.06967">
        <ele>1769.482788</ele>
        <time>2011-09-24T13:11:59Z</time>
      </trkpt>
      <trkpt lat="42.56766" lon="2.06965">
        <ele>1769.388306</ele>
        <time>2011-09-24T13:12:00Z</time>
      </trkpt>
      <trkpt lat="42.56775" lon="2.06961">
        <ele>1768.467163</ele>
        <time>2011-09-24T13:12:02Z</time>
      </trkpt>
      <trkpt lat="42.5678" lon="2.06959">
        <ele>1767.586914</ele>
        <time>2011-09-24T13:12:03Z</time>
      </trkpt>
      <trkpt lat="42.56785" lon="2.06956">
        <ele>1766.747803</ele>
        <time>2011-09-24T13:12:04Z</time>
      </trkpt>
      <trkpt lat="42.56791" lon="2.06953">
        <ele>1765.997681</ele>
        <time>2011-09-24T13:12:05Z</time>
      </trkpt>
      <trkpt lat="42.56796" lon="2.0695">
        <ele>1765.480347</ele>
        <time>2011-09-24T13:12:06Z</time>
      </trkpt>
      <trkpt lat="42.56802" lon="2.06947">
        <ele>1765.08252</ele>
        <time>2011-09-24T13:12:07Z</time>
      </trkpt>
      <trkpt lat="42.56808" lon="2.06942">
        <ele>1764.676392</ele>
        <time>2011-09-24T13:12:08Z</time>
      </trkpt>
      <trkpt lat="42.56814" lon="2.06939">
        <ele>1764.22229</ele>
        <time>2011-09-24T13:12:09Z</time>
      </trkpt>
      <trkpt lat="42.56822" lon="2.06935">
        <ele>1763.726196</ele>
        <time>2011-09-24T13:12:10Z</time>
      </trkpt>
      <trkpt lat="42.56829" lon="2.06933">
        <ele>1763.160767</ele>
        <time>2011-09-24T13:12:11Z</time>
      </trkpt>
      <trkpt lat="42.56837" lon="2.06932">
        <ele>1762.330811</ele>
        <time>2011-09-24T13:12:12Z</time>
      </trkpt>
      <trkpt lat="42.56846" lon="2.06929">
        <ele>1761.684692</ele>
        <time>2011-09-24T13:12:13Z</time>
      </trkpt>
      <trkpt lat="42.56854" lon="2.06929">
        <ele>1760.933594</ele>
        <time>2011-09-24T13:12:14Z</time>
      </trkpt>
      <trkpt lat="42.56862" lon="2.06932">
        <ele>1759.888672</ele>
        <time>2011-09-24T13:12:15Z</time>
      </trkpt>
      <trkpt lat="42.56869" lon="2.06936">
        <ele>1758.567261</ele>
        <time>2011-09-24T13:12:16Z</time>
      </trkpt>
      <trkpt lat="42.56876" lon="2.0694">
        <ele>1757.199463</ele>
        <time>2011-09-24T13:12:17Z</time>
      </trkpt>
      <trkpt lat="42.56885" lon="2.06941">
        <ele>1755.831665</ele>
        <time>2011-09-24T13:12:18Z</time>
      </trkpt>
      <trkpt lat="42.56892" lon="2.06942">
        <ele>1754.488647</ele>
        <time>2011-09-24T13:12:19Z</time>
      </trkpt>
      <trkpt lat="42.56899" lon="2.06945">
        <ele>1753.149048</ele>
        <time>2011-09-24T13:12:20Z</time>
      </trkpt>
      <trkpt lat="42.56906" lon="2.06945">
        <ele>1751.957031</ele>
        <time>2011-09-24T13:12:21Z</time>
      </trkpt>
      <trkpt lat="42.56914" lon="2.06944">
        <ele>1751.148193</ele>
        <time>2011-09-24T13:12:22Z</time>
      </trkpt>
      <trkpt lat="42.56922" lon="2.06943">
        <ele>1750.477417</ele>
        <time>2011-09-24T13:12:23Z</time>
      </trkpt>
      <trkpt lat="42.5693" lon="2.06941">
        <ele>1749.7771</ele>
        <time>2011-09-24T13:12:24Z</time>
      </trkpt>
      <trkpt lat="42.56938" lon="2.06942">
        <ele>1748.992188</ele>
        <time>2011-09-24T13:12:25Z</time>
      </trkpt>
      <trkpt lat="42.56946" lon="2.06944">
        <ele>1748.060059</ele>
        <time>2011-09-24T13:12:26Z</time>
      </trkpt>
      <trkpt lat="42.56955" lon="2.06945">
        <ele>1746.914307</ele>
        <time>2011-09-24T13:12:27Z</time>
      </trkpt>
      <trkpt lat="42.56963" lon="2.06942">
        <ele>1745.709106</ele>
        <time>2011-09-24T13:12:28Z</time>
      </trkpt>
      <trkpt lat="42.56971" lon="2.06937">
        <ele>1744.582397</ele>
        <time>2011-09-24T13:12:29Z</time>
      </trkpt>
      <trkpt lat="42.56977" lon="2.0693">
        <ele>1743.594238</ele>
        <time>2011-09-24T13:12:30Z</time>
      </trkpt>
      <trkpt lat="42.56982" lon="2.06922">
        <ele>1742.774292</ele>
        <time>2011-09-24T13:12:31Z</time>
      </trkpt>
      <trkpt lat="42.56987" lon="2.06915">
        <ele>1742.078369</ele>
        <time>2011-09-24T13:12:32Z</time>
      </trkpt>
      <trkpt lat="42.56992" lon="2.0691">
        <ele>1741.575073</ele>
        <time>2011-09-24T13:12:33Z</time>
      </trkpt>
      <trkpt lat="42.56997" lon="2.06906">
        <ele>1741.056763</ele>
        <time>2011-09-24T13:12:34Z</time>
      </trkpt>
      <trkpt lat="42.57003" lon="2.06902">
        <ele>1740.554321</ele>
        <time>2011-09-24T13:12:35Z</time>
      </trkpt>
      <trkpt lat="42.57007" lon="2.069">
        <ele>1740.103149</ele>
        <time>2011-09-24T13:12:36Z</time>
      </trkpt>
      <trkpt lat="42.57014" lon="2.06893">
        <ele>1739.562256</ele>
        <time>2011-09-24T13:12:38Z</time>
      </trkpt>
      <trkpt lat="42.57019" lon="2.06886">
        <ele>1739.522827</ele>
        <time>2011-09-24T13:12:41Z</time>
      </trkpt>
      <trkpt lat="42.57022" lon="2.06881">
        <ele>1739.494995</ele>
        <time>2011-09-24T13:12:42Z</time>
      </trkpt>
      <trkpt lat="42.57026" lon="2.06874">
        <ele>1739.465088</ele>
        <time>2011-09-24T13:12:45Z</time>
      </trkpt>
      <trkpt lat="42.57028" lon="2.06868">
        <ele>1739.447388</ele>
        <time>2011-09-24T13:12:48Z</time>
      </trkpt>
      <trkpt lat="42.57032" lon="2.06864">
        <ele>1739.506958</ele>
        <time>2011-09-24T13:12:51Z</time>
      </trkpt>
      <trkpt lat="42.57039" lon="2.0686">
        <ele>1739.621094</ele>
        <time>2011-09-24T13:12:53Z</time>
      </trkpt>
      <trkpt lat="42.57045" lon="2.06857">
        <ele>1740.447144</ele>
        <time>2011-09-24T13:12:54Z</time>
      </trkpt>
      <trkpt lat="42.57053" lon="2.06852">
        <ele>1741.306519</ele>
        <time>2011-09-24T13:12:55Z</time>
      </trkpt>
      <trkpt lat="42.5706" lon="2.06848">
        <ele>1741.81897</ele>
        <time>2011-09-24T13:12:56Z</time>
      </trkpt>
      <trkpt lat="42.57068" lon="2.06844">
        <ele>1742.049316</ele>
        <time>2011-09-24T13:12:57Z</time>
      </trkpt>
      <trkpt lat="42.57077" lon="2.06841">
        <ele>1742.122314</ele>
        <time>2011-09-24T13:12:58Z</time>
      </trkpt>
      <trkpt lat="42.57086" lon="2.06841">
        <ele>1741.554565</ele>
        <time>2011-09-24T13:12:59Z</time>
      </trkpt>
      <trkpt lat="42.57095" lon="2.0684">
        <ele>1741.206665</ele>
        <time>2011-09-24T13:13:00Z</time>
      </trkpt>
      <trkpt lat="42.57105" lon="2.06841">
        <ele>1741.10022</ele>
        <time>2011-09-24T13:13:01Z</time>
      </trkpt>
      <trkpt lat="42.57115" lon="2.06842">
        <ele>1741.076172</ele>
        <time>2011-09-24T13:13:02Z</time>
      </trkpt>
      <trkpt lat="42.57125" lon="2.06844">
        <ele>1740.32605</ele>
        <time>2011-09-24T13:13:03Z</time>
      </trkpt>
      <trkpt lat="42.57134" lon="2.06844">
        <ele>1739.626831</ele>
        <time>2011-09-24T13:13:04Z</time>
      </trkpt>
      <trkpt lat="42.57143" lon="2.06845">
        <ele>1738.942505</ele>
        <time>2011-09-24T13:13:05Z</time>
      </trkpt>
      <trkpt lat="42.57152" lon="2.06846">
        <ele>1738.268066</ele>
        <time>2011-09-24T13:13:06Z</time>
      </trkpt>
      <trkpt lat="42.57159" lon="2.06844">
        <ele>1737.487183</ele>
        <time>2011-09-24T13:13:07Z</time>
      </trkpt>
      <trkpt lat="42.57165" lon="2.06843">
        <ele>1736.795288</ele>
        <time>2011-09-24T13:13:08Z</time>
      </trkpt>
      <trkpt lat="42.57171" lon="2.06843">
        <ele>1736.070557</ele>
        <time>2011-09-24T13:13:09Z</time>
      </trkpt>
      <trkpt lat="42.57177" lon="2.06842">
        <ele>1735.488647</ele>
        <time>2011-09-24T13:13:10Z</time>
      </trkpt>
      <trkpt lat="42.57186" lon="2.06841">
        <ele>1734.342285</ele>
        <time>2011-09-24T13:13:12Z</time>
      </trkpt>
      <trkpt lat="42.57191" lon="2.06839">
        <ele>1734.047729</ele>
        <time>2011-09-24T13:13:13Z</time>
      </trkpt>
      <trkpt lat="42.57196" lon="2.06837">
        <ele>1733.623291</ele>
        <time>2011-09-24T13:13:14Z</time>
      </trkpt>
      <trkpt lat="42.57203" lon="2.06836">
        <ele>1732.762817</ele>
        <time>2011-09-24T13:13:15Z</time>
      </trkpt>
      <trkpt lat="42.57212" lon="2.06835">
        <ele>1731.55542</ele>
        <time>2011-09-24T13:13:16Z</time>
      </trkpt>
      <trkpt lat="42.57224" lon="2.06832">
        <ele>1730.364502</ele>
        <time>2011-09-24T13:13:17Z</time>
      </trkpt>
      <trkpt lat="42.57235" lon="2.06831">
        <ele>1729.321899</ele>
        <time>2011-09-24T13:13:18Z</time>
      </trkpt>
      <trkpt lat="42.57246" lon="2.06829">
        <ele>1728.16626</ele>
        <time>2011-09-24T13:13:19Z</time>
      </trkpt>
      <trkpt lat="42.57255" lon="2.06827">
        <ele>1727.225342</ele>
        <time>2011-09-24T13:13:20Z</time>
      </trkpt>
      <trkpt lat="42.57264" lon="2.06826">
        <ele>1726.356079</ele>
        <time>2011-09-24T13:13:21Z</time>
      </trkpt>
      <trkpt lat="42.57272" lon="2.06825">
        <ele>1725.614624</ele>
        <time>2011-09-24T13:13:22Z</time>
      </trkpt>
      <trkpt lat="42.57281" lon="2.06823">
        <ele>1725.00061</ele>
        <time>2011-09-24T13:13:23Z</time>
      </trkpt>
      <trkpt lat="42.57287" lon="2.06821">
        <ele>1724.70752</ele>
        <time>2011-09-24T13:13:24Z</time>
      </trkpt>
      <trkpt lat="42.573" lon="2.06813">
        <ele>1724.69104</ele>
        <time>2011-09-24T13:13:26Z</time>
      </trkpt>
      <trkpt lat="42.57307" lon="2.0681">
        <ele>1724.525146</ele>
        <time>2011-09-24T13:13:27Z</time>
      </trkpt>
      <trkpt lat="42.57315" lon="2.06808">
        <ele>1723.280029</ele>
        <time>2011-09-24T13:13:28Z</time>
      </trkpt>
      <trkpt lat="42.57322" lon="2.06805">
        <ele>1722.001099</ele>
        <time>2011-09-24T13:13:29Z</time>
      </trkpt>
      <trkpt lat="42.57331" lon="2.06801">
        <ele>1720.516602</ele>
        <time>2011-09-24T13:13:30Z</time>
      </trkpt>
      <trkpt lat="42.57339" lon="2.06798">
        <ele>1718.822021</ele>
        <time>2011-09-24T13:13:31Z</time>
      </trkpt>
      <trkpt lat="42.57348" lon="2.06795">
        <ele>1717.084961</ele>
        <time>2011-09-24T13:13:32Z</time>
      </trkpt>
      <trkpt lat="42.57356" lon="2.06793">
        <ele>1715.55249</ele>
        <time>2011-09-24T13:13:33Z</time>
      </trkpt>
      <trkpt lat="42.57363" lon="2.06792">
        <ele>1714.185547</ele>
        <time>2011-09-24T13:13:34Z</time>
      </trkpt>
      <trkpt lat="42.57371" lon="2.06792">
        <ele>1712.841187</ele>
        <time>2011-09-24T13:13:35Z</time>
      </trkpt>
      <trkpt lat="42.57379" lon="2.06792">
        <ele>1711.755249</ele>
        <time>2011-09-24T13:13:36Z</time>
      </trkpt>
      <trkpt lat="42.57386" lon="2.06791">
        <ele>1710.686768</ele>
        <time>2011-09-24T13:13:37Z</time>
      </trkpt>
      <trkpt lat="42.57394" lon="2.06792">
        <ele>1709.493652</ele>
        <time>2011-09-24T13:13:38Z</time>
      </trkpt>
      <trkpt lat="42.57404" lon="2.06793">
        <ele>1708.150024</ele>
        <time>2011-09-24T13:13:39Z</time>
      </trkpt>
      <trkpt lat="42.57413" lon="2.06795">
        <ele>1706.731812</ele>
        <time>2011-09-24T13:13:40Z</time>
      </trkpt>
      <trkpt lat="42.57423" lon="2.06796">
        <ele>1705.378052</ele>
        <time>2011-09-24T13:13:41Z</time>
      </trkpt>
      <trkpt lat="42.57433" lon="2.06794">
        <ele>1704.12793</ele>
        <time>2011-09-24T13:13:42Z</time>
      </trkpt>
      <trkpt lat="42.57441" lon="2.06788">
        <ele>1702.92041</ele>
        <time>2011-09-24T13:13:43Z</time>
      </trkpt>
      <trkpt lat="42.57447" lon="2.0678">
        <ele>1701.831055</ele>
        <time>2011-09-24T13:13:44Z</time>
      </trkpt>
      <trkpt lat="42.57454" lon="2.06772">
        <ele>1700.822266</ele>
        <time>2011-09-24T13:13:45Z</time>
      </trkpt>
      <trkpt lat="42.57458" lon="2.0677">
        <ele>1700.033813</ele>
        <time>2011-09-24T13:13:46Z</time>
      </trkpt>
      <trkpt lat="42.57463" lon="2.06767">
        <ele>1699.447144</ele>
        <time>2011-09-24T13:13:47Z</time>
      </trkpt>
      <trkpt lat="42.57468" lon="2.06765">
        <ele>1698.2854</ele>
        <time>2011-09-24T13:14:03Z</time>
      </trkpt>
      <trkpt lat="42.57475" lon="2.06767">
        <ele>1696.622925</ele>
        <time>2011-09-24T13:14:24Z</time>
      </trkpt>
      <trkpt lat="42.57482" lon="2.06767">
        <ele>1694.156738</ele>
        <time>2011-09-24T13:14:26Z</time>
      </trkpt>
      <trkpt lat="42.57491" lon="2.06767">
        <ele>1690.931763</ele>
        <time>2011-09-24T13:14:28Z</time>
      </trkpt>
      <trkpt lat="42.57499" lon="2.06767">
        <ele>1688.86853</ele>
        <time>2011-09-24T13:14:30Z</time>
      </trkpt>
      <trkpt lat="42.57504" lon="2.06767">
        <ele>1688.15625</ele>
        <time>2011-09-24T13:14:31Z</time>
      </trkpt>
      <trkpt lat="42.57509" lon="2.06767">
        <ele>1687.59314</ele>
        <time>2011-09-24T13:14:32Z</time>
      </trkpt>
      <trkpt lat="42.57514" lon="2.06767">
        <ele>1687.184692</ele>
        <time>2011-09-24T13:14:33Z</time>
      </trkpt>
      <trkpt lat="42.57518" lon="2.06769">
        <ele>1686.942749</ele>
        <time>2011-09-24T13:14:34Z</time>
      </trkpt>
      <trkpt lat="42.57523" lon="2.06771">
        <ele>1686.829834</ele>
        <time>2011-09-24T13:14:35Z</time>
      </trkpt>
      <trkpt lat="42.57528" lon="2.06775">
        <ele>1686.789307</ele>
        <time>2011-09-24T13:14:36Z</time>
      </trkpt>
      <trkpt lat="42.57534" lon="2.0678">
        <ele>1686.636475</ele>
        <time>2011-09-24T13:14:37Z</time>
      </trkpt>
      <trkpt lat="42.57538" lon="2.06784">
        <ele>1686.366333</ele>
        <time>2011-09-24T13:14:38Z</time>
      </trkpt>
      <trkpt lat="42.57543" lon="2.0679">
        <ele>1685.719482</ele>
        <time>2011-09-24T13:14:39Z</time>
      </trkpt>
      <trkpt lat="42.57545" lon="2.06796">
        <ele>1684.786743</ele>
        <time>2011-09-24T13:14:40Z</time>
      </trkpt>
      <trkpt lat="42.57546" lon="2.06804">
        <ele>1683.878662</ele>
        <time>2011-09-24T13:14:41Z</time>
      </trkpt>
      <trkpt lat="42.57542" lon="2.06811">
        <ele>1683.084717</ele>
        <time>2011-09-24T13:14:42Z</time>
      </trkpt>
      <trkpt lat="42.57536" lon="2.06815">
        <ele>1682.384277</ele>
        <time>2011-09-24T13:14:43Z</time>
      </trkpt>
      <trkpt lat="42.57528" lon="2.06821">
        <ele>1681.665039</ele>
        <time>2011-09-24T13:14:44Z</time>
      </trkpt>
      <trkpt lat="42.5752" lon="2.06828">
        <ele>1680.878662</ele>
        <time>2011-09-24T13:14:45Z</time>
      </trkpt>
      <trkpt lat="42.57514" lon="2.06838">
        <ele>1679.879639</ele>
        <time>2011-09-24T13:14:46Z</time>
      </trkpt>
      <trkpt lat="42.57509" lon="2.06851">
        <ele>1678.707764</ele>
        <time>2011-09-24T13:14:47Z</time>
      </trkpt>
      <trkpt lat="42.57504" lon="2.06863">
        <ele>1677.574585</ele>
        <time>2011-09-24T13:14:48Z</time>
      </trkpt>
      <trkpt lat="42.57499" lon="2.06877">
        <ele>1676.592896</ele>
        <time>2011-09-24T13:14:49Z</time>
      </trkpt>
      <trkpt lat="42.57496" lon="2.06888">
        <ele>1675.931885</ele>
        <time>2011-09-24T13:14:50Z</time>
      </trkpt>
      <trkpt lat="42.57495" lon="2.06895">
        <ele>1675.379395</ele>
        <time>2011-09-24T13:14:51Z</time>
      </trkpt>
      <trkpt lat="42.57493" lon="2.06903">
        <ele>1674.925781</ele>
        <time>2011-09-24T13:14:53Z</time>
      </trkpt>
      <trkpt lat="42.5749" lon="2.06911">
        <ele>1674.774658</ele>
        <time>2011-09-24T13:14:56Z</time>
      </trkpt>
      <trkpt lat="42.57488" lon="2.06917">
        <ele>1674.593994</ele>
        <time>2011-09-24T13:14:58Z</time>
      </trkpt>
      <trkpt lat="42.57484" lon="2.06917">
        <ele>1673.338135</ele>
        <time>2011-09-24T13:15:04Z</time>
      </trkpt>
      <trkpt lat="42.57487" lon="2.06923">
        <ele>1671.841675</ele>
        <time>2011-09-24T13:15:31Z</time>
      </trkpt>
      <trkpt lat="42.57482" lon="2.06906">
        <ele>1670.287109</ele>
        <time>2011-09-24T13:16:21Z</time>
      </trkpt>
      <trkpt lat="42.5748" lon="2.06899">
        <ele>1670.015625</ele>
        <time>2011-09-24T13:16:22Z</time>
      </trkpt>
      <trkpt lat="42.57479" lon="2.06893">
        <ele>1669.760254</ele>
        <time>2011-09-24T13:16:23Z</time>
      </trkpt>
      <trkpt lat="42.57477" lon="2.06882">
        <ele>1669.257202</ele>
        <time>2011-09-24T13:16:25Z</time>
      </trkpt>
      <trkpt lat="42.57476" lon="2.06868">
        <ele>1668.457886</ele>
        <time>2011-09-24T13:16:28Z</time>
      </trkpt>
      <trkpt lat="42.57476" lon="2.06859">
        <ele>1667.888062</ele>
        <time>2011-09-24T13:16:30Z</time>
      </trkpt>
      <trkpt lat="42.57477" lon="2.0685">
        <ele>1667.288818</ele>
        <time>2011-09-24T13:16:32Z</time>
      </trkpt>
      <trkpt lat="42.57477" lon="2.0684">
        <ele>1666.746338</ele>
        <time>2011-09-24T13:16:34Z</time>
      </trkpt>
      <trkpt lat="42.57476" lon="2.06833">
        <ele>1666.237061</ele>
        <time>2011-09-24T13:16:36Z</time>
      </trkpt>
      <trkpt lat="42.57475" lon="2.06825">
        <ele>1665.780029</ele>
        <time>2011-09-24T13:16:38Z</time>
      </trkpt>
      <trkpt lat="42.57474" lon="2.06819">
        <ele>1665.355591</ele>
        <time>2011-09-24T13:16:40Z</time>
      </trkpt>
      <trkpt lat="42.57473" lon="2.06809">
        <ele>1664.779785</ele>
        <time>2011-09-24T13:16:43Z</time>
      </trkpt>
      <trkpt lat="42.57472" lon="2.06801">
        <ele>1664.493774</ele>
        <time>2011-09-24T13:16:45Z</time>
      </trkpt>
      <trkpt lat="42.57471" lon="2.06791">
        <ele>1664.315674</ele>
        <time>2011-09-24T13:16:47Z</time>
      </trkpt>
      <trkpt lat="42.5747" lon="2.06781">
        <ele>1664.282104</ele>
        <time>2011-09-24T13:16:49Z</time>
      </trkpt>
      <trkpt lat="42.57468" lon="2.06772">
        <ele>1664.276611</ele>
        <time>2011-09-24T13:16:51Z</time>
      </trkpt>
      <trkpt lat="42.57468" lon="2.06763">
        <ele>1664.409058</ele>
        <time>2011-09-24T13:16:53Z</time>
      </trkpt>
      <trkpt lat="42.57467" lon="2.06755">
        <ele>1664.666382</ele>
        <time>2011-09-24T13:16:55Z</time>
      </trkpt>
      <trkpt lat="42.57467" lon="2.06746">
        <ele>1665.037476</ele>
        <time>2011-09-24T13:16:57Z</time>
      </trkpt>
      <trkpt lat="42.57467" lon="2.06738">
        <ele>1665.518555</ele>
        <time>2011-09-24T13:16:59Z</time>
      </trkpt>
      <trkpt lat="42.57466" lon="2.0673">
        <ele>1666.117798</ele>
        <time>2011-09-24T13:17:01Z</time>
      </trkpt>
      <trkpt lat="42.57464" lon="2.06723">
        <ele>1666.765137</ele>
        <time>2011-09-24T13:17:03Z</time>
      </trkpt>
      <trkpt lat="42.57461" lon="2.06717">
        <ele>1667.426636</ele>
        <time>2011-09-24T13:17:05Z</time>
      </trkpt>
      <trkpt lat="42.5746" lon="2.06711">
        <ele>1668.088867</ele>
        <time>2011-09-24T13:17:07Z</time>
      </trkpt>
      <trkpt lat="42.57458" lon="2.06703">
        <ele>1668.75061</ele>
        <time>2011-09-24T13:17:09Z</time>
      </trkpt>
      <trkpt lat="42.57457" lon="2.06695">
        <ele>1669.420776</ele>
        <time>2011-09-24T13:17:11Z</time>
      </trkpt>
      <trkpt lat="42.57455" lon="2.06687">
        <ele>1670.096313</ele>
        <time>2011-09-24T13:17:13Z</time>
      </trkpt>
      <trkpt lat="42.57454" lon="2.06679">
        <ele>1670.775391</ele>
        <time>2011-09-24T13:17:15Z</time>
      </trkpt>
      <trkpt lat="42.57453" lon="2.06672">
        <ele>1671.47229</ele>
        <time>2011-09-24T13:17:17Z</time>
      </trkpt>
      <trkpt lat="42.57452" lon="2.06664">
        <ele>1672.177856</ele>
        <time>2011-09-24T13:17:19Z</time>
      </trkpt>
      <trkpt lat="42.57451" lon="2.06656">
        <ele>1672.880127</ele>
        <time>2011-09-24T13:17:21Z</time>
      </trkpt>
      <trkpt lat="42.5745" lon="2.06649">
        <ele>1673.566162</ele>
        <time>2011-09-24T13:17:23Z</time>
      </trkpt>
      <trkpt lat="42.57449" lon="2.06641">
        <ele>1674.245728</ele>
        <time>2011-09-24T13:17:25Z</time>
      </trkpt>
      <trkpt lat="42.57449" lon="2.06633">
        <ele>1674.936401</ele>
        <time>2011-09-24T13:17:27Z</time>
      </trkpt>
      <trkpt lat="42.57448" lon="2.06624">
        <ele>1675.675049</ele>
        <time>2011-09-24T13:17:29Z</time>
      </trkpt>
      <trkpt lat="42.57447" lon="2.06614">
        <ele>1676.470581</ele>
        <time>2011-09-24T13:17:31Z</time>
      </trkpt>
      <trkpt lat="42.57446" lon="2.06605">
        <ele>1677.313843</ele>
        <time>2011-09-24T13:17:33Z</time>
      </trkpt>
      <trkpt lat="42.57446" lon="2.06593">
        <ele>1678.455688</ele>
        <time>2011-09-24T13:17:35Z</time>
      </trkpt>
      <trkpt lat="42.57446" lon="2.06585">
        <ele>1679.262451</ele>
        <time>2011-09-24T13:17:36Z</time>
      </trkpt>
      <trkpt lat="42.57444" lon="2.06573">
        <ele>1680.959961</ele>
        <time>2011-09-24T13:17:38Z</time>
      </trkpt>
      <trkpt lat="42.57443" lon="2.06567">
        <ele>1681.865112</ele>
        <time>2011-09-24T13:17:39Z</time>
      </trkpt>
      <trkpt lat="42.57442" lon="2.0656">
        <ele>1682.790527</ele>
        <time>2011-09-24T13:17:40Z</time>
      </trkpt>
      <trkpt lat="42.5744" lon="2.06551">
        <ele>1684.630737</ele>
        <time>2011-09-24T13:17:42Z</time>
      </trkpt>
      <trkpt lat="42.57438" lon="2.06542">
        <ele>1686.499268</ele>
        <time>2011-09-24T13:17:44Z</time>
      </trkpt>
      <trkpt lat="42.57436" lon="2.06531">
        <ele>1688.466919</ele>
        <time>2011-09-24T13:17:46Z</time>
      </trkpt>
      <trkpt lat="42.57435" lon="2.06523">
        <ele>1690.469482</ele>
        <time>2011-09-24T13:17:48Z</time>
      </trkpt>
      <trkpt lat="42.57433" lon="2.06513">
        <ele>1692.470825</ele>
        <time>2011-09-24T13:17:50Z</time>
      </trkpt>
      <trkpt lat="42.57432" lon="2.06506">
        <ele>1694.443726</ele>
        <time>2011-09-24T13:17:52Z</time>
      </trkpt>
      <trkpt lat="42.57432" lon="2.06499">
        <ele>1696.428101</ele>
        <time>2011-09-24T13:17:54Z</time>
      </trkpt>
      <trkpt lat="42.57431" lon="2.06491">
        <ele>1698.404297</ele>
        <time>2011-09-24T13:17:56Z</time>
      </trkpt>
      <trkpt lat="42.5743" lon="2.06483">
        <ele>1700.369873</ele>
        <time>2011-09-24T13:17:58Z</time>
      </trkpt>
      <trkpt lat="42.57429" lon="2.06475">
        <ele>1702.317505</ele>
        <time>2011-09-24T13:18:00Z</time>
      </trkpt>
      <trkpt lat="42.57427" lon="2.06468">
        <ele>1704.256836</ele>
        <time>2011-09-24T13:18:02Z</time>
      </trkpt>
      <trkpt lat="42.57426" lon="2.0646">
        <ele>1706.258301</ele>
        <time>2011-09-24T13:18:04Z</time>
      </trkpt>
      <trkpt lat="42.57425" lon="2.06452">
        <ele>1708.297485</ele>
        <time>2011-09-24T13:18:06Z</time>
      </trkpt>
      <trkpt lat="42.57424" lon="2.06443">
        <ele>1710.3479</ele>
        <time>2011-09-24T13:18:08Z</time>
      </trkpt>
      <trkpt lat="42.57423" lon="2.06435">
        <ele>1712.472656</ele>
        <time>2011-09-24T13:18:10Z</time>
      </trkpt>
      <trkpt lat="42.57422" lon="2.06425">
        <ele>1714.612793</ele>
        <time>2011-09-24T13:18:12Z</time>
      </trkpt>
      <trkpt lat="42.57421" lon="2.06416">
        <ele>1716.765137</ele>
        <time>2011-09-24T13:18:14Z</time>
      </trkpt>
      <trkpt lat="42.57419" lon="2.06407">
        <ele>1718.93335</ele>
        <time>2011-09-24T13:18:16Z</time>
      </trkpt>
      <trkpt lat="42.57418" lon="2.06398">
        <ele>1721.121216</ele>
        <time>2011-09-24T13:18:18Z</time>
      </trkpt>
      <trkpt lat="42.57416" lon="2.06389">
        <ele>1723.318359</ele>
        <time>2011-09-24T13:18:20Z</time>
      </trkpt>
      <trkpt lat="42.57414" lon="2.0638">
        <ele>1725.539673</ele>
        <time>2011-09-24T13:18:22Z</time>
      </trkpt>
      <trkpt lat="42.57412" lon="2.06371">
        <ele>1727.768921</ele>
        <time>2011-09-24T13:18:24Z</time>
      </trkpt>
      <trkpt lat="42.57411" lon="2.06362">
        <ele>1729.973022</ele>
        <time>2011-09-24T13:18:26Z</time>
      </trkpt>
      <trkpt lat="42.57409" lon="2.06353">
        <ele>1732.117065</ele>
        <time>2011-09-24T13:18:28Z</time>
      </trkpt>
      <trkpt lat="42.57408" lon="2.06345">
        <ele>1734.251953</ele>
        <time>2011-09-24T13:18:30Z</time>
      </trkpt>
      <trkpt lat="42.57408" lon="2.06335">
        <ele>1736.364746</ele>
        <time>2011-09-24T13:18:32Z</time>
      </trkpt>
      <trkpt lat="42.57407" lon="2.06326">
        <ele>1738.437622</ele>
        <time>2011-09-24T13:18:34Z</time>
      </trkpt>
      <trkpt lat="42.57406" lon="2.06318">
        <ele>1740.506836</ele>
        <time>2011-09-24T13:18:36Z</time>
      </trkpt>
      <trkpt lat="42.57405" lon="2.0631">
        <ele>1742.555908</ele>
        <time>2011-09-24T13:18:38Z</time>
      </trkpt>
      <trkpt lat="42.57404" lon="2.06301">
        <ele>1744.569336</ele>
        <time>2011-09-24T13:18:40Z</time>
      </trkpt>
      <trkpt lat="42.57403" lon="2.06293">
        <ele>1746.562988</ele>
        <time>2011-09-24T13:18:42Z</time>
      </trkpt>
      <trkpt lat="42.57402" lon="2.06285">
        <ele>1748.514771</ele>
        <time>2011-09-24T13:18:44Z</time>
      </trkpt>
      <trkpt lat="42.57401" lon="2.06276">
        <ele>1750.404663</ele>
        <time>2011-09-24T13:18:46Z</time>
      </trkpt>
      <trkpt lat="42.574" lon="2.06267">
        <ele>1752.301025</ele>
        <time>2011-09-24T13:18:48Z</time>
      </trkpt>
      <trkpt lat="42.57399" lon="2.06258">
        <ele>1754.152588</ele>
        <time>2011-09-24T13:18:50Z</time>
      </trkpt>
      <trkpt lat="42.57398" lon="2.06249">
        <ele>1755.967773</ele>
        <time>2011-09-24T13:18:52Z</time>
      </trkpt>
      <trkpt lat="42.57396" lon="2.06241">
        <ele>1757.738892</ele>
        <time>2011-09-24T13:18:54Z</time>
      </trkpt>
      <trkpt lat="42.57394" lon="2.06232">
        <ele>1759.481812</ele>
        <time>2011-09-24T13:18:56Z</time>
      </trkpt>
      <trkpt lat="42.57393" lon="2.06223">
        <ele>1761.246948</ele>
        <time>2011-09-24T13:18:58Z</time>
      </trkpt>
      <trkpt lat="42.57392" lon="2.06213">
        <ele>1763.055298</ele>
        <time>2011-09-24T13:19:00Z</time>
      </trkpt>
      <trkpt lat="42.57391" lon="2.06204">
        <ele>1764.983398</ele>
        <time>2011-09-24T13:19:02Z</time>
      </trkpt>
      <trkpt lat="42.5739" lon="2.06195">
        <ele>1766.966187</ele>
        <time>2011-09-24T13:19:04Z</time>
      </trkpt>
      <trkpt lat="42.57388" lon="2.06187">
        <ele>1768.968628</ele>
        <time>2011-09-24T13:19:06Z</time>
      </trkpt>
      <trkpt lat="42.57386" lon="2.06179">
        <ele>1770.979004</ele>
        <time>2011-09-24T13:19:08Z</time>
      </trkpt>
      <trkpt lat="42.57385" lon="2.06171">
        <ele>1772.964355</ele>
        <time>2011-09-24T13:19:10Z</time>
      </trkpt>
      <trkpt lat="42.57384" lon="2.06162">
        <ele>1774.943726</ele>
        <time>2011-09-24T13:19:12Z</time>
      </trkpt>
      <trkpt lat="42.57382" lon="2.06153">
        <ele>1776.917847</ele>
        <time>2011-09-24T13:19:14Z</time>
      </trkpt>
      <trkpt lat="42.57381" lon="2.06144">
        <ele>1778.921753</ele>
        <time>2011-09-24T13:19:16Z</time>
      </trkpt>
      <trkpt lat="42.5738" lon="2.06135">
        <ele>1780.989746</ele>
        <time>2011-09-24T13:19:18Z</time>
      </trkpt>
      <trkpt lat="42.57379" lon="2.06126">
        <ele>1783.134399</ele>
        <time>2011-09-24T13:19:20Z</time>
      </trkpt>
      <trkpt lat="42.57377" lon="2.06118">
        <ele>1785.352295</ele>
        <time>2011-09-24T13:19:22Z</time>
      </trkpt>
      <trkpt lat="42.57376" lon="2.06111">
        <ele>1787.613403</ele>
        <time>2011-09-24T13:19:24Z</time>
      </trkpt>
      <trkpt lat="42.57375" lon="2.06103">
        <ele>1789.913574</ele>
        <time>2011-09-24T13:19:26Z</time>
      </trkpt>
      <trkpt lat="42.57373" lon="2.06096">
        <ele>1792.231812</ele>
        <time>2011-09-24T13:19:28Z</time>
      </trkpt>
      <trkpt lat="42.57372" lon="2.06088">
        <ele>1794.609741</ele>
        <time>2011-09-24T13:19:30Z</time>
      </trkpt>
      <trkpt lat="42.57371" lon="2.06079">
        <ele>1796.987183</ele>
        <time>2011-09-24T13:19:32Z</time>
      </trkpt>
      <trkpt lat="42.57371" lon="2.0607">
        <ele>1799.419678</ele>
        <time>2011-09-24T13:19:34Z</time>
      </trkpt>
      <trkpt lat="42.5737" lon="2.06061">
        <ele>1801.814819</ele>
        <time>2011-09-24T13:19:36Z</time>
      </trkpt>
      <trkpt lat="42.57369" lon="2.06052">
        <ele>1804.176636</ele>
        <time>2011-09-24T13:19:38Z</time>
      </trkpt>
      <trkpt lat="42.57369" lon="2.06044">
        <ele>1806.614502</ele>
        <time>2011-09-24T13:19:40Z</time>
      </trkpt>
      <trkpt lat="42.57368" lon="2.06037">
        <ele>1809.129883</ele>
        <time>2011-09-24T13:19:42Z</time>
      </trkpt>
      <trkpt lat="42.57366" lon="2.06028">
        <ele>1811.673218</ele>
        <time>2011-09-24T13:19:44Z</time>
      </trkpt>
      <trkpt lat="42.57365" lon="2.06019">
        <ele>1814.203979</ele>
        <time>2011-09-24T13:19:46Z</time>
      </trkpt>
      <trkpt lat="42.57363" lon="2.06011">
        <ele>1816.687622</ele>
        <time>2011-09-24T13:19:48Z</time>
      </trkpt>
      <trkpt lat="42.57362" lon="2.06003">
        <ele>1819.158447</ele>
        <time>2011-09-24T13:19:50Z</time>
      </trkpt>
      <trkpt lat="42.57361" lon="2.05994">
        <ele>1821.644043</ele>
        <time>2011-09-24T13:19:52Z</time>
      </trkpt>
      <trkpt lat="42.5736" lon="2.05985">
        <ele>1824.168335</ele>
        <time>2011-09-24T13:19:54Z</time>
      </trkpt>
      <trkpt lat="42.57359" lon="2.05978">
        <ele>1826.689453</ele>
        <time>2011-09-24T13:19:56Z</time>
      </trkpt>
      <trkpt lat="42.57357" lon="2.0597">
        <ele>1829.192871</ele>
        <time>2011-09-24T13:19:58Z</time>
      </trkpt>
      <trkpt lat="42.57357" lon="2.05966">
        <ele>1830.444336</ele>
        <time>2011-09-24T13:19:59Z</time>
      </trkpt>
      <trkpt lat="42.57356" lon="2.05957">
        <ele>1832.916016</ele>
        <time>2011-09-24T13:20:01Z</time>
      </trkpt>
      <trkpt lat="42.57355" lon="2.05947">
        <ele>1835.348755</ele>
        <time>2011-09-24T13:20:03Z</time>
      </trkpt>
      <trkpt lat="42.57354" lon="2.05938">
        <ele>1837.755249</ele>
        <time>2011-09-24T13:20:05Z</time>
      </trkpt>
      <trkpt lat="42.57352" lon="2.0593">
        <ele>1840.18457</ele>
        <time>2011-09-24T13:20:07Z</time>
      </trkpt>
      <trkpt lat="42.57351" lon="2.05922">
        <ele>1842.685669</ele>
        <time>2011-09-24T13:20:09Z</time>
      </trkpt>
      <trkpt lat="42.5735" lon="2.05914">
        <ele>1845.256958</ele>
        <time>2011-09-24T13:20:11Z</time>
      </trkpt>
      <trkpt lat="42.57349" lon="2.05907">
        <ele>1847.792114</ele>
        <time>2011-09-24T13:20:13Z</time>
      </trkpt>
      <trkpt lat="42.57348" lon="2.05898">
        <ele>1850.328735</ele>
        <time>2011-09-24T13:20:15Z</time>
      </trkpt>
      <trkpt lat="42.57347" lon="2.0589">
        <ele>1852.938965</ele>
        <time>2011-09-24T13:20:17Z</time>
      </trkpt>
      <trkpt lat="42.57346" lon="2.05882">
        <ele>1855.611084</ele>
        <time>2011-09-24T13:20:19Z</time>
      </trkpt>
      <trkpt lat="42.57344" lon="2.05874">
        <ele>1858.453857</ele>
        <time>2011-09-24T13:20:21Z</time>
      </trkpt>
      <trkpt lat="42.57343" lon="2.05866">
        <ele>1861.312378</ele>
        <time>2011-09-24T13:20:23Z</time>
      </trkpt>
      <trkpt lat="42.57342" lon="2.05859">
        <ele>1864.244995</ele>
        <time>2011-09-24T13:20:25Z</time>
      </trkpt>
      <trkpt lat="42.57341" lon="2.05852">
        <ele>1867.214233</ele>
        <time>2011-09-24T13:20:27Z</time>
      </trkpt>
      <trkpt lat="42.57341" lon="2.05843">
        <ele>1870.220215</ele>
        <time>2011-09-24T13:20:29Z</time>
      </trkpt>
      <trkpt lat="42.57341" lon="2.05835">
        <ele>1873.247314</ele>
        <time>2011-09-24T13:20:31Z</time>
      </trkpt>
      <trkpt lat="42.5734" lon="2.05826">
        <ele>1876.24939</ele>
        <time>2011-09-24T13:20:33Z</time>
      </trkpt>
      <trkpt lat="42.5734" lon="2.05818">
        <ele>1879.214966</ele>
        <time>2011-09-24T13:20:35Z</time>
      </trkpt>
      <trkpt lat="42.57339" lon="2.05809">
        <ele>1882.160767</ele>
        <time>2011-09-24T13:20:37Z</time>
      </trkpt>
      <trkpt lat="42.57337" lon="2.05801">
        <ele>1885.102295</ele>
        <time>2011-09-24T13:20:39Z</time>
      </trkpt>
      <trkpt lat="42.57335" lon="2.05794">
        <ele>1888.002563</ele>
        <time>2011-09-24T13:20:41Z</time>
      </trkpt>
      <trkpt lat="42.57334" lon="2.05786">
        <ele>1890.868896</ele>
        <time>2011-09-24T13:20:43Z</time>
      </trkpt>
      <trkpt lat="42.57333" lon="2.05778">
        <ele>1893.735107</ele>
        <time>2011-09-24T13:20:45Z</time>
      </trkpt>
      <trkpt lat="42.57332" lon="2.0577">
        <ele>1896.638184</ele>
        <time>2011-09-24T13:20:47Z</time>
      </trkpt>
      <trkpt lat="42.5733" lon="2.05762">
        <ele>1899.540405</ele>
        <time>2011-09-24T13:20:49Z</time>
      </trkpt>
      <trkpt lat="42.57329" lon="2.05754">
        <ele>1902.522827</ele>
        <time>2011-09-24T13:20:51Z</time>
      </trkpt>
      <trkpt lat="42.57328" lon="2.05745">
        <ele>1905.532227</ele>
        <time>2011-09-24T13:20:53Z</time>
      </trkpt>
      <trkpt lat="42.57327" lon="2.05737">
        <ele>1908.555786</ele>
        <time>2011-09-24T13:20:55Z</time>
      </trkpt>
      <trkpt lat="42.57326" lon="2.05728">
        <ele>1911.558594</ele>
        <time>2011-09-24T13:20:57Z</time>
      </trkpt>
      <trkpt lat="42.57325" lon="2.05719">
        <ele>1914.574097</ele>
        <time>2011-09-24T13:20:59Z</time>
      </trkpt>
      <trkpt lat="42.57324" lon="2.05709">
        <ele>1917.599365</ele>
        <time>2011-09-24T13:21:01Z</time>
      </trkpt>
      <trkpt lat="42.57322" lon="2.057">
        <ele>1920.605835</ele>
        <time>2011-09-24T13:21:03Z</time>
      </trkpt>
      <trkpt lat="42.57321" lon="2.05692">
        <ele>1923.634888</ele>
        <time>2011-09-24T13:21:05Z</time>
      </trkpt>
      <trkpt lat="42.57319" lon="2.05685">
        <ele>1926.658203</ele>
        <time>2011-09-24T13:21:07Z</time>
      </trkpt>
      <trkpt lat="42.57317" lon="2.05677">
        <ele>1929.709839</ele>
        <time>2011-09-24T13:21:09Z</time>
      </trkpt>
      <trkpt lat="42.57317" lon="2.05668">
        <ele>1932.806396</ele>
        <time>2011-09-24T13:21:11Z</time>
      </trkpt>
      <trkpt lat="42.57316" lon="2.0566">
        <ele>1935.922852</ele>
        <time>2011-09-24T13:21:13Z</time>
      </trkpt>
      <trkpt lat="42.57315" lon="2.05652">
        <ele>1939.040527</ele>
        <time>2011-09-24T13:21:15Z</time>
      </trkpt>
      <trkpt lat="42.57314" lon="2.05644">
        <ele>1942.108154</ele>
        <time>2011-09-24T13:21:17Z</time>
      </trkpt>
      <trkpt lat="42.57312" lon="2.05636">
        <ele>1945.154663</ele>
        <time>2011-09-24T13:21:19Z</time>
      </trkpt>
      <trkpt lat="42.57311" lon="2.05629">
        <ele>1948.203369</ele>
        <time>2011-09-24T13:21:21Z</time>
      </trkpt>
      <trkpt lat="42.5731" lon="2.05622">
        <ele>1951.232788</ele>
        <time>2011-09-24T13:21:23Z</time>
      </trkpt>
      <trkpt lat="42.57309" lon="2.05614">
        <ele>1954.245483</ele>
        <time>2011-09-24T13:21:25Z</time>
      </trkpt>
      <trkpt lat="42.57308" lon="2.05605">
        <ele>1957.410645</ele>
        <time>2011-09-24T13:21:27Z</time>
      </trkpt>
      <trkpt lat="42.57307" lon="2.05594">
        <ele>1960.611816</ele>
        <time>2011-09-24T13:21:29Z</time>
      </trkpt>
      <trkpt lat="42.57306" lon="2.0559">
        <ele>1962.228516</ele>
        <time>2011-09-24T13:21:30Z</time>
      </trkpt>
      <trkpt lat="42.57304" lon="2.0558">
        <ele>1965.485718</ele>
        <time>2011-09-24T13:21:32Z</time>
      </trkpt>
      <trkpt lat="42.57302" lon="2.0557">
        <ele>1968.697632</ele>
        <time>2011-09-24T13:21:34Z</time>
      </trkpt>
      <trkpt lat="42.573" lon="2.05561">
        <ele>1971.820312</ele>
        <time>2011-09-24T13:21:36Z</time>
      </trkpt>
      <trkpt lat="42.57299" lon="2.05552">
        <ele>1974.866699</ele>
        <time>2011-09-24T13:21:38Z</time>
      </trkpt>
      <trkpt lat="42.57298" lon="2.05543">
        <ele>1977.869263</ele>
        <time>2011-09-24T13:21:40Z</time>
      </trkpt>
      <trkpt lat="42.57297" lon="2.05536">
        <ele>1980.811401</ele>
        <time>2011-09-24T13:21:42Z</time>
      </trkpt>
      <trkpt lat="42.57296" lon="2.0553">
        <ele>1983.696045</ele>
        <time>2011-09-24T13:21:44Z</time>
      </trkpt>
      <trkpt lat="42.57295" lon="2.05524">
        <ele>1986.524902</ele>
        <time>2011-09-24T13:21:46Z</time>
      </trkpt>
      <trkpt lat="42.57294" lon="2.05515">
        <ele>1989.380249</ele>
        <time>2011-09-24T13:21:48Z</time>
      </trkpt>
      <trkpt lat="42.57293" lon="2.05507">
        <ele>1992.185791</ele>
        <time>2011-09-24T13:21:50Z</time>
      </trkpt>
      <trkpt lat="42.57292" lon="2.05499">
        <ele>1994.925659</ele>
        <time>2011-09-24T13:21:52Z</time>
      </trkpt>
      <trkpt lat="42.57291" lon="2.05489">
        <ele>1997.692261</ele>
        <time>2011-09-24T13:21:54Z</time>
      </trkpt>
      <trkpt lat="42.57289" lon="2.05478">
        <ele>2000.435913</ele>
        <time>2011-09-24T13:21:56Z</time>
      </trkpt>
      <trkpt lat="42.57288" lon="2.05468">
        <ele>2003.141235</ele>
        <time>2011-09-24T13:21:58Z</time>
      </trkpt>
      <trkpt lat="42.57286" lon="2.05459">
        <ele>2005.765015</ele>
        <time>2011-09-24T13:22:00Z</time>
      </trkpt>
      <trkpt lat="42.57285" lon="2.0545">
        <ele>2008.351196</ele>
        <time>2011-09-24T13:22:02Z</time>
      </trkpt>
      <trkpt lat="42.57283" lon="2.05441">
        <ele>2010.881958</ele>
        <time>2011-09-24T13:22:04Z</time>
      </trkpt>
      <trkpt lat="42.57282" lon="2.05433">
        <ele>2013.37146</ele>
        <time>2011-09-24T13:22:06Z</time>
      </trkpt>
      <trkpt lat="42.57281" lon="2.05426">
        <ele>2015.832397</ele>
        <time>2011-09-24T13:22:08Z</time>
      </trkpt>
      <trkpt lat="42.5728" lon="2.05422">
        <ele>2017.064575</ele>
        <time>2011-09-24T13:22:09Z</time>
      </trkpt>
      <trkpt lat="42.57278" lon="2.05414">
        <ele>2019.526733</ele>
        <time>2011-09-24T13:22:11Z</time>
      </trkpt>
      <trkpt lat="42.57277" lon="2.05406">
        <ele>2022.075073</ele>
        <time>2011-09-24T13:22:13Z</time>
      </trkpt>
      <trkpt lat="42.57275" lon="2.05399">
        <ele>2023.735718</ele>
        <time>2011-09-24T13:22:14Z</time>
      </trkpt>
      <trkpt lat="42.57273" lon="2.05392">
        <ele>2025.36853</ele>
        <time>2011-09-24T13:22:15Z</time>
      </trkpt>
      <trkpt lat="42.57272" lon="2.05385">
        <ele>2026.970581</ele>
        <time>2011-09-24T13:22:16Z</time>
      </trkpt>
      <trkpt lat="42.5727" lon="2.05379">
        <ele>2028.557983</ele>
        <time>2011-09-24T13:22:17Z</time>
      </trkpt>
      <trkpt lat="42.57269" lon="2.05373">
        <ele>2030.132202</ele>
        <time>2011-09-24T13:22:18Z</time>
      </trkpt>
      <trkpt lat="42.57267" lon="2.05363">
        <ele>2033.236206</ele>
        <time>2011-09-24T13:22:20Z</time>
      </trkpt>
      <trkpt lat="42.57266" lon="2.05355">
        <ele>2036.218384</ele>
        <time>2011-09-24T13:22:22Z</time>
      </trkpt>
      <trkpt lat="42.57265" lon="2.05345">
        <ele>2043.128052</ele>
        <time>2011-09-24T13:22:28Z</time>
      </trkpt>
      <trkpt lat="42.57266" lon="2.05338">
        <ele>2047.331421</ele>
        <time>2011-09-24T13:22:36Z</time>
      </trkpt>
      <trkpt lat="42.57266" lon="2.05332">
        <ele>2047.838989</ele>
        <time>2011-09-24T13:22:41Z</time>
      </trkpt>
      <trkpt lat="42.57263" lon="2.05327">
        <ele>2052.873047</ele>
        <time>2011-09-24T13:22:49Z</time>
      </trkpt>
      <trkpt lat="42.5726" lon="2.05322">
        <ele>2056.478027</ele>
        <time>2011-09-24T13:22:53Z</time>
      </trkpt>
      <trkpt lat="42.57258" lon="2.05314">
        <ele>2059.03125</ele>
        <time>2011-09-24T13:22:56Z</time>
      </trkpt>
      <trkpt lat="42.57259" lon="2.05305">
        <ele>2061.670166</ele>
        <time>2011-09-24T13:22:59Z</time>
      </trkpt>
      <trkpt lat="42.57258" lon="2.05299">
        <ele>2067.456055</ele>
        <time>2011-09-24T13:23:08Z</time>
      </trkpt>
      <trkpt lat="42.57264" lon="2.053">
        <ele>2072.92749</ele>
        <time>2011-09-24T13:23:30Z</time>
      </trkpt>
      <trkpt lat="42.57259" lon="2.05299">
        <ele>2075.029785</ele>
        <time>2011-09-24T13:23:57Z</time>
      </trkpt>
      <trkpt lat="42.57264" lon="2.05296">
        <ele>2082.470459</ele>
        <time>2011-09-24T13:24:09Z</time>
      </trkpt>
      <trkpt lat="42.5727" lon="2.05292">
        <ele>2090.23584</ele>
        <time>2011-09-24T13:24:11Z</time>
      </trkpt>
      <trkpt lat="42.57277" lon="2.05284">
        <ele>2100.302734</ele>
        <time>2011-09-24T13:24:13Z</time>
      </trkpt>
      <trkpt lat="42.5728" lon="2.05279">
        <ele>2103.8125</ele>
        <time>2011-09-24T13:24:14Z</time>
      </trkpt>
      <trkpt lat="42.57283" lon="2.05274">
        <ele>2104.358398</ele>
        <time>2011-09-24T13:24:16Z</time>
      </trkpt>
      <trkpt lat="42.57291" lon="2.05275">
        <ele>2105.138916</ele>
        <time>2011-09-24T13:24:19Z</time>
      </trkpt>
      <trkpt lat="42.57299" lon="2.05278">
        <ele>2107.936035</ele>
        <time>2011-09-24T13:24:21Z</time>
      </trkpt>
      <trkpt lat="42.57303" lon="2.05283">
        <ele>2109.555664</ele>
        <time>2011-09-24T13:24:22Z</time>
      </trkpt>
      <trkpt lat="42.57304" lon="2.05289">
        <ele>2110.493164</ele>
        <time>2011-09-24T13:24:23Z</time>
      </trkpt>
      <trkpt lat="42.57307" lon="2.05295">
        <ele>2110.82373</ele>
        <time>2011-09-24T13:24:24Z</time>
      </trkpt>
      <trkpt lat="42.57311" lon="2.05302">
        <ele>2110.174072</ele>
        <time>2011-09-24T13:24:25Z</time>
      </trkpt>
      <trkpt lat="42.57316" lon="2.05312">
        <ele>2108.713135</ele>
        <time>2011-09-24T13:24:26Z</time>
      </trkpt>
      <trkpt lat="42.57322" lon="2.05314">
        <ele>2107.196777</ele>
        <time>2011-09-24T13:24:27Z</time>
      </trkpt>
      <trkpt lat="42.57327" lon="2.05313">
        <ele>2106.192871</ele>
        <time>2011-09-24T13:24:28Z</time>
      </trkpt>
      <trkpt lat="42.57334" lon="2.05314">
        <ele>2105.266357</ele>
        <time>2011-09-24T13:24:29Z</time>
      </trkpt>
      <trkpt lat="42.5734" lon="2.05315">
        <ele>2104.291504</ele>
        <time>2011-09-24T13:24:30Z</time>
      </trkpt>
      <trkpt lat="42.57348" lon="2.05315">
        <ele>2103.123779</ele>
        <time>2011-09-24T13:24:31Z</time>
      </trkpt>
      <trkpt lat="42.57356" lon="2.05312">
        <ele>2101.846924</ele>
        <time>2011-09-24T13:24:32Z</time>
      </trkpt>
      <trkpt lat="42.57365" lon="2.05309">
        <ele>2100.606445</ele>
        <time>2011-09-24T13:24:33Z</time>
      </trkpt>
      <trkpt lat="42.57374" lon="2.05306">
        <ele>2099.454102</ele>
        <time>2011-09-24T13:24:34Z</time>
      </trkpt>
      <trkpt lat="42.57382" lon="2.05302">
        <ele>2098.425293</ele>
        <time>2011-09-24T13:24:35Z</time>
      </trkpt>
      <trkpt lat="42.5739" lon="2.05299">
        <ele>2097.476807</ele>
        <time>2011-09-24T13:24:36Z</time>
      </trkpt>
      <trkpt lat="42.57396" lon="2.05295">
        <ele>2096.47998</ele>
        <time>2011-09-24T13:24:37Z</time>
      </trkpt>
      <trkpt lat="42.57405" lon="2.05297">
        <ele>2095.006592</ele>
        <time>2011-09-24T13:24:39Z</time>
      </trkpt>
      <trkpt lat="42.57411" lon="2.05297">
        <ele>2094.87207</ele>
        <time>2011-09-24T13:24:41Z</time>
      </trkpt>
      <trkpt lat="42.57418" lon="2.05297">
        <ele>2094.74292</ele>
        <time>2011-09-24T13:24:43Z</time>
      </trkpt>
      <trkpt lat="42.57422" lon="2.05301">
        <ele>2094.133545</ele>
        <time>2011-09-24T13:24:44Z</time>
      </trkpt>
      <trkpt lat="42.57428" lon="2.05303">
        <ele>2093.542236</ele>
        <time>2011-09-24T13:24:45Z</time>
      </trkpt>
      <trkpt lat="42.57433" lon="2.05304">
        <ele>2093.121826</ele>
        <time>2011-09-24T13:24:46Z</time>
      </trkpt>
      <trkpt lat="42.57439" lon="2.05305">
        <ele>2092.960693</ele>
        <time>2011-09-24T13:24:47Z</time>
      </trkpt>
      <trkpt lat="42.57445" lon="2.05307">
        <ele>2092.596191</ele>
        <time>2011-09-24T13:24:48Z</time>
      </trkpt>
      <trkpt lat="42.57449" lon="2.05311">
        <ele>2092.536133</ele>
        <time>2011-09-24T13:24:49Z</time>
      </trkpt>
      <trkpt lat="42.57455" lon="2.05321">
        <ele>2090.812744</ele>
        <time>2011-09-24T13:24:51Z</time>
      </trkpt>
      <trkpt lat="42.57456" lon="2.05327">
        <ele>2089.361816</ele>
        <time>2011-09-24T13:24:52Z</time>
      </trkpt>
      <trkpt lat="42.57462" lon="2.05332">
        <ele>2087.039795</ele>
        <time>2011-09-24T13:24:54Z</time>
      </trkpt>
      <trkpt lat="42.5747" lon="2.05334">
        <ele>2086.085938</ele>
        <time>2011-09-24T13:24:56Z</time>
      </trkpt>
      <trkpt lat="42.57476" lon="2.05336">
        <ele>2085.200684</ele>
        <time>2011-09-24T13:24:57Z</time>
      </trkpt>
      <trkpt lat="42.57483" lon="2.0534">
        <ele>2084.231689</ele>
        <time>2011-09-24T13:24:58Z</time>
      </trkpt>
      <trkpt lat="42.5749" lon="2.05345">
        <ele>2083.042725</ele>
        <time>2011-09-24T13:24:59Z</time>
      </trkpt>
      <trkpt lat="42.57498" lon="2.05351">
        <ele>2081.710693</ele>
        <time>2011-09-24T13:25:00Z</time>
      </trkpt>
      <trkpt lat="42.57505" lon="2.05357">
        <ele>2080.324707</ele>
        <time>2011-09-24T13:25:01Z</time>
      </trkpt>
      <trkpt lat="42.57512" lon="2.05362">
        <ele>2078.943604</ele>
        <time>2011-09-24T13:25:02Z</time>
      </trkpt>
      <trkpt lat="42.57517" lon="2.05365">
        <ele>2077.782227</ele>
        <time>2011-09-24T13:25:03Z</time>
      </trkpt>
      <trkpt lat="42.57521" lon="2.05374">
        <ele>2077.590576</ele>
        <time>2011-09-24T13:25:05Z</time>
      </trkpt>
      <trkpt lat="42.57526" lon="2.05383">
        <ele>2077.279297</ele>
        <time>2011-09-24T13:25:08Z</time>
      </trkpt>
      <trkpt lat="42.5753" lon="2.05384">
        <ele>2077.178223</ele>
        <time>2011-09-24T13:25:09Z</time>
      </trkpt>
      <trkpt lat="42.57535" lon="2.05387">
        <ele>2076.123779</ele>
        <time>2011-09-24T13:25:10Z</time>
      </trkpt>
      <trkpt lat="42.57539" lon="2.05393">
        <ele>2075.212646</ele>
        <time>2011-09-24T13:25:11Z</time>
      </trkpt>
      <trkpt lat="42.57545" lon="2.05398">
        <ele>2074.270264</ele>
        <time>2011-09-24T13:25:12Z</time>
      </trkpt>
      <trkpt lat="42.57552" lon="2.05401">
        <ele>2073.030273</ele>
        <time>2011-09-24T13:25:13Z</time>
      </trkpt>
      <trkpt lat="42.57559" lon="2.05405">
        <ele>2071.651611</ele>
        <time>2011-09-24T13:25:14Z</time>
      </trkpt>
      <trkpt lat="42.57567" lon="2.05409">
        <ele>2070.371338</ele>
        <time>2011-09-24T13:25:15Z</time>
      </trkpt>
      <trkpt lat="42.57575" lon="2.05412">
        <ele>2069.228271</ele>
        <time>2011-09-24T13:25:16Z</time>
      </trkpt>
      <trkpt lat="42.57583" lon="2.05413">
        <ele>2068.296875</ele>
        <time>2011-09-24T13:25:17Z</time>
      </trkpt>
      <trkpt lat="42.57591" lon="2.05413">
        <ele>2067.498779</ele>
        <time>2011-09-24T13:25:18Z</time>
      </trkpt>
      <trkpt lat="42.576" lon="2.05411">
        <ele>2066.598145</ele>
        <time>2011-09-24T13:25:19Z</time>
      </trkpt>
      <trkpt lat="42.57608" lon="2.05409">
        <ele>2065.761475</ele>
        <time>2011-09-24T13:25:20Z</time>
      </trkpt>
      <trkpt lat="42.57616" lon="2.05407">
        <ele>2064.941162</ele>
        <time>2011-09-24T13:25:21Z</time>
      </trkpt>
      <trkpt lat="42.57624" lon="2.05406">
        <ele>2064.207275</ele>
        <time>2011-09-24T13:25:22Z</time>
      </trkpt>
      <trkpt lat="42.57633" lon="2.05404">
        <ele>2063.237549</ele>
        <time>2011-09-24T13:25:23Z</time>
      </trkpt>
      <trkpt lat="42.57641" lon="2.05403">
        <ele>2062.227783</ele>
        <time>2011-09-24T13:25:24Z</time>
      </trkpt>
      <trkpt lat="42.57647" lon="2.05405">
        <ele>2061.639404</ele>
        <time>2011-09-24T13:25:25Z</time>
      </trkpt>
      <trkpt lat="42.57652" lon="2.05408">
        <ele>2061.078613</ele>
        <time>2011-09-24T13:25:26Z</time>
      </trkpt>
      <trkpt lat="42.57657" lon="2.05412">
        <ele>2060.947754</ele>
        <time>2011-09-24T13:25:28Z</time>
      </trkpt>
      <trkpt lat="42.57658" lon="2.05415">
        <ele>2060.917236</ele>
        <time>2011-09-24T13:25:29Z</time>
      </trkpt>
      <trkpt lat="42.57656" lon="2.05422">
        <ele>2060.83667</ele>
        <time>2011-09-24T13:25:31Z</time>
      </trkpt>
      <trkpt lat="42.5766" lon="2.05432">
        <ele>2059.051025</ele>
        <time>2011-09-24T13:25:34Z</time>
      </trkpt>
      <trkpt lat="42.57662" lon="2.05438">
        <ele>2057.248291</ele>
        <time>2011-09-24T13:25:35Z</time>
      </trkpt>
      <trkpt lat="42.57667" lon="2.05446">
        <ele>2055.167725</ele>
        <time>2011-09-24T13:25:37Z</time>
      </trkpt>
      <trkpt lat="42.57676" lon="2.05448">
        <ele>2051.350098</ele>
        <time>2011-09-24T13:25:39Z</time>
      </trkpt>
      <trkpt lat="42.57684" lon="2.05447">
        <ele>2049.4104</ele>
        <time>2011-09-24T13:25:41Z</time>
      </trkpt>
      <trkpt lat="42.57692" lon="2.05446">
        <ele>2049.051025</ele>
        <time>2011-09-24T13:25:43Z</time>
      </trkpt>
      <trkpt lat="42.57699" lon="2.05443">
        <ele>2048.654785</ele>
        <time>2011-09-24T13:25:45Z</time>
      </trkpt>
      <trkpt lat="42.57706" lon="2.05441">
        <ele>2048.236572</ele>
        <time>2011-09-24T13:25:47Z</time>
      </trkpt>
      <trkpt lat="42.57713" lon="2.05438">
        <ele>2047.827515</ele>
        <time>2011-09-24T13:25:49Z</time>
      </trkpt>
      <trkpt lat="42.57719" lon="2.05437">
        <ele>2047.437866</ele>
        <time>2011-09-24T13:25:51Z</time>
      </trkpt>
      <trkpt lat="42.57724" lon="2.05435">
        <ele>2047.066284</ele>
        <time>2011-09-24T13:25:53Z</time>
      </trkpt>
      <trkpt lat="42.5773" lon="2.05434">
        <ele>2046.547241</ele>
        <time>2011-09-24T13:25:56Z</time>
      </trkpt>
      <trkpt lat="42.57736" lon="2.05433">
        <ele>2046.210571</ele>
        <time>2011-09-24T13:25:58Z</time>
      </trkpt>
      <trkpt lat="42.57741" lon="2.05431">
        <ele>2045.890747</ele>
        <time>2011-09-24T13:26:00Z</time>
      </trkpt>
      <trkpt lat="42.57747" lon="2.05428">
        <ele>2045.56604</ele>
        <time>2011-09-24T13:26:02Z</time>
      </trkpt>
      <trkpt lat="42.57751" lon="2.0542">
        <ele>2045.216431</ele>
        <time>2011-09-24T13:26:04Z</time>
      </trkpt>
      <trkpt lat="42.57753" lon="2.05411">
        <ele>2044.857788</ele>
        <time>2011-09-24T13:26:06Z</time>
      </trkpt>
      <trkpt lat="42.57754" lon="2.05401">
        <ele>2044.522339</ele>
        <time>2011-09-24T13:26:08Z</time>
      </trkpt>
      <trkpt lat="42.57753" lon="2.05392">
        <ele>2044.200562</ele>
        <time>2011-09-24T13:26:10Z</time>
      </trkpt>
      <trkpt lat="42.57753" lon="2.05383">
        <ele>2043.925903</ele>
        <time>2011-09-24T13:26:12Z</time>
      </trkpt>
      <trkpt lat="42.57751" lon="2.05374">
        <ele>2043.680298</ele>
        <time>2011-09-24T13:26:14Z</time>
      </trkpt>
      <trkpt lat="42.57752" lon="2.05364">
        <ele>2043.435669</ele>
        <time>2011-09-24T13:26:16Z</time>
      </trkpt>
      <trkpt lat="42.57758" lon="2.05358">
        <ele>2041.467651</ele>
        <time>2011-09-24T13:26:18Z</time>
      </trkpt>
      <trkpt lat="42.57763" lon="2.05359">
        <ele>2040.694702</ele>
        <time>2011-09-24T13:26:19Z</time>
      </trkpt>
      <trkpt lat="42.5777" lon="2.0536">
        <ele>2040.694702</ele>
        <time>2011-09-24T13:26:20Z</time>
      </trkpt>
      <trkpt lat="42.57775" lon="2.0536">
        <ele>2039.678833</ele>
        <time>2011-09-24T13:26:21Z</time>
      </trkpt>
      <trkpt lat="42.57781" lon="2.05361">
        <ele>2038.44104</ele>
        <time>2011-09-24T13:26:22Z</time>
      </trkpt>
      <trkpt lat="42.57786" lon="2.05361">
        <ele>2037.249634</ele>
        <time>2011-09-24T13:26:23Z</time>
      </trkpt>
      <trkpt lat="42.57791" lon="2.05364">
        <ele>2036.260376</ele>
        <time>2011-09-24T13:26:24Z</time>
      </trkpt>
      <trkpt lat="42.57795" lon="2.05367">
        <ele>2035.407593</ele>
        <time>2011-09-24T13:26:25Z</time>
      </trkpt>
      <trkpt lat="42.57798" lon="2.05373">
        <ele>2034.682251</ele>
        <time>2011-09-24T13:26:26Z</time>
      </trkpt>
      <trkpt lat="42.578" lon="2.05381">
        <ele>2033.932983</ele>
        <time>2011-09-24T13:26:27Z</time>
      </trkpt>
      <trkpt lat="42.57804" lon="2.05387">
        <ele>2033.206665</ele>
        <time>2011-09-24T13:26:28Z</time>
      </trkpt>
      <trkpt lat="42.57809" lon="2.05392">
        <ele>2032.453979</ele>
        <time>2011-09-24T13:26:29Z</time>
      </trkpt>
      <trkpt lat="42.57815" lon="2.05393">
        <ele>2031.733765</ele>
        <time>2011-09-24T13:26:30Z</time>
      </trkpt>
      <trkpt lat="42.57819" lon="2.05397">
        <ele>2031.052612</ele>
        <time>2011-09-24T13:26:31Z</time>
      </trkpt>
      <trkpt lat="42.57821" lon="2.05403">
        <ele>2030.436157</ele>
        <time>2011-09-24T13:26:32Z</time>
      </trkpt>
      <trkpt lat="42.57825" lon="2.05409">
        <ele>2030.337769</ele>
        <time>2011-09-24T13:26:34Z</time>
      </trkpt>
      <trkpt lat="42.57833" lon="2.05408">
        <ele>2030.273071</ele>
        <time>2011-09-24T13:26:36Z</time>
      </trkpt>
      <trkpt lat="42.57839" lon="2.05413">
        <ele>2030.001831</ele>
        <time>2011-09-24T13:26:37Z</time>
      </trkpt>
      <trkpt lat="42.57846" lon="2.05418">
        <ele>2029.157837</ele>
        <time>2011-09-24T13:26:38Z</time>
      </trkpt>
      <trkpt lat="42.57855" lon="2.05422">
        <ele>2027.985962</ele>
        <time>2011-09-24T13:26:39Z</time>
      </trkpt>
      <trkpt lat="42.57864" lon="2.05426">
        <ele>2026.623657</ele>
        <time>2011-09-24T13:26:40Z</time>
      </trkpt>
      <trkpt lat="42.57872" lon="2.0543">
        <ele>2025.200317</ele>
        <time>2011-09-24T13:26:41Z</time>
      </trkpt>
      <trkpt lat="42.57881" lon="2.05435">
        <ele>2023.866577</ele>
        <time>2011-09-24T13:26:42Z</time>
      </trkpt>
      <trkpt lat="42.57889" lon="2.0544">
        <ele>2022.483276</ele>
        <time>2011-09-24T13:26:43Z</time>
      </trkpt>
      <trkpt lat="42.57898" lon="2.05444">
        <ele>2021.065796</ele>
        <time>2011-09-24T13:26:44Z</time>
      </trkpt>
      <trkpt lat="42.57906" lon="2.05448">
        <ele>2019.741089</ele>
        <time>2011-09-24T13:26:45Z</time>
      </trkpt>
      <trkpt lat="42.57913" lon="2.05453">
        <ele>2018.706665</ele>
        <time>2011-09-24T13:26:46Z</time>
      </trkpt>
      <trkpt lat="42.5792" lon="2.05458">
        <ele>2017.902954</ele>
        <time>2011-09-24T13:26:47Z</time>
      </trkpt>
      <trkpt lat="42.57928" lon="2.05464">
        <ele>2017.168579</ele>
        <time>2011-09-24T13:26:48Z</time>
      </trkpt>
      <trkpt lat="42.57935" lon="2.05472">
        <ele>2016.485962</ele>
        <time>2011-09-24T13:26:49Z</time>
      </trkpt>
      <trkpt lat="42.57942" lon="2.05479">
        <ele>2015.765747</ele>
        <time>2011-09-24T13:26:50Z</time>
      </trkpt>
      <trkpt lat="42.57948" lon="2.05482">
        <ele>2015.239136</ele>
        <time>2011-09-24T13:26:51Z</time>
      </trkpt>
      <trkpt lat="42.57954" lon="2.05482">
        <ele>2014.690063</ele>
        <time>2011-09-24T13:26:52Z</time>
      </trkpt>
      <trkpt lat="42.57962" lon="2.05482">
        <ele>2013.917603</ele>
        <time>2011-09-24T13:26:54Z</time>
      </trkpt>
      <trkpt lat="42.57963" lon="2.05495">
        <ele>2013.49353</ele>
        <time>2011-09-24T13:26:56Z</time>
      </trkpt>
      <trkpt lat="42.5796" lon="2.05503">
        <ele>2013.379517</ele>
        <time>2011-09-24T13:26:57Z</time>
      </trkpt>
      <trkpt lat="42.57958" lon="2.05512">
        <ele>2013.353394</ele>
        <time>2011-09-24T13:26:59Z</time>
      </trkpt>
      <trkpt lat="42.57965" lon="2.05517">
        <ele>2012.940552</ele>
        <time>2011-09-24T13:27:01Z</time>
      </trkpt>
      <trkpt lat="42.57967" lon="2.05522">
        <ele>2012.52356</ele>
        <time>2011-09-24T13:27:02Z</time>
      </trkpt>
      <trkpt lat="42.5797" lon="2.05531">
        <ele>2012.034058</ele>
        <time>2011-09-24T13:27:04Z</time>
      </trkpt>
      <trkpt lat="42.57974" lon="2.05536">
        <ele>2011.903931</ele>
        <time>2011-09-24T13:27:06Z</time>
      </trkpt>
      <trkpt lat="42.57979" lon="2.05549">
        <ele>2008.684204</ele>
        <time>2011-09-24T13:27:08Z</time>
      </trkpt>
      <trkpt lat="42.5798" lon="2.05557">
        <ele>2006.847046</ele>
        <time>2011-09-24T13:27:09Z</time>
      </trkpt>
      <trkpt lat="42.5798" lon="2.05563">
        <ele>2005.077271</ele>
        <time>2011-09-24T13:27:10Z</time>
      </trkpt>
      <trkpt lat="42.5798" lon="2.05573">
        <ele>2004.716675</ele>
        <time>2011-09-24T13:27:12Z</time>
      </trkpt>
      <trkpt lat="42.57983" lon="2.0558">
        <ele>2004.180298</ele>
        <time>2011-09-24T13:27:14Z</time>
      </trkpt>
      <trkpt lat="42.57986" lon="2.05585">
        <ele>2002.737671</ele>
        <time>2011-09-24T13:27:20Z</time>
      </trkpt>
      <trkpt lat="42.57991" lon="2.05588">
        <ele>2002.015015</ele>
        <time>2011-09-24T13:27:22Z</time>
      </trkpt>
      <trkpt lat="42.57995" lon="2.05598">
        <ele>2001.246216</ele>
        <time>2011-09-24T13:27:24Z</time>
      </trkpt>
      <trkpt lat="42.57995" lon="2.05607">
        <ele>2000.458374</ele>
        <time>2011-09-24T13:27:26Z</time>
      </trkpt>
      <trkpt lat="42.58001" lon="2.0561">
        <ele>1996.276001</ele>
        <time>2011-09-24T13:27:28Z</time>
      </trkpt>
      <trkpt lat="42.5801" lon="2.05614">
        <ele>1992.86853</ele>
        <time>2011-09-24T13:27:30Z</time>
      </trkpt>
      <trkpt lat="42.58014" lon="2.05621">
        <ele>1990.077515</ele>
        <time>2011-09-24T13:27:31Z</time>
      </trkpt>
      <trkpt lat="42.58015" lon="2.05629">
        <ele>1987.644653</ele>
        <time>2011-09-24T13:27:32Z</time>
      </trkpt>
      <trkpt lat="42.58018" lon="2.05635">
        <ele>1985.706299</ele>
        <time>2011-09-24T13:27:33Z</time>
      </trkpt>
      <trkpt lat="42.58022" lon="2.05639">
        <ele>1984.180542</ele>
        <time>2011-09-24T13:27:34Z</time>
      </trkpt>
      <trkpt lat="42.58027" lon="2.05643">
        <ele>1982.949707</ele>
        <time>2011-09-24T13:27:35Z</time>
      </trkpt>
      <trkpt lat="42.5803" lon="2.0565">
        <ele>1981.871094</ele>
        <time>2011-09-24T13:27:36Z</time>
      </trkpt>
      <trkpt lat="42.58033" lon="2.05658">
        <ele>1980.92334</ele>
        <time>2011-09-24T13:27:37Z</time>
      </trkpt>
      <trkpt lat="42.58035" lon="2.05666">
        <ele>1980.153809</ele>
        <time>2011-09-24T13:27:38Z</time>
      </trkpt>
      <trkpt lat="42.58039" lon="2.05674">
        <ele>1979.331177</ele>
        <time>2011-09-24T13:27:39Z</time>
      </trkpt>
      <trkpt lat="42.58043" lon="2.05681">
        <ele>1978.523438</ele>
        <time>2011-09-24T13:27:40Z</time>
      </trkpt>
      <trkpt lat="42.58048" lon="2.0569">
        <ele>1977.808472</ele>
        <time>2011-09-24T13:27:41Z</time>
      </trkpt>
      <trkpt lat="42.58054" lon="2.05702">
        <ele>1977.27063</ele>
        <time>2011-09-24T13:27:42Z</time>
      </trkpt>
      <trkpt lat="42.58059" lon="2.05714">
        <ele>1976.680664</ele>
        <time>2011-09-24T13:27:43Z</time>
      </trkpt>
      <trkpt lat="42.58064" lon="2.05723">
        <ele>1976.063721</ele>
        <time>2011-09-24T13:27:44Z</time>
      </trkpt>
      <trkpt lat="42.58069" lon="2.05732">
        <ele>1975.794922</ele>
        <time>2011-09-24T13:27:45Z</time>
      </trkpt>
      <trkpt lat="42.58073" lon="2.05739">
        <ele>1975.608032</ele>
        <time>2011-09-24T13:27:46Z</time>
      </trkpt>
      <trkpt lat="42.58078" lon="2.05746">
        <ele>1975.261963</ele>
        <time>2011-09-24T13:27:47Z</time>
      </trkpt>
      <trkpt lat="42.58082" lon="2.05755">
        <ele>1974.858643</ele>
        <time>2011-09-24T13:27:48Z</time>
      </trkpt>
      <trkpt lat="42.58084" lon="2.05762">
        <ele>1974.428955</ele>
        <time>2011-09-24T13:27:49Z</time>
      </trkpt>
      <trkpt lat="42.58088" lon="2.0577">
        <ele>1974.182861</ele>
        <time>2011-09-24T13:27:50Z</time>
      </trkpt>
      <trkpt lat="42.58091" lon="2.05779">
        <ele>1973.887329</ele>
        <time>2011-09-24T13:27:51Z</time>
      </trkpt>
      <trkpt lat="42.58093" lon="2.05787">
        <ele>1973.419434</ele>
        <time>2011-09-24T13:27:52Z</time>
      </trkpt>
      <trkpt lat="42.58095" lon="2.05796">
        <ele>1973.052856</ele>
        <time>2011-09-24T13:27:53Z</time>
      </trkpt>
      <trkpt lat="42.58097" lon="2.05806">
        <ele>1972.784424</ele>
        <time>2011-09-24T13:27:54Z</time>
      </trkpt>
      <trkpt lat="42.58098" lon="2.05816">
        <ele>1972.711548</ele>
        <time>2011-09-24T13:27:55Z</time>
      </trkpt>
      <trkpt lat="42.58099" lon="2.05826">
        <ele>1972.687256</ele>
        <time>2011-09-24T13:27:56Z</time>
      </trkpt>
      <trkpt lat="42.58101" lon="2.05837">
        <ele>1972.856812</ele>
        <time>2011-09-24T13:27:57Z</time>
      </trkpt>
      <trkpt lat="42.58101" lon="2.05848">
        <ele>1972.825684</ele>
        <time>2011-09-24T13:27:58Z</time>
      </trkpt>
      <trkpt lat="42.58101" lon="2.05859">
        <ele>1972.667358</ele>
        <time>2011-09-24T13:27:59Z</time>
      </trkpt>
      <trkpt lat="42.58101" lon="2.0587">
        <ele>1972.226929</ele>
        <time>2011-09-24T13:28:00Z</time>
      </trkpt>
      <trkpt lat="42.58101" lon="2.05882">
        <ele>1971.397217</ele>
        <time>2011-09-24T13:28:01Z</time>
      </trkpt>
      <trkpt lat="42.58099" lon="2.05893">
        <ele>1970.847534</ele>
        <time>2011-09-24T13:28:02Z</time>
      </trkpt>
      <trkpt lat="42.58097" lon="2.05904">
        <ele>1970.202271</ele>
        <time>2011-09-24T13:28:03Z</time>
      </trkpt>
      <trkpt lat="42.58092" lon="2.05913">
        <ele>1969.453369</ele>
        <time>2011-09-24T13:28:04Z</time>
      </trkpt>
      <trkpt lat="42.58087" lon="2.05922">
        <ele>1968.566284</ele>
        <time>2011-09-24T13:28:05Z</time>
      </trkpt>
      <trkpt lat="42.58083" lon="2.0593">
        <ele>1967.730469</ele>
        <time>2011-09-24T13:28:06Z</time>
      </trkpt>
      <trkpt lat="42.5808" lon="2.05937">
        <ele>1966.762573</ele>
        <time>2011-09-24T13:28:07Z</time>
      </trkpt>
      <trkpt lat="42.58077" lon="2.05943">
        <ele>1965.841553</ele>
        <time>2011-09-24T13:28:08Z</time>
      </trkpt>
      <trkpt lat="42.58075" lon="2.05949">
        <ele>1964.917114</ele>
        <time>2011-09-24T13:28:09Z</time>
      </trkpt>
      <trkpt lat="42.58073" lon="2.05958">
        <ele>1964.157104</ele>
        <time>2011-09-24T13:28:10Z</time>
      </trkpt>
      <trkpt lat="42.58072" lon="2.05967">
        <ele>1963.542114</ele>
        <time>2011-09-24T13:28:11Z</time>
      </trkpt>
      <trkpt lat="42.58069" lon="2.05975">
        <ele>1963.542114</ele>
        <time>2011-09-24T13:28:12Z</time>
      </trkpt>
      <trkpt lat="42.58074" lon="2.05991">
        <ele>1962.707275</ele>
        <time>2011-09-24T13:28:13Z</time>
      </trkpt>
      <trkpt lat="42.58076" lon="2.06002">
        <ele>1961.419312</ele>
        <time>2011-09-24T13:28:14Z</time>
      </trkpt>
      <trkpt lat="42.58076" lon="2.06012">
        <ele>1959.616821</ele>
        <time>2011-09-24T13:28:15Z</time>
      </trkpt>
      <trkpt lat="42.58077" lon="2.06022">
        <ele>1957.807251</ele>
        <time>2011-09-24T13:28:16Z</time>
      </trkpt>
      <trkpt lat="42.5808" lon="2.06031">
        <ele>1956.035645</ele>
        <time>2011-09-24T13:28:17Z</time>
      </trkpt>
      <trkpt lat="42.58083" lon="2.06039">
        <ele>1953.657471</ele>
        <time>2011-09-24T13:28:19Z</time>
      </trkpt>
      <trkpt lat="42.58085" lon="2.06049">
        <ele>1951.470825</ele>
        <time>2011-09-24T13:28:19Z</time>
      </trkpt>
      <trkpt lat="42.58087" lon="2.0606">
        <ele>1949.513062</ele>
        <time>2011-09-24T13:28:20Z</time>
      </trkpt>
      <trkpt lat="42.58088" lon="2.06069">
        <ele>1947.251587</ele>
        <time>2011-09-24T13:28:21Z</time>
      </trkpt>
      <trkpt lat="42.58089" lon="2.06079">
        <ele>1945.311646</ele>
        <time>2011-09-24T13:28:22Z</time>
      </trkpt>
      <trkpt lat="42.5809" lon="2.0609">
        <ele>1943.504395</ele>
        <time>2011-09-24T13:28:23Z</time>
      </trkpt>
      <trkpt lat="42.58092" lon="2.06101">
        <ele>1941.704224</ele>
        <time>2011-09-24T13:28:24Z</time>
      </trkpt>
      <trkpt lat="42.58093" lon="2.06111">
        <ele>1939.984131</ele>
        <time>2011-09-24T13:28:25Z</time>
      </trkpt>
      <trkpt lat="42.58095" lon="2.06122">
        <ele>1938.079712</ele>
        <time>2011-09-24T13:28:26Z</time>
      </trkpt>
      <trkpt lat="42.58097" lon="2.06134">
        <ele>1935.279785</ele>
        <time>2011-09-24T13:28:27Z</time>
      </trkpt>
      <trkpt lat="42.58098" lon="2.06144">
        <ele>1932.512817</ele>
        <time>2011-09-24T13:28:28Z</time>
      </trkpt>
      <trkpt lat="42.58101" lon="2.06153">
        <ele>1930.258911</ele>
        <time>2011-09-24T13:28:29Z</time>
      </trkpt>
      <trkpt lat="42.58102" lon="2.06163">
        <ele>1928.479248</ele>
        <time>2011-09-24T13:28:30Z</time>
      </trkpt>
      <trkpt lat="42.58106" lon="2.06173">
        <ele>1927.054199</ele>
        <time>2011-09-24T13:28:31Z</time>
      </trkpt>
      <trkpt lat="42.5811" lon="2.06183">
        <ele>1925.020752</ele>
        <time>2011-09-24T13:28:32Z</time>
      </trkpt>
      <trkpt lat="42.58112" lon="2.06196">
        <ele>1922.522949</ele>
        <time>2011-09-24T13:28:33Z</time>
      </trkpt>
      <trkpt lat="42.58113" lon="2.06208">
        <ele>1920.103882</ele>
        <time>2011-09-24T13:28:34Z</time>
      </trkpt>
      <trkpt lat="42.58114" lon="2.06219">
        <ele>1917.896729</ele>
        <time>2011-09-24T13:28:35Z</time>
      </trkpt>
      <trkpt lat="42.58118" lon="2.0623">
        <ele>1915.946777</ele>
        <time>2011-09-24T13:28:36Z</time>
      </trkpt>
      <trkpt lat="42.58122" lon="2.06241">
        <ele>1914.255005</ele>
        <time>2011-09-24T13:28:37Z</time>
      </trkpt>
      <trkpt lat="42.58126" lon="2.0625">
        <ele>1912.897095</ele>
        <time>2011-09-24T13:28:38Z</time>
      </trkpt>
      <trkpt lat="42.58129" lon="2.06259">
        <ele>1911.758545</ele>
        <time>2011-09-24T13:28:39Z</time>
      </trkpt>
      <trkpt lat="42.58131" lon="2.06267">
        <ele>1911.050659</ele>
        <time>2011-09-24T13:28:40Z</time>
      </trkpt>
      <trkpt lat="42.58134" lon="2.06274">
        <ele>1910.440308</ele>
        <time>2011-09-24T13:28:41Z</time>
      </trkpt>
      <trkpt lat="42.58137" lon="2.06282">
        <ele>1909.701294</ele>
        <time>2011-09-24T13:28:42Z</time>
      </trkpt>
      <trkpt lat="42.58138" lon="2.0629">
        <ele>1908.908081</ele>
        <time>2011-09-24T13:28:43Z</time>
      </trkpt>
      <trkpt lat="42.58139" lon="2.06298">
        <ele>1908.182373</ele>
        <time>2011-09-24T13:28:44Z</time>
      </trkpt>
      <trkpt lat="42.5814" lon="2.06306">
        <ele>1907.562622</ele>
        <time>2011-09-24T13:28:45Z</time>
      </trkpt>
      <trkpt lat="42.58141" lon="2.06315">
        <ele>1907.018433</ele>
        <time>2011-09-24T13:28:46Z</time>
      </trkpt>
      <trkpt lat="42.58142" lon="2.06323">
        <ele>1906.540894</ele>
        <time>2011-09-24T13:28:47Z</time>
      </trkpt>
      <trkpt lat="42.58143" lon="2.06332">
        <ele>1906.128906</ele>
        <time>2011-09-24T13:28:48Z</time>
      </trkpt>
      <trkpt lat="42.58143" lon="2.06341">
        <ele>1905.808838</ele>
        <time>2011-09-24T13:28:49Z</time>
      </trkpt>
      <trkpt lat="42.58144" lon="2.06349">
        <ele>1905.430664</ele>
        <time>2011-09-24T13:28:50Z</time>
      </trkpt>
      <trkpt lat="42.58145" lon="2.06357">
        <ele>1905.003052</ele>
        <time>2011-09-24T13:28:51Z</time>
      </trkpt>
      <trkpt lat="42.58147" lon="2.06365">
        <ele>1904.568237</ele>
        <time>2011-09-24T13:28:52Z</time>
      </trkpt>
      <trkpt lat="42.58152" lon="2.0637">
        <ele>1904.465576</ele>
        <time>2011-09-24T13:28:53Z</time>
      </trkpt>
      <trkpt lat="42.58157" lon="2.06376">
        <ele>1904.234131</ele>
        <time>2011-09-24T13:28:54Z</time>
      </trkpt>
      <trkpt lat="42.58161" lon="2.06382">
        <ele>1904.000732</ele>
        <time>2011-09-24T13:28:55Z</time>
      </trkpt>
      <trkpt lat="42.58164" lon="2.06388">
        <ele>1903.793823</ele>
        <time>2011-09-24T13:28:56Z</time>
      </trkpt>
      <trkpt lat="42.58166" lon="2.06395">
        <ele>1903.628296</ele>
        <time>2011-09-24T13:28:57Z</time>
      </trkpt>
      <trkpt lat="42.58168" lon="2.06402">
        <ele>1903.393799</ele>
        <time>2011-09-24T13:28:58Z</time>
      </trkpt>
      <trkpt lat="42.5817" lon="2.0641">
        <ele>1903.037964</ele>
        <time>2011-09-24T13:28:59Z</time>
      </trkpt>
      <trkpt lat="42.58171" lon="2.06418">
        <ele>1902.551392</ele>
        <time>2011-09-24T13:29:00Z</time>
      </trkpt>
      <trkpt lat="42.58172" lon="2.06428">
        <ele>1901.980713</ele>
        <time>2011-09-24T13:29:01Z</time>
      </trkpt>
      <trkpt lat="42.58172" lon="2.06436">
        <ele>1901.437134</ele>
        <time>2011-09-24T13:29:02Z</time>
      </trkpt>
      <trkpt lat="42.58173" lon="2.06445">
        <ele>1900.853638</ele>
        <time>2011-09-24T13:29:03Z</time>
      </trkpt>
      <trkpt lat="42.58174" lon="2.06453">
        <ele>1900.20874</ele>
        <time>2011-09-24T13:29:04Z</time>
      </trkpt>
      <trkpt lat="42.58176" lon="2.06462">
        <ele>1899.189819</ele>
        <time>2011-09-24T13:29:05Z</time>
      </trkpt>
      <trkpt lat="42.58174" lon="2.06471">
        <ele>1897.712402</ele>
        <time>2011-09-24T13:29:06Z</time>
      </trkpt>
      <trkpt lat="42.58173" lon="2.06481">
        <ele>1896.28479</ele>
        <time>2011-09-24T13:29:07Z</time>
      </trkpt>
      <trkpt lat="42.58172" lon="2.06489">
        <ele>1894.90271</ele>
        <time>2011-09-24T13:29:08Z</time>
      </trkpt>
      <trkpt lat="42.58174" lon="2.06496">
        <ele>1893.550293</ele>
        <time>2011-09-24T13:29:09Z</time>
      </trkpt>
      <trkpt lat="42.58182" lon="2.06495">
        <ele>1892.348755</ele>
        <time>2011-09-24T13:29:10Z</time>
      </trkpt>
      <trkpt lat="42.58189" lon="2.06489">
        <ele>1891.134888</ele>
        <time>2011-09-24T13:29:11Z</time>
      </trkpt>
      <trkpt lat="42.58194" lon="2.06489">
        <ele>1889.938232</ele>
        <time>2011-09-24T13:29:12Z</time>
      </trkpt>
      <trkpt lat="42.58202" lon="2.06494">
        <ele>1887.483887</ele>
        <time>2011-09-24T13:29:14Z</time>
      </trkpt>
      <trkpt lat="42.58202" lon="2.065">
        <ele>1886.370483</ele>
        <time>2011-09-24T13:29:15Z</time>
      </trkpt>
      <trkpt lat="42.58206" lon="2.06507">
        <ele>1884.11499</ele>
        <time>2011-09-24T13:29:17Z</time>
      </trkpt>
      <trkpt lat="42.58214" lon="2.06509">
        <ele>1882.208008</ele>
        <time>2011-09-24T13:29:19Z</time>
      </trkpt>
      <trkpt lat="42.58215" lon="2.06515">
        <ele>1881.424927</ele>
        <time>2011-09-24T13:29:20Z</time>
      </trkpt>
      <trkpt lat="42.58218" lon="2.06521">
        <ele>1880.187256</ele>
        <time>2011-09-24T13:29:21Z</time>
      </trkpt>
      <trkpt lat="42.5822" lon="2.06532">
        <ele>1877.820679</ele>
        <time>2011-09-24T13:29:23Z</time>
      </trkpt>
      <trkpt lat="42.58218" lon="2.06539">
        <ele>1876.448364</ele>
        <time>2011-09-24T13:29:24Z</time>
      </trkpt>
      <trkpt lat="42.58216" lon="2.06545">
        <ele>1875.23938</ele>
        <time>2011-09-24T13:29:25Z</time>
      </trkpt>
      <trkpt lat="42.58219" lon="2.06553">
        <ele>1873.197632</ele>
        <time>2011-09-24T13:29:27Z</time>
      </trkpt>
      <trkpt lat="42.58222" lon="2.06559">
        <ele>1871.992065</ele>
        <time>2011-09-24T13:29:28Z</time>
      </trkpt>
      <trkpt lat="42.58221" lon="2.06566">
        <ele>1870.844604</ele>
        <time>2011-09-24T13:29:29Z</time>
      </trkpt>
      <trkpt lat="42.58221" lon="2.06573">
        <ele>1869.71167</ele>
        <time>2011-09-24T13:29:30Z</time>
      </trkpt>
      <trkpt lat="42.58225" lon="2.0658">
        <ele>1868.508179</ele>
        <time>2011-09-24T13:29:31Z</time>
      </trkpt>
      <trkpt lat="42.58229" lon="2.06585">
        <ele>1867.201416</ele>
        <time>2011-09-24T13:29:32Z</time>
      </trkpt>
      <trkpt lat="42.58227" lon="2.06592">
        <ele>1865.815674</ele>
        <time>2011-09-24T13:29:33Z</time>
      </trkpt>
      <trkpt lat="42.58223" lon="2.06597">
        <ele>1864.562988</ele>
        <time>2011-09-24T13:29:34Z</time>
      </trkpt>
      <trkpt lat="42.58217" lon="2.06603">
        <ele>1863.427734</ele>
        <time>2011-09-24T13:29:35Z</time>
      </trkpt>
      <trkpt lat="42.58215" lon="2.06609">
        <ele>1862.19873</ele>
        <time>2011-09-24T13:29:36Z</time>
      </trkpt>
      <trkpt lat="42.58216" lon="2.06617">
        <ele>1860.748169</ele>
        <time>2011-09-24T13:29:38Z</time>
      </trkpt>
      <trkpt lat="42.58212" lon="2.06628">
        <ele>1858.824219</ele>
        <time>2011-09-24T13:29:40Z</time>
      </trkpt>
      <trkpt lat="42.58209" lon="2.06634">
        <ele>1857.249756</ele>
        <time>2011-09-24T13:29:41Z</time>
      </trkpt>
      <trkpt lat="42.58204" lon="2.06641">
        <ele>1855.873413</ele>
        <time>2011-09-24T13:29:42Z</time>
      </trkpt>
      <trkpt lat="42.58202" lon="2.06647">
        <ele>1854.638306</ele>
        <time>2011-09-24T13:29:43Z</time>
      </trkpt>
      <trkpt lat="42.58201" lon="2.06654">
        <ele>1853.684326</ele>
        <time>2011-09-24T13:29:44Z</time>
      </trkpt>
      <trkpt lat="42.58199" lon="2.06662">
        <ele>1852.828003</ele>
        <time>2011-09-24T13:29:45Z</time>
      </trkpt>
      <trkpt lat="42.58194" lon="2.06672">
        <ele>1852.224609</ele>
        <time>2011-09-24T13:29:46Z</time>
      </trkpt>
      <trkpt lat="42.58188" lon="2.06681">
        <ele>1851.408691</ele>
        <time>2011-09-24T13:29:47Z</time>
      </trkpt>
      <trkpt lat="42.58181" lon="2.0669">
        <ele>1850.729736</ele>
        <time>2011-09-24T13:29:48Z</time>
      </trkpt>
      <trkpt lat="42.58174" lon="2.067">
        <ele>1850.307617</ele>
        <time>2011-09-24T13:29:49Z</time>
      </trkpt>
      <trkpt lat="42.58168" lon="2.06711">
        <ele>1849.638062</ele>
        <time>2011-09-24T13:29:50Z</time>
      </trkpt>
      <trkpt lat="42.58161" lon="2.0672">
        <ele>1849.097656</ele>
        <time>2011-09-24T13:29:51Z</time>
      </trkpt>
      <trkpt lat="42.58155" lon="2.0673">
        <ele>1848.579468</ele>
        <time>2011-09-24T13:29:52Z</time>
      </trkpt>
      <trkpt lat="42.58149" lon="2.06741">
        <ele>1847.983398</ele>
        <time>2011-09-24T13:29:53Z</time>
      </trkpt>
      <trkpt lat="42.58143" lon="2.06752">
        <ele>1847.293213</ele>
        <time>2011-09-24T13:29:54Z</time>
      </trkpt>
      <trkpt lat="42.58136" lon="2.06763">
        <ele>1846.66272</ele>
        <time>2011-09-24T13:29:55Z</time>
      </trkpt>
      <trkpt lat="42.58129" lon="2.06773">
        <ele>1845.99353</ele>
        <time>2011-09-24T13:29:56Z</time>
      </trkpt>
      <trkpt lat="42.58122" lon="2.06781">
        <ele>1845.383667</ele>
        <time>2011-09-24T13:29:57Z</time>
      </trkpt>
      <trkpt lat="42.58115" lon="2.0679">
        <ele>1844.960083</ele>
        <time>2011-09-24T13:29:58Z</time>
      </trkpt>
      <trkpt lat="42.58108" lon="2.06798">
        <ele>1844.684692</ele>
        <time>2011-09-24T13:29:59Z</time>
      </trkpt>
      <trkpt lat="42.58101" lon="2.06807">
        <ele>1844.480225</ele>
        <time>2011-09-24T13:30:00Z</time>
      </trkpt>
      <trkpt lat="42.58095" lon="2.06815">
        <ele>1844.224121</ele>
        <time>2011-09-24T13:30:01Z</time>
      </trkpt>
      <trkpt lat="42.58088" lon="2.06822">
        <ele>1843.709351</ele>
        <time>2011-09-24T13:30:02Z</time>
      </trkpt>
      <trkpt lat="42.58081" lon="2.06829">
        <ele>1843.302856</ele>
        <time>2011-09-24T13:30:03Z</time>
      </trkpt>
      <trkpt lat="42.58073" lon="2.06832">
        <ele>1842.976318</ele>
        <time>2011-09-24T13:30:04Z</time>
      </trkpt>
      <trkpt lat="42.58065" lon="2.06832">
        <ele>1842.52478</ele>
        <time>2011-09-24T13:30:05Z</time>
      </trkpt>
      <trkpt lat="42.58057" lon="2.0683">
        <ele>1842.154541</ele>
        <time>2011-09-24T13:30:06Z</time>
      </trkpt>
      <trkpt lat="42.58052" lon="2.06827">
        <ele>1841.824463</ele>
        <time>2011-09-24T13:30:07Z</time>
      </trkpt>
      <trkpt lat="42.58048" lon="2.06823">
        <ele>1841.649292</ele>
        <time>2011-09-24T13:30:08Z</time>
      </trkpt>
      <trkpt lat="42.58043" lon="2.06819">
        <ele>1841.626953</ele>
        <time>2011-09-24T13:30:09Z</time>
      </trkpt>
      <trkpt lat="42.58039" lon="2.06815">
        <ele>1841.522339</ele>
        <time>2011-09-24T13:30:10Z</time>
      </trkpt>
      <trkpt lat="42.58036" lon="2.06811">
        <ele>1841.373169</ele>
        <time>2011-09-24T13:30:11Z</time>
      </trkpt>
      <trkpt lat="42.5803" lon="2.06804">
        <ele>1840.829468</ele>
        <time>2011-09-24T13:30:13Z</time>
      </trkpt>
      <trkpt lat="42.58027" lon="2.06797">
        <ele>1840.723511</ele>
        <time>2011-09-24T13:30:15Z</time>
      </trkpt>
      <trkpt lat="42.58024" lon="2.06788">
        <ele>1840.300537</ele>
        <time>2011-09-24T13:30:17Z</time>
      </trkpt>
      <trkpt lat="42.58021" lon="2.06782">
        <ele>1840.735962</ele>
        <time>2011-09-24T13:30:18Z</time>
      </trkpt>
      <trkpt lat="42.58017" lon="2.06776">
        <ele>1841.184204</ele>
        <time>2011-09-24T13:30:19Z</time>
      </trkpt>
      <trkpt lat="42.58013" lon="2.0677">
        <ele>1841.83374</ele>
        <time>2011-09-24T13:30:20Z</time>
      </trkpt>
      <trkpt lat="42.58009" lon="2.06765">
        <ele>1841.930298</ele>
        <time>2011-09-24T13:30:21Z</time>
      </trkpt>
      <trkpt lat="42.58005" lon="2.06761">
        <ele>1840.914795</ele>
        <time>2011-09-24T13:30:22Z</time>
      </trkpt>
      <trkpt lat="42.58" lon="2.06755">
        <ele>1840.723633</ele>
        <time>2011-09-24T13:30:23Z</time>
      </trkpt>
      <trkpt lat="42.57994" lon="2.06748">
        <ele>1840.13562</ele>
        <time>2011-09-24T13:30:24Z</time>
      </trkpt>
      <trkpt lat="42.57988" lon="2.06742">
        <ele>1839.004028</ele>
        <time>2011-09-24T13:30:25Z</time>
      </trkpt>
      <trkpt lat="42.5798" lon="2.06734">
        <ele>1838.118896</ele>
        <time>2011-09-24T13:30:26Z</time>
      </trkpt>
      <trkpt lat="42.57973" lon="2.06725">
        <ele>1837.415039</ele>
        <time>2011-09-24T13:30:27Z</time>
      </trkpt>
      <trkpt lat="42.57967" lon="2.06714">
        <ele>1836.985352</ele>
        <time>2011-09-24T13:30:28Z</time>
      </trkpt>
      <trkpt lat="42.57964" lon="2.06704">
        <ele>1836.629639</ele>
        <time>2011-09-24T13:30:29Z</time>
      </trkpt>
      <trkpt lat="42.57962" lon="2.06694">
        <ele>1836.27002</ele>
        <time>2011-09-24T13:30:30Z</time>
      </trkpt>
      <trkpt lat="42.57958" lon="2.06687">
        <ele>1836.054932</ele>
        <time>2011-09-24T13:30:31Z</time>
      </trkpt>
      <trkpt lat="42.57955" lon="2.0668">
        <ele>1836.054932</ele>
        <time>2011-09-24T13:30:32Z</time>
      </trkpt>
      <trkpt lat="42.57953" lon="2.06674">
        <ele>1835.996704</ele>
        <time>2011-09-24T13:30:33Z</time>
      </trkpt>
      <trkpt lat="42.5795" lon="2.06668">
        <ele>1835.916138</ele>
        <time>2011-09-24T13:30:34Z</time>
      </trkpt>
      <trkpt lat="42.57947" lon="2.06661">
        <ele>1834.710815</ele>
        <time>2011-09-24T13:30:35Z</time>
      </trkpt>
      <trkpt lat="42.57944" lon="2.06654">
        <ele>1833.447998</ele>
        <time>2011-09-24T13:30:36Z</time>
      </trkpt>
      <trkpt lat="42.57939" lon="2.06645">
        <ele>1831.880981</ele>
        <time>2011-09-24T13:30:37Z</time>
      </trkpt>
      <trkpt lat="42.57934" lon="2.06634">
        <ele>1830.55188</ele>
        <time>2011-09-24T13:30:38Z</time>
      </trkpt>
      <trkpt lat="42.57928" lon="2.06621">
        <ele>1829.887451</ele>
        <time>2011-09-24T13:30:39Z</time>
      </trkpt>
      <trkpt lat="42.57923" lon="2.06609">
        <ele>1828.719727</ele>
        <time>2011-09-24T13:30:40Z</time>
      </trkpt>
      <trkpt lat="42.57919" lon="2.06596">
        <ele>1827.053589</ele>
        <time>2011-09-24T13:30:41Z</time>
      </trkpt>
      <trkpt lat="42.57915" lon="2.06583">
        <ele>1824.831055</ele>
        <time>2011-09-24T13:30:42Z</time>
      </trkpt>
      <trkpt lat="42.57912" lon="2.06573">
        <ele>1823.252808</ele>
        <time>2011-09-24T13:30:43Z</time>
      </trkpt>
      <trkpt lat="42.57909" lon="2.06561">
        <ele>1821.472534</ele>
        <time>2011-09-24T13:30:44Z</time>
      </trkpt>
      <trkpt lat="42.57906" lon="2.06551">
        <ele>1820.149536</ele>
        <time>2011-09-24T13:30:45Z</time>
      </trkpt>
      <trkpt lat="42.57902" lon="2.0654">
        <ele>1818.721924</ele>
        <time>2011-09-24T13:30:46Z</time>
      </trkpt>
      <trkpt lat="42.57899" lon="2.06529">
        <ele>1817.642334</ele>
        <time>2011-09-24T13:30:47Z</time>
      </trkpt>
      <trkpt lat="42.57897" lon="2.06521">
        <ele>1815.553467</ele>
        <time>2011-09-24T13:30:48Z</time>
      </trkpt>
      <trkpt lat="42.57895" lon="2.06514">
        <ele>1812.786621</ele>
        <time>2011-09-24T13:30:49Z</time>
      </trkpt>
      <trkpt lat="42.57894" lon="2.06506">
        <ele>1810.30835</ele>
        <time>2011-09-24T13:30:50Z</time>
      </trkpt>
      <trkpt lat="42.57892" lon="2.06498">
        <ele>1808.337158</ele>
        <time>2011-09-24T13:30:51Z</time>
      </trkpt>
      <trkpt lat="42.5789" lon="2.0649">
        <ele>1806.138184</ele>
        <time>2011-09-24T13:30:52Z</time>
      </trkpt>
      <trkpt lat="42.57887" lon="2.06481">
        <ele>1803.914551</ele>
        <time>2011-09-24T13:30:53Z</time>
      </trkpt>
      <trkpt lat="42.57883" lon="2.0647">
        <ele>1802.642578</ele>
        <time>2011-09-24T13:30:54Z</time>
      </trkpt>
      <trkpt lat="42.57879" lon="2.0646">
        <ele>1800.651611</ele>
        <time>2011-09-24T13:30:55Z</time>
      </trkpt>
      <trkpt lat="42.57875" lon="2.06451">
        <ele>1799.100342</ele>
        <time>2011-09-24T13:30:56Z</time>
      </trkpt>
      <trkpt lat="42.5787" lon="2.06442">
        <ele>1798.368164</ele>
        <time>2011-09-24T13:30:57Z</time>
      </trkpt>
      <trkpt lat="42.57867" lon="2.06435">
        <ele>1797.322388</ele>
        <time>2011-09-24T13:30:58Z</time>
      </trkpt>
      <trkpt lat="42.57864" lon="2.06429">
        <ele>1797.322388</ele>
        <time>2011-09-24T13:30:59Z</time>
      </trkpt>
      <trkpt lat="42.57861" lon="2.06422">
        <ele>1796.467896</ele>
        <time>2011-09-24T13:31:00Z</time>
      </trkpt>
      <trkpt lat="42.57857" lon="2.06415">
        <ele>1795.303101</ele>
        <time>2011-09-24T13:31:01Z</time>
      </trkpt>
      <trkpt lat="42.57853" lon="2.06407">
        <ele>1794.088379</ele>
        <time>2011-09-24T13:31:02Z</time>
      </trkpt>
      <trkpt lat="42.57847" lon="2.06399">
        <ele>1793.067261</ele>
        <time>2011-09-24T13:31:03Z</time>
      </trkpt>
      <trkpt lat="42.5784" lon="2.06391">
        <ele>1792.188477</ele>
        <time>2011-09-24T13:31:04Z</time>
      </trkpt>
      <trkpt lat="42.57835" lon="2.06382">
        <ele>1791.341797</ele>
        <time>2011-09-24T13:31:05Z</time>
      </trkpt>
      <trkpt lat="42.57828" lon="2.06376">
        <ele>1790.540771</ele>
        <time>2011-09-24T13:31:06Z</time>
      </trkpt>
      <trkpt lat="42.5782" lon="2.06373">
        <ele>1789.10437</ele>
        <time>2011-09-24T13:31:07Z</time>
      </trkpt>
      <trkpt lat="42.57811" lon="2.0637">
        <ele>1787.317871</ele>
        <time>2011-09-24T13:31:08Z</time>
      </trkpt>
      <trkpt lat="42.578" lon="2.06371">
        <ele>1784.893066</ele>
        <time>2011-09-24T13:31:09Z</time>
      </trkpt>
      <trkpt lat="42.57788" lon="2.06373">
        <ele>1782.061523</ele>
        <time>2011-09-24T13:31:10Z</time>
      </trkpt>
      <trkpt lat="42.57777" lon="2.06377">
        <ele>1779.183594</ele>
        <time>2011-09-24T13:31:11Z</time>
      </trkpt>
      <trkpt lat="42.57767" lon="2.06382">
        <ele>1776.465576</ele>
        <time>2011-09-24T13:31:12Z</time>
      </trkpt>
      <trkpt lat="42.57756" lon="2.06389">
        <ele>1773.903931</ele>
        <time>2011-09-24T13:31:13Z</time>
      </trkpt>
      <trkpt lat="42.57746" lon="2.06396">
        <ele>1771.552246</ele>
        <time>2011-09-24T13:31:14Z</time>
      </trkpt>
      <trkpt lat="42.57737" lon="2.06403">
        <ele>1769.366943</ele>
        <time>2011-09-24T13:31:15Z</time>
      </trkpt>
      <trkpt lat="42.57727" lon="2.06411">
        <ele>1767.349487</ele>
        <time>2011-09-24T13:31:16Z</time>
      </trkpt>
      <trkpt lat="42.57718" lon="2.06421">
        <ele>1765.440186</ele>
        <time>2011-09-24T13:31:17Z</time>
      </trkpt>
      <trkpt lat="42.57708" lon="2.0643">
        <ele>1763.754028</ele>
        <time>2011-09-24T13:31:18Z</time>
      </trkpt>
      <trkpt lat="42.57702" lon="2.06442">
        <ele>1762.403564</ele>
        <time>2011-09-24T13:31:19Z</time>
      </trkpt>
      <trkpt lat="42.57695" lon="2.06453">
        <ele>1761.171265</ele>
        <time>2011-09-24T13:31:20Z</time>
      </trkpt>
      <trkpt lat="42.57689" lon="2.06463">
        <ele>1760.157349</ele>
        <time>2011-09-24T13:31:21Z</time>
      </trkpt>
      <trkpt lat="42.57684" lon="2.06472">
        <ele>1759.460571</ele>
        <time>2011-09-24T13:31:22Z</time>
      </trkpt>
      <trkpt lat="42.57679" lon="2.0648">
        <ele>1758.93811</ele>
        <time>2011-09-24T13:31:23Z</time>
      </trkpt>
      <trkpt lat="42.57675" lon="2.06488">
        <ele>1758.424683</ele>
        <time>2011-09-24T13:31:24Z</time>
      </trkpt>
      <trkpt lat="42.57671" lon="2.06495">
        <ele>1758.156616</ele>
        <time>2011-09-24T13:31:25Z</time>
      </trkpt>
      <trkpt lat="42.57667" lon="2.06502">
        <ele>1757.98877</ele>
        <time>2011-09-24T13:31:26Z</time>
      </trkpt>
      <trkpt lat="42.57663" lon="2.06509">
        <ele>1758.045288</ele>
        <time>2011-09-24T13:31:27Z</time>
      </trkpt>
      <trkpt lat="42.5766" lon="2.06516">
        <ele>1758.056519</ele>
        <time>2011-09-24T13:31:28Z</time>
      </trkpt>
      <trkpt lat="42.57656" lon="2.06524">
        <ele>1757.978394</ele>
        <time>2011-09-24T13:31:29Z</time>
      </trkpt>
      <trkpt lat="42.57652" lon="2.06531">
        <ele>1757.865967</ele>
        <time>2011-09-24T13:31:30Z</time>
      </trkpt>
      <trkpt lat="42.57648" lon="2.06538">
        <ele>1757.732788</ele>
        <time>2011-09-24T13:31:31Z</time>
      </trkpt>
      <trkpt lat="42.57644" lon="2.06545">
        <ele>1757.657959</ele>
        <time>2011-09-24T13:31:32Z</time>
      </trkpt>
      <trkpt lat="42.57642" lon="2.06552">
        <ele>1757.571655</ele>
        <time>2011-09-24T13:31:33Z</time>
      </trkpt>
      <trkpt lat="42.57641" lon="2.06559">
        <ele>1757.30481</ele>
        <time>2011-09-24T13:31:34Z</time>
      </trkpt>
      <trkpt lat="42.57645" lon="2.06565">
        <ele>1757.171509</ele>
        <time>2011-09-24T13:31:35Z</time>
      </trkpt>
      <trkpt lat="42.57651" lon="2.06567">
        <ele>1756.817261</ele>
        <time>2011-09-24T13:31:36Z</time>
      </trkpt>
      <trkpt lat="42.57657" lon="2.06569">
        <ele>1756.423706</ele>
        <time>2011-09-24T13:31:37Z</time>
      </trkpt>
      <trkpt lat="42.57662" lon="2.06566">
        <ele>1755.771362</ele>
        <time>2011-09-24T13:31:38Z</time>
      </trkpt>
      <trkpt lat="42.57671" lon="2.06579">
        <ele>1754.754517</ele>
        <time>2011-09-24T13:31:41Z</time>
      </trkpt>
      <trkpt lat="42.57673" lon="2.06584">
        <ele>1753.479126</ele>
        <time>2011-09-24T13:31:42Z</time>
      </trkpt>
      <trkpt lat="42.57669" lon="2.06595">
        <ele>1749.88562</ele>
        <time>2011-09-24T13:31:44Z</time>
      </trkpt>
      <trkpt lat="42.57665" lon="2.06603">
        <ele>1746.665405</ele>
        <time>2011-09-24T13:31:46Z</time>
      </trkpt>
      <trkpt lat="42.57667" lon="2.06616">
        <ele>1744.203003</ele>
        <time>2011-09-24T13:31:48Z</time>
      </trkpt>
      <trkpt lat="42.57669" lon="2.06624">
        <ele>1742.875122</ele>
        <time>2011-09-24T13:31:49Z</time>
      </trkpt>
      <trkpt lat="42.57671" lon="2.06635">
        <ele>1741.481201</ele>
        <time>2011-09-24T13:31:51Z</time>
      </trkpt>
      <trkpt lat="42.5767" lon="2.06643">
        <ele>1741.258545</ele>
        <time>2011-09-24T13:31:53Z</time>
      </trkpt>
      <trkpt lat="42.57666" lon="2.0665">
        <ele>1740.993286</ele>
        <time>2011-09-24T13:31:55Z</time>
      </trkpt>
      <trkpt lat="42.57663" lon="2.06659">
        <ele>1740.67041</ele>
        <time>2011-09-24T13:31:57Z</time>
      </trkpt>
      <trkpt lat="42.5766" lon="2.06665">
        <ele>1738.816772</ele>
        <time>2011-09-24T13:31:58Z</time>
      </trkpt>
      <trkpt lat="42.57657" lon="2.06673">
        <ele>1737.311035</ele>
        <time>2011-09-24T13:31:59Z</time>
      </trkpt>
      <trkpt lat="42.57652" lon="2.06683">
        <ele>1735.927368</ele>
        <time>2011-09-24T13:32:00Z</time>
      </trkpt>
      <trkpt lat="42.57647" lon="2.06692">
        <ele>1734.954102</ele>
        <time>2011-09-24T13:32:01Z</time>
      </trkpt>
      <trkpt lat="42.57645" lon="2.06702">
        <ele>1733.995728</ele>
        <time>2011-09-24T13:32:02Z</time>
      </trkpt>
      <trkpt lat="42.57642" lon="2.06712">
        <ele>1732.106567</ele>
        <time>2011-09-24T13:32:03Z</time>
      </trkpt>
      <trkpt lat="42.5764" lon="2.06724">
        <ele>1729.442383</ele>
        <time>2011-09-24T13:32:04Z</time>
      </trkpt>
      <trkpt lat="42.57639" lon="2.06736">
        <ele>1726.677734</ele>
        <time>2011-09-24T13:32:05Z</time>
      </trkpt>
      <trkpt lat="42.57637" lon="2.06747">
        <ele>1723.475586</ele>
        <time>2011-09-24T13:32:06Z</time>
      </trkpt>
      <trkpt lat="42.57632" lon="2.06756">
        <ele>1720.07251</ele>
        <time>2011-09-24T13:32:07Z</time>
      </trkpt>
      <trkpt lat="42.57626" lon="2.06765">
        <ele>1716.777466</ele>
        <time>2011-09-24T13:32:08Z</time>
      </trkpt>
      <trkpt lat="42.57619" lon="2.06772">
        <ele>1713.549194</ele>
        <time>2011-09-24T13:32:09Z</time>
      </trkpt>
      <trkpt lat="42.57612" lon="2.0678">
        <ele>1710.432617</ele>
        <time>2011-09-24T13:32:10Z</time>
      </trkpt>
      <trkpt lat="42.57605" lon="2.06787">
        <ele>1707.557251</ele>
        <time>2011-09-24T13:32:11Z</time>
      </trkpt>
      <trkpt lat="42.57597" lon="2.0679">
        <ele>1704.909302</ele>
        <time>2011-09-24T13:32:12Z</time>
      </trkpt>
      <trkpt lat="42.57589" lon="2.06792">
        <ele>1702.68103</ele>
        <time>2011-09-24T13:32:13Z</time>
      </trkpt>
      <trkpt lat="42.57581" lon="2.06794">
        <ele>1700.513062</ele>
        <time>2011-09-24T13:32:14Z</time>
      </trkpt>
      <trkpt lat="42.57573" lon="2.06796">
        <ele>1698.400757</ele>
        <time>2011-09-24T13:32:15Z</time>
      </trkpt>
      <trkpt lat="42.57565" lon="2.068">
        <ele>1696.296631</ele>
        <time>2011-09-24T13:32:16Z</time>
      </trkpt>
      <trkpt lat="42.57556" lon="2.06805">
        <ele>1694.202759</ele>
        <time>2011-09-24T13:32:17Z</time>
      </trkpt>
      <trkpt lat="42.57546" lon="2.06811">
        <ele>1692.183838</ele>
        <time>2011-09-24T13:32:18Z</time>
      </trkpt>
      <trkpt lat="42.57537" lon="2.06816">
        <ele>1690.275024</ele>
        <time>2011-09-24T13:32:19Z</time>
      </trkpt>
      <trkpt lat="42.57529" lon="2.06823">
        <ele>1688.530029</ele>
        <time>2011-09-24T13:32:20Z</time>
      </trkpt>
      <trkpt lat="42.57521" lon="2.06831">
        <ele>1686.964722</ele>
        <time>2011-09-24T13:32:21Z</time>
      </trkpt>
      <trkpt lat="42.57513" lon="2.06841">
        <ele>1685.338745</ele>
        <time>2011-09-24T13:32:22Z</time>
      </trkpt>
      <trkpt lat="42.57508" lon="2.06855">
        <ele>1684.033813</ele>
        <time>2011-09-24T13:32:23Z</time>
      </trkpt>
      <trkpt lat="42.57503" lon="2.06869">
        <ele>1683.113403</ele>
        <time>2011-09-24T13:32:24Z</time>
      </trkpt>
      <trkpt lat="42.57497" lon="2.06882">
        <ele>1682.211304</ele>
        <time>2011-09-24T13:32:25Z</time>
      </trkpt>
      <trkpt lat="42.57492" lon="2.06896">
        <ele>1682.211304</ele>
        <time>2011-09-24T13:32:26Z</time>
      </trkpt>
      <trkpt lat="42.57493" lon="2.06903">
        <ele>1680.533325</ele>
        <time>2011-09-24T13:32:28Z</time>
      </trkpt>
      <trkpt lat="42.57491" lon="2.06909">
        <ele>1680.395142</ele>
        <time>2011-09-24T13:32:30Z</time>
      </trkpt>
      <trkpt lat="42.57492" lon="2.06916">
        <ele>1680.306396</ele>
        <time>2011-09-24T13:32:32Z</time>
      </trkpt>
      <trkpt lat="42.57491" lon="2.06923">
        <ele>1679.403564</ele>
        <time>2011-09-24T13:32:51Z</time>
      </trkpt>
      <trkpt lat="42.57485" lon="2.06928">
        <ele>1679.094116</ele>
        <time>2011-09-24T13:32:53Z</time>
      </trkpt>
      <trkpt lat="42.57481" lon="2.06935">
        <ele>1678.720581</ele>
        <time>2011-09-24T13:32:55Z</time>
      </trkpt>
      <trkpt lat="42.57478" lon="2.0694">
        <ele>1678.258545</ele>
        <time>2011-09-24T13:32:57Z</time>
      </trkpt>
      <trkpt lat="42.57473" lon="2.06946">
        <ele>1677.463623</ele>
        <time>2011-09-24T13:33:00Z</time>
      </trkpt>
      <trkpt lat="42.57469" lon="2.06949">
        <ele>1676.611572</ele>
        <time>2011-09-24T13:33:03Z</time>
      </trkpt>
      <trkpt lat="42.57463" lon="2.06957">
        <ele>1664.75</ele>
        <time>2011-09-24T13:36:48Z</time>
      </trkpt>
      <trkpt lat="42.57468" lon="2.06957">
        <ele>1664.28064</ele>
        <time>2011-09-24T13:37:04Z</time>
      </trkpt>
      <trkpt lat="42.57465" lon="2.06952">
        <ele>1657.439941</ele>
        <time>2011-09-24T13:40:19Z</time>
      </trkpt>
      <trkpt lat="42.5747" lon="2.06948">
        <ele>1655.73877</ele>
        <time>2011-09-24T13:41:16Z</time>
      </trkpt>
      <trkpt lat="42.57474" lon="2.06943">
        <ele>1655.52063</ele>
        <time>2011-09-24T13:41:20Z</time>
      </trkpt>
      <trkpt lat="42.57477" lon="2.06939">
        <ele>1655.388672</ele>
        <time>2011-09-24T13:41:23Z</time>
      </trkpt>
      <trkpt lat="42.57482" lon="2.06937">
        <ele>1655.296997</ele>
        <time>2011-09-24T13:41:26Z</time>
      </trkpt>
      <trkpt lat="42.57487" lon="2.06934">
        <ele>1655.302612</ele>
        <time>2011-09-24T13:41:30Z</time>
      </trkpt>
      <trkpt lat="42.57493" lon="2.06932">
        <ele>1655.500488</ele>
        <time>2011-09-24T13:41:33Z</time>
      </trkpt>
      <trkpt lat="42.57497" lon="2.06927">
        <ele>1655.720215</ele>
        <time>2011-09-24T13:41:35Z</time>
      </trkpt>
      <trkpt lat="42.57498" lon="2.06921">
        <ele>1656.080566</ele>
        <time>2011-09-24T13:41:38Z</time>
      </trkpt>
      <trkpt lat="42.57493" lon="2.06918">
        <ele>1656.980225</ele>
        <time>2011-09-24T13:41:49Z</time>
      </trkpt>
      <trkpt lat="42.5749" lon="2.06921">
        <ele>1657.258057</ele>
        <time>2011-09-24T13:41:56Z</time>
      </trkpt>
      <trkpt lat="42.57484" lon="2.06922">
        <ele>1657.296265</ele>
        <time>2011-09-24T13:42:00Z</time>
      </trkpt>
      <trkpt lat="42.57479" lon="2.06925">
        <ele>1657.102905</ele>
        <time>2011-09-24T13:42:08Z</time>
      </trkpt>
      <trkpt lat="42.57479" lon="2.06931">
        <ele>1657.027344</ele>
        <time>2011-09-24T13:42:15Z</time>
      </trkpt>
      <trkpt lat="42.57478" lon="2.06938">
        <ele>1656.718384</ele>
        <time>2011-09-24T13:42:28Z</time>
      </trkpt>
      <trkpt lat="42.57476" lon="2.06932">
        <ele>1654.675903</ele>
        <time>2011-09-24T13:43:00Z</time>
      </trkpt>
      <trkpt lat="42.57475" lon="2.06925">
        <ele>1653.785767</ele>
        <time>2011-09-24T13:43:09Z</time>
      </trkpt>
      <trkpt lat="42.57475" lon="2.06918">
        <ele>1653.322876</ele>
        <time>2011-09-24T13:43:14Z</time>
      </trkpt>
      <trkpt lat="42.57477" lon="2.06912">
        <ele>1652.820312</ele>
        <time>2011-09-24T13:43:21Z</time>
      </trkpt>
      <trkpt lat="42.5748" lon="2.06907">
        <ele>1650.942383</ele>
        <time>2011-09-24T13:43:29Z</time>
      </trkpt>
      <trkpt lat="42.5748" lon="2.06905">
        <ele>1650.745728</ele>
        <time>2011-09-24T13:43:30Z</time>
      </trkpt>
      <trkpt lat="42.57481" lon="2.06896">
        <ele>1649.999146</ele>
        <time>2011-09-24T13:43:33Z</time>
      </trkpt>
      <trkpt lat="42.57481" lon="2.06888">
        <ele>1649.461304</ele>
        <time>2011-09-24T13:43:35Z</time>
      </trkpt>
      <trkpt lat="42.57481" lon="2.06884">
        <ele>1649.275391</ele>
        <time>2011-09-24T13:43:36Z</time>
      </trkpt>
      <trkpt lat="42.57481" lon="2.06874">
        <ele>1649.028564</ele>
        <time>2011-09-24T13:43:38Z</time>
      </trkpt>
      <trkpt lat="42.57481" lon="2.06867">
        <ele>1648.878662</ele>
        <time>2011-09-24T13:43:40Z</time>
      </trkpt>
      <trkpt lat="42.5748" lon="2.0686">
        <ele>1648.853149</ele>
        <time>2011-09-24T13:43:42Z</time>
      </trkpt>
      <trkpt lat="42.57479" lon="2.06852">
        <ele>1648.917114</ele>
        <time>2011-09-24T13:43:44Z</time>
      </trkpt>
      <trkpt lat="42.57476" lon="2.06844">
        <ele>1649.133179</ele>
        <time>2011-09-24T13:43:46Z</time>
      </trkpt>
      <trkpt lat="42.57473" lon="2.06833">
        <ele>1649.53186</ele>
        <time>2011-09-24T13:43:48Z</time>
      </trkpt>
      <trkpt lat="42.57472" lon="2.06827">
        <ele>1649.812378</ele>
        <time>2011-09-24T13:43:49Z</time>
      </trkpt>
      <trkpt lat="42.57471" lon="2.06821">
        <ele>1650.126831</ele>
        <time>2011-09-24T13:43:50Z</time>
      </trkpt>
      <trkpt lat="42.57469" lon="2.0681">
        <ele>1650.758911</ele>
        <time>2011-09-24T13:43:52Z</time>
      </trkpt>
      <trkpt lat="42.57467" lon="2.06802">
        <ele>1651.373657</ele>
        <time>2011-09-24T13:43:54Z</time>
      </trkpt>
      <trkpt lat="42.57467" lon="2.06794">
        <ele>1651.972046</ele>
        <time>2011-09-24T13:43:56Z</time>
      </trkpt>
      <trkpt lat="42.57467" lon="2.06786">
        <ele>1652.634155</ele>
        <time>2011-09-24T13:43:58Z</time>
      </trkpt>
      <trkpt lat="42.57467" lon="2.06778">
        <ele>1653.255981</ele>
        <time>2011-09-24T13:44:00Z</time>
      </trkpt>
      <trkpt lat="42.57466" lon="2.06771">
        <ele>1653.838623</ele>
        <time>2011-09-24T13:44:02Z</time>
      </trkpt>
      <trkpt lat="42.57467" lon="2.06764">
        <ele>1654.427734</ele>
        <time>2011-09-24T13:44:04Z</time>
      </trkpt>
      <trkpt lat="42.57467" lon="2.06756">
        <ele>1655.085571</ele>
        <time>2011-09-24T13:44:06Z</time>
      </trkpt>
      <trkpt lat="42.57467" lon="2.06752">
        <ele>1655.445557</ele>
        <time>2011-09-24T13:44:07Z</time>
      </trkpt>
      <trkpt lat="42.57467" lon="2.06745">
        <ele>1656.175293</ele>
        <time>2011-09-24T13:44:09Z</time>
      </trkpt>
      <trkpt lat="42.57468" lon="2.06741">
        <ele>1656.5177</ele>
        <time>2011-09-24T13:44:10Z</time>
      </trkpt>
      <trkpt lat="42.57468" lon="2.06733">
        <ele>1657.237305</ele>
        <time>2011-09-24T13:44:12Z</time>
      </trkpt>
      <trkpt lat="42.57468" lon="2.06726">
        <ele>1657.923218</ele>
        <time>2011-09-24T13:44:14Z</time>
      </trkpt>
      <trkpt lat="42.57469" lon="2.06719">
        <ele>1658.630981</ele>
        <time>2011-09-24T13:44:16Z</time>
      </trkpt>
      <trkpt lat="42.57469" lon="2.06713">
        <ele>1659.380127</ele>
        <time>2011-09-24T13:44:18Z</time>
      </trkpt>
      <trkpt lat="42.57469" lon="2.0671">
        <ele>1659.76416</ele>
        <time>2011-09-24T13:44:19Z</time>
      </trkpt>
      <trkpt lat="42.57468" lon="2.06702">
        <ele>1660.44873</ele>
        <time>2011-09-24T13:44:21Z</time>
      </trkpt>
      <trkpt lat="42.57468" lon="2.06698">
        <ele>1660.769043</ele>
        <time>2011-09-24T13:44:22Z</time>
      </trkpt>
      <trkpt lat="42.57467" lon="2.06689">
        <ele>1661.37085</ele>
        <time>2011-09-24T13:44:24Z</time>
      </trkpt>
      <trkpt lat="42.57467" lon="2.06679">
        <ele>1662.120361</ele>
        <time>2011-09-24T13:44:26Z</time>
      </trkpt>
      <trkpt lat="42.57466" lon="2.06674">
        <ele>1662.518311</ele>
        <time>2011-09-24T13:44:27Z</time>
      </trkpt>
      <trkpt lat="42.57465" lon="2.06664">
        <ele>1663.368164</ele>
        <time>2011-09-24T13:44:29Z</time>
      </trkpt>
      <trkpt lat="42.57464" lon="2.06654">
        <ele>1664.249268</ele>
        <time>2011-09-24T13:44:31Z</time>
      </trkpt>
      <trkpt lat="42.57463" lon="2.06645">
        <ele>1665.135254</ele>
        <time>2011-09-24T13:44:33Z</time>
      </trkpt>
      <trkpt lat="42.57462" lon="2.06636">
        <ele>1666.033447</ele>
        <time>2011-09-24T13:44:35Z</time>
      </trkpt>
      <trkpt lat="42.57461" lon="2.06628">
        <ele>1667.015259</ele>
        <time>2011-09-24T13:44:37Z</time>
      </trkpt>
      <trkpt lat="42.5746" lon="2.06624">
        <ele>1667.567139</ele>
        <time>2011-09-24T13:44:38Z</time>
      </trkpt>
      <trkpt lat="42.57459" lon="2.06617">
        <ele>1668.736816</ele>
        <time>2011-09-24T13:44:40Z</time>
      </trkpt>
      <trkpt lat="42.57458" lon="2.0661">
        <ele>1669.956543</ele>
        <time>2011-09-24T13:44:42Z</time>
      </trkpt>
      <trkpt lat="42.57458" lon="2.06604">
        <ele>1671.224487</ele>
        <time>2011-09-24T13:44:44Z</time>
      </trkpt>
      <trkpt lat="42.57456" lon="2.06598">
        <ele>1672.503418</ele>
        <time>2011-09-24T13:44:46Z</time>
      </trkpt>
      <trkpt lat="42.57455" lon="2.06592">
        <ele>1673.741699</ele>
        <time>2011-09-24T13:44:48Z</time>
      </trkpt>
      <trkpt lat="42.57454" lon="2.06585">
        <ele>1674.981445</ele>
        <time>2011-09-24T13:44:50Z</time>
      </trkpt>
      <trkpt lat="42.57454" lon="2.06578">
        <ele>1676.267456</ele>
        <time>2011-09-24T13:44:52Z</time>
      </trkpt>
      <trkpt lat="42.57453" lon="2.06571">
        <ele>1677.610474</ele>
        <time>2011-09-24T13:44:54Z</time>
      </trkpt>
      <trkpt lat="42.57452" lon="2.06564">
        <ele>1678.995728</ele>
        <time>2011-09-24T13:44:56Z</time>
      </trkpt>
      <trkpt lat="42.57452" lon="2.06557">
        <ele>1680.398926</ele>
        <time>2011-09-24T13:44:58Z</time>
      </trkpt>
      <trkpt lat="42.57451" lon="2.06549">
        <ele>1681.795776</ele>
        <time>2011-09-24T13:45:00Z</time>
      </trkpt>
      <trkpt lat="42.57451" lon="2.06545">
        <ele>1682.49353</ele>
        <time>2011-09-24T13:45:01Z</time>
      </trkpt>
      <trkpt lat="42.5745" lon="2.06537">
        <ele>1683.90271</ele>
        <time>2011-09-24T13:45:03Z</time>
      </trkpt>
      <trkpt lat="42.57449" lon="2.06529">
        <ele>1685.332642</ele>
        <time>2011-09-24T13:45:05Z</time>
      </trkpt>
      <trkpt lat="42.57448" lon="2.0652">
        <ele>1686.771606</ele>
        <time>2011-09-24T13:45:07Z</time>
      </trkpt>
      <trkpt lat="42.57448" lon="2.06512">
        <ele>1688.217651</ele>
        <time>2011-09-24T13:45:09Z</time>
      </trkpt>
      <trkpt lat="42.57447" lon="2.06503">
        <ele>1689.696655</ele>
        <time>2011-09-24T13:45:11Z</time>
      </trkpt>
      <trkpt lat="42.57446" lon="2.06494">
        <ele>1691.213989</ele>
        <time>2011-09-24T13:45:13Z</time>
      </trkpt>
      <trkpt lat="42.57444" lon="2.06485">
        <ele>1692.766479</ele>
        <time>2011-09-24T13:45:15Z</time>
      </trkpt>
      <trkpt lat="42.57443" lon="2.06477">
        <ele>1694.344604</ele>
        <time>2011-09-24T13:45:17Z</time>
      </trkpt>
      <trkpt lat="42.57442" lon="2.06469">
        <ele>1695.92041</ele>
        <time>2011-09-24T13:45:19Z</time>
      </trkpt>
      <trkpt lat="42.5744" lon="2.06461">
        <ele>1697.490356</ele>
        <time>2011-09-24T13:45:21Z</time>
      </trkpt>
      <trkpt lat="42.57439" lon="2.06453">
        <ele>1698.994873</ele>
        <time>2011-09-24T13:45:23Z</time>
      </trkpt>
      <trkpt lat="42.57438" lon="2.06445">
        <ele>1700.473755</ele>
        <time>2011-09-24T13:45:25Z</time>
      </trkpt>
      <trkpt lat="42.57437" lon="2.06436">
        <ele>1701.973145</ele>
        <time>2011-09-24T13:45:27Z</time>
      </trkpt>
      <trkpt lat="42.57436" lon="2.06427">
        <ele>1703.483276</ele>
        <time>2011-09-24T13:45:29Z</time>
      </trkpt>
      <trkpt lat="42.57435" lon="2.06419">
        <ele>1704.988892</ele>
        <time>2011-09-24T13:45:31Z</time>
      </trkpt>
      <trkpt lat="42.57434" lon="2.06409">
        <ele>1706.543701</ele>
        <time>2011-09-24T13:45:33Z</time>
      </trkpt>
      <trkpt lat="42.57433" lon="2.06399">
        <ele>1708.078735</ele>
        <time>2011-09-24T13:45:35Z</time>
      </trkpt>
      <trkpt lat="42.57432" lon="2.06389">
        <ele>1709.5896</ele>
        <time>2011-09-24T13:45:37Z</time>
      </trkpt>
      <trkpt lat="42.57431" lon="2.0638">
        <ele>1711.105103</ele>
        <time>2011-09-24T13:45:39Z</time>
      </trkpt>
      <trkpt lat="42.5743" lon="2.06371">
        <ele>1712.653564</ele>
        <time>2011-09-24T13:45:41Z</time>
      </trkpt>
      <trkpt lat="42.57429" lon="2.0636">
        <ele>1714.419678</ele>
        <time>2011-09-24T13:45:43Z</time>
      </trkpt>
      <trkpt lat="42.57428" lon="2.0635">
        <ele>1716.253784</ele>
        <time>2011-09-24T13:45:45Z</time>
      </trkpt>
      <trkpt lat="42.57427" lon="2.0634">
        <ele>1718.157349</ele>
        <time>2011-09-24T13:45:47Z</time>
      </trkpt>
      <trkpt lat="42.57426" lon="2.0633">
        <ele>1720.118896</ele>
        <time>2011-09-24T13:45:49Z</time>
      </trkpt>
      <trkpt lat="42.57425" lon="2.06322">
        <ele>1722.125732</ele>
        <time>2011-09-24T13:45:51Z</time>
      </trkpt>
      <trkpt lat="42.57424" lon="2.06313">
        <ele>1724.191406</ele>
        <time>2011-09-24T13:45:53Z</time>
      </trkpt>
      <trkpt lat="42.57422" lon="2.06304">
        <ele>1726.290894</ele>
        <time>2011-09-24T13:45:55Z</time>
      </trkpt>
      <trkpt lat="42.57421" lon="2.06295">
        <ele>1728.375244</ele>
        <time>2011-09-24T13:45:57Z</time>
      </trkpt>
      <trkpt lat="42.57418" lon="2.06282">
        <ele>1731.001953</ele>
        <time>2011-09-24T13:45:59Z</time>
      </trkpt>
      <trkpt lat="42.57416" lon="2.06274">
        <ele>1732.567139</ele>
        <time>2011-09-24T13:46:00Z</time>
      </trkpt>
      <trkpt lat="42.57414" lon="2.06266">
        <ele>1734.108643</ele>
        <time>2011-09-24T13:46:01Z</time>
      </trkpt>
      <trkpt lat="42.57412" lon="2.0626">
        <ele>1735.623047</ele>
        <time>2011-09-24T13:46:02Z</time>
      </trkpt>
      <trkpt lat="42.57409" lon="2.06249">
        <ele>1738.585205</ele>
        <time>2011-09-24T13:46:04Z</time>
      </trkpt>
      <trkpt lat="42.57408" lon="2.0624">
        <ele>1741.465454</ele>
        <time>2011-09-24T13:46:06Z</time>
      </trkpt>
      <trkpt lat="42.57407" lon="2.06231">
        <ele>1744.212036</ele>
        <time>2011-09-24T13:46:08Z</time>
      </trkpt>
      <trkpt lat="42.57407" lon="2.06223">
        <ele>1746.843872</ele>
        <time>2011-09-24T13:46:10Z</time>
      </trkpt>
      <trkpt lat="42.57407" lon="2.06215">
        <ele>1749.421021</ele>
        <time>2011-09-24T13:46:12Z</time>
      </trkpt>
      <trkpt lat="42.57406" lon="2.06207">
        <ele>1751.934204</ele>
        <time>2011-09-24T13:46:14Z</time>
      </trkpt>
      <trkpt lat="42.57406" lon="2.062">
        <ele>1754.311035</ele>
        <time>2011-09-24T13:46:16Z</time>
      </trkpt>
      <trkpt lat="42.57406" lon="2.06193">
        <ele>1756.566162</ele>
        <time>2011-09-24T13:46:18Z</time>
      </trkpt>
      <trkpt lat="42.57406" lon="2.06185">
        <ele>1758.744141</ele>
        <time>2011-09-24T13:46:20Z</time>
      </trkpt>
      <trkpt lat="42.57405" lon="2.06178">
        <ele>1760.928955</ele>
        <time>2011-09-24T13:46:22Z</time>
      </trkpt>
      <trkpt lat="42.57405" lon="2.06174">
        <ele>1762.006836</ele>
        <time>2011-09-24T13:46:23Z</time>
      </trkpt>
      <trkpt lat="42.57404" lon="2.06165">
        <ele>1764.143311</ele>
        <time>2011-09-24T13:46:25Z</time>
      </trkpt>
      <trkpt lat="42.57402" lon="2.06156">
        <ele>1766.289062</ele>
        <time>2011-09-24T13:46:27Z</time>
      </trkpt>
      <trkpt lat="42.57401" lon="2.06147">
        <ele>1768.472656</ele>
        <time>2011-09-24T13:46:29Z</time>
      </trkpt>
      <trkpt lat="42.574" lon="2.06138">
        <ele>1770.709229</ele>
        <time>2011-09-24T13:46:31Z</time>
      </trkpt>
      <trkpt lat="42.57398" lon="2.0613">
        <ele>1772.957397</ele>
        <time>2011-09-24T13:46:33Z</time>
      </trkpt>
      <trkpt lat="42.57397" lon="2.06126">
        <ele>1774.08313</ele>
        <time>2011-09-24T13:46:34Z</time>
      </trkpt>
      <trkpt lat="42.57396" lon="2.06116">
        <ele>1776.562256</ele>
        <time>2011-09-24T13:46:36Z</time>
      </trkpt>
      <trkpt lat="42.57394" lon="2.06105">
        <ele>1779.251587</ele>
        <time>2011-09-24T13:46:38Z</time>
      </trkpt>
      <trkpt lat="42.57392" lon="2.06096">
        <ele>1781.899902</ele>
        <time>2011-09-24T13:46:40Z</time>
      </trkpt>
      <trkpt lat="42.5739" lon="2.0609">
        <ele>1783.400757</ele>
        <time>2011-09-24T13:46:41Z</time>
      </trkpt>
      <trkpt lat="42.57389" lon="2.06084">
        <ele>1784.882812</ele>
        <time>2011-09-24T13:46:42Z</time>
      </trkpt>
      <trkpt lat="42.57387" lon="2.06074">
        <ele>1787.797852</ele>
        <time>2011-09-24T13:46:44Z</time>
      </trkpt>
      <trkpt lat="42.57386" lon="2.06066">
        <ele>1790.647583</ele>
        <time>2011-09-24T13:46:46Z</time>
      </trkpt>
      <trkpt lat="42.57385" lon="2.06059">
        <ele>1793.41626</ele>
        <time>2011-09-24T13:46:48Z</time>
      </trkpt>
      <trkpt lat="42.57386" lon="2.0605">
        <ele>1797.377197</ele>
        <time>2011-09-24T13:46:51Z</time>
      </trkpt>
      <trkpt lat="42.57386" lon="2.06044">
        <ele>1799.951416</ele>
        <time>2011-09-24T13:46:53Z</time>
      </trkpt>
      <trkpt lat="42.57386" lon="2.0604">
        <ele>1801.153564</ele>
        <time>2011-09-24T13:46:54Z</time>
      </trkpt>
      <trkpt lat="42.57386" lon="2.06033">
        <ele>1803.540771</ele>
        <time>2011-09-24T13:46:56Z</time>
      </trkpt>
      <trkpt lat="42.57386" lon="2.0603">
        <ele>1804.71582</ele>
        <time>2011-09-24T13:46:57Z</time>
      </trkpt>
      <trkpt lat="42.57385" lon="2.06023">
        <ele>1807.040283</ele>
        <time>2011-09-24T13:46:59Z</time>
      </trkpt>
      <trkpt lat="42.57385" lon="2.06019">
        <ele>1808.192261</ele>
        <time>2011-09-24T13:47:00Z</time>
      </trkpt>
      <trkpt lat="42.57384" lon="2.06012">
        <ele>1810.596069</ele>
        <time>2011-09-24T13:47:02Z</time>
      </trkpt>
      <trkpt lat="42.57384" lon="2.06008">
        <ele>1811.841064</ele>
        <time>2011-09-24T13:47:03Z</time>
      </trkpt>
      <trkpt lat="42.57383" lon="2.05998">
        <ele>1814.366577</ele>
        <time>2011-09-24T13:47:05Z</time>
      </trkpt>
      <trkpt lat="42.57382" lon="2.05989">
        <ele>1816.848755</ele>
        <time>2011-09-24T13:47:07Z</time>
      </trkpt>
      <trkpt lat="42.5738" lon="2.05984">
        <ele>1818.103271</ele>
        <time>2011-09-24T13:47:08Z</time>
      </trkpt>
      <trkpt lat="42.57378" lon="2.05976">
        <ele>1820.654053</ele>
        <time>2011-09-24T13:47:10Z</time>
      </trkpt>
      <trkpt lat="42.57376" lon="2.05969">
        <ele>1823.236938</ele>
        <time>2011-09-24T13:47:12Z</time>
      </trkpt>
      <trkpt lat="42.57375" lon="2.05961">
        <ele>1825.824585</ele>
        <time>2011-09-24T13:47:14Z</time>
      </trkpt>
      <trkpt lat="42.57373" lon="2.05955">
        <ele>1827.482544</ele>
        <time>2011-09-24T13:47:15Z</time>
      </trkpt>
      <trkpt lat="42.57372" lon="2.05949">
        <ele>1829.113892</ele>
        <time>2011-09-24T13:47:16Z</time>
      </trkpt>
      <trkpt lat="42.57369" lon="2.05936">
        <ele>1832.460938</ele>
        <time>2011-09-24T13:47:18Z</time>
      </trkpt>
      <trkpt lat="42.57367" lon="2.05929">
        <ele>1834.224976</ele>
        <time>2011-09-24T13:47:19Z</time>
      </trkpt>
      <trkpt lat="42.57365" lon="2.05922">
        <ele>1835.992065</ele>
        <time>2011-09-24T13:47:20Z</time>
      </trkpt>
      <trkpt lat="42.57363" lon="2.05916">
        <ele>1837.749512</ele>
        <time>2011-09-24T13:47:21Z</time>
      </trkpt>
      <trkpt lat="42.5736" lon="2.05906">
        <ele>1841.183716</ele>
        <time>2011-09-24T13:47:23Z</time>
      </trkpt>
      <trkpt lat="42.57359" lon="2.05898">
        <ele>1844.513306</ele>
        <time>2011-09-24T13:47:25Z</time>
      </trkpt>
      <trkpt lat="42.57358" lon="2.05891">
        <ele>1847.738037</ele>
        <time>2011-09-24T13:47:27Z</time>
      </trkpt>
      <trkpt lat="42.57357" lon="2.05885">
        <ele>1850.755737</ele>
        <time>2011-09-24T13:47:29Z</time>
      </trkpt>
      <trkpt lat="42.57356" lon="2.05876">
        <ele>1855.121704</ele>
        <time>2011-09-24T13:47:32Z</time>
      </trkpt>
      <trkpt lat="42.57355" lon="2.05868">
        <ele>1859.279663</ele>
        <time>2011-09-24T13:47:35Z</time>
      </trkpt>
      <trkpt lat="42.57355" lon="2.05866">
        <ele>1860.608765</ele>
        <time>2011-09-24T13:47:36Z</time>
      </trkpt>
      <trkpt lat="42.57354" lon="2.05857">
        <ele>1864.565308</ele>
        <time>2011-09-24T13:47:39Z</time>
      </trkpt>
      <trkpt lat="42.57353" lon="2.0585">
        <ele>1867.203003</ele>
        <time>2011-09-24T13:47:41Z</time>
      </trkpt>
      <trkpt lat="42.57351" lon="2.05843">
        <ele>1869.853394</ele>
        <time>2011-09-24T13:47:43Z</time>
      </trkpt>
      <trkpt lat="42.5735" lon="2.05835">
        <ele>1872.483765</ele>
        <time>2011-09-24T13:47:45Z</time>
      </trkpt>
      <trkpt lat="42.57349" lon="2.05827">
        <ele>1874.983276</ele>
        <time>2011-09-24T13:47:47Z</time>
      </trkpt>
      <trkpt lat="42.57349" lon="2.05823">
        <ele>1876.200684</ele>
        <time>2011-09-24T13:47:48Z</time>
      </trkpt>
      <trkpt lat="42.57348" lon="2.05817">
        <ele>1877.82605</ele>
        <time>2011-09-24T13:47:49Z</time>
      </trkpt>
      <trkpt lat="42.57348" lon="2.0581">
        <ele>1879.295166</ele>
        <time>2011-09-24T13:47:50Z</time>
      </trkpt>
      <trkpt lat="42.57348" lon="2.05803">
        <ele>1880.758789</ele>
        <time>2011-09-24T13:47:51Z</time>
      </trkpt>
      <trkpt lat="42.57346" lon="2.05792">
        <ele>1883.793213</ele>
        <time>2011-09-24T13:47:53Z</time>
      </trkpt>
      <trkpt lat="42.57345" lon="2.05787">
        <ele>1885.348877</ele>
        <time>2011-09-24T13:47:54Z</time>
      </trkpt>
      <trkpt lat="42.57344" lon="2.05778">
        <ele>1888.385864</ele>
        <time>2011-09-24T13:47:56Z</time>
      </trkpt>
      <trkpt lat="42.57343" lon="2.0577">
        <ele>1891.213013</ele>
        <time>2011-09-24T13:47:58Z</time>
      </trkpt>
      <trkpt lat="42.57342" lon="2.05763">
        <ele>1893.78125</ele>
        <time>2011-09-24T13:48:00Z</time>
      </trkpt>
      <trkpt lat="42.57342" lon="2.05757">
        <ele>1896.248535</ele>
        <time>2011-09-24T13:48:02Z</time>
      </trkpt>
      <trkpt lat="42.57342" lon="2.0575">
        <ele>1898.709229</ele>
        <time>2011-09-24T13:48:04Z</time>
      </trkpt>
      <trkpt lat="42.57342" lon="2.05746">
        <ele>1899.854614</ele>
        <time>2011-09-24T13:48:05Z</time>
      </trkpt>
      <trkpt lat="42.57342" lon="2.05738">
        <ele>1902.170898</ele>
        <time>2011-09-24T13:48:07Z</time>
      </trkpt>
      <trkpt lat="42.57342" lon="2.05733">
        <ele>1903.440308</ele>
        <time>2011-09-24T13:48:08Z</time>
      </trkpt>
      <trkpt lat="42.57342" lon="2.05723">
        <ele>1905.789673</ele>
        <time>2011-09-24T13:48:10Z</time>
      </trkpt>
      <trkpt lat="42.57341" lon="2.05716">
        <ele>1907.199829</ele>
        <time>2011-09-24T13:48:11Z</time>
      </trkpt>
      <trkpt lat="42.57338" lon="2.05706">
        <ele>1910.026245</ele>
        <time>2011-09-24T13:48:13Z</time>
      </trkpt>
      <trkpt lat="42.57336" lon="2.05701">
        <ele>1911.435791</ele>
        <time>2011-09-24T13:48:14Z</time>
      </trkpt>
      <trkpt lat="42.57334" lon="2.05693">
        <ele>1914.224121</ele>
        <time>2011-09-24T13:48:16Z</time>
      </trkpt>
      <trkpt lat="42.57332" lon="2.05686">
        <ele>1916.868408</ele>
        <time>2011-09-24T13:48:18Z</time>
      </trkpt>
      <trkpt lat="42.57331" lon="2.0568">
        <ele>1919.436157</ele>
        <time>2011-09-24T13:48:20Z</time>
      </trkpt>
      <trkpt lat="42.57331" lon="2.05671">
        <ele>1923.242065</ele>
        <time>2011-09-24T13:48:23Z</time>
      </trkpt>
      <trkpt lat="42.5733" lon="2.05663">
        <ele>1926.622681</ele>
        <time>2011-09-24T13:48:26Z</time>
      </trkpt>
      <trkpt lat="42.5733" lon="2.05656">
        <ele>1929.604126</ele>
        <time>2011-09-24T13:48:29Z</time>
      </trkpt>
      <trkpt lat="42.5733" lon="2.05649">
        <ele>1931.726807</ele>
        <time>2011-09-24T13:48:31Z</time>
      </trkpt>
      <trkpt lat="42.5733" lon="2.05646">
        <ele>1932.946533</ele>
        <time>2011-09-24T13:48:32Z</time>
      </trkpt>
      <trkpt lat="42.57329" lon="2.05638">
        <ele>1935.527222</ele>
        <time>2011-09-24T13:48:34Z</time>
      </trkpt>
      <trkpt lat="42.57329" lon="2.05628">
        <ele>1938.070068</ele>
        <time>2011-09-24T13:48:36Z</time>
      </trkpt>
      <trkpt lat="42.57329" lon="2.05618">
        <ele>1940.578735</ele>
        <time>2011-09-24T13:48:38Z</time>
      </trkpt>
      <trkpt lat="42.5733" lon="2.05614">
        <ele>1941.717773</ele>
        <time>2011-09-24T13:48:39Z</time>
      </trkpt>
      <trkpt lat="42.5733" lon="2.05604">
        <ele>1944.075439</ele>
        <time>2011-09-24T13:48:41Z</time>
      </trkpt>
      <trkpt lat="42.5733" lon="2.05598">
        <ele>1945.665405</ele>
        <time>2011-09-24T13:48:42Z</time>
      </trkpt>
      <trkpt lat="42.57328" lon="2.0559">
        <ele>1947.353882</ele>
        <time>2011-09-24T13:48:43Z</time>
      </trkpt>
      <trkpt lat="42.57326" lon="2.05582">
        <ele>1949.028442</ele>
        <time>2011-09-24T13:48:44Z</time>
      </trkpt>
      <trkpt lat="42.57325" lon="2.05576">
        <ele>1950.690308</ele>
        <time>2011-09-24T13:48:45Z</time>
      </trkpt>
      <trkpt lat="42.57323" lon="2.0557">
        <ele>1952.347534</ele>
        <time>2011-09-24T13:48:46Z</time>
      </trkpt>
      <trkpt lat="42.5732" lon="2.0556">
        <ele>1955.462402</ele>
        <time>2011-09-24T13:48:48Z</time>
      </trkpt>
      <trkpt lat="42.57319" lon="2.05551">
        <ele>1958.546387</ele>
        <time>2011-09-24T13:48:50Z</time>
      </trkpt>
      <trkpt lat="42.57317" lon="2.05544">
        <ele>1961.602295</ele>
        <time>2011-09-24T13:48:52Z</time>
      </trkpt>
      <trkpt lat="42.57316" lon="2.05537">
        <ele>1964.780029</ele>
        <time>2011-09-24T13:48:54Z</time>
      </trkpt>
      <trkpt lat="42.57313" lon="2.05531">
        <ele>1967.914795</ele>
        <time>2011-09-24T13:48:56Z</time>
      </trkpt>
      <trkpt lat="42.57311" lon="2.05524">
        <ele>1971.016968</ele>
        <time>2011-09-24T13:48:58Z</time>
      </trkpt>
      <trkpt lat="42.57309" lon="2.05515">
        <ele>1975.550903</ele>
        <time>2011-09-24T13:49:01Z</time>
      </trkpt>
      <trkpt lat="42.57309" lon="2.05513">
        <ele>1977.052856</ele>
        <time>2011-09-24T13:49:02Z</time>
      </trkpt>
      <trkpt lat="42.57307" lon="2.05506">
        <ele>1980.013672</ele>
        <time>2011-09-24T13:49:04Z</time>
      </trkpt>
      <trkpt lat="42.57306" lon="2.05498">
        <ele>1982.913696</ele>
        <time>2011-09-24T13:49:06Z</time>
      </trkpt>
      <trkpt lat="42.57304" lon="2.05489">
        <ele>1985.778687</ele>
        <time>2011-09-24T13:49:08Z</time>
      </trkpt>
      <trkpt lat="42.57303" lon="2.05484">
        <ele>1987.353027</ele>
        <time>2011-09-24T13:49:09Z</time>
      </trkpt>
      <trkpt lat="42.57301" lon="2.05475">
        <ele>1990.274536</ele>
        <time>2011-09-24T13:49:11Z</time>
      </trkpt>
      <trkpt lat="42.573" lon="2.05471">
        <ele>1991.627686</ele>
        <time>2011-09-24T13:49:12Z</time>
      </trkpt>
      <trkpt lat="42.57299" lon="2.05463">
        <ele>1994.35498</ele>
        <time>2011-09-24T13:49:14Z</time>
      </trkpt>
      <trkpt lat="42.57297" lon="2.05454">
        <ele>1997.118408</ele>
        <time>2011-09-24T13:49:16Z</time>
      </trkpt>
      <trkpt lat="42.57295" lon="2.05445">
        <ele>1999.901245</ele>
        <time>2011-09-24T13:49:18Z</time>
      </trkpt>
      <trkpt lat="42.57291" lon="2.05436">
        <ele>2002.754517</ele>
        <time>2011-09-24T13:49:20Z</time>
      </trkpt>
      <trkpt lat="42.5729" lon="2.05432">
        <ele>2004.170776</ele>
        <time>2011-09-24T13:49:21Z</time>
      </trkpt>
      <trkpt lat="42.57287" lon="2.05425">
        <ele>2006.961792</ele>
        <time>2011-09-24T13:49:23Z</time>
      </trkpt>
      <trkpt lat="42.57284" lon="2.05415">
        <ele>2010.469604</ele>
        <time>2011-09-24T13:49:25Z</time>
      </trkpt>
      <trkpt lat="42.57282" lon="2.0541">
        <ele>2012.145142</ele>
        <time>2011-09-24T13:49:26Z</time>
      </trkpt>
      <trkpt lat="42.57279" lon="2.05399">
        <ele>2015.360718</ele>
        <time>2011-09-24T13:49:28Z</time>
      </trkpt>
      <trkpt lat="42.57276" lon="2.05388">
        <ele>2020.035767</ele>
        <time>2011-09-24T13:49:31Z</time>
      </trkpt>
      <trkpt lat="42.57275" lon="2.05382">
        <ele>2023.074585</ele>
        <time>2011-09-24T13:49:33Z</time>
      </trkpt>
      <trkpt lat="42.57273" lon="2.05375">
        <ele>2026.28064</ele>
        <time>2011-09-24T13:49:35Z</time>
      </trkpt>
      <trkpt lat="42.57271" lon="2.05363">
        <ele>2032.208862</ele>
        <time>2011-09-24T13:49:39Z</time>
      </trkpt>
      <trkpt lat="42.57272" lon="2.05356">
        <ele>2034.859253</ele>
        <time>2011-09-24T13:49:43Z</time>
      </trkpt>
      <trkpt lat="42.57273" lon="2.05349">
        <ele>2035.044556</ele>
        <time>2011-09-24T13:49:45Z</time>
      </trkpt>
      <trkpt lat="42.57272" lon="2.05343">
        <ele>2035.237915</ele>
        <time>2011-09-24T13:49:47Z</time>
      </trkpt>
      <trkpt lat="42.57271" lon="2.05336">
        <ele>2035.531128</ele>
        <time>2011-09-24T13:49:50Z</time>
      </trkpt>
      <trkpt lat="42.57269" lon="2.05331">
        <ele>2036.039429</ele>
        <time>2011-09-24T13:49:55Z</time>
      </trkpt>
      <trkpt lat="42.57265" lon="2.05328">
        <ele>2041.906128</ele>
        <time>2011-09-24T13:50:03Z</time>
      </trkpt>
      <trkpt lat="42.57261" lon="2.05323">
        <ele>2050.412598</ele>
        <time>2011-09-24T13:50:11Z</time>
      </trkpt>
      <trkpt lat="42.57256" lon="2.05324">
        <ele>2059.52832</ele>
        <time>2011-09-24T13:50:19Z</time>
      </trkpt>
      <trkpt lat="42.57258" lon="2.05331">
        <ele>2065.452393</ele>
        <time>2011-09-24T13:50:31Z</time>
      </trkpt>
      <trkpt lat="42.57259" lon="2.05338">
        <ele>2069.407471</ele>
        <time>2011-09-24T13:50:36Z</time>
      </trkpt>
      <trkpt lat="42.57259" lon="2.05347">
        <ele>2071.719482</ele>
        <time>2011-09-24T13:50:39Z</time>
      </trkpt>
      <trkpt lat="42.57259" lon="2.05355">
        <ele>2073.253174</ele>
        <time>2011-09-24T13:50:41Z</time>
      </trkpt>
      <trkpt lat="42.5726" lon="2.05363">
        <ele>2074.744385</ele>
        <time>2011-09-24T13:50:43Z</time>
      </trkpt>
      <trkpt lat="42.57262" lon="2.05371">
        <ele>2076.167236</ele>
        <time>2011-09-24T13:50:45Z</time>
      </trkpt>
      <trkpt lat="42.57263" lon="2.05378">
        <ele>2076.852539</ele>
        <time>2011-09-24T13:50:46Z</time>
      </trkpt>
      <trkpt lat="42.57263" lon="2.05384">
        <ele>2079.510254</ele>
        <time>2011-09-24T13:50:50Z</time>
      </trkpt>
      <trkpt lat="42.57263" lon="2.05391">
        <ele>2082.533447</ele>
        <time>2011-09-24T13:50:55Z</time>
      </trkpt>
      <trkpt lat="42.57262" lon="2.05397">
        <ele>2084.772217</ele>
        <time>2011-09-24T13:50:59Z</time>
      </trkpt>
      <trkpt lat="42.57259" lon="2.05403">
        <ele>2087.339111</ele>
        <time>2011-09-24T13:51:04Z</time>
      </trkpt>
      <trkpt lat="42.57258" lon="2.05408">
        <ele>2088.74707</ele>
        <time>2011-09-24T13:51:07Z</time>
      </trkpt>
      <trkpt lat="42.57256" lon="2.05414">
        <ele>2091.345215</ele>
        <time>2011-09-24T13:51:13Z</time>
      </trkpt>
      <trkpt lat="42.57247" lon="2.05418">
        <ele>2094.547852</ele>
        <time>2011-09-24T13:51:27Z</time>
      </trkpt>
      <trkpt lat="42.5725" lon="2.05412">
        <ele>2096.509277</ele>
        <time>2011-09-24T13:51:43Z</time>
      </trkpt>
      <trkpt lat="42.57254" lon="2.05416">
        <ele>2097.136475</ele>
        <time>2011-09-24T13:51:45Z</time>
      </trkpt>
      <trkpt lat="42.57259" lon="2.0542">
        <ele>2097.737305</ele>
        <time>2011-09-24T13:51:47Z</time>
      </trkpt>
      <trkpt lat="42.57263" lon="2.05425">
        <ele>2100.383301</ele>
        <time>2011-09-24T13:51:48Z</time>
      </trkpt>
      <trkpt lat="42.57266" lon="2.05431">
        <ele>2102.348389</ele>
        <time>2011-09-24T13:51:49Z</time>
      </trkpt>
      <trkpt lat="42.57269" lon="2.05437">
        <ele>2103.767822</ele>
        <time>2011-09-24T13:51:50Z</time>
      </trkpt>
      <trkpt lat="42.57271" lon="2.05444">
        <ele>2104.654297</ele>
        <time>2011-09-24T13:51:51Z</time>
      </trkpt>
      <trkpt lat="42.57273" lon="2.05451">
        <ele>2105.058105</ele>
        <time>2011-09-24T13:51:52Z</time>
      </trkpt>
      <trkpt lat="42.57275" lon="2.05458">
        <ele>2105.133057</ele>
        <time>2011-09-24T13:51:53Z</time>
      </trkpt>
      <trkpt lat="42.57276" lon="2.05464">
        <ele>2105.178467</ele>
        <time>2011-09-24T13:51:54Z</time>
      </trkpt>
      <trkpt lat="42.57277" lon="2.05475">
        <ele>2105.188477</ele>
        <time>2011-09-24T13:51:56Z</time>
      </trkpt>
      <trkpt lat="42.57277" lon="2.05481">
        <ele>2105.184326</ele>
        <time>2011-09-24T13:51:57Z</time>
      </trkpt>
      <trkpt lat="42.57277" lon="2.05488">
        <ele>2105.079834</ele>
        <time>2011-09-24T13:51:58Z</time>
      </trkpt>
      <trkpt lat="42.57276" lon="2.05495">
        <ele>2104.943115</ele>
        <time>2011-09-24T13:51:59Z</time>
      </trkpt>
      <trkpt lat="42.57272" lon="2.05504">
        <ele>2104.681396</ele>
        <time>2011-09-24T13:52:01Z</time>
      </trkpt>
      <trkpt lat="42.57267" lon="2.05513">
        <ele>2103.820312</ele>
        <time>2011-09-24T13:52:03Z</time>
      </trkpt>
      <trkpt lat="42.57264" lon="2.05521">
        <ele>2103.740234</ele>
        <time>2011-09-24T13:52:05Z</time>
      </trkpt>
      <trkpt lat="42.57269" lon="2.0553">
        <ele>2103.644043</ele>
        <time>2011-09-24T13:52:07Z</time>
      </trkpt>
      <trkpt lat="42.57271" lon="2.05537">
        <ele>2103.481689</ele>
        <time>2011-09-24T13:52:09Z</time>
      </trkpt>
      <trkpt lat="42.57266" lon="2.05547">
        <ele>2101.731445</ele>
        <time>2011-09-24T13:52:11Z</time>
      </trkpt>
      <trkpt lat="42.57264" lon="2.05559">
        <ele>2100.558838</ele>
        <time>2011-09-24T13:52:13Z</time>
      </trkpt>
      <trkpt lat="42.57261" lon="2.05568">
        <ele>2099.595947</ele>
        <time>2011-09-24T13:52:15Z</time>
      </trkpt>
      <trkpt lat="42.5726" lon="2.05574">
        <ele>2099.192383</ele>
        <time>2011-09-24T13:52:16Z</time>
      </trkpt>
      <trkpt lat="42.57258" lon="2.05581">
        <ele>2098.759766</ele>
        <time>2011-09-24T13:52:17Z</time>
      </trkpt>
      <trkpt lat="42.57254" lon="2.05588">
        <ele>2098.491699</ele>
        <time>2011-09-24T13:52:18Z</time>
      </trkpt>
      <trkpt lat="42.57251" lon="2.05595">
        <ele>2098.317383</ele>
        <time>2011-09-24T13:52:19Z</time>
      </trkpt>
      <trkpt lat="42.57247" lon="2.05601">
        <ele>2098.085449</ele>
        <time>2011-09-24T13:52:20Z</time>
      </trkpt>
      <trkpt lat="42.57243" lon="2.05609">
        <ele>2097.774902</ele>
        <time>2011-09-24T13:52:22Z</time>
      </trkpt>
      <trkpt lat="42.57242" lon="2.05616">
        <ele>2097.637451</ele>
        <time>2011-09-24T13:52:28Z</time>
      </trkpt>
      <trkpt lat="42.57241" lon="2.05626">
        <ele>2097.031738</ele>
        <time>2011-09-24T13:52:30Z</time>
      </trkpt>
      <trkpt lat="42.57238" lon="2.05632">
        <ele>2096.55835</ele>
        <time>2011-09-24T13:52:31Z</time>
      </trkpt>
      <trkpt lat="42.57235" lon="2.0564">
        <ele>2096.156738</ele>
        <time>2011-09-24T13:52:32Z</time>
      </trkpt>
      <trkpt lat="42.57231" lon="2.05647">
        <ele>2095.583496</ele>
        <time>2011-09-24T13:52:33Z</time>
      </trkpt>
      <trkpt lat="42.57228" lon="2.05655">
        <ele>2094.86084</ele>
        <time>2011-09-24T13:52:34Z</time>
      </trkpt>
      <trkpt lat="42.57228" lon="2.05663">
        <ele>2093.958252</ele>
        <time>2011-09-24T13:52:35Z</time>
      </trkpt>
      <trkpt lat="42.57232" lon="2.05668">
        <ele>2092.241699</ele>
        <time>2011-09-24T13:52:37Z</time>
      </trkpt>
      <trkpt lat="42.57239" lon="2.05663">
        <ele>2091.631592</ele>
        <time>2011-09-24T13:52:38Z</time>
      </trkpt>
      <trkpt lat="42.57243" lon="2.05656">
        <ele>2091.054443</ele>
        <time>2011-09-24T13:52:39Z</time>
      </trkpt>
      <trkpt lat="42.57249" lon="2.05654">
        <ele>2090.014404</ele>
        <time>2011-09-24T13:52:40Z</time>
      </trkpt>
      <trkpt lat="42.57256" lon="2.05658">
        <ele>2088.654785</ele>
        <time>2011-09-24T13:52:41Z</time>
      </trkpt>
      <trkpt lat="42.57262" lon="2.05665">
        <ele>2087.240967</ele>
        <time>2011-09-24T13:52:42Z</time>
      </trkpt>
      <trkpt lat="42.57267" lon="2.05672">
        <ele>2085.688721</ele>
        <time>2011-09-24T13:52:43Z</time>
      </trkpt>
      <trkpt lat="42.57267" lon="2.05681">
        <ele>2083.996338</ele>
        <time>2011-09-24T13:52:44Z</time>
      </trkpt>
      <trkpt lat="42.57265" lon="2.05688">
        <ele>2082.447266</ele>
        <time>2011-09-24T13:52:45Z</time>
      </trkpt>
      <trkpt lat="42.57262" lon="2.05696">
        <ele>2081.02417</ele>
        <time>2011-09-24T13:52:46Z</time>
      </trkpt>
      <trkpt lat="42.57259" lon="2.05703">
        <ele>2079.696533</ele>
        <time>2011-09-24T13:52:47Z</time>
      </trkpt>
      <trkpt lat="42.57255" lon="2.0571">
        <ele>2078.411133</ele>
        <time>2011-09-24T13:52:48Z</time>
      </trkpt>
      <trkpt lat="42.57251" lon="2.05716">
        <ele>2077.171631</ele>
        <time>2011-09-24T13:52:49Z</time>
      </trkpt>
      <trkpt lat="42.57247" lon="2.05722">
        <ele>2075.905273</ele>
        <time>2011-09-24T13:52:50Z</time>
      </trkpt>
      <trkpt lat="42.57243" lon="2.05729">
        <ele>2072.663818</ele>
        <time>2011-09-24T13:52:52Z</time>
      </trkpt>
      <trkpt lat="42.57254" lon="2.05734">
        <ele>2071.452148</ele>
        <time>2011-09-24T13:52:58Z</time>
      </trkpt>
      <trkpt lat="42.57262" lon="2.05731">
        <ele>2070.686523</ele>
        <time>2011-09-24T13:53:00Z</time>
      </trkpt>
      <trkpt lat="42.57267" lon="2.05729">
        <ele>2067.069336</ele>
        <time>2011-09-24T13:53:01Z</time>
      </trkpt>
      <trkpt lat="42.57271" lon="2.05725">
        <ele>2063.739502</ele>
        <time>2011-09-24T13:53:02Z</time>
      </trkpt>
      <trkpt lat="42.57277" lon="2.05718">
        <ele>2063.075684</ele>
        <time>2011-09-24T13:53:04Z</time>
      </trkpt>
      <trkpt lat="42.57283" lon="2.05721">
        <ele>2058.643799</ele>
        <time>2011-09-24T13:53:06Z</time>
      </trkpt>
      <trkpt lat="42.57282" lon="2.05731">
        <ele>2051.700684</ele>
        <time>2011-09-24T13:53:08Z</time>
      </trkpt>
      <trkpt lat="42.57278" lon="2.05735">
        <ele>2049.12793</ele>
        <time>2011-09-24T13:53:09Z</time>
      </trkpt>
      <trkpt lat="42.57274" lon="2.05739">
        <ele>2048.6875</ele>
        <time>2011-09-24T13:53:11Z</time>
      </trkpt>
      <trkpt lat="42.57272" lon="2.05747">
        <ele>2045.783813</ele>
        <time>2011-09-24T13:53:39Z</time>
      </trkpt>
      <trkpt lat="42.57277" lon="2.05751">
        <ele>2043.780884</ele>
        <time>2011-09-24T13:53:47Z</time>
      </trkpt>
      <trkpt lat="42.57282" lon="2.05752">
        <ele>2040.67981</ele>
        <time>2011-09-24T13:54:02Z</time>
      </trkpt>
      <trkpt lat="42.57282" lon="2.05759">
        <ele>2024.266968</ele>
        <time>2011-09-24T13:56:38Z</time>
      </trkpt>
      <trkpt lat="42.57283" lon="2.05753">
        <ele>2022.890015</ele>
        <time>2011-09-24T13:56:56Z</time>
      </trkpt>
      <trkpt lat="42.57279" lon="2.05746">
        <ele>2021.994751</ele>
        <time>2011-09-24T13:57:07Z</time>
      </trkpt>
      <trkpt lat="42.57277" lon="2.05756">
        <ele>2020.846069</ele>
        <time>2011-09-24T13:57:29Z</time>
      </trkpt>
      <trkpt lat="42.57281" lon="2.05761">
        <ele>2020.762573</ele>
        <time>2011-09-24T13:57:35Z</time>
      </trkpt>
      <trkpt lat="42.57283" lon="2.05755">
        <ele>2020.244263</ele>
        <time>2011-09-24T13:58:10Z</time>
      </trkpt>
      <trkpt lat="42.57279" lon="2.05761">
        <ele>2019.734741</ele>
        <time>2011-09-24T13:58:22Z</time>
      </trkpt>
      <trkpt lat="42.57283" lon="2.05762">
        <ele>2019.657593</ele>
        <time>2011-09-24T13:58:24Z</time>
      </trkpt>
      <trkpt lat="42.57288" lon="2.05761">
        <ele>2019.599243</ele>
        <time>2011-09-24T13:58:26Z</time>
      </trkpt>
      <trkpt lat="42.57294" lon="2.0576">
        <ele>2019.537476</ele>
        <time>2011-09-24T13:58:28Z</time>
      </trkpt>
      <trkpt lat="42.57297" lon="2.05763">
        <ele>2019.470337</ele>
        <time>2011-09-24T13:58:30Z</time>
      </trkpt>
      <trkpt lat="42.57302" lon="2.05773">
        <ele>2019.306274</ele>
        <time>2011-09-24T13:58:32Z</time>
      </trkpt>
      <trkpt lat="42.57298" lon="2.05778">
        <ele>2019.062378</ele>
        <time>2011-09-24T13:58:33Z</time>
      </trkpt>
      <trkpt lat="42.57294" lon="2.05782">
        <ele>2018.690796</ele>
        <time>2011-09-24T13:58:36Z</time>
      </trkpt>
      <trkpt lat="42.57292" lon="2.05788">
        <ele>2018.140747</ele>
        <time>2011-09-24T13:58:39Z</time>
      </trkpt>
      <trkpt lat="42.57291" lon="2.05794">
        <ele>2016.166382</ele>
        <time>2011-09-24T13:58:59Z</time>
      </trkpt>
      <trkpt lat="42.57293" lon="2.058">
        <ele>2013.420288</ele>
        <time>2011-09-24T13:59:48Z</time>
      </trkpt>
      <trkpt lat="42.57291" lon="2.05794">
        <ele>2010.79187</ele>
        <time>2011-09-24T14:00:59Z</time>
      </trkpt>
      <trkpt lat="42.5729" lon="2.05788">
        <ele>2010.211304</ele>
        <time>2011-09-24T14:01:06Z</time>
      </trkpt>
      <trkpt lat="42.57293" lon="2.05783">
        <ele>2009.570435</ele>
        <time>2011-09-24T14:01:15Z</time>
      </trkpt>
      <trkpt lat="42.57297" lon="2.05779">
        <ele>2009.298218</ele>
        <time>2011-09-24T14:01:20Z</time>
      </trkpt>
      <trkpt lat="42.57302" lon="2.05775">
        <ele>2009.0177</ele>
        <time>2011-09-24T14:01:27Z</time>
      </trkpt>
      <trkpt lat="42.57304" lon="2.05765">
        <ele>2009.118286</ele>
        <time>2011-09-24T14:01:34Z</time>
      </trkpt>
      <trkpt lat="42.57308" lon="2.05763">
        <ele>2009.268433</ele>
        <time>2011-09-24T14:02:05Z</time>
      </trkpt>
      <trkpt lat="42.57306" lon="2.05774">
        <ele>2010.270386</ele>
        <time>2011-09-24T14:02:22Z</time>
      </trkpt>
      <trkpt lat="42.57301" lon="2.05782">
        <ele>2010.793091</ele>
        <time>2011-09-24T14:02:23Z</time>
      </trkpt>
      <trkpt lat="42.57296" lon="2.05792">
        <ele>2011.175659</ele>
        <time>2011-09-24T14:02:24Z</time>
      </trkpt>
      <trkpt lat="42.57291" lon="2.058">
        <ele>2011.290405</ele>
        <time>2011-09-24T14:02:25Z</time>
      </trkpt>
      <trkpt lat="42.57286" lon="2.05808">
        <ele>2011.349487</ele>
        <time>2011-09-24T14:02:26Z</time>
      </trkpt>
      <trkpt lat="42.57281" lon="2.05817">
        <ele>2011.251343</ele>
        <time>2011-09-24T14:02:27Z</time>
      </trkpt>
      <trkpt lat="42.57277" lon="2.05825">
        <ele>2011.122681</ele>
        <time>2011-09-24T14:02:28Z</time>
      </trkpt>
      <trkpt lat="42.57274" lon="2.05832">
        <ele>2011.045776</ele>
        <time>2011-09-24T14:02:29Z</time>
      </trkpt>
      <trkpt lat="42.57271" lon="2.05838">
        <ele>2010.987183</ele>
        <time>2011-09-24T14:02:30Z</time>
      </trkpt>
      <trkpt lat="42.57268" lon="2.05844">
        <ele>2011.048706</ele>
        <time>2011-09-24T14:02:31Z</time>
      </trkpt>
      <trkpt lat="42.57263" lon="2.05852">
        <ele>2011.247925</ele>
        <time>2011-09-24T14:02:32Z</time>
      </trkpt>
      <trkpt lat="42.57258" lon="2.05861">
        <ele>2011.218384</ele>
        <time>2011-09-24T14:02:33Z</time>
      </trkpt>
      <trkpt lat="42.57253" lon="2.05869">
        <ele>2011.010864</ele>
        <time>2011-09-24T14:02:35Z</time>
      </trkpt>
      <trkpt lat="42.57248" lon="2.05877">
        <ele>2010.677124</ele>
        <time>2011-09-24T14:02:35Z</time>
      </trkpt>
      <trkpt lat="42.57241" lon="2.05883">
        <ele>2010.233765</ele>
        <time>2011-09-24T14:02:36Z</time>
      </trkpt>
      <trkpt lat="42.57237" lon="2.05887">
        <ele>2009.69104</ele>
        <time>2011-09-24T14:02:37Z</time>
      </trkpt>
      <trkpt lat="42.57233" lon="2.05897">
        <ele>2008.399048</ele>
        <time>2011-09-24T14:02:39Z</time>
      </trkpt>
      <trkpt lat="42.57233" lon="2.05903">
        <ele>2007.739136</ele>
        <time>2011-09-24T14:02:40Z</time>
      </trkpt>
      <trkpt lat="42.57239" lon="2.05905">
        <ele>2007.304321</ele>
        <time>2011-09-24T14:02:41Z</time>
      </trkpt>
      <trkpt lat="42.57245" lon="2.05902">
        <ele>2006.994751</ele>
        <time>2011-09-24T14:02:42Z</time>
      </trkpt>
      <trkpt lat="42.5725" lon="2.05902">
        <ele>2006.76355</ele>
        <time>2011-09-24T14:02:43Z</time>
      </trkpt>
      <trkpt lat="42.57255" lon="2.05902">
        <ele>2006.603394</ele>
        <time>2011-09-24T14:02:44Z</time>
      </trkpt>
      <trkpt lat="42.5726" lon="2.059">
        <ele>2006.47644</ele>
        <time>2011-09-24T14:02:45Z</time>
      </trkpt>
      <trkpt lat="42.57265" lon="2.05897">
        <ele>2006.312134</ele>
        <time>2011-09-24T14:02:47Z</time>
      </trkpt>
      <trkpt lat="42.57271" lon="2.05896">
        <ele>2005.970581</ele>
        <time>2011-09-24T14:03:04Z</time>
      </trkpt>
      <trkpt lat="42.57277" lon="2.05896">
        <ele>2005.745728</ele>
        <time>2011-09-24T14:03:06Z</time>
      </trkpt>
      <trkpt lat="42.57282" lon="2.05897">
        <ele>2005.477661</ele>
        <time>2011-09-24T14:03:08Z</time>
      </trkpt>
      <trkpt lat="42.57287" lon="2.05898">
        <ele>2005.199097</ele>
        <time>2011-09-24T14:03:10Z</time>
      </trkpt>
      <trkpt lat="42.57292" lon="2.05898">
        <ele>2004.88855</ele>
        <time>2011-09-24T14:03:12Z</time>
      </trkpt>
      <trkpt lat="42.57295" lon="2.05903">
        <ele>2004.522339</ele>
        <time>2011-09-24T14:03:14Z</time>
      </trkpt>
      <trkpt lat="42.57297" lon="2.05912">
        <ele>2004.202759</ele>
        <time>2011-09-24T14:03:16Z</time>
      </trkpt>
      <trkpt lat="42.57297" lon="2.05918">
        <ele>2003.135864</ele>
        <time>2011-09-24T14:03:17Z</time>
      </trkpt>
      <trkpt lat="42.57295" lon="2.05927">
        <ele>2003.060669</ele>
        <time>2011-09-24T14:03:19Z</time>
      </trkpt>
      <trkpt lat="42.5729" lon="2.05933">
        <ele>2002.769409</ele>
        <time>2011-09-24T14:03:21Z</time>
      </trkpt>
      <trkpt lat="42.57285" lon="2.05938">
        <ele>2002.225708</ele>
        <time>2011-09-24T14:03:24Z</time>
      </trkpt>
      <trkpt lat="42.57289" lon="2.05944">
        <ele>1998.437378</ele>
        <time>2011-09-24T14:03:28Z</time>
      </trkpt>
      <trkpt lat="42.57297" lon="2.05941">
        <ele>1992.22644</ele>
        <time>2011-09-24T14:03:30Z</time>
      </trkpt>
      <trkpt lat="42.57303" lon="2.05939">
        <ele>1989.731323</ele>
        <time>2011-09-24T14:03:31Z</time>
      </trkpt>
      <trkpt lat="42.57309" lon="2.05936">
        <ele>1987.644897</ele>
        <time>2011-09-24T14:03:32Z</time>
      </trkpt>
      <trkpt lat="42.57313" lon="2.05933">
        <ele>1985.630859</ele>
        <time>2011-09-24T14:03:33Z</time>
      </trkpt>
      <trkpt lat="42.57319" lon="2.0593">
        <ele>1985.199463</ele>
        <time>2011-09-24T14:03:35Z</time>
      </trkpt>
      <trkpt lat="42.57324" lon="2.05936">
        <ele>1984.680664</ele>
        <time>2011-09-24T14:03:37Z</time>
      </trkpt>
      <trkpt lat="42.57323" lon="2.05943">
        <ele>1981.4375</ele>
        <time>2011-09-24T14:03:38Z</time>
      </trkpt>
      <trkpt lat="42.5732" lon="2.05949">
        <ele>1978.375244</ele>
        <time>2011-09-24T14:03:39Z</time>
      </trkpt>
      <trkpt lat="42.57317" lon="2.05953">
        <ele>1975.463135</ele>
        <time>2011-09-24T14:03:40Z</time>
      </trkpt>
      <trkpt lat="42.57313" lon="2.05958">
        <ele>1974.929443</ele>
        <time>2011-09-24T14:03:42Z</time>
      </trkpt>
      <trkpt lat="42.5731" lon="2.05968">
        <ele>1967.445435</ele>
        <time>2011-09-24T14:04:48Z</time>
      </trkpt>
      <trkpt lat="42.57309" lon="2.05976">
        <ele>1964.482666</ele>
        <time>2011-09-24T14:04:49Z</time>
      </trkpt>
      <trkpt lat="42.57307" lon="2.05985">
        <ele>1961.782227</ele>
        <time>2011-09-24T14:04:50Z</time>
      </trkpt>
      <trkpt lat="42.57305" lon="2.05993">
        <ele>1959.378906</ele>
        <time>2011-09-24T14:04:51Z</time>
      </trkpt>
      <trkpt lat="42.57304" lon="2.05999">
        <ele>1957.395752</ele>
        <time>2011-09-24T14:04:52Z</time>
      </trkpt>
      <trkpt lat="42.57304" lon="2.06006">
        <ele>1957.045654</ele>
        <time>2011-09-24T14:04:54Z</time>
      </trkpt>
      <trkpt lat="42.57306" lon="2.06016">
        <ele>1956.694946</ele>
        <time>2011-09-24T14:04:56Z</time>
      </trkpt>
      <trkpt lat="42.57312" lon="2.06018">
        <ele>1956.37561</ele>
        <time>2011-09-24T14:04:58Z</time>
      </trkpt>
      <trkpt lat="42.5732" lon="2.06015">
        <ele>1955.229492</ele>
        <time>2011-09-24T14:05:00Z</time>
      </trkpt>
      <trkpt lat="42.57325" lon="2.06014">
        <ele>1954.209473</ele>
        <time>2011-09-24T14:05:01Z</time>
      </trkpt>
      <trkpt lat="42.5733" lon="2.06013">
        <ele>1953.057861</ele>
        <time>2011-09-24T14:05:02Z</time>
      </trkpt>
      <trkpt lat="42.5733" lon="2.06026">
        <ele>1951.117432</ele>
        <time>2011-09-24T14:05:04Z</time>
      </trkpt>
      <trkpt lat="42.57323" lon="2.06036">
        <ele>1950.777588</ele>
        <time>2011-09-24T14:05:05Z</time>
      </trkpt>
      <trkpt lat="42.57317" lon="2.06045">
        <ele>1950.680176</ele>
        <time>2011-09-24T14:05:06Z</time>
      </trkpt>
      <trkpt lat="42.5731" lon="2.06055">
        <ele>1950.244751</ele>
        <time>2011-09-24T14:05:07Z</time>
      </trkpt>
      <trkpt lat="42.57305" lon="2.06063">
        <ele>1949.552734</ele>
        <time>2011-09-24T14:05:08Z</time>
      </trkpt>
      <trkpt lat="42.57301" lon="2.06071">
        <ele>1948.776733</ele>
        <time>2011-09-24T14:05:09Z</time>
      </trkpt>
      <trkpt lat="42.57305" lon="2.06078">
        <ele>1946.991943</ele>
        <time>2011-09-24T14:05:11Z</time>
      </trkpt>
      <trkpt lat="42.57312" lon="2.06076">
        <ele>1946.163086</ele>
        <time>2011-09-24T14:05:12Z</time>
      </trkpt>
      <trkpt lat="42.57317" lon="2.06072">
        <ele>1945.344971</ele>
        <time>2011-09-24T14:05:13Z</time>
      </trkpt>
      <trkpt lat="42.57323" lon="2.06068">
        <ele>1944.510986</ele>
        <time>2011-09-24T14:05:14Z</time>
      </trkpt>
      <trkpt lat="42.57328" lon="2.06068">
        <ele>1943.568115</ele>
        <time>2011-09-24T14:05:15Z</time>
      </trkpt>
      <trkpt lat="42.57333" lon="2.06071">
        <ele>1942.035156</ele>
        <time>2011-09-24T14:05:17Z</time>
      </trkpt>
      <trkpt lat="42.57329" lon="2.06079">
        <ele>1941.561646</ele>
        <time>2011-09-24T14:05:19Z</time>
      </trkpt>
      <trkpt lat="42.57328" lon="2.06088">
        <ele>1941.355469</ele>
        <time>2011-09-24T14:05:22Z</time>
      </trkpt>
      <trkpt lat="42.57334" lon="2.06094">
        <ele>1940.025146</ele>
        <time>2011-09-24T14:05:24Z</time>
      </trkpt>
      <trkpt lat="42.57338" lon="2.06097">
        <ele>1938.767944</ele>
        <time>2011-09-24T14:05:25Z</time>
      </trkpt>
      <trkpt lat="42.57343" lon="2.06101">
        <ele>1937.67627</ele>
        <time>2011-09-24T14:05:26Z</time>
      </trkpt>
      <trkpt lat="42.57349" lon="2.06102">
        <ele>1936.45813</ele>
        <time>2011-09-24T14:05:27Z</time>
      </trkpt>
      <trkpt lat="42.57354" lon="2.06099">
        <ele>1935.228516</ele>
        <time>2011-09-24T14:05:28Z</time>
      </trkpt>
      <trkpt lat="42.57361" lon="2.06097">
        <ele>1934.942871</ele>
        <time>2011-09-24T14:05:30Z</time>
      </trkpt>
      <trkpt lat="42.57365" lon="2.06099">
        <ele>1933.192505</ele>
        <time>2011-09-24T14:05:31Z</time>
      </trkpt>
      <trkpt lat="42.57368" lon="2.06109">
        <ele>1931.60376</ele>
        <time>2011-09-24T14:05:32Z</time>
      </trkpt>
      <trkpt lat="42.57367" lon="2.06121">
        <ele>1930.092407</ele>
        <time>2011-09-24T14:05:33Z</time>
      </trkpt>
      <trkpt lat="42.57365" lon="2.06132">
        <ele>1928.642334</ele>
        <time>2011-09-24T14:05:34Z</time>
      </trkpt>
      <trkpt lat="42.57363" lon="2.06142">
        <ele>1927.187988</ele>
        <time>2011-09-24T14:05:35Z</time>
      </trkpt>
      <trkpt lat="42.5736" lon="2.06153">
        <ele>1925.738403</ele>
        <time>2011-09-24T14:05:36Z</time>
      </trkpt>
      <trkpt lat="42.57357" lon="2.06161">
        <ele>1924.282471</ele>
        <time>2011-09-24T14:05:37Z</time>
      </trkpt>
      <trkpt lat="42.57358" lon="2.0617">
        <ele>1921.263306</ele>
        <time>2011-09-24T14:05:39Z</time>
      </trkpt>
      <trkpt lat="42.57366" lon="2.06171">
        <ele>1920.932617</ele>
        <time>2011-09-24T14:05:41Z</time>
      </trkpt>
      <trkpt lat="42.57371" lon="2.06172">
        <ele>1918.528564</ele>
        <time>2011-09-24T14:05:42Z</time>
      </trkpt>
      <trkpt lat="42.57378" lon="2.06177">
        <ele>1913.790771</ele>
        <time>2011-09-24T14:05:44Z</time>
      </trkpt>
      <trkpt lat="42.57382" lon="2.06184">
        <ele>1909.231323</ele>
        <time>2011-09-24T14:05:46Z</time>
      </trkpt>
      <trkpt lat="42.5738" lon="2.06193">
        <ele>1906.874878</ele>
        <time>2011-09-24T14:05:48Z</time>
      </trkpt>
      <trkpt lat="42.57377" lon="2.06205">
        <ele>1903.098511</ele>
        <time>2011-09-24T14:05:50Z</time>
      </trkpt>
      <trkpt lat="42.57375" lon="2.06211">
        <ele>1901.349121</ele>
        <time>2011-09-24T14:05:51Z</time>
      </trkpt>
      <trkpt lat="42.57373" lon="2.06218">
        <ele>1899.790649</ele>
        <time>2011-09-24T14:05:52Z</time>
      </trkpt>
      <trkpt lat="42.57372" lon="2.0623">
        <ele>1897.860718</ele>
        <time>2011-09-24T14:05:54Z</time>
      </trkpt>
      <trkpt lat="42.57372" lon="2.06239">
        <ele>1895.774902</ele>
        <time>2011-09-24T14:05:55Z</time>
      </trkpt>
      <trkpt lat="42.57373" lon="2.06248">
        <ele>1893.393677</ele>
        <time>2011-09-24T14:05:56Z</time>
      </trkpt>
      <trkpt lat="42.57375" lon="2.06254">
        <ele>1890.745117</ele>
        <time>2011-09-24T14:05:57Z</time>
      </trkpt>
      <trkpt lat="42.57378" lon="2.0626">
        <ele>1888.324829</ele>
        <time>2011-09-24T14:05:58Z</time>
      </trkpt>
      <trkpt lat="42.57382" lon="2.06263">
        <ele>1886.091064</ele>
        <time>2011-09-24T14:05:59Z</time>
      </trkpt>
      <trkpt lat="42.57388" lon="2.06268">
        <ele>1885.689697</ele>
        <time>2011-09-24T14:06:01Z</time>
      </trkpt>
      <trkpt lat="42.5739" lon="2.06279">
        <ele>1881.879395</ele>
        <time>2011-09-24T14:06:03Z</time>
      </trkpt>
      <trkpt lat="42.57389" lon="2.06288">
        <ele>1881.543823</ele>
        <time>2011-09-24T14:06:05Z</time>
      </trkpt>
      <trkpt lat="42.57393" lon="2.06291">
        <ele>1881.12854</ele>
        <time>2011-09-24T14:06:07Z</time>
      </trkpt>
      <trkpt lat="42.57396" lon="2.06301">
        <ele>1878.148193</ele>
        <time>2011-09-24T14:06:10Z</time>
      </trkpt>
      <trkpt lat="42.57396" lon="2.06308">
        <ele>1875.761719</ele>
        <time>2011-09-24T14:06:11Z</time>
      </trkpt>
      <trkpt lat="42.57396" lon="2.06315">
        <ele>1873.337524</ele>
        <time>2011-09-24T14:06:12Z</time>
      </trkpt>
      <trkpt lat="42.57396" lon="2.06324">
        <ele>1870.92041</ele>
        <time>2011-09-24T14:06:13Z</time>
      </trkpt>
      <trkpt lat="42.57396" lon="2.06333">
        <ele>1868.717407</ele>
        <time>2011-09-24T14:06:14Z</time>
      </trkpt>
      <trkpt lat="42.57396" lon="2.06343">
        <ele>1866.691284</ele>
        <time>2011-09-24T14:06:15Z</time>
      </trkpt>
      <trkpt lat="42.57396" lon="2.06353">
        <ele>1864.718384</ele>
        <time>2011-09-24T14:06:16Z</time>
      </trkpt>
      <trkpt lat="42.57397" lon="2.06363">
        <ele>1862.842773</ele>
        <time>2011-09-24T14:06:17Z</time>
      </trkpt>
      <trkpt lat="42.57399" lon="2.06371">
        <ele>1861.128174</ele>
        <time>2011-09-24T14:06:18Z</time>
      </trkpt>
      <trkpt lat="42.57403" lon="2.06376">
        <ele>1859.592163</ele>
        <time>2011-09-24T14:06:19Z</time>
      </trkpt>
      <trkpt lat="42.57407" lon="2.06382">
        <ele>1858.1604</ele>
        <time>2011-09-24T14:06:20Z</time>
      </trkpt>
      <trkpt lat="42.57411" lon="2.06389">
        <ele>1857.903931</ele>
        <time>2011-09-24T14:06:22Z</time>
      </trkpt>
      <trkpt lat="42.57413" lon="2.06397">
        <ele>1857.514404</ele>
        <time>2011-09-24T14:06:25Z</time>
      </trkpt>
      <trkpt lat="42.57415" lon="2.06407">
        <ele>1857.168213</ele>
        <time>2011-09-24T14:06:27Z</time>
      </trkpt>
      <trkpt lat="42.57417" lon="2.06413">
        <ele>1855.404907</ele>
        <time>2011-09-24T14:06:28Z</time>
      </trkpt>
      <trkpt lat="42.57418" lon="2.0642">
        <ele>1853.64917</ele>
        <time>2011-09-24T14:06:29Z</time>
      </trkpt>
      <trkpt lat="42.57419" lon="2.06428">
        <ele>1852.216919</ele>
        <time>2011-09-24T14:06:30Z</time>
      </trkpt>
      <trkpt lat="42.57418" lon="2.06434">
        <ele>1850.96228</ele>
        <time>2011-09-24T14:06:31Z</time>
      </trkpt>
      <trkpt lat="42.5742" lon="2.06444">
        <ele>1849.733032</ele>
        <time>2011-09-24T14:06:33Z</time>
      </trkpt>
      <trkpt lat="42.57423" lon="2.06451">
        <ele>1849.537842</ele>
        <time>2011-09-24T14:06:35Z</time>
      </trkpt>
      <trkpt lat="42.57426" lon="2.0646">
        <ele>1849.291138</ele>
        <time>2011-09-24T14:06:37Z</time>
      </trkpt>
      <trkpt lat="42.57427" lon="2.06466">
        <ele>1849.169189</ele>
        <time>2011-09-24T14:06:38Z</time>
      </trkpt>
      <trkpt lat="42.57427" lon="2.06476">
        <ele>1848.907593</ele>
        <time>2011-09-24T14:06:40Z</time>
      </trkpt>
      <trkpt lat="42.57423" lon="2.06487">
        <ele>1846.64502</ele>
        <time>2011-09-24T14:06:42Z</time>
      </trkpt>
      <trkpt lat="42.57419" lon="2.06493">
        <ele>1844.393433</ele>
        <time>2011-09-24T14:06:43Z</time>
      </trkpt>
      <trkpt lat="42.57417" lon="2.06501">
        <ele>1841.980835</ele>
        <time>2011-09-24T14:06:44Z</time>
      </trkpt>
      <trkpt lat="42.57416" lon="2.06512">
        <ele>1841.451172</ele>
        <time>2011-09-24T14:06:46Z</time>
      </trkpt>
      <trkpt lat="42.57419" lon="2.06523">
        <ele>1836.299805</ele>
        <time>2011-09-24T14:06:48Z</time>
      </trkpt>
      <trkpt lat="42.57423" lon="2.06535">
        <ele>1832.53772</ele>
        <time>2011-09-24T14:06:50Z</time>
      </trkpt>
      <trkpt lat="42.57425" lon="2.06543">
        <ele>1830.986328</ele>
        <time>2011-09-24T14:06:51Z</time>
      </trkpt>
      <trkpt lat="42.57427" lon="2.06551">
        <ele>1829.544678</ele>
        <time>2011-09-24T14:06:52Z</time>
      </trkpt>
      <trkpt lat="42.57429" lon="2.06559">
        <ele>1828.181152</ele>
        <time>2011-09-24T14:06:53Z</time>
      </trkpt>
      <trkpt lat="42.57431" lon="2.06567">
        <ele>1826.86731</ele>
        <time>2011-09-24T14:06:54Z</time>
      </trkpt>
      <trkpt lat="42.57431" lon="2.06576">
        <ele>1826.623169</ele>
        <time>2011-09-24T14:06:56Z</time>
      </trkpt>
      <trkpt lat="42.57439" lon="2.06587">
        <ele>1820.758179</ele>
        <time>2011-09-24T14:07:34Z</time>
      </trkpt>
      <trkpt lat="42.57448" lon="2.0659">
        <ele>1809.890137</ele>
        <time>2011-09-24T14:08:10Z</time>
      </trkpt>
      <trkpt lat="42.57456" lon="2.06588">
        <ele>1800.404053</ele>
        <time>2011-09-24T14:09:19Z</time>
      </trkpt>
      <trkpt lat="42.57463" lon="2.06585">
        <ele>1800.177612</ele>
        <time>2011-09-24T14:09:21Z</time>
      </trkpt>
      <trkpt lat="42.57468" lon="2.06586">
        <ele>1799.836426</ele>
        <time>2011-09-24T14:09:24Z</time>
      </trkpt>
      <trkpt lat="42.57461" lon="2.06579">
        <ele>1783.037354</ele>
        <time>2011-09-24T14:09:50Z</time>
      </trkpt>
      <trkpt lat="42.57458" lon="2.06574">
        <ele>1782.773193</ele>
        <time>2011-09-24T14:09:54Z</time>
      </trkpt>
      <trkpt lat="42.57454" lon="2.06578">
        <ele>1781.799683</ele>
        <time>2011-09-24T14:10:09Z</time>
      </trkpt>
      <trkpt lat="42.57451" lon="2.06573">
        <ele>1781.02063</ele>
        <time>2011-09-24T14:10:22Z</time>
      </trkpt>
      <trkpt lat="42.57455" lon="2.06574">
        <ele>1779.403809</ele>
        <time>2011-09-24T14:10:35Z</time>
      </trkpt>
      <trkpt lat="42.57458" lon="2.06579">
        <ele>1777.202271</ele>
        <time>2011-09-24T14:10:55Z</time>
      </trkpt>
      <trkpt lat="42.57462" lon="2.06583">
        <ele>1776.372314</ele>
        <time>2011-09-24T14:11:04Z</time>
      </trkpt>
      <trkpt lat="42.57453" lon="2.06581">
        <ele>1762.814575</ele>
        <time>2011-09-24T14:11:53Z</time>
      </trkpt>
      <trkpt lat="42.57448" lon="2.06584">
        <ele>1762.841064</ele>
        <time>2011-09-24T14:11:56Z</time>
      </trkpt>
      <trkpt lat="42.57443" lon="2.06593">
        <ele>1762.216797</ele>
        <time>2011-09-24T14:11:58Z</time>
      </trkpt>
      <trkpt lat="42.57442" lon="2.06599">
        <ele>1761.646973</ele>
        <time>2011-09-24T14:11:59Z</time>
      </trkpt>
      <trkpt lat="42.57443" lon="2.06606">
        <ele>1760.869263</ele>
        <time>2011-09-24T14:12:00Z</time>
      </trkpt>
      <trkpt lat="42.57445" lon="2.06612">
        <ele>1760.187988</ele>
        <time>2011-09-24T14:12:01Z</time>
      </trkpt>
      <trkpt lat="42.57449" lon="2.06621">
        <ele>1760.0354</ele>
        <time>2011-09-24T14:12:03Z</time>
      </trkpt>
      <trkpt lat="42.57454" lon="2.06619">
        <ele>1759.18335</ele>
        <time>2011-09-24T14:12:12Z</time>
      </trkpt>
      <trkpt lat="42.57458" lon="2.06624">
        <ele>1758.679932</ele>
        <time>2011-09-24T14:12:19Z</time>
      </trkpt>
      <trkpt lat="42.57463" lon="2.06625">
        <ele>1758.5354</ele>
        <time>2011-09-24T14:12:25Z</time>
      </trkpt>
      <trkpt lat="42.57469" lon="2.06627">
        <ele>1758.329346</ele>
        <time>2011-09-24T14:12:32Z</time>
      </trkpt>
      <trkpt lat="42.57473" lon="2.0663">
        <ele>1758.161377</ele>
        <time>2011-09-24T14:12:36Z</time>
      </trkpt>
      <trkpt lat="42.57477" lon="2.06632">
        <ele>1757.554199</ele>
        <time>2011-09-24T14:12:49Z</time>
      </trkpt>
      <trkpt lat="42.57472" lon="2.06634">
        <ele>1756.872925</ele>
        <time>2011-09-24T14:13:02Z</time>
      </trkpt>
      <trkpt lat="42.57474" lon="2.06643">
        <ele>1749.852905</ele>
        <time>2011-09-24T14:13:14Z</time>
      </trkpt>
      <trkpt lat="42.57478" lon="2.06646">
        <ele>1746.230591</ele>
        <time>2011-09-24T14:13:15Z</time>
      </trkpt>
      <trkpt lat="42.57485" lon="2.0665">
        <ele>1741.081055</ele>
        <time>2011-09-24T14:13:17Z</time>
      </trkpt>
      <trkpt lat="42.57489" lon="2.06654">
        <ele>1739.342773</ele>
        <time>2011-09-24T14:13:18Z</time>
      </trkpt>
      <trkpt lat="42.57494" lon="2.06659">
        <ele>1738.16333</ele>
        <time>2011-09-24T14:13:19Z</time>
      </trkpt>
      <trkpt lat="42.57498" lon="2.06663">
        <ele>1737.582764</ele>
        <time>2011-09-24T14:13:20Z</time>
      </trkpt>
      <trkpt lat="42.57502" lon="2.06668">
        <ele>1737.487305</ele>
        <time>2011-09-24T14:13:21Z</time>
      </trkpt>
      <trkpt lat="42.57506" lon="2.06673">
        <ele>1737.726562</ele>
        <time>2011-09-24T14:13:22Z</time>
      </trkpt>
      <trkpt lat="42.57508" lon="2.06679">
        <ele>1738.035278</ele>
        <time>2011-09-24T14:13:23Z</time>
      </trkpt>
      <trkpt lat="42.57513" lon="2.06689">
        <ele>1738.10791</ele>
        <time>2011-09-24T14:13:24Z</time>
      </trkpt>
      <trkpt lat="42.57519" lon="2.06699">
        <ele>1738.015991</ele>
        <time>2011-09-24T14:13:25Z</time>
      </trkpt>
      <trkpt lat="42.57526" lon="2.06704">
        <ele>1737.71228</ele>
        <time>2011-09-24T14:13:26Z</time>
      </trkpt>
      <trkpt lat="42.57532" lon="2.06708">
        <ele>1737.406372</ele>
        <time>2011-09-24T14:13:27Z</time>
      </trkpt>
      <trkpt lat="42.57537" lon="2.06713">
        <ele>1737.156738</ele>
        <time>2011-09-24T14:13:28Z</time>
      </trkpt>
      <trkpt lat="42.57542" lon="2.0672">
        <ele>1736.863647</ele>
        <time>2011-09-24T14:13:29Z</time>
      </trkpt>
      <trkpt lat="42.57547" lon="2.06728">
        <ele>1736.592651</ele>
        <time>2011-09-24T14:13:30Z</time>
      </trkpt>
      <trkpt lat="42.57551" lon="2.06736">
        <ele>1736.329346</ele>
        <time>2011-09-24T14:13:31Z</time>
      </trkpt>
      <trkpt lat="42.57555" lon="2.06743">
        <ele>1736.028564</ele>
        <time>2011-09-24T14:13:32Z</time>
      </trkpt>
      <trkpt lat="42.5756" lon="2.0675">
        <ele>1735.810303</ele>
        <time>2011-09-24T14:13:33Z</time>
      </trkpt>
      <trkpt lat="42.57565" lon="2.06757">
        <ele>1735.550049</ele>
        <time>2011-09-24T14:13:34Z</time>
      </trkpt>
      <trkpt lat="42.5757" lon="2.06766">
        <ele>1735.210571</ele>
        <time>2011-09-24T14:13:35Z</time>
      </trkpt>
      <trkpt lat="42.57576" lon="2.06773">
        <ele>1735.122559</ele>
        <time>2011-09-24T14:13:36Z</time>
      </trkpt>
      <trkpt lat="42.57578" lon="2.06779">
        <ele>1734.996216</ele>
        <time>2011-09-24T14:13:37Z</time>
      </trkpt>
      <trkpt lat="42.57579" lon="2.06785">
        <ele>1734.905273</ele>
        <time>2011-09-24T14:13:38Z</time>
      </trkpt>
      <trkpt lat="42.57575" lon="2.0679">
        <ele>1734.788086</ele>
        <time>2011-09-24T14:13:39Z</time>
      </trkpt>
      <trkpt lat="42.57569" lon="2.06791">
        <ele>1734.895142</ele>
        <time>2011-09-24T14:13:40Z</time>
      </trkpt>
      <trkpt lat="42.57563" lon="2.06794">
        <ele>1735.042236</ele>
        <time>2011-09-24T14:13:41Z</time>
      </trkpt>
      <trkpt lat="42.57555" lon="2.06797">
        <ele>1735.125977</ele>
        <time>2011-09-24T14:13:42Z</time>
      </trkpt>
      <trkpt lat="42.57548" lon="2.068">
        <ele>1735.169067</ele>
        <time>2011-09-24T14:13:43Z</time>
      </trkpt>
      <trkpt lat="42.57539" lon="2.06804">
        <ele>1735.001831</ele>
        <time>2011-09-24T14:13:44Z</time>
      </trkpt>
      <trkpt lat="42.57531" lon="2.06809">
        <ele>1734.70752</ele>
        <time>2011-09-24T14:13:45Z</time>
      </trkpt>
      <trkpt lat="42.57522" lon="2.06815">
        <ele>1734.35144</ele>
        <time>2011-09-24T14:13:46Z</time>
      </trkpt>
      <trkpt lat="42.57514" lon="2.06823">
        <ele>1733.95166</ele>
        <time>2011-09-24T14:13:47Z</time>
      </trkpt>
      <trkpt lat="42.57507" lon="2.06832">
        <ele>1733.49585</ele>
        <time>2011-09-24T14:13:48Z</time>
      </trkpt>
      <trkpt lat="42.575" lon="2.06844">
        <ele>1732.768799</ele>
        <time>2011-09-24T14:13:49Z</time>
      </trkpt>
      <trkpt lat="42.57496" lon="2.06859">
        <ele>1731.983643</ele>
        <time>2011-09-24T14:13:50Z</time>
      </trkpt>
      <trkpt lat="42.57491" lon="2.06873">
        <ele>1731.108887</ele>
        <time>2011-09-24T14:13:51Z</time>
      </trkpt>
      <trkpt lat="42.57487" lon="2.06886">
        <ele>1730.55481</ele>
        <time>2011-09-24T14:13:52Z</time>
      </trkpt>
      <trkpt lat="42.57484" lon="2.06898">
        <ele>1730.072876</ele>
        <time>2011-09-24T14:13:53Z</time>
      </trkpt>
      <trkpt lat="42.57481" lon="2.06909">
        <ele>1730.072876</ele>
        <time>2011-09-24T14:13:54Z</time>
      </trkpt>
      <trkpt lat="42.5749" lon="2.0691">
        <ele>1729.575684</ele>
        <time>2011-09-24T14:13:55Z</time>
      </trkpt>
      <trkpt lat="42.57492" lon="2.06913">
        <ele>1729.393677</ele>
        <time>2011-09-24T14:13:56Z</time>
      </trkpt>
      <trkpt lat="42.575" lon="2.06915">
        <ele>1722.067139</ele>
        <time>2011-09-24T14:14:10Z</time>
      </trkpt>
      <trkpt lat="42.57493" lon="2.06925">
        <ele>1718.091187</ele>
        <time>2011-09-24T14:14:19Z</time>
      </trkpt>
      <trkpt lat="42.57484" lon="2.06927">
        <ele>1716.766235</ele>
        <time>2011-09-24T14:14:23Z</time>
      </trkpt>
      <trkpt lat="42.5748" lon="2.06924">
        <ele>1716.122192</ele>
        <time>2011-09-24T14:14:25Z</time>
      </trkpt>
      <trkpt lat="42.57475" lon="2.06922">
        <ele>1714.613281</ele>
        <time>2011-09-24T14:14:34Z</time>
      </trkpt>
      <trkpt lat="42.5747" lon="2.06923">
        <ele>1709.744263</ele>
        <time>2011-09-24T14:16:54Z</time>
      </trkpt>
      <trkpt lat="42.57465" lon="2.06923">
        <ele>1709.087402</ele>
        <time>2011-09-24T14:16:57Z</time>
      </trkpt>
      <trkpt lat="42.57459" lon="2.06921">
        <ele>1708.617554</ele>
        <time>2011-09-24T14:17:00Z</time>
      </trkpt>
      <trkpt lat="42.57455" lon="2.06913">
        <ele>1708.312012</ele>
        <time>2011-09-24T14:17:03Z</time>
      </trkpt>
      <trkpt lat="42.57454" lon="2.06905">
        <ele>1708.106689</ele>
        <time>2011-09-24T14:17:05Z</time>
      </trkpt>
      <trkpt lat="42.57453" lon="2.06896">
        <ele>1707.872559</ele>
        <time>2011-09-24T14:17:07Z</time>
      </trkpt>
      <trkpt lat="42.57454" lon="2.06886">
        <ele>1707.684937</ele>
        <time>2011-09-24T14:17:09Z</time>
      </trkpt>
      <trkpt lat="42.57454" lon="2.06879">
        <ele>1707.625854</ele>
        <time>2011-09-24T14:17:10Z</time>
      </trkpt>
      <trkpt lat="42.57454" lon="2.06873">
        <ele>1707.571289</ele>
        <time>2011-09-24T14:17:11Z</time>
      </trkpt>
      <trkpt lat="42.57455" lon="2.0686">
        <ele>1707.542236</ele>
        <time>2011-09-24T14:17:13Z</time>
      </trkpt>
      <trkpt lat="42.57456" lon="2.06853">
        <ele>1707.535156</ele>
        <time>2011-09-24T14:17:14Z</time>
      </trkpt>
      <trkpt lat="42.57456" lon="2.06846">
        <ele>1707.533081</ele>
        <time>2011-09-24T14:17:15Z</time>
      </trkpt>
      <trkpt lat="42.57457" lon="2.06838">
        <ele>1707.550659</ele>
        <time>2011-09-24T14:17:16Z</time>
      </trkpt>
      <trkpt lat="42.57457" lon="2.0683">
        <ele>1707.577026</ele>
        <time>2011-09-24T14:17:17Z</time>
      </trkpt>
      <trkpt lat="42.57458" lon="2.06824">
        <ele>1707.610474</ele>
        <time>2011-09-24T14:17:18Z</time>
      </trkpt>
      <trkpt lat="42.57457" lon="2.06813">
        <ele>1707.693359</ele>
        <time>2011-09-24T14:17:20Z</time>
      </trkpt>
      <trkpt lat="42.57457" lon="2.06802">
        <ele>1707.803833</ele>
        <time>2011-09-24T14:17:22Z</time>
      </trkpt>
      <trkpt lat="42.57457" lon="2.06791">
        <ele>1707.935913</ele>
        <time>2011-09-24T14:17:24Z</time>
      </trkpt>
      <trkpt lat="42.57457" lon="2.0678">
        <ele>1708.103149</ele>
        <time>2011-09-24T14:17:26Z</time>
      </trkpt>
      <trkpt lat="42.57456" lon="2.0677">
        <ele>1708.290405</ele>
        <time>2011-09-24T14:17:28Z</time>
      </trkpt>
      <trkpt lat="42.57455" lon="2.0676">
        <ele>1708.482666</ele>
        <time>2011-09-24T14:17:30Z</time>
      </trkpt>
      <trkpt lat="42.57455" lon="2.06749">
        <ele>1708.658813</ele>
        <time>2011-09-24T14:17:32Z</time>
      </trkpt>
      <trkpt lat="42.57455" lon="2.06739">
        <ele>1708.837891</ele>
        <time>2011-09-24T14:17:34Z</time>
      </trkpt>
      <trkpt lat="42.57455" lon="2.0673">
        <ele>1709.022461</ele>
        <time>2011-09-24T14:17:36Z</time>
      </trkpt>
      <trkpt lat="42.57454" lon="2.06721">
        <ele>1709.210205</ele>
        <time>2011-09-24T14:17:38Z</time>
      </trkpt>
      <trkpt lat="42.57453" lon="2.06713">
        <ele>1709.404175</ele>
        <time>2011-09-24T14:17:40Z</time>
      </trkpt>
      <trkpt lat="42.57453" lon="2.06706">
        <ele>1709.602661</ele>
        <time>2011-09-24T14:17:42Z</time>
      </trkpt>
      <trkpt lat="42.57452" lon="2.06698">
        <ele>1709.776123</ele>
        <time>2011-09-24T14:17:44Z</time>
      </trkpt>
      <trkpt lat="42.57452" lon="2.06692">
        <ele>1709.810791</ele>
        <time>2011-09-24T14:17:46Z</time>
      </trkpt>
      <trkpt lat="42.57452" lon="2.06685">
        <ele>1709.860962</ele>
        <time>2011-09-24T14:17:48Z</time>
      </trkpt>
      <trkpt lat="42.57452" lon="2.06677">
        <ele>1709.911377</ele>
        <time>2011-09-24T14:17:50Z</time>
      </trkpt>
      <trkpt lat="42.57452" lon="2.06669">
        <ele>1709.977051</ele>
        <time>2011-09-24T14:17:52Z</time>
      </trkpt>
      <trkpt lat="42.57452" lon="2.0666">
        <ele>1710.077026</ele>
        <time>2011-09-24T14:17:54Z</time>
      </trkpt>
      <trkpt lat="42.57452" lon="2.06652">
        <ele>1710.19104</ele>
        <time>2011-09-24T14:17:56Z</time>
      </trkpt>
      <trkpt lat="42.57451" lon="2.06645">
        <ele>1710.307251</ele>
        <time>2011-09-24T14:17:58Z</time>
      </trkpt>
      <trkpt lat="42.57451" lon="2.06641">
        <ele>1710.368042</ele>
        <time>2011-09-24T14:17:59Z</time>
      </trkpt>
      <trkpt lat="42.57451" lon="2.06634">
        <ele>1710.496338</ele>
        <time>2011-09-24T14:18:01Z</time>
      </trkpt>
      <trkpt lat="42.5745" lon="2.06627">
        <ele>1710.540039</ele>
        <time>2011-09-24T14:18:03Z</time>
      </trkpt>
      <trkpt lat="42.5745" lon="2.06619">
        <ele>1709.622559</ele>
        <time>2011-09-24T14:18:05Z</time>
      </trkpt>
      <trkpt lat="42.5745" lon="2.06615">
        <ele>1709.012695</ele>
        <time>2011-09-24T14:18:06Z</time>
      </trkpt>
      <trkpt lat="42.57452" lon="2.06606">
        <ele>1707.761108</ele>
        <time>2011-09-24T14:18:08Z</time>
      </trkpt>
      <trkpt lat="42.57453" lon="2.06597">
        <ele>1706.712036</ele>
        <time>2011-09-24T14:18:10Z</time>
      </trkpt>
      <trkpt lat="42.57454" lon="2.06589">
        <ele>1705.77124</ele>
        <time>2011-09-24T14:18:12Z</time>
      </trkpt>
      <trkpt lat="42.57455" lon="2.0658">
        <ele>1705.085571</ele>
        <time>2011-09-24T14:18:14Z</time>
      </trkpt>
      <trkpt lat="42.57454" lon="2.06571">
        <ele>1704.528076</ele>
        <time>2011-09-24T14:18:16Z</time>
      </trkpt>
      <trkpt lat="42.57454" lon="2.0656">
        <ele>1704.27832</ele>
        <time>2011-09-24T14:18:18Z</time>
      </trkpt>
      <trkpt lat="42.57453" lon="2.06551">
        <ele>1704.102661</ele>
        <time>2011-09-24T14:18:20Z</time>
      </trkpt>
      <trkpt lat="42.57452" lon="2.06546">
        <ele>1704.020386</ele>
        <time>2011-09-24T14:18:21Z</time>
      </trkpt>
      <trkpt lat="42.57451" lon="2.06538">
        <ele>1703.898926</ele>
        <time>2011-09-24T14:18:23Z</time>
      </trkpt>
      <trkpt lat="42.5745" lon="2.06531">
        <ele>1703.875977</ele>
        <time>2011-09-24T14:18:25Z</time>
      </trkpt>
      <trkpt lat="42.57449" lon="2.06527">
        <ele>1703.878784</ele>
        <time>2011-09-24T14:18:26Z</time>
      </trkpt>
      <trkpt lat="42.57448" lon="2.06519">
        <ele>1703.99585</ele>
        <time>2011-09-24T14:18:28Z</time>
      </trkpt>
      <trkpt lat="42.57447" lon="2.06515">
        <ele>1704.147827</ele>
        <time>2011-09-24T14:18:29Z</time>
      </trkpt>
      <trkpt lat="42.57446" lon="2.06505">
        <ele>1704.625488</ele>
        <time>2011-09-24T14:18:31Z</time>
      </trkpt>
      <trkpt lat="42.57445" lon="2.06495">
        <ele>1705.181519</ele>
        <time>2011-09-24T14:18:33Z</time>
      </trkpt>
      <trkpt lat="42.57444" lon="2.06487">
        <ele>1705.740601</ele>
        <time>2011-09-24T14:18:35Z</time>
      </trkpt>
      <trkpt lat="42.57443" lon="2.06481">
        <ele>1706.289185</ele>
        <time>2011-09-24T14:18:37Z</time>
      </trkpt>
      <trkpt lat="42.57442" lon="2.06474">
        <ele>1706.838745</ele>
        <time>2011-09-24T14:18:39Z</time>
      </trkpt>
      <trkpt lat="42.57441" lon="2.06467">
        <ele>1707.40979</ele>
        <time>2011-09-24T14:18:41Z</time>
      </trkpt>
      <trkpt lat="42.5744" lon="2.0646">
        <ele>1708.03186</ele>
        <time>2011-09-24T14:18:43Z</time>
      </trkpt>
      <trkpt lat="42.5744" lon="2.06451">
        <ele>1708.692871</ele>
        <time>2011-09-24T14:18:45Z</time>
      </trkpt>
      <trkpt lat="42.57439" lon="2.06447">
        <ele>1709.020996</ele>
        <time>2011-09-24T14:18:46Z</time>
      </trkpt>
      <trkpt lat="42.57438" lon="2.06439">
        <ele>1709.668823</ele>
        <time>2011-09-24T14:18:48Z</time>
      </trkpt>
      <trkpt lat="42.57437" lon="2.06429">
        <ele>1710.546753</ele>
        <time>2011-09-24T14:18:50Z</time>
      </trkpt>
      <trkpt lat="42.57435" lon="2.06418">
        <ele>1711.697876</ele>
        <time>2011-09-24T14:18:52Z</time>
      </trkpt>
      <trkpt lat="42.57433" lon="2.06407">
        <ele>1713</ele>
        <time>2011-09-24T14:18:54Z</time>
      </trkpt>
      <trkpt lat="42.57431" lon="2.06397">
        <ele>1714.369263</ele>
        <time>2011-09-24T14:18:56Z</time>
      </trkpt>
      <trkpt lat="42.57429" lon="2.06387">
        <ele>1715.741699</ele>
        <time>2011-09-24T14:18:58Z</time>
      </trkpt>
      <trkpt lat="42.57428" lon="2.06377">
        <ele>1717.215942</ele>
        <time>2011-09-24T14:19:00Z</time>
      </trkpt>
      <trkpt lat="42.57426" lon="2.06367">
        <ele>1718.729736</ele>
        <time>2011-09-24T14:19:02Z</time>
      </trkpt>
      <trkpt lat="42.57425" lon="2.06357">
        <ele>1720.262939</ele>
        <time>2011-09-24T14:19:04Z</time>
      </trkpt>
      <trkpt lat="42.57423" lon="2.06347">
        <ele>1721.809204</ele>
        <time>2011-09-24T14:19:06Z</time>
      </trkpt>
      <trkpt lat="42.57422" lon="2.06338">
        <ele>1723.143921</ele>
        <time>2011-09-24T14:19:08Z</time>
      </trkpt>
      <trkpt lat="42.57423" lon="2.0633">
        <ele>1722.35376</ele>
        <time>2011-09-24T14:19:10Z</time>
      </trkpt>
      <trkpt lat="42.57426" lon="2.0632">
        <ele>1719.674927</ele>
        <time>2011-09-24T14:19:12Z</time>
      </trkpt>
      <trkpt lat="42.57427" lon="2.06314">
        <ele>1718.590942</ele>
        <time>2011-09-24T14:19:13Z</time>
      </trkpt>
      <trkpt lat="42.57429" lon="2.06307">
        <ele>1717.650391</ele>
        <time>2011-09-24T14:19:14Z</time>
      </trkpt>
      <trkpt lat="42.5743" lon="2.06301">
        <ele>1716.830811</ele>
        <time>2011-09-24T14:19:15Z</time>
      </trkpt>
      <trkpt lat="42.57431" lon="2.06295">
        <ele>1716.099121</ele>
        <time>2011-09-24T14:19:16Z</time>
      </trkpt>
      <trkpt lat="42.57433" lon="2.06283">
        <ele>1714.972046</ele>
        <time>2011-09-24T14:19:18Z</time>
      </trkpt>
      <trkpt lat="42.57434" lon="2.06273">
        <ele>1714.263916</ele>
        <time>2011-09-24T14:19:20Z</time>
      </trkpt>
      <trkpt lat="42.57434" lon="2.06263">
        <ele>1713.996582</ele>
        <time>2011-09-24T14:19:22Z</time>
      </trkpt>
      <trkpt lat="42.57433" lon="2.06253">
        <ele>1714.052368</ele>
        <time>2011-09-24T14:19:24Z</time>
      </trkpt>
      <trkpt lat="42.57432" lon="2.06244">
        <ele>1714.302612</ele>
        <time>2011-09-24T14:19:26Z</time>
      </trkpt>
      <trkpt lat="42.5743" lon="2.06235">
        <ele>1714.668579</ele>
        <time>2011-09-24T14:19:28Z</time>
      </trkpt>
      <trkpt lat="42.57429" lon="2.06226">
        <ele>1715.141602</ele>
        <time>2011-09-24T14:19:30Z</time>
      </trkpt>
      <trkpt lat="42.57427" lon="2.06219">
        <ele>1715.827271</ele>
        <time>2011-09-24T14:19:32Z</time>
      </trkpt>
      <trkpt lat="42.57425" lon="2.06212">
        <ele>1716.599243</ele>
        <time>2011-09-24T14:19:34Z</time>
      </trkpt>
      <trkpt lat="42.57423" lon="2.06204">
        <ele>1717.444214</ele>
        <time>2011-09-24T14:19:36Z</time>
      </trkpt>
      <trkpt lat="42.57422" lon="2.06196">
        <ele>1718.37793</ele>
        <time>2011-09-24T14:19:38Z</time>
      </trkpt>
      <trkpt lat="42.5742" lon="2.06187">
        <ele>1719.47998</ele>
        <time>2011-09-24T14:19:40Z</time>
      </trkpt>
      <trkpt lat="42.57418" lon="2.06177">
        <ele>1720.731934</ele>
        <time>2011-09-24T14:19:42Z</time>
      </trkpt>
      <trkpt lat="42.57416" lon="2.06169">
        <ele>1722.13269</ele>
        <time>2011-09-24T14:19:44Z</time>
      </trkpt>
      <trkpt lat="42.57414" lon="2.0616">
        <ele>1723.60791</ele>
        <time>2011-09-24T14:19:46Z</time>
      </trkpt>
      <trkpt lat="42.57413" lon="2.06152">
        <ele>1725.134277</ele>
        <time>2011-09-24T14:19:48Z</time>
      </trkpt>
      <trkpt lat="42.57411" lon="2.06143">
        <ele>1726.676392</ele>
        <time>2011-09-24T14:19:50Z</time>
      </trkpt>
      <trkpt lat="42.57409" lon="2.06135">
        <ele>1728.199585</ele>
        <time>2011-09-24T14:19:52Z</time>
      </trkpt>
      <trkpt lat="42.57407" lon="2.06127">
        <ele>1729.78064</ele>
        <time>2011-09-24T14:19:54Z</time>
      </trkpt>
      <trkpt lat="42.57406" lon="2.06119">
        <ele>1731.43042</ele>
        <time>2011-09-24T14:19:56Z</time>
      </trkpt>
      <trkpt lat="42.57404" lon="2.06111">
        <ele>1733.261597</ele>
        <time>2011-09-24T14:19:58Z</time>
      </trkpt>
      <trkpt lat="42.57402" lon="2.06102">
        <ele>1735.296265</ele>
        <time>2011-09-24T14:20:00Z</time>
      </trkpt>
      <trkpt lat="42.57401" lon="2.06093">
        <ele>1737.3573</ele>
        <time>2011-09-24T14:20:02Z</time>
      </trkpt>
      <trkpt lat="42.57399" lon="2.06084">
        <ele>1739.516724</ele>
        <time>2011-09-24T14:20:04Z</time>
      </trkpt>
      <trkpt lat="42.57398" lon="2.06079">
        <ele>1740.615845</ele>
        <time>2011-09-24T14:20:05Z</time>
      </trkpt>
      <trkpt lat="42.57397" lon="2.0607">
        <ele>1742.726807</ele>
        <time>2011-09-24T14:20:07Z</time>
      </trkpt>
      <trkpt lat="42.57396" lon="2.06061">
        <ele>1744.73938</ele>
        <time>2011-09-24T14:20:09Z</time>
      </trkpt>
      <trkpt lat="42.57396" lon="2.06053">
        <ele>1746.506348</ele>
        <time>2011-09-24T14:20:11Z</time>
      </trkpt>
      <trkpt lat="42.57396" lon="2.06044">
        <ele>1748.244873</ele>
        <time>2011-09-24T14:20:13Z</time>
      </trkpt>
      <trkpt lat="42.57395" lon="2.06035">
        <ele>1749.929321</ele>
        <time>2011-09-24T14:20:15Z</time>
      </trkpt>
      <trkpt lat="42.57396" lon="2.06026">
        <ele>1758.165649</ele>
        <time>2011-09-24T14:20:17Z</time>
      </trkpt>
      <trkpt lat="42.57396" lon="2.06017">
        <ele>1759.436157</ele>
        <time>2011-09-24T14:20:19Z</time>
      </trkpt>
      <trkpt lat="42.57395" lon="2.0601">
        <ele>1760.782227</ele>
        <time>2011-09-24T14:20:21Z</time>
      </trkpt>
      <trkpt lat="42.57394" lon="2.06002">
        <ele>1761.991821</ele>
        <time>2011-09-24T14:20:23Z</time>
      </trkpt>
      <trkpt lat="42.57394" lon="2.05995">
        <ele>1763.296753</ele>
        <time>2011-09-24T14:20:25Z</time>
      </trkpt>
      <trkpt lat="42.57393" lon="2.05986">
        <ele>1764.815918</ele>
        <time>2011-09-24T14:20:27Z</time>
      </trkpt>
      <trkpt lat="42.57392" lon="2.05977">
        <ele>1766.313599</ele>
        <time>2011-09-24T14:20:29Z</time>
      </trkpt>
      <trkpt lat="42.57391" lon="2.05967">
        <ele>1767.663818</ele>
        <time>2011-09-24T14:20:31Z</time>
      </trkpt>
      <trkpt lat="42.5739" lon="2.05958">
        <ele>1769.044067</ele>
        <time>2011-09-24T14:20:33Z</time>
      </trkpt>
      <trkpt lat="42.5739" lon="2.05954">
        <ele>1769.792725</ele>
        <time>2011-09-24T14:20:34Z</time>
      </trkpt>
      <trkpt lat="42.57389" lon="2.05945">
        <ele>1771.356079</ele>
        <time>2011-09-24T14:20:36Z</time>
      </trkpt>
      <trkpt lat="42.57388" lon="2.05936">
        <ele>1773.073486</ele>
        <time>2011-09-24T14:20:38Z</time>
      </trkpt>
      <trkpt lat="42.57387" lon="2.05929">
        <ele>1774.620483</ele>
        <time>2011-09-24T14:20:40Z</time>
      </trkpt>
      <trkpt lat="42.57386" lon="2.05921">
        <ele>1776.164185</ele>
        <time>2011-09-24T14:20:42Z</time>
      </trkpt>
      <trkpt lat="42.57385" lon="2.05913">
        <ele>1777.895752</ele>
        <time>2011-09-24T14:20:44Z</time>
      </trkpt>
      <trkpt lat="42.57384" lon="2.05906">
        <ele>1779.697021</ele>
        <time>2011-09-24T14:20:46Z</time>
      </trkpt>
      <trkpt lat="42.57383" lon="2.05897">
        <ele>1781.529053</ele>
        <time>2011-09-24T14:20:48Z</time>
      </trkpt>
      <trkpt lat="42.57382" lon="2.05888">
        <ele>1783.502563</ele>
        <time>2011-09-24T14:20:50Z</time>
      </trkpt>
      <trkpt lat="42.57381" lon="2.0588">
        <ele>1785.604492</ele>
        <time>2011-09-24T14:20:52Z</time>
      </trkpt>
      <trkpt lat="42.57379" lon="2.05873">
        <ele>1787.664551</ele>
        <time>2011-09-24T14:20:54Z</time>
      </trkpt>
      <trkpt lat="42.57379" lon="2.05866">
        <ele>1789.124268</ele>
        <time>2011-09-24T14:20:56Z</time>
      </trkpt>
      <trkpt lat="42.57382" lon="2.0586">
        <ele>1788.393188</ele>
        <time>2011-09-24T14:20:58Z</time>
      </trkpt>
      <trkpt lat="42.57388" lon="2.05853">
        <ele>1785.618896</ele>
        <time>2011-09-24T14:21:00Z</time>
      </trkpt>
      <trkpt lat="42.57393" lon="2.05845">
        <ele>1783.416382</ele>
        <time>2011-09-24T14:21:02Z</time>
      </trkpt>
      <trkpt lat="42.57396" lon="2.05836">
        <ele>1781.847534</ele>
        <time>2011-09-24T14:21:04Z</time>
      </trkpt>
      <trkpt lat="42.57397" lon="2.05825">
        <ele>1781.070068</ele>
        <time>2011-09-24T14:21:06Z</time>
      </trkpt>
      <trkpt lat="42.57397" lon="2.05819">
        <ele>1780.893799</ele>
        <time>2011-09-24T14:21:07Z</time>
      </trkpt>
      <trkpt lat="42.57396" lon="2.05813">
        <ele>1780.970947</ele>
        <time>2011-09-24T14:21:08Z</time>
      </trkpt>
      <trkpt lat="42.57394" lon="2.05801">
        <ele>1781.417603</ele>
        <time>2011-09-24T14:21:10Z</time>
      </trkpt>
      <trkpt lat="42.57392" lon="2.05791">
        <ele>1782.101929</ele>
        <time>2011-09-24T14:21:12Z</time>
      </trkpt>
      <trkpt lat="42.57389" lon="2.05784">
        <ele>1783.132324</ele>
        <time>2011-09-24T14:21:14Z</time>
      </trkpt>
      <trkpt lat="42.57386" lon="2.05775">
        <ele>1784.573486</ele>
        <time>2011-09-24T14:21:16Z</time>
      </trkpt>
      <trkpt lat="42.57383" lon="2.05766">
        <ele>1786.306519</ele>
        <time>2011-09-24T14:21:18Z</time>
      </trkpt>
      <trkpt lat="42.57381" lon="2.05757">
        <ele>1788.150879</ele>
        <time>2011-09-24T14:21:20Z</time>
      </trkpt>
      <trkpt lat="42.57379" lon="2.05749">
        <ele>1790.197754</ele>
        <time>2011-09-24T14:21:22Z</time>
      </trkpt>
      <trkpt lat="42.57377" lon="2.05744">
        <ele>1792.302612</ele>
        <time>2011-09-24T14:21:24Z</time>
      </trkpt>
      <trkpt lat="42.57375" lon="2.05742">
        <ele>1793.394653</ele>
        <time>2011-09-24T14:21:25Z</time>
      </trkpt>
      <trkpt lat="42.57373" lon="2.05733">
        <ele>1796.739136</ele>
        <time>2011-09-24T14:21:28Z</time>
      </trkpt>
      <trkpt lat="42.57371" lon="2.05725">
        <ele>1799.017334</ele>
        <time>2011-09-24T14:21:30Z</time>
      </trkpt>
      <trkpt lat="42.5737" lon="2.05716">
        <ele>1801.210083</ele>
        <time>2011-09-24T14:21:32Z</time>
      </trkpt>
      <trkpt lat="42.57368" lon="2.05708">
        <ele>1803.618286</ele>
        <time>2011-09-24T14:21:34Z</time>
      </trkpt>
      <trkpt lat="42.57368" lon="2.05704">
        <ele>1804.849976</ele>
        <time>2011-09-24T14:21:35Z</time>
      </trkpt>
      <trkpt lat="42.57366" lon="2.05698">
        <ele>1807.428467</ele>
        <time>2011-09-24T14:21:37Z</time>
      </trkpt>
      <trkpt lat="42.57364" lon="2.05691">
        <ele>1809.960938</ele>
        <time>2011-09-24T14:21:40Z</time>
      </trkpt>
      <trkpt lat="42.57363" lon="2.05683">
        <ele>1812.247803</ele>
        <time>2011-09-24T14:21:41Z</time>
      </trkpt>
      <trkpt lat="42.57361" lon="2.05675">
        <ele>1814.728271</ele>
        <time>2011-09-24T14:21:43Z</time>
      </trkpt>
      <trkpt lat="42.57361" lon="2.05671">
        <ele>1816.163086</ele>
        <time>2011-09-24T14:21:44Z</time>
      </trkpt>
      <trkpt lat="42.57358" lon="2.05661">
        <ele>1819.121094</ele>
        <time>2011-09-24T14:21:46Z</time>
      </trkpt>
      <trkpt lat="42.57356" lon="2.05651">
        <ele>1822.31543</ele>
        <time>2011-09-24T14:21:48Z</time>
      </trkpt>
      <trkpt lat="42.57353" lon="2.05641">
        <ele>1825.66394</ele>
        <time>2011-09-24T14:21:50Z</time>
      </trkpt>
      <trkpt lat="42.57351" lon="2.05631">
        <ele>1828.86084</ele>
        <time>2011-09-24T14:21:52Z</time>
      </trkpt>
      <trkpt lat="42.5735" lon="2.05622">
        <ele>1831.978027</ele>
        <time>2011-09-24T14:21:54Z</time>
      </trkpt>
      <trkpt lat="42.57349" lon="2.05613">
        <ele>1835.120361</ele>
        <time>2011-09-24T14:21:56Z</time>
      </trkpt>
      <trkpt lat="42.57348" lon="2.05605">
        <ele>1838.097046</ele>
        <time>2011-09-24T14:21:58Z</time>
      </trkpt>
      <trkpt lat="42.57347" lon="2.05599">
        <ele>1841.106201</ele>
        <time>2011-09-24T14:22:00Z</time>
      </trkpt>
      <trkpt lat="42.57345" lon="2.05591">
        <ele>1845.694458</ele>
        <time>2011-09-24T14:22:03Z</time>
      </trkpt>
      <trkpt lat="42.57343" lon="2.05584">
        <ele>1848.909668</ele>
        <time>2011-09-24T14:22:05Z</time>
      </trkpt>
      <trkpt lat="42.57341" lon="2.05577">
        <ele>1852.177124</ele>
        <time>2011-09-24T14:22:07Z</time>
      </trkpt>
      <trkpt lat="42.57339" lon="2.05569">
        <ele>1855.727173</ele>
        <time>2011-09-24T14:22:09Z</time>
      </trkpt>
      <trkpt lat="42.57336" lon="2.0556">
        <ele>1859.514282</ele>
        <time>2011-09-24T14:22:11Z</time>
      </trkpt>
      <trkpt lat="42.57333" lon="2.0555">
        <ele>1863.659546</ele>
        <time>2011-09-24T14:22:13Z</time>
      </trkpt>
      <trkpt lat="42.57331" lon="2.05542">
        <ele>1867.234131</ele>
        <time>2011-09-24T14:22:15Z</time>
      </trkpt>
      <trkpt lat="42.57334" lon="2.05537">
        <ele>1867.540527</ele>
        <time>2011-09-24T14:22:17Z</time>
      </trkpt>
      <trkpt lat="42.57339" lon="2.05531">
        <ele>1867.970093</ele>
        <time>2011-09-24T14:22:19Z</time>
      </trkpt>
      <trkpt lat="42.57342" lon="2.05521">
        <ele>1868.274292</ele>
        <time>2011-09-24T14:22:21Z</time>
      </trkpt>
      <trkpt lat="42.57343" lon="2.05517">
        <ele>1868.450928</ele>
        <time>2011-09-24T14:22:22Z</time>
      </trkpt>
      <trkpt lat="42.57345" lon="2.0551">
        <ele>1868.735718</ele>
        <time>2011-09-24T14:22:24Z</time>
      </trkpt>
      <trkpt lat="42.57346" lon="2.05502">
        <ele>1869.062256</ele>
        <time>2011-09-24T14:22:26Z</time>
      </trkpt>
      <trkpt lat="42.57346" lon="2.05493">
        <ele>1869.472778</ele>
        <time>2011-09-24T14:22:28Z</time>
      </trkpt>
      <trkpt lat="42.57345" lon="2.05483">
        <ele>1869.985474</ele>
        <time>2011-09-24T14:22:30Z</time>
      </trkpt>
      <trkpt lat="42.57344" lon="2.05475">
        <ele>1870.444702</ele>
        <time>2011-09-24T14:22:32Z</time>
      </trkpt>
      <trkpt lat="42.57344" lon="2.05471">
        <ele>1870.676392</ele>
        <time>2011-09-24T14:22:33Z</time>
      </trkpt>
      <trkpt lat="42.57343" lon="2.05463">
        <ele>1871.310303</ele>
        <time>2011-09-24T14:22:35Z</time>
      </trkpt>
      <trkpt lat="42.57341" lon="2.05454">
        <ele>1871.906494</ele>
        <time>2011-09-24T14:22:37Z</time>
      </trkpt>
      <trkpt lat="42.5734" lon="2.05447">
        <ele>1872.557739</ele>
        <time>2011-09-24T14:22:39Z</time>
      </trkpt>
      <trkpt lat="42.57338" lon="2.05438">
        <ele>1873.73645</ele>
        <time>2011-09-24T14:22:41Z</time>
      </trkpt>
      <trkpt lat="42.57334" lon="2.05428">
        <ele>1875.428345</ele>
        <time>2011-09-24T14:22:43Z</time>
      </trkpt>
      <trkpt lat="42.57331" lon="2.05418">
        <ele>1877.178467</ele>
        <time>2011-09-24T14:22:45Z</time>
      </trkpt>
      <trkpt lat="42.57328" lon="2.0541">
        <ele>1878.973145</ele>
        <time>2011-09-24T14:22:47Z</time>
      </trkpt>
      <trkpt lat="42.57325" lon="2.05403">
        <ele>1880.763428</ele>
        <time>2011-09-24T14:22:49Z</time>
      </trkpt>
      <trkpt lat="42.57323" lon="2.05396">
        <ele>1882.648071</ele>
        <time>2011-09-24T14:22:51Z</time>
      </trkpt>
      <trkpt lat="42.57321" lon="2.0539">
        <ele>1884.589233</ele>
        <time>2011-09-24T14:22:53Z</time>
      </trkpt>
      <trkpt lat="42.5732" lon="2.05386">
        <ele>1885.5979</ele>
        <time>2011-09-24T14:22:54Z</time>
      </trkpt>
      <trkpt lat="42.57317" lon="2.0538">
        <ele>1887.65979</ele>
        <time>2011-09-24T14:22:56Z</time>
      </trkpt>
      <trkpt lat="42.57316" lon="2.05376">
        <ele>1888.68457</ele>
        <time>2011-09-24T14:22:57Z</time>
      </trkpt>
      <trkpt lat="42.57315" lon="2.05369">
        <ele>1890.809814</ele>
        <time>2011-09-24T14:22:59Z</time>
      </trkpt>
      <trkpt lat="42.57312" lon="2.05363">
        <ele>1892.938965</ele>
        <time>2011-09-24T14:23:01Z</time>
      </trkpt>
      <trkpt lat="42.5731" lon="2.05358">
        <ele>1896.186523</ele>
        <time>2011-09-24T14:23:04Z</time>
      </trkpt>
      <trkpt lat="42.57305" lon="2.05354">
        <ele>1900.824707</ele>
        <time>2011-09-24T14:23:12Z</time>
      </trkpt>
      <trkpt lat="42.57305" lon="2.05354">
        <ele>1901.579712</ele>
        <time>2011-09-24T14:23:13Z</time>
      </trkpt>
      <trkpt lat="42.57304" lon="2.05347">
        <ele>1903.947632</ele>
        <time>2011-09-24T14:23:24Z</time>
      </trkpt>
      <trkpt lat="42.57301" lon="2.0534">
        <ele>1907.857056</ele>
        <time>2011-09-24T14:23:28Z</time>
      </trkpt>
      <trkpt lat="42.57298" lon="2.05335">
        <ele>1908.45752</ele>
        <time>2011-09-24T14:23:31Z</time>
      </trkpt>
      <trkpt lat="42.57298" lon="2.05335">
        <ele>1913.172119</ele>
        <time>2011-09-24T14:23:33Z</time>
      </trkpt>
      <trkpt lat="42.57294" lon="2.05329">
        <ele>1915.481812</ele>
        <time>2011-09-24T14:23:34Z</time>
      </trkpt>
      <trkpt lat="42.57291" lon="2.05324">
        <ele>1921.046387</ele>
        <time>2011-09-24T14:23:36Z</time>
      </trkpt>
      <trkpt lat="42.57287" lon="2.05318">
        <ele>1927.131592</ele>
        <time>2011-09-24T14:23:38Z</time>
      </trkpt>
      <trkpt lat="42.57283" lon="2.05313">
        <ele>1933.362793</ele>
        <time>2011-09-24T14:23:40Z</time>
      </trkpt>
      <trkpt lat="42.57277" lon="2.05308">
        <ele>1939.660645</ele>
        <time>2011-09-24T14:23:42Z</time>
      </trkpt>
      <trkpt lat="42.57272" lon="2.05305">
        <ele>1945.934448</ele>
        <time>2011-09-24T14:23:44Z</time>
      </trkpt>
      <trkpt lat="42.57267" lon="2.05301">
        <ele>1946.825806</ele>
        <time>2011-09-24T14:23:47Z</time>
      </trkpt>
      <trkpt lat="42.57263" lon="2.05297">
        <ele>1951.05481</ele>
        <time>2011-09-24T14:23:52Z</time>
      </trkpt>
      <trkpt lat="42.57258" lon="2.05299">
        <ele>1955.537964</ele>
        <time>2011-09-24T14:24:07Z</time>
      </trkpt>
      <trkpt lat="42.57258" lon="2.05299">
        <ele>1955.84375</ele>
        <time>2011-09-24T14:24:08Z</time>
      </trkpt>
      <trkpt lat="42.57255" lon="2.05302">
        <ele>1960.23999</ele>
        <time>2011-09-24T14:24:23Z</time>
      </trkpt>
      <trkpt lat="42.57251" lon="2.05306">
        <ele>1963.037354</ele>
        <time>2011-09-24T14:24:31Z</time>
      </trkpt>
      <trkpt lat="42.57255" lon="2.05301">
        <ele>1965.709229</ele>
        <time>2011-09-24T14:24:40Z</time>
      </trkpt>
      <trkpt lat="42.5725" lon="2.053">
        <ele>1993.978394</ele>
        <time>2011-09-24T14:25:02Z</time>
      </trkpt>
      <trkpt lat="42.57244" lon="2.05303">
        <ele>2001.161255</ele>
        <time>2011-09-24T14:25:05Z</time>
      </trkpt>
      <trkpt lat="42.5724" lon="2.05307">
        <ele>2005.692505</ele>
        <time>2011-09-24T14:25:07Z</time>
      </trkpt>
      <trkpt lat="42.57237" lon="2.05312">
        <ele>2010.029419</ele>
        <time>2011-09-24T14:25:09Z</time>
      </trkpt>
      <trkpt lat="42.57234" lon="2.05319">
        <ele>2014.187622</ele>
        <time>2011-09-24T14:25:11Z</time>
      </trkpt>
      <trkpt lat="42.57229" lon="2.05325">
        <ele>2018.181519</ele>
        <time>2011-09-24T14:25:13Z</time>
      </trkpt>
      <trkpt lat="42.57225" lon="2.05333">
        <ele>2022.024048</ele>
        <time>2011-09-24T14:25:15Z</time>
      </trkpt>
      <trkpt lat="42.57222" lon="2.0534">
        <ele>2025.715942</ele>
        <time>2011-09-24T14:25:17Z</time>
      </trkpt>
      <trkpt lat="42.57219" lon="2.05347">
        <ele>2029.250366</ele>
        <time>2011-09-24T14:25:19Z</time>
      </trkpt>
      <trkpt lat="42.57217" lon="2.05354">
        <ele>2032.648071</ele>
        <time>2011-09-24T14:25:21Z</time>
      </trkpt>
      <trkpt lat="42.57216" lon="2.05361">
        <ele>2035.906128</ele>
        <time>2011-09-24T14:25:23Z</time>
      </trkpt>
      <trkpt lat="42.57214" lon="2.05368">
        <ele>2039.033569</ele>
        <time>2011-09-24T14:25:25Z</time>
      </trkpt>
      <trkpt lat="42.57212" lon="2.05374">
        <ele>2042.035522</ele>
        <time>2011-09-24T14:25:27Z</time>
      </trkpt>
      <trkpt lat="42.57209" lon="2.05381">
        <ele>2044.924438</ele>
        <time>2011-09-24T14:25:29Z</time>
      </trkpt>
      <trkpt lat="42.57206" lon="2.05388">
        <ele>2047.705688</ele>
        <time>2011-09-24T14:25:31Z</time>
      </trkpt>
      <trkpt lat="42.57203" lon="2.05394">
        <ele>2050.375977</ele>
        <time>2011-09-24T14:25:33Z</time>
      </trkpt>
      <trkpt lat="42.57201" lon="2.05402">
        <ele>2052.945557</ele>
        <time>2011-09-24T14:25:35Z</time>
      </trkpt>
      <trkpt lat="42.57198" lon="2.0541">
        <ele>2055.411621</ele>
        <time>2011-09-24T14:25:37Z</time>
      </trkpt>
      <trkpt lat="42.57196" lon="2.05419">
        <ele>2057.773438</ele>
        <time>2011-09-24T14:25:39Z</time>
      </trkpt>
      <trkpt lat="42.57194" lon="2.05428">
        <ele>2060.038086</ele>
        <time>2011-09-24T14:25:41Z</time>
      </trkpt>
      <trkpt lat="42.57194" lon="2.05437">
        <ele>2062.209717</ele>
        <time>2011-09-24T14:25:43Z</time>
      </trkpt>
      <trkpt lat="42.57193" lon="2.05444">
        <ele>2064.289795</ele>
        <time>2011-09-24T14:25:45Z</time>
      </trkpt>
      <trkpt lat="42.57193" lon="2.05451">
        <ele>2066.28125</ele>
        <time>2011-09-24T14:25:47Z</time>
      </trkpt>
      <trkpt lat="42.57193" lon="2.0546">
        <ele>2069.113037</ele>
        <time>2011-09-24T14:25:50Z</time>
      </trkpt>
      <trkpt lat="42.57193" lon="2.05468">
        <ele>2071.771973</ele>
        <time>2011-09-24T14:25:53Z</time>
      </trkpt>
      <trkpt lat="42.57194" lon="2.05476">
        <ele>2074.275635</ele>
        <time>2011-09-24T14:25:56Z</time>
      </trkpt>
      <trkpt lat="42.57194" lon="2.05483">
        <ele>2076.639404</ele>
        <time>2011-09-24T14:25:59Z</time>
      </trkpt>
      <trkpt lat="42.57193" lon="2.0549">
        <ele>2078.872559</ele>
        <time>2011-09-24T14:26:02Z</time>
      </trkpt>
      <trkpt lat="42.57192" lon="2.05499">
        <ele>2080.981445</ele>
        <time>2011-09-24T14:26:05Z</time>
      </trkpt>
      <trkpt lat="42.57191" lon="2.05507">
        <ele>2082.950928</ele>
        <time>2011-09-24T14:26:08Z</time>
      </trkpt>
      <trkpt lat="42.57189" lon="2.05514">
        <ele>2084.810791</ele>
        <time>2011-09-24T14:26:11Z</time>
      </trkpt>
      <trkpt lat="42.57187" lon="2.05521">
        <ele>2087.140625</ele>
        <time>2011-09-24T14:26:15Z</time>
      </trkpt>
      <trkpt lat="42.57184" lon="2.05526">
        <ele>2088.790039</ele>
        <time>2011-09-24T14:26:18Z</time>
      </trkpt>
      <trkpt lat="42.57179" lon="2.05531">
        <ele>2090.369629</ele>
        <time>2011-09-24T14:26:21Z</time>
      </trkpt>
      <trkpt lat="42.57174" lon="2.05537">
        <ele>2091.939453</ele>
        <time>2011-09-24T14:26:24Z</time>
      </trkpt>
      <trkpt lat="42.57169" lon="2.0554">
        <ele>2093.98584</ele>
        <time>2011-09-24T14:26:28Z</time>
      </trkpt>
      <trkpt lat="42.57164" lon="2.05543">
        <ele>2095.49292</ele>
        <time>2011-09-24T14:26:31Z</time>
      </trkpt>
      <trkpt lat="42.5716" lon="2.05544">
        <ele>2096.659668</ele>
        <time>2011-09-24T14:26:37Z</time>
      </trkpt>
      <trkpt lat="42.57156" lon="2.05548">
        <ele>2099.616211</ele>
        <time>2011-09-24T14:26:54Z</time>
      </trkpt>
      <trkpt lat="42.57152" lon="2.05554">
        <ele>2100.517334</ele>
        <time>2011-09-24T14:26:56Z</time>
      </trkpt>
      <trkpt lat="42.57147" lon="2.05562">
        <ele>2105.167725</ele>
        <time>2011-09-24T14:26:58Z</time>
      </trkpt>
      <trkpt lat="42.57143" lon="2.05566">
        <ele>2108.447266</ele>
        <time>2011-09-24T14:26:59Z</time>
      </trkpt>
      <trkpt lat="42.57139" lon="2.05569">
        <ele>2110.994141</ele>
        <time>2011-09-24T14:27:00Z</time>
      </trkpt>
      <trkpt lat="42.57134" lon="2.05573">
        <ele>2112.926758</ele>
        <time>2011-09-24T14:27:01Z</time>
      </trkpt>
      <trkpt lat="42.57131" lon="2.05578">
        <ele>2114.42749</ele>
        <time>2011-09-24T14:27:02Z</time>
      </trkpt>
      <trkpt lat="42.57128" lon="2.05584">
        <ele>2115.660156</ele>
        <time>2011-09-24T14:27:03Z</time>
      </trkpt>
      <trkpt lat="42.57125" lon="2.05591">
        <ele>2116.614014</ele>
        <time>2011-09-24T14:27:05Z</time>
      </trkpt>
      <trkpt lat="42.57121" lon="2.05598">
        <ele>2117.397461</ele>
        <time>2011-09-24T14:27:05Z</time>
      </trkpt>
      <trkpt lat="42.57113" lon="2.05613">
        <ele>2117.986572</ele>
        <time>2011-09-24T14:27:06Z</time>
      </trkpt>
      <trkpt lat="42.57108" lon="2.05622">
        <ele>2118.423828</ele>
        <time>2011-09-24T14:27:07Z</time>
      </trkpt>
      <trkpt lat="42.57103" lon="2.05631">
        <ele>2118.80835</ele>
        <time>2011-09-24T14:27:08Z</time>
      </trkpt>
      <trkpt lat="42.57099" lon="2.05638">
        <ele>2119.108154</ele>
        <time>2011-09-24T14:27:09Z</time>
      </trkpt>
      <trkpt lat="42.57094" lon="2.05645">
        <ele>2119.254395</ele>
        <time>2011-09-24T14:27:10Z</time>
      </trkpt>
      <trkpt lat="42.57091" lon="2.0565">
        <ele>2119.378174</ele>
        <time>2011-09-24T14:27:11Z</time>
      </trkpt>
      <trkpt lat="42.57085" lon="2.05655">
        <ele>2119.405273</ele>
        <time>2011-09-24T14:27:13Z</time>
      </trkpt>
      <trkpt lat="42.57082" lon="2.05663">
        <ele>2119.823242</ele>
        <time>2011-09-24T14:27:15Z</time>
      </trkpt>
      <trkpt lat="42.57083" lon="2.05669">
        <ele>2120.093506</ele>
        <time>2011-09-24T14:27:16Z</time>
      </trkpt>
      <trkpt lat="42.57085" lon="2.05675">
        <ele>2120.202148</ele>
        <time>2011-09-24T14:27:17Z</time>
      </trkpt>
      <trkpt lat="42.57086" lon="2.05682">
        <ele>2120.259766</ele>
        <time>2011-09-24T14:27:18Z</time>
      </trkpt>
      <trkpt lat="42.57085" lon="2.05694">
        <ele>2120.554443</ele>
        <time>2011-09-24T14:27:20Z</time>
      </trkpt>
      <trkpt lat="42.5708" lon="2.057">
        <ele>2121.020264</ele>
        <time>2011-09-24T14:27:21Z</time>
      </trkpt>
      <trkpt lat="42.57076" lon="2.05703">
        <ele>2121.470215</ele>
        <time>2011-09-24T14:27:22Z</time>
      </trkpt>
      <trkpt lat="42.57073" lon="2.05709">
        <ele>2121.844482</ele>
        <time>2011-09-24T14:27:23Z</time>
      </trkpt>
      <trkpt lat="42.57071" lon="2.05716">
        <ele>2122.022705</ele>
        <time>2011-09-24T14:27:24Z</time>
      </trkpt>
      <trkpt lat="42.5707" lon="2.05722">
        <ele>2121.884033</ele>
        <time>2011-09-24T14:27:25Z</time>
      </trkpt>
      <trkpt lat="42.57068" lon="2.05728">
        <ele>2121.645508</ele>
        <time>2011-09-24T14:27:26Z</time>
      </trkpt>
      <trkpt lat="42.57063" lon="2.05734">
        <ele>2121.571045</ele>
        <time>2011-09-24T14:27:28Z</time>
      </trkpt>
      <trkpt lat="42.57058" lon="2.0574">
        <ele>2121.335938</ele>
        <time>2011-09-24T14:27:31Z</time>
      </trkpt>
      <trkpt lat="42.57056" lon="2.0575">
        <ele>2121.161377</ele>
        <time>2011-09-24T14:27:33Z</time>
      </trkpt>
      <trkpt lat="42.57054" lon="2.05758">
        <ele>2120.954834</ele>
        <time>2011-09-24T14:27:35Z</time>
      </trkpt>
      <trkpt lat="42.57051" lon="2.05765">
        <ele>2120.65625</ele>
        <time>2011-09-24T14:27:38Z</time>
      </trkpt>
      <trkpt lat="42.57046" lon="2.05766">
        <ele>2120.286865</ele>
        <time>2011-09-24T14:27:42Z</time>
      </trkpt>
      <trkpt lat="42.57042" lon="2.05769">
        <ele>2120.16748</ele>
        <time>2011-09-24T14:27:44Z</time>
      </trkpt>
      <trkpt lat="42.57039" lon="2.05776">
        <ele>2120.068848</ele>
        <time>2011-09-24T14:27:46Z</time>
      </trkpt>
      <trkpt lat="42.57037" lon="2.05783">
        <ele>2120.091553</ele>
        <time>2011-09-24T14:27:47Z</time>
      </trkpt>
      <trkpt lat="42.57033" lon="2.0579">
        <ele>2120.108398</ele>
        <time>2011-09-24T14:27:48Z</time>
      </trkpt>
      <trkpt lat="42.57029" lon="2.05799">
        <ele>2120.096191</ele>
        <time>2011-09-24T14:27:49Z</time>
      </trkpt>
      <trkpt lat="42.57024" lon="2.05808">
        <ele>2119.820557</ele>
        <time>2011-09-24T14:27:50Z</time>
      </trkpt>
      <trkpt lat="42.57019" lon="2.05816">
        <ele>2119.208496</ele>
        <time>2011-09-24T14:27:51Z</time>
      </trkpt>
      <trkpt lat="42.57015" lon="2.05822">
        <ele>2116.372314</ele>
        <time>2011-09-24T14:27:52Z</time>
      </trkpt>
      <trkpt lat="42.57011" lon="2.05827">
        <ele>2112.763672</ele>
        <time>2011-09-24T14:27:53Z</time>
      </trkpt>
      <trkpt lat="42.57009" lon="2.05833">
        <ele>2108.901855</ele>
        <time>2011-09-24T14:27:54Z</time>
      </trkpt>
      <trkpt lat="42.57006" lon="2.05838">
        <ele>2105.75293</ele>
        <time>2011-09-24T14:27:55Z</time>
      </trkpt>
      <trkpt lat="42.57003" lon="2.0585">
        <ele>2101.165771</ele>
        <time>2011-09-24T14:27:57Z</time>
      </trkpt>
      <trkpt lat="42.57002" lon="2.05862">
        <ele>2098.158203</ele>
        <time>2011-09-24T14:27:59Z</time>
      </trkpt>
      <trkpt lat="42.57001" lon="2.05868">
        <ele>2097.126221</ele>
        <time>2011-09-24T14:28:00Z</time>
      </trkpt>
      <trkpt lat="42.56998" lon="2.0588">
        <ele>2095.763672</ele>
        <time>2011-09-24T14:28:02Z</time>
      </trkpt>
      <trkpt lat="42.56996" lon="2.0589">
        <ele>2095.298584</ele>
        <time>2011-09-24T14:28:04Z</time>
      </trkpt>
      <trkpt lat="42.56993" lon="2.05898">
        <ele>2095.187988</ele>
        <time>2011-09-24T14:28:06Z</time>
      </trkpt>
      <trkpt lat="42.5699" lon="2.05908">
        <ele>2094.513672</ele>
        <time>2011-09-24T14:28:08Z</time>
      </trkpt>
      <trkpt lat="42.56991" lon="2.05917">
        <ele>2094.377441</ele>
        <time>2011-09-24T14:28:10Z</time>
      </trkpt>
      <trkpt lat="42.56992" lon="2.05924">
        <ele>2094.222168</ele>
        <time>2011-09-24T14:28:12Z</time>
      </trkpt>
      <trkpt lat="42.56992" lon="2.05931">
        <ele>2093.499023</ele>
        <time>2011-09-24T14:28:47Z</time>
      </trkpt>
      <trkpt lat="42.56991" lon="2.05937">
        <ele>2093.249756</ele>
        <time>2011-09-24T14:28:49Z</time>
      </trkpt>
      <trkpt lat="42.56988" lon="2.05943">
        <ele>2092.968018</ele>
        <time>2011-09-24T14:28:51Z</time>
      </trkpt>
      <trkpt lat="42.56983" lon="2.05946">
        <ele>2092.678711</ele>
        <time>2011-09-24T14:28:53Z</time>
      </trkpt>
      <trkpt lat="42.56981" lon="2.05953">
        <ele>2092.373535</ele>
        <time>2011-09-24T14:28:55Z</time>
      </trkpt>
      <trkpt lat="42.56979" lon="2.05964">
        <ele>2090.098633</ele>
        <time>2011-09-24T14:28:57Z</time>
      </trkpt>
      <trkpt lat="42.56976" lon="2.05974">
        <ele>2089.602295</ele>
        <time>2011-09-24T14:28:59Z</time>
      </trkpt>
      <trkpt lat="42.56971" lon="2.05979">
        <ele>2088.932129</ele>
        <time>2011-09-24T14:29:01Z</time>
      </trkpt>
      <trkpt lat="42.56967" lon="2.05974">
        <ele>2087.966309</ele>
        <time>2011-09-24T14:29:03Z</time>
      </trkpt>
      <trkpt lat="42.56963" lon="2.05967">
        <ele>2086.961182</ele>
        <time>2011-09-24T14:29:05Z</time>
      </trkpt>
      <trkpt lat="42.56958" lon="2.0596">
        <ele>2081.504883</ele>
        <time>2011-09-24T14:29:07Z</time>
      </trkpt>
      <trkpt lat="42.56952" lon="2.05959">
        <ele>2080.669434</ele>
        <time>2011-09-24T14:29:09Z</time>
      </trkpt>
      <trkpt lat="42.56948" lon="2.05965">
        <ele>2079.835449</ele>
        <time>2011-09-24T14:29:11Z</time>
      </trkpt>
      <trkpt lat="42.56949" lon="2.05976">
        <ele>2075.699707</ele>
        <time>2011-09-24T14:29:13Z</time>
      </trkpt>
      <trkpt lat="42.56949" lon="2.05988">
        <ele>2070.436279</ele>
        <time>2011-09-24T14:29:15Z</time>
      </trkpt>
      <trkpt lat="42.56945" lon="2.05999">
        <ele>2067.022217</ele>
        <time>2011-09-24T14:29:17Z</time>
      </trkpt>
      <trkpt lat="42.5694" lon="2.06007">
        <ele>2066.754395</ele>
        <time>2011-09-24T14:29:19Z</time>
      </trkpt>
      <trkpt lat="42.56934" lon="2.06009">
        <ele>2066.48877</ele>
        <time>2011-09-24T14:29:21Z</time>
      </trkpt>
      <trkpt lat="42.56925" lon="2.06009">
        <ele>2064.464355</ele>
        <time>2011-09-24T14:29:23Z</time>
      </trkpt>
      <trkpt lat="42.56919" lon="2.06011">
        <ele>2063.868652</ele>
        <time>2011-09-24T14:29:24Z</time>
      </trkpt>
      <trkpt lat="42.56914" lon="2.06014">
        <ele>2062.884766</ele>
        <time>2011-09-24T14:29:25Z</time>
      </trkpt>
      <trkpt lat="42.56909" lon="2.06018">
        <ele>2061.669189</ele>
        <time>2011-09-24T14:29:26Z</time>
      </trkpt>
      <trkpt lat="42.56905" lon="2.06023">
        <ele>2060.20166</ele>
        <time>2011-09-24T14:29:27Z</time>
      </trkpt>
      <trkpt lat="42.56901" lon="2.06028">
        <ele>2058.883057</ele>
        <time>2011-09-24T14:29:28Z</time>
      </trkpt>
      <trkpt lat="42.56898" lon="2.06033">
        <ele>2057.847412</ele>
        <time>2011-09-24T14:29:29Z</time>
      </trkpt>
      <trkpt lat="42.56896" lon="2.0604">
        <ele>2056.819092</ele>
        <time>2011-09-24T14:29:30Z</time>
      </trkpt>
      <trkpt lat="42.56895" lon="2.06047">
        <ele>2055.972656</ele>
        <time>2011-09-24T14:29:31Z</time>
      </trkpt>
      <trkpt lat="42.56894" lon="2.06054">
        <ele>2055.184082</ele>
        <time>2011-09-24T14:29:32Z</time>
      </trkpt>
      <trkpt lat="42.56892" lon="2.06065">
        <ele>2054.466309</ele>
        <time>2011-09-24T14:29:34Z</time>
      </trkpt>
      <trkpt lat="42.56889" lon="2.06077">
        <ele>2054.418945</ele>
        <time>2011-09-24T14:29:36Z</time>
      </trkpt>
      <trkpt lat="42.56886" lon="2.06086">
        <ele>2054.399658</ele>
        <time>2011-09-24T14:29:38Z</time>
      </trkpt>
      <trkpt lat="42.56884" lon="2.06094">
        <ele>2054.358887</ele>
        <time>2011-09-24T14:29:40Z</time>
      </trkpt>
      <trkpt lat="42.56879" lon="2.061">
        <ele>2054.311035</ele>
        <time>2011-09-24T14:29:42Z</time>
      </trkpt>
      <trkpt lat="42.56873" lon="2.06101">
        <ele>2054.261719</ele>
        <time>2011-09-24T14:29:44Z</time>
      </trkpt>
      <trkpt lat="42.56866" lon="2.061">
        <ele>2054.175049</ele>
        <time>2011-09-24T14:29:46Z</time>
      </trkpt>
      <trkpt lat="42.56865" lon="2.06096">
        <ele>2054.108154</ele>
        <time>2011-09-24T14:29:47Z</time>
      </trkpt>
      <trkpt lat="42.56862" lon="2.0609">
        <ele>2052.578125</ele>
        <time>2011-09-24T14:29:48Z</time>
      </trkpt>
      <trkpt lat="42.5686" lon="2.06079">
        <ele>2050.73877</ele>
        <time>2011-09-24T14:29:50Z</time>
      </trkpt>
      <trkpt lat="42.56859" lon="2.06073">
        <ele>2050.215576</ele>
        <time>2011-09-24T14:29:52Z</time>
      </trkpt>
      <trkpt lat="42.56854" lon="2.06078">
        <ele>2049.27417</ele>
        <time>2011-09-24T14:29:55Z</time>
      </trkpt>
      <trkpt lat="42.56853" lon="2.06085">
        <ele>2045.771606</ele>
        <time>2011-09-24T14:29:56Z</time>
      </trkpt>
      <trkpt lat="42.56851" lon="2.06093">
        <ele>2043.005981</ele>
        <time>2011-09-24T14:29:57Z</time>
      </trkpt>
      <trkpt lat="42.5685" lon="2.06101">
        <ele>2040.637817</ele>
        <time>2011-09-24T14:29:58Z</time>
      </trkpt>
      <trkpt lat="42.56849" lon="2.0611">
        <ele>2038.620239</ele>
        <time>2011-09-24T14:29:59Z</time>
      </trkpt>
      <trkpt lat="42.56848" lon="2.06118">
        <ele>2036.971802</ele>
        <time>2011-09-24T14:30:00Z</time>
      </trkpt>
      <trkpt lat="42.56846" lon="2.06126">
        <ele>2035.606567</ele>
        <time>2011-09-24T14:30:01Z</time>
      </trkpt>
      <trkpt lat="42.56843" lon="2.06135">
        <ele>2035.356323</ele>
        <time>2011-09-24T14:30:03Z</time>
      </trkpt>
      <trkpt lat="42.5684" lon="2.06139">
        <ele>2035.105103</ele>
        <time>2011-09-24T14:30:05Z</time>
      </trkpt>
      <trkpt lat="42.56837" lon="2.06148">
        <ele>2034.679077</ele>
        <time>2011-09-24T14:30:08Z</time>
      </trkpt>
      <trkpt lat="42.56833" lon="2.06154">
        <ele>2034.292847</ele>
        <time>2011-09-24T14:30:10Z</time>
      </trkpt>
      <trkpt lat="42.56828" lon="2.06159">
        <ele>2033.796997</ele>
        <time>2011-09-24T14:30:12Z</time>
      </trkpt>
      <trkpt lat="42.56829" lon="2.06168">
        <ele>2030.44397</ele>
        <time>2011-09-24T14:30:14Z</time>
      </trkpt>
      <trkpt lat="42.56831" lon="2.06178">
        <ele>2027.711548</ele>
        <time>2011-09-24T14:30:16Z</time>
      </trkpt>
      <trkpt lat="42.56831" lon="2.06189">
        <ele>2025.135864</ele>
        <time>2011-09-24T14:30:18Z</time>
      </trkpt>
      <trkpt lat="42.56833" lon="2.06196">
        <ele>2023.054565</ele>
        <time>2011-09-24T14:30:19Z</time>
      </trkpt>
      <trkpt lat="42.56835" lon="2.06203">
        <ele>2021.226196</ele>
        <time>2011-09-24T14:30:20Z</time>
      </trkpt>
      <trkpt lat="42.56837" lon="2.06209">
        <ele>2019.585815</ele>
        <time>2011-09-24T14:30:22Z</time>
      </trkpt>
      <trkpt lat="42.56837" lon="2.06216">
        <ele>2018.131958</ele>
        <time>2011-09-24T14:30:22Z</time>
      </trkpt>
      <trkpt lat="42.56834" lon="2.06221">
        <ele>2016.877075</ele>
        <time>2011-09-24T14:30:23Z</time>
      </trkpt>
      <trkpt lat="42.56829" lon="2.06229">
        <ele>2015.901489</ele>
        <time>2011-09-24T14:30:25Z</time>
      </trkpt>
      <trkpt lat="42.56829" lon="2.06236">
        <ele>2015.119751</ele>
        <time>2011-09-24T14:30:26Z</time>
      </trkpt>
      <trkpt lat="42.56828" lon="2.06242">
        <ele>2014.43396</ele>
        <time>2011-09-24T14:30:27Z</time>
      </trkpt>
      <trkpt lat="42.56827" lon="2.06248">
        <ele>2013.799194</ele>
        <time>2011-09-24T14:30:28Z</time>
      </trkpt>
      <trkpt lat="42.56824" lon="2.06253">
        <ele>2013.070435</ele>
        <time>2011-09-24T14:30:29Z</time>
      </trkpt>
      <trkpt lat="42.56822" lon="2.06259">
        <ele>2012.296265</ele>
        <time>2011-09-24T14:30:30Z</time>
      </trkpt>
      <trkpt lat="42.5682" lon="2.06265">
        <ele>2011.55188</ele>
        <time>2011-09-24T14:30:31Z</time>
      </trkpt>
      <trkpt lat="42.56818" lon="2.0627">
        <ele>2010.768433</ele>
        <time>2011-09-24T14:30:32Z</time>
      </trkpt>
      <trkpt lat="42.56816" lon="2.06279">
        <ele>2010.567261</ele>
        <time>2011-09-24T14:30:34Z</time>
      </trkpt>
      <trkpt lat="42.56819" lon="2.06284">
        <ele>2009.216187</ele>
        <time>2011-09-24T14:30:35Z</time>
      </trkpt>
      <trkpt lat="42.56824" lon="2.06291">
        <ele>2008.924194</ele>
        <time>2011-09-24T14:30:37Z</time>
      </trkpt>
      <trkpt lat="42.56825" lon="2.06298">
        <ele>2008.493042</ele>
        <time>2011-09-24T14:30:39Z</time>
      </trkpt>
      <trkpt lat="42.56825" lon="2.06305">
        <ele>2007.822388</ele>
        <time>2011-09-24T14:30:42Z</time>
      </trkpt>
      <trkpt lat="42.56823" lon="2.06312">
        <ele>2007.371948</ele>
        <time>2011-09-24T14:30:44Z</time>
      </trkpt>
      <trkpt lat="42.5682" lon="2.06317">
        <ele>2007.14856</ele>
        <time>2011-09-24T14:30:45Z</time>
      </trkpt>
      <trkpt lat="42.56814" lon="2.06318">
        <ele>2004.931519</ele>
        <time>2011-09-24T14:30:46Z</time>
      </trkpt>
      <trkpt lat="42.56809" lon="2.06319">
        <ele>2003.006714</ele>
        <time>2011-09-24T14:30:47Z</time>
      </trkpt>
      <trkpt lat="42.56804" lon="2.06319">
        <ele>2001.370239</ele>
        <time>2011-09-24T14:30:48Z</time>
      </trkpt>
      <trkpt lat="42.56799" lon="2.0632">
        <ele>1999.976685</ele>
        <time>2011-09-24T14:30:49Z</time>
      </trkpt>
      <trkpt lat="42.56794" lon="2.06321">
        <ele>1998.850464</ele>
        <time>2011-09-24T14:30:50Z</time>
      </trkpt>
      <trkpt lat="42.5679" lon="2.06323">
        <ele>1997.855835</ele>
        <time>2011-09-24T14:30:51Z</time>
      </trkpt>
      <trkpt lat="42.56785" lon="2.0633">
        <ele>1996.848022</ele>
        <time>2011-09-24T14:30:53Z</time>
      </trkpt>
      <trkpt lat="42.56783" lon="2.06339">
        <ele>1995.559692</ele>
        <time>2011-09-24T14:30:55Z</time>
      </trkpt>
      <trkpt lat="42.56781" lon="2.0635">
        <ele>1994.002808</ele>
        <time>2011-09-24T14:30:57Z</time>
      </trkpt>
      <trkpt lat="42.56782" lon="2.06361">
        <ele>1992.419067</ele>
        <time>2011-09-24T14:30:59Z</time>
      </trkpt>
      <trkpt lat="42.56781" lon="2.06368">
        <ele>1992.286011</ele>
        <time>2011-09-24T14:31:01Z</time>
      </trkpt>
      <trkpt lat="42.56778" lon="2.06375">
        <ele>1992.132324</ele>
        <time>2011-09-24T14:31:03Z</time>
      </trkpt>
      <trkpt lat="42.56776" lon="2.06385">
        <ele>1991.94873</ele>
        <time>2011-09-24T14:31:05Z</time>
      </trkpt>
      <trkpt lat="42.56775" lon="2.06393">
        <ele>1991.710083</ele>
        <time>2011-09-24T14:31:07Z</time>
      </trkpt>
      <trkpt lat="42.56771" lon="2.06398">
        <ele>1991.474121</ele>
        <time>2011-09-24T14:31:09Z</time>
      </trkpt>
      <trkpt lat="42.56766" lon="2.06401">
        <ele>1991.19458</ele>
        <time>2011-09-24T14:31:11Z</time>
      </trkpt>
      <trkpt lat="42.56761" lon="2.06407">
        <ele>1990.865601</ele>
        <time>2011-09-24T14:31:13Z</time>
      </trkpt>
      <trkpt lat="42.56759" lon="2.06417">
        <ele>1990.515747</ele>
        <time>2011-09-24T14:31:15Z</time>
      </trkpt>
      <trkpt lat="42.56756" lon="2.06424">
        <ele>1990.032715</ele>
        <time>2011-09-24T14:31:17Z</time>
      </trkpt>
      <trkpt lat="42.56747" lon="2.06426">
        <ele>1986.392822</ele>
        <time>2011-09-24T14:31:21Z</time>
      </trkpt>
      <trkpt lat="42.56742" lon="2.06435">
        <ele>1981.701416</ele>
        <time>2011-09-24T14:31:23Z</time>
      </trkpt>
      <trkpt lat="42.56738" lon="2.06443">
        <ele>1976.903198</ele>
        <time>2011-09-24T14:31:25Z</time>
      </trkpt>
      <trkpt lat="42.56732" lon="2.06445">
        <ele>1971.442017</ele>
        <time>2011-09-24T14:31:27Z</time>
      </trkpt>
      <trkpt lat="42.56725" lon="2.06439">
        <ele>1965.133667</ele>
        <time>2011-09-24T14:31:29Z</time>
      </trkpt>
      <trkpt lat="42.56719" lon="2.06437">
        <ele>1950.655151</ele>
        <time>2011-09-24T14:31:31Z</time>
      </trkpt>
      <trkpt lat="42.56711" lon="2.06442">
        <ele>1936.787964</ele>
        <time>2011-09-24T14:31:33Z</time>
      </trkpt>
      <trkpt lat="42.56706" lon="2.06446">
        <ele>1930.711914</ele>
        <time>2011-09-24T14:31:34Z</time>
      </trkpt>
      <trkpt lat="42.56699" lon="2.06451">
        <ele>1925.567139</ele>
        <time>2011-09-24T14:31:35Z</time>
      </trkpt>
      <trkpt lat="42.56693" lon="2.06459">
        <ele>1921.339966</ele>
        <time>2011-09-24T14:31:36Z</time>
      </trkpt>
      <trkpt lat="42.56687" lon="2.06466">
        <ele>1917.825562</ele>
        <time>2011-09-24T14:31:37Z</time>
      </trkpt>
      <trkpt lat="42.56683" lon="2.06473">
        <ele>1914.726318</ele>
        <time>2011-09-24T14:31:38Z</time>
      </trkpt>
      <trkpt lat="42.56678" lon="2.0648">
        <ele>1912.166992</ele>
        <time>2011-09-24T14:31:39Z</time>
      </trkpt>
      <trkpt lat="42.56672" lon="2.06484">
        <ele>1910.046387</ele>
        <time>2011-09-24T14:31:40Z</time>
      </trkpt>
      <trkpt lat="42.56665" lon="2.06484">
        <ele>1908.221924</ele>
        <time>2011-09-24T14:31:41Z</time>
      </trkpt>
      <trkpt lat="42.5666" lon="2.06482">
        <ele>1906.785889</ele>
        <time>2011-09-24T14:31:42Z</time>
      </trkpt>
      <trkpt lat="42.56653" lon="2.06483">
        <ele>1906.559692</ele>
        <time>2011-09-24T14:31:44Z</time>
      </trkpt>
      <trkpt lat="42.56648" lon="2.0649">
        <ele>1906.353882</ele>
        <time>2011-09-24T14:31:46Z</time>
      </trkpt>
      <trkpt lat="42.56647" lon="2.06497">
        <ele>1905.528198</ele>
        <time>2011-09-24T14:31:47Z</time>
      </trkpt>
      <trkpt lat="42.56646" lon="2.06504">
        <ele>1905.050659</ele>
        <time>2011-09-24T14:31:48Z</time>
      </trkpt>
      <trkpt lat="42.56643" lon="2.06511">
        <ele>1904.692993</ele>
        <time>2011-09-24T14:31:49Z</time>
      </trkpt>
      <trkpt lat="42.56638" lon="2.0652">
        <ele>1904.46228</ele>
        <time>2011-09-24T14:31:51Z</time>
      </trkpt>
      <trkpt lat="42.56634" lon="2.06525">
        <ele>1904.424194</ele>
        <time>2011-09-24T14:31:53Z</time>
      </trkpt>
      <trkpt lat="42.56632" lon="2.06533">
        <ele>1904.373047</ele>
        <time>2011-09-24T14:31:56Z</time>
      </trkpt>
      <trkpt lat="42.56634" lon="2.06544">
        <ele>1904.408081</ele>
        <time>2011-09-24T14:31:58Z</time>
      </trkpt>
      <trkpt lat="42.56635" lon="2.06556">
        <ele>1904.840698</ele>
        <time>2011-09-24T14:32:00Z</time>
      </trkpt>
      <trkpt lat="42.56632" lon="2.06564">
        <ele>1904.893921</ele>
        <time>2011-09-24T14:32:02Z</time>
      </trkpt>
      <trkpt lat="42.5663" lon="2.06576">
        <ele>1905.124023</ele>
        <time>2011-09-24T14:32:04Z</time>
      </trkpt>
      <trkpt lat="42.56632" lon="2.06584">
        <ele>1905.22522</ele>
        <time>2011-09-24T14:32:05Z</time>
      </trkpt>
      <trkpt lat="42.56632" lon="2.06594">
        <ele>1905.249756</ele>
        <time>2011-09-24T14:32:06Z</time>
      </trkpt>
      <trkpt lat="42.56633" lon="2.06604">
        <ele>1905.140991</ele>
        <time>2011-09-24T14:32:07Z</time>
      </trkpt>
      <trkpt lat="42.56634" lon="2.06614">
        <ele>1905.076416</ele>
        <time>2011-09-24T14:32:09Z</time>
      </trkpt>
      <trkpt lat="42.56634" lon="2.06623">
        <ele>1904.977173</ele>
        <time>2011-09-24T14:32:11Z</time>
      </trkpt>
      <trkpt lat="42.56631" lon="2.06629">
        <ele>1904.081543</ele>
        <time>2011-09-24T14:32:12Z</time>
      </trkpt>
      <trkpt lat="42.56624" lon="2.06636">
        <ele>1903.400513</ele>
        <time>2011-09-24T14:32:13Z</time>
      </trkpt>
      <trkpt lat="42.56616" lon="2.06644">
        <ele>1903.00354</ele>
        <time>2011-09-24T14:32:14Z</time>
      </trkpt>
      <trkpt lat="42.56605" lon="2.06654">
        <ele>1902.590698</ele>
        <time>2011-09-24T14:32:15Z</time>
      </trkpt>
      <trkpt lat="42.56593" lon="2.06664">
        <ele>1900.817505</ele>
        <time>2011-09-24T14:32:16Z</time>
      </trkpt>
      <trkpt lat="42.56581" lon="2.06673">
        <ele>1897.581055</ele>
        <time>2011-09-24T14:32:17Z</time>
      </trkpt>
      <trkpt lat="42.5657" lon="2.06682">
        <ele>1894.237305</ele>
        <time>2011-09-24T14:32:18Z</time>
      </trkpt>
      <trkpt lat="42.5656" lon="2.0669">
        <ele>1890.434937</ele>
        <time>2011-09-24T14:32:19Z</time>
      </trkpt>
      <trkpt lat="42.56552" lon="2.06694">
        <ele>1884.382202</ele>
        <time>2011-09-24T14:32:20Z</time>
      </trkpt>
      <trkpt lat="42.56545" lon="2.06698">
        <ele>1878.305298</ele>
        <time>2011-09-24T14:32:21Z</time>
      </trkpt>
      <trkpt lat="42.5654" lon="2.06701">
        <ele>1872.64209</ele>
        <time>2011-09-24T14:32:22Z</time>
      </trkpt>
      <trkpt lat="42.56534" lon="2.06704">
        <ele>1867.574219</ele>
        <time>2011-09-24T14:32:23Z</time>
      </trkpt>
      <trkpt lat="42.5653" lon="2.06709">
        <ele>1863.148804</ele>
        <time>2011-09-24T14:32:24Z</time>
      </trkpt>
      <trkpt lat="42.56529" lon="2.06716">
        <ele>1859.226562</ele>
        <time>2011-09-24T14:32:25Z</time>
      </trkpt>
      <trkpt lat="42.56529" lon="2.06724">
        <ele>1855.677002</ele>
        <time>2011-09-24T14:32:26Z</time>
      </trkpt>
      <trkpt lat="42.56532" lon="2.06732">
        <ele>1852.448242</ele>
        <time>2011-09-24T14:32:27Z</time>
      </trkpt>
      <trkpt lat="42.56536" lon="2.06741">
        <ele>1849.433472</ele>
        <time>2011-09-24T14:32:28Z</time>
      </trkpt>
      <trkpt lat="42.5654" lon="2.06752">
        <ele>1846.794312</ele>
        <time>2011-09-24T14:32:29Z</time>
      </trkpt>
      <trkpt lat="42.56545" lon="2.06762">
        <ele>1844.630859</ele>
        <time>2011-09-24T14:32:30Z</time>
      </trkpt>
      <trkpt lat="42.56549" lon="2.06771">
        <ele>1842.802246</ele>
        <time>2011-09-24T14:32:31Z</time>
      </trkpt>
      <trkpt lat="42.56553" lon="2.0678">
        <ele>1841.263672</ele>
        <time>2011-09-24T14:32:32Z</time>
      </trkpt>
      <trkpt lat="42.56554" lon="2.06788">
        <ele>1839.953491</ele>
        <time>2011-09-24T14:32:33Z</time>
      </trkpt>
      <trkpt lat="42.56553" lon="2.06795">
        <ele>1838.784668</ele>
        <time>2011-09-24T14:32:34Z</time>
      </trkpt>
      <trkpt lat="42.56551" lon="2.06803">
        <ele>1837.909668</ele>
        <time>2011-09-24T14:32:35Z</time>
      </trkpt>
      <trkpt lat="42.56547" lon="2.06809">
        <ele>1837.181885</ele>
        <time>2011-09-24T14:32:36Z</time>
      </trkpt>
      <trkpt lat="42.56544" lon="2.06814">
        <ele>1836.602905</ele>
        <time>2011-09-24T14:32:37Z</time>
      </trkpt>
      <trkpt lat="42.56541" lon="2.06819">
        <ele>1836.275513</ele>
        <time>2011-09-24T14:32:38Z</time>
      </trkpt>
      <trkpt lat="42.56535" lon="2.06828">
        <ele>1835.845215</ele>
        <time>2011-09-24T14:32:40Z</time>
      </trkpt>
      <trkpt lat="42.56531" lon="2.06832">
        <ele>1835.703491</ele>
        <time>2011-09-24T14:32:41Z</time>
      </trkpt>
      <trkpt lat="42.56527" lon="2.06836">
        <ele>1835.404419</ele>
        <time>2011-09-24T14:32:42Z</time>
      </trkpt>
      <trkpt lat="42.56523" lon="2.0684">
        <ele>1835.279053</ele>
        <time>2011-09-24T14:32:43Z</time>
      </trkpt>
      <trkpt lat="42.56519" lon="2.06843">
        <ele>1835.229126</ele>
        <time>2011-09-24T14:32:44Z</time>
      </trkpt>
      <trkpt lat="42.56515" lon="2.06847">
        <ele>1835.189575</ele>
        <time>2011-09-24T14:32:45Z</time>
      </trkpt>
      <trkpt lat="42.56511" lon="2.06852">
        <ele>1835.347168</ele>
        <time>2011-09-24T14:32:46Z</time>
      </trkpt>
      <trkpt lat="42.56506" lon="2.06854">
        <ele>1835.525635</ele>
        <time>2011-09-24T14:32:47Z</time>
      </trkpt>
      <trkpt lat="42.56498" lon="2.06858">
        <ele>1836.025024</ele>
        <time>2011-09-24T14:32:49Z</time>
      </trkpt>
      <trkpt lat="42.56494" lon="2.06862">
        <ele>1836.061523</ele>
        <time>2011-09-24T14:32:50Z</time>
      </trkpt>
      <trkpt lat="42.56489" lon="2.06866">
        <ele>1836.142578</ele>
        <time>2011-09-24T14:32:51Z</time>
      </trkpt>
      <trkpt lat="42.56485" lon="2.06871">
        <ele>1836.218872</ele>
        <time>2011-09-24T14:32:53Z</time>
      </trkpt>
      <trkpt lat="42.56481" lon="2.06875">
        <ele>1836.183716</ele>
        <time>2011-09-24T14:32:53Z</time>
      </trkpt>
      <trkpt lat="42.56476" lon="2.06884">
        <ele>1836.109497</ele>
        <time>2011-09-24T14:32:55Z</time>
      </trkpt>
      <trkpt lat="42.56478" lon="2.06896">
        <ele>1836.077881</ele>
        <time>2011-09-24T14:32:57Z</time>
      </trkpt>
      <trkpt lat="42.56483" lon="2.06904">
        <ele>1835.923828</ele>
        <time>2011-09-24T14:32:59Z</time>
      </trkpt>
      <trkpt lat="42.5649" lon="2.06907">
        <ele>1835.908081</ele>
        <time>2011-09-24T14:33:01Z</time>
      </trkpt>
      <trkpt lat="42.56497" lon="2.06911">
        <ele>1835.965332</ele>
        <time>2011-09-24T14:33:03Z</time>
      </trkpt>
      <trkpt lat="42.56504" lon="2.06914">
        <ele>1836.071045</ele>
        <time>2011-09-24T14:33:05Z</time>
      </trkpt>
      <trkpt lat="42.56508" lon="2.06915">
        <ele>1836.141479</ele>
        <time>2011-09-24T14:33:07Z</time>
      </trkpt>
      <trkpt lat="42.56514" lon="2.0692">
        <ele>1836.208252</ele>
        <time>2011-09-24T14:33:09Z</time>
      </trkpt>
      <trkpt lat="42.5652" lon="2.0693">
        <ele>1836.454834</ele>
        <time>2011-09-24T14:33:11Z</time>
      </trkpt>
      <trkpt lat="42.56523" lon="2.06935">
        <ele>1836.531372</ele>
        <time>2011-09-24T14:33:12Z</time>
      </trkpt>
      <trkpt lat="42.56527" lon="2.0694">
        <ele>1836.551147</ele>
        <time>2011-09-24T14:33:13Z</time>
      </trkpt>
      <trkpt lat="42.56531" lon="2.06944">
        <ele>1836.558105</ele>
        <time>2011-09-24T14:33:14Z</time>
      </trkpt>
      <trkpt lat="42.56536" lon="2.06948">
        <ele>1836.481567</ele>
        <time>2011-09-24T14:33:15Z</time>
      </trkpt>
      <trkpt lat="42.5654" lon="2.06952">
        <ele>1836.452515</ele>
        <time>2011-09-24T14:33:16Z</time>
      </trkpt>
      <trkpt lat="42.56546" lon="2.06955">
        <ele>1836.432007</ele>
        <time>2011-09-24T14:33:18Z</time>
      </trkpt>
      <trkpt lat="42.56553" lon="2.06958">
        <ele>1836.365356</ele>
        <time>2011-09-24T14:33:21Z</time>
      </trkpt>
      <trkpt lat="42.56559" lon="2.06964">
        <ele>1836.331543</ele>
        <time>2011-09-24T14:33:23Z</time>
      </trkpt>
      <trkpt lat="42.56565" lon="2.06968">
        <ele>1836.325195</ele>
        <time>2011-09-24T14:33:25Z</time>
      </trkpt>
      <trkpt lat="42.5657" lon="2.0697">
        <ele>1836.71875</ele>
        <time>2011-09-24T14:33:26Z</time>
      </trkpt>
      <trkpt lat="42.56575" lon="2.06973">
        <ele>1836.976685</ele>
        <time>2011-09-24T14:33:27Z</time>
      </trkpt>
      <trkpt lat="42.56579" lon="2.06975">
        <ele>1837.147461</ele>
        <time>2011-09-24T14:33:28Z</time>
      </trkpt>
      <trkpt lat="42.56584" lon="2.06977">
        <ele>1837.180176</ele>
        <time>2011-09-24T14:33:29Z</time>
      </trkpt>
      <trkpt lat="42.56588" lon="2.06979">
        <ele>1837.198364</ele>
        <time>2011-09-24T14:33:30Z</time>
      </trkpt>
      <trkpt lat="42.56596" lon="2.06981">
        <ele>1837.165649</ele>
        <time>2011-09-24T14:33:32Z</time>
      </trkpt>
      <trkpt lat="42.56605" lon="2.06983">
        <ele>1836.902222</ele>
        <time>2011-09-24T14:33:34Z</time>
      </trkpt>
      <trkpt lat="42.5661" lon="2.06984">
        <ele>1836.833618</ele>
        <time>2011-09-24T14:33:35Z</time>
      </trkpt>
      <trkpt lat="42.56615" lon="2.06984">
        <ele>1836.656006</ele>
        <time>2011-09-24T14:33:36Z</time>
      </trkpt>
      <trkpt lat="42.56622" lon="2.06984">
        <ele>1836.526611</ele>
        <time>2011-09-24T14:33:37Z</time>
      </trkpt>
      <trkpt lat="42.56629" lon="2.06984">
        <ele>1835.744263</ele>
        <time>2011-09-24T14:33:38Z</time>
      </trkpt>
      <trkpt lat="42.56636" lon="2.06983">
        <ele>1834.967896</ele>
        <time>2011-09-24T14:33:39Z</time>
      </trkpt>
      <trkpt lat="42.5664" lon="2.06982">
        <ele>1834.894043</ele>
        <time>2011-09-24T14:33:40Z</time>
      </trkpt>
      <trkpt lat="42.56645" lon="2.0698">
        <ele>1834.821533</ele>
        <time>2011-09-24T14:33:41Z</time>
      </trkpt>
      <trkpt lat="42.56652" lon="2.06979">
        <ele>1834.65332</ele>
        <time>2011-09-24T14:33:43Z</time>
      </trkpt>
      <trkpt lat="42.56662" lon="2.06979">
        <ele>1834.231567</ele>
        <time>2011-09-24T14:33:45Z</time>
      </trkpt>
      <trkpt lat="42.56668" lon="2.0698">
        <ele>1833.930054</ele>
        <time>2011-09-24T14:33:46Z</time>
      </trkpt>
      <trkpt lat="42.56674" lon="2.06981">
        <ele>1830.190186</ele>
        <time>2011-09-24T14:33:47Z</time>
      </trkpt>
      <trkpt lat="42.5668" lon="2.06983">
        <ele>1827.08667</ele>
        <time>2011-09-24T14:33:48Z</time>
      </trkpt>
      <trkpt lat="42.56687" lon="2.06983">
        <ele>1824.300415</ele>
        <time>2011-09-24T14:33:49Z</time>
      </trkpt>
      <trkpt lat="42.56694" lon="2.06983">
        <ele>1822.017822</ele>
        <time>2011-09-24T14:33:50Z</time>
      </trkpt>
      <trkpt lat="42.567" lon="2.06983">
        <ele>1821.810059</ele>
        <time>2011-09-24T14:33:51Z</time>
      </trkpt>
      <trkpt lat="42.56707" lon="2.06983">
        <ele>1821.510254</ele>
        <time>2011-09-24T14:33:52Z</time>
      </trkpt>
      <trkpt lat="42.56716" lon="2.06983">
        <ele>1818.012207</ele>
        <time>2011-09-24T14:33:53Z</time>
      </trkpt>
      <trkpt lat="42.56724" lon="2.06983">
        <ele>1814.469482</ele>
        <time>2011-09-24T14:33:54Z</time>
      </trkpt>
      <trkpt lat="42.56731" lon="2.06982">
        <ele>1811.339111</ele>
        <time>2011-09-24T14:33:55Z</time>
      </trkpt>
      <trkpt lat="42.56738" lon="2.0698">
        <ele>1808.734497</ele>
        <time>2011-09-24T14:33:56Z</time>
      </trkpt>
      <trkpt lat="42.56744" lon="2.06977">
        <ele>1806.049927</ele>
        <time>2011-09-24T14:33:57Z</time>
      </trkpt>
      <trkpt lat="42.56749" lon="2.06975">
        <ele>1803.849609</ele>
        <time>2011-09-24T14:33:58Z</time>
      </trkpt>
      <trkpt lat="42.56754" lon="2.06973">
        <ele>1803.671631</ele>
        <time>2011-09-24T14:33:59Z</time>
      </trkpt>
      <trkpt lat="42.56763" lon="2.06969">
        <ele>1801.943604</ele>
        <time>2011-09-24T14:34:01Z</time>
      </trkpt>
      <trkpt lat="42.56767" lon="2.06966">
        <ele>1800.632812</ele>
        <time>2011-09-24T14:34:02Z</time>
      </trkpt>
      <trkpt lat="42.56775" lon="2.06963">
        <ele>1799.52771</ele>
        <time>2011-09-24T14:34:04Z</time>
      </trkpt>
      <trkpt lat="42.5678" lon="2.06961">
        <ele>1798.94812</ele>
        <time>2011-09-24T14:34:05Z</time>
      </trkpt>
      <trkpt lat="42.56784" lon="2.0696">
        <ele>1798.443481</ele>
        <time>2011-09-24T14:34:06Z</time>
      </trkpt>
      <trkpt lat="42.5679" lon="2.06957">
        <ele>1798.110107</ele>
        <time>2011-09-24T14:34:07Z</time>
      </trkpt>
      <trkpt lat="42.56795" lon="2.06954">
        <ele>1797.781982</ele>
        <time>2011-09-24T14:34:08Z</time>
      </trkpt>
      <trkpt lat="42.568" lon="2.06951">
        <ele>1797.457642</ele>
        <time>2011-09-24T14:34:09Z</time>
      </trkpt>
      <trkpt lat="42.56806" lon="2.06948">
        <ele>1797.171509</ele>
        <time>2011-09-24T14:34:10Z</time>
      </trkpt>
      <trkpt lat="42.5681" lon="2.06944">
        <ele>1796.981567</ele>
        <time>2011-09-24T14:34:11Z</time>
      </trkpt>
      <trkpt lat="42.56816" lon="2.06941">
        <ele>1797.094238</ele>
        <time>2011-09-24T14:34:12Z</time>
      </trkpt>
      <trkpt lat="42.56822" lon="2.06938">
        <ele>1797.271973</ele>
        <time>2011-09-24T14:34:13Z</time>
      </trkpt>
      <trkpt lat="42.56828" lon="2.06936">
        <ele>1797.42981</ele>
        <time>2011-09-24T14:34:14Z</time>
      </trkpt>
      <trkpt lat="42.56834" lon="2.06936">
        <ele>1797.634644</ele>
        <time>2011-09-24T14:34:15Z</time>
      </trkpt>
      <trkpt lat="42.5684" lon="2.06937">
        <ele>1797.76123</ele>
        <time>2011-09-24T14:34:16Z</time>
      </trkpt>
      <trkpt lat="42.56845" lon="2.0694">
        <ele>1797.684204</ele>
        <time>2011-09-24T14:34:17Z</time>
      </trkpt>
      <trkpt lat="42.5685" lon="2.06944">
        <ele>1797.531006</ele>
        <time>2011-09-24T14:34:18Z</time>
      </trkpt>
      <trkpt lat="42.56854" lon="2.06947">
        <ele>1797.277588</ele>
        <time>2011-09-24T14:34:19Z</time>
      </trkpt>
      <trkpt lat="42.56859" lon="2.06952">
        <ele>1796.88562</ele>
        <time>2011-09-24T14:34:20Z</time>
      </trkpt>
      <trkpt lat="42.56865" lon="2.06956">
        <ele>1796.338867</ele>
        <time>2011-09-24T14:34:21Z</time>
      </trkpt>
      <trkpt lat="42.56872" lon="2.06959">
        <ele>1795.77002</ele>
        <time>2011-09-24T14:34:22Z</time>
      </trkpt>
      <trkpt lat="42.56877" lon="2.0696">
        <ele>1795.18396</ele>
        <time>2011-09-24T14:34:23Z</time>
      </trkpt>
      <trkpt lat="42.56883" lon="2.06962">
        <ele>1794.722656</ele>
        <time>2011-09-24T14:34:24Z</time>
      </trkpt>
      <trkpt lat="42.56891" lon="2.06964">
        <ele>1794.566284</ele>
        <time>2011-09-24T14:34:25Z</time>
      </trkpt>
      <trkpt lat="42.56899" lon="2.06962">
        <ele>1794.656006</ele>
        <time>2011-09-24T14:34:26Z</time>
      </trkpt>
      <trkpt lat="42.56906" lon="2.0696">
        <ele>1794.656006</ele>
        <time>2011-09-24T14:34:27Z</time>
      </trkpt>
      <trkpt lat="42.56914" lon="2.06957">
        <ele>1794.533325</ele>
        <time>2011-09-24T14:34:28Z</time>
      </trkpt>
      <trkpt lat="42.56922" lon="2.06956">
        <ele>1793.973755</ele>
        <time>2011-09-24T14:34:29Z</time>
      </trkpt>
      <trkpt lat="42.56931" lon="2.06956">
        <ele>1792.7771</ele>
        <time>2011-09-24T14:34:30Z</time>
      </trkpt>
      <trkpt lat="42.56941" lon="2.06956">
        <ele>1790.537354</ele>
        <time>2011-09-24T14:34:31Z</time>
      </trkpt>
      <trkpt lat="42.56951" lon="2.0695">
        <ele>1786.386108</ele>
        <time>2011-09-24T14:34:32Z</time>
      </trkpt>
      <trkpt lat="42.5696" lon="2.06944">
        <ele>1782.634399</ele>
        <time>2011-09-24T14:34:33Z</time>
      </trkpt>
      <trkpt lat="42.56968" lon="2.06936">
        <ele>1779.306885</ele>
        <time>2011-09-24T14:34:34Z</time>
      </trkpt>
      <trkpt lat="42.56974" lon="2.06929">
        <ele>1776.339844</ele>
        <time>2011-09-24T14:34:35Z</time>
      </trkpt>
      <trkpt lat="42.56979" lon="2.06923">
        <ele>1773.807007</ele>
        <time>2011-09-24T14:34:36Z</time>
      </trkpt>
      <trkpt lat="42.56983" lon="2.06918">
        <ele>1771.555176</ele>
        <time>2011-09-24T14:34:37Z</time>
      </trkpt>
      <trkpt lat="42.56988" lon="2.06914">
        <ele>1769.579346</ele>
        <time>2011-09-24T14:34:38Z</time>
      </trkpt>
      <trkpt lat="42.56996" lon="2.0691">
        <ele>1767.723877</ele>
        <time>2011-09-24T14:34:40Z</time>
      </trkpt>
      <trkpt lat="42.57004" lon="2.06906">
        <ele>1765.125977</ele>
        <time>2011-09-24T14:34:42Z</time>
      </trkpt>
      <trkpt lat="42.57011" lon="2.06899">
        <ele>1763.461914</ele>
        <time>2011-09-24T14:34:44Z</time>
      </trkpt>
      <trkpt lat="42.57017" lon="2.06893">
        <ele>1762.813232</ele>
        <time>2011-09-24T14:34:46Z</time>
      </trkpt>
      <trkpt lat="42.57022" lon="2.06888">
        <ele>1762.71814</ele>
        <time>2011-09-24T14:34:48Z</time>
      </trkpt>
      <trkpt lat="42.57026" lon="2.06883">
        <ele>1762.690674</ele>
        <time>2011-09-24T14:34:50Z</time>
      </trkpt>
      <trkpt lat="42.57031" lon="2.06877">
        <ele>1762.670898</ele>
        <time>2011-09-24T14:34:52Z</time>
      </trkpt>
      <trkpt lat="42.57037" lon="2.06873">
        <ele>1762.641846</ele>
        <time>2011-09-24T14:34:54Z</time>
      </trkpt>
      <trkpt lat="42.57046" lon="2.06868">
        <ele>1762.624268</ele>
        <time>2011-09-24T14:34:56Z</time>
      </trkpt>
      <trkpt lat="42.57052" lon="2.06866">
        <ele>1763.177124</ele>
        <time>2011-09-24T14:34:57Z</time>
      </trkpt>
      <trkpt lat="42.57059" lon="2.06862">
        <ele>1764.23291</ele>
        <time>2011-09-24T14:34:58Z</time>
      </trkpt>
      <trkpt lat="42.57069" lon="2.06858">
        <ele>1765.013184</ele>
        <time>2011-09-24T14:34:59Z</time>
      </trkpt>
      <trkpt lat="42.57078" lon="2.06854">
        <ele>1765.609375</ele>
        <time>2011-09-24T14:35:00Z</time>
      </trkpt>
      <trkpt lat="42.57087" lon="2.06851">
        <ele>1766.229004</ele>
        <time>2011-09-24T14:35:01Z</time>
      </trkpt>
      <trkpt lat="42.57096" lon="2.06852">
        <ele>1766.803589</ele>
        <time>2011-09-24T14:35:03Z</time>
      </trkpt>
      <trkpt lat="42.57105" lon="2.06853">
        <ele>1767.220459</ele>
        <time>2011-09-24T14:35:03Z</time>
      </trkpt>
      <trkpt lat="42.57114" lon="2.06855">
        <ele>1767.621338</ele>
        <time>2011-09-24T14:35:04Z</time>
      </trkpt>
      <trkpt lat="42.57122" lon="2.06856">
        <ele>1767.867676</ele>
        <time>2011-09-24T14:35:05Z</time>
      </trkpt>
      <trkpt lat="42.57132" lon="2.06858">
        <ele>1767.887085</ele>
        <time>2011-09-24T14:35:06Z</time>
      </trkpt>
      <trkpt lat="42.57141" lon="2.06859">
        <ele>1767.843262</ele>
        <time>2011-09-24T14:35:07Z</time>
      </trkpt>
      <trkpt lat="42.57149" lon="2.06861">
        <ele>1767.848022</ele>
        <time>2011-09-24T14:35:08Z</time>
      </trkpt>
      <trkpt lat="42.57158" lon="2.06862">
        <ele>1767.543945</ele>
        <time>2011-09-24T14:35:09Z</time>
      </trkpt>
      <trkpt lat="42.57166" lon="2.0686">
        <ele>1767.375366</ele>
        <time>2011-09-24T14:35:10Z</time>
      </trkpt>
      <trkpt lat="42.57173" lon="2.06859">
        <ele>1767.35022</ele>
        <time>2011-09-24T14:35:11Z</time>
      </trkpt>
      <trkpt lat="42.57181" lon="2.06858">
        <ele>1767.268433</ele>
        <time>2011-09-24T14:35:12Z</time>
      </trkpt>
      <trkpt lat="42.57188" lon="2.06856">
        <ele>1767.161987</ele>
        <time>2011-09-24T14:35:13Z</time>
      </trkpt>
      <trkpt lat="42.57196" lon="2.06854">
        <ele>1766.698853</ele>
        <time>2011-09-24T14:35:14Z</time>
      </trkpt>
      <trkpt lat="42.57203" lon="2.06851">
        <ele>1766.10144</ele>
        <time>2011-09-24T14:35:15Z</time>
      </trkpt>
      <trkpt lat="42.57211" lon="2.06849">
        <ele>1765.437866</ele>
        <time>2011-09-24T14:35:16Z</time>
      </trkpt>
      <trkpt lat="42.57219" lon="2.06846">
        <ele>1764.502686</ele>
        <time>2011-09-24T14:35:17Z</time>
      </trkpt>
      <trkpt lat="42.57227" lon="2.06843">
        <ele>1763.407593</ele>
        <time>2011-09-24T14:35:18Z</time>
      </trkpt>
      <trkpt lat="42.57235" lon="2.06839">
        <ele>1762.302368</ele>
        <time>2011-09-24T14:35:19Z</time>
      </trkpt>
      <trkpt lat="42.57244" lon="2.06837">
        <ele>1760.931152</ele>
        <time>2011-09-24T14:35:20Z</time>
      </trkpt>
      <trkpt lat="42.57253" lon="2.06835">
        <ele>1759.375854</ele>
        <time>2011-09-24T14:35:21Z</time>
      </trkpt>
      <trkpt lat="42.57262" lon="2.06833">
        <ele>1757.837036</ele>
        <time>2011-09-24T14:35:22Z</time>
      </trkpt>
      <trkpt lat="42.57271" lon="2.06831">
        <ele>1756.753052</ele>
        <time>2011-09-24T14:35:23Z</time>
      </trkpt>
      <trkpt lat="42.57279" lon="2.06828">
        <ele>1755.195557</ele>
        <time>2011-09-24T14:35:24Z</time>
      </trkpt>
      <trkpt lat="42.57287" lon="2.06825">
        <ele>1753.916626</ele>
        <time>2011-09-24T14:35:25Z</time>
      </trkpt>
      <trkpt lat="42.57294" lon="2.0682">
        <ele>1752.511597</ele>
        <time>2011-09-24T14:35:26Z</time>
      </trkpt>
      <trkpt lat="42.57302" lon="2.06816">
        <ele>1751.203003</ele>
        <time>2011-09-24T14:35:27Z</time>
      </trkpt>
      <trkpt lat="42.57308" lon="2.06811">
        <ele>1750.037109</ele>
        <time>2011-09-24T14:35:28Z</time>
      </trkpt>
      <trkpt lat="42.57313" lon="2.06808">
        <ele>1749.175415</ele>
        <time>2011-09-24T14:35:29Z</time>
      </trkpt>
      <trkpt lat="42.57323" lon="2.06805">
        <ele>1748.865601</ele>
        <time>2011-09-24T14:35:31Z</time>
      </trkpt>
      <trkpt lat="42.57329" lon="2.06804">
        <ele>1748.098755</ele>
        <time>2011-09-24T14:35:32Z</time>
      </trkpt>
      <trkpt lat="42.57336" lon="2.06803">
        <ele>1747.130493</ele>
        <time>2011-09-24T14:35:33Z</time>
      </trkpt>
      <trkpt lat="42.57343" lon="2.06802">
        <ele>1745.922974</ele>
        <time>2011-09-24T14:35:34Z</time>
      </trkpt>
      <trkpt lat="42.5735" lon="2.06802">
        <ele>1744.388306</ele>
        <time>2011-09-24T14:35:35Z</time>
      </trkpt>
      <trkpt lat="42.57357" lon="2.06801">
        <ele>1742.539551</ele>
        <time>2011-09-24T14:35:36Z</time>
      </trkpt>
      <trkpt lat="42.57364" lon="2.06801">
        <ele>1740.17041</ele>
        <time>2011-09-24T14:35:37Z</time>
      </trkpt>
      <trkpt lat="42.57372" lon="2.06801">
        <ele>1737.533081</ele>
        <time>2011-09-24T14:35:38Z</time>
      </trkpt>
      <trkpt lat="42.5738" lon="2.068">
        <ele>1734.999878</ele>
        <time>2011-09-24T14:35:39Z</time>
      </trkpt>
      <trkpt lat="42.57387" lon="2.06801">
        <ele>1733.019409</ele>
        <time>2011-09-24T14:35:40Z</time>
      </trkpt>
      <trkpt lat="42.57395" lon="2.06802">
        <ele>1731.405273</ele>
        <time>2011-09-24T14:35:41Z</time>
      </trkpt>
      <trkpt lat="42.57404" lon="2.06804">
        <ele>1730.102661</ele>
        <time>2011-09-24T14:35:42Z</time>
      </trkpt>
      <trkpt lat="42.57413" lon="2.06806">
        <ele>1728.774414</ele>
        <time>2011-09-24T14:35:43Z</time>
      </trkpt>
      <trkpt lat="42.57422" lon="2.06804">
        <ele>1727.762085</ele>
        <time>2011-09-24T14:35:44Z</time>
      </trkpt>
      <trkpt lat="42.57431" lon="2.06802">
        <ele>1726.890381</ele>
        <time>2011-09-24T14:35:45Z</time>
      </trkpt>
      <trkpt lat="42.57438" lon="2.06797">
        <ele>1726.098755</ele>
        <time>2011-09-24T14:35:46Z</time>
      </trkpt>
      <trkpt lat="42.57444" lon="2.0679">
        <ele>1725.373169</ele>
        <time>2011-09-24T14:35:47Z</time>
      </trkpt>
      <trkpt lat="42.57449" lon="2.06782">
        <ele>1724.773071</ele>
        <time>2011-09-24T14:35:48Z</time>
      </trkpt>
      <trkpt lat="42.57454" lon="2.06774">
        <ele>1723.989868</ele>
        <time>2011-09-24T14:35:49Z</time>
      </trkpt>
      <trkpt lat="42.57458" lon="2.06766">
        <ele>1723.4198</ele>
        <time>2011-09-24T14:35:50Z</time>
      </trkpt>
      <trkpt lat="42.57465" lon="2.06769">
        <ele>1722.886841</ele>
        <time>2011-09-24T14:35:52Z</time>
      </trkpt>
      <trkpt lat="42.5747" lon="2.06774">
        <ele>1722.525757</ele>
        <time>2011-09-24T14:35:53Z</time>
      </trkpt>
      <trkpt lat="42.57474" lon="2.06777">
        <ele>1722.463745</ele>
        <time>2011-09-24T14:35:55Z</time>
      </trkpt>
      <trkpt lat="42.57478" lon="2.06772">
        <ele>1721.919922</ele>
        <time>2011-09-24T14:36:32Z</time>
      </trkpt>
      <trkpt lat="42.57483" lon="2.06773">
        <ele>1721.69458</ele>
        <time>2011-09-24T14:36:34Z</time>
      </trkpt>
      <trkpt lat="42.57491" lon="2.06774">
        <ele>1719.355713</ele>
        <time>2011-09-24T14:36:36Z</time>
      </trkpt>
      <trkpt lat="42.57496" lon="2.06774">
        <ele>1718.415161</ele>
        <time>2011-09-24T14:36:37Z</time>
      </trkpt>
      <trkpt lat="42.575" lon="2.06774">
        <ele>1717.608521</ele>
        <time>2011-09-24T14:36:38Z</time>
      </trkpt>
      <trkpt lat="42.57509" lon="2.06776">
        <ele>1716.711914</ele>
        <time>2011-09-24T14:36:40Z</time>
      </trkpt>
      <trkpt lat="42.57514" lon="2.06778">
        <ele>1716.499878</ele>
        <time>2011-09-24T14:36:41Z</time>
      </trkpt>
      <trkpt lat="42.57519" lon="2.06782">
        <ele>1716.484375</ele>
        <time>2011-09-24T14:36:42Z</time>
      </trkpt>
      <trkpt lat="42.57525" lon="2.06787">
        <ele>1716.580933</ele>
        <time>2011-09-24T14:36:43Z</time>
      </trkpt>
      <trkpt lat="42.5753" lon="2.06792">
        <ele>1716.580933</ele>
        <time>2011-09-24T14:36:44Z</time>
      </trkpt>
      <trkpt lat="42.57535" lon="2.06798">
        <ele>1716.654053</ele>
        <time>2011-09-24T14:36:45Z</time>
      </trkpt>
      <trkpt lat="42.57538" lon="2.06805">
        <ele>1716.712769</ele>
        <time>2011-09-24T14:36:46Z</time>
      </trkpt>
      <trkpt lat="42.57537" lon="2.06812">
        <ele>1716.470459</ele>
        <time>2011-09-24T14:36:47Z</time>
      </trkpt>
      <trkpt lat="42.57535" lon="2.06817">
        <ele>1715.61084</ele>
        <time>2011-09-24T14:36:48Z</time>
      </trkpt>
      <trkpt lat="42.5753" lon="2.06821">
        <ele>1712.963745</ele>
        <time>2011-09-24T14:36:49Z</time>
      </trkpt>
      <trkpt lat="42.57525" lon="2.06826">
        <ele>1709.660034</ele>
        <time>2011-09-24T14:36:50Z</time>
      </trkpt>
      <trkpt lat="42.57519" lon="2.06832">
        <ele>1706.136963</ele>
        <time>2011-09-24T14:36:51Z</time>
      </trkpt>
      <trkpt lat="42.57514" lon="2.06841">
        <ele>1702.526367</ele>
        <time>2011-09-24T14:36:52Z</time>
      </trkpt>
      <trkpt lat="42.57509" lon="2.06853">
        <ele>1698.843018</ele>
        <time>2011-09-24T14:36:53Z</time>
      </trkpt>
      <trkpt lat="42.57504" lon="2.06867">
        <ele>1695.343506</ele>
        <time>2011-09-24T14:36:54Z</time>
      </trkpt>
      <trkpt lat="42.575" lon="2.06881">
        <ele>1692.126099</ele>
        <time>2011-09-24T14:36:55Z</time>
      </trkpt>
      <trkpt lat="42.57497" lon="2.06896">
        <ele>1689.402222</ele>
        <time>2011-09-24T14:36:56Z</time>
      </trkpt>
      <trkpt lat="42.57495" lon="2.06906">
        <ele>1687.057983</ele>
        <time>2011-09-24T14:36:57Z</time>
      </trkpt>
      <trkpt lat="42.57495" lon="2.06913">
        <ele>1686.626953</ele>
        <time>2011-09-24T14:36:59Z</time>
      </trkpt>
      <trkpt lat="42.57489" lon="2.06924">
        <ele>1679.191772</ele>
        <time>2011-09-24T14:37:54Z</time>
      </trkpt>
      <trkpt lat="42.57489" lon="2.06924">
        <ele>1679.191772</ele>
        <time>2011-09-24T14:37:55Z</time>
      </trkpt>
      <trkpt lat="42.5748" lon="2.06921">
        <ele>1674.72583</ele>
        <time>2011-09-24T14:38:06Z</time>
      </trkpt>
      <trkpt lat="42.5747" lon="2.06916">
        <ele>1674.217896</ele>
        <time>2011-09-24T14:38:59Z</time>
      </trkpt>
      <trkpt lat="42.5747" lon="2.06916">
        <ele>1674.217896</ele>
        <time>2011-09-24T14:39:00Z</time>
      </trkpt>
      <trkpt lat="42.57466" lon="2.06901">
        <ele>1674.92688</ele>
        <time>2011-09-24T14:39:02Z</time>
      </trkpt>
      <trkpt lat="42.57465" lon="2.06886">
        <ele>1675.752808</ele>
        <time>2011-09-24T14:39:08Z</time>
      </trkpt>
      <trkpt lat="42.57465" lon="2.06873">
        <ele>1676.340698</ele>
        <time>2011-09-24T14:39:10Z</time>
      </trkpt>
      <trkpt lat="42.57464" lon="2.06859">
        <ele>1676.961182</ele>
        <time>2011-09-24T14:39:12Z</time>
      </trkpt>
      <trkpt lat="42.57464" lon="2.06853">
        <ele>1677.380615</ele>
        <time>2011-09-24T14:39:13Z</time>
      </trkpt>
      <trkpt lat="42.57463" lon="2.06846">
        <ele>1677.854492</ele>
        <time>2011-09-24T14:39:14Z</time>
      </trkpt>
      <trkpt lat="42.57463" lon="2.06835">
        <ele>1678.680298</ele>
        <time>2011-09-24T14:39:16Z</time>
      </trkpt>
      <trkpt lat="42.57463" lon="2.06828">
        <ele>1679.081299</ele>
        <time>2011-09-24T14:39:17Z</time>
      </trkpt>
      <trkpt lat="42.57462" lon="2.06822">
        <ele>1679.530273</ele>
        <time>2011-09-24T14:39:18Z</time>
      </trkpt>
      <trkpt lat="42.57462" lon="2.06812">
        <ele>1679.833496</ele>
        <time>2011-09-24T14:39:20Z</time>
      </trkpt>
      <trkpt lat="42.57463" lon="2.06801">
        <ele>1678.689697</ele>
        <time>2011-09-24T14:39:22Z</time>
      </trkpt>
      <trkpt lat="42.57465" lon="2.06788">
        <ele>1676.91394</ele>
        <time>2011-09-24T14:39:24Z</time>
      </trkpt>
      <trkpt lat="42.57466" lon="2.06782">
        <ele>1676.135742</ele>
        <time>2011-09-24T14:39:25Z</time>
      </trkpt>
      <trkpt lat="42.57466" lon="2.06777">
        <ele>1675.368896</ele>
        <time>2011-09-24T14:39:26Z</time>
      </trkpt>
      <trkpt lat="42.57467" lon="2.06766">
        <ele>1673.932251</ele>
        <time>2011-09-24T14:39:28Z</time>
      </trkpt>
      <trkpt lat="42.57466" lon="2.06756">
        <ele>1672.673096</ele>
        <time>2011-09-24T14:39:30Z</time>
      </trkpt>
      <trkpt lat="42.57466" lon="2.06747">
        <ele>1671.720215</ele>
        <time>2011-09-24T14:39:32Z</time>
      </trkpt>
      <trkpt lat="42.57465" lon="2.06742">
        <ele>1671.446533</ele>
        <time>2011-09-24T14:39:33Z</time>
      </trkpt>
      <trkpt lat="42.57465" lon="2.06732">
        <ele>1671.235474</ele>
        <time>2011-09-24T14:39:35Z</time>
      </trkpt>
      <trkpt lat="42.57464" lon="2.06723">
        <ele>1671.050171</ele>
        <time>2011-09-24T14:39:37Z</time>
      </trkpt>
      <trkpt lat="42.57463" lon="2.06713">
        <ele>1671.080566</ele>
        <time>2011-09-24T14:39:39Z</time>
      </trkpt>
      <trkpt lat="42.57459" lon="2.067">
        <ele>1671.360718</ele>
        <time>2011-09-24T14:39:43Z</time>
      </trkpt>
      <trkpt lat="42.57458" lon="2.06692">
        <ele>1671.615479</ele>
        <time>2011-09-24T14:39:45Z</time>
      </trkpt>
      <trkpt lat="42.57457" lon="2.06687">
        <ele>1671.841919</ele>
        <time>2011-09-24T14:39:46Z</time>
      </trkpt>
      <trkpt lat="42.57456" lon="2.06678">
        <ele>1672.283691</ele>
        <time>2011-09-24T14:39:48Z</time>
      </trkpt>
      <trkpt lat="42.57455" lon="2.06669">
        <ele>1672.77771</ele>
        <time>2011-09-24T14:39:50Z</time>
      </trkpt>
      <trkpt lat="42.57453" lon="2.06661">
        <ele>1673.284546</ele>
        <time>2011-09-24T14:39:52Z</time>
      </trkpt>
      <trkpt lat="42.57453" lon="2.06656">
        <ele>1673.534058</ele>
        <time>2011-09-24T14:39:53Z</time>
      </trkpt>
      <trkpt lat="42.57452" lon="2.06649">
        <ele>1674.045898</ele>
        <time>2011-09-24T14:39:55Z</time>
      </trkpt>
      <trkpt lat="42.5745" lon="2.06642">
        <ele>1674.526245</ele>
        <time>2011-09-24T14:39:57Z</time>
      </trkpt>
      <trkpt lat="42.5745" lon="2.06639">
        <ele>1674.87439</ele>
        <time>2011-09-24T14:39:58Z</time>
      </trkpt>
      <trkpt lat="42.57449" lon="2.06631">
        <ele>1675.766602</ele>
        <time>2011-09-24T14:40:00Z</time>
      </trkpt>
      <trkpt lat="42.57448" lon="2.06621">
        <ele>1676.574951</ele>
        <time>2011-09-24T14:40:02Z</time>
      </trkpt>
      <trkpt lat="42.57447" lon="2.06611">
        <ele>1677.495483</ele>
        <time>2011-09-24T14:40:04Z</time>
      </trkpt>
      <trkpt lat="42.57446" lon="2.06602">
        <ele>1678.317261</ele>
        <time>2011-09-24T14:40:06Z</time>
      </trkpt>
      <trkpt lat="42.57445" lon="2.06597">
        <ele>1678.715576</ele>
        <time>2011-09-24T14:40:07Z</time>
      </trkpt>
      <trkpt lat="42.57444" lon="2.06589">
        <ele>1679.401245</ele>
        <time>2011-09-24T14:40:09Z</time>
      </trkpt>
      <trkpt lat="42.57443" lon="2.06581">
        <ele>1680.043945</ele>
        <time>2011-09-24T14:40:11Z</time>
      </trkpt>
      <trkpt lat="42.57442" lon="2.06572">
        <ele>1680.604492</ele>
        <time>2011-09-24T14:40:13Z</time>
      </trkpt>
      <trkpt lat="42.57441" lon="2.06563">
        <ele>1681.218384</ele>
        <time>2011-09-24T14:40:15Z</time>
      </trkpt>
      <trkpt lat="42.5744" lon="2.06555">
        <ele>1681.838867</ele>
        <time>2011-09-24T14:40:17Z</time>
      </trkpt>
      <trkpt lat="42.57439" lon="2.06547">
        <ele>1682.584473</ele>
        <time>2011-09-24T14:40:19Z</time>
      </trkpt>
      <trkpt lat="42.57438" lon="2.06539">
        <ele>1683.405029</ele>
        <time>2011-09-24T14:40:21Z</time>
      </trkpt>
      <trkpt lat="42.57438" lon="2.06534">
        <ele>1683.858032</ele>
        <time>2011-09-24T14:40:22Z</time>
      </trkpt>
      <trkpt lat="42.57437" lon="2.06525">
        <ele>1684.751831</ele>
        <time>2011-09-24T14:40:24Z</time>
      </trkpt>
      <trkpt lat="42.57436" lon="2.06515">
        <ele>1685.786743</ele>
        <time>2011-09-24T14:40:26Z</time>
      </trkpt>
      <trkpt lat="42.57435" lon="2.06504">
        <ele>1687.008911</ele>
        <time>2011-09-24T14:40:28Z</time>
      </trkpt>
      <trkpt lat="42.57434" lon="2.06499">
        <ele>1687.612183</ele>
        <time>2011-09-24T14:40:29Z</time>
      </trkpt>
      <trkpt lat="42.57433" lon="2.0649">
        <ele>1688.85144</ele>
        <time>2011-09-24T14:40:31Z</time>
      </trkpt>
      <trkpt lat="42.57431" lon="2.06482">
        <ele>1690.053589</ele>
        <time>2011-09-24T14:40:33Z</time>
      </trkpt>
      <trkpt lat="42.5743" lon="2.06474">
        <ele>1691.108521</ele>
        <time>2011-09-24T14:40:35Z</time>
      </trkpt>
      <trkpt lat="42.57429" lon="2.06465">
        <ele>1691.832642</ele>
        <time>2011-09-24T14:40:37Z</time>
      </trkpt>
      <trkpt lat="42.57428" lon="2.06458">
        <ele>1690.682251</ele>
        <time>2011-09-24T14:40:39Z</time>
      </trkpt>
      <trkpt lat="42.57432" lon="2.06451">
        <ele>1686.180054</ele>
        <time>2011-09-24T14:40:42Z</time>
      </trkpt>
      <trkpt lat="42.57433" lon="2.06447">
        <ele>1685.148193</ele>
        <time>2011-09-24T14:40:43Z</time>
      </trkpt>
      <trkpt lat="42.57433" lon="2.06438">
        <ele>1684.015503</ele>
        <time>2011-09-24T14:40:45Z</time>
      </trkpt>
      <trkpt lat="42.57431" lon="2.0643">
        <ele>1683.529663</ele>
        <time>2011-09-24T14:40:47Z</time>
      </trkpt>
      <trkpt lat="42.57429" lon="2.06419">
        <ele>1683.070923</ele>
        <time>2011-09-24T14:40:49Z</time>
      </trkpt>
      <trkpt lat="42.57428" lon="2.06413">
        <ele>1683.056519</ele>
        <time>2011-09-24T14:40:50Z</time>
      </trkpt>
      <trkpt lat="42.57427" lon="2.06407">
        <ele>1683.02832</ele>
        <time>2011-09-24T14:40:51Z</time>
      </trkpt>
      <trkpt lat="42.57426" lon="2.06401">
        <ele>1682.990967</ele>
        <time>2011-09-24T14:40:52Z</time>
      </trkpt>
      <trkpt lat="42.57425" lon="2.06395">
        <ele>1682.920654</ele>
        <time>2011-09-24T14:40:53Z</time>
      </trkpt>
      <trkpt lat="42.57425" lon="2.06388">
        <ele>1682.828979</ele>
        <time>2011-09-24T14:40:54Z</time>
      </trkpt>
      <trkpt lat="42.57424" lon="2.06382">
        <ele>1682.901245</ele>
        <time>2011-09-24T14:40:55Z</time>
      </trkpt>
      <trkpt lat="42.57423" lon="2.06376">
        <ele>1683.081421</ele>
        <time>2011-09-24T14:40:56Z</time>
      </trkpt>
      <trkpt lat="42.57423" lon="2.0637">
        <ele>1683.262329</ele>
        <time>2011-09-24T14:40:57Z</time>
      </trkpt>
      <trkpt lat="42.57421" lon="2.06358">
        <ele>1683.691406</ele>
        <time>2011-09-24T14:40:59Z</time>
      </trkpt>
      <trkpt lat="42.57421" lon="2.06347">
        <ele>1684.156616</ele>
        <time>2011-09-24T14:41:01Z</time>
      </trkpt>
      <trkpt lat="42.5742" lon="2.06337">
        <ele>1684.690063</ele>
        <time>2011-09-24T14:41:03Z</time>
      </trkpt>
      <trkpt lat="42.57419" lon="2.06326">
        <ele>1685.159058</ele>
        <time>2011-09-24T14:41:05Z</time>
      </trkpt>
      <trkpt lat="42.57418" lon="2.06316">
        <ele>1685.476074</ele>
        <time>2011-09-24T14:41:07Z</time>
      </trkpt>
      <trkpt lat="42.57417" lon="2.06306">
        <ele>1685.644409</ele>
        <time>2011-09-24T14:41:09Z</time>
      </trkpt>
      <trkpt lat="42.57417" lon="2.06295">
        <ele>1685.845581</ele>
        <time>2011-09-24T14:41:11Z</time>
      </trkpt>
      <trkpt lat="42.57417" lon="2.06285">
        <ele>1686.085327</ele>
        <time>2011-09-24T14:41:14Z</time>
      </trkpt>
      <trkpt lat="42.57416" lon="2.06275">
        <ele>1686.373779</ele>
        <time>2011-09-24T14:41:15Z</time>
      </trkpt>
      <trkpt lat="42.57415" lon="2.06266">
        <ele>1686.741211</ele>
        <time>2011-09-24T14:41:17Z</time>
      </trkpt>
      <trkpt lat="42.57414" lon="2.06257">
        <ele>1687.258057</ele>
        <time>2011-09-24T14:41:19Z</time>
      </trkpt>
      <trkpt lat="42.57413" lon="2.06247">
        <ele>1691.668579</ele>
        <time>2011-09-24T14:41:21Z</time>
      </trkpt>
      <trkpt lat="42.57413" lon="2.06236">
        <ele>1694.269775</ele>
        <time>2011-09-24T14:41:23Z</time>
      </trkpt>
      <trkpt lat="42.57411" lon="2.06226">
        <ele>1697.009277</ele>
        <time>2011-09-24T14:41:25Z</time>
      </trkpt>
      <trkpt lat="42.57409" lon="2.06219">
        <ele>1703.420898</ele>
        <time>2011-09-24T14:41:27Z</time>
      </trkpt>
      <trkpt lat="42.57405" lon="2.06215">
        <ele>1705.19751</ele>
        <time>2011-09-24T14:41:29Z</time>
      </trkpt>
      <trkpt lat="42.57401" lon="2.06208">
        <ele>1707.696533</ele>
        <time>2011-09-24T14:41:32Z</time>
      </trkpt>
      <trkpt lat="42.574" lon="2.06201">
        <ele>1708.848022</ele>
        <time>2011-09-24T14:41:34Z</time>
      </trkpt>
      <trkpt lat="42.57399" lon="2.06193">
        <ele>1710.151489</ele>
        <time>2011-09-24T14:41:36Z</time>
      </trkpt>
      <trkpt lat="42.57397" lon="2.06184">
        <ele>1711.518188</ele>
        <time>2011-09-24T14:41:38Z</time>
      </trkpt>
      <trkpt lat="42.57396" lon="2.06175">
        <ele>1712.896973</ele>
        <time>2011-09-24T14:41:40Z</time>
      </trkpt>
      <trkpt lat="42.57395" lon="2.06167">
        <ele>1714.432617</ele>
        <time>2011-09-24T14:41:42Z</time>
      </trkpt>
      <trkpt lat="42.57394" lon="2.06157">
        <ele>1716.094238</ele>
        <time>2011-09-24T14:41:44Z</time>
      </trkpt>
      <trkpt lat="42.57392" lon="2.06147">
        <ele>1717.853516</ele>
        <time>2011-09-24T14:41:46Z</time>
      </trkpt>
      <trkpt lat="42.57391" lon="2.06143">
        <ele>1718.779541</ele>
        <time>2011-09-24T14:41:47Z</time>
      </trkpt>
      <trkpt lat="42.57389" lon="2.06134">
        <ele>1720.334595</ele>
        <time>2011-09-24T14:41:49Z</time>
      </trkpt>
      <trkpt lat="42.57388" lon="2.06126">
        <ele>1722.006348</ele>
        <time>2011-09-24T14:41:51Z</time>
      </trkpt>
      <trkpt lat="42.57387" lon="2.06117">
        <ele>1723.688477</ele>
        <time>2011-09-24T14:41:53Z</time>
      </trkpt>
      <trkpt lat="42.57387" lon="2.06108">
        <ele>1725.290649</ele>
        <time>2011-09-24T14:41:55Z</time>
      </trkpt>
      <trkpt lat="42.57386" lon="2.06098">
        <ele>1726.83606</ele>
        <time>2011-09-24T14:41:57Z</time>
      </trkpt>
      <trkpt lat="42.57385" lon="2.06088">
        <ele>1728.36377</ele>
        <time>2011-09-24T14:41:59Z</time>
      </trkpt>
      <trkpt lat="42.57384" lon="2.06078">
        <ele>1729.888062</ele>
        <time>2011-09-24T14:42:01Z</time>
      </trkpt>
      <trkpt lat="42.57383" lon="2.06069">
        <ele>1731.446167</ele>
        <time>2011-09-24T14:42:03Z</time>
      </trkpt>
      <trkpt lat="42.57383" lon="2.06064">
        <ele>1732.240356</ele>
        <time>2011-09-24T14:42:04Z</time>
      </trkpt>
      <trkpt lat="42.57383" lon="2.06054">
        <ele>1733.26355</ele>
        <time>2011-09-24T14:42:06Z</time>
      </trkpt>
      <trkpt lat="42.57382" lon="2.06044">
        <ele>1734.203613</ele>
        <time>2011-09-24T14:42:08Z</time>
      </trkpt>
      <trkpt lat="42.57382" lon="2.06034">
        <ele>1734.293823</ele>
        <time>2011-09-24T14:42:10Z</time>
      </trkpt>
      <trkpt lat="42.57383" lon="2.06024">
        <ele>1733.255615</ele>
        <time>2011-09-24T14:42:12Z</time>
      </trkpt>
      <trkpt lat="42.57384" lon="2.06013">
        <ele>1732.355835</ele>
        <time>2011-09-24T14:42:14Z</time>
      </trkpt>
      <trkpt lat="42.57384" lon="2.06002">
        <ele>1731.920532</ele>
        <time>2011-09-24T14:42:16Z</time>
      </trkpt>
      <trkpt lat="42.57383" lon="2.0599">
        <ele>1728.892212</ele>
        <time>2011-09-24T14:42:18Z</time>
      </trkpt>
      <trkpt lat="42.57383" lon="2.05978">
        <ele>1729.818604</ele>
        <time>2011-09-24T14:42:20Z</time>
      </trkpt>
      <trkpt lat="42.57383" lon="2.05967">
        <ele>1731.30481</ele>
        <time>2011-09-24T14:42:22Z</time>
      </trkpt>
      <trkpt lat="42.57382" lon="2.05956">
        <ele>1733.106323</ele>
        <time>2011-09-24T14:42:24Z</time>
      </trkpt>
      <trkpt lat="42.57381" lon="2.05946">
        <ele>1735.037964</ele>
        <time>2011-09-24T14:42:26Z</time>
      </trkpt>
      <trkpt lat="42.5738" lon="2.05937">
        <ele>1735.392822</ele>
        <time>2011-09-24T14:42:28Z</time>
      </trkpt>
      <trkpt lat="42.57379" lon="2.05929">
        <ele>1735.785278</ele>
        <time>2011-09-24T14:42:30Z</time>
      </trkpt>
      <trkpt lat="42.57377" lon="2.0592">
        <ele>1736.303833</ele>
        <time>2011-09-24T14:42:32Z</time>
      </trkpt>
      <trkpt lat="42.57376" lon="2.05911">
        <ele>1737.03186</ele>
        <time>2011-09-24T14:42:34Z</time>
      </trkpt>
      <trkpt lat="42.57375" lon="2.05902">
        <ele>1738.073486</ele>
        <time>2011-09-24T14:42:36Z</time>
      </trkpt>
      <trkpt lat="42.57373" lon="2.05891">
        <ele>1739.191162</ele>
        <time>2011-09-24T14:42:38Z</time>
      </trkpt>
      <trkpt lat="42.57372" lon="2.05881">
        <ele>1740.055664</ele>
        <time>2011-09-24T14:42:40Z</time>
      </trkpt>
      <trkpt lat="42.57372" lon="2.0587">
        <ele>1741.039673</ele>
        <time>2011-09-24T14:42:42Z</time>
      </trkpt>
      <trkpt lat="42.57371" lon="2.0586">
        <ele>1742.159668</ele>
        <time>2011-09-24T14:42:44Z</time>
      </trkpt>
      <trkpt lat="42.5737" lon="2.05851">
        <ele>1743.35083</ele>
        <time>2011-09-24T14:42:46Z</time>
      </trkpt>
      <trkpt lat="42.57367" lon="2.05843">
        <ele>1746.389526</ele>
        <time>2011-09-24T14:42:49Z</time>
      </trkpt>
      <trkpt lat="42.57365" lon="2.05837">
        <ele>1748.47644</ele>
        <time>2011-09-24T14:42:51Z</time>
      </trkpt>
      <trkpt lat="42.57363" lon="2.0583">
        <ele>1750.551025</ele>
        <time>2011-09-24T14:42:53Z</time>
      </trkpt>
      <trkpt lat="42.57361" lon="2.05822">
        <ele>1752.614868</ele>
        <time>2011-09-24T14:42:55Z</time>
      </trkpt>
      <trkpt lat="42.5736" lon="2.05813">
        <ele>1754.223877</ele>
        <time>2011-09-24T14:42:57Z</time>
      </trkpt>
      <trkpt lat="42.57359" lon="2.05804">
        <ele>1755.967651</ele>
        <time>2011-09-24T14:42:59Z</time>
      </trkpt>
      <trkpt lat="42.57359" lon="2.05793">
        <ele>1771.784546</ele>
        <time>2011-09-24T14:43:01Z</time>
      </trkpt>
      <trkpt lat="42.57358" lon="2.05782">
        <ele>1776.435059</ele>
        <time>2011-09-24T14:43:03Z</time>
      </trkpt>
      <trkpt lat="42.57357" lon="2.05772">
        <ele>1777.195923</ele>
        <time>2011-09-24T14:43:05Z</time>
      </trkpt>
      <trkpt lat="42.57356" lon="2.05762">
        <ele>1777.994995</ele>
        <time>2011-09-24T14:43:07Z</time>
      </trkpt>
      <trkpt lat="42.57356" lon="2.05753">
        <ele>1778.863281</ele>
        <time>2011-09-24T14:43:09Z</time>
      </trkpt>
      <trkpt lat="42.57355" lon="2.05744">
        <ele>1779.941162</ele>
        <time>2011-09-24T14:43:11Z</time>
      </trkpt>
      <trkpt lat="42.57353" lon="2.05736">
        <ele>1781.291382</ele>
        <time>2011-09-24T14:43:13Z</time>
      </trkpt>
      <trkpt lat="42.57351" lon="2.05728">
        <ele>1782.659912</ele>
        <time>2011-09-24T14:43:15Z</time>
      </trkpt>
      <trkpt lat="42.5735" lon="2.0572">
        <ele>1784.052979</ele>
        <time>2011-09-24T14:43:17Z</time>
      </trkpt>
      <trkpt lat="42.57349" lon="2.05711">
        <ele>1785.510742</ele>
        <time>2011-09-24T14:43:19Z</time>
      </trkpt>
      <trkpt lat="42.57347" lon="2.05704">
        <ele>1787.174683</ele>
        <time>2011-09-24T14:43:21Z</time>
      </trkpt>
      <trkpt lat="42.57345" lon="2.05698">
        <ele>1788.993164</ele>
        <time>2011-09-24T14:43:23Z</time>
      </trkpt>
      <trkpt lat="42.57343" lon="2.05693">
        <ele>1790.857788</ele>
        <time>2011-09-24T14:43:25Z</time>
      </trkpt>
      <trkpt lat="42.57342" lon="2.05686">
        <ele>1792.770508</ele>
        <time>2011-09-24T14:43:27Z</time>
      </trkpt>
      <trkpt lat="42.57341" lon="2.05679">
        <ele>1794.689453</ele>
        <time>2011-09-24T14:43:29Z</time>
      </trkpt>
      <trkpt lat="42.5734" lon="2.0567">
        <ele>1796.686401</ele>
        <time>2011-09-24T14:43:31Z</time>
      </trkpt>
      <trkpt lat="42.57339" lon="2.05661">
        <ele>1798.697754</ele>
        <time>2011-09-24T14:43:33Z</time>
      </trkpt>
      <trkpt lat="42.57338" lon="2.05652">
        <ele>1800.772217</ele>
        <time>2011-09-24T14:43:35Z</time>
      </trkpt>
      <trkpt lat="42.57337" lon="2.05645">
        <ele>1802.990723</ele>
        <time>2011-09-24T14:43:37Z</time>
      </trkpt>
      <trkpt lat="42.57337" lon="2.05636">
        <ele>1803.914307</ele>
        <time>2011-09-24T14:43:39Z</time>
      </trkpt>
      <trkpt lat="42.57338" lon="2.05625">
        <ele>1803.386108</ele>
        <time>2011-09-24T14:43:41Z</time>
      </trkpt>
      <trkpt lat="42.57339" lon="2.05614">
        <ele>1802.597168</ele>
        <time>2011-09-24T14:43:43Z</time>
      </trkpt>
      <trkpt lat="42.57339" lon="2.05609">
        <ele>1802.229614</ele>
        <time>2011-09-24T14:43:44Z</time>
      </trkpt>
      <trkpt lat="42.5734" lon="2.05599">
        <ele>1801.548218</ele>
        <time>2011-09-24T14:43:46Z</time>
      </trkpt>
      <trkpt lat="42.57339" lon="2.05588">
        <ele>1801.033569</ele>
        <time>2011-09-24T14:43:48Z</time>
      </trkpt>
      <trkpt lat="42.57339" lon="2.05578">
        <ele>1800.662476</ele>
        <time>2011-09-24T14:43:50Z</time>
      </trkpt>
      <trkpt lat="42.57338" lon="2.05568">
        <ele>1800.575073</ele>
        <time>2011-09-24T14:43:52Z</time>
      </trkpt>
      <trkpt lat="42.57337" lon="2.05559">
        <ele>1800.707275</ele>
        <time>2011-09-24T14:43:54Z</time>
      </trkpt>
      <trkpt lat="42.57336" lon="2.0555">
        <ele>1801.120483</ele>
        <time>2011-09-24T14:43:56Z</time>
      </trkpt>
      <trkpt lat="42.57335" lon="2.05547">
        <ele>1801.388672</ele>
        <time>2011-09-24T14:43:57Z</time>
      </trkpt>
      <trkpt lat="42.57334" lon="2.0554">
        <ele>1801.973389</ele>
        <time>2011-09-24T14:43:59Z</time>
      </trkpt>
      <trkpt lat="42.57333" lon="2.05536">
        <ele>1802.336182</ele>
        <time>2011-09-24T14:44:00Z</time>
      </trkpt>
      <trkpt lat="42.57332" lon="2.05527">
        <ele>1803.067993</ele>
        <time>2011-09-24T14:44:02Z</time>
      </trkpt>
      <trkpt lat="42.57331" lon="2.05518">
        <ele>1803.924927</ele>
        <time>2011-09-24T14:44:04Z</time>
      </trkpt>
      <trkpt lat="42.57329" lon="2.0551">
        <ele>1804.869263</ele>
        <time>2011-09-24T14:44:06Z</time>
      </trkpt>
      <trkpt lat="42.57329" lon="2.05505">
        <ele>1805.388794</ele>
        <time>2011-09-24T14:44:07Z</time>
      </trkpt>
      <trkpt lat="42.57328" lon="2.05497">
        <ele>1806.59436</ele>
        <time>2011-09-24T14:44:09Z</time>
      </trkpt>
      <trkpt lat="42.57327" lon="2.05488">
        <ele>1807.88623</ele>
        <time>2011-09-24T14:44:11Z</time>
      </trkpt>
      <trkpt lat="42.57325" lon="2.05478">
        <ele>1809.405396</ele>
        <time>2011-09-24T14:44:13Z</time>
      </trkpt>
      <trkpt lat="42.57324" lon="2.05469">
        <ele>1810.980835</ele>
        <time>2011-09-24T14:44:15Z</time>
      </trkpt>
      <trkpt lat="42.57323" lon="2.0546">
        <ele>1812.567871</ele>
        <time>2011-09-24T14:44:17Z</time>
      </trkpt>
      <trkpt lat="42.57321" lon="2.05452">
        <ele>1814.192749</ele>
        <time>2011-09-24T14:44:19Z</time>
      </trkpt>
      <trkpt lat="42.57319" lon="2.05445">
        <ele>1815.90271</ele>
        <time>2011-09-24T14:44:21Z</time>
      </trkpt>
      <trkpt lat="42.57317" lon="2.05439">
        <ele>1817.864258</ele>
        <time>2011-09-24T14:44:23Z</time>
      </trkpt>
      <trkpt lat="42.57317" lon="2.05437">
        <ele>1819.183228</ele>
        <time>2011-09-24T14:44:24Z</time>
      </trkpt>
      <trkpt lat="42.57315" lon="2.0543">
        <ele>1821.677856</ele>
        <time>2011-09-24T14:44:26Z</time>
      </trkpt>
      <trkpt lat="42.57315" lon="2.05427">
        <ele>1822.933594</ele>
        <time>2011-09-24T14:44:27Z</time>
      </trkpt>
      <trkpt lat="42.57311" lon="2.05421">
        <ele>1827.068726</ele>
        <time>2011-09-24T14:44:30Z</time>
      </trkpt>
      <trkpt lat="42.57308" lon="2.05412">
        <ele>1831.163818</ele>
        <time>2011-09-24T14:44:33Z</time>
      </trkpt>
      <trkpt lat="42.57307" lon="2.05405">
        <ele>1833.938599</ele>
        <time>2011-09-24T14:44:35Z</time>
      </trkpt>
      <trkpt lat="42.57305" lon="2.05399">
        <ele>1837.017456</ele>
        <time>2011-09-24T14:44:37Z</time>
      </trkpt>
      <trkpt lat="42.57302" lon="2.05391">
        <ele>1842.376709</ele>
        <time>2011-09-24T14:44:40Z</time>
      </trkpt>
      <trkpt lat="42.573" lon="2.05385">
        <ele>1846.066528</ele>
        <time>2011-09-24T14:44:42Z</time>
      </trkpt>
      <trkpt lat="42.57298" lon="2.05379">
        <ele>1849.893799</ele>
        <time>2011-09-24T14:44:44Z</time>
      </trkpt>
      <trkpt lat="42.57296" lon="2.05372">
        <ele>1853.740601</ele>
        <time>2011-09-24T14:44:46Z</time>
      </trkpt>
      <trkpt lat="42.57294" lon="2.05366">
        <ele>1857.320068</ele>
        <time>2011-09-24T14:44:48Z</time>
      </trkpt>
      <trkpt lat="42.57293" lon="2.05364">
        <ele>1859.386353</ele>
        <time>2011-09-24T14:44:49Z</time>
      </trkpt>
      <trkpt lat="42.57289" lon="2.05358">
        <ele>1865.724365</ele>
        <time>2011-09-24T14:44:52Z</time>
      </trkpt>
      <trkpt lat="42.57286" lon="2.0535">
        <ele>1872.233154</ele>
        <time>2011-09-24T14:44:55Z</time>
      </trkpt>
      <trkpt lat="42.57285" lon="2.05344">
        <ele>1876.56604</ele>
        <time>2011-09-24T14:44:57Z</time>
      </trkpt>
      <trkpt lat="42.57282" lon="2.05337">
        <ele>1882.917236</ele>
        <time>2011-09-24T14:45:00Z</time>
      </trkpt>
      <trkpt lat="42.57277" lon="2.05335">
        <ele>1891.512451</ele>
        <time>2011-09-24T14:45:04Z</time>
      </trkpt>
      <trkpt lat="42.57272" lon="2.05341">
        <ele>1901.862915</ele>
        <time>2011-09-24T14:45:16Z</time>
      </trkpt>
      <trkpt lat="42.57275" lon="2.05335">
        <ele>1904.434082</ele>
        <time>2011-09-24T14:45:23Z</time>
      </trkpt>
      <trkpt lat="42.57273" lon="2.05328">
        <ele>1918.151978</ele>
        <time>2011-09-24T14:45:30Z</time>
      </trkpt>
      <trkpt lat="42.57272" lon="2.05323">
        <ele>1924.122192</ele>
        <time>2011-09-24T14:45:32Z</time>
      </trkpt>
      <trkpt lat="42.57271" lon="2.05315">
        <ele>1933.811646</ele>
        <time>2011-09-24T14:45:35Z</time>
      </trkpt>
      <trkpt lat="42.57274" lon="2.05307">
        <ele>1969.824829</ele>
        <time>2011-09-24T14:45:37Z</time>
      </trkpt>
      <trkpt lat="42.5728" lon="2.05298">
        <ele>2016.363403</ele>
        <time>2011-09-24T14:45:39Z</time>
      </trkpt>
      <trkpt lat="42.57283" lon="2.05293">
        <ele>2032.854614</ele>
        <time>2011-09-24T14:45:40Z</time>
      </trkpt>
      <trkpt lat="42.57286" lon="2.05288">
        <ele>2034.183716</ele>
        <time>2011-09-24T14:45:41Z</time>
      </trkpt>
      <trkpt lat="42.57291" lon="2.05283">
        <ele>2036.805542</ele>
        <time>2011-09-24T14:45:43Z</time>
      </trkpt>
      <trkpt lat="42.57296" lon="2.05281">
        <ele>2039.355347</ele>
        <time>2011-09-24T14:45:45Z</time>
      </trkpt>
      <trkpt lat="42.57304" lon="2.05283">
        <ele>2061.366699</ele>
        <time>2011-09-24T14:45:47Z</time>
      </trkpt>
      <trkpt lat="42.57308" lon="2.05286">
        <ele>2069.426514</ele>
        <time>2011-09-24T14:45:48Z</time>
      </trkpt>
      <trkpt lat="42.57312" lon="2.05291">
        <ele>2075.892578</ele>
        <time>2011-09-24T14:45:49Z</time>
      </trkpt>
      <trkpt lat="42.57314" lon="2.05297">
        <ele>2081.046143</ele>
        <time>2011-09-24T14:45:50Z</time>
      </trkpt>
      <trkpt lat="42.57318" lon="2.05303">
        <ele>2085.178223</ele>
        <time>2011-09-24T14:45:51Z</time>
      </trkpt>
      <trkpt lat="42.57321" lon="2.05308">
        <ele>2088.430176</ele>
        <time>2011-09-24T14:45:52Z</time>
      </trkpt>
      <trkpt lat="42.5733" lon="2.05309">
        <ele>2093.451416</ele>
        <time>2011-09-24T14:45:54Z</time>
      </trkpt>
      <trkpt lat="42.57336" lon="2.05309">
        <ele>2095.331543</ele>
        <time>2011-09-24T14:45:55Z</time>
      </trkpt>
      <trkpt lat="42.57342" lon="2.05311">
        <ele>2096.724609</ele>
        <time>2011-09-24T14:45:56Z</time>
      </trkpt>
      <trkpt lat="42.57355" lon="2.05312">
        <ele>2097.703369</ele>
        <time>2011-09-24T14:45:57Z</time>
      </trkpt>
      <trkpt lat="42.57363" lon="2.05312">
        <ele>2098.408936</ele>
        <time>2011-09-24T14:45:58Z</time>
      </trkpt>
      <trkpt lat="42.57371" lon="2.0531">
        <ele>2098.748535</ele>
        <time>2011-09-24T14:45:59Z</time>
      </trkpt>
      <trkpt lat="42.57379" lon="2.05307">
        <ele>2098.814209</ele>
        <time>2011-09-24T14:46:00Z</time>
      </trkpt>
      <trkpt lat="42.57387" lon="2.05304">
        <ele>2098.786865</ele>
        <time>2011-09-24T14:46:01Z</time>
      </trkpt>
      <trkpt lat="42.57393" lon="2.05301">
        <ele>2098.785156</ele>
        <time>2011-09-24T14:46:02Z</time>
      </trkpt>
      <trkpt lat="42.57401" lon="2.053">
        <ele>2098.805176</ele>
        <time>2011-09-24T14:46:03Z</time>
      </trkpt>
      <trkpt lat="42.57407" lon="2.05302">
        <ele>2098.704834</ele>
        <time>2011-09-24T14:46:04Z</time>
      </trkpt>
      <trkpt lat="42.57412" lon="2.05303">
        <ele>2098.640869</ele>
        <time>2011-09-24T14:46:05Z</time>
      </trkpt>
      <trkpt lat="42.5742" lon="2.05304">
        <ele>2098.620117</ele>
        <time>2011-09-24T14:46:07Z</time>
      </trkpt>
      <trkpt lat="42.57427" lon="2.05306">
        <ele>2098.790039</ele>
        <time>2011-09-24T14:46:09Z</time>
      </trkpt>
      <trkpt lat="42.57432" lon="2.05309">
        <ele>2098.947998</ele>
        <time>2011-09-24T14:46:10Z</time>
      </trkpt>
      <trkpt lat="42.57437" lon="2.05311">
        <ele>2099.085205</ele>
        <time>2011-09-24T14:46:11Z</time>
      </trkpt>
      <trkpt lat="42.57443" lon="2.05312">
        <ele>2099.230713</ele>
        <time>2011-09-24T14:46:12Z</time>
      </trkpt>
      <trkpt lat="42.57448" lon="2.05313">
        <ele>2099.449219</ele>
        <time>2011-09-24T14:46:13Z</time>
      </trkpt>
      <trkpt lat="42.57454" lon="2.05313">
        <ele>2099.866455</ele>
        <time>2011-09-24T14:46:14Z</time>
      </trkpt>
      <trkpt lat="42.5746" lon="2.05315">
        <ele>2099.807617</ele>
        <time>2011-09-24T14:46:15Z</time>
      </trkpt>
      <trkpt lat="42.57463" lon="2.05321">
        <ele>2099.473877</ele>
        <time>2011-09-24T14:46:16Z</time>
      </trkpt>
      <trkpt lat="42.57463" lon="2.05328">
        <ele>2098.959717</ele>
        <time>2011-09-24T14:46:17Z</time>
      </trkpt>
      <trkpt lat="42.57465" lon="2.05333">
        <ele>2098.391602</ele>
        <time>2011-09-24T14:46:18Z</time>
      </trkpt>
      <trkpt lat="42.57473" lon="2.05336">
        <ele>2097.6521</ele>
        <time>2011-09-24T14:46:20Z</time>
      </trkpt>
      <trkpt lat="42.57477" lon="2.05338">
        <ele>2097.410156</ele>
        <time>2011-09-24T14:46:21Z</time>
      </trkpt>
      <trkpt lat="42.57483" lon="2.05339">
        <ele>2097.305664</ele>
        <time>2011-09-24T14:46:22Z</time>
      </trkpt>
      <trkpt lat="42.57489" lon="2.05343">
        <ele>2097.334717</ele>
        <time>2011-09-24T14:46:23Z</time>
      </trkpt>
      <trkpt lat="42.57495" lon="2.05348">
        <ele>2097.161377</ele>
        <time>2011-09-24T14:46:24Z</time>
      </trkpt>
      <trkpt lat="42.57501" lon="2.05355">
        <ele>2096.847168</ele>
        <time>2011-09-24T14:46:25Z</time>
      </trkpt>
      <trkpt lat="42.57508" lon="2.05363">
        <ele>2096.597656</ele>
        <time>2011-09-24T14:46:26Z</time>
      </trkpt>
      <trkpt lat="42.57514" lon="2.05367">
        <ele>2096.235596</ele>
        <time>2011-09-24T14:46:27Z</time>
      </trkpt>
      <trkpt lat="42.57519" lon="2.05371">
        <ele>2095.927979</ele>
        <time>2011-09-24T14:46:28Z</time>
      </trkpt>
      <trkpt lat="42.57521" lon="2.05382">
        <ele>2095.166504</ele>
        <time>2011-09-24T14:46:30Z</time>
      </trkpt>
      <trkpt lat="42.57523" lon="2.05388">
        <ele>2094.612549</ele>
        <time>2011-09-24T14:46:31Z</time>
      </trkpt>
      <trkpt lat="42.57527" lon="2.05392">
        <ele>2093.963867</ele>
        <time>2011-09-24T14:46:32Z</time>
      </trkpt>
      <trkpt lat="42.57533" lon="2.05393">
        <ele>2093.324463</ele>
        <time>2011-09-24T14:46:33Z</time>
      </trkpt>
      <trkpt lat="42.57537" lon="2.05396">
        <ele>2092.79248</ele>
        <time>2011-09-24T14:46:34Z</time>
      </trkpt>
      <trkpt lat="42.57542" lon="2.05402">
        <ele>2092.414307</ele>
        <time>2011-09-24T14:46:35Z</time>
      </trkpt>
      <trkpt lat="42.57547" lon="2.05409">
        <ele>2092.259521</ele>
        <time>2011-09-24T14:46:36Z</time>
      </trkpt>
      <trkpt lat="42.57554" lon="2.05414">
        <ele>2092.294189</ele>
        <time>2011-09-24T14:46:37Z</time>
      </trkpt>
      <trkpt lat="42.57563" lon="2.05416">
        <ele>2092.369629</ele>
        <time>2011-09-24T14:46:38Z</time>
      </trkpt>
      <trkpt lat="42.57571" lon="2.05418">
        <ele>2092.400635</ele>
        <time>2011-09-24T14:46:39Z</time>
      </trkpt>
      <trkpt lat="42.57579" lon="2.05419">
        <ele>2092.438965</ele>
        <time>2011-09-24T14:46:40Z</time>
      </trkpt>
      <trkpt lat="42.57587" lon="2.0542">
        <ele>2092.308838</ele>
        <time>2011-09-24T14:46:41Z</time>
      </trkpt>
      <trkpt lat="42.57596" lon="2.05419">
        <ele>2091.088379</ele>
        <time>2011-09-24T14:46:42Z</time>
      </trkpt>
      <trkpt lat="42.57604" lon="2.05416">
        <ele>2088.75415</ele>
        <time>2011-09-24T14:46:43Z</time>
      </trkpt>
      <trkpt lat="42.57613" lon="2.05412">
        <ele>2085.788086</ele>
        <time>2011-09-24T14:46:44Z</time>
      </trkpt>
      <trkpt lat="42.57622" lon="2.05408">
        <ele>2082.563232</ele>
        <time>2011-09-24T14:46:45Z</time>
      </trkpt>
      <trkpt lat="42.5763" lon="2.05407">
        <ele>2079.30835</ele>
        <time>2011-09-24T14:46:46Z</time>
      </trkpt>
      <trkpt lat="42.57637" lon="2.05405">
        <ele>2076.047607</ele>
        <time>2011-09-24T14:46:47Z</time>
      </trkpt>
      <trkpt lat="42.57644" lon="2.05404">
        <ele>2073.341553</ele>
        <time>2011-09-24T14:46:48Z</time>
      </trkpt>
      <trkpt lat="42.5765" lon="2.05406">
        <ele>2071.08374</ele>
        <time>2011-09-24T14:46:49Z</time>
      </trkpt>
      <trkpt lat="42.57653" lon="2.05413">
        <ele>2070.670166</ele>
        <time>2011-09-24T14:46:51Z</time>
      </trkpt>
      <trkpt lat="42.57654" lon="2.05416">
        <ele>2070.397217</ele>
        <time>2011-09-24T14:46:52Z</time>
      </trkpt>
      <trkpt lat="42.57658" lon="2.05423">
        <ele>2070.181885</ele>
        <time>2011-09-24T14:46:54Z</time>
      </trkpt>
      <trkpt lat="42.57665" lon="2.05429">
        <ele>2067.189941</ele>
        <time>2011-09-24T14:46:56Z</time>
      </trkpt>
      <trkpt lat="42.57666" lon="2.05436">
        <ele>2064.691162</ele>
        <time>2011-09-24T14:46:57Z</time>
      </trkpt>
      <trkpt lat="42.57671" lon="2.05446">
        <ele>2058.676025</ele>
        <time>2011-09-24T14:46:59Z</time>
      </trkpt>
      <trkpt lat="42.57675" lon="2.0545">
        <ele>2056.17041</ele>
        <time>2011-09-24T14:47:00Z</time>
      </trkpt>
      <trkpt lat="42.5768" lon="2.05452">
        <ele>2053.818359</ele>
        <time>2011-09-24T14:47:01Z</time>
      </trkpt>
      <trkpt lat="42.57685" lon="2.05451">
        <ele>2051.705811</ele>
        <time>2011-09-24T14:47:02Z</time>
      </trkpt>
      <trkpt lat="42.57689" lon="2.05449">
        <ele>2049.913818</ele>
        <time>2011-09-24T14:47:03Z</time>
      </trkpt>
      <trkpt lat="42.57693" lon="2.05447">
        <ele>2048.48877</ele>
        <time>2011-09-24T14:47:04Z</time>
      </trkpt>
      <trkpt lat="42.57701" lon="2.05443">
        <ele>2048.281982</ele>
        <time>2011-09-24T14:47:06Z</time>
      </trkpt>
      <trkpt lat="42.57708" lon="2.0544">
        <ele>2048.056641</ele>
        <time>2011-09-24T14:47:08Z</time>
      </trkpt>
      <trkpt lat="42.57715" lon="2.05437">
        <ele>2047.80603</ele>
        <time>2011-09-24T14:47:10Z</time>
      </trkpt>
      <trkpt lat="42.57722" lon="2.05435">
        <ele>2047.565308</ele>
        <time>2011-09-24T14:47:13Z</time>
      </trkpt>
      <trkpt lat="42.57729" lon="2.05433">
        <ele>2047.342651</ele>
        <time>2011-09-24T14:47:14Z</time>
      </trkpt>
      <trkpt lat="42.57737" lon="2.05431">
        <ele>2046.208374</ele>
        <time>2011-09-24T14:47:16Z</time>
      </trkpt>
      <trkpt lat="42.57745" lon="2.05428">
        <ele>2044.323608</ele>
        <time>2011-09-24T14:47:18Z</time>
      </trkpt>
      <trkpt lat="42.57752" lon="2.05422">
        <ele>2042.934937</ele>
        <time>2011-09-24T14:47:20Z</time>
      </trkpt>
      <trkpt lat="42.57755" lon="2.05411">
        <ele>2042.017944</ele>
        <time>2011-09-24T14:47:22Z</time>
      </trkpt>
      <trkpt lat="42.57755" lon="2.05404">
        <ele>2041.772339</ele>
        <time>2011-09-24T14:47:23Z</time>
      </trkpt>
      <trkpt lat="42.57754" lon="2.05393">
        <ele>2041.722534</ele>
        <time>2011-09-24T14:47:25Z</time>
      </trkpt>
      <trkpt lat="42.57752" lon="2.05381">
        <ele>2041.570679</ele>
        <time>2011-09-24T14:47:27Z</time>
      </trkpt>
      <trkpt lat="42.57752" lon="2.05371">
        <ele>2041.466431</ele>
        <time>2011-09-24T14:47:29Z</time>
      </trkpt>
      <trkpt lat="42.57757" lon="2.05363">
        <ele>2041.324097</ele>
        <time>2011-09-24T14:47:31Z</time>
      </trkpt>
      <trkpt lat="42.57768" lon="2.05364">
        <ele>2041.17981</ele>
        <time>2011-09-24T14:47:33Z</time>
      </trkpt>
      <trkpt lat="42.57774" lon="2.05364">
        <ele>2040.621216</ele>
        <time>2011-09-24T14:47:34Z</time>
      </trkpt>
      <trkpt lat="42.57779" lon="2.05365">
        <ele>2039.983521</ele>
        <time>2011-09-24T14:47:35Z</time>
      </trkpt>
      <trkpt lat="42.57785" lon="2.05365">
        <ele>2039.279663</ele>
        <time>2011-09-24T14:47:36Z</time>
      </trkpt>
      <trkpt lat="42.57791" lon="2.05365">
        <ele>2038.652954</ele>
        <time>2011-09-24T14:47:37Z</time>
      </trkpt>
      <trkpt lat="42.57797" lon="2.05368">
        <ele>2038.112427</ele>
        <time>2011-09-24T14:47:38Z</time>
      </trkpt>
      <trkpt lat="42.57801" lon="2.05372">
        <ele>2037.592651</ele>
        <time>2011-09-24T14:47:39Z</time>
      </trkpt>
      <trkpt lat="42.57803" lon="2.05377">
        <ele>2037.144897</ele>
        <time>2011-09-24T14:47:40Z</time>
      </trkpt>
      <trkpt lat="42.57805" lon="2.05384">
        <ele>2036.637817</ele>
        <time>2011-09-24T14:47:41Z</time>
      </trkpt>
      <trkpt lat="42.57809" lon="2.05389">
        <ele>2036.051392</ele>
        <time>2011-09-24T14:47:42Z</time>
      </trkpt>
      <trkpt lat="42.57813" lon="2.05392">
        <ele>2035.287231</ele>
        <time>2011-09-24T14:47:43Z</time>
      </trkpt>
      <trkpt lat="42.57818" lon="2.05395">
        <ele>2034.393921</ele>
        <time>2011-09-24T14:47:44Z</time>
      </trkpt>
      <trkpt lat="42.57821" lon="2.054">
        <ele>2033.575806</ele>
        <time>2011-09-24T14:47:45Z</time>
      </trkpt>
      <trkpt lat="42.57824" lon="2.05405">
        <ele>2032.659302</ele>
        <time>2011-09-24T14:47:46Z</time>
      </trkpt>
      <trkpt lat="42.57832" lon="2.05409">
        <ele>2031.109009</ele>
        <time>2011-09-24T14:47:48Z</time>
      </trkpt>
      <trkpt lat="42.57836" lon="2.05407">
        <ele>2030.494263</ele>
        <time>2011-09-24T14:47:49Z</time>
      </trkpt>
      <trkpt lat="42.57841" lon="2.05409">
        <ele>2029.963013</ele>
        <time>2011-09-24T14:47:50Z</time>
      </trkpt>
      <trkpt lat="42.57848" lon="2.05414">
        <ele>2029.786743</ele>
        <time>2011-09-24T14:47:51Z</time>
      </trkpt>
      <trkpt lat="42.57855" lon="2.05418">
        <ele>2029.675171</ele>
        <time>2011-09-24T14:47:52Z</time>
      </trkpt>
      <trkpt lat="42.57863" lon="2.05423">
        <ele>2029.352905</ele>
        <time>2011-09-24T14:47:53Z</time>
      </trkpt>
      <trkpt lat="42.57872" lon="2.05428">
        <ele>2028.633423</ele>
        <time>2011-09-24T14:47:54Z</time>
      </trkpt>
      <trkpt lat="42.5788" lon="2.05433">
        <ele>2027.665161</ele>
        <time>2011-09-24T14:47:55Z</time>
      </trkpt>
      <trkpt lat="42.57889" lon="2.05438">
        <ele>2026.613892</ele>
        <time>2011-09-24T14:47:56Z</time>
      </trkpt>
      <trkpt lat="42.57897" lon="2.05442">
        <ele>2025.49353</ele>
        <time>2011-09-24T14:47:57Z</time>
      </trkpt>
      <trkpt lat="42.57906" lon="2.05447">
        <ele>2024.425415</ele>
        <time>2011-09-24T14:47:58Z</time>
      </trkpt>
      <trkpt lat="42.57913" lon="2.05451">
        <ele>2023.352173</ele>
        <time>2011-09-24T14:47:59Z</time>
      </trkpt>
      <trkpt lat="42.5792" lon="2.05456">
        <ele>2022.493042</ele>
        <time>2011-09-24T14:48:00Z</time>
      </trkpt>
      <trkpt lat="42.57927" lon="2.05463">
        <ele>2021.844849</ele>
        <time>2011-09-24T14:48:01Z</time>
      </trkpt>
      <trkpt lat="42.57936" lon="2.05471">
        <ele>2021.218628</ele>
        <time>2011-09-24T14:48:02Z</time>
      </trkpt>
      <trkpt lat="42.57943" lon="2.05476">
        <ele>2020.388794</ele>
        <time>2011-09-24T14:48:03Z</time>
      </trkpt>
      <trkpt lat="42.57951" lon="2.05479">
        <ele>2019.783813</ele>
        <time>2011-09-24T14:48:04Z</time>
      </trkpt>
      <trkpt lat="42.57957" lon="2.05478">
        <ele>2019.348511</ele>
        <time>2011-09-24T14:48:05Z</time>
      </trkpt>
      <trkpt lat="42.57962" lon="2.05477">
        <ele>2019.077515</ele>
        <time>2011-09-24T14:48:06Z</time>
      </trkpt>
      <trkpt lat="42.57966" lon="2.05478">
        <ele>2018.731567</ele>
        <time>2011-09-24T14:48:07Z</time>
      </trkpt>
      <trkpt lat="42.5797" lon="2.05482">
        <ele>2018.479614</ele>
        <time>2011-09-24T14:48:08Z</time>
      </trkpt>
      <trkpt lat="42.57973" lon="2.0549">
        <ele>2018.245483</ele>
        <time>2011-09-24T14:48:09Z</time>
      </trkpt>
      <trkpt lat="42.57976" lon="2.05496">
        <ele>2017.866333</ele>
        <time>2011-09-24T14:48:10Z</time>
      </trkpt>
      <trkpt lat="42.5798" lon="2.05501">
        <ele>2017.514771</ele>
        <time>2011-09-24T14:48:11Z</time>
      </trkpt>
      <trkpt lat="42.57982" lon="2.05508">
        <ele>2016.973999</ele>
        <time>2011-09-24T14:48:12Z</time>
      </trkpt>
      <trkpt lat="42.57984" lon="2.05515">
        <ele>2016.395142</ele>
        <time>2011-09-24T14:48:13Z</time>
      </trkpt>
      <trkpt lat="42.57986" lon="2.05522">
        <ele>2015.741333</ele>
        <time>2011-09-24T14:48:14Z</time>
      </trkpt>
      <trkpt lat="42.57988" lon="2.05528">
        <ele>2015.029419</ele>
        <time>2011-09-24T14:48:15Z</time>
      </trkpt>
      <trkpt lat="42.57992" lon="2.05536">
        <ele>2014.474243</ele>
        <time>2011-09-24T14:48:16Z</time>
      </trkpt>
      <trkpt lat="42.57996" lon="2.05544">
        <ele>2013.786011</ele>
        <time>2011-09-24T14:48:17Z</time>
      </trkpt>
      <trkpt lat="42.57999" lon="2.05555">
        <ele>2013.114868</ele>
        <time>2011-09-24T14:48:18Z</time>
      </trkpt>
      <trkpt lat="42.58001" lon="2.05566">
        <ele>2012.46521</ele>
        <time>2011-09-24T14:48:19Z</time>
      </trkpt>
      <trkpt lat="42.58003" lon="2.05576">
        <ele>2011.964966</ele>
        <time>2011-09-24T14:48:20Z</time>
      </trkpt>
      <trkpt lat="42.58007" lon="2.05583">
        <ele>2011.411011</ele>
        <time>2011-09-24T14:48:21Z</time>
      </trkpt>
      <trkpt lat="42.58011" lon="2.0559">
        <ele>2010.978882</ele>
        <time>2011-09-24T14:48:22Z</time>
      </trkpt>
      <trkpt lat="42.58015" lon="2.05599">
        <ele>2010.297729</ele>
        <time>2011-09-24T14:48:24Z</time>
      </trkpt>
      <trkpt lat="42.58018" lon="2.05607">
        <ele>2010.258911</ele>
        <time>2011-09-24T14:48:26Z</time>
      </trkpt>
      <trkpt lat="42.58024" lon="2.05606">
        <ele>2009.683228</ele>
        <time>2011-09-24T14:48:27Z</time>
      </trkpt>
      <trkpt lat="42.58031" lon="2.05611">
        <ele>2008.285278</ele>
        <time>2011-09-24T14:48:29Z</time>
      </trkpt>
      <trkpt lat="42.58034" lon="2.05624">
        <ele>2006.914673</ele>
        <time>2011-09-24T14:48:31Z</time>
      </trkpt>
      <trkpt lat="42.58034" lon="2.05633">
        <ele>2005.942505</ele>
        <time>2011-09-24T14:48:32Z</time>
      </trkpt>
      <trkpt lat="42.58037" lon="2.05639">
        <ele>2005.021851</ele>
        <time>2011-09-24T14:48:33Z</time>
      </trkpt>
      <trkpt lat="42.58041" lon="2.05644">
        <ele>2003.855591</ele>
        <time>2011-09-24T14:48:35Z</time>
      </trkpt>
      <trkpt lat="42.58037" lon="2.0565">
        <ele>2002.382446</ele>
        <time>2011-09-24T14:48:41Z</time>
      </trkpt>
      <trkpt lat="42.58037" lon="2.05656">
        <ele>2001.067261</ele>
        <time>2011-09-24T14:48:44Z</time>
      </trkpt>
      <trkpt lat="42.58044" lon="2.05661">
        <ele>1994.46167</ele>
        <time>2011-09-24T14:49:09Z</time>
      </trkpt>
      <trkpt lat="42.58051" lon="2.05662">
        <ele>1993.028076</ele>
        <time>2011-09-24T14:49:12Z</time>
      </trkpt>
      <trkpt lat="42.58058" lon="2.05666">
        <ele>1988.049561</ele>
        <time>2011-09-24T14:49:14Z</time>
      </trkpt>
      <trkpt lat="42.58062" lon="2.05669">
        <ele>1984.203735</ele>
        <time>2011-09-24T14:49:15Z</time>
      </trkpt>
      <trkpt lat="42.58066" lon="2.05673">
        <ele>1980.985107</ele>
        <time>2011-09-24T14:49:16Z</time>
      </trkpt>
      <trkpt lat="42.5807" lon="2.05678">
        <ele>1978.31189</ele>
        <time>2011-09-24T14:49:17Z</time>
      </trkpt>
      <trkpt lat="42.58072" lon="2.05684">
        <ele>1976.157471</ele>
        <time>2011-09-24T14:49:18Z</time>
      </trkpt>
      <trkpt lat="42.58075" lon="2.05691">
        <ele>1974.356689</ele>
        <time>2011-09-24T14:49:19Z</time>
      </trkpt>
      <trkpt lat="42.58078" lon="2.05699">
        <ele>1972.967163</ele>
        <time>2011-09-24T14:49:20Z</time>
      </trkpt>
      <trkpt lat="42.58082" lon="2.05707">
        <ele>1971.903442</ele>
        <time>2011-09-24T14:49:21Z</time>
      </trkpt>
      <trkpt lat="42.58085" lon="2.05714">
        <ele>1970.985229</ele>
        <time>2011-09-24T14:49:22Z</time>
      </trkpt>
      <trkpt lat="42.58088" lon="2.05721">
        <ele>1970.172852</ele>
        <time>2011-09-24T14:49:23Z</time>
      </trkpt>
      <trkpt lat="42.58091" lon="2.05728">
        <ele>1969.502686</ele>
        <time>2011-09-24T14:49:24Z</time>
      </trkpt>
      <trkpt lat="42.58094" lon="2.05735">
        <ele>1969.383057</ele>
        <time>2011-09-24T14:49:26Z</time>
      </trkpt>
      <trkpt lat="42.58097" lon="2.05742">
        <ele>1969.238403</ele>
        <time>2011-09-24T14:49:28Z</time>
      </trkpt>
      <trkpt lat="42.58099" lon="2.05749">
        <ele>1969.089355</ele>
        <time>2011-09-24T14:49:30Z</time>
      </trkpt>
      <trkpt lat="42.58099" lon="2.05758">
        <ele>1968.932983</ele>
        <time>2011-09-24T14:49:32Z</time>
      </trkpt>
      <trkpt lat="42.58099" lon="2.05767">
        <ele>1968.776367</ele>
        <time>2011-09-24T14:49:34Z</time>
      </trkpt>
      <trkpt lat="42.58098" lon="2.05773">
        <ele>1968.626343</ele>
        <time>2011-09-24T14:49:36Z</time>
      </trkpt>
      <trkpt lat="42.58094" lon="2.05778">
        <ele>1968.462524</ele>
        <time>2011-09-24T14:49:38Z</time>
      </trkpt>
      <trkpt lat="42.58094" lon="2.05785">
        <ele>1967.719116</ele>
        <time>2011-09-24T14:49:39Z</time>
      </trkpt>
      <trkpt lat="42.58094" lon="2.05791">
        <ele>1967.093628</ele>
        <time>2011-09-24T14:49:40Z</time>
      </trkpt>
      <trkpt lat="42.58093" lon="2.05798">
        <ele>1967.093628</ele>
        <time>2011-09-24T14:49:41Z</time>
      </trkpt>
      <trkpt lat="42.58095" lon="2.05806">
        <ele>1966.359375</ele>
        <time>2011-09-24T14:49:42Z</time>
      </trkpt>
      <trkpt lat="42.58096" lon="2.05814">
        <ele>1964.825195</ele>
        <time>2011-09-24T14:49:43Z</time>
      </trkpt>
      <trkpt lat="42.58098" lon="2.05824">
        <ele>1963.087402</ele>
        <time>2011-09-24T14:49:44Z</time>
      </trkpt>
      <trkpt lat="42.58102" lon="2.05833">
        <ele>1961.15918</ele>
        <time>2011-09-24T14:49:45Z</time>
      </trkpt>
      <trkpt lat="42.58104" lon="2.05843">
        <ele>1959.055908</ele>
        <time>2011-09-24T14:49:46Z</time>
      </trkpt>
      <trkpt lat="42.58105" lon="2.05854">
        <ele>1956.871094</ele>
        <time>2011-09-24T14:49:47Z</time>
      </trkpt>
      <trkpt lat="42.58106" lon="2.05866">
        <ele>1954.869629</ele>
        <time>2011-09-24T14:49:48Z</time>
      </trkpt>
      <trkpt lat="42.58107" lon="2.05878">
        <ele>1953.052368</ele>
        <time>2011-09-24T14:49:49Z</time>
      </trkpt>
      <trkpt lat="42.58106" lon="2.0589">
        <ele>1951.374512</ele>
        <time>2011-09-24T14:49:50Z</time>
      </trkpt>
      <trkpt lat="42.58103" lon="2.05902">
        <ele>1949.72168</ele>
        <time>2011-09-24T14:49:51Z</time>
      </trkpt>
      <trkpt lat="42.581" lon="2.05912">
        <ele>1948.028442</ele>
        <time>2011-09-24T14:49:52Z</time>
      </trkpt>
      <trkpt lat="42.58096" lon="2.05921">
        <ele>1946.418823</ele>
        <time>2011-09-24T14:49:53Z</time>
      </trkpt>
      <trkpt lat="42.58092" lon="2.05928">
        <ele>1944.895996</ele>
        <time>2011-09-24T14:49:54Z</time>
      </trkpt>
      <trkpt lat="42.58089" lon="2.05934">
        <ele>1943.30957</ele>
        <time>2011-09-24T14:49:55Z</time>
      </trkpt>
      <trkpt lat="42.58087" lon="2.05941">
        <ele>1941.853149</ele>
        <time>2011-09-24T14:49:56Z</time>
      </trkpt>
      <trkpt lat="42.58087" lon="2.05951">
        <ele>1940.469604</ele>
        <time>2011-09-24T14:49:57Z</time>
      </trkpt>
      <trkpt lat="42.58089" lon="2.05961">
        <ele>1939.305542</ele>
        <time>2011-09-24T14:49:58Z</time>
      </trkpt>
      <trkpt lat="42.5809" lon="2.05972">
        <ele>1938.317505</ele>
        <time>2011-09-24T14:49:59Z</time>
      </trkpt>
      <trkpt lat="42.5809" lon="2.05984">
        <ele>1937.327271</ele>
        <time>2011-09-24T14:50:00Z</time>
      </trkpt>
      <trkpt lat="42.5809" lon="2.05997">
        <ele>1936.526978</ele>
        <time>2011-09-24T14:50:01Z</time>
      </trkpt>
      <trkpt lat="42.58087" lon="2.06009">
        <ele>1935.874268</ele>
        <time>2011-09-24T14:50:02Z</time>
      </trkpt>
      <trkpt lat="42.58087" lon="2.06021">
        <ele>1935.194214</ele>
        <time>2011-09-24T14:50:03Z</time>
      </trkpt>
      <trkpt lat="42.58089" lon="2.06031">
        <ele>1934.546875</ele>
        <time>2011-09-24T14:50:04Z</time>
      </trkpt>
      <trkpt lat="42.5809" lon="2.06043">
        <ele>1933.9198</ele>
        <time>2011-09-24T14:50:05Z</time>
      </trkpt>
      <trkpt lat="42.5809" lon="2.06054">
        <ele>1933.32312</ele>
        <time>2011-09-24T14:50:06Z</time>
      </trkpt>
      <trkpt lat="42.58091" lon="2.06066">
        <ele>1932.786987</ele>
        <time>2011-09-24T14:50:07Z</time>
      </trkpt>
      <trkpt lat="42.58092" lon="2.06077">
        <ele>1932.179077</ele>
        <time>2011-09-24T14:50:08Z</time>
      </trkpt>
      <trkpt lat="42.58093" lon="2.06088">
        <ele>1931.722412</ele>
        <time>2011-09-24T14:50:09Z</time>
      </trkpt>
      <trkpt lat="42.58095" lon="2.06099">
        <ele>1931.286743</ele>
        <time>2011-09-24T14:50:10Z</time>
      </trkpt>
      <trkpt lat="42.58097" lon="2.06109">
        <ele>1931.085693</ele>
        <time>2011-09-24T14:50:11Z</time>
      </trkpt>
      <trkpt lat="42.58098" lon="2.06119">
        <ele>1930.924805</ele>
        <time>2011-09-24T14:50:12Z</time>
      </trkpt>
      <trkpt lat="42.581" lon="2.06129">
        <ele>1930.794434</ele>
        <time>2011-09-24T14:50:13Z</time>
      </trkpt>
      <trkpt lat="42.58102" lon="2.0614">
        <ele>1930.599609</ele>
        <time>2011-09-24T14:50:14Z</time>
      </trkpt>
      <trkpt lat="42.58105" lon="2.06149">
        <ele>1930.278687</ele>
        <time>2011-09-24T14:50:15Z</time>
      </trkpt>
      <trkpt lat="42.58107" lon="2.0616">
        <ele>1929.802979</ele>
        <time>2011-09-24T14:50:16Z</time>
      </trkpt>
      <trkpt lat="42.58109" lon="2.06171">
        <ele>1929.435669</ele>
        <time>2011-09-24T14:50:17Z</time>
      </trkpt>
      <trkpt lat="42.58113" lon="2.06181">
        <ele>1929.281372</ele>
        <time>2011-09-24T14:50:18Z</time>
      </trkpt>
      <trkpt lat="42.58115" lon="2.06194">
        <ele>1928.9729</ele>
        <time>2011-09-24T14:50:19Z</time>
      </trkpt>
      <trkpt lat="42.58117" lon="2.06206">
        <ele>1928.657349</ele>
        <time>2011-09-24T14:50:20Z</time>
      </trkpt>
      <trkpt lat="42.58118" lon="2.06218">
        <ele>1928.347656</ele>
        <time>2011-09-24T14:50:21Z</time>
      </trkpt>
      <trkpt lat="42.5812" lon="2.06231">
        <ele>1927.921997</ele>
        <time>2011-09-24T14:50:22Z</time>
      </trkpt>
      <trkpt lat="42.58125" lon="2.06241">
        <ele>1927.356812</ele>
        <time>2011-09-24T14:50:23Z</time>
      </trkpt>
      <trkpt lat="42.58129" lon="2.06251">
        <ele>1926.914917</ele>
        <time>2011-09-24T14:50:24Z</time>
      </trkpt>
      <trkpt lat="42.58131" lon="2.06261">
        <ele>1926.467651</ele>
        <time>2011-09-24T14:50:25Z</time>
      </trkpt>
      <trkpt lat="42.58133" lon="2.0627">
        <ele>1926.115723</ele>
        <time>2011-09-24T14:50:26Z</time>
      </trkpt>
      <trkpt lat="42.58136" lon="2.06279">
        <ele>1925.912598</ele>
        <time>2011-09-24T14:50:27Z</time>
      </trkpt>
      <trkpt lat="42.58139" lon="2.06286">
        <ele>1925.782471</ele>
        <time>2011-09-24T14:50:28Z</time>
      </trkpt>
      <trkpt lat="42.58142" lon="2.06296">
        <ele>1925.94397</ele>
        <time>2011-09-24T14:50:30Z</time>
      </trkpt>
      <trkpt lat="42.58144" lon="2.06305">
        <ele>1925.301514</ele>
        <time>2011-09-24T14:50:32Z</time>
      </trkpt>
      <trkpt lat="42.58146" lon="2.06316">
        <ele>1923.589722</ele>
        <time>2011-09-24T14:50:34Z</time>
      </trkpt>
      <trkpt lat="42.58147" lon="2.06323">
        <ele>1922.56897</ele>
        <time>2011-09-24T14:50:35Z</time>
      </trkpt>
      <trkpt lat="42.58148" lon="2.06331">
        <ele>1921.514038</ele>
        <time>2011-09-24T14:50:36Z</time>
      </trkpt>
      <trkpt lat="42.58148" lon="2.06339">
        <ele>1920.078369</ele>
        <time>2011-09-24T14:50:37Z</time>
      </trkpt>
      <trkpt lat="42.58147" lon="2.06346">
        <ele>1918.678955</ele>
        <time>2011-09-24T14:50:38Z</time>
      </trkpt>
      <trkpt lat="42.58147" lon="2.06354">
        <ele>1917.446045</ele>
        <time>2011-09-24T14:50:40Z</time>
      </trkpt>
      <trkpt lat="42.58143" lon="2.0636">
        <ele>1916.167358</ele>
        <time>2011-09-24T14:50:40Z</time>
      </trkpt>
      <trkpt lat="42.5814" lon="2.06366">
        <ele>1914.989014</ele>
        <time>2011-09-24T14:50:41Z</time>
      </trkpt>
      <trkpt lat="42.58136" lon="2.06373">
        <ele>1914.048828</ele>
        <time>2011-09-24T14:50:42Z</time>
      </trkpt>
      <trkpt lat="42.58133" lon="2.0638">
        <ele>1913.253296</ele>
        <time>2011-09-24T14:50:43Z</time>
      </trkpt>
      <trkpt lat="42.58129" lon="2.06387">
        <ele>1912.536621</ele>
        <time>2011-09-24T14:50:44Z</time>
      </trkpt>
      <trkpt lat="42.58124" lon="2.06395">
        <ele>1911.948975</ele>
        <time>2011-09-24T14:50:45Z</time>
      </trkpt>
      <trkpt lat="42.58121" lon="2.06403">
        <ele>1911.39502</ele>
        <time>2011-09-24T14:50:46Z</time>
      </trkpt>
      <trkpt lat="42.58117" lon="2.06412">
        <ele>1910.703247</ele>
        <time>2011-09-24T14:50:47Z</time>
      </trkpt>
      <trkpt lat="42.58113" lon="2.0642">
        <ele>1910.214966</ele>
        <time>2011-09-24T14:50:48Z</time>
      </trkpt>
      <trkpt lat="42.58109" lon="2.06428">
        <ele>1909.521729</ele>
        <time>2011-09-24T14:50:49Z</time>
      </trkpt>
      <trkpt lat="42.58106" lon="2.06436">
        <ele>1909.098999</ele>
        <time>2011-09-24T14:50:50Z</time>
      </trkpt>
      <trkpt lat="42.58102" lon="2.06444">
        <ele>1908.620483</ele>
        <time>2011-09-24T14:50:51Z</time>
      </trkpt>
      <trkpt lat="42.58099" lon="2.06452">
        <ele>1908.055298</ele>
        <time>2011-09-24T14:50:52Z</time>
      </trkpt>
      <trkpt lat="42.58095" lon="2.0646">
        <ele>1907.626343</ele>
        <time>2011-09-24T14:50:53Z</time>
      </trkpt>
      <trkpt lat="42.58092" lon="2.06467">
        <ele>1906.711914</ele>
        <time>2011-09-24T14:50:54Z</time>
      </trkpt>
      <trkpt lat="42.58089" lon="2.06474">
        <ele>1905.880371</ele>
        <time>2011-09-24T14:50:55Z</time>
      </trkpt>
      <trkpt lat="42.58086" lon="2.06482">
        <ele>1905.07251</ele>
        <time>2011-09-24T14:50:56Z</time>
      </trkpt>
      <trkpt lat="42.58083" lon="2.06495">
        <ele>1904.921265</ele>
        <time>2011-09-24T14:50:57Z</time>
      </trkpt>
      <trkpt lat="42.5808" lon="2.06507">
        <ele>1905.045898</ele>
        <time>2011-09-24T14:50:58Z</time>
      </trkpt>
      <trkpt lat="42.58079" lon="2.06518">
        <ele>1904.790405</ele>
        <time>2011-09-24T14:50:59Z</time>
      </trkpt>
      <trkpt lat="42.58079" lon="2.0653">
        <ele>1904.150269</ele>
        <time>2011-09-24T14:51:00Z</time>
      </trkpt>
      <trkpt lat="42.58078" lon="2.06541">
        <ele>1903.637573</ele>
        <time>2011-09-24T14:51:01Z</time>
      </trkpt>
      <trkpt lat="42.58078" lon="2.0655">
        <ele>1903.637573</ele>
        <time>2011-09-24T14:51:02Z</time>
      </trkpt>
      <trkpt lat="42.58077" lon="2.06561">
        <ele>1902.464722</ele>
        <time>2011-09-24T14:51:03Z</time>
      </trkpt>
      <trkpt lat="42.58077" lon="2.0657">
        <ele>1900.915405</ele>
        <time>2011-09-24T14:51:04Z</time>
      </trkpt>
      <trkpt lat="42.58076" lon="2.06581">
        <ele>1899.138672</ele>
        <time>2011-09-24T14:51:05Z</time>
      </trkpt>
      <trkpt lat="42.58075" lon="2.06591">
        <ele>1897.55835</ele>
        <time>2011-09-24T14:51:06Z</time>
      </trkpt>
      <trkpt lat="42.58074" lon="2.066">
        <ele>1895.886597</ele>
        <time>2011-09-24T14:51:07Z</time>
      </trkpt>
      <trkpt lat="42.58077" lon="2.0661">
        <ele>1895.544678</ele>
        <time>2011-09-24T14:51:09Z</time>
      </trkpt>
      <trkpt lat="42.58077" lon="2.0662">
        <ele>1893.258667</ele>
        <time>2011-09-24T14:51:11Z</time>
      </trkpt>
      <trkpt lat="42.58069" lon="2.06617">
        <ele>1892.892822</ele>
        <time>2011-09-24T14:51:13Z</time>
      </trkpt>
      <trkpt lat="42.58067" lon="2.06609">
        <ele>1892.407593</ele>
        <time>2011-09-24T14:51:15Z</time>
      </trkpt>
      <trkpt lat="42.58061" lon="2.06613">
        <ele>1889.359253</ele>
        <time>2011-09-24T14:51:18Z</time>
      </trkpt>
      <trkpt lat="42.5806" lon="2.0662">
        <ele>1887.331543</ele>
        <time>2011-09-24T14:51:19Z</time>
      </trkpt>
      <trkpt lat="42.5806" lon="2.06628">
        <ele>1885.514404</ele>
        <time>2011-09-24T14:51:20Z</time>
      </trkpt>
      <trkpt lat="42.58061" lon="2.06635">
        <ele>1883.907227</ele>
        <time>2011-09-24T14:51:21Z</time>
      </trkpt>
      <trkpt lat="42.58062" lon="2.06643">
        <ele>1882.515869</ele>
        <time>2011-09-24T14:51:22Z</time>
      </trkpt>
      <trkpt lat="42.58061" lon="2.06652">
        <ele>1882.28186</ele>
        <time>2011-09-24T14:51:24Z</time>
      </trkpt>
      <trkpt lat="42.58057" lon="2.06655">
        <ele>1882.046631</ele>
        <time>2011-09-24T14:51:26Z</time>
      </trkpt>
      <trkpt lat="42.58052" lon="2.06659">
        <ele>1881.806763</ele>
        <time>2011-09-24T14:51:28Z</time>
      </trkpt>
      <trkpt lat="42.58049" lon="2.06667">
        <ele>1879.93335</ele>
        <time>2011-09-24T14:51:30Z</time>
      </trkpt>
      <trkpt lat="42.58051" lon="2.06678">
        <ele>1878.646362</ele>
        <time>2011-09-24T14:51:32Z</time>
      </trkpt>
      <trkpt lat="42.58049" lon="2.06686">
        <ele>1877.359131</ele>
        <time>2011-09-24T14:51:34Z</time>
      </trkpt>
      <trkpt lat="42.58044" lon="2.06684">
        <ele>1876.811523</ele>
        <time>2011-09-24T14:51:35Z</time>
      </trkpt>
      <trkpt lat="42.58039" lon="2.06681">
        <ele>1876.334595</ele>
        <time>2011-09-24T14:51:36Z</time>
      </trkpt>
      <trkpt lat="42.58034" lon="2.06673">
        <ele>1876.294434</ele>
        <time>2011-09-24T14:51:38Z</time>
      </trkpt>
      <trkpt lat="42.58027" lon="2.06672">
        <ele>1876.301147</ele>
        <time>2011-09-24T14:51:40Z</time>
      </trkpt>
      <trkpt lat="42.58021" lon="2.06679">
        <ele>1875.988892</ele>
        <time>2011-09-24T14:51:42Z</time>
      </trkpt>
      <trkpt lat="42.58023" lon="2.06688">
        <ele>1875.681274</ele>
        <time>2011-09-24T14:51:43Z</time>
      </trkpt>
      <trkpt lat="42.58025" lon="2.06694">
        <ele>1875.449463</ele>
        <time>2011-09-24T14:51:44Z</time>
      </trkpt>
      <trkpt lat="42.58029" lon="2.06704">
        <ele>1875.308716</ele>
        <time>2011-09-24T14:51:46Z</time>
      </trkpt>
      <trkpt lat="42.58024" lon="2.06707">
        <ele>1875.275879</ele>
        <time>2011-09-24T14:51:48Z</time>
      </trkpt>
      <trkpt lat="42.58018" lon="2.06699">
        <ele>1875.576294</ele>
        <time>2011-09-24T14:51:50Z</time>
      </trkpt>
      <trkpt lat="42.58014" lon="2.06691">
        <ele>1875.549194</ele>
        <time>2011-09-24T14:51:52Z</time>
      </trkpt>
      <trkpt lat="42.5801" lon="2.06684">
        <ele>1875.527832</ele>
        <time>2011-09-24T14:51:54Z</time>
      </trkpt>
      <trkpt lat="42.58006" lon="2.06688">
        <ele>1875.441772</ele>
        <time>2011-09-24T14:51:56Z</time>
      </trkpt>
      <trkpt lat="42.58004" lon="2.06701">
        <ele>1874.366699</ele>
        <time>2011-09-24T14:51:58Z</time>
      </trkpt>
      <trkpt lat="42.58004" lon="2.06708">
        <ele>1873.611816</ele>
        <time>2011-09-24T14:51:59Z</time>
      </trkpt>
      <trkpt lat="42.58004" lon="2.06714">
        <ele>1872.890015</ele>
        <time>2011-09-24T14:52:00Z</time>
      </trkpt>
      <trkpt lat="42.58007" lon="2.06723">
        <ele>1871.527832</ele>
        <time>2011-09-24T14:52:02Z</time>
      </trkpt>
      <trkpt lat="42.58012" lon="2.06734">
        <ele>1870.520386</ele>
        <time>2011-09-24T14:52:04Z</time>
      </trkpt>
      <trkpt lat="42.58014" lon="2.06741">
        <ele>1869.859741</ele>
        <time>2011-09-24T14:52:05Z</time>
      </trkpt>
      <trkpt lat="42.58016" lon="2.06747">
        <ele>1868.936279</ele>
        <time>2011-09-24T14:52:06Z</time>
      </trkpt>
      <trkpt lat="42.58018" lon="2.06757">
        <ele>1868.735107</ele>
        <time>2011-09-24T14:52:08Z</time>
      </trkpt>
      <trkpt lat="42.58011" lon="2.06758">
        <ele>1867.472412</ele>
        <time>2011-09-24T14:52:10Z</time>
      </trkpt>
      <trkpt lat="42.58005" lon="2.06752">
        <ele>1866.500488</ele>
        <time>2011-09-24T14:52:11Z</time>
      </trkpt>
      <trkpt lat="42.57998" lon="2.06745">
        <ele>1865.934448</ele>
        <time>2011-09-24T14:52:12Z</time>
      </trkpt>
      <trkpt lat="42.57992" lon="2.06739">
        <ele>1865.19397</ele>
        <time>2011-09-24T14:52:13Z</time>
      </trkpt>
      <trkpt lat="42.57987" lon="2.06732">
        <ele>1864.59021</ele>
        <time>2011-09-24T14:52:14Z</time>
      </trkpt>
      <trkpt lat="42.5798" lon="2.06725">
        <ele>1864.570923</ele>
        <time>2011-09-24T14:52:15Z</time>
      </trkpt>
      <trkpt lat="42.57973" lon="2.06719">
        <ele>1864.755005</ele>
        <time>2011-09-24T14:52:16Z</time>
      </trkpt>
      <trkpt lat="42.57966" lon="2.06712">
        <ele>1864.662354</ele>
        <time>2011-09-24T14:52:17Z</time>
      </trkpt>
      <trkpt lat="42.5796" lon="2.06705">
        <ele>1864.551636</ele>
        <time>2011-09-24T14:52:18Z</time>
      </trkpt>
      <trkpt lat="42.57953" lon="2.06698">
        <ele>1864.479492</ele>
        <time>2011-09-24T14:52:19Z</time>
      </trkpt>
      <trkpt lat="42.5795" lon="2.06688">
        <ele>1864.855591</ele>
        <time>2011-09-24T14:52:20Z</time>
      </trkpt>
      <trkpt lat="42.57947" lon="2.0668">
        <ele>1864.732178</ele>
        <time>2011-09-24T14:52:21Z</time>
      </trkpt>
      <trkpt lat="42.57943" lon="2.06674">
        <ele>1864.676025</ele>
        <time>2011-09-24T14:52:22Z</time>
      </trkpt>
      <trkpt lat="42.57939" lon="2.06667">
        <ele>1864.607178</ele>
        <time>2011-09-24T14:52:23Z</time>
      </trkpt>
      <trkpt lat="42.57935" lon="2.0666">
        <ele>1864.50354</ele>
        <time>2011-09-24T14:52:24Z</time>
      </trkpt>
      <trkpt lat="42.57932" lon="2.06654">
        <ele>1864.394897</ele>
        <time>2011-09-24T14:52:25Z</time>
      </trkpt>
      <trkpt lat="42.57929" lon="2.06647">
        <ele>1864.290405</ele>
        <time>2011-09-24T14:52:26Z</time>
      </trkpt>
      <trkpt lat="42.57926" lon="2.0664">
        <ele>1864.258667</ele>
        <time>2011-09-24T14:52:27Z</time>
      </trkpt>
      <trkpt lat="42.57922" lon="2.06631">
        <ele>1864.172485</ele>
        <time>2011-09-24T14:52:28Z</time>
      </trkpt>
      <trkpt lat="42.57917" lon="2.06621">
        <ele>1863.853149</ele>
        <time>2011-09-24T14:52:29Z</time>
      </trkpt>
      <trkpt lat="42.57913" lon="2.0661">
        <ele>1863.749878</ele>
        <time>2011-09-24T14:52:30Z</time>
      </trkpt>
      <trkpt lat="42.57909" lon="2.06596">
        <ele>1863.6604</ele>
        <time>2011-09-24T14:52:31Z</time>
      </trkpt>
      <trkpt lat="42.57905" lon="2.06582">
        <ele>1863.548584</ele>
        <time>2011-09-24T14:52:32Z</time>
      </trkpt>
      <trkpt lat="42.57902" lon="2.06569">
        <ele>1863.325073</ele>
        <time>2011-09-24T14:52:33Z</time>
      </trkpt>
      <trkpt lat="42.57898" lon="2.06558">
        <ele>1863.02417</ele>
        <time>2011-09-24T14:52:34Z</time>
      </trkpt>
      <trkpt lat="42.57895" lon="2.06546">
        <ele>1862.643921</ele>
        <time>2011-09-24T14:52:35Z</time>
      </trkpt>
      <trkpt lat="42.57891" lon="2.06534">
        <ele>1862.251099</ele>
        <time>2011-09-24T14:52:36Z</time>
      </trkpt>
      <trkpt lat="42.57888" lon="2.06523">
        <ele>1862.103882</ele>
        <time>2011-09-24T14:52:37Z</time>
      </trkpt>
      <trkpt lat="42.57884" lon="2.06513">
        <ele>1861.773438</ele>
        <time>2011-09-24T14:52:38Z</time>
      </trkpt>
      <trkpt lat="42.5788" lon="2.06502">
        <ele>1861.445435</ele>
        <time>2011-09-24T14:52:39Z</time>
      </trkpt>
      <trkpt lat="42.57877" lon="2.06492">
        <ele>1861.019897</ele>
        <time>2011-09-24T14:52:40Z</time>
      </trkpt>
      <trkpt lat="42.57873" lon="2.06482">
        <ele>1860.55542</ele>
        <time>2011-09-24T14:52:41Z</time>
      </trkpt>
      <trkpt lat="42.57869" lon="2.06472">
        <ele>1860.127319</ele>
        <time>2011-09-24T14:52:42Z</time>
      </trkpt>
      <trkpt lat="42.57864" lon="2.06463">
        <ele>1859.698486</ele>
        <time>2011-09-24T14:52:43Z</time>
      </trkpt>
      <trkpt lat="42.5786" lon="2.06454">
        <ele>1859.174194</ele>
        <time>2011-09-24T14:52:44Z</time>
      </trkpt>
      <trkpt lat="42.57856" lon="2.06446">
        <ele>1858.845093</ele>
        <time>2011-09-24T14:52:45Z</time>
      </trkpt>
      <trkpt lat="42.57852" lon="2.06439">
        <ele>1858.706055</ele>
        <time>2011-09-24T14:52:46Z</time>
      </trkpt>
      <trkpt lat="42.57849" lon="2.06431">
        <ele>1858.400513</ele>
        <time>2011-09-24T14:52:47Z</time>
      </trkpt>
      <trkpt lat="42.57845" lon="2.06423">
        <ele>1858.221436</ele>
        <time>2011-09-24T14:52:48Z</time>
      </trkpt>
      <trkpt lat="42.57841" lon="2.06415">
        <ele>1857.881348</ele>
        <time>2011-09-24T14:52:49Z</time>
      </trkpt>
      <trkpt lat="42.57838" lon="2.06408">
        <ele>1857.581787</ele>
        <time>2011-09-24T14:52:50Z</time>
      </trkpt>
      <trkpt lat="42.57834" lon="2.064">
        <ele>1857.061157</ele>
        <time>2011-09-24T14:52:51Z</time>
      </trkpt>
      <trkpt lat="42.57831" lon="2.06394">
        <ele>1856.494141</ele>
        <time>2011-09-24T14:52:52Z</time>
      </trkpt>
      <trkpt lat="42.57827" lon="2.06387">
        <ele>1855.969604</ele>
        <time>2011-09-24T14:52:53Z</time>
      </trkpt>
      <trkpt lat="42.57823" lon="2.06381">
        <ele>1855.463257</ele>
        <time>2011-09-24T14:52:54Z</time>
      </trkpt>
      <trkpt lat="42.57819" lon="2.06375">
        <ele>1854.610352</ele>
        <time>2011-09-24T14:52:55Z</time>
      </trkpt>
      <trkpt lat="42.57814" lon="2.06373">
        <ele>1853.643555</ele>
        <time>2011-09-24T14:52:56Z</time>
      </trkpt>
      <trkpt lat="42.57809" lon="2.06375">
        <ele>1852.492432</ele>
        <time>2011-09-24T14:52:57Z</time>
      </trkpt>
      <trkpt lat="42.57802" lon="2.06378">
        <ele>1851.012451</ele>
        <time>2011-09-24T14:52:58Z</time>
      </trkpt>
      <trkpt lat="42.57796" lon="2.06375">
        <ele>1845.989868</ele>
        <time>2011-09-24T14:52:59Z</time>
      </trkpt>
      <trkpt lat="42.57788" lon="2.06373">
        <ele>1840.650269</ele>
        <time>2011-09-24T14:53:00Z</time>
      </trkpt>
      <trkpt lat="42.5778" lon="2.06374">
        <ele>1835.424316</ele>
        <time>2011-09-24T14:53:01Z</time>
      </trkpt>
      <trkpt lat="42.57771" lon="2.06377">
        <ele>1830.332764</ele>
        <time>2011-09-24T14:53:02Z</time>
      </trkpt>
      <trkpt lat="42.57762" lon="2.06382">
        <ele>1825.083618</ele>
        <time>2011-09-24T14:53:03Z</time>
      </trkpt>
      <trkpt lat="42.57752" lon="2.06389">
        <ele>1820.183716</ele>
        <time>2011-09-24T14:53:04Z</time>
      </trkpt>
      <trkpt lat="42.57742" lon="2.06395">
        <ele>1815.741821</ele>
        <time>2011-09-24T14:53:05Z</time>
      </trkpt>
      <trkpt lat="42.57734" lon="2.06403">
        <ele>1811.486572</ele>
        <time>2011-09-24T14:53:06Z</time>
      </trkpt>
      <trkpt lat="42.57727" lon="2.06409">
        <ele>1807.719238</ele>
        <time>2011-09-24T14:53:07Z</time>
      </trkpt>
      <trkpt lat="42.5772" lon="2.06416">
        <ele>1804.430542</ele>
        <time>2011-09-24T14:53:08Z</time>
      </trkpt>
      <trkpt lat="42.57713" lon="2.06424">
        <ele>1801.726196</ele>
        <time>2011-09-24T14:53:09Z</time>
      </trkpt>
      <trkpt lat="42.57707" lon="2.06431">
        <ele>1799.80188</ele>
        <time>2011-09-24T14:53:10Z</time>
      </trkpt>
      <trkpt lat="42.57702" lon="2.0644">
        <ele>1798.335571</ele>
        <time>2011-09-24T14:53:11Z</time>
      </trkpt>
      <trkpt lat="42.57696" lon="2.06447">
        <ele>1798.335571</ele>
        <time>2011-09-24T14:53:12Z</time>
      </trkpt>
      <trkpt lat="42.57691" lon="2.06456">
        <ele>1796.675781</ele>
        <time>2011-09-24T14:53:13Z</time>
      </trkpt>
      <trkpt lat="42.57686" lon="2.06465">
        <ele>1794.96106</ele>
        <time>2011-09-24T14:53:14Z</time>
      </trkpt>
      <trkpt lat="42.57682" lon="2.06474">
        <ele>1793.00415</ele>
        <time>2011-09-24T14:53:15Z</time>
      </trkpt>
      <trkpt lat="42.57678" lon="2.06483">
        <ele>1791.515747</ele>
        <time>2011-09-24T14:53:16Z</time>
      </trkpt>
      <trkpt lat="42.57674" lon="2.06492">
        <ele>1790.32312</ele>
        <time>2011-09-24T14:53:17Z</time>
      </trkpt>
      <trkpt lat="42.5767" lon="2.06502">
        <ele>1789.036865</ele>
        <time>2011-09-24T14:53:18Z</time>
      </trkpt>
      <trkpt lat="42.57666" lon="2.06512">
        <ele>1787.368042</ele>
        <time>2011-09-24T14:53:19Z</time>
      </trkpt>
      <trkpt lat="42.57661" lon="2.06522">
        <ele>1785.35437</ele>
        <time>2011-09-24T14:53:20Z</time>
      </trkpt>
      <trkpt lat="42.57656" lon="2.06531">
        <ele>1783.022705</ele>
        <time>2011-09-24T14:53:21Z</time>
      </trkpt>
      <trkpt lat="42.57652" lon="2.0654">
        <ele>1780.473877</ele>
        <time>2011-09-24T14:53:22Z</time>
      </trkpt>
      <trkpt lat="42.57648" lon="2.06549">
        <ele>1777.848999</ele>
        <time>2011-09-24T14:53:23Z</time>
      </trkpt>
      <trkpt lat="42.57645" lon="2.06555">
        <ele>1775.18811</ele>
        <time>2011-09-24T14:53:24Z</time>
      </trkpt>
      <trkpt lat="42.57644" lon="2.06562">
        <ele>1772.65332</ele>
        <time>2011-09-24T14:53:25Z</time>
      </trkpt>
      <trkpt lat="42.57652" lon="2.06569">
        <ele>1768.058838</ele>
        <time>2011-09-24T14:53:27Z</time>
      </trkpt>
      <trkpt lat="42.57661" lon="2.0657">
        <ele>1766.270874</ele>
        <time>2011-09-24T14:53:28Z</time>
      </trkpt>
      <trkpt lat="42.57667" lon="2.06567">
        <ele>1764.766724</ele>
        <time>2011-09-24T14:53:29Z</time>
      </trkpt>
      <trkpt lat="42.57672" lon="2.06567">
        <ele>1763.640991</ele>
        <time>2011-09-24T14:53:30Z</time>
      </trkpt>
      <trkpt lat="42.57677" lon="2.06569">
        <ele>1762.714478</ele>
        <time>2011-09-24T14:53:31Z</time>
      </trkpt>
      <trkpt lat="42.57681" lon="2.06577">
        <ele>1761.730225</ele>
        <time>2011-09-24T14:53:32Z</time>
      </trkpt>
      <trkpt lat="42.57681" lon="2.06586">
        <ele>1760.753052</ele>
        <time>2011-09-24T14:53:33Z</time>
      </trkpt>
      <trkpt lat="42.57678" lon="2.06595">
        <ele>1759.919922</ele>
        <time>2011-09-24T14:53:34Z</time>
      </trkpt>
      <trkpt lat="42.57673" lon="2.066">
        <ele>1759.30835</ele>
        <time>2011-09-24T14:53:35Z</time>
      </trkpt>
      <trkpt lat="42.57672" lon="2.06611">
        <ele>1758.220093</ele>
        <time>2011-09-24T14:53:37Z</time>
      </trkpt>
      <trkpt lat="42.57673" lon="2.0662">
        <ele>1757.318359</ele>
        <time>2011-09-24T14:53:38Z</time>
      </trkpt>
      <trkpt lat="42.57675" lon="2.0663">
        <ele>1756.318115</ele>
        <time>2011-09-24T14:53:39Z</time>
      </trkpt>
      <trkpt lat="42.57677" lon="2.0664">
        <ele>1755.203369</ele>
        <time>2011-09-24T14:53:40Z</time>
      </trkpt>
      <trkpt lat="42.57675" lon="2.06648">
        <ele>1753.960327</ele>
        <time>2011-09-24T14:53:41Z</time>
      </trkpt>
      <trkpt lat="42.57671" lon="2.06653">
        <ele>1752.92334</ele>
        <time>2011-09-24T14:53:42Z</time>
      </trkpt>
      <trkpt lat="42.57669" lon="2.06658">
        <ele>1752.077271</ele>
        <time>2011-09-24T14:53:43Z</time>
      </trkpt>
      <trkpt lat="42.57666" lon="2.06664">
        <ele>1751.412476</ele>
        <time>2011-09-24T14:53:44Z</time>
      </trkpt>
      <trkpt lat="42.57663" lon="2.06669">
        <ele>1750.946655</ele>
        <time>2011-09-24T14:53:45Z</time>
      </trkpt>
      <trkpt lat="42.57662" lon="2.06676">
        <ele>1750.484009</ele>
        <time>2011-09-24T14:53:46Z</time>
      </trkpt>
      <trkpt lat="42.5766" lon="2.06685">
        <ele>1750.470581</ele>
        <time>2011-09-24T14:53:47Z</time>
      </trkpt>
      <trkpt lat="42.57657" lon="2.06695">
        <ele>1750.525146</ele>
        <time>2011-09-24T14:53:48Z</time>
      </trkpt>
      <trkpt lat="42.57654" lon="2.06704">
        <ele>1750.103882</ele>
        <time>2011-09-24T14:53:49Z</time>
      </trkpt>
      <trkpt lat="42.5765" lon="2.06713">
        <ele>1749.568481</ele>
        <time>2011-09-24T14:53:50Z</time>
      </trkpt>
      <trkpt lat="42.5765" lon="2.06723">
        <ele>1749.132202</ele>
        <time>2011-09-24T14:53:51Z</time>
      </trkpt>
      <trkpt lat="42.5765" lon="2.06733">
        <ele>1748.651489</ele>
        <time>2011-09-24T14:53:52Z</time>
      </trkpt>
      <trkpt lat="42.5765" lon="2.06743">
        <ele>1747.837402</ele>
        <time>2011-09-24T14:53:53Z</time>
      </trkpt>
      <trkpt lat="42.57649" lon="2.06752">
        <ele>1746.203003</ele>
        <time>2011-09-24T14:53:54Z</time>
      </trkpt>
      <trkpt lat="42.57646" lon="2.06759">
        <ele>1743.986206</ele>
        <time>2011-09-24T14:53:55Z</time>
      </trkpt>
      <trkpt lat="42.5764" lon="2.06765">
        <ele>1741.403687</ele>
        <time>2011-09-24T14:53:56Z</time>
      </trkpt>
      <trkpt lat="42.57634" lon="2.0677">
        <ele>1738.77002</ele>
        <time>2011-09-24T14:53:57Z</time>
      </trkpt>
      <trkpt lat="42.57628" lon="2.06776">
        <ele>1736.156738</ele>
        <time>2011-09-24T14:53:58Z</time>
      </trkpt>
      <trkpt lat="42.5762" lon="2.06782">
        <ele>1733.877075</ele>
        <time>2011-09-24T14:53:59Z</time>
      </trkpt>
      <trkpt lat="42.57612" lon="2.06785">
        <ele>1731.957031</ele>
        <time>2011-09-24T14:54:00Z</time>
      </trkpt>
      <trkpt lat="42.57603" lon="2.06787">
        <ele>1730.096069</ele>
        <time>2011-09-24T14:54:01Z</time>
      </trkpt>
      <trkpt lat="42.57595" lon="2.06789">
        <ele>1727.929443</ele>
        <time>2011-09-24T14:54:02Z</time>
      </trkpt>
      <trkpt lat="42.57586" lon="2.06792">
        <ele>1725.627319</ele>
        <time>2011-09-24T14:54:03Z</time>
      </trkpt>
      <trkpt lat="42.57577" lon="2.06795">
        <ele>1723.115479</ele>
        <time>2011-09-24T14:54:04Z</time>
      </trkpt>
      <trkpt lat="42.57568" lon="2.06799">
        <ele>1720.36084</ele>
        <time>2011-09-24T14:54:05Z</time>
      </trkpt>
      <trkpt lat="42.57558" lon="2.06805">
        <ele>1717.54541</ele>
        <time>2011-09-24T14:54:06Z</time>
      </trkpt>
      <trkpt lat="42.57549" lon="2.06812">
        <ele>1714.888184</ele>
        <time>2011-09-24T14:54:07Z</time>
      </trkpt>
      <trkpt lat="42.5754" lon="2.0682">
        <ele>1712.49231</ele>
        <time>2011-09-24T14:54:08Z</time>
      </trkpt>
      <trkpt lat="42.57531" lon="2.0683">
        <ele>1710.653687</ele>
        <time>2011-09-24T14:54:09Z</time>
      </trkpt>
      <trkpt lat="42.57523" lon="2.0684">
        <ele>1709.308228</ele>
        <time>2011-09-24T14:54:10Z</time>
      </trkpt>
      <trkpt lat="42.57516" lon="2.06852">
        <ele>1707.845337</ele>
        <time>2011-09-24T14:54:11Z</time>
      </trkpt>
      <trkpt lat="42.5751" lon="2.06864">
        <ele>1706.302612</ele>
        <time>2011-09-24T14:54:12Z</time>
      </trkpt>
      <trkpt lat="42.57506" lon="2.06878">
        <ele>1704.893677</ele>
        <time>2011-09-24T14:54:13Z</time>
      </trkpt>
      <trkpt lat="42.57504" lon="2.06889">
        <ele>1703.498779</ele>
        <time>2011-09-24T14:54:14Z</time>
      </trkpt>
      <trkpt lat="42.57502" lon="2.06899">
        <ele>1702.275024</ele>
        <time>2011-09-24T14:54:15Z</time>
      </trkpt>
      <trkpt lat="42.57501" lon="2.06906">
        <ele>1701.300171</ele>
        <time>2011-09-24T14:54:16Z</time>
      </trkpt>
      <trkpt lat="42.57498" lon="2.06915">
        <ele>1701.076538</ele>
        <time>2011-09-24T14:54:18Z</time>
      </trkpt>
      <trkpt lat="42.57494" lon="2.06907">
        <ele>1700.549805</ele>
        <time>2011-09-24T14:54:22Z</time>
      </trkpt>
      <trkpt lat="42.57494" lon="2.06899">
        <ele>1700.064819</ele>
        <time>2011-09-24T14:54:24Z</time>
      </trkpt>
      <trkpt lat="42.57498" lon="2.06888">
        <ele>1692.886597</ele>
        <time>2011-09-24T14:55:55Z</time>
      </trkpt>
      <trkpt lat="42.57492" lon="2.06886">
        <ele>1686.245483</ele>
        <time>2011-09-24T14:56:50Z</time>
      </trkpt>
      <trkpt lat="42.57496" lon="2.06893">
        <ele>1680.789795</ele>
        <time>2011-09-24T14:58:01Z</time>
      </trkpt>
      <trkpt lat="42.57498" lon="2.06886">
        <ele>1677.729614</ele>
        <time>2011-09-24T14:58:29Z</time>
      </trkpt>
      <trkpt lat="42.57503" lon="2.06886">
        <ele>1672.567627</ele>
        <time>2011-09-24T14:59:17Z</time>
      </trkpt>
      <trkpt lat="42.57498" lon="2.06885">
        <ele>1671.221802</ele>
        <time>2011-09-24T14:59:36Z</time>
      </trkpt>
      <trkpt lat="42.57504" lon="2.06884">
        <ele>1667.882446</ele>
        <time>2011-09-24T15:01:08Z</time>
      </trkpt>
      <trkpt lat="42.57503" lon="2.0689">
        <ele>1667.70874</ele>
        <time>2011-09-24T15:01:34Z</time>
      </trkpt>
      <trkpt lat="42.57497" lon="2.06893">
        <ele>1667.835815</ele>
        <time>2011-09-24T15:01:37Z</time>
      </trkpt>
      <trkpt lat="42.57495" lon="2.06894">
        <ele>1667.90918</ele>
        <time>2011-09-24T15:01:38Z</time>
      </trkpt>
      <trkpt lat="42.5749" lon="2.06896">
        <ele>1668.02124</ele>
        <time>2011-09-24T15:01:40Z</time>
      </trkpt>
      <trkpt lat="42.57484" lon="2.06899">
        <ele>1668.145142</ele>
        <time>2011-09-24T15:01:43Z</time>
      </trkpt>
      <trkpt lat="42.57479" lon="2.06901">
        <ele>1668.21228</ele>
        <time>2011-09-24T15:01:45Z</time>
      </trkpt>
      <trkpt lat="42.57474" lon="2.06905">
        <ele>1668.226685</ele>
        <time>2011-09-24T15:01:48Z</time>
      </trkpt>
      <trkpt lat="42.57472" lon="2.06911">
        <ele>1668.11499</ele>
        <time>2011-09-24T15:01:53Z</time>
      </trkpt>
      <trkpt lat="42.57472" lon="2.0692">
        <ele>1667.980103</ele>
        <time>2011-09-24T15:01:57Z</time>
      </trkpt>
      <trkpt lat="42.57471" lon="2.06928">
        <ele>1667.899414</ele>
        <time>2011-09-24T15:02:00Z</time>
      </trkpt>
      <trkpt lat="42.5747" lon="2.06934">
        <ele>1667.842041</ele>
        <time>2011-09-24T15:02:03Z</time>
      </trkpt>
      <trkpt lat="42.57468" lon="2.06941">
        <ele>1667.804199</ele>
        <time>2011-09-24T15:02:06Z</time>
      </trkpt>
      <trkpt lat="42.57466" lon="2.06947">
        <ele>1667.765991</ele>
        <time>2011-09-24T15:02:09Z</time>
      </trkpt>
      <trkpt lat="42.5747" lon="2.06952">
        <ele>1667.293579</ele>
        <time>2011-09-24T15:02:55Z</time>
      </trkpt>
      <trkpt lat="42.57464" lon="2.06951">
        <ele>1667.033325</ele>
        <time>2011-09-24T15:03:21Z</time>
      </trkpt>
      <trkpt lat="42.57463" lon="2.06956">
        <ele>1666.946289</ele>
        <time>2011-09-24T15:03:40Z</time>
      </trkpt>
      <trkpt lat="42.57457" lon="2.0695">
        <ele>1664.597412</ele>
        <time>2011-09-24T15:05:17Z</time>
      </trkpt>
      <trkpt lat="42.57464" lon="2.06948">
        <ele>1665.256104</ele>
        <time>2011-09-24T15:05:58Z</time>
      </trkpt>
      <trkpt lat="42.57464" lon="2.06948">
        <ele>1665.303833</ele>
        <time>2011-09-24T15:05:59Z</time>
      </trkpt>
      <trkpt lat="42.57469" lon="2.06956">
        <ele>1665.381226</ele>
        <time>2011-09-24T15:06:15Z</time>
      </trkpt>
      <trkpt lat="42.57467" lon="2.06951">
        <ele>1665.402344</ele>
        <time>2011-09-24T15:06:33Z</time>
      </trkpt>
    </trkseg>
  </trk>
</gpx>